<?xml version="1.0" encoding="UTF-8" standalone="no" ?>
<gpx xmlns="http://www.topografix.com/GPX/1/1" xmlns:xsi="http://www.w3.org/2001/XMLSchema-instance" xsi:schemaLocation="http://www.topografix.com/GPX/1/1 http://www.topografix.com/GPX/1/1/gpx.xsd" version="1.1" creator="VisuGPX - https://www.visugpx.com">
  <metadata>
    <name>sortie vélo POUPOU</name>
    <desc><![CDATA[Givry Cortiambles Moroges Sassangy Rimont Fley Culles les Roches St Boil Retour voie verte]]></desc>
  </metadata>
  <trk>
    <name><![CDATA[Zezzzz]]></name>
    <trkseg>
      <trkpt lat="46.78538" lon="4.75395">
        <ele>223</ele>
        <time>2017-02-19T10:33:17Z</time>
      </trkpt>
      <trkpt lat="46.78537" lon="4.75394">
        <ele>223</ele>
        <time>2017-02-19T10:33:46Z</time>
      </trkpt>
      <trkpt lat="46.78537" lon="4.75394">
        <ele>223</ele>
        <time>2017-02-19T10:33:47Z</time>
      </trkpt>
      <trkpt lat="46.78533" lon="4.75397">
        <ele>223</ele>
        <time>2017-02-19T10:33:58Z</time>
      </trkpt>
      <trkpt lat="46.78528" lon="4.75395">
        <ele>224</ele>
        <time>2017-02-19T10:34:00Z</time>
      </trkpt>
      <trkpt lat="46.78523" lon="4.75392">
        <ele>225</ele>
        <time>2017-02-19T10:34:02Z</time>
      </trkpt>
      <trkpt lat="46.78515" lon="4.7539">
        <ele>226</ele>
        <time>2017-02-19T10:34:04Z</time>
      </trkpt>
      <trkpt lat="46.78509" lon="4.75386">
        <ele>227</ele>
        <time>2017-02-19T10:34:06Z</time>
      </trkpt>
      <trkpt lat="46.78504" lon="4.75383">
        <ele>227</ele>
        <time>2017-02-19T10:34:08Z</time>
      </trkpt>
      <trkpt lat="46.78497" lon="4.75378">
        <ele>227</ele>
        <time>2017-02-19T10:34:10Z</time>
      </trkpt>
      <trkpt lat="46.78491" lon="4.75373">
        <ele>227</ele>
        <time>2017-02-19T10:34:12Z</time>
      </trkpt>
      <trkpt lat="46.78484" lon="4.75369">
        <ele>227</ele>
        <time>2017-02-19T10:34:14Z</time>
      </trkpt>
      <trkpt lat="46.78479" lon="4.75363">
        <ele>227</ele>
        <time>2017-02-19T10:34:16Z</time>
      </trkpt>
      <trkpt lat="46.78473" lon="4.7536">
        <ele>227</ele>
        <time>2017-02-19T10:34:18Z</time>
      </trkpt>
      <trkpt lat="46.78467" lon="4.75356">
        <ele>227</ele>
        <time>2017-02-19T10:34:20Z</time>
      </trkpt>
      <trkpt lat="46.7846" lon="4.75353">
        <ele>227</ele>
        <time>2017-02-19T10:34:22Z</time>
      </trkpt>
      <trkpt lat="46.78452" lon="4.75348">
        <ele>227</ele>
        <time>2017-02-19T10:34:24Z</time>
      </trkpt>
      <trkpt lat="46.78445" lon="4.75344">
        <ele>227</ele>
        <time>2017-02-19T10:34:26Z</time>
      </trkpt>
      <trkpt lat="46.78439" lon="4.7534">
        <ele>226</ele>
        <time>2017-02-19T10:34:28Z</time>
      </trkpt>
      <trkpt lat="46.78433" lon="4.75335">
        <ele>226</ele>
        <time>2017-02-19T10:34:30Z</time>
      </trkpt>
      <trkpt lat="46.78426" lon="4.75331">
        <ele>226</ele>
        <time>2017-02-19T10:34:32Z</time>
      </trkpt>
      <trkpt lat="46.78422" lon="4.75325">
        <ele>226</ele>
        <time>2017-02-19T10:34:34Z</time>
      </trkpt>
      <trkpt lat="46.78425" lon="4.75317">
        <ele>225</ele>
        <time>2017-02-19T10:34:36Z</time>
      </trkpt>
      <trkpt lat="46.78431" lon="4.7531">
        <ele>225</ele>
        <time>2017-02-19T10:34:38Z</time>
      </trkpt>
      <trkpt lat="46.78435" lon="4.75302">
        <ele>224</ele>
        <time>2017-02-19T10:34:40Z</time>
      </trkpt>
      <trkpt lat="46.78439" lon="4.75295">
        <ele>223</ele>
        <time>2017-02-19T10:34:42Z</time>
      </trkpt>
      <trkpt lat="46.78443" lon="4.75287">
        <ele>222</ele>
        <time>2017-02-19T10:34:44Z</time>
      </trkpt>
      <trkpt lat="46.78447" lon="4.75278">
        <ele>221</ele>
        <time>2017-02-19T10:34:46Z</time>
      </trkpt>
      <trkpt lat="46.78451" lon="4.75268">
        <ele>220</ele>
        <time>2017-02-19T10:34:48Z</time>
      </trkpt>
      <trkpt lat="46.78456" lon="4.75257">
        <ele>220</ele>
        <time>2017-02-19T10:34:50Z</time>
      </trkpt>
      <trkpt lat="46.78461" lon="4.75246">
        <ele>220</ele>
        <time>2017-02-19T10:34:52Z</time>
      </trkpt>
      <trkpt lat="46.78466" lon="4.75236">
        <ele>220</ele>
        <time>2017-02-19T10:34:54Z</time>
      </trkpt>
      <trkpt lat="46.78471" lon="4.75225">
        <ele>219</ele>
        <time>2017-02-19T10:34:56Z</time>
      </trkpt>
      <trkpt lat="46.78475" lon="4.75219">
        <ele>219</ele>
        <time>2017-02-19T10:34:57Z</time>
      </trkpt>
      <trkpt lat="46.78478" lon="4.75214">
        <ele>218</ele>
        <time>2017-02-19T10:34:58Z</time>
      </trkpt>
      <trkpt lat="46.78484" lon="4.75207">
        <ele>218</ele>
        <time>2017-02-19T10:35:00Z</time>
      </trkpt>
      <trkpt lat="46.78489" lon="4.75198">
        <ele>217</ele>
        <time>2017-02-19T10:35:02Z</time>
      </trkpt>
      <trkpt lat="46.78492" lon="4.75191">
        <ele>216</ele>
        <time>2017-02-19T10:35:03Z</time>
      </trkpt>
      <trkpt lat="46.78495" lon="4.75185">
        <ele>215</ele>
        <time>2017-02-19T10:35:04Z</time>
      </trkpt>
      <trkpt lat="46.78498" lon="4.75179">
        <ele>214</ele>
        <time>2017-02-19T10:35:05Z</time>
      </trkpt>
      <trkpt lat="46.78501" lon="4.75174">
        <ele>214</ele>
        <time>2017-02-19T10:35:06Z</time>
      </trkpt>
      <trkpt lat="46.78504" lon="4.75168">
        <ele>214</ele>
        <time>2017-02-19T10:35:07Z</time>
      </trkpt>
      <trkpt lat="46.78508" lon="4.75158">
        <ele>213</ele>
        <time>2017-02-19T10:35:09Z</time>
      </trkpt>
      <trkpt lat="46.78512" lon="4.75147">
        <ele>213</ele>
        <time>2017-02-19T10:35:11Z</time>
      </trkpt>
      <trkpt lat="46.78516" lon="4.75136">
        <ele>212</ele>
        <time>2017-02-19T10:35:13Z</time>
      </trkpt>
      <trkpt lat="46.78519" lon="4.75125">
        <ele>212</ele>
        <time>2017-02-19T10:35:15Z</time>
      </trkpt>
      <trkpt lat="46.78521" lon="4.75119">
        <ele>211</ele>
        <time>2017-02-19T10:35:17Z</time>
      </trkpt>
      <trkpt lat="46.78524" lon="4.75112">
        <ele>211</ele>
        <time>2017-02-19T10:35:22Z</time>
      </trkpt>
      <trkpt lat="46.78522" lon="4.75106">
        <ele>210</ele>
        <time>2017-02-19T10:35:24Z</time>
      </trkpt>
      <trkpt lat="46.78516" lon="4.75099">
        <ele>209</ele>
        <time>2017-02-19T10:35:26Z</time>
      </trkpt>
      <trkpt lat="46.7851" lon="4.75093">
        <ele>209</ele>
        <time>2017-02-19T10:35:28Z</time>
      </trkpt>
      <trkpt lat="46.78504" lon="4.75088">
        <ele>208</ele>
        <time>2017-02-19T10:35:30Z</time>
      </trkpt>
      <trkpt lat="46.78499" lon="4.75084">
        <ele>207</ele>
        <time>2017-02-19T10:35:32Z</time>
      </trkpt>
      <trkpt lat="46.78495" lon="4.75081">
        <ele>207</ele>
        <time>2017-02-19T10:35:33Z</time>
      </trkpt>
      <trkpt lat="46.78488" lon="4.75074">
        <ele>207</ele>
        <time>2017-02-19T10:35:35Z</time>
      </trkpt>
      <trkpt lat="46.78481" lon="4.75068">
        <ele>207</ele>
        <time>2017-02-19T10:35:37Z</time>
      </trkpt>
      <trkpt lat="46.78475" lon="4.75061">
        <ele>207</ele>
        <time>2017-02-19T10:35:39Z</time>
      </trkpt>
      <trkpt lat="46.78468" lon="4.75053">
        <ele>207</ele>
        <time>2017-02-19T10:35:41Z</time>
      </trkpt>
      <trkpt lat="46.78462" lon="4.75045">
        <ele>207</ele>
        <time>2017-02-19T10:35:43Z</time>
      </trkpt>
      <trkpt lat="46.78454" lon="4.75038">
        <ele>206</ele>
        <time>2017-02-19T10:35:45Z</time>
      </trkpt>
      <trkpt lat="46.78447" lon="4.75031">
        <ele>205</ele>
        <time>2017-02-19T10:35:47Z</time>
      </trkpt>
      <trkpt lat="46.78444" lon="4.7502">
        <ele>205</ele>
        <time>2017-02-19T10:35:49Z</time>
      </trkpt>
      <trkpt lat="46.78444" lon="4.75013">
        <ele>204</ele>
        <time>2017-02-19T10:35:50Z</time>
      </trkpt>
      <trkpt lat="46.78445" lon="4.75006">
        <ele>204</ele>
        <time>2017-02-19T10:35:51Z</time>
      </trkpt>
      <trkpt lat="46.78448" lon="4.74994">
        <ele>203</ele>
        <time>2017-02-19T10:35:53Z</time>
      </trkpt>
      <trkpt lat="46.78451" lon="4.74981">
        <ele>203</ele>
        <time>2017-02-19T10:35:55Z</time>
      </trkpt>
      <trkpt lat="46.78452" lon="4.74973">
        <ele>202</ele>
        <time>2017-02-19T10:35:56Z</time>
      </trkpt>
      <trkpt lat="46.78453" lon="4.74966">
        <ele>201</ele>
        <time>2017-02-19T10:35:57Z</time>
      </trkpt>
      <trkpt lat="46.78454" lon="4.74954">
        <ele>200</ele>
        <time>2017-02-19T10:35:59Z</time>
      </trkpt>
      <trkpt lat="46.78454" lon="4.74942">
        <ele>199</ele>
        <time>2017-02-19T10:36:01Z</time>
      </trkpt>
      <trkpt lat="46.78455" lon="4.7493">
        <ele>197</ele>
        <time>2017-02-19T10:36:03Z</time>
      </trkpt>
      <trkpt lat="46.78458" lon="4.74919">
        <ele>195</ele>
        <time>2017-02-19T10:36:05Z</time>
      </trkpt>
      <trkpt lat="46.7846" lon="4.74907">
        <ele>194</ele>
        <time>2017-02-19T10:36:07Z</time>
      </trkpt>
      <trkpt lat="46.78461" lon="4.74893">
        <ele>193</ele>
        <time>2017-02-19T10:36:09Z</time>
      </trkpt>
      <trkpt lat="46.78462" lon="4.74886">
        <ele>192</ele>
        <time>2017-02-19T10:36:10Z</time>
      </trkpt>
      <trkpt lat="46.78463" lon="4.74877">
        <ele>192</ele>
        <time>2017-02-19T10:36:12Z</time>
      </trkpt>
      <trkpt lat="46.78465" lon="4.74868">
        <ele>191</ele>
        <time>2017-02-19T10:36:14Z</time>
      </trkpt>
      <trkpt lat="46.78467" lon="4.7486">
        <ele>191</ele>
        <time>2017-02-19T10:36:16Z</time>
      </trkpt>
      <trkpt lat="46.78469" lon="4.74852">
        <ele>190</ele>
        <time>2017-02-19T10:36:18Z</time>
      </trkpt>
      <trkpt lat="46.78472" lon="4.7484">
        <ele>189</ele>
        <time>2017-02-19T10:36:20Z</time>
      </trkpt>
      <trkpt lat="46.78473" lon="4.74833">
        <ele>187</ele>
        <time>2017-02-19T10:36:21Z</time>
      </trkpt>
      <trkpt lat="46.78474" lon="4.74826">
        <ele>186</ele>
        <time>2017-02-19T10:36:22Z</time>
      </trkpt>
      <trkpt lat="46.78476" lon="4.74819">
        <ele>185</ele>
        <time>2017-02-19T10:36:23Z</time>
      </trkpt>
      <trkpt lat="46.78478" lon="4.74812">
        <ele>184</ele>
        <time>2017-02-19T10:36:24Z</time>
      </trkpt>
      <trkpt lat="46.7848" lon="4.74806">
        <ele>183</ele>
        <time>2017-02-19T10:36:25Z</time>
      </trkpt>
      <trkpt lat="46.78481" lon="4.748">
        <ele>183</ele>
        <time>2017-02-19T10:36:26Z</time>
      </trkpt>
      <trkpt lat="46.78483" lon="4.74793">
        <ele>183</ele>
        <time>2017-02-19T10:36:27Z</time>
      </trkpt>
      <trkpt lat="46.78485" lon="4.74787">
        <ele>183</ele>
        <time>2017-02-19T10:36:28Z</time>
      </trkpt>
      <trkpt lat="46.78487" lon="4.7478">
        <ele>183</ele>
        <time>2017-02-19T10:36:29Z</time>
      </trkpt>
      <trkpt lat="46.7849" lon="4.74768">
        <ele>183</ele>
        <time>2017-02-19T10:36:31Z</time>
      </trkpt>
      <trkpt lat="46.78492" lon="4.74757">
        <ele>183</ele>
        <time>2017-02-19T10:36:33Z</time>
      </trkpt>
      <trkpt lat="46.78495" lon="4.74746">
        <ele>183</ele>
        <time>2017-02-19T10:36:35Z</time>
      </trkpt>
      <trkpt lat="46.78501" lon="4.74738">
        <ele>182</ele>
        <time>2017-02-19T10:36:37Z</time>
      </trkpt>
      <trkpt lat="46.78504" lon="4.74733">
        <ele>181</ele>
        <time>2017-02-19T10:36:38Z</time>
      </trkpt>
      <trkpt lat="46.78507" lon="4.74726">
        <ele>179</ele>
        <time>2017-02-19T10:36:40Z</time>
      </trkpt>
      <trkpt lat="46.78501" lon="4.74718">
        <ele>178</ele>
        <time>2017-02-19T10:36:42Z</time>
      </trkpt>
      <trkpt lat="46.78496" lon="4.74714">
        <ele>176</ele>
        <time>2017-02-19T10:36:43Z</time>
      </trkpt>
      <trkpt lat="46.78492" lon="4.74711">
        <ele>175</ele>
        <time>2017-02-19T10:36:44Z</time>
      </trkpt>
      <trkpt lat="46.78487" lon="4.74707">
        <ele>174</ele>
        <time>2017-02-19T10:36:45Z</time>
      </trkpt>
      <trkpt lat="46.78482" lon="4.74702">
        <ele>174</ele>
        <time>2017-02-19T10:36:46Z</time>
      </trkpt>
      <trkpt lat="46.78478" lon="4.74697">
        <ele>175</ele>
        <time>2017-02-19T10:36:47Z</time>
      </trkpt>
      <trkpt lat="46.78473" lon="4.74692">
        <ele>176</ele>
        <time>2017-02-19T10:36:48Z</time>
      </trkpt>
      <trkpt lat="46.78468" lon="4.74687">
        <ele>177</ele>
        <time>2017-02-19T10:36:49Z</time>
      </trkpt>
      <trkpt lat="46.78464" lon="4.74682">
        <ele>179</ele>
        <time>2017-02-19T10:36:50Z</time>
      </trkpt>
      <trkpt lat="46.78459" lon="4.74679">
        <ele>180</ele>
        <time>2017-02-19T10:36:51Z</time>
      </trkpt>
      <trkpt lat="46.78454" lon="4.74675">
        <ele>181</ele>
        <time>2017-02-19T10:36:52Z</time>
      </trkpt>
      <trkpt lat="46.7845" lon="4.74672">
        <ele>181</ele>
        <time>2017-02-19T10:36:53Z</time>
      </trkpt>
      <trkpt lat="46.78445" lon="4.74668">
        <ele>181</ele>
        <time>2017-02-19T10:36:54Z</time>
      </trkpt>
      <trkpt lat="46.78441" lon="4.74666">
        <ele>180</ele>
        <time>2017-02-19T10:36:55Z</time>
      </trkpt>
      <trkpt lat="46.78436" lon="4.74662">
        <ele>180</ele>
        <time>2017-02-19T10:36:56Z</time>
      </trkpt>
      <trkpt lat="46.78432" lon="4.74659">
        <ele>179</ele>
        <time>2017-02-19T10:36:57Z</time>
      </trkpt>
      <trkpt lat="46.78427" lon="4.74654">
        <ele>179</ele>
        <time>2017-02-19T10:36:58Z</time>
      </trkpt>
      <trkpt lat="46.78422" lon="4.7465">
        <ele>179</ele>
        <time>2017-02-19T10:36:59Z</time>
      </trkpt>
      <trkpt lat="46.78418" lon="4.74645">
        <ele>179</ele>
        <time>2017-02-19T10:37:00Z</time>
      </trkpt>
      <trkpt lat="46.78413" lon="4.7464">
        <ele>178</ele>
        <time>2017-02-19T10:37:01Z</time>
      </trkpt>
      <trkpt lat="46.7841" lon="4.74634">
        <ele>178</ele>
        <time>2017-02-19T10:37:02Z</time>
      </trkpt>
      <trkpt lat="46.78405" lon="4.7463">
        <ele>178</ele>
        <time>2017-02-19T10:37:03Z</time>
      </trkpt>
      <trkpt lat="46.78398" lon="4.74625">
        <ele>179</ele>
        <time>2017-02-19T10:37:04Z</time>
      </trkpt>
      <trkpt lat="46.78392" lon="4.74622">
        <ele>181</ele>
        <time>2017-02-19T10:37:05Z</time>
      </trkpt>
      <trkpt lat="46.78388" lon="4.7462">
        <ele>182</ele>
        <time>2017-02-19T10:37:06Z</time>
      </trkpt>
      <trkpt lat="46.78383" lon="4.74616">
        <ele>184</ele>
        <time>2017-02-19T10:37:07Z</time>
      </trkpt>
      <trkpt lat="46.78379" lon="4.74614">
        <ele>185</ele>
        <time>2017-02-19T10:37:08Z</time>
      </trkpt>
      <trkpt lat="46.78375" lon="4.74611">
        <ele>185</ele>
        <time>2017-02-19T10:37:09Z</time>
      </trkpt>
      <trkpt lat="46.7837" lon="4.74608">
        <ele>185</ele>
        <time>2017-02-19T10:37:10Z</time>
      </trkpt>
      <trkpt lat="46.78365" lon="4.74604">
        <ele>185</ele>
        <time>2017-02-19T10:37:11Z</time>
      </trkpt>
      <trkpt lat="46.7836" lon="4.74601">
        <ele>185</ele>
        <time>2017-02-19T10:37:12Z</time>
      </trkpt>
      <trkpt lat="46.78356" lon="4.74598">
        <ele>185</ele>
        <time>2017-02-19T10:37:13Z</time>
      </trkpt>
      <trkpt lat="46.78351" lon="4.74596">
        <ele>186</ele>
        <time>2017-02-19T10:37:14Z</time>
      </trkpt>
      <trkpt lat="46.78347" lon="4.74594">
        <ele>186</ele>
        <time>2017-02-19T10:37:15Z</time>
      </trkpt>
      <trkpt lat="46.78338" lon="4.7459">
        <ele>185</ele>
        <time>2017-02-19T10:37:17Z</time>
      </trkpt>
      <trkpt lat="46.78334" lon="4.74586">
        <ele>185</ele>
        <time>2017-02-19T10:37:18Z</time>
      </trkpt>
      <trkpt lat="46.78333" lon="4.74579">
        <ele>184</ele>
        <time>2017-02-19T10:37:20Z</time>
      </trkpt>
      <trkpt lat="46.78332" lon="4.74567">
        <ele>182</ele>
        <time>2017-02-19T10:37:22Z</time>
      </trkpt>
      <trkpt lat="46.78332" lon="4.74556">
        <ele>180</ele>
        <time>2017-02-19T10:37:24Z</time>
      </trkpt>
      <trkpt lat="46.78334" lon="4.74544">
        <ele>178</ele>
        <time>2017-02-19T10:37:26Z</time>
      </trkpt>
      <trkpt lat="46.78335" lon="4.74535">
        <ele>176</ele>
        <time>2017-02-19T10:37:28Z</time>
      </trkpt>
      <trkpt lat="46.78336" lon="4.74526">
        <ele>176</ele>
        <time>2017-02-19T10:37:30Z</time>
      </trkpt>
      <trkpt lat="46.78328" lon="4.74521">
        <ele>175</ele>
        <time>2017-02-19T10:37:32Z</time>
      </trkpt>
      <trkpt lat="46.78322" lon="4.74514">
        <ele>175</ele>
        <time>2017-02-19T10:37:34Z</time>
      </trkpt>
      <trkpt lat="46.78318" lon="4.74509">
        <ele>175</ele>
        <time>2017-02-19T10:37:35Z</time>
      </trkpt>
      <trkpt lat="46.78314" lon="4.74504">
        <ele>176</ele>
        <time>2017-02-19T10:37:36Z</time>
      </trkpt>
      <trkpt lat="46.78311" lon="4.74499">
        <ele>176</ele>
        <time>2017-02-19T10:37:37Z</time>
      </trkpt>
      <trkpt lat="46.78304" lon="4.74492">
        <ele>176</ele>
        <time>2017-02-19T10:37:39Z</time>
      </trkpt>
      <trkpt lat="46.783" lon="4.74488">
        <ele>176</ele>
        <time>2017-02-19T10:37:40Z</time>
      </trkpt>
      <trkpt lat="46.78294" lon="4.74479">
        <ele>176</ele>
        <time>2017-02-19T10:37:42Z</time>
      </trkpt>
      <trkpt lat="46.78291" lon="4.74473">
        <ele>176</ele>
        <time>2017-02-19T10:37:44Z</time>
      </trkpt>
      <trkpt lat="46.78286" lon="4.74472">
        <ele>177</ele>
        <time>2017-02-19T10:37:46Z</time>
      </trkpt>
      <trkpt lat="46.7828" lon="4.74466">
        <ele>177</ele>
        <time>2017-02-19T10:37:48Z</time>
      </trkpt>
      <trkpt lat="46.78273" lon="4.74464">
        <ele>178</ele>
        <time>2017-02-19T10:37:50Z</time>
      </trkpt>
      <trkpt lat="46.78266" lon="4.74457">
        <ele>179</ele>
        <time>2017-02-19T10:37:52Z</time>
      </trkpt>
      <trkpt lat="46.78262" lon="4.74455">
        <ele>179</ele>
        <time>2017-02-19T10:37:53Z</time>
      </trkpt>
      <trkpt lat="46.78257" lon="4.74454">
        <ele>180</ele>
        <time>2017-02-19T10:37:54Z</time>
      </trkpt>
      <trkpt lat="46.78252" lon="4.74452">
        <ele>180</ele>
        <time>2017-02-19T10:37:55Z</time>
      </trkpt>
      <trkpt lat="46.78248" lon="4.7445">
        <ele>180</ele>
        <time>2017-02-19T10:37:56Z</time>
      </trkpt>
      <trkpt lat="46.78243" lon="4.74447">
        <ele>180</ele>
        <time>2017-02-19T10:37:57Z</time>
      </trkpt>
      <trkpt lat="46.78238" lon="4.74444">
        <ele>180</ele>
        <time>2017-02-19T10:37:58Z</time>
      </trkpt>
      <trkpt lat="46.78234" lon="4.7444">
        <ele>180</ele>
        <time>2017-02-19T10:37:59Z</time>
      </trkpt>
      <trkpt lat="46.78229" lon="4.74436">
        <ele>181</ele>
        <time>2017-02-19T10:38:00Z</time>
      </trkpt>
      <trkpt lat="46.78224" lon="4.74433">
        <ele>181</ele>
        <time>2017-02-19T10:38:01Z</time>
      </trkpt>
      <trkpt lat="46.78219" lon="4.7443">
        <ele>181</ele>
        <time>2017-02-19T10:38:02Z</time>
      </trkpt>
      <trkpt lat="46.78214" lon="4.74427">
        <ele>181</ele>
        <time>2017-02-19T10:38:03Z</time>
      </trkpt>
      <trkpt lat="46.78208" lon="4.74423">
        <ele>181</ele>
        <time>2017-02-19T10:38:04Z</time>
      </trkpt>
      <trkpt lat="46.78202" lon="4.7442">
        <ele>181</ele>
        <time>2017-02-19T10:38:05Z</time>
      </trkpt>
      <trkpt lat="46.78198" lon="4.74416">
        <ele>181</ele>
        <time>2017-02-19T10:38:06Z</time>
      </trkpt>
      <trkpt lat="46.78193" lon="4.74411">
        <ele>182</ele>
        <time>2017-02-19T10:38:07Z</time>
      </trkpt>
      <trkpt lat="46.78182" lon="4.74404">
        <ele>182</ele>
        <time>2017-02-19T10:38:09Z</time>
      </trkpt>
      <trkpt lat="46.78176" lon="4.744">
        <ele>183</ele>
        <time>2017-02-19T10:38:10Z</time>
      </trkpt>
      <trkpt lat="46.7817" lon="4.74396">
        <ele>185</ele>
        <time>2017-02-19T10:38:11Z</time>
      </trkpt>
      <trkpt lat="46.78165" lon="4.74391">
        <ele>186</ele>
        <time>2017-02-19T10:38:12Z</time>
      </trkpt>
      <trkpt lat="46.7816" lon="4.74387">
        <ele>187</ele>
        <time>2017-02-19T10:38:13Z</time>
      </trkpt>
      <trkpt lat="46.78156" lon="4.74381">
        <ele>189</ele>
        <time>2017-02-19T10:38:14Z</time>
      </trkpt>
      <trkpt lat="46.78154" lon="4.74376">
        <ele>190</ele>
        <time>2017-02-19T10:38:15Z</time>
      </trkpt>
      <trkpt lat="46.78154" lon="4.74362">
        <ele>189</ele>
        <time>2017-02-19T10:38:17Z</time>
      </trkpt>
      <trkpt lat="46.78154" lon="4.74355">
        <ele>189</ele>
        <time>2017-02-19T10:38:18Z</time>
      </trkpt>
      <trkpt lat="46.78156" lon="4.74349">
        <ele>188</ele>
        <time>2017-02-19T10:38:19Z</time>
      </trkpt>
      <trkpt lat="46.78159" lon="4.74342">
        <ele>186</ele>
        <time>2017-02-19T10:38:20Z</time>
      </trkpt>
      <trkpt lat="46.78161" lon="4.74336">
        <ele>184</ele>
        <time>2017-02-19T10:38:21Z</time>
      </trkpt>
      <trkpt lat="46.78163" lon="4.74328">
        <ele>182</ele>
        <time>2017-02-19T10:38:22Z</time>
      </trkpt>
      <trkpt lat="46.78164" lon="4.7432">
        <ele>181</ele>
        <time>2017-02-19T10:38:23Z</time>
      </trkpt>
      <trkpt lat="46.78165" lon="4.74311">
        <ele>180</ele>
        <time>2017-02-19T10:38:24Z</time>
      </trkpt>
      <trkpt lat="46.78166" lon="4.74294">
        <ele>183</ele>
        <time>2017-02-19T10:38:26Z</time>
      </trkpt>
      <trkpt lat="46.78167" lon="4.74286">
        <ele>186</ele>
        <time>2017-02-19T10:38:27Z</time>
      </trkpt>
      <trkpt lat="46.7817" lon="4.74277">
        <ele>189</ele>
        <time>2017-02-19T10:38:28Z</time>
      </trkpt>
      <trkpt lat="46.78172" lon="4.7427">
        <ele>192</ele>
        <time>2017-02-19T10:38:29Z</time>
      </trkpt>
      <trkpt lat="46.78175" lon="4.74262">
        <ele>194</ele>
        <time>2017-02-19T10:38:30Z</time>
      </trkpt>
      <trkpt lat="46.78177" lon="4.74254">
        <ele>196</ele>
        <time>2017-02-19T10:38:31Z</time>
      </trkpt>
      <trkpt lat="46.78178" lon="4.74247">
        <ele>197</ele>
        <time>2017-02-19T10:38:32Z</time>
      </trkpt>
      <trkpt lat="46.78177" lon="4.74235">
        <ele>198</ele>
        <time>2017-02-19T10:38:34Z</time>
      </trkpt>
      <trkpt lat="46.7817" lon="4.7423">
        <ele>199</ele>
        <time>2017-02-19T10:38:36Z</time>
      </trkpt>
      <trkpt lat="46.78164" lon="4.74229">
        <ele>199</ele>
        <time>2017-02-19T10:38:37Z</time>
      </trkpt>
      <trkpt lat="46.78159" lon="4.74226">
        <ele>199</ele>
        <time>2017-02-19T10:38:38Z</time>
      </trkpt>
      <trkpt lat="46.78153" lon="4.74222">
        <ele>199</ele>
        <time>2017-02-19T10:38:39Z</time>
      </trkpt>
      <trkpt lat="46.78148" lon="4.74218">
        <ele>198</ele>
        <time>2017-02-19T10:38:40Z</time>
      </trkpt>
      <trkpt lat="46.78143" lon="4.74214">
        <ele>198</ele>
        <time>2017-02-19T10:38:41Z</time>
      </trkpt>
      <trkpt lat="46.78138" lon="4.74211">
        <ele>198</ele>
        <time>2017-02-19T10:38:42Z</time>
      </trkpt>
      <trkpt lat="46.78133" lon="4.74208">
        <ele>198</ele>
        <time>2017-02-19T10:38:43Z</time>
      </trkpt>
      <trkpt lat="46.78129" lon="4.74204">
        <ele>198</ele>
        <time>2017-02-19T10:38:44Z</time>
      </trkpt>
      <trkpt lat="46.78125" lon="4.74199">
        <ele>198</ele>
        <time>2017-02-19T10:38:45Z</time>
      </trkpt>
      <trkpt lat="46.78122" lon="4.74194">
        <ele>198</ele>
        <time>2017-02-19T10:38:46Z</time>
      </trkpt>
      <trkpt lat="46.78117" lon="4.74187">
        <ele>197</ele>
        <time>2017-02-19T10:38:48Z</time>
      </trkpt>
      <trkpt lat="46.78113" lon="4.74182">
        <ele>195</ele>
        <time>2017-02-19T10:38:50Z</time>
      </trkpt>
      <trkpt lat="46.78108" lon="4.74181">
        <ele>192</ele>
        <time>2017-02-19T10:38:51Z</time>
      </trkpt>
      <trkpt lat="46.78103" lon="4.74179">
        <ele>188</ele>
        <time>2017-02-19T10:38:52Z</time>
      </trkpt>
      <trkpt lat="46.78099" lon="4.74176">
        <ele>185</ele>
        <time>2017-02-19T10:38:53Z</time>
      </trkpt>
      <trkpt lat="46.78094" lon="4.74172">
        <ele>183</ele>
        <time>2017-02-19T10:38:54Z</time>
      </trkpt>
      <trkpt lat="46.7809" lon="4.74167">
        <ele>182</ele>
        <time>2017-02-19T10:38:55Z</time>
      </trkpt>
      <trkpt lat="46.78086" lon="4.74162">
        <ele>182</ele>
        <time>2017-02-19T10:38:56Z</time>
      </trkpt>
      <trkpt lat="46.78082" lon="4.74156">
        <ele>182</ele>
        <time>2017-02-19T10:38:57Z</time>
      </trkpt>
      <trkpt lat="46.78078" lon="4.74153">
        <ele>183</ele>
        <time>2017-02-19T10:38:58Z</time>
      </trkpt>
      <trkpt lat="46.78068" lon="4.74149">
        <ele>183</ele>
        <time>2017-02-19T10:39:00Z</time>
      </trkpt>
      <trkpt lat="46.78064" lon="4.74145">
        <ele>184</ele>
        <time>2017-02-19T10:39:01Z</time>
      </trkpt>
      <trkpt lat="46.78057" lon="4.74138">
        <ele>185</ele>
        <time>2017-02-19T10:39:03Z</time>
      </trkpt>
      <trkpt lat="46.78049" lon="4.74131">
        <ele>186</ele>
        <time>2017-02-19T10:39:05Z</time>
      </trkpt>
      <trkpt lat="46.78041" lon="4.74125">
        <ele>187</ele>
        <time>2017-02-19T10:39:07Z</time>
      </trkpt>
      <trkpt lat="46.78036" lon="4.74122">
        <ele>187</ele>
        <time>2017-02-19T10:39:08Z</time>
      </trkpt>
      <trkpt lat="46.78031" lon="4.74118">
        <ele>187</ele>
        <time>2017-02-19T10:39:09Z</time>
      </trkpt>
      <trkpt lat="46.78027" lon="4.74113">
        <ele>186</ele>
        <time>2017-02-19T10:39:10Z</time>
      </trkpt>
      <trkpt lat="46.78026" lon="4.74099">
        <ele>185</ele>
        <time>2017-02-19T10:39:12Z</time>
      </trkpt>
      <trkpt lat="46.78026" lon="4.74091">
        <ele>184</ele>
        <time>2017-02-19T10:39:13Z</time>
      </trkpt>
      <trkpt lat="46.78026" lon="4.74083">
        <ele>184</ele>
        <time>2017-02-19T10:39:14Z</time>
      </trkpt>
      <trkpt lat="46.78026" lon="4.74076">
        <ele>183</ele>
        <time>2017-02-19T10:39:15Z</time>
      </trkpt>
      <trkpt lat="46.78026" lon="4.7407">
        <ele>183</ele>
        <time>2017-02-19T10:39:16Z</time>
      </trkpt>
      <trkpt lat="46.78027" lon="4.74057">
        <ele>182</ele>
        <time>2017-02-19T10:39:18Z</time>
      </trkpt>
      <trkpt lat="46.7803" lon="4.74047">
        <ele>181</ele>
        <time>2017-02-19T10:39:20Z</time>
      </trkpt>
      <trkpt lat="46.78031" lon="4.74038">
        <ele>180</ele>
        <time>2017-02-19T10:39:22Z</time>
      </trkpt>
      <trkpt lat="46.78031" lon="4.74025">
        <ele>179</ele>
        <time>2017-02-19T10:39:24Z</time>
      </trkpt>
      <trkpt lat="46.78031" lon="4.74017">
        <ele>178</ele>
        <time>2017-02-19T10:39:25Z</time>
      </trkpt>
      <trkpt lat="46.78032" lon="4.7401">
        <ele>177</ele>
        <time>2017-02-19T10:39:26Z</time>
      </trkpt>
      <trkpt lat="46.78033" lon="4.74004">
        <ele>177</ele>
        <time>2017-02-19T10:39:27Z</time>
      </trkpt>
      <trkpt lat="46.78033" lon="4.73992">
        <ele>177</ele>
        <time>2017-02-19T10:39:29Z</time>
      </trkpt>
      <trkpt lat="46.78034" lon="4.73981">
        <ele>177</ele>
        <time>2017-02-19T10:39:31Z</time>
      </trkpt>
      <trkpt lat="46.78035" lon="4.73969">
        <ele>176</ele>
        <time>2017-02-19T10:39:33Z</time>
      </trkpt>
      <trkpt lat="46.78036" lon="4.73957">
        <ele>176</ele>
        <time>2017-02-19T10:39:35Z</time>
      </trkpt>
      <trkpt lat="46.78036" lon="4.7395">
        <ele>175</ele>
        <time>2017-02-19T10:39:36Z</time>
      </trkpt>
      <trkpt lat="46.78035" lon="4.73943">
        <ele>175</ele>
        <time>2017-02-19T10:39:37Z</time>
      </trkpt>
      <trkpt lat="46.78035" lon="4.73936">
        <ele>174</ele>
        <time>2017-02-19T10:39:38Z</time>
      </trkpt>
      <trkpt lat="46.78033" lon="4.73924">
        <ele>174</ele>
        <time>2017-02-19T10:39:40Z</time>
      </trkpt>
      <trkpt lat="46.78033" lon="4.73917">
        <ele>174</ele>
        <time>2017-02-19T10:39:41Z</time>
      </trkpt>
      <trkpt lat="46.78031" lon="4.73904">
        <ele>174</ele>
        <time>2017-02-19T10:39:43Z</time>
      </trkpt>
      <trkpt lat="46.7803" lon="4.73897">
        <ele>174</ele>
        <time>2017-02-19T10:39:44Z</time>
      </trkpt>
      <trkpt lat="46.7803" lon="4.73889">
        <ele>175</ele>
        <time>2017-02-19T10:39:45Z</time>
      </trkpt>
      <trkpt lat="46.7803" lon="4.73882">
        <ele>176</ele>
        <time>2017-02-19T10:39:46Z</time>
      </trkpt>
      <trkpt lat="46.78029" lon="4.7387">
        <ele>177</ele>
        <time>2017-02-19T10:39:48Z</time>
      </trkpt>
      <trkpt lat="46.78029" lon="4.73857">
        <ele>179</ele>
        <time>2017-02-19T10:39:50Z</time>
      </trkpt>
      <trkpt lat="46.78027" lon="4.73849">
        <ele>180</ele>
        <time>2017-02-19T10:39:51Z</time>
      </trkpt>
      <trkpt lat="46.78026" lon="4.73842">
        <ele>181</ele>
        <time>2017-02-19T10:39:52Z</time>
      </trkpt>
      <trkpt lat="46.78024" lon="4.73832">
        <ele>182</ele>
        <time>2017-02-19T10:39:54Z</time>
      </trkpt>
      <trkpt lat="46.78022" lon="4.73819">
        <ele>182</ele>
        <time>2017-02-19T10:39:56Z</time>
      </trkpt>
      <trkpt lat="46.78021" lon="4.73811">
        <ele>182</ele>
        <time>2017-02-19T10:39:57Z</time>
      </trkpt>
      <trkpt lat="46.78019" lon="4.73804">
        <ele>182</ele>
        <time>2017-02-19T10:39:58Z</time>
      </trkpt>
      <trkpt lat="46.78018" lon="4.73795">
        <ele>182</ele>
        <time>2017-02-19T10:39:59Z</time>
      </trkpt>
      <trkpt lat="46.78017" lon="4.73787">
        <ele>182</ele>
        <time>2017-02-19T10:40:00Z</time>
      </trkpt>
      <trkpt lat="46.78016" lon="4.73779">
        <ele>183</ele>
        <time>2017-02-19T10:40:01Z</time>
      </trkpt>
      <trkpt lat="46.78014" lon="4.73771">
        <ele>183</ele>
        <time>2017-02-19T10:40:02Z</time>
      </trkpt>
      <trkpt lat="46.78013" lon="4.73763">
        <ele>184</ele>
        <time>2017-02-19T10:40:03Z</time>
      </trkpt>
      <trkpt lat="46.78012" lon="4.73756">
        <ele>184</ele>
        <time>2017-02-19T10:40:04Z</time>
      </trkpt>
      <trkpt lat="46.78011" lon="4.73748">
        <ele>184</ele>
        <time>2017-02-19T10:40:05Z</time>
      </trkpt>
      <trkpt lat="46.7801" lon="4.73742">
        <ele>184</ele>
        <time>2017-02-19T10:40:06Z</time>
      </trkpt>
      <trkpt lat="46.78009" lon="4.73734">
        <ele>185</ele>
        <time>2017-02-19T10:40:07Z</time>
      </trkpt>
      <trkpt lat="46.78009" lon="4.73725">
        <ele>185</ele>
        <time>2017-02-19T10:40:08Z</time>
      </trkpt>
      <trkpt lat="46.78008" lon="4.73717">
        <ele>186</ele>
        <time>2017-02-19T10:40:09Z</time>
      </trkpt>
      <trkpt lat="46.78007" lon="4.7371">
        <ele>187</ele>
        <time>2017-02-19T10:40:10Z</time>
      </trkpt>
      <trkpt lat="46.78005" lon="4.73702">
        <ele>188</ele>
        <time>2017-02-19T10:40:11Z</time>
      </trkpt>
      <trkpt lat="46.78004" lon="4.73695">
        <ele>189</ele>
        <time>2017-02-19T10:40:12Z</time>
      </trkpt>
      <trkpt lat="46.78003" lon="4.73688">
        <ele>191</ele>
        <time>2017-02-19T10:40:13Z</time>
      </trkpt>
      <trkpt lat="46.78002" lon="4.7368">
        <ele>192</ele>
        <time>2017-02-19T10:40:14Z</time>
      </trkpt>
      <trkpt lat="46.78001" lon="4.73672">
        <ele>194</ele>
        <time>2017-02-19T10:40:15Z</time>
      </trkpt>
      <trkpt lat="46.78" lon="4.73664">
        <ele>195</ele>
        <time>2017-02-19T10:40:16Z</time>
      </trkpt>
      <trkpt lat="46.78" lon="4.73657">
        <ele>196</ele>
        <time>2017-02-19T10:40:17Z</time>
      </trkpt>
      <trkpt lat="46.78" lon="4.73649">
        <ele>197</ele>
        <time>2017-02-19T10:40:18Z</time>
      </trkpt>
      <trkpt lat="46.77999" lon="4.73641">
        <ele>197</ele>
        <time>2017-02-19T10:40:19Z</time>
      </trkpt>
      <trkpt lat="46.78" lon="4.73634">
        <ele>198</ele>
        <time>2017-02-19T10:40:20Z</time>
      </trkpt>
      <trkpt lat="46.78001" lon="4.73627">
        <ele>198</ele>
        <time>2017-02-19T10:40:21Z</time>
      </trkpt>
      <trkpt lat="46.78001" lon="4.7362">
        <ele>199</ele>
        <time>2017-02-19T10:40:22Z</time>
      </trkpt>
      <trkpt lat="46.78001" lon="4.73613">
        <ele>199</ele>
        <time>2017-02-19T10:40:23Z</time>
      </trkpt>
      <trkpt lat="46.78002" lon="4.73606">
        <ele>199</ele>
        <time>2017-02-19T10:40:24Z</time>
      </trkpt>
      <trkpt lat="46.78003" lon="4.73593">
        <ele>199</ele>
        <time>2017-02-19T10:40:26Z</time>
      </trkpt>
      <trkpt lat="46.78004" lon="4.73587">
        <ele>200</ele>
        <time>2017-02-19T10:40:27Z</time>
      </trkpt>
      <trkpt lat="46.78004" lon="4.7358">
        <ele>200</ele>
        <time>2017-02-19T10:40:28Z</time>
      </trkpt>
      <trkpt lat="46.78005" lon="4.73573">
        <ele>201</ele>
        <time>2017-02-19T10:40:29Z</time>
      </trkpt>
      <trkpt lat="46.78005" lon="4.73566">
        <ele>201</ele>
        <time>2017-02-19T10:40:30Z</time>
      </trkpt>
      <trkpt lat="46.78005" lon="4.73559">
        <ele>202</ele>
        <time>2017-02-19T10:40:31Z</time>
      </trkpt>
      <trkpt lat="46.78005" lon="4.73547">
        <ele>202</ele>
        <time>2017-02-19T10:40:33Z</time>
      </trkpt>
      <trkpt lat="46.78004" lon="4.73535">
        <ele>202</ele>
        <time>2017-02-19T10:40:35Z</time>
      </trkpt>
      <trkpt lat="46.78002" lon="4.73524">
        <ele>202</ele>
        <time>2017-02-19T10:40:37Z</time>
      </trkpt>
      <trkpt lat="46.78002" lon="4.73517">
        <ele>202</ele>
        <time>2017-02-19T10:40:38Z</time>
      </trkpt>
      <trkpt lat="46.78002" lon="4.7351">
        <ele>202</ele>
        <time>2017-02-19T10:40:39Z</time>
      </trkpt>
      <trkpt lat="46.78001" lon="4.73498">
        <ele>202</ele>
        <time>2017-02-19T10:40:41Z</time>
      </trkpt>
      <trkpt lat="46.78001" lon="4.73491">
        <ele>202</ele>
        <time>2017-02-19T10:40:42Z</time>
      </trkpt>
      <trkpt lat="46.78001" lon="4.73484">
        <ele>203</ele>
        <time>2017-02-19T10:40:43Z</time>
      </trkpt>
      <trkpt lat="46.78001" lon="4.73477">
        <ele>203</ele>
        <time>2017-02-19T10:40:44Z</time>
      </trkpt>
      <trkpt lat="46.78" lon="4.7347">
        <ele>203</ele>
        <time>2017-02-19T10:40:45Z</time>
      </trkpt>
      <trkpt lat="46.78" lon="4.73463">
        <ele>204</ele>
        <time>2017-02-19T10:40:46Z</time>
      </trkpt>
      <trkpt lat="46.78" lon="4.73456">
        <ele>204</ele>
        <time>2017-02-19T10:40:47Z</time>
      </trkpt>
      <trkpt lat="46.78" lon="4.73449">
        <ele>204</ele>
        <time>2017-02-19T10:40:48Z</time>
      </trkpt>
      <trkpt lat="46.78" lon="4.73442">
        <ele>204</ele>
        <time>2017-02-19T10:40:49Z</time>
      </trkpt>
      <trkpt lat="46.78001" lon="4.73436">
        <ele>204</ele>
        <time>2017-02-19T10:40:50Z</time>
      </trkpt>
      <trkpt lat="46.78001" lon="4.73428">
        <ele>204</ele>
        <time>2017-02-19T10:40:51Z</time>
      </trkpt>
      <trkpt lat="46.78001" lon="4.73421">
        <ele>205</ele>
        <time>2017-02-19T10:40:52Z</time>
      </trkpt>
      <trkpt lat="46.78001" lon="4.73414">
        <ele>205</ele>
        <time>2017-02-19T10:40:53Z</time>
      </trkpt>
      <trkpt lat="46.78001" lon="4.73402">
        <ele>204</ele>
        <time>2017-02-19T10:40:55Z</time>
      </trkpt>
      <trkpt lat="46.78001" lon="4.7339">
        <ele>204</ele>
        <time>2017-02-19T10:40:57Z</time>
      </trkpt>
      <trkpt lat="46.78001" lon="4.73384">
        <ele>203</ele>
        <time>2017-02-19T10:40:58Z</time>
      </trkpt>
      <trkpt lat="46.78002" lon="4.73377">
        <ele>203</ele>
        <time>2017-02-19T10:40:59Z</time>
      </trkpt>
      <trkpt lat="46.78003" lon="4.7337">
        <ele>202</ele>
        <time>2017-02-19T10:41:00Z</time>
      </trkpt>
      <trkpt lat="46.78003" lon="4.73363">
        <ele>202</ele>
        <time>2017-02-19T10:41:01Z</time>
      </trkpt>
      <trkpt lat="46.78004" lon="4.73357">
        <ele>201</ele>
        <time>2017-02-19T10:41:02Z</time>
      </trkpt>
      <trkpt lat="46.78005" lon="4.7335">
        <ele>201</ele>
        <time>2017-02-19T10:41:03Z</time>
      </trkpt>
      <trkpt lat="46.78005" lon="4.73343">
        <ele>201</ele>
        <time>2017-02-19T10:41:04Z</time>
      </trkpt>
      <trkpt lat="46.78006" lon="4.73331">
        <ele>201</ele>
        <time>2017-02-19T10:41:06Z</time>
      </trkpt>
      <trkpt lat="46.78006" lon="4.73319">
        <ele>200</ele>
        <time>2017-02-19T10:41:08Z</time>
      </trkpt>
      <trkpt lat="46.78006" lon="4.7331">
        <ele>200</ele>
        <time>2017-02-19T10:41:09Z</time>
      </trkpt>
      <trkpt lat="46.78006" lon="4.73302">
        <ele>200</ele>
        <time>2017-02-19T10:41:10Z</time>
      </trkpt>
      <trkpt lat="46.78006" lon="4.73295">
        <ele>201</ele>
        <time>2017-02-19T10:41:11Z</time>
      </trkpt>
      <trkpt lat="46.78006" lon="4.73279">
        <ele>202</ele>
        <time>2017-02-19T10:41:13Z</time>
      </trkpt>
      <trkpt lat="46.78005" lon="4.73272">
        <ele>203</ele>
        <time>2017-02-19T10:41:14Z</time>
      </trkpt>
      <trkpt lat="46.78002" lon="4.73261">
        <ele>204</ele>
        <time>2017-02-19T10:41:16Z</time>
      </trkpt>
      <trkpt lat="46.78" lon="4.73249">
        <ele>204</ele>
        <time>2017-02-19T10:41:18Z</time>
      </trkpt>
      <trkpt lat="46.77998" lon="4.73238">
        <ele>203</ele>
        <time>2017-02-19T10:41:20Z</time>
      </trkpt>
      <trkpt lat="46.77995" lon="4.73226">
        <ele>202</ele>
        <time>2017-02-19T10:41:22Z</time>
      </trkpt>
      <trkpt lat="46.77992" lon="4.73214">
        <ele>202</ele>
        <time>2017-02-19T10:41:24Z</time>
      </trkpt>
      <trkpt lat="46.77989" lon="4.73203">
        <ele>200</ele>
        <time>2017-02-19T10:41:26Z</time>
      </trkpt>
      <trkpt lat="46.77988" lon="4.73189">
        <ele>200</ele>
        <time>2017-02-19T10:41:28Z</time>
      </trkpt>
      <trkpt lat="46.77987" lon="4.73182">
        <ele>200</ele>
        <time>2017-02-19T10:41:29Z</time>
      </trkpt>
      <trkpt lat="46.77987" lon="4.73171">
        <ele>200</ele>
        <time>2017-02-19T10:41:31Z</time>
      </trkpt>
      <trkpt lat="46.77986" lon="4.73158">
        <ele>202</ele>
        <time>2017-02-19T10:41:33Z</time>
      </trkpt>
      <trkpt lat="46.77985" lon="4.73146">
        <ele>204</ele>
        <time>2017-02-19T10:41:35Z</time>
      </trkpt>
      <trkpt lat="46.77984" lon="4.73136">
        <ele>206</ele>
        <time>2017-02-19T10:41:37Z</time>
      </trkpt>
      <trkpt lat="46.77985" lon="4.73125">
        <ele>208</ele>
        <time>2017-02-19T10:41:39Z</time>
      </trkpt>
      <trkpt lat="46.77984" lon="4.73116">
        <ele>209</ele>
        <time>2017-02-19T10:41:41Z</time>
      </trkpt>
      <trkpt lat="46.77983" lon="4.73107">
        <ele>210</ele>
        <time>2017-02-19T10:41:43Z</time>
      </trkpt>
      <trkpt lat="46.77982" lon="4.73098">
        <ele>211</ele>
        <time>2017-02-19T10:41:45Z</time>
      </trkpt>
      <trkpt lat="46.7798" lon="4.73089">
        <ele>212</ele>
        <time>2017-02-19T10:41:47Z</time>
      </trkpt>
      <trkpt lat="46.77977" lon="4.73079">
        <ele>213</ele>
        <time>2017-02-19T10:41:49Z</time>
      </trkpt>
      <trkpt lat="46.77976" lon="4.73068">
        <ele>214</ele>
        <time>2017-02-19T10:41:51Z</time>
      </trkpt>
      <trkpt lat="46.77974" lon="4.73059">
        <ele>214</ele>
        <time>2017-02-19T10:41:53Z</time>
      </trkpt>
      <trkpt lat="46.77973" lon="4.73048">
        <ele>215</ele>
        <time>2017-02-19T10:41:55Z</time>
      </trkpt>
      <trkpt lat="46.77969" lon="4.73038">
        <ele>215</ele>
        <time>2017-02-19T10:41:57Z</time>
      </trkpt>
      <trkpt lat="46.77967" lon="4.73031">
        <ele>215</ele>
        <time>2017-02-19T10:41:58Z</time>
      </trkpt>
      <trkpt lat="46.77964" lon="4.73025">
        <ele>216</ele>
        <time>2017-02-19T10:41:59Z</time>
      </trkpt>
      <trkpt lat="46.77962" lon="4.73019">
        <ele>217</ele>
        <time>2017-02-19T10:42:00Z</time>
      </trkpt>
      <trkpt lat="46.77959" lon="4.73009">
        <ele>218</ele>
        <time>2017-02-19T10:42:02Z</time>
      </trkpt>
      <trkpt lat="46.77955" lon="4.73001">
        <ele>218</ele>
        <time>2017-02-19T10:42:04Z</time>
      </trkpt>
      <trkpt lat="46.77949" lon="4.72993">
        <ele>219</ele>
        <time>2017-02-19T10:42:06Z</time>
      </trkpt>
      <trkpt lat="46.77942" lon="4.72987">
        <ele>219</ele>
        <time>2017-02-19T10:42:08Z</time>
      </trkpt>
      <trkpt lat="46.7794" lon="4.72979">
        <ele>219</ele>
        <time>2017-02-19T10:42:10Z</time>
      </trkpt>
      <trkpt lat="46.77939" lon="4.72968">
        <ele>218</ele>
        <time>2017-02-19T10:42:12Z</time>
      </trkpt>
      <trkpt lat="46.77935" lon="4.72961">
        <ele>218</ele>
        <time>2017-02-19T10:42:14Z</time>
      </trkpt>
      <trkpt lat="46.77926" lon="4.72957">
        <ele>219</ele>
        <time>2017-02-19T10:42:16Z</time>
      </trkpt>
      <trkpt lat="46.7792" lon="4.72952">
        <ele>220</ele>
        <time>2017-02-19T10:42:18Z</time>
      </trkpt>
      <trkpt lat="46.77913" lon="4.72947">
        <ele>220</ele>
        <time>2017-02-19T10:42:20Z</time>
      </trkpt>
      <trkpt lat="46.77908" lon="4.72944">
        <ele>221</ele>
        <time>2017-02-19T10:42:22Z</time>
      </trkpt>
      <trkpt lat="46.77902" lon="4.72942">
        <ele>221</ele>
        <time>2017-02-19T10:42:24Z</time>
      </trkpt>
      <trkpt lat="46.77898" lon="4.72939">
        <ele>220</ele>
        <time>2017-02-19T10:42:26Z</time>
      </trkpt>
      <trkpt lat="46.77893" lon="4.72933">
        <ele>220</ele>
        <time>2017-02-19T10:42:28Z</time>
      </trkpt>
      <trkpt lat="46.77887" lon="4.72927">
        <ele>219</ele>
        <time>2017-02-19T10:42:30Z</time>
      </trkpt>
      <trkpt lat="46.77882" lon="4.72918">
        <ele>219</ele>
        <time>2017-02-19T10:42:32Z</time>
      </trkpt>
      <trkpt lat="46.77878" lon="4.72912">
        <ele>220</ele>
        <time>2017-02-19T10:42:34Z</time>
      </trkpt>
      <trkpt lat="46.77873" lon="4.72906">
        <ele>220</ele>
        <time>2017-02-19T10:42:36Z</time>
      </trkpt>
      <trkpt lat="46.77867" lon="4.72899">
        <ele>220</ele>
        <time>2017-02-19T10:42:38Z</time>
      </trkpt>
      <trkpt lat="46.7786" lon="4.7289">
        <ele>220</ele>
        <time>2017-02-19T10:42:40Z</time>
      </trkpt>
      <trkpt lat="46.77856" lon="4.72886">
        <ele>220</ele>
        <time>2017-02-19T10:42:41Z</time>
      </trkpt>
      <trkpt lat="46.7785" lon="4.72878">
        <ele>220</ele>
        <time>2017-02-19T10:42:43Z</time>
      </trkpt>
      <trkpt lat="46.77845" lon="4.72871">
        <ele>221</ele>
        <time>2017-02-19T10:42:45Z</time>
      </trkpt>
      <trkpt lat="46.77838" lon="4.72863">
        <ele>222</ele>
        <time>2017-02-19T10:42:47Z</time>
      </trkpt>
      <trkpt lat="46.77835" lon="4.72858">
        <ele>223</ele>
        <time>2017-02-19T10:42:48Z</time>
      </trkpt>
      <trkpt lat="46.77829" lon="4.7285">
        <ele>224</ele>
        <time>2017-02-19T10:42:50Z</time>
      </trkpt>
      <trkpt lat="46.77824" lon="4.72842">
        <ele>226</ele>
        <time>2017-02-19T10:42:52Z</time>
      </trkpt>
      <trkpt lat="46.77819" lon="4.72834">
        <ele>226</ele>
        <time>2017-02-19T10:42:54Z</time>
      </trkpt>
      <trkpt lat="46.77815" lon="4.72825">
        <ele>227</ele>
        <time>2017-02-19T10:42:56Z</time>
      </trkpt>
      <trkpt lat="46.7781" lon="4.72816">
        <ele>227</ele>
        <time>2017-02-19T10:42:58Z</time>
      </trkpt>
      <trkpt lat="46.77805" lon="4.72807">
        <ele>226</ele>
        <time>2017-02-19T10:43:00Z</time>
      </trkpt>
      <trkpt lat="46.778" lon="4.72796">
        <ele>226</ele>
        <time>2017-02-19T10:43:02Z</time>
      </trkpt>
      <trkpt lat="46.77797" lon="4.72785">
        <ele>226</ele>
        <time>2017-02-19T10:43:04Z</time>
      </trkpt>
      <trkpt lat="46.77793" lon="4.72775">
        <ele>226</ele>
        <time>2017-02-19T10:43:06Z</time>
      </trkpt>
      <trkpt lat="46.77789" lon="4.72763">
        <ele>227</ele>
        <time>2017-02-19T10:43:08Z</time>
      </trkpt>
      <trkpt lat="46.77785" lon="4.72753">
        <ele>227</ele>
        <time>2017-02-19T10:43:10Z</time>
      </trkpt>
      <trkpt lat="46.77781" lon="4.72744">
        <ele>228</ele>
        <time>2017-02-19T10:43:12Z</time>
      </trkpt>
      <trkpt lat="46.77777" lon="4.72735">
        <ele>229</ele>
        <time>2017-02-19T10:43:14Z</time>
      </trkpt>
      <trkpt lat="46.77773" lon="4.72726">
        <ele>229</ele>
        <time>2017-02-19T10:43:16Z</time>
      </trkpt>
      <trkpt lat="46.77768" lon="4.72717">
        <ele>229</ele>
        <time>2017-02-19T10:43:18Z</time>
      </trkpt>
      <trkpt lat="46.77762" lon="4.72708">
        <ele>229</ele>
        <time>2017-02-19T10:43:20Z</time>
      </trkpt>
      <trkpt lat="46.77758" lon="4.72704">
        <ele>229</ele>
        <time>2017-02-19T10:43:21Z</time>
      </trkpt>
      <trkpt lat="46.77754" lon="4.727">
        <ele>228</ele>
        <time>2017-02-19T10:43:22Z</time>
      </trkpt>
      <trkpt lat="46.7775" lon="4.72695">
        <ele>228</ele>
        <time>2017-02-19T10:43:23Z</time>
      </trkpt>
      <trkpt lat="46.77745" lon="4.72691">
        <ele>228</ele>
        <time>2017-02-19T10:43:24Z</time>
      </trkpt>
      <trkpt lat="46.77741" lon="4.72687">
        <ele>228</ele>
        <time>2017-02-19T10:43:25Z</time>
      </trkpt>
      <trkpt lat="46.77736" lon="4.72682">
        <ele>229</ele>
        <time>2017-02-19T10:43:26Z</time>
      </trkpt>
      <trkpt lat="46.7773" lon="4.72678">
        <ele>229</ele>
        <time>2017-02-19T10:43:27Z</time>
      </trkpt>
      <trkpt lat="46.77725" lon="4.72674">
        <ele>229</ele>
        <time>2017-02-19T10:43:28Z</time>
      </trkpt>
      <trkpt lat="46.77721" lon="4.72671">
        <ele>230</ele>
        <time>2017-02-19T10:43:29Z</time>
      </trkpt>
      <trkpt lat="46.77717" lon="4.72668">
        <ele>230</ele>
        <time>2017-02-19T10:43:30Z</time>
      </trkpt>
      <trkpt lat="46.7771" lon="4.72663">
        <ele>230</ele>
        <time>2017-02-19T10:43:32Z</time>
      </trkpt>
      <trkpt lat="46.77702" lon="4.72657">
        <ele>230</ele>
        <time>2017-02-19T10:43:34Z</time>
      </trkpt>
      <trkpt lat="46.77698" lon="4.72654">
        <ele>230</ele>
        <time>2017-02-19T10:43:35Z</time>
      </trkpt>
      <trkpt lat="46.77693" lon="4.7265">
        <ele>230</ele>
        <time>2017-02-19T10:43:36Z</time>
      </trkpt>
      <trkpt lat="46.77689" lon="4.72647">
        <ele>230</ele>
        <time>2017-02-19T10:43:37Z</time>
      </trkpt>
      <trkpt lat="46.77684" lon="4.72643">
        <ele>230</ele>
        <time>2017-02-19T10:43:38Z</time>
      </trkpt>
      <trkpt lat="46.7768" lon="4.72639">
        <ele>230</ele>
        <time>2017-02-19T10:43:39Z</time>
      </trkpt>
      <trkpt lat="46.77675" lon="4.72636">
        <ele>230</ele>
        <time>2017-02-19T10:43:40Z</time>
      </trkpt>
      <trkpt lat="46.77671" lon="4.72633">
        <ele>230</ele>
        <time>2017-02-19T10:43:41Z</time>
      </trkpt>
      <trkpt lat="46.77666" lon="4.72629">
        <ele>230</ele>
        <time>2017-02-19T10:43:42Z</time>
      </trkpt>
      <trkpt lat="46.77662" lon="4.72625">
        <ele>230</ele>
        <time>2017-02-19T10:43:43Z</time>
      </trkpt>
      <trkpt lat="46.77657" lon="4.72621">
        <ele>231</ele>
        <time>2017-02-19T10:43:44Z</time>
      </trkpt>
      <trkpt lat="46.77653" lon="4.72617">
        <ele>231</ele>
        <time>2017-02-19T10:43:45Z</time>
      </trkpt>
      <trkpt lat="46.77648" lon="4.72613">
        <ele>231</ele>
        <time>2017-02-19T10:43:46Z</time>
      </trkpt>
      <trkpt lat="46.77644" lon="4.7261">
        <ele>232</ele>
        <time>2017-02-19T10:43:47Z</time>
      </trkpt>
      <trkpt lat="46.77639" lon="4.72606">
        <ele>232</ele>
        <time>2017-02-19T10:43:48Z</time>
      </trkpt>
      <trkpt lat="46.77635" lon="4.72603">
        <ele>232</ele>
        <time>2017-02-19T10:43:49Z</time>
      </trkpt>
      <trkpt lat="46.7763" lon="4.72599">
        <ele>232</ele>
        <time>2017-02-19T10:43:50Z</time>
      </trkpt>
      <trkpt lat="46.77626" lon="4.72596">
        <ele>232</ele>
        <time>2017-02-19T10:43:51Z</time>
      </trkpt>
      <trkpt lat="46.77622" lon="4.72594">
        <ele>232</ele>
        <time>2017-02-19T10:43:52Z</time>
      </trkpt>
      <trkpt lat="46.77614" lon="4.72588">
        <ele>232</ele>
        <time>2017-02-19T10:43:54Z</time>
      </trkpt>
      <trkpt lat="46.7761" lon="4.72585">
        <ele>231</ele>
        <time>2017-02-19T10:43:55Z</time>
      </trkpt>
      <trkpt lat="46.77606" lon="4.72581">
        <ele>230</ele>
        <time>2017-02-19T10:43:56Z</time>
      </trkpt>
      <trkpt lat="46.77602" lon="4.72579">
        <ele>230</ele>
        <time>2017-02-19T10:43:57Z</time>
      </trkpt>
      <trkpt lat="46.77594" lon="4.72574">
        <ele>229</ele>
        <time>2017-02-19T10:43:59Z</time>
      </trkpt>
      <trkpt lat="46.77586" lon="4.72573">
        <ele>228</ele>
        <time>2017-02-19T10:44:01Z</time>
      </trkpt>
      <trkpt lat="46.77578" lon="4.7257">
        <ele>227</ele>
        <time>2017-02-19T10:44:03Z</time>
      </trkpt>
      <trkpt lat="46.77572" lon="4.72564">
        <ele>226</ele>
        <time>2017-02-19T10:44:05Z</time>
      </trkpt>
      <trkpt lat="46.77564" lon="4.72558">
        <ele>225</ele>
        <time>2017-02-19T10:44:07Z</time>
      </trkpt>
      <trkpt lat="46.77557" lon="4.72552">
        <ele>225</ele>
        <time>2017-02-19T10:44:09Z</time>
      </trkpt>
      <trkpt lat="46.77551" lon="4.72549">
        <ele>225</ele>
        <time>2017-02-19T10:44:10Z</time>
      </trkpt>
      <trkpt lat="46.77546" lon="4.72546">
        <ele>225</ele>
        <time>2017-02-19T10:44:11Z</time>
      </trkpt>
      <trkpt lat="46.77542" lon="4.72544">
        <ele>224</ele>
        <time>2017-02-19T10:44:12Z</time>
      </trkpt>
      <trkpt lat="46.77538" lon="4.72542">
        <ele>224</ele>
        <time>2017-02-19T10:44:13Z</time>
      </trkpt>
      <trkpt lat="46.77529" lon="4.72538">
        <ele>223</ele>
        <time>2017-02-19T10:44:15Z</time>
      </trkpt>
      <trkpt lat="46.77524" lon="4.72534">
        <ele>223</ele>
        <time>2017-02-19T10:44:16Z</time>
      </trkpt>
      <trkpt lat="46.7752" lon="4.7253">
        <ele>222</ele>
        <time>2017-02-19T10:44:17Z</time>
      </trkpt>
      <trkpt lat="46.77515" lon="4.72527">
        <ele>222</ele>
        <time>2017-02-19T10:44:18Z</time>
      </trkpt>
      <trkpt lat="46.77511" lon="4.72523">
        <ele>222</ele>
        <time>2017-02-19T10:44:19Z</time>
      </trkpt>
      <trkpt lat="46.77506" lon="4.72519">
        <ele>222</ele>
        <time>2017-02-19T10:44:20Z</time>
      </trkpt>
      <trkpt lat="46.77502" lon="4.72517">
        <ele>223</ele>
        <time>2017-02-19T10:44:21Z</time>
      </trkpt>
      <trkpt lat="46.77498" lon="4.72513">
        <ele>224</ele>
        <time>2017-02-19T10:44:22Z</time>
      </trkpt>
      <trkpt lat="46.77493" lon="4.72509">
        <ele>226</ele>
        <time>2017-02-19T10:44:23Z</time>
      </trkpt>
      <trkpt lat="46.77488" lon="4.72505">
        <ele>227</ele>
        <time>2017-02-19T10:44:24Z</time>
      </trkpt>
      <trkpt lat="46.77483" lon="4.72501">
        <ele>229</ele>
        <time>2017-02-19T10:44:25Z</time>
      </trkpt>
      <trkpt lat="46.77478" lon="4.72497">
        <ele>232</ele>
        <time>2017-02-19T10:44:26Z</time>
      </trkpt>
      <trkpt lat="46.77472" lon="4.72493">
        <ele>234</ele>
        <time>2017-02-19T10:44:27Z</time>
      </trkpt>
      <trkpt lat="46.77467" lon="4.7249">
        <ele>237</ele>
        <time>2017-02-19T10:44:28Z</time>
      </trkpt>
      <trkpt lat="46.77463" lon="4.72487">
        <ele>239</ele>
        <time>2017-02-19T10:44:29Z</time>
      </trkpt>
      <trkpt lat="46.77459" lon="4.72483">
        <ele>241</ele>
        <time>2017-02-19T10:44:30Z</time>
      </trkpt>
      <trkpt lat="46.77455" lon="4.72479">
        <ele>243</ele>
        <time>2017-02-19T10:44:31Z</time>
      </trkpt>
      <trkpt lat="46.77448" lon="4.72472">
        <ele>244</ele>
        <time>2017-02-19T10:44:33Z</time>
      </trkpt>
      <trkpt lat="46.77441" lon="4.72465">
        <ele>245</ele>
        <time>2017-02-19T10:44:35Z</time>
      </trkpt>
      <trkpt lat="46.77433" lon="4.72461">
        <ele>246</ele>
        <time>2017-02-19T10:44:37Z</time>
      </trkpt>
      <trkpt lat="46.77425" lon="4.72457">
        <ele>246</ele>
        <time>2017-02-19T10:44:39Z</time>
      </trkpt>
      <trkpt lat="46.77417" lon="4.72453">
        <ele>247</ele>
        <time>2017-02-19T10:44:41Z</time>
      </trkpt>
      <trkpt lat="46.7741" lon="4.72449">
        <ele>247</ele>
        <time>2017-02-19T10:44:43Z</time>
      </trkpt>
      <trkpt lat="46.77404" lon="4.72446">
        <ele>248</ele>
        <time>2017-02-19T10:44:45Z</time>
      </trkpt>
      <trkpt lat="46.77398" lon="4.72444">
        <ele>248</ele>
        <time>2017-02-19T10:44:47Z</time>
      </trkpt>
      <trkpt lat="46.77391" lon="4.7244">
        <ele>249</ele>
        <time>2017-02-19T10:44:49Z</time>
      </trkpt>
      <trkpt lat="46.77386" lon="4.72434">
        <ele>249</ele>
        <time>2017-02-19T10:44:51Z</time>
      </trkpt>
      <trkpt lat="46.77379" lon="4.72429">
        <ele>250</ele>
        <time>2017-02-19T10:44:53Z</time>
      </trkpt>
      <trkpt lat="46.77371" lon="4.72423">
        <ele>250</ele>
        <time>2017-02-19T10:44:55Z</time>
      </trkpt>
      <trkpt lat="46.77364" lon="4.72416">
        <ele>251</ele>
        <time>2017-02-19T10:44:57Z</time>
      </trkpt>
      <trkpt lat="46.77359" lon="4.72412">
        <ele>251</ele>
        <time>2017-02-19T10:44:59Z</time>
      </trkpt>
      <trkpt lat="46.77353" lon="4.72409">
        <ele>250</ele>
        <time>2017-02-19T10:45:01Z</time>
      </trkpt>
      <trkpt lat="46.7735" lon="4.72404">
        <ele>249</ele>
        <time>2017-02-19T10:45:03Z</time>
      </trkpt>
      <trkpt lat="46.77343" lon="4.72398">
        <ele>248</ele>
        <time>2017-02-19T10:45:05Z</time>
      </trkpt>
      <trkpt lat="46.77339" lon="4.72394">
        <ele>246</ele>
        <time>2017-02-19T10:45:06Z</time>
      </trkpt>
      <trkpt lat="46.7733" lon="4.72389">
        <ele>245</ele>
        <time>2017-02-19T10:45:08Z</time>
      </trkpt>
      <trkpt lat="46.77326" lon="4.72387">
        <ele>244</ele>
        <time>2017-02-19T10:45:09Z</time>
      </trkpt>
      <trkpt lat="46.77321" lon="4.72383">
        <ele>243</ele>
        <time>2017-02-19T10:45:10Z</time>
      </trkpt>
      <trkpt lat="46.77317" lon="4.72379">
        <ele>242</ele>
        <time>2017-02-19T10:45:11Z</time>
      </trkpt>
      <trkpt lat="46.77314" lon="4.72375">
        <ele>242</ele>
        <time>2017-02-19T10:45:12Z</time>
      </trkpt>
      <trkpt lat="46.77306" lon="4.72367">
        <ele>242</ele>
        <time>2017-02-19T10:45:14Z</time>
      </trkpt>
      <trkpt lat="46.77302" lon="4.72362">
        <ele>243</ele>
        <time>2017-02-19T10:45:15Z</time>
      </trkpt>
      <trkpt lat="46.77298" lon="4.72358">
        <ele>244</ele>
        <time>2017-02-19T10:45:16Z</time>
      </trkpt>
      <trkpt lat="46.77293" lon="4.72355">
        <ele>245</ele>
        <time>2017-02-19T10:45:17Z</time>
      </trkpt>
      <trkpt lat="46.77288" lon="4.72352">
        <ele>247</ele>
        <time>2017-02-19T10:45:18Z</time>
      </trkpt>
      <trkpt lat="46.77281" lon="4.72346">
        <ele>248</ele>
        <time>2017-02-19T10:45:20Z</time>
      </trkpt>
      <trkpt lat="46.77274" lon="4.7234">
        <ele>249</ele>
        <time>2017-02-19T10:45:22Z</time>
      </trkpt>
      <trkpt lat="46.77266" lon="4.72331">
        <ele>250</ele>
        <time>2017-02-19T10:45:24Z</time>
      </trkpt>
      <trkpt lat="46.77259" lon="4.72324">
        <ele>251</ele>
        <time>2017-02-19T10:45:26Z</time>
      </trkpt>
      <trkpt lat="46.77255" lon="4.72318">
        <ele>252</ele>
        <time>2017-02-19T10:45:28Z</time>
      </trkpt>
      <trkpt lat="46.77249" lon="4.72308">
        <ele>252</ele>
        <time>2017-02-19T10:45:30Z</time>
      </trkpt>
      <trkpt lat="46.77245" lon="4.72304">
        <ele>252</ele>
        <time>2017-02-19T10:45:31Z</time>
      </trkpt>
      <trkpt lat="46.77239" lon="4.72295">
        <ele>253</ele>
        <time>2017-02-19T10:45:33Z</time>
      </trkpt>
      <trkpt lat="46.77235" lon="4.7229">
        <ele>253</ele>
        <time>2017-02-19T10:45:34Z</time>
      </trkpt>
      <trkpt lat="46.77231" lon="4.72286">
        <ele>254</ele>
        <time>2017-02-19T10:45:35Z</time>
      </trkpt>
      <trkpt lat="46.77222" lon="4.72277">
        <ele>255</ele>
        <time>2017-02-19T10:45:37Z</time>
      </trkpt>
      <trkpt lat="46.77216" lon="4.72274">
        <ele>256</ele>
        <time>2017-02-19T10:45:38Z</time>
      </trkpt>
      <trkpt lat="46.77211" lon="4.72269">
        <ele>256</ele>
        <time>2017-02-19T10:45:39Z</time>
      </trkpt>
      <trkpt lat="46.77206" lon="4.72264">
        <ele>257</ele>
        <time>2017-02-19T10:45:40Z</time>
      </trkpt>
      <trkpt lat="46.77202" lon="4.72258">
        <ele>257</ele>
        <time>2017-02-19T10:45:41Z</time>
      </trkpt>
      <trkpt lat="46.77198" lon="4.72252">
        <ele>257</ele>
        <time>2017-02-19T10:45:42Z</time>
      </trkpt>
      <trkpt lat="46.77195" lon="4.72246">
        <ele>257</ele>
        <time>2017-02-19T10:45:43Z</time>
      </trkpt>
      <trkpt lat="46.77192" lon="4.7224">
        <ele>256</ele>
        <time>2017-02-19T10:45:44Z</time>
      </trkpt>
      <trkpt lat="46.77188" lon="4.72234">
        <ele>256</ele>
        <time>2017-02-19T10:45:45Z</time>
      </trkpt>
      <trkpt lat="46.77185" lon="4.72229">
        <ele>256</ele>
        <time>2017-02-19T10:45:46Z</time>
      </trkpt>
      <trkpt lat="46.77182" lon="4.72223">
        <ele>255</ele>
        <time>2017-02-19T10:45:47Z</time>
      </trkpt>
      <trkpt lat="46.77178" lon="4.72218">
        <ele>255</ele>
        <time>2017-02-19T10:45:48Z</time>
      </trkpt>
      <trkpt lat="46.77175" lon="4.72212">
        <ele>255</ele>
        <time>2017-02-19T10:45:49Z</time>
      </trkpt>
      <trkpt lat="46.77172" lon="4.72207">
        <ele>255</ele>
        <time>2017-02-19T10:45:50Z</time>
      </trkpt>
      <trkpt lat="46.77169" lon="4.72202">
        <ele>254</ele>
        <time>2017-02-19T10:45:51Z</time>
      </trkpt>
      <trkpt lat="46.77166" lon="4.72196">
        <ele>254</ele>
        <time>2017-02-19T10:45:52Z</time>
      </trkpt>
      <trkpt lat="46.77162" lon="4.72191">
        <ele>254</ele>
        <time>2017-02-19T10:45:53Z</time>
      </trkpt>
      <trkpt lat="46.77159" lon="4.72187">
        <ele>254</ele>
        <time>2017-02-19T10:45:54Z</time>
      </trkpt>
      <trkpt lat="46.77155" lon="4.72183">
        <ele>254</ele>
        <time>2017-02-19T10:45:55Z</time>
      </trkpt>
      <trkpt lat="46.77151" lon="4.72179">
        <ele>254</ele>
        <time>2017-02-19T10:45:56Z</time>
      </trkpt>
      <trkpt lat="46.77144" lon="4.72172">
        <ele>254</ele>
        <time>2017-02-19T10:45:58Z</time>
      </trkpt>
      <trkpt lat="46.77139" lon="4.72168">
        <ele>254</ele>
        <time>2017-02-19T10:45:59Z</time>
      </trkpt>
      <trkpt lat="46.77135" lon="4.72165">
        <ele>254</ele>
        <time>2017-02-19T10:46:00Z</time>
      </trkpt>
      <trkpt lat="46.77131" lon="4.72162">
        <ele>254</ele>
        <time>2017-02-19T10:46:01Z</time>
      </trkpt>
      <trkpt lat="46.77127" lon="4.72159">
        <ele>253</ele>
        <time>2017-02-19T10:46:02Z</time>
      </trkpt>
      <trkpt lat="46.77119" lon="4.72153">
        <ele>253</ele>
        <time>2017-02-19T10:46:04Z</time>
      </trkpt>
      <trkpt lat="46.77115" lon="4.7215">
        <ele>254</ele>
        <time>2017-02-19T10:46:05Z</time>
      </trkpt>
      <trkpt lat="46.77111" lon="4.72146">
        <ele>254</ele>
        <time>2017-02-19T10:46:06Z</time>
      </trkpt>
      <trkpt lat="46.77107" lon="4.72142">
        <ele>254</ele>
        <time>2017-02-19T10:46:07Z</time>
      </trkpt>
      <trkpt lat="46.77103" lon="4.72139">
        <ele>254</ele>
        <time>2017-02-19T10:46:08Z</time>
      </trkpt>
      <trkpt lat="46.77099" lon="4.72136">
        <ele>253</ele>
        <time>2017-02-19T10:46:09Z</time>
      </trkpt>
      <trkpt lat="46.77095" lon="4.72132">
        <ele>253</ele>
        <time>2017-02-19T10:46:10Z</time>
      </trkpt>
      <trkpt lat="46.77091" lon="4.72128">
        <ele>253</ele>
        <time>2017-02-19T10:46:11Z</time>
      </trkpt>
      <trkpt lat="46.77087" lon="4.72123">
        <ele>253</ele>
        <time>2017-02-19T10:46:12Z</time>
      </trkpt>
      <trkpt lat="46.77083" lon="4.72118">
        <ele>253</ele>
        <time>2017-02-19T10:46:13Z</time>
      </trkpt>
      <trkpt lat="46.77081" lon="4.72112">
        <ele>253</ele>
        <time>2017-02-19T10:46:14Z</time>
      </trkpt>
      <trkpt lat="46.77078" lon="4.72106">
        <ele>254</ele>
        <time>2017-02-19T10:46:15Z</time>
      </trkpt>
      <trkpt lat="46.77076" lon="4.72093">
        <ele>254</ele>
        <time>2017-02-19T10:46:17Z</time>
      </trkpt>
      <trkpt lat="46.77074" lon="4.72082">
        <ele>255</ele>
        <time>2017-02-19T10:46:19Z</time>
      </trkpt>
      <trkpt lat="46.77074" lon="4.7207">
        <ele>256</ele>
        <time>2017-02-19T10:46:21Z</time>
      </trkpt>
      <trkpt lat="46.77075" lon="4.72062">
        <ele>256</ele>
        <time>2017-02-19T10:46:22Z</time>
      </trkpt>
      <trkpt lat="46.77076" lon="4.72055">
        <ele>256</ele>
        <time>2017-02-19T10:46:23Z</time>
      </trkpt>
      <trkpt lat="46.77077" lon="4.72043">
        <ele>256</ele>
        <time>2017-02-19T10:46:25Z</time>
      </trkpt>
      <trkpt lat="46.77078" lon="4.7203">
        <ele>256</ele>
        <time>2017-02-19T10:46:27Z</time>
      </trkpt>
      <trkpt lat="46.77079" lon="4.72018">
        <ele>256</ele>
        <time>2017-02-19T10:46:29Z</time>
      </trkpt>
      <trkpt lat="46.77078" lon="4.72004">
        <ele>256</ele>
        <time>2017-02-19T10:46:31Z</time>
      </trkpt>
      <trkpt lat="46.77076" lon="4.71992">
        <ele>255</ele>
        <time>2017-02-19T10:46:33Z</time>
      </trkpt>
      <trkpt lat="46.77074" lon="4.7198">
        <ele>255</ele>
        <time>2017-02-19T10:46:35Z</time>
      </trkpt>
      <trkpt lat="46.77071" lon="4.71969">
        <ele>254</ele>
        <time>2017-02-19T10:46:37Z</time>
      </trkpt>
      <trkpt lat="46.77069" lon="4.71959">
        <ele>254</ele>
        <time>2017-02-19T10:46:39Z</time>
      </trkpt>
      <trkpt lat="46.77066" lon="4.7195">
        <ele>253</ele>
        <time>2017-02-19T10:46:41Z</time>
      </trkpt>
      <trkpt lat="46.77065" lon="4.71941">
        <ele>254</ele>
        <time>2017-02-19T10:46:43Z</time>
      </trkpt>
      <trkpt lat="46.77063" lon="4.71932">
        <ele>254</ele>
        <time>2017-02-19T10:46:45Z</time>
      </trkpt>
      <trkpt lat="46.77061" lon="4.7192">
        <ele>255</ele>
        <time>2017-02-19T10:46:47Z</time>
      </trkpt>
      <trkpt lat="46.77059" lon="4.71909">
        <ele>257</ele>
        <time>2017-02-19T10:46:49Z</time>
      </trkpt>
      <trkpt lat="46.77057" lon="4.71899">
        <ele>257</ele>
        <time>2017-02-19T10:46:51Z</time>
      </trkpt>
      <trkpt lat="46.77053" lon="4.71889">
        <ele>258</ele>
        <time>2017-02-19T10:46:53Z</time>
      </trkpt>
      <trkpt lat="46.7705" lon="4.71877">
        <ele>259</ele>
        <time>2017-02-19T10:46:55Z</time>
      </trkpt>
      <trkpt lat="46.77045" lon="4.71867">
        <ele>259</ele>
        <time>2017-02-19T10:46:57Z</time>
      </trkpt>
      <trkpt lat="46.77041" lon="4.71857">
        <ele>259</ele>
        <time>2017-02-19T10:46:59Z</time>
      </trkpt>
      <trkpt lat="46.77036" lon="4.71848">
        <ele>259</ele>
        <time>2017-02-19T10:47:01Z</time>
      </trkpt>
      <trkpt lat="46.77031" lon="4.7184">
        <ele>259</ele>
        <time>2017-02-19T10:47:03Z</time>
      </trkpt>
      <trkpt lat="46.77026" lon="4.71832">
        <ele>259</ele>
        <time>2017-02-19T10:47:05Z</time>
      </trkpt>
      <trkpt lat="46.77021" lon="4.71823">
        <ele>259</ele>
        <time>2017-02-19T10:47:07Z</time>
      </trkpt>
      <trkpt lat="46.77016" lon="4.71814">
        <ele>259</ele>
        <time>2017-02-19T10:47:09Z</time>
      </trkpt>
      <trkpt lat="46.77012" lon="4.71806">
        <ele>260</ele>
        <time>2017-02-19T10:47:11Z</time>
      </trkpt>
      <trkpt lat="46.77006" lon="4.71796">
        <ele>260</ele>
        <time>2017-02-19T10:47:13Z</time>
      </trkpt>
      <trkpt lat="46.77002" lon="4.71788">
        <ele>260</ele>
        <time>2017-02-19T10:47:15Z</time>
      </trkpt>
      <trkpt lat="46.76998" lon="4.71777">
        <ele>260</ele>
        <time>2017-02-19T10:47:17Z</time>
      </trkpt>
      <trkpt lat="46.76996" lon="4.71772">
        <ele>261</ele>
        <time>2017-02-19T10:47:18Z</time>
      </trkpt>
      <trkpt lat="46.76992" lon="4.71761">
        <ele>261</ele>
        <time>2017-02-19T10:47:20Z</time>
      </trkpt>
      <trkpt lat="46.76988" lon="4.71751">
        <ele>261</ele>
        <time>2017-02-19T10:47:22Z</time>
      </trkpt>
      <trkpt lat="46.76984" lon="4.71742">
        <ele>262</ele>
        <time>2017-02-19T10:47:24Z</time>
      </trkpt>
      <trkpt lat="46.76979" lon="4.71733">
        <ele>262</ele>
        <time>2017-02-19T10:47:26Z</time>
      </trkpt>
      <trkpt lat="46.76975" lon="4.71724">
        <ele>262</ele>
        <time>2017-02-19T10:47:28Z</time>
      </trkpt>
      <trkpt lat="46.76971" lon="4.71715">
        <ele>263</ele>
        <time>2017-02-19T10:47:30Z</time>
      </trkpt>
      <trkpt lat="46.76967" lon="4.71705">
        <ele>263</ele>
        <time>2017-02-19T10:47:32Z</time>
      </trkpt>
      <trkpt lat="46.76962" lon="4.71695">
        <ele>264</ele>
        <time>2017-02-19T10:47:34Z</time>
      </trkpt>
      <trkpt lat="46.76958" lon="4.71685">
        <ele>264</ele>
        <time>2017-02-19T10:47:36Z</time>
      </trkpt>
      <trkpt lat="46.76954" lon="4.71675">
        <ele>265</ele>
        <time>2017-02-19T10:47:38Z</time>
      </trkpt>
      <trkpt lat="46.7695" lon="4.71665">
        <ele>265</ele>
        <time>2017-02-19T10:47:40Z</time>
      </trkpt>
      <trkpt lat="46.76946" lon="4.71654">
        <ele>265</ele>
        <time>2017-02-19T10:47:42Z</time>
      </trkpt>
      <trkpt lat="46.76946" lon="4.71642">
        <ele>265</ele>
        <time>2017-02-19T10:47:44Z</time>
      </trkpt>
      <trkpt lat="46.76945" lon="4.71631">
        <ele>265</ele>
        <time>2017-02-19T10:47:46Z</time>
      </trkpt>
      <trkpt lat="46.76945" lon="4.71622">
        <ele>264</ele>
        <time>2017-02-19T10:47:48Z</time>
      </trkpt>
      <trkpt lat="46.76945" lon="4.71615">
        <ele>264</ele>
        <time>2017-02-19T10:47:50Z</time>
      </trkpt>
      <trkpt lat="46.76945" lon="4.71607">
        <ele>264</ele>
        <time>2017-02-19T10:47:52Z</time>
      </trkpt>
      <trkpt lat="46.76945" lon="4.71596">
        <ele>264</ele>
        <time>2017-02-19T10:47:54Z</time>
      </trkpt>
      <trkpt lat="46.76945" lon="4.71586">
        <ele>264</ele>
        <time>2017-02-19T10:47:56Z</time>
      </trkpt>
      <trkpt lat="46.76945" lon="4.71577">
        <ele>264</ele>
        <time>2017-02-19T10:47:58Z</time>
      </trkpt>
      <trkpt lat="46.76944" lon="4.71568">
        <ele>265</ele>
        <time>2017-02-19T10:48:00Z</time>
      </trkpt>
      <trkpt lat="46.76943" lon="4.71559">
        <ele>265</ele>
        <time>2017-02-19T10:48:02Z</time>
      </trkpt>
      <trkpt lat="46.76942" lon="4.7155">
        <ele>265</ele>
        <time>2017-02-19T10:48:04Z</time>
      </trkpt>
      <trkpt lat="46.7694" lon="4.71541">
        <ele>266</ele>
        <time>2017-02-19T10:48:06Z</time>
      </trkpt>
      <trkpt lat="46.76939" lon="4.71532">
        <ele>267</ele>
        <time>2017-02-19T10:48:08Z</time>
      </trkpt>
      <trkpt lat="46.7694" lon="4.71523">
        <ele>268</ele>
        <time>2017-02-19T10:48:10Z</time>
      </trkpt>
      <trkpt lat="46.76943" lon="4.71514">
        <ele>268</ele>
        <time>2017-02-19T10:48:12Z</time>
      </trkpt>
      <trkpt lat="46.76947" lon="4.71506">
        <ele>269</ele>
        <time>2017-02-19T10:48:14Z</time>
      </trkpt>
      <trkpt lat="46.76953" lon="4.715">
        <ele>270</ele>
        <time>2017-02-19T10:48:16Z</time>
      </trkpt>
      <trkpt lat="46.76958" lon="4.71496">
        <ele>271</ele>
        <time>2017-02-19T10:48:18Z</time>
      </trkpt>
      <trkpt lat="46.76964" lon="4.71494">
        <ele>272</ele>
        <time>2017-02-19T10:48:20Z</time>
      </trkpt>
      <trkpt lat="46.76969" lon="4.71494">
        <ele>273</ele>
        <time>2017-02-19T10:48:22Z</time>
      </trkpt>
      <trkpt lat="46.76974" lon="4.71495">
        <ele>274</ele>
        <time>2017-02-19T10:48:24Z</time>
      </trkpt>
      <trkpt lat="46.76979" lon="4.71494">
        <ele>274</ele>
        <time>2017-02-19T10:48:26Z</time>
      </trkpt>
      <trkpt lat="46.76984" lon="4.71492">
        <ele>275</ele>
        <time>2017-02-19T10:48:28Z</time>
      </trkpt>
      <trkpt lat="46.76989" lon="4.71489">
        <ele>276</ele>
        <time>2017-02-19T10:48:30Z</time>
      </trkpt>
      <trkpt lat="46.76994" lon="4.71485">
        <ele>276</ele>
        <time>2017-02-19T10:48:32Z</time>
      </trkpt>
      <trkpt lat="46.76998" lon="4.71479">
        <ele>276</ele>
        <time>2017-02-19T10:48:34Z</time>
      </trkpt>
      <trkpt lat="46.77002" lon="4.71473">
        <ele>276</ele>
        <time>2017-02-19T10:48:36Z</time>
      </trkpt>
      <trkpt lat="46.77004" lon="4.71466">
        <ele>277</ele>
        <time>2017-02-19T10:48:38Z</time>
      </trkpt>
      <trkpt lat="46.77007" lon="4.7146">
        <ele>277</ele>
        <time>2017-02-19T10:48:40Z</time>
      </trkpt>
      <trkpt lat="46.77009" lon="4.71453">
        <ele>277</ele>
        <time>2017-02-19T10:48:42Z</time>
      </trkpt>
      <trkpt lat="46.77012" lon="4.71447">
        <ele>278</ele>
        <time>2017-02-19T10:48:44Z</time>
      </trkpt>
      <trkpt lat="46.77015" lon="4.7144">
        <ele>278</ele>
        <time>2017-02-19T10:48:46Z</time>
      </trkpt>
      <trkpt lat="46.77017" lon="4.71434">
        <ele>278</ele>
        <time>2017-02-19T10:48:48Z</time>
      </trkpt>
      <trkpt lat="46.77019" lon="4.71427">
        <ele>278</ele>
        <time>2017-02-19T10:48:50Z</time>
      </trkpt>
      <trkpt lat="46.77022" lon="4.71418">
        <ele>278</ele>
        <time>2017-02-19T10:48:53Z</time>
      </trkpt>
      <trkpt lat="46.77024" lon="4.71411">
        <ele>278</ele>
        <time>2017-02-19T10:48:55Z</time>
      </trkpt>
      <trkpt lat="46.77026" lon="4.71404">
        <ele>278</ele>
        <time>2017-02-19T10:48:57Z</time>
      </trkpt>
      <trkpt lat="46.77028" lon="4.71398">
        <ele>278</ele>
        <time>2017-02-19T10:48:59Z</time>
      </trkpt>
      <trkpt lat="46.7703" lon="4.71392">
        <ele>279</ele>
        <time>2017-02-19T10:49:01Z</time>
      </trkpt>
      <trkpt lat="46.77033" lon="4.71385">
        <ele>279</ele>
        <time>2017-02-19T10:49:03Z</time>
      </trkpt>
      <trkpt lat="46.77035" lon="4.71379">
        <ele>279</ele>
        <time>2017-02-19T10:49:05Z</time>
      </trkpt>
      <trkpt lat="46.77038" lon="4.71371">
        <ele>279</ele>
        <time>2017-02-19T10:49:07Z</time>
      </trkpt>
      <trkpt lat="46.7704" lon="4.71363">
        <ele>279</ele>
        <time>2017-02-19T10:49:09Z</time>
      </trkpt>
      <trkpt lat="46.77043" lon="4.71355">
        <ele>279</ele>
        <time>2017-02-19T10:49:11Z</time>
      </trkpt>
      <trkpt lat="46.77045" lon="4.7135">
        <ele>279</ele>
        <time>2017-02-19T10:49:13Z</time>
      </trkpt>
      <trkpt lat="46.77047" lon="4.71342">
        <ele>279</ele>
        <time>2017-02-19T10:49:15Z</time>
      </trkpt>
      <trkpt lat="46.7705" lon="4.71333">
        <ele>280</ele>
        <time>2017-02-19T10:49:17Z</time>
      </trkpt>
      <trkpt lat="46.77052" lon="4.71324">
        <ele>280</ele>
        <time>2017-02-19T10:49:19Z</time>
      </trkpt>
      <trkpt lat="46.77054" lon="4.71316">
        <ele>281</ele>
        <time>2017-02-19T10:49:21Z</time>
      </trkpt>
      <trkpt lat="46.77057" lon="4.71308">
        <ele>282</ele>
        <time>2017-02-19T10:49:23Z</time>
      </trkpt>
      <trkpt lat="46.77058" lon="4.71301">
        <ele>283</ele>
        <time>2017-02-19T10:49:25Z</time>
      </trkpt>
      <trkpt lat="46.7706" lon="4.71294">
        <ele>283</ele>
        <time>2017-02-19T10:49:27Z</time>
      </trkpt>
      <trkpt lat="46.77062" lon="4.71286">
        <ele>283</ele>
        <time>2017-02-19T10:49:29Z</time>
      </trkpt>
      <trkpt lat="46.77064" lon="4.71277">
        <ele>283</ele>
        <time>2017-02-19T10:49:31Z</time>
      </trkpt>
      <trkpt lat="46.77068" lon="4.71261">
        <ele>284</ele>
        <time>2017-02-19T10:49:35Z</time>
      </trkpt>
      <trkpt lat="46.7707" lon="4.71254">
        <ele>285</ele>
        <time>2017-02-19T10:49:37Z</time>
      </trkpt>
      <trkpt lat="46.77073" lon="4.71246">
        <ele>285</ele>
        <time>2017-02-19T10:49:39Z</time>
      </trkpt>
      <trkpt lat="46.77075" lon="4.71238">
        <ele>286</ele>
        <time>2017-02-19T10:49:41Z</time>
      </trkpt>
      <trkpt lat="46.77077" lon="4.71231">
        <ele>286</ele>
        <time>2017-02-19T10:49:43Z</time>
      </trkpt>
      <trkpt lat="46.77079" lon="4.71224">
        <ele>286</ele>
        <time>2017-02-19T10:49:45Z</time>
      </trkpt>
      <trkpt lat="46.77081" lon="4.71217">
        <ele>286</ele>
        <time>2017-02-19T10:49:47Z</time>
      </trkpt>
      <trkpt lat="46.77083" lon="4.71211">
        <ele>286</ele>
        <time>2017-02-19T10:49:49Z</time>
      </trkpt>
      <trkpt lat="46.77086" lon="4.71204">
        <ele>287</ele>
        <time>2017-02-19T10:49:51Z</time>
      </trkpt>
      <trkpt lat="46.77087" lon="4.71197">
        <ele>287</ele>
        <time>2017-02-19T10:49:53Z</time>
      </trkpt>
      <trkpt lat="46.7709" lon="4.7119">
        <ele>287</ele>
        <time>2017-02-19T10:49:55Z</time>
      </trkpt>
      <trkpt lat="46.77092" lon="4.71183">
        <ele>287</ele>
        <time>2017-02-19T10:49:57Z</time>
      </trkpt>
      <trkpt lat="46.77093" lon="4.71176">
        <ele>287</ele>
        <time>2017-02-19T10:49:59Z</time>
      </trkpt>
      <trkpt lat="46.77094" lon="4.71169">
        <ele>287</ele>
        <time>2017-02-19T10:50:01Z</time>
      </trkpt>
      <trkpt lat="46.77096" lon="4.71163">
        <ele>287</ele>
        <time>2017-02-19T10:50:03Z</time>
      </trkpt>
      <trkpt lat="46.77098" lon="4.71156">
        <ele>288</ele>
        <time>2017-02-19T10:50:05Z</time>
      </trkpt>
      <trkpt lat="46.771" lon="4.71149">
        <ele>288</ele>
        <time>2017-02-19T10:50:07Z</time>
      </trkpt>
      <trkpt lat="46.77102" lon="4.71143">
        <ele>288</ele>
        <time>2017-02-19T10:50:09Z</time>
      </trkpt>
      <trkpt lat="46.77104" lon="4.71134">
        <ele>289</ele>
        <time>2017-02-19T10:50:12Z</time>
      </trkpt>
      <trkpt lat="46.77107" lon="4.71127">
        <ele>289</ele>
        <time>2017-02-19T10:50:14Z</time>
      </trkpt>
      <trkpt lat="46.7711" lon="4.71121">
        <ele>289</ele>
        <time>2017-02-19T10:50:16Z</time>
      </trkpt>
      <trkpt lat="46.77113" lon="4.71114">
        <ele>289</ele>
        <time>2017-02-19T10:50:18Z</time>
      </trkpt>
      <trkpt lat="46.77117" lon="4.71109">
        <ele>289</ele>
        <time>2017-02-19T10:50:20Z</time>
      </trkpt>
      <trkpt lat="46.77121" lon="4.71105">
        <ele>290</ele>
        <time>2017-02-19T10:50:22Z</time>
      </trkpt>
      <trkpt lat="46.77126" lon="4.711">
        <ele>291</ele>
        <time>2017-02-19T10:50:24Z</time>
      </trkpt>
      <trkpt lat="46.77129" lon="4.71096">
        <ele>292</ele>
        <time>2017-02-19T10:50:26Z</time>
      </trkpt>
      <trkpt lat="46.77134" lon="4.71091">
        <ele>293</ele>
        <time>2017-02-19T10:50:29Z</time>
      </trkpt>
      <trkpt lat="46.77137" lon="4.71084">
        <ele>294</ele>
        <time>2017-02-19T10:50:31Z</time>
      </trkpt>
      <trkpt lat="46.77142" lon="4.7108">
        <ele>295</ele>
        <time>2017-02-19T10:50:33Z</time>
      </trkpt>
      <trkpt lat="46.77146" lon="4.71075">
        <ele>296</ele>
        <time>2017-02-19T10:50:35Z</time>
      </trkpt>
      <trkpt lat="46.77151" lon="4.71072">
        <ele>297</ele>
        <time>2017-02-19T10:50:37Z</time>
      </trkpt>
      <trkpt lat="46.77156" lon="4.7107">
        <ele>298</ele>
        <time>2017-02-19T10:50:39Z</time>
      </trkpt>
      <trkpt lat="46.77159" lon="4.71066">
        <ele>298</ele>
        <time>2017-02-19T10:50:41Z</time>
      </trkpt>
      <trkpt lat="46.77163" lon="4.71062">
        <ele>299</ele>
        <time>2017-02-19T10:50:43Z</time>
      </trkpt>
      <trkpt lat="46.77168" lon="4.71056">
        <ele>300</ele>
        <time>2017-02-19T10:50:46Z</time>
      </trkpt>
      <trkpt lat="46.77173" lon="4.71052">
        <ele>300</ele>
        <time>2017-02-19T10:50:48Z</time>
      </trkpt>
      <trkpt lat="46.77177" lon="4.71048">
        <ele>301</ele>
        <time>2017-02-19T10:50:50Z</time>
      </trkpt>
      <trkpt lat="46.77181" lon="4.71045">
        <ele>301</ele>
        <time>2017-02-19T10:50:52Z</time>
      </trkpt>
      <trkpt lat="46.77185" lon="4.71042">
        <ele>301</ele>
        <time>2017-02-19T10:50:54Z</time>
      </trkpt>
      <trkpt lat="46.77192" lon="4.71038">
        <ele>301</ele>
        <time>2017-02-19T10:50:57Z</time>
      </trkpt>
      <trkpt lat="46.77196" lon="4.71034">
        <ele>301</ele>
        <time>2017-02-19T10:50:59Z</time>
      </trkpt>
      <trkpt lat="46.77201" lon="4.71028">
        <ele>301</ele>
        <time>2017-02-19T10:51:02Z</time>
      </trkpt>
      <trkpt lat="46.77205" lon="4.71024">
        <ele>300</ele>
        <time>2017-02-19T10:51:04Z</time>
      </trkpt>
      <trkpt lat="46.77209" lon="4.71019">
        <ele>300</ele>
        <time>2017-02-19T10:51:06Z</time>
      </trkpt>
      <trkpt lat="46.77211" lon="4.71011">
        <ele>300</ele>
        <time>2017-02-19T10:51:08Z</time>
      </trkpt>
      <trkpt lat="46.77213" lon="4.71005">
        <ele>300</ele>
        <time>2017-02-19T10:51:10Z</time>
      </trkpt>
      <trkpt lat="46.77216" lon="4.70997">
        <ele>300</ele>
        <time>2017-02-19T10:51:13Z</time>
      </trkpt>
      <trkpt lat="46.77218" lon="4.7099">
        <ele>301</ele>
        <time>2017-02-19T10:51:15Z</time>
      </trkpt>
      <trkpt lat="46.7722" lon="4.70981">
        <ele>301</ele>
        <time>2017-02-19T10:51:18Z</time>
      </trkpt>
      <trkpt lat="46.77222" lon="4.70974">
        <ele>302</ele>
        <time>2017-02-19T10:51:20Z</time>
      </trkpt>
      <trkpt lat="46.77227" lon="4.70967">
        <ele>303</ele>
        <time>2017-02-19T10:51:23Z</time>
      </trkpt>
      <trkpt lat="46.77231" lon="4.70962">
        <ele>304</ele>
        <time>2017-02-19T10:51:25Z</time>
      </trkpt>
      <trkpt lat="46.77235" lon="4.70958">
        <ele>305</ele>
        <time>2017-02-19T10:51:27Z</time>
      </trkpt>
      <trkpt lat="46.7724" lon="4.70955">
        <ele>306</ele>
        <time>2017-02-19T10:51:29Z</time>
      </trkpt>
      <trkpt lat="46.77246" lon="4.70952">
        <ele>307</ele>
        <time>2017-02-19T10:51:32Z</time>
      </trkpt>
      <trkpt lat="46.77251" lon="4.70947">
        <ele>308</ele>
        <time>2017-02-19T10:51:35Z</time>
      </trkpt>
      <trkpt lat="46.77257" lon="4.70942">
        <ele>309</ele>
        <time>2017-02-19T10:51:38Z</time>
      </trkpt>
      <trkpt lat="46.77262" lon="4.70939">
        <ele>310</ele>
        <time>2017-02-19T10:51:40Z</time>
      </trkpt>
      <trkpt lat="46.77268" lon="4.70935">
        <ele>311</ele>
        <time>2017-02-19T10:51:42Z</time>
      </trkpt>
      <trkpt lat="46.77272" lon="4.70933">
        <ele>311</ele>
        <time>2017-02-19T10:51:44Z</time>
      </trkpt>
      <trkpt lat="46.77277" lon="4.70931">
        <ele>312</ele>
        <time>2017-02-19T10:51:46Z</time>
      </trkpt>
      <trkpt lat="46.77282" lon="4.70929">
        <ele>312</ele>
        <time>2017-02-19T10:51:48Z</time>
      </trkpt>
      <trkpt lat="46.77287" lon="4.70928">
        <ele>312</ele>
        <time>2017-02-19T10:51:50Z</time>
      </trkpt>
      <trkpt lat="46.77292" lon="4.70926">
        <ele>313</ele>
        <time>2017-02-19T10:51:52Z</time>
      </trkpt>
      <trkpt lat="46.77297" lon="4.70923">
        <ele>313</ele>
        <time>2017-02-19T10:51:54Z</time>
      </trkpt>
      <trkpt lat="46.77302" lon="4.7092">
        <ele>313</ele>
        <time>2017-02-19T10:51:56Z</time>
      </trkpt>
      <trkpt lat="46.77307" lon="4.70918">
        <ele>313</ele>
        <time>2017-02-19T10:51:58Z</time>
      </trkpt>
      <trkpt lat="46.77311" lon="4.70914">
        <ele>314</ele>
        <time>2017-02-19T10:52:00Z</time>
      </trkpt>
      <trkpt lat="46.77315" lon="4.7091">
        <ele>314</ele>
        <time>2017-02-19T10:52:02Z</time>
      </trkpt>
      <trkpt lat="46.77319" lon="4.70907">
        <ele>315</ele>
        <time>2017-02-19T10:52:04Z</time>
      </trkpt>
      <trkpt lat="46.77326" lon="4.70902">
        <ele>316</ele>
        <time>2017-02-19T10:52:07Z</time>
      </trkpt>
      <trkpt lat="46.77332" lon="4.70899">
        <ele>317</ele>
        <time>2017-02-19T10:52:09Z</time>
      </trkpt>
      <trkpt lat="46.77338" lon="4.70895">
        <ele>317</ele>
        <time>2017-02-19T10:52:12Z</time>
      </trkpt>
      <trkpt lat="46.77339" lon="4.70889">
        <ele>318</ele>
        <time>2017-02-19T10:52:14Z</time>
      </trkpt>
      <trkpt lat="46.77342" lon="4.70883">
        <ele>318</ele>
        <time>2017-02-19T10:52:16Z</time>
      </trkpt>
      <trkpt lat="46.77345" lon="4.70876">
        <ele>318</ele>
        <time>2017-02-19T10:52:19Z</time>
      </trkpt>
      <trkpt lat="46.77349" lon="4.7087">
        <ele>317</ele>
        <time>2017-02-19T10:52:22Z</time>
      </trkpt>
      <trkpt lat="46.77351" lon="4.70861">
        <ele>316</ele>
        <time>2017-02-19T10:52:25Z</time>
      </trkpt>
      <trkpt lat="46.7735" lon="4.70851">
        <ele>315</ele>
        <time>2017-02-19T10:52:27Z</time>
      </trkpt>
      <trkpt lat="46.77348" lon="4.70843">
        <ele>315</ele>
        <time>2017-02-19T10:52:29Z</time>
      </trkpt>
      <trkpt lat="46.77345" lon="4.70835">
        <ele>315</ele>
        <time>2017-02-19T10:52:32Z</time>
      </trkpt>
      <trkpt lat="46.77345" lon="4.70828">
        <ele>315</ele>
        <time>2017-02-19T10:52:36Z</time>
      </trkpt>
      <trkpt lat="46.77345" lon="4.70821">
        <ele>315</ele>
        <time>2017-02-19T10:52:39Z</time>
      </trkpt>
      <trkpt lat="46.77343" lon="4.70812">
        <ele>315</ele>
        <time>2017-02-19T10:52:44Z</time>
      </trkpt>
      <trkpt lat="46.77343" lon="4.70805">
        <ele>315</ele>
        <time>2017-02-19T10:52:48Z</time>
      </trkpt>
      <trkpt lat="46.77343" lon="4.70797">
        <ele>315</ele>
        <time>2017-02-19T10:52:52Z</time>
      </trkpt>
      <trkpt lat="46.77343" lon="4.7079">
        <ele>315</ele>
        <time>2017-02-19T10:52:59Z</time>
      </trkpt>
      <trkpt lat="46.77343" lon="4.70785">
        <ele>315</ele>
        <time>2017-02-19T10:53:16Z</time>
      </trkpt>
      <trkpt lat="46.77343" lon="4.70785">
        <ele>315</ele>
        <time>2017-02-19T10:53:17Z</time>
      </trkpt>
      <trkpt lat="46.77341" lon="4.70777">
        <ele>315</ele>
        <time>2017-02-19T10:53:22Z</time>
      </trkpt>
      <trkpt lat="46.77342" lon="4.70768">
        <ele>314</ele>
        <time>2017-02-19T10:53:24Z</time>
      </trkpt>
      <trkpt lat="46.77341" lon="4.70754">
        <ele>314</ele>
        <time>2017-02-19T10:53:26Z</time>
      </trkpt>
      <trkpt lat="46.77341" lon="4.70744">
        <ele>314</ele>
        <time>2017-02-19T10:53:27Z</time>
      </trkpt>
      <trkpt lat="46.77341" lon="4.70732">
        <ele>313</ele>
        <time>2017-02-19T10:53:28Z</time>
      </trkpt>
      <trkpt lat="46.7734" lon="4.70718">
        <ele>313</ele>
        <time>2017-02-19T10:53:29Z</time>
      </trkpt>
      <trkpt lat="46.7734" lon="4.70702">
        <ele>312</ele>
        <time>2017-02-19T10:53:30Z</time>
      </trkpt>
      <trkpt lat="46.77341" lon="4.70687">
        <ele>312</ele>
        <time>2017-02-19T10:53:31Z</time>
      </trkpt>
      <trkpt lat="46.77342" lon="4.70673">
        <ele>312</ele>
        <time>2017-02-19T10:53:32Z</time>
      </trkpt>
      <trkpt lat="46.77342" lon="4.70659">
        <ele>311</ele>
        <time>2017-02-19T10:53:33Z</time>
      </trkpt>
      <trkpt lat="46.77341" lon="4.70645">
        <ele>310</ele>
        <time>2017-02-19T10:53:34Z</time>
      </trkpt>
      <trkpt lat="46.77339" lon="4.70631">
        <ele>309</ele>
        <time>2017-02-19T10:53:35Z</time>
      </trkpt>
      <trkpt lat="46.77337" lon="4.70617">
        <ele>308</ele>
        <time>2017-02-19T10:53:36Z</time>
      </trkpt>
      <trkpt lat="46.77333" lon="4.70603">
        <ele>306</ele>
        <time>2017-02-19T10:53:37Z</time>
      </trkpt>
      <trkpt lat="46.7733" lon="4.70589">
        <ele>305</ele>
        <time>2017-02-19T10:53:38Z</time>
      </trkpt>
      <trkpt lat="46.77329" lon="4.70574">
        <ele>304</ele>
        <time>2017-02-19T10:53:39Z</time>
      </trkpt>
      <trkpt lat="46.77328" lon="4.70558">
        <ele>303</ele>
        <time>2017-02-19T10:53:40Z</time>
      </trkpt>
      <trkpt lat="46.77329" lon="4.70544">
        <ele>303</ele>
        <time>2017-02-19T10:53:41Z</time>
      </trkpt>
      <trkpt lat="46.7733" lon="4.70531">
        <ele>302</ele>
        <time>2017-02-19T10:53:42Z</time>
      </trkpt>
      <trkpt lat="46.77334" lon="4.7052">
        <ele>301</ele>
        <time>2017-02-19T10:53:43Z</time>
      </trkpt>
      <trkpt lat="46.7734" lon="4.70513">
        <ele>301</ele>
        <time>2017-02-19T10:53:44Z</time>
      </trkpt>
      <trkpt lat="46.77347" lon="4.70507">
        <ele>301</ele>
        <time>2017-02-19T10:53:45Z</time>
      </trkpt>
      <trkpt lat="46.77353" lon="4.70503">
        <ele>300</ele>
        <time>2017-02-19T10:53:46Z</time>
      </trkpt>
      <trkpt lat="46.77358" lon="4.70499">
        <ele>300</ele>
        <time>2017-02-19T10:53:47Z</time>
      </trkpt>
      <trkpt lat="46.77362" lon="4.70495">
        <ele>300</ele>
        <time>2017-02-19T10:53:48Z</time>
      </trkpt>
      <trkpt lat="46.77366" lon="4.70489">
        <ele>300</ele>
        <time>2017-02-19T10:53:49Z</time>
      </trkpt>
      <trkpt lat="46.77369" lon="4.70481">
        <ele>301</ele>
        <time>2017-02-19T10:53:50Z</time>
      </trkpt>
      <trkpt lat="46.77371" lon="4.70471">
        <ele>301</ele>
        <time>2017-02-19T10:53:51Z</time>
      </trkpt>
      <trkpt lat="46.77372" lon="4.70462">
        <ele>301</ele>
        <time>2017-02-19T10:53:52Z</time>
      </trkpt>
      <trkpt lat="46.77374" lon="4.70453">
        <ele>301</ele>
        <time>2017-02-19T10:53:53Z</time>
      </trkpt>
      <trkpt lat="46.77375" lon="4.70445">
        <ele>300</ele>
        <time>2017-02-19T10:53:54Z</time>
      </trkpt>
      <trkpt lat="46.77379" lon="4.70437">
        <ele>300</ele>
        <time>2017-02-19T10:53:55Z</time>
      </trkpt>
      <trkpt lat="46.77381" lon="4.70429">
        <ele>300</ele>
        <time>2017-02-19T10:53:56Z</time>
      </trkpt>
      <trkpt lat="46.77383" lon="4.70422">
        <ele>300</ele>
        <time>2017-02-19T10:53:57Z</time>
      </trkpt>
      <trkpt lat="46.77385" lon="4.70415">
        <ele>300</ele>
        <time>2017-02-19T10:53:58Z</time>
      </trkpt>
      <trkpt lat="46.77386" lon="4.70407">
        <ele>301</ele>
        <time>2017-02-19T10:53:59Z</time>
      </trkpt>
      <trkpt lat="46.77388" lon="4.70401">
        <ele>301</ele>
        <time>2017-02-19T10:54:00Z</time>
      </trkpt>
      <trkpt lat="46.77391" lon="4.70391">
        <ele>301</ele>
        <time>2017-02-19T10:54:02Z</time>
      </trkpt>
      <trkpt lat="46.77393" lon="4.70382">
        <ele>302</ele>
        <time>2017-02-19T10:54:04Z</time>
      </trkpt>
      <trkpt lat="46.77396" lon="4.70374">
        <ele>301</ele>
        <time>2017-02-19T10:54:06Z</time>
      </trkpt>
      <trkpt lat="46.77398" lon="4.70362">
        <ele>301</ele>
        <time>2017-02-19T10:54:08Z</time>
      </trkpt>
      <trkpt lat="46.77399" lon="4.70354">
        <ele>300</ele>
        <time>2017-02-19T10:54:10Z</time>
      </trkpt>
      <trkpt lat="46.77401" lon="4.70347">
        <ele>299</ele>
        <time>2017-02-19T10:54:12Z</time>
      </trkpt>
      <trkpt lat="46.77403" lon="4.70339">
        <ele>298</ele>
        <time>2017-02-19T10:54:14Z</time>
      </trkpt>
      <trkpt lat="46.77404" lon="4.70329">
        <ele>298</ele>
        <time>2017-02-19T10:54:16Z</time>
      </trkpt>
      <trkpt lat="46.77406" lon="4.7032">
        <ele>298</ele>
        <time>2017-02-19T10:54:18Z</time>
      </trkpt>
      <trkpt lat="46.77408" lon="4.70313">
        <ele>298</ele>
        <time>2017-02-19T10:54:20Z</time>
      </trkpt>
      <trkpt lat="46.77409" lon="4.70307">
        <ele>299</ele>
        <time>2017-02-19T10:54:22Z</time>
      </trkpt>
      <trkpt lat="46.77411" lon="4.70298">
        <ele>300</ele>
        <time>2017-02-19T10:54:25Z</time>
      </trkpt>
      <trkpt lat="46.77414" lon="4.70289">
        <ele>300</ele>
        <time>2017-02-19T10:54:27Z</time>
      </trkpt>
      <trkpt lat="46.77415" lon="4.7028">
        <ele>301</ele>
        <time>2017-02-19T10:54:29Z</time>
      </trkpt>
      <trkpt lat="46.77417" lon="4.70271">
        <ele>301</ele>
        <time>2017-02-19T10:54:31Z</time>
      </trkpt>
      <trkpt lat="46.77419" lon="4.70261">
        <ele>301</ele>
        <time>2017-02-19T10:54:33Z</time>
      </trkpt>
      <trkpt lat="46.77422" lon="4.7024">
        <ele>302</ele>
        <time>2017-02-19T10:54:36Z</time>
      </trkpt>
      <trkpt lat="46.77422" lon="4.70233">
        <ele>302</ele>
        <time>2017-02-19T10:54:37Z</time>
      </trkpt>
      <trkpt lat="46.77422" lon="4.70225">
        <ele>303</ele>
        <time>2017-02-19T10:54:38Z</time>
      </trkpt>
      <trkpt lat="46.77422" lon="4.70218">
        <ele>303</ele>
        <time>2017-02-19T10:54:39Z</time>
      </trkpt>
      <trkpt lat="46.77422" lon="4.70211">
        <ele>303</ele>
        <time>2017-02-19T10:54:40Z</time>
      </trkpt>
      <trkpt lat="46.7742" lon="4.70204">
        <ele>304</ele>
        <time>2017-02-19T10:54:41Z</time>
      </trkpt>
      <trkpt lat="46.77418" lon="4.70197">
        <ele>304</ele>
        <time>2017-02-19T10:54:42Z</time>
      </trkpt>
      <trkpt lat="46.77416" lon="4.7019">
        <ele>305</ele>
        <time>2017-02-19T10:54:43Z</time>
      </trkpt>
      <trkpt lat="46.77415" lon="4.70182">
        <ele>305</ele>
        <time>2017-02-19T10:54:44Z</time>
      </trkpt>
      <trkpt lat="46.77414" lon="4.70173">
        <ele>305</ele>
        <time>2017-02-19T10:54:45Z</time>
      </trkpt>
      <trkpt lat="46.77414" lon="4.70165">
        <ele>305</ele>
        <time>2017-02-19T10:54:46Z</time>
      </trkpt>
      <trkpt lat="46.77416" lon="4.70156">
        <ele>305</ele>
        <time>2017-02-19T10:54:47Z</time>
      </trkpt>
      <trkpt lat="46.77417" lon="4.70148">
        <ele>305</ele>
        <time>2017-02-19T10:54:48Z</time>
      </trkpt>
      <trkpt lat="46.77419" lon="4.70142">
        <ele>305</ele>
        <time>2017-02-19T10:54:49Z</time>
      </trkpt>
      <trkpt lat="46.77422" lon="4.70132">
        <ele>305</ele>
        <time>2017-02-19T10:54:51Z</time>
      </trkpt>
      <trkpt lat="46.77425" lon="4.70125">
        <ele>306</ele>
        <time>2017-02-19T10:54:53Z</time>
      </trkpt>
      <trkpt lat="46.7743" lon="4.70118">
        <ele>307</ele>
        <time>2017-02-19T10:54:55Z</time>
      </trkpt>
      <trkpt lat="46.77433" lon="4.70112">
        <ele>307</ele>
        <time>2017-02-19T10:54:57Z</time>
      </trkpt>
      <trkpt lat="46.77436" lon="4.70106">
        <ele>308</ele>
        <time>2017-02-19T10:54:59Z</time>
      </trkpt>
      <trkpt lat="46.7744" lon="4.70099">
        <ele>308</ele>
        <time>2017-02-19T10:55:01Z</time>
      </trkpt>
      <trkpt lat="46.77442" lon="4.70091">
        <ele>308</ele>
        <time>2017-02-19T10:55:03Z</time>
      </trkpt>
      <trkpt lat="46.77445" lon="4.70083">
        <ele>308</ele>
        <time>2017-02-19T10:55:05Z</time>
      </trkpt>
      <trkpt lat="46.77448" lon="4.70076">
        <ele>308</ele>
        <time>2017-02-19T10:55:07Z</time>
      </trkpt>
      <trkpt lat="46.77451" lon="4.70068">
        <ele>307</ele>
        <time>2017-02-19T10:55:10Z</time>
      </trkpt>
      <trkpt lat="46.77453" lon="4.70061">
        <ele>306</ele>
        <time>2017-02-19T10:55:12Z</time>
      </trkpt>
      <trkpt lat="46.77454" lon="4.70053">
        <ele>306</ele>
        <time>2017-02-19T10:55:14Z</time>
      </trkpt>
      <trkpt lat="46.77456" lon="4.70046">
        <ele>305</ele>
        <time>2017-02-19T10:55:16Z</time>
      </trkpt>
      <trkpt lat="46.77458" lon="4.70039">
        <ele>304</ele>
        <time>2017-02-19T10:55:18Z</time>
      </trkpt>
      <trkpt lat="46.77459" lon="4.70032">
        <ele>304</ele>
        <time>2017-02-19T10:55:20Z</time>
      </trkpt>
      <trkpt lat="46.77461" lon="4.70024">
        <ele>303</ele>
        <time>2017-02-19T10:55:22Z</time>
      </trkpt>
      <trkpt lat="46.77464" lon="4.70013">
        <ele>303</ele>
        <time>2017-02-19T10:55:24Z</time>
      </trkpt>
      <trkpt lat="46.77466" lon="4.7">
        <ele>303</ele>
        <time>2017-02-19T10:55:26Z</time>
      </trkpt>
      <trkpt lat="46.77467" lon="4.69992">
        <ele>303</ele>
        <time>2017-02-19T10:55:27Z</time>
      </trkpt>
      <trkpt lat="46.77468" lon="4.69984">
        <ele>303</ele>
        <time>2017-02-19T10:55:28Z</time>
      </trkpt>
      <trkpt lat="46.77468" lon="4.69975">
        <ele>303</ele>
        <time>2017-02-19T10:55:29Z</time>
      </trkpt>
      <trkpt lat="46.77468" lon="4.69966">
        <ele>303</ele>
        <time>2017-02-19T10:55:30Z</time>
      </trkpt>
      <trkpt lat="46.77468" lon="4.69956">
        <ele>303</ele>
        <time>2017-02-19T10:55:31Z</time>
      </trkpt>
      <trkpt lat="46.77467" lon="4.69946">
        <ele>303</ele>
        <time>2017-02-19T10:55:32Z</time>
      </trkpt>
      <trkpt lat="46.77467" lon="4.69936">
        <ele>303</ele>
        <time>2017-02-19T10:55:33Z</time>
      </trkpt>
      <trkpt lat="46.77468" lon="4.69926">
        <ele>303</ele>
        <time>2017-02-19T10:55:34Z</time>
      </trkpt>
      <trkpt lat="46.77469" lon="4.69916">
        <ele>303</ele>
        <time>2017-02-19T10:55:35Z</time>
      </trkpt>
      <trkpt lat="46.7747" lon="4.69907">
        <ele>304</ele>
        <time>2017-02-19T10:55:36Z</time>
      </trkpt>
      <trkpt lat="46.77471" lon="4.69899">
        <ele>304</ele>
        <time>2017-02-19T10:55:37Z</time>
      </trkpt>
      <trkpt lat="46.77473" lon="4.69892">
        <ele>305</ele>
        <time>2017-02-19T10:55:38Z</time>
      </trkpt>
      <trkpt lat="46.77476" lon="4.69885">
        <ele>306</ele>
        <time>2017-02-19T10:55:39Z</time>
      </trkpt>
      <trkpt lat="46.77478" lon="4.6988">
        <ele>307</ele>
        <time>2017-02-19T10:55:40Z</time>
      </trkpt>
      <trkpt lat="46.77482" lon="4.69875">
        <ele>308</ele>
        <time>2017-02-19T10:55:41Z</time>
      </trkpt>
      <trkpt lat="46.77485" lon="4.69869">
        <ele>308</ele>
        <time>2017-02-19T10:55:42Z</time>
      </trkpt>
      <trkpt lat="46.77489" lon="4.6986">
        <ele>309</ele>
        <time>2017-02-19T10:55:44Z</time>
      </trkpt>
      <trkpt lat="46.77494" lon="4.69851">
        <ele>309</ele>
        <time>2017-02-19T10:55:46Z</time>
      </trkpt>
      <trkpt lat="46.77498" lon="4.69843">
        <ele>310</ele>
        <time>2017-02-19T10:55:48Z</time>
      </trkpt>
      <trkpt lat="46.77502" lon="4.69838">
        <ele>310</ele>
        <time>2017-02-19T10:55:50Z</time>
      </trkpt>
      <trkpt lat="46.77506" lon="4.6983">
        <ele>309</ele>
        <time>2017-02-19T10:55:52Z</time>
      </trkpt>
      <trkpt lat="46.77509" lon="4.69824">
        <ele>309</ele>
        <time>2017-02-19T10:55:53Z</time>
      </trkpt>
      <trkpt lat="46.77514" lon="4.69814">
        <ele>308</ele>
        <time>2017-02-19T10:55:55Z</time>
      </trkpt>
      <trkpt lat="46.7752" lon="4.69806">
        <ele>308</ele>
        <time>2017-02-19T10:55:57Z</time>
      </trkpt>
      <trkpt lat="46.77525" lon="4.69799">
        <ele>308</ele>
        <time>2017-02-19T10:55:59Z</time>
      </trkpt>
      <trkpt lat="46.7753" lon="4.69792">
        <ele>308</ele>
        <time>2017-02-19T10:56:01Z</time>
      </trkpt>
      <trkpt lat="46.77535" lon="4.69788">
        <ele>308</ele>
        <time>2017-02-19T10:56:03Z</time>
      </trkpt>
      <trkpt lat="46.7754" lon="4.69782">
        <ele>308</ele>
        <time>2017-02-19T10:56:05Z</time>
      </trkpt>
      <trkpt lat="46.77544" lon="4.69777">
        <ele>307</ele>
        <time>2017-02-19T10:56:07Z</time>
      </trkpt>
      <trkpt lat="46.77548" lon="4.69774">
        <ele>306</ele>
        <time>2017-02-19T10:56:09Z</time>
      </trkpt>
      <trkpt lat="46.77552" lon="4.69769">
        <ele>305</ele>
        <time>2017-02-19T10:56:11Z</time>
      </trkpt>
      <trkpt lat="46.77557" lon="4.69763">
        <ele>304</ele>
        <time>2017-02-19T10:56:13Z</time>
      </trkpt>
      <trkpt lat="46.77561" lon="4.69755">
        <ele>302</ele>
        <time>2017-02-19T10:56:15Z</time>
      </trkpt>
      <trkpt lat="46.77565" lon="4.69745">
        <ele>301</ele>
        <time>2017-02-19T10:56:17Z</time>
      </trkpt>
      <trkpt lat="46.77572" lon="4.69737">
        <ele>299</ele>
        <time>2017-02-19T10:56:19Z</time>
      </trkpt>
      <trkpt lat="46.77578" lon="4.69727">
        <ele>297</ele>
        <time>2017-02-19T10:56:21Z</time>
      </trkpt>
      <trkpt lat="46.77583" lon="4.69723">
        <ele>296</ele>
        <time>2017-02-19T10:56:22Z</time>
      </trkpt>
      <trkpt lat="46.77587" lon="4.69718">
        <ele>295</ele>
        <time>2017-02-19T10:56:23Z</time>
      </trkpt>
      <trkpt lat="46.77591" lon="4.69714">
        <ele>294</ele>
        <time>2017-02-19T10:56:24Z</time>
      </trkpt>
      <trkpt lat="46.77595" lon="4.6971">
        <ele>294</ele>
        <time>2017-02-19T10:56:25Z</time>
      </trkpt>
      <trkpt lat="46.77601" lon="4.69706">
        <ele>294</ele>
        <time>2017-02-19T10:56:26Z</time>
      </trkpt>
      <trkpt lat="46.77605" lon="4.69701">
        <ele>294</ele>
        <time>2017-02-19T10:56:27Z</time>
      </trkpt>
      <trkpt lat="46.7761" lon="4.69697">
        <ele>294</ele>
        <time>2017-02-19T10:56:28Z</time>
      </trkpt>
      <trkpt lat="46.77615" lon="4.69693">
        <ele>294</ele>
        <time>2017-02-19T10:56:29Z</time>
      </trkpt>
      <trkpt lat="46.77619" lon="4.69688">
        <ele>295</ele>
        <time>2017-02-19T10:56:30Z</time>
      </trkpt>
      <trkpt lat="46.77624" lon="4.69682">
        <ele>295</ele>
        <time>2017-02-19T10:56:31Z</time>
      </trkpt>
      <trkpt lat="46.77629" lon="4.69677">
        <ele>296</ele>
        <time>2017-02-19T10:56:32Z</time>
      </trkpt>
      <trkpt lat="46.77633" lon="4.69672">
        <ele>297</ele>
        <time>2017-02-19T10:56:33Z</time>
      </trkpt>
      <trkpt lat="46.77637" lon="4.69667">
        <ele>298</ele>
        <time>2017-02-19T10:56:34Z</time>
      </trkpt>
      <trkpt lat="46.77643" lon="4.69661">
        <ele>298</ele>
        <time>2017-02-19T10:56:36Z</time>
      </trkpt>
      <trkpt lat="46.77647" lon="4.69658">
        <ele>297</ele>
        <time>2017-02-19T10:56:37Z</time>
      </trkpt>
      <trkpt lat="46.77652" lon="4.69653">
        <ele>297</ele>
        <time>2017-02-19T10:56:38Z</time>
      </trkpt>
      <trkpt lat="46.77656" lon="4.69648">
        <ele>296</ele>
        <time>2017-02-19T10:56:39Z</time>
      </trkpt>
      <trkpt lat="46.77661" lon="4.69641">
        <ele>296</ele>
        <time>2017-02-19T10:56:40Z</time>
      </trkpt>
      <trkpt lat="46.77667" lon="4.69635">
        <ele>296</ele>
        <time>2017-02-19T10:56:41Z</time>
      </trkpt>
      <trkpt lat="46.77671" lon="4.69629">
        <ele>297</ele>
        <time>2017-02-19T10:56:42Z</time>
      </trkpt>
      <trkpt lat="46.77675" lon="4.69623">
        <ele>298</ele>
        <time>2017-02-19T10:56:43Z</time>
      </trkpt>
      <trkpt lat="46.77679" lon="4.69617">
        <ele>299</ele>
        <time>2017-02-19T10:56:44Z</time>
      </trkpt>
      <trkpt lat="46.77682" lon="4.6961">
        <ele>299</ele>
        <time>2017-02-19T10:56:45Z</time>
      </trkpt>
      <trkpt lat="46.77684" lon="4.69604">
        <ele>300</ele>
        <time>2017-02-19T10:56:46Z</time>
      </trkpt>
      <trkpt lat="46.77687" lon="4.69597">
        <ele>300</ele>
        <time>2017-02-19T10:56:47Z</time>
      </trkpt>
      <trkpt lat="46.77689" lon="4.6959">
        <ele>300</ele>
        <time>2017-02-19T10:56:48Z</time>
      </trkpt>
      <trkpt lat="46.77691" lon="4.69585">
        <ele>301</ele>
        <time>2017-02-19T10:56:49Z</time>
      </trkpt>
      <trkpt lat="46.77693" lon="4.69573">
        <ele>301</ele>
        <time>2017-02-19T10:56:51Z</time>
      </trkpt>
      <trkpt lat="46.77696" lon="4.69562">
        <ele>300</ele>
        <time>2017-02-19T10:56:53Z</time>
      </trkpt>
      <trkpt lat="46.77699" lon="4.6955">
        <ele>300</ele>
        <time>2017-02-19T10:56:55Z</time>
      </trkpt>
      <trkpt lat="46.77704" lon="4.69538">
        <ele>300</ele>
        <time>2017-02-19T10:56:57Z</time>
      </trkpt>
      <trkpt lat="46.77709" lon="4.69528">
        <ele>300</ele>
        <time>2017-02-19T10:56:59Z</time>
      </trkpt>
      <trkpt lat="46.77714" lon="4.69519">
        <ele>300</ele>
        <time>2017-02-19T10:57:01Z</time>
      </trkpt>
      <trkpt lat="46.77718" lon="4.69511">
        <ele>301</ele>
        <time>2017-02-19T10:57:03Z</time>
      </trkpt>
      <trkpt lat="46.77723" lon="4.69503">
        <ele>302</ele>
        <time>2017-02-19T10:57:05Z</time>
      </trkpt>
      <trkpt lat="46.77729" lon="4.69498">
        <ele>303</ele>
        <time>2017-02-19T10:57:07Z</time>
      </trkpt>
      <trkpt lat="46.77734" lon="4.69493">
        <ele>304</ele>
        <time>2017-02-19T10:57:09Z</time>
      </trkpt>
      <trkpt lat="46.77739" lon="4.69489">
        <ele>305</ele>
        <time>2017-02-19T10:57:11Z</time>
      </trkpt>
      <trkpt lat="46.77745" lon="4.69485">
        <ele>306</ele>
        <time>2017-02-19T10:57:13Z</time>
      </trkpt>
      <trkpt lat="46.77752" lon="4.6948">
        <ele>306</ele>
        <time>2017-02-19T10:57:15Z</time>
      </trkpt>
      <trkpt lat="46.77758" lon="4.69475">
        <ele>306</ele>
        <time>2017-02-19T10:57:17Z</time>
      </trkpt>
      <trkpt lat="46.77765" lon="4.69469">
        <ele>307</ele>
        <time>2017-02-19T10:57:19Z</time>
      </trkpt>
      <trkpt lat="46.77773" lon="4.69464">
        <ele>307</ele>
        <time>2017-02-19T10:57:21Z</time>
      </trkpt>
      <trkpt lat="46.77779" lon="4.6946">
        <ele>307</ele>
        <time>2017-02-19T10:57:23Z</time>
      </trkpt>
      <trkpt lat="46.77786" lon="4.69455">
        <ele>307</ele>
        <time>2017-02-19T10:57:25Z</time>
      </trkpt>
      <trkpt lat="46.77793" lon="4.6945">
        <ele>307</ele>
        <time>2017-02-19T10:57:27Z</time>
      </trkpt>
      <trkpt lat="46.778" lon="4.69445">
        <ele>308</ele>
        <time>2017-02-19T10:57:29Z</time>
      </trkpt>
      <trkpt lat="46.77807" lon="4.6944">
        <ele>308</ele>
        <time>2017-02-19T10:57:31Z</time>
      </trkpt>
      <trkpt lat="46.77813" lon="4.69435">
        <ele>308</ele>
        <time>2017-02-19T10:57:33Z</time>
      </trkpt>
      <trkpt lat="46.77817" lon="4.69432">
        <ele>308</ele>
        <time>2017-02-19T10:57:34Z</time>
      </trkpt>
      <trkpt lat="46.77822" lon="4.6943">
        <ele>308</ele>
        <time>2017-02-19T10:57:35Z</time>
      </trkpt>
      <trkpt lat="46.77829" lon="4.69425">
        <ele>308</ele>
        <time>2017-02-19T10:57:37Z</time>
      </trkpt>
      <trkpt lat="46.77837" lon="4.69421">
        <ele>309</ele>
        <time>2017-02-19T10:57:39Z</time>
      </trkpt>
      <trkpt lat="46.77843" lon="4.69419">
        <ele>309</ele>
        <time>2017-02-19T10:57:41Z</time>
      </trkpt>
      <trkpt lat="46.77849" lon="4.69417">
        <ele>309</ele>
        <time>2017-02-19T10:57:43Z</time>
      </trkpt>
      <trkpt lat="46.77856" lon="4.69416">
        <ele>309</ele>
        <time>2017-02-19T10:57:45Z</time>
      </trkpt>
      <trkpt lat="46.77864" lon="4.69414">
        <ele>309</ele>
        <time>2017-02-19T10:57:47Z</time>
      </trkpt>
      <trkpt lat="46.77872" lon="4.69412">
        <ele>309</ele>
        <time>2017-02-19T10:57:49Z</time>
      </trkpt>
      <trkpt lat="46.77878" lon="4.69411">
        <ele>309</ele>
        <time>2017-02-19T10:57:51Z</time>
      </trkpt>
      <trkpt lat="46.77883" lon="4.69409">
        <ele>309</ele>
        <time>2017-02-19T10:57:53Z</time>
      </trkpt>
      <trkpt lat="46.77889" lon="4.69409">
        <ele>310</ele>
        <time>2017-02-19T10:57:56Z</time>
      </trkpt>
      <trkpt lat="46.77893" lon="4.69413">
        <ele>310</ele>
        <time>2017-02-19T10:57:58Z</time>
      </trkpt>
      <trkpt lat="46.77902" lon="4.69415">
        <ele>311</ele>
        <time>2017-02-19T10:58:00Z</time>
      </trkpt>
      <trkpt lat="46.77909" lon="4.6942">
        <ele>311</ele>
        <time>2017-02-19T10:58:02Z</time>
      </trkpt>
      <trkpt lat="46.77915" lon="4.69424">
        <ele>312</ele>
        <time>2017-02-19T10:58:04Z</time>
      </trkpt>
      <trkpt lat="46.77921" lon="4.69429">
        <ele>313</ele>
        <time>2017-02-19T10:58:06Z</time>
      </trkpt>
      <trkpt lat="46.77926" lon="4.69435">
        <ele>314</ele>
        <time>2017-02-19T10:58:08Z</time>
      </trkpt>
      <trkpt lat="46.77929" lon="4.6944">
        <ele>316</ele>
        <time>2017-02-19T10:58:10Z</time>
      </trkpt>
      <trkpt lat="46.77934" lon="4.69444">
        <ele>317</ele>
        <time>2017-02-19T10:58:12Z</time>
      </trkpt>
      <trkpt lat="46.7794" lon="4.69447">
        <ele>319</ele>
        <time>2017-02-19T10:58:14Z</time>
      </trkpt>
      <trkpt lat="46.77949" lon="4.69448">
        <ele>319</ele>
        <time>2017-02-19T10:58:16Z</time>
      </trkpt>
      <trkpt lat="46.77958" lon="4.69449">
        <ele>320</ele>
        <time>2017-02-19T10:58:18Z</time>
      </trkpt>
      <trkpt lat="46.77968" lon="4.69449">
        <ele>321</ele>
        <time>2017-02-19T10:58:20Z</time>
      </trkpt>
      <trkpt lat="46.77972" lon="4.69448">
        <ele>322</ele>
        <time>2017-02-19T10:58:21Z</time>
      </trkpt>
      <trkpt lat="46.77982" lon="4.69444">
        <ele>323</ele>
        <time>2017-02-19T10:58:23Z</time>
      </trkpt>
      <trkpt lat="46.77987" lon="4.69441">
        <ele>325</ele>
        <time>2017-02-19T10:58:24Z</time>
      </trkpt>
      <trkpt lat="46.77992" lon="4.69437">
        <ele>326</ele>
        <time>2017-02-19T10:58:25Z</time>
      </trkpt>
      <trkpt lat="46.77995" lon="4.69434">
        <ele>327</ele>
        <time>2017-02-19T10:58:26Z</time>
      </trkpt>
      <trkpt lat="46.78" lon="4.69429">
        <ele>328</ele>
        <time>2017-02-19T10:58:27Z</time>
      </trkpt>
      <trkpt lat="46.78004" lon="4.69425">
        <ele>328</ele>
        <time>2017-02-19T10:58:28Z</time>
      </trkpt>
      <trkpt lat="46.7801" lon="4.69417">
        <ele>329</ele>
        <time>2017-02-19T10:58:30Z</time>
      </trkpt>
      <trkpt lat="46.78016" lon="4.6941">
        <ele>329</ele>
        <time>2017-02-19T10:58:32Z</time>
      </trkpt>
      <trkpt lat="46.78021" lon="4.69404">
        <ele>329</ele>
        <time>2017-02-19T10:58:34Z</time>
      </trkpt>
      <trkpt lat="46.78027" lon="4.69397">
        <ele>328</ele>
        <time>2017-02-19T10:58:36Z</time>
      </trkpt>
      <trkpt lat="46.78033" lon="4.69391">
        <ele>328</ele>
        <time>2017-02-19T10:58:38Z</time>
      </trkpt>
      <trkpt lat="46.78037" lon="4.69384">
        <ele>327</ele>
        <time>2017-02-19T10:58:40Z</time>
      </trkpt>
      <trkpt lat="46.78041" lon="4.69377">
        <ele>326</ele>
        <time>2017-02-19T10:58:42Z</time>
      </trkpt>
      <trkpt lat="46.78045" lon="4.6937">
        <ele>326</ele>
        <time>2017-02-19T10:58:44Z</time>
      </trkpt>
      <trkpt lat="46.78048" lon="4.69362">
        <ele>325</ele>
        <time>2017-02-19T10:58:46Z</time>
      </trkpt>
      <trkpt lat="46.78052" lon="4.69351">
        <ele>325</ele>
        <time>2017-02-19T10:58:48Z</time>
      </trkpt>
      <trkpt lat="46.78055" lon="4.6934">
        <ele>325</ele>
        <time>2017-02-19T10:58:50Z</time>
      </trkpt>
      <trkpt lat="46.78056" lon="4.69333">
        <ele>325</ele>
        <time>2017-02-19T10:58:51Z</time>
      </trkpt>
      <trkpt lat="46.78059" lon="4.69321">
        <ele>325</ele>
        <time>2017-02-19T10:58:53Z</time>
      </trkpt>
      <trkpt lat="46.78061" lon="4.69309">
        <ele>326</ele>
        <time>2017-02-19T10:58:55Z</time>
      </trkpt>
      <trkpt lat="46.78061" lon="4.693">
        <ele>326</ele>
        <time>2017-02-19T10:58:57Z</time>
      </trkpt>
      <trkpt lat="46.78062" lon="4.69289">
        <ele>326</ele>
        <time>2017-02-19T10:58:59Z</time>
      </trkpt>
      <trkpt lat="46.78063" lon="4.69281">
        <ele>326</ele>
        <time>2017-02-19T10:59:00Z</time>
      </trkpt>
      <trkpt lat="46.78063" lon="4.69274">
        <ele>326</ele>
        <time>2017-02-19T10:59:01Z</time>
      </trkpt>
      <trkpt lat="46.78064" lon="4.69267">
        <ele>326</ele>
        <time>2017-02-19T10:59:02Z</time>
      </trkpt>
      <trkpt lat="46.78064" lon="4.6926">
        <ele>326</ele>
        <time>2017-02-19T10:59:03Z</time>
      </trkpt>
      <trkpt lat="46.78065" lon="4.69251">
        <ele>325</ele>
        <time>2017-02-19T10:59:04Z</time>
      </trkpt>
      <trkpt lat="46.78066" lon="4.69243">
        <ele>325</ele>
        <time>2017-02-19T10:59:05Z</time>
      </trkpt>
      <trkpt lat="46.78066" lon="4.69227">
        <ele>325</ele>
        <time>2017-02-19T10:59:07Z</time>
      </trkpt>
      <trkpt lat="46.78065" lon="4.6922">
        <ele>325</ele>
        <time>2017-02-19T10:59:08Z</time>
      </trkpt>
      <trkpt lat="46.78064" lon="4.69213">
        <ele>325</ele>
        <time>2017-02-19T10:59:09Z</time>
      </trkpt>
      <trkpt lat="46.78063" lon="4.69207">
        <ele>324</ele>
        <time>2017-02-19T10:59:10Z</time>
      </trkpt>
      <trkpt lat="46.78061" lon="4.692">
        <ele>324</ele>
        <time>2017-02-19T10:59:11Z</time>
      </trkpt>
      <trkpt lat="46.78058" lon="4.69189">
        <ele>324</ele>
        <time>2017-02-19T10:59:13Z</time>
      </trkpt>
      <trkpt lat="46.78056" lon="4.69182">
        <ele>324</ele>
        <time>2017-02-19T10:59:14Z</time>
      </trkpt>
      <trkpt lat="46.78053" lon="4.69176">
        <ele>325</ele>
        <time>2017-02-19T10:59:15Z</time>
      </trkpt>
      <trkpt lat="46.7805" lon="4.6917">
        <ele>325</ele>
        <time>2017-02-19T10:59:16Z</time>
      </trkpt>
      <trkpt lat="46.78047" lon="4.69165">
        <ele>325</ele>
        <time>2017-02-19T10:59:17Z</time>
      </trkpt>
      <trkpt lat="46.78044" lon="4.69153">
        <ele>326</ele>
        <time>2017-02-19T10:59:19Z</time>
      </trkpt>
      <trkpt lat="46.78041" lon="4.6914">
        <ele>327</ele>
        <time>2017-02-19T10:59:21Z</time>
      </trkpt>
      <trkpt lat="46.78037" lon="4.69129">
        <ele>328</ele>
        <time>2017-02-19T10:59:23Z</time>
      </trkpt>
      <trkpt lat="46.78035" lon="4.69119">
        <ele>330</ele>
        <time>2017-02-19T10:59:25Z</time>
      </trkpt>
      <trkpt lat="46.78033" lon="4.69109">
        <ele>331</ele>
        <time>2017-02-19T10:59:27Z</time>
      </trkpt>
      <trkpt lat="46.78032" lon="4.69102">
        <ele>332</ele>
        <time>2017-02-19T10:59:29Z</time>
      </trkpt>
      <trkpt lat="46.78029" lon="4.69094">
        <ele>333</ele>
        <time>2017-02-19T10:59:31Z</time>
      </trkpt>
      <trkpt lat="46.78026" lon="4.69087">
        <ele>334</ele>
        <time>2017-02-19T10:59:33Z</time>
      </trkpt>
      <trkpt lat="46.78022" lon="4.6908">
        <ele>335</ele>
        <time>2017-02-19T10:59:35Z</time>
      </trkpt>
      <trkpt lat="46.78019" lon="4.69074">
        <ele>336</ele>
        <time>2017-02-19T10:59:37Z</time>
      </trkpt>
      <trkpt lat="46.78016" lon="4.69067">
        <ele>337</ele>
        <time>2017-02-19T10:59:39Z</time>
      </trkpt>
      <trkpt lat="46.78013" lon="4.69061">
        <ele>337</ele>
        <time>2017-02-19T10:59:41Z</time>
      </trkpt>
      <trkpt lat="46.78011" lon="4.69055">
        <ele>338</ele>
        <time>2017-02-19T10:59:43Z</time>
      </trkpt>
      <trkpt lat="46.78008" lon="4.69048">
        <ele>339</ele>
        <time>2017-02-19T10:59:45Z</time>
      </trkpt>
      <trkpt lat="46.78008" lon="4.69041">
        <ele>340</ele>
        <time>2017-02-19T10:59:47Z</time>
      </trkpt>
      <trkpt lat="46.78012" lon="4.69036">
        <ele>341</ele>
        <time>2017-02-19T10:59:49Z</time>
      </trkpt>
      <trkpt lat="46.78017" lon="4.69034">
        <ele>342</ele>
        <time>2017-02-19T10:59:51Z</time>
      </trkpt>
      <trkpt lat="46.78021" lon="4.6903">
        <ele>342</ele>
        <time>2017-02-19T10:59:53Z</time>
      </trkpt>
      <trkpt lat="46.78026" lon="4.69026">
        <ele>343</ele>
        <time>2017-02-19T10:59:56Z</time>
      </trkpt>
      <trkpt lat="46.7803" lon="4.69025">
        <ele>344</ele>
        <time>2017-02-19T10:59:58Z</time>
      </trkpt>
      <trkpt lat="46.78035" lon="4.69023">
        <ele>345</ele>
        <time>2017-02-19T11:00:00Z</time>
      </trkpt>
      <trkpt lat="46.7804" lon="4.69022">
        <ele>345</ele>
        <time>2017-02-19T11:00:02Z</time>
      </trkpt>
      <trkpt lat="46.78046" lon="4.69022">
        <ele>346</ele>
        <time>2017-02-19T11:00:04Z</time>
      </trkpt>
      <trkpt lat="46.78051" lon="4.69022">
        <ele>347</ele>
        <time>2017-02-19T11:00:06Z</time>
      </trkpt>
      <trkpt lat="46.78056" lon="4.69022">
        <ele>347</ele>
        <time>2017-02-19T11:00:08Z</time>
      </trkpt>
      <trkpt lat="46.78063" lon="4.69022">
        <ele>348</ele>
        <time>2017-02-19T11:00:11Z</time>
      </trkpt>
      <trkpt lat="46.78069" lon="4.69022">
        <ele>348</ele>
        <time>2017-02-19T11:00:13Z</time>
      </trkpt>
      <trkpt lat="46.78073" lon="4.69022">
        <ele>349</ele>
        <time>2017-02-19T11:00:15Z</time>
      </trkpt>
      <trkpt lat="46.7808" lon="4.69023">
        <ele>349</ele>
        <time>2017-02-19T11:00:18Z</time>
      </trkpt>
      <trkpt lat="46.78086" lon="4.69024">
        <ele>349</ele>
        <time>2017-02-19T11:00:21Z</time>
      </trkpt>
      <trkpt lat="46.78091" lon="4.69024">
        <ele>350</ele>
        <time>2017-02-19T11:00:23Z</time>
      </trkpt>
      <trkpt lat="46.78097" lon="4.69024">
        <ele>351</ele>
        <time>2017-02-19T11:00:26Z</time>
      </trkpt>
      <trkpt lat="46.78103" lon="4.69026">
        <ele>352</ele>
        <time>2017-02-19T11:00:29Z</time>
      </trkpt>
      <trkpt lat="46.78109" lon="4.69028">
        <ele>353</ele>
        <time>2017-02-19T11:00:32Z</time>
      </trkpt>
      <trkpt lat="46.78114" lon="4.69028">
        <ele>354</ele>
        <time>2017-02-19T11:00:34Z</time>
      </trkpt>
      <trkpt lat="46.7812" lon="4.69027">
        <ele>356</ele>
        <time>2017-02-19T11:00:37Z</time>
      </trkpt>
      <trkpt lat="46.78127" lon="4.69028">
        <ele>357</ele>
        <time>2017-02-19T11:00:40Z</time>
      </trkpt>
      <trkpt lat="46.78132" lon="4.69027">
        <ele>359</ele>
        <time>2017-02-19T11:00:43Z</time>
      </trkpt>
      <trkpt lat="46.78138" lon="4.69028">
        <ele>361</ele>
        <time>2017-02-19T11:00:46Z</time>
      </trkpt>
      <trkpt lat="46.78143" lon="4.69028">
        <ele>363</ele>
        <time>2017-02-19T11:00:48Z</time>
      </trkpt>
      <trkpt lat="46.78149" lon="4.69029">
        <ele>365</ele>
        <time>2017-02-19T11:00:50Z</time>
      </trkpt>
      <trkpt lat="46.78156" lon="4.69027">
        <ele>367</ele>
        <time>2017-02-19T11:00:52Z</time>
      </trkpt>
      <trkpt lat="46.78162" lon="4.69027">
        <ele>369</ele>
        <time>2017-02-19T11:00:54Z</time>
      </trkpt>
      <trkpt lat="46.78168" lon="4.69024">
        <ele>371</ele>
        <time>2017-02-19T11:00:56Z</time>
      </trkpt>
      <trkpt lat="46.78173" lon="4.6902">
        <ele>372</ele>
        <time>2017-02-19T11:00:58Z</time>
      </trkpt>
      <trkpt lat="46.78178" lon="4.69016">
        <ele>374</ele>
        <time>2017-02-19T11:01:00Z</time>
      </trkpt>
      <trkpt lat="46.78184" lon="4.69013">
        <ele>376</ele>
        <time>2017-02-19T11:01:02Z</time>
      </trkpt>
      <trkpt lat="46.7819" lon="4.6901">
        <ele>377</ele>
        <time>2017-02-19T11:01:04Z</time>
      </trkpt>
      <trkpt lat="46.78195" lon="4.69006">
        <ele>377</ele>
        <time>2017-02-19T11:01:06Z</time>
      </trkpt>
      <trkpt lat="46.782" lon="4.69003">
        <ele>378</ele>
        <time>2017-02-19T11:01:08Z</time>
      </trkpt>
      <trkpt lat="46.78206" lon="4.68999">
        <ele>377</ele>
        <time>2017-02-19T11:01:10Z</time>
      </trkpt>
      <trkpt lat="46.78212" lon="4.68996">
        <ele>377</ele>
        <time>2017-02-19T11:01:12Z</time>
      </trkpt>
      <trkpt lat="46.78217" lon="4.68992">
        <ele>376</ele>
        <time>2017-02-19T11:01:14Z</time>
      </trkpt>
      <trkpt lat="46.78221" lon="4.68987">
        <ele>375</ele>
        <time>2017-02-19T11:01:16Z</time>
      </trkpt>
      <trkpt lat="46.78226" lon="4.6898">
        <ele>373</ele>
        <time>2017-02-19T11:01:18Z</time>
      </trkpt>
      <trkpt lat="46.78229" lon="4.68971">
        <ele>373</ele>
        <time>2017-02-19T11:01:20Z</time>
      </trkpt>
      <trkpt lat="46.78232" lon="4.6896">
        <ele>372</ele>
        <time>2017-02-19T11:01:22Z</time>
      </trkpt>
      <trkpt lat="46.78233" lon="4.68949">
        <ele>372</ele>
        <time>2017-02-19T11:01:24Z</time>
      </trkpt>
      <trkpt lat="46.78233" lon="4.6894">
        <ele>372</ele>
        <time>2017-02-19T11:01:26Z</time>
      </trkpt>
      <trkpt lat="46.78233" lon="4.6893">
        <ele>372</ele>
        <time>2017-02-19T11:01:28Z</time>
      </trkpt>
      <trkpt lat="46.78233" lon="4.68921">
        <ele>372</ele>
        <time>2017-02-19T11:01:30Z</time>
      </trkpt>
      <trkpt lat="46.78233" lon="4.68913">
        <ele>372</ele>
        <time>2017-02-19T11:01:32Z</time>
      </trkpt>
      <trkpt lat="46.78233" lon="4.68905">
        <ele>372</ele>
        <time>2017-02-19T11:01:34Z</time>
      </trkpt>
      <trkpt lat="46.78234" lon="4.68897">
        <ele>372</ele>
        <time>2017-02-19T11:01:36Z</time>
      </trkpt>
      <trkpt lat="46.78235" lon="4.68889">
        <ele>372</ele>
        <time>2017-02-19T11:01:38Z</time>
      </trkpt>
      <trkpt lat="46.78235" lon="4.6888">
        <ele>371</ele>
        <time>2017-02-19T11:01:40Z</time>
      </trkpt>
      <trkpt lat="46.78236" lon="4.68873">
        <ele>371</ele>
        <time>2017-02-19T11:01:42Z</time>
      </trkpt>
      <trkpt lat="46.78238" lon="4.68866">
        <ele>370</ele>
        <time>2017-02-19T11:01:44Z</time>
      </trkpt>
      <trkpt lat="46.78238" lon="4.68858">
        <ele>369</ele>
        <time>2017-02-19T11:01:46Z</time>
      </trkpt>
      <trkpt lat="46.78239" lon="4.6885">
        <ele>369</ele>
        <time>2017-02-19T11:01:48Z</time>
      </trkpt>
      <trkpt lat="46.78239" lon="4.68841">
        <ele>368</ele>
        <time>2017-02-19T11:01:51Z</time>
      </trkpt>
      <trkpt lat="46.78239" lon="4.68834">
        <ele>367</ele>
        <time>2017-02-19T11:01:53Z</time>
      </trkpt>
      <trkpt lat="46.78239" lon="4.68827">
        <ele>367</ele>
        <time>2017-02-19T11:01:55Z</time>
      </trkpt>
      <trkpt lat="46.78239" lon="4.68819">
        <ele>367</ele>
        <time>2017-02-19T11:01:57Z</time>
      </trkpt>
      <trkpt lat="46.78239" lon="4.68811">
        <ele>367</ele>
        <time>2017-02-19T11:01:59Z</time>
      </trkpt>
      <trkpt lat="46.78238" lon="4.68803">
        <ele>367</ele>
        <time>2017-02-19T11:02:01Z</time>
      </trkpt>
      <trkpt lat="46.78238" lon="4.68797">
        <ele>367</ele>
        <time>2017-02-19T11:02:03Z</time>
      </trkpt>
      <trkpt lat="46.78236" lon="4.6879">
        <ele>367</ele>
        <time>2017-02-19T11:02:05Z</time>
      </trkpt>
      <trkpt lat="46.78234" lon="4.68782">
        <ele>367</ele>
        <time>2017-02-19T11:02:07Z</time>
      </trkpt>
      <trkpt lat="46.78232" lon="4.68773">
        <ele>368</ele>
        <time>2017-02-19T11:02:09Z</time>
      </trkpt>
      <trkpt lat="46.7823" lon="4.68764">
        <ele>368</ele>
        <time>2017-02-19T11:02:11Z</time>
      </trkpt>
      <trkpt lat="46.78229" lon="4.68755">
        <ele>369</ele>
        <time>2017-02-19T11:02:13Z</time>
      </trkpt>
      <trkpt lat="46.78227" lon="4.68745">
        <ele>370</ele>
        <time>2017-02-19T11:02:15Z</time>
      </trkpt>
      <trkpt lat="46.78226" lon="4.68736">
        <ele>371</ele>
        <time>2017-02-19T11:02:17Z</time>
      </trkpt>
      <trkpt lat="46.78225" lon="4.68727">
        <ele>372</ele>
        <time>2017-02-19T11:02:19Z</time>
      </trkpt>
      <trkpt lat="46.78223" lon="4.68718">
        <ele>373</ele>
        <time>2017-02-19T11:02:21Z</time>
      </trkpt>
      <trkpt lat="46.78222" lon="4.68709">
        <ele>373</ele>
        <time>2017-02-19T11:02:23Z</time>
      </trkpt>
      <trkpt lat="46.78221" lon="4.68701">
        <ele>373</ele>
        <time>2017-02-19T11:02:25Z</time>
      </trkpt>
      <trkpt lat="46.7822" lon="4.68692">
        <ele>374</ele>
        <time>2017-02-19T11:02:27Z</time>
      </trkpt>
      <trkpt lat="46.78219" lon="4.68684">
        <ele>374</ele>
        <time>2017-02-19T11:02:29Z</time>
      </trkpt>
      <trkpt lat="46.78217" lon="4.68677">
        <ele>374</ele>
        <time>2017-02-19T11:02:31Z</time>
      </trkpt>
      <trkpt lat="46.78216" lon="4.68669">
        <ele>374</ele>
        <time>2017-02-19T11:02:33Z</time>
      </trkpt>
      <trkpt lat="46.78215" lon="4.68661">
        <ele>375</ele>
        <time>2017-02-19T11:02:35Z</time>
      </trkpt>
      <trkpt lat="46.78214" lon="4.68653">
        <ele>375</ele>
        <time>2017-02-19T11:02:37Z</time>
      </trkpt>
      <trkpt lat="46.78212" lon="4.68643">
        <ele>375</ele>
        <time>2017-02-19T11:02:39Z</time>
      </trkpt>
      <trkpt lat="46.78211" lon="4.68634">
        <ele>376</ele>
        <time>2017-02-19T11:02:41Z</time>
      </trkpt>
      <trkpt lat="46.78209" lon="4.68626">
        <ele>376</ele>
        <time>2017-02-19T11:02:43Z</time>
      </trkpt>
      <trkpt lat="46.78207" lon="4.68618">
        <ele>376</ele>
        <time>2017-02-19T11:02:45Z</time>
      </trkpt>
      <trkpt lat="46.78205" lon="4.6861">
        <ele>376</ele>
        <time>2017-02-19T11:02:47Z</time>
      </trkpt>
      <trkpt lat="46.78203" lon="4.68601">
        <ele>376</ele>
        <time>2017-02-19T11:02:49Z</time>
      </trkpt>
      <trkpt lat="46.78202" lon="4.68592">
        <ele>376</ele>
        <time>2017-02-19T11:02:51Z</time>
      </trkpt>
      <trkpt lat="46.782" lon="4.68584">
        <ele>375</ele>
        <time>2017-02-19T11:02:53Z</time>
      </trkpt>
      <trkpt lat="46.78198" lon="4.68575">
        <ele>375</ele>
        <time>2017-02-19T11:02:55Z</time>
      </trkpt>
      <trkpt lat="46.78195" lon="4.68566">
        <ele>375</ele>
        <time>2017-02-19T11:02:57Z</time>
      </trkpt>
      <trkpt lat="46.78192" lon="4.68558">
        <ele>374</ele>
        <time>2017-02-19T11:02:59Z</time>
      </trkpt>
      <trkpt lat="46.78189" lon="4.68549">
        <ele>374</ele>
        <time>2017-02-19T11:03:01Z</time>
      </trkpt>
      <trkpt lat="46.78186" lon="4.68541">
        <ele>373</ele>
        <time>2017-02-19T11:03:03Z</time>
      </trkpt>
      <trkpt lat="46.78183" lon="4.68534">
        <ele>372</ele>
        <time>2017-02-19T11:03:05Z</time>
      </trkpt>
      <trkpt lat="46.78179" lon="4.68527">
        <ele>371</ele>
        <time>2017-02-19T11:03:07Z</time>
      </trkpt>
      <trkpt lat="46.78174" lon="4.68518">
        <ele>371</ele>
        <time>2017-02-19T11:03:09Z</time>
      </trkpt>
      <trkpt lat="46.78169" lon="4.68507">
        <ele>371</ele>
        <time>2017-02-19T11:03:11Z</time>
      </trkpt>
      <trkpt lat="46.78167" lon="4.685">
        <ele>372</ele>
        <time>2017-02-19T11:03:12Z</time>
      </trkpt>
      <trkpt lat="46.78164" lon="4.68494">
        <ele>374</ele>
        <time>2017-02-19T11:03:13Z</time>
      </trkpt>
      <trkpt lat="46.78159" lon="4.68484">
        <ele>376</ele>
        <time>2017-02-19T11:03:15Z</time>
      </trkpt>
      <trkpt lat="46.78153" lon="4.68477">
        <ele>377</ele>
        <time>2017-02-19T11:03:17Z</time>
      </trkpt>
      <trkpt lat="46.7815" lon="4.68471">
        <ele>378</ele>
        <time>2017-02-19T11:03:19Z</time>
      </trkpt>
      <trkpt lat="46.78145" lon="4.68465">
        <ele>379</ele>
        <time>2017-02-19T11:03:21Z</time>
      </trkpt>
      <trkpt lat="46.7814" lon="4.68458">
        <ele>378</ele>
        <time>2017-02-19T11:03:23Z</time>
      </trkpt>
      <trkpt lat="46.78135" lon="4.68452">
        <ele>377</ele>
        <time>2017-02-19T11:03:25Z</time>
      </trkpt>
      <trkpt lat="46.7813" lon="4.68446">
        <ele>376</ele>
        <time>2017-02-19T11:03:27Z</time>
      </trkpt>
      <trkpt lat="46.78127" lon="4.68439">
        <ele>375</ele>
        <time>2017-02-19T11:03:29Z</time>
      </trkpt>
      <trkpt lat="46.78123" lon="4.68433">
        <ele>374</ele>
        <time>2017-02-19T11:03:31Z</time>
      </trkpt>
      <trkpt lat="46.78119" lon="4.68425">
        <ele>372</ele>
        <time>2017-02-19T11:03:33Z</time>
      </trkpt>
      <trkpt lat="46.78114" lon="4.68417">
        <ele>370</ele>
        <time>2017-02-19T11:03:35Z</time>
      </trkpt>
      <trkpt lat="46.78109" lon="4.68409">
        <ele>368</ele>
        <time>2017-02-19T11:03:37Z</time>
      </trkpt>
      <trkpt lat="46.78104" lon="4.68402">
        <ele>366</ele>
        <time>2017-02-19T11:03:39Z</time>
      </trkpt>
      <trkpt lat="46.78101" lon="4.68396">
        <ele>364</ele>
        <time>2017-02-19T11:03:41Z</time>
      </trkpt>
      <trkpt lat="46.78097" lon="4.68388">
        <ele>361</ele>
        <time>2017-02-19T11:03:43Z</time>
      </trkpt>
      <trkpt lat="46.78093" lon="4.68379">
        <ele>358</ele>
        <time>2017-02-19T11:03:45Z</time>
      </trkpt>
      <trkpt lat="46.78089" lon="4.68371">
        <ele>356</ele>
        <time>2017-02-19T11:03:47Z</time>
      </trkpt>
      <trkpt lat="46.78084" lon="4.68363">
        <ele>353</ele>
        <time>2017-02-19T11:03:49Z</time>
      </trkpt>
      <trkpt lat="46.7808" lon="4.68354">
        <ele>350</ele>
        <time>2017-02-19T11:03:51Z</time>
      </trkpt>
      <trkpt lat="46.78079" lon="4.68344">
        <ele>348</ele>
        <time>2017-02-19T11:03:53Z</time>
      </trkpt>
      <trkpt lat="46.78076" lon="4.68334">
        <ele>345</ele>
        <time>2017-02-19T11:03:55Z</time>
      </trkpt>
      <trkpt lat="46.78072" lon="4.68322">
        <ele>343</ele>
        <time>2017-02-19T11:03:57Z</time>
      </trkpt>
      <trkpt lat="46.7807" lon="4.68316">
        <ele>341</ele>
        <time>2017-02-19T11:03:58Z</time>
      </trkpt>
      <trkpt lat="46.78067" lon="4.68305">
        <ele>339</ele>
        <time>2017-02-19T11:04:00Z</time>
      </trkpt>
      <trkpt lat="46.78065" lon="4.68299">
        <ele>338</ele>
        <time>2017-02-19T11:04:01Z</time>
      </trkpt>
      <trkpt lat="46.78063" lon="4.68292">
        <ele>336</ele>
        <time>2017-02-19T11:04:02Z</time>
      </trkpt>
      <trkpt lat="46.78061" lon="4.68284">
        <ele>336</ele>
        <time>2017-02-19T11:04:03Z</time>
      </trkpt>
      <trkpt lat="46.78058" lon="4.68274">
        <ele>335</ele>
        <time>2017-02-19T11:04:04Z</time>
      </trkpt>
      <trkpt lat="46.78055" lon="4.68265">
        <ele>336</ele>
        <time>2017-02-19T11:04:05Z</time>
      </trkpt>
      <trkpt lat="46.78052" lon="4.68255">
        <ele>336</ele>
        <time>2017-02-19T11:04:06Z</time>
      </trkpt>
      <trkpt lat="46.78049" lon="4.68245">
        <ele>337</ele>
        <time>2017-02-19T11:04:07Z</time>
      </trkpt>
      <trkpt lat="46.78046" lon="4.68234">
        <ele>339</ele>
        <time>2017-02-19T11:04:08Z</time>
      </trkpt>
      <trkpt lat="46.78043" lon="4.68217">
        <ele>340</ele>
        <time>2017-02-19T11:04:10Z</time>
      </trkpt>
      <trkpt lat="46.78041" lon="4.68209">
        <ele>342</ele>
        <time>2017-02-19T11:04:11Z</time>
      </trkpt>
      <trkpt lat="46.78038" lon="4.68201">
        <ele>343</ele>
        <time>2017-02-19T11:04:12Z</time>
      </trkpt>
      <trkpt lat="46.78036" lon="4.68193">
        <ele>345</ele>
        <time>2017-02-19T11:04:13Z</time>
      </trkpt>
      <trkpt lat="46.78034" lon="4.68185">
        <ele>347</ele>
        <time>2017-02-19T11:04:14Z</time>
      </trkpt>
      <trkpt lat="46.78033" lon="4.68176">
        <ele>348</ele>
        <time>2017-02-19T11:04:15Z</time>
      </trkpt>
      <trkpt lat="46.78031" lon="4.68168">
        <ele>348</ele>
        <time>2017-02-19T11:04:16Z</time>
      </trkpt>
      <trkpt lat="46.7803" lon="4.68159">
        <ele>348</ele>
        <time>2017-02-19T11:04:17Z</time>
      </trkpt>
      <trkpt lat="46.78029" lon="4.68151">
        <ele>347</ele>
        <time>2017-02-19T11:04:18Z</time>
      </trkpt>
      <trkpt lat="46.78027" lon="4.68143">
        <ele>347</ele>
        <time>2017-02-19T11:04:19Z</time>
      </trkpt>
      <trkpt lat="46.78025" lon="4.68136">
        <ele>346</ele>
        <time>2017-02-19T11:04:20Z</time>
      </trkpt>
      <trkpt lat="46.78024" lon="4.68129">
        <ele>346</ele>
        <time>2017-02-19T11:04:21Z</time>
      </trkpt>
      <trkpt lat="46.78022" lon="4.68122">
        <ele>346</ele>
        <time>2017-02-19T11:04:22Z</time>
      </trkpt>
      <trkpt lat="46.78021" lon="4.68114">
        <ele>346</ele>
        <time>2017-02-19T11:04:23Z</time>
      </trkpt>
      <trkpt lat="46.78019" lon="4.68106">
        <ele>346</ele>
        <time>2017-02-19T11:04:24Z</time>
      </trkpt>
      <trkpt lat="46.78017" lon="4.68097">
        <ele>346</ele>
        <time>2017-02-19T11:04:25Z</time>
      </trkpt>
      <trkpt lat="46.78016" lon="4.68088">
        <ele>346</ele>
        <time>2017-02-19T11:04:26Z</time>
      </trkpt>
      <trkpt lat="46.78014" lon="4.6808">
        <ele>346</ele>
        <time>2017-02-19T11:04:27Z</time>
      </trkpt>
      <trkpt lat="46.78012" lon="4.68071">
        <ele>346</ele>
        <time>2017-02-19T11:04:28Z</time>
      </trkpt>
      <trkpt lat="46.7801" lon="4.68062">
        <ele>346</ele>
        <time>2017-02-19T11:04:29Z</time>
      </trkpt>
      <trkpt lat="46.78007" lon="4.68053">
        <ele>347</ele>
        <time>2017-02-19T11:04:30Z</time>
      </trkpt>
      <trkpt lat="46.78004" lon="4.68046">
        <ele>348</ele>
        <time>2017-02-19T11:04:31Z</time>
      </trkpt>
      <trkpt lat="46.78" lon="4.68038">
        <ele>349</ele>
        <time>2017-02-19T11:04:32Z</time>
      </trkpt>
      <trkpt lat="46.77997" lon="4.6803">
        <ele>350</ele>
        <time>2017-02-19T11:04:33Z</time>
      </trkpt>
      <trkpt lat="46.77993" lon="4.68022">
        <ele>351</ele>
        <time>2017-02-19T11:04:34Z</time>
      </trkpt>
      <trkpt lat="46.7799" lon="4.68015">
        <ele>353</ele>
        <time>2017-02-19T11:04:35Z</time>
      </trkpt>
      <trkpt lat="46.77987" lon="4.68007">
        <ele>355</ele>
        <time>2017-02-19T11:04:36Z</time>
      </trkpt>
      <trkpt lat="46.77983" lon="4.68001">
        <ele>357</ele>
        <time>2017-02-19T11:04:37Z</time>
      </trkpt>
      <trkpt lat="46.77979" lon="4.67995">
        <ele>359</ele>
        <time>2017-02-19T11:04:38Z</time>
      </trkpt>
      <trkpt lat="46.77976" lon="4.6799">
        <ele>361</ele>
        <time>2017-02-19T11:04:39Z</time>
      </trkpt>
      <trkpt lat="46.77973" lon="4.67985">
        <ele>363</ele>
        <time>2017-02-19T11:04:40Z</time>
      </trkpt>
      <trkpt lat="46.7797" lon="4.6798">
        <ele>364</ele>
        <time>2017-02-19T11:04:41Z</time>
      </trkpt>
      <trkpt lat="46.77967" lon="4.67975">
        <ele>366</ele>
        <time>2017-02-19T11:04:42Z</time>
      </trkpt>
      <trkpt lat="46.77961" lon="4.67966">
        <ele>367</ele>
        <time>2017-02-19T11:04:44Z</time>
      </trkpt>
      <trkpt lat="46.77957" lon="4.67962">
        <ele>368</ele>
        <time>2017-02-19T11:04:45Z</time>
      </trkpt>
      <trkpt lat="46.77953" lon="4.67957">
        <ele>369</ele>
        <time>2017-02-19T11:04:46Z</time>
      </trkpt>
      <trkpt lat="46.77949" lon="4.67953">
        <ele>371</ele>
        <time>2017-02-19T11:04:47Z</time>
      </trkpt>
      <trkpt lat="46.77946" lon="4.67949">
        <ele>371</ele>
        <time>2017-02-19T11:04:48Z</time>
      </trkpt>
      <trkpt lat="46.77942" lon="4.67944">
        <ele>372</ele>
        <time>2017-02-19T11:04:49Z</time>
      </trkpt>
      <trkpt lat="46.77939" lon="4.6794">
        <ele>373</ele>
        <time>2017-02-19T11:04:50Z</time>
      </trkpt>
      <trkpt lat="46.77935" lon="4.67935">
        <ele>374</ele>
        <time>2017-02-19T11:04:51Z</time>
      </trkpt>
      <trkpt lat="46.77931" lon="4.6793">
        <ele>374</ele>
        <time>2017-02-19T11:04:52Z</time>
      </trkpt>
      <trkpt lat="46.77926" lon="4.67924">
        <ele>375</ele>
        <time>2017-02-19T11:04:53Z</time>
      </trkpt>
      <trkpt lat="46.77922" lon="4.67919">
        <ele>375</ele>
        <time>2017-02-19T11:04:54Z</time>
      </trkpt>
      <trkpt lat="46.77918" lon="4.67914">
        <ele>376</ele>
        <time>2017-02-19T11:04:55Z</time>
      </trkpt>
      <trkpt lat="46.77914" lon="4.67909">
        <ele>376</ele>
        <time>2017-02-19T11:04:56Z</time>
      </trkpt>
      <trkpt lat="46.7791" lon="4.67903">
        <ele>377</ele>
        <time>2017-02-19T11:04:57Z</time>
      </trkpt>
      <trkpt lat="46.77905" lon="4.67898">
        <ele>377</ele>
        <time>2017-02-19T11:04:58Z</time>
      </trkpt>
      <trkpt lat="46.77901" lon="4.67891">
        <ele>378</ele>
        <time>2017-02-19T11:04:59Z</time>
      </trkpt>
      <trkpt lat="46.77896" lon="4.67886">
        <ele>378</ele>
        <time>2017-02-19T11:05:00Z</time>
      </trkpt>
      <trkpt lat="46.77892" lon="4.6788">
        <ele>379</ele>
        <time>2017-02-19T11:05:01Z</time>
      </trkpt>
      <trkpt lat="46.77888" lon="4.67874">
        <ele>379</ele>
        <time>2017-02-19T11:05:02Z</time>
      </trkpt>
      <trkpt lat="46.77883" lon="4.67867">
        <ele>380</ele>
        <time>2017-02-19T11:05:03Z</time>
      </trkpt>
      <trkpt lat="46.77879" lon="4.6786">
        <ele>380</ele>
        <time>2017-02-19T11:05:04Z</time>
      </trkpt>
      <trkpt lat="46.77874" lon="4.67855">
        <ele>380</ele>
        <time>2017-02-19T11:05:05Z</time>
      </trkpt>
      <trkpt lat="46.77869" lon="4.67848">
        <ele>380</ele>
        <time>2017-02-19T11:05:06Z</time>
      </trkpt>
      <trkpt lat="46.77865" lon="4.67841">
        <ele>380</ele>
        <time>2017-02-19T11:05:07Z</time>
      </trkpt>
      <trkpt lat="46.77861" lon="4.67834">
        <ele>381</ele>
        <time>2017-02-19T11:05:08Z</time>
      </trkpt>
      <trkpt lat="46.77857" lon="4.67827">
        <ele>381</ele>
        <time>2017-02-19T11:05:09Z</time>
      </trkpt>
      <trkpt lat="46.77853" lon="4.67819">
        <ele>381</ele>
        <time>2017-02-19T11:05:10Z</time>
      </trkpt>
      <trkpt lat="46.77849" lon="4.67812">
        <ele>381</ele>
        <time>2017-02-19T11:05:11Z</time>
      </trkpt>
      <trkpt lat="46.77846" lon="4.67805">
        <ele>381</ele>
        <time>2017-02-19T11:05:12Z</time>
      </trkpt>
      <trkpt lat="46.77842" lon="4.67797">
        <ele>381</ele>
        <time>2017-02-19T11:05:13Z</time>
      </trkpt>
      <trkpt lat="46.77839" lon="4.6779">
        <ele>381</ele>
        <time>2017-02-19T11:05:14Z</time>
      </trkpt>
      <trkpt lat="46.77835" lon="4.67782">
        <ele>381</ele>
        <time>2017-02-19T11:05:15Z</time>
      </trkpt>
      <trkpt lat="46.77831" lon="4.67774">
        <ele>381</ele>
        <time>2017-02-19T11:05:16Z</time>
      </trkpt>
      <trkpt lat="46.77827" lon="4.67767">
        <ele>381</ele>
        <time>2017-02-19T11:05:17Z</time>
      </trkpt>
      <trkpt lat="46.77823" lon="4.67761">
        <ele>382</ele>
        <time>2017-02-19T11:05:18Z</time>
      </trkpt>
      <trkpt lat="46.77818" lon="4.67754">
        <ele>382</ele>
        <time>2017-02-19T11:05:19Z</time>
      </trkpt>
      <trkpt lat="46.77813" lon="4.67748">
        <ele>382</ele>
        <time>2017-02-19T11:05:20Z</time>
      </trkpt>
      <trkpt lat="46.77808" lon="4.67743">
        <ele>382</ele>
        <time>2017-02-19T11:05:21Z</time>
      </trkpt>
      <trkpt lat="46.77803" lon="4.67737">
        <ele>383</ele>
        <time>2017-02-19T11:05:22Z</time>
      </trkpt>
      <trkpt lat="46.77798" lon="4.67732">
        <ele>383</ele>
        <time>2017-02-19T11:05:23Z</time>
      </trkpt>
      <trkpt lat="46.77794" lon="4.67727">
        <ele>383</ele>
        <time>2017-02-19T11:05:24Z</time>
      </trkpt>
      <trkpt lat="46.77788" lon="4.67722">
        <ele>383</ele>
        <time>2017-02-19T11:05:25Z</time>
      </trkpt>
      <trkpt lat="46.77783" lon="4.67717">
        <ele>384</ele>
        <time>2017-02-19T11:05:26Z</time>
      </trkpt>
      <trkpt lat="46.77778" lon="4.67712">
        <ele>384</ele>
        <time>2017-02-19T11:05:27Z</time>
      </trkpt>
      <trkpt lat="46.77773" lon="4.67706">
        <ele>384</ele>
        <time>2017-02-19T11:05:28Z</time>
      </trkpt>
      <trkpt lat="46.77767" lon="4.67701">
        <ele>384</ele>
        <time>2017-02-19T11:05:29Z</time>
      </trkpt>
      <trkpt lat="46.77762" lon="4.67696">
        <ele>385</ele>
        <time>2017-02-19T11:05:30Z</time>
      </trkpt>
      <trkpt lat="46.77756" lon="4.6769">
        <ele>385</ele>
        <time>2017-02-19T11:05:31Z</time>
      </trkpt>
      <trkpt lat="46.7775" lon="4.67685">
        <ele>385</ele>
        <time>2017-02-19T11:05:32Z</time>
      </trkpt>
      <trkpt lat="46.77745" lon="4.6768">
        <ele>385</ele>
        <time>2017-02-19T11:05:33Z</time>
      </trkpt>
      <trkpt lat="46.77739" lon="4.67676">
        <ele>385</ele>
        <time>2017-02-19T11:05:34Z</time>
      </trkpt>
      <trkpt lat="46.77733" lon="4.67671">
        <ele>385</ele>
        <time>2017-02-19T11:05:35Z</time>
      </trkpt>
      <trkpt lat="46.77728" lon="4.67666">
        <ele>385</ele>
        <time>2017-02-19T11:05:36Z</time>
      </trkpt>
      <trkpt lat="46.77722" lon="4.67661">
        <ele>385</ele>
        <time>2017-02-19T11:05:37Z</time>
      </trkpt>
      <trkpt lat="46.77717" lon="4.67656">
        <ele>386</ele>
        <time>2017-02-19T11:05:38Z</time>
      </trkpt>
      <trkpt lat="46.77712" lon="4.67651">
        <ele>386</ele>
        <time>2017-02-19T11:05:39Z</time>
      </trkpt>
      <trkpt lat="46.77707" lon="4.67645">
        <ele>386</ele>
        <time>2017-02-19T11:05:40Z</time>
      </trkpt>
      <trkpt lat="46.77702" lon="4.67639">
        <ele>387</ele>
        <time>2017-02-19T11:05:41Z</time>
      </trkpt>
      <trkpt lat="46.77698" lon="4.67634">
        <ele>387</ele>
        <time>2017-02-19T11:05:42Z</time>
      </trkpt>
      <trkpt lat="46.77693" lon="4.67628">
        <ele>387</ele>
        <time>2017-02-19T11:05:43Z</time>
      </trkpt>
      <trkpt lat="46.77689" lon="4.67621">
        <ele>388</ele>
        <time>2017-02-19T11:05:44Z</time>
      </trkpt>
      <trkpt lat="46.77685" lon="4.67614">
        <ele>388</ele>
        <time>2017-02-19T11:05:45Z</time>
      </trkpt>
      <trkpt lat="46.7768" lon="4.67608">
        <ele>388</ele>
        <time>2017-02-19T11:05:46Z</time>
      </trkpt>
      <trkpt lat="46.77676" lon="4.67602">
        <ele>388</ele>
        <time>2017-02-19T11:05:47Z</time>
      </trkpt>
      <trkpt lat="46.77671" lon="4.67595">
        <ele>389</ele>
        <time>2017-02-19T11:05:48Z</time>
      </trkpt>
      <trkpt lat="46.77668" lon="4.67588">
        <ele>389</ele>
        <time>2017-02-19T11:05:49Z</time>
      </trkpt>
      <trkpt lat="46.77663" lon="4.67582">
        <ele>389</ele>
        <time>2017-02-19T11:05:50Z</time>
      </trkpt>
      <trkpt lat="46.77659" lon="4.67575">
        <ele>389</ele>
        <time>2017-02-19T11:05:51Z</time>
      </trkpt>
      <trkpt lat="46.77655" lon="4.67569">
        <ele>389</ele>
        <time>2017-02-19T11:05:52Z</time>
      </trkpt>
      <trkpt lat="46.77651" lon="4.67562">
        <ele>389</ele>
        <time>2017-02-19T11:05:53Z</time>
      </trkpt>
      <trkpt lat="46.77647" lon="4.67556">
        <ele>390</ele>
        <time>2017-02-19T11:05:54Z</time>
      </trkpt>
      <trkpt lat="46.77643" lon="4.6755">
        <ele>390</ele>
        <time>2017-02-19T11:05:55Z</time>
      </trkpt>
      <trkpt lat="46.77639" lon="4.67545">
        <ele>391</ele>
        <time>2017-02-19T11:05:56Z</time>
      </trkpt>
      <trkpt lat="46.77635" lon="4.6754">
        <ele>392</ele>
        <time>2017-02-19T11:05:57Z</time>
      </trkpt>
      <trkpt lat="46.77631" lon="4.67535">
        <ele>392</ele>
        <time>2017-02-19T11:05:58Z</time>
      </trkpt>
      <trkpt lat="46.77628" lon="4.6753">
        <ele>393</ele>
        <time>2017-02-19T11:05:59Z</time>
      </trkpt>
      <trkpt lat="46.77625" lon="4.67525">
        <ele>393</ele>
        <time>2017-02-19T11:06:00Z</time>
      </trkpt>
      <trkpt lat="46.77617" lon="4.67517">
        <ele>393</ele>
        <time>2017-02-19T11:06:02Z</time>
      </trkpt>
      <trkpt lat="46.77614" lon="4.67513">
        <ele>394</ele>
        <time>2017-02-19T11:06:03Z</time>
      </trkpt>
      <trkpt lat="46.7761" lon="4.67509">
        <ele>395</ele>
        <time>2017-02-19T11:06:04Z</time>
      </trkpt>
      <trkpt lat="46.77606" lon="4.67505">
        <ele>396</ele>
        <time>2017-02-19T11:06:05Z</time>
      </trkpt>
      <trkpt lat="46.77601" lon="4.67501">
        <ele>396</ele>
        <time>2017-02-19T11:06:06Z</time>
      </trkpt>
      <trkpt lat="46.77597" lon="4.67497">
        <ele>396</ele>
        <time>2017-02-19T11:06:07Z</time>
      </trkpt>
      <trkpt lat="46.77592" lon="4.67493">
        <ele>396</ele>
        <time>2017-02-19T11:06:08Z</time>
      </trkpt>
      <trkpt lat="46.77586" lon="4.67489">
        <ele>396</ele>
        <time>2017-02-19T11:06:09Z</time>
      </trkpt>
      <trkpt lat="46.77581" lon="4.67484">
        <ele>396</ele>
        <time>2017-02-19T11:06:10Z</time>
      </trkpt>
      <trkpt lat="46.77575" lon="4.67479">
        <ele>395</ele>
        <time>2017-02-19T11:06:11Z</time>
      </trkpt>
      <trkpt lat="46.7757" lon="4.67475">
        <ele>395</ele>
        <time>2017-02-19T11:06:12Z</time>
      </trkpt>
      <trkpt lat="46.77566" lon="4.67471">
        <ele>395</ele>
        <time>2017-02-19T11:06:13Z</time>
      </trkpt>
      <trkpt lat="46.77561" lon="4.67466">
        <ele>395</ele>
        <time>2017-02-19T11:06:14Z</time>
      </trkpt>
      <trkpt lat="46.77556" lon="4.67461">
        <ele>395</ele>
        <time>2017-02-19T11:06:15Z</time>
      </trkpt>
      <trkpt lat="46.7755" lon="4.67457">
        <ele>395</ele>
        <time>2017-02-19T11:06:16Z</time>
      </trkpt>
      <trkpt lat="46.77544" lon="4.67453">
        <ele>396</ele>
        <time>2017-02-19T11:06:17Z</time>
      </trkpt>
      <trkpt lat="46.77538" lon="4.67449">
        <ele>396</ele>
        <time>2017-02-19T11:06:18Z</time>
      </trkpt>
      <trkpt lat="46.77533" lon="4.67445">
        <ele>397</ele>
        <time>2017-02-19T11:06:19Z</time>
      </trkpt>
      <trkpt lat="46.77527" lon="4.67442">
        <ele>397</ele>
        <time>2017-02-19T11:06:20Z</time>
      </trkpt>
      <trkpt lat="46.77521" lon="4.67438">
        <ele>397</ele>
        <time>2017-02-19T11:06:21Z</time>
      </trkpt>
      <trkpt lat="46.77515" lon="4.67435">
        <ele>398</ele>
        <time>2017-02-19T11:06:22Z</time>
      </trkpt>
      <trkpt lat="46.77509" lon="4.6743">
        <ele>399</ele>
        <time>2017-02-19T11:06:23Z</time>
      </trkpt>
      <trkpt lat="46.77504" lon="4.67426">
        <ele>400</ele>
        <time>2017-02-19T11:06:24Z</time>
      </trkpt>
      <trkpt lat="46.77499" lon="4.67422">
        <ele>401</ele>
        <time>2017-02-19T11:06:25Z</time>
      </trkpt>
      <trkpt lat="46.77494" lon="4.67419">
        <ele>403</ele>
        <time>2017-02-19T11:06:26Z</time>
      </trkpt>
      <trkpt lat="46.7749" lon="4.67417">
        <ele>404</ele>
        <time>2017-02-19T11:06:27Z</time>
      </trkpt>
      <trkpt lat="46.77483" lon="4.67409">
        <ele>404</ele>
        <time>2017-02-19T11:06:29Z</time>
      </trkpt>
      <trkpt lat="46.77479" lon="4.67405">
        <ele>404</ele>
        <time>2017-02-19T11:06:30Z</time>
      </trkpt>
      <trkpt lat="46.77475" lon="4.67401">
        <ele>403</ele>
        <time>2017-02-19T11:06:31Z</time>
      </trkpt>
      <trkpt lat="46.7747" lon="4.67396">
        <ele>402</ele>
        <time>2017-02-19T11:06:32Z</time>
      </trkpt>
      <trkpt lat="46.77466" lon="4.67391">
        <ele>401</ele>
        <time>2017-02-19T11:06:33Z</time>
      </trkpt>
      <trkpt lat="46.77461" lon="4.67386">
        <ele>401</ele>
        <time>2017-02-19T11:06:34Z</time>
      </trkpt>
      <trkpt lat="46.77457" lon="4.67381">
        <ele>401</ele>
        <time>2017-02-19T11:06:35Z</time>
      </trkpt>
      <trkpt lat="46.77452" lon="4.67377">
        <ele>401</ele>
        <time>2017-02-19T11:06:36Z</time>
      </trkpt>
      <trkpt lat="46.77448" lon="4.67373">
        <ele>401</ele>
        <time>2017-02-19T11:06:37Z</time>
      </trkpt>
      <trkpt lat="46.77443" lon="4.67369">
        <ele>401</ele>
        <time>2017-02-19T11:06:38Z</time>
      </trkpt>
      <trkpt lat="46.77438" lon="4.67366">
        <ele>402</ele>
        <time>2017-02-19T11:06:39Z</time>
      </trkpt>
      <trkpt lat="46.77432" lon="4.67362">
        <ele>402</ele>
        <time>2017-02-19T11:06:40Z</time>
      </trkpt>
      <trkpt lat="46.77427" lon="4.67359">
        <ele>402</ele>
        <time>2017-02-19T11:06:41Z</time>
      </trkpt>
      <trkpt lat="46.77421" lon="4.67357">
        <ele>402</ele>
        <time>2017-02-19T11:06:42Z</time>
      </trkpt>
      <trkpt lat="46.77416" lon="4.67354">
        <ele>401</ele>
        <time>2017-02-19T11:06:43Z</time>
      </trkpt>
      <trkpt lat="46.77409" lon="4.6735">
        <ele>401</ele>
        <time>2017-02-19T11:06:44Z</time>
      </trkpt>
      <trkpt lat="46.77404" lon="4.67346">
        <ele>401</ele>
        <time>2017-02-19T11:06:45Z</time>
      </trkpt>
      <trkpt lat="46.77398" lon="4.67343">
        <ele>401</ele>
        <time>2017-02-19T11:06:46Z</time>
      </trkpt>
      <trkpt lat="46.77392" lon="4.67339">
        <ele>401</ele>
        <time>2017-02-19T11:06:47Z</time>
      </trkpt>
      <trkpt lat="46.77387" lon="4.67334">
        <ele>401</ele>
        <time>2017-02-19T11:06:48Z</time>
      </trkpt>
      <trkpt lat="46.77381" lon="4.67332">
        <ele>401</ele>
        <time>2017-02-19T11:06:49Z</time>
      </trkpt>
      <trkpt lat="46.77375" lon="4.67329">
        <ele>401</ele>
        <time>2017-02-19T11:06:50Z</time>
      </trkpt>
      <trkpt lat="46.77369" lon="4.67326">
        <ele>401</ele>
        <time>2017-02-19T11:06:51Z</time>
      </trkpt>
      <trkpt lat="46.77363" lon="4.67323">
        <ele>401</ele>
        <time>2017-02-19T11:06:52Z</time>
      </trkpt>
      <trkpt lat="46.77358" lon="4.67321">
        <ele>400</ele>
        <time>2017-02-19T11:06:53Z</time>
      </trkpt>
      <trkpt lat="46.77352" lon="4.67319">
        <ele>400</ele>
        <time>2017-02-19T11:06:54Z</time>
      </trkpt>
      <trkpt lat="46.77346" lon="4.67316">
        <ele>400</ele>
        <time>2017-02-19T11:06:55Z</time>
      </trkpt>
      <trkpt lat="46.7734" lon="4.67314">
        <ele>400</ele>
        <time>2017-02-19T11:06:56Z</time>
      </trkpt>
      <trkpt lat="46.77334" lon="4.67311">
        <ele>400</ele>
        <time>2017-02-19T11:06:57Z</time>
      </trkpt>
      <trkpt lat="46.77328" lon="4.67309">
        <ele>400</ele>
        <time>2017-02-19T11:06:58Z</time>
      </trkpt>
      <trkpt lat="46.77322" lon="4.67307">
        <ele>400</ele>
        <time>2017-02-19T11:06:59Z</time>
      </trkpt>
      <trkpt lat="46.77316" lon="4.67306">
        <ele>401</ele>
        <time>2017-02-19T11:07:00Z</time>
      </trkpt>
      <trkpt lat="46.7731" lon="4.67304">
        <ele>401</ele>
        <time>2017-02-19T11:07:01Z</time>
      </trkpt>
      <trkpt lat="46.77305" lon="4.67304">
        <ele>401</ele>
        <time>2017-02-19T11:07:02Z</time>
      </trkpt>
      <trkpt lat="46.77299" lon="4.67303">
        <ele>401</ele>
        <time>2017-02-19T11:07:03Z</time>
      </trkpt>
      <trkpt lat="46.77293" lon="4.67304">
        <ele>401</ele>
        <time>2017-02-19T11:07:04Z</time>
      </trkpt>
      <trkpt lat="46.77287" lon="4.67304">
        <ele>401</ele>
        <time>2017-02-19T11:07:05Z</time>
      </trkpt>
      <trkpt lat="46.77282" lon="4.67305">
        <ele>402</ele>
        <time>2017-02-19T11:07:06Z</time>
      </trkpt>
      <trkpt lat="46.77276" lon="4.67306">
        <ele>402</ele>
        <time>2017-02-19T11:07:07Z</time>
      </trkpt>
      <trkpt lat="46.77271" lon="4.67306">
        <ele>402</ele>
        <time>2017-02-19T11:07:08Z</time>
      </trkpt>
      <trkpt lat="46.77266" lon="4.67307">
        <ele>402</ele>
        <time>2017-02-19T11:07:09Z</time>
      </trkpt>
      <trkpt lat="46.77261" lon="4.67308">
        <ele>402</ele>
        <time>2017-02-19T11:07:10Z</time>
      </trkpt>
      <trkpt lat="46.77255" lon="4.67309">
        <ele>402</ele>
        <time>2017-02-19T11:07:11Z</time>
      </trkpt>
      <trkpt lat="46.7725" lon="4.67311">
        <ele>402</ele>
        <time>2017-02-19T11:07:12Z</time>
      </trkpt>
      <trkpt lat="46.77245" lon="4.67313">
        <ele>402</ele>
        <time>2017-02-19T11:07:13Z</time>
      </trkpt>
      <trkpt lat="46.77239" lon="4.67314">
        <ele>402</ele>
        <time>2017-02-19T11:07:14Z</time>
      </trkpt>
      <trkpt lat="46.77234" lon="4.67315">
        <ele>402</ele>
        <time>2017-02-19T11:07:15Z</time>
      </trkpt>
      <trkpt lat="46.77228" lon="4.67315">
        <ele>403</ele>
        <time>2017-02-19T11:07:16Z</time>
      </trkpt>
      <trkpt lat="46.77222" lon="4.67315">
        <ele>402</ele>
        <time>2017-02-19T11:07:17Z</time>
      </trkpt>
      <trkpt lat="46.77216" lon="4.67316">
        <ele>402</ele>
        <time>2017-02-19T11:07:18Z</time>
      </trkpt>
      <trkpt lat="46.7721" lon="4.67317">
        <ele>402</ele>
        <time>2017-02-19T11:07:19Z</time>
      </trkpt>
      <trkpt lat="46.77204" lon="4.67317">
        <ele>401</ele>
        <time>2017-02-19T11:07:20Z</time>
      </trkpt>
      <trkpt lat="46.77198" lon="4.67317">
        <ele>400</ele>
        <time>2017-02-19T11:07:21Z</time>
      </trkpt>
      <trkpt lat="46.77192" lon="4.67317">
        <ele>400</ele>
        <time>2017-02-19T11:07:22Z</time>
      </trkpt>
      <trkpt lat="46.77185" lon="4.67318">
        <ele>400</ele>
        <time>2017-02-19T11:07:23Z</time>
      </trkpt>
      <trkpt lat="46.77179" lon="4.67318">
        <ele>400</ele>
        <time>2017-02-19T11:07:24Z</time>
      </trkpt>
      <trkpt lat="46.77173" lon="4.6732">
        <ele>400</ele>
        <time>2017-02-19T11:07:25Z</time>
      </trkpt>
      <trkpt lat="46.77167" lon="4.67321">
        <ele>400</ele>
        <time>2017-02-19T11:07:26Z</time>
      </trkpt>
      <trkpt lat="46.77161" lon="4.67323">
        <ele>400</ele>
        <time>2017-02-19T11:07:27Z</time>
      </trkpt>
      <trkpt lat="46.77155" lon="4.67325">
        <ele>401</ele>
        <time>2017-02-19T11:07:28Z</time>
      </trkpt>
      <trkpt lat="46.77149" lon="4.67327">
        <ele>401</ele>
        <time>2017-02-19T11:07:29Z</time>
      </trkpt>
      <trkpt lat="46.77143" lon="4.67328">
        <ele>400</ele>
        <time>2017-02-19T11:07:30Z</time>
      </trkpt>
      <trkpt lat="46.77137" lon="4.6733">
        <ele>400</ele>
        <time>2017-02-19T11:07:31Z</time>
      </trkpt>
      <trkpt lat="46.77131" lon="4.67331">
        <ele>399</ele>
        <time>2017-02-19T11:07:32Z</time>
      </trkpt>
      <trkpt lat="46.77124" lon="4.67332">
        <ele>399</ele>
        <time>2017-02-19T11:07:33Z</time>
      </trkpt>
      <trkpt lat="46.77118" lon="4.67333">
        <ele>398</ele>
        <time>2017-02-19T11:07:34Z</time>
      </trkpt>
      <trkpt lat="46.77112" lon="4.67334">
        <ele>398</ele>
        <time>2017-02-19T11:07:35Z</time>
      </trkpt>
      <trkpt lat="46.77107" lon="4.67335">
        <ele>398</ele>
        <time>2017-02-19T11:07:36Z</time>
      </trkpt>
      <trkpt lat="46.771" lon="4.67335">
        <ele>398</ele>
        <time>2017-02-19T11:07:37Z</time>
      </trkpt>
      <trkpt lat="46.77094" lon="4.67336">
        <ele>397</ele>
        <time>2017-02-19T11:07:38Z</time>
      </trkpt>
      <trkpt lat="46.77089" lon="4.67337">
        <ele>397</ele>
        <time>2017-02-19T11:07:39Z</time>
      </trkpt>
      <trkpt lat="46.77082" lon="4.67338">
        <ele>396</ele>
        <time>2017-02-19T11:07:40Z</time>
      </trkpt>
      <trkpt lat="46.77076" lon="4.67339">
        <ele>396</ele>
        <time>2017-02-19T11:07:41Z</time>
      </trkpt>
      <trkpt lat="46.7707" lon="4.6734">
        <ele>395</ele>
        <time>2017-02-19T11:07:42Z</time>
      </trkpt>
      <trkpt lat="46.77063" lon="4.6734">
        <ele>395</ele>
        <time>2017-02-19T11:07:43Z</time>
      </trkpt>
      <trkpt lat="46.77057" lon="4.67341">
        <ele>395</ele>
        <time>2017-02-19T11:07:44Z</time>
      </trkpt>
      <trkpt lat="46.77051" lon="4.67341">
        <ele>395</ele>
        <time>2017-02-19T11:07:45Z</time>
      </trkpt>
      <trkpt lat="46.77045" lon="4.67342">
        <ele>395</ele>
        <time>2017-02-19T11:07:46Z</time>
      </trkpt>
      <trkpt lat="46.77039" lon="4.67343">
        <ele>395</ele>
        <time>2017-02-19T11:07:47Z</time>
      </trkpt>
      <trkpt lat="46.77026" lon="4.67345">
        <ele>394</ele>
        <time>2017-02-19T11:07:49Z</time>
      </trkpt>
      <trkpt lat="46.7702" lon="4.67346">
        <ele>394</ele>
        <time>2017-02-19T11:07:50Z</time>
      </trkpt>
      <trkpt lat="46.77014" lon="4.67346">
        <ele>394</ele>
        <time>2017-02-19T11:07:51Z</time>
      </trkpt>
      <trkpt lat="46.77007" lon="4.67347">
        <ele>394</ele>
        <time>2017-02-19T11:07:52Z</time>
      </trkpt>
      <trkpt lat="46.77001" lon="4.67348">
        <ele>394</ele>
        <time>2017-02-19T11:07:53Z</time>
      </trkpt>
      <trkpt lat="46.76995" lon="4.67349">
        <ele>394</ele>
        <time>2017-02-19T11:07:54Z</time>
      </trkpt>
      <trkpt lat="46.76988" lon="4.67351">
        <ele>394</ele>
        <time>2017-02-19T11:07:55Z</time>
      </trkpt>
      <trkpt lat="46.76981" lon="4.67352">
        <ele>394</ele>
        <time>2017-02-19T11:07:56Z</time>
      </trkpt>
      <trkpt lat="46.76975" lon="4.67354">
        <ele>394</ele>
        <time>2017-02-19T11:07:57Z</time>
      </trkpt>
      <trkpt lat="46.76967" lon="4.67356">
        <ele>394</ele>
        <time>2017-02-19T11:07:58Z</time>
      </trkpt>
      <trkpt lat="46.7696" lon="4.67359">
        <ele>393</ele>
        <time>2017-02-19T11:07:59Z</time>
      </trkpt>
      <trkpt lat="46.76953" lon="4.67361">
        <ele>393</ele>
        <time>2017-02-19T11:08:00Z</time>
      </trkpt>
      <trkpt lat="46.76946" lon="4.67362">
        <ele>393</ele>
        <time>2017-02-19T11:08:01Z</time>
      </trkpt>
      <trkpt lat="46.76939" lon="4.67364">
        <ele>393</ele>
        <time>2017-02-19T11:08:02Z</time>
      </trkpt>
      <trkpt lat="46.76932" lon="4.67365">
        <ele>393</ele>
        <time>2017-02-19T11:08:03Z</time>
      </trkpt>
      <trkpt lat="46.76925" lon="4.67366">
        <ele>393</ele>
        <time>2017-02-19T11:08:04Z</time>
      </trkpt>
      <trkpt lat="46.76918" lon="4.67366">
        <ele>394</ele>
        <time>2017-02-19T11:08:05Z</time>
      </trkpt>
      <trkpt lat="46.76912" lon="4.67367">
        <ele>394</ele>
        <time>2017-02-19T11:08:06Z</time>
      </trkpt>
      <trkpt lat="46.76905" lon="4.67367">
        <ele>394</ele>
        <time>2017-02-19T11:08:07Z</time>
      </trkpt>
      <trkpt lat="46.76898" lon="4.67367">
        <ele>394</ele>
        <time>2017-02-19T11:08:08Z</time>
      </trkpt>
      <trkpt lat="46.76891" lon="4.67366">
        <ele>394</ele>
        <time>2017-02-19T11:08:09Z</time>
      </trkpt>
      <trkpt lat="46.76884" lon="4.67366">
        <ele>394</ele>
        <time>2017-02-19T11:08:10Z</time>
      </trkpt>
      <trkpt lat="46.76877" lon="4.67365">
        <ele>394</ele>
        <time>2017-02-19T11:08:11Z</time>
      </trkpt>
      <trkpt lat="46.76871" lon="4.67365">
        <ele>394</ele>
        <time>2017-02-19T11:08:12Z</time>
      </trkpt>
      <trkpt lat="46.76864" lon="4.67366">
        <ele>394</ele>
        <time>2017-02-19T11:08:13Z</time>
      </trkpt>
      <trkpt lat="46.76857" lon="4.67366">
        <ele>394</ele>
        <time>2017-02-19T11:08:14Z</time>
      </trkpt>
      <trkpt lat="46.7685" lon="4.67367">
        <ele>394</ele>
        <time>2017-02-19T11:08:15Z</time>
      </trkpt>
      <trkpt lat="46.76843" lon="4.67367">
        <ele>394</ele>
        <time>2017-02-19T11:08:16Z</time>
      </trkpt>
      <trkpt lat="46.76836" lon="4.67368">
        <ele>394</ele>
        <time>2017-02-19T11:08:17Z</time>
      </trkpt>
      <trkpt lat="46.76829" lon="4.67369">
        <ele>394</ele>
        <time>2017-02-19T11:08:18Z</time>
      </trkpt>
      <trkpt lat="46.76822" lon="4.67371">
        <ele>393</ele>
        <time>2017-02-19T11:08:19Z</time>
      </trkpt>
      <trkpt lat="46.76815" lon="4.67373">
        <ele>393</ele>
        <time>2017-02-19T11:08:20Z</time>
      </trkpt>
      <trkpt lat="46.76808" lon="4.67374">
        <ele>392</ele>
        <time>2017-02-19T11:08:21Z</time>
      </trkpt>
      <trkpt lat="46.76801" lon="4.67376">
        <ele>391</ele>
        <time>2017-02-19T11:08:22Z</time>
      </trkpt>
      <trkpt lat="46.76793" lon="4.67377">
        <ele>391</ele>
        <time>2017-02-19T11:08:23Z</time>
      </trkpt>
      <trkpt lat="46.76786" lon="4.67378">
        <ele>390</ele>
        <time>2017-02-19T11:08:24Z</time>
      </trkpt>
      <trkpt lat="46.76779" lon="4.67378">
        <ele>390</ele>
        <time>2017-02-19T11:08:25Z</time>
      </trkpt>
      <trkpt lat="46.76772" lon="4.67378">
        <ele>389</ele>
        <time>2017-02-19T11:08:26Z</time>
      </trkpt>
      <trkpt lat="46.76764" lon="4.67377">
        <ele>389</ele>
        <time>2017-02-19T11:08:27Z</time>
      </trkpt>
      <trkpt lat="46.76757" lon="4.67377">
        <ele>389</ele>
        <time>2017-02-19T11:08:28Z</time>
      </trkpt>
      <trkpt lat="46.76749" lon="4.67375">
        <ele>388</ele>
        <time>2017-02-19T11:08:29Z</time>
      </trkpt>
      <trkpt lat="46.76741" lon="4.67375">
        <ele>388</ele>
        <time>2017-02-19T11:08:30Z</time>
      </trkpt>
      <trkpt lat="46.76734" lon="4.67376">
        <ele>387</ele>
        <time>2017-02-19T11:08:31Z</time>
      </trkpt>
      <trkpt lat="46.76726" lon="4.6738">
        <ele>387</ele>
        <time>2017-02-19T11:08:32Z</time>
      </trkpt>
      <trkpt lat="46.76719" lon="4.67386">
        <ele>386</ele>
        <time>2017-02-19T11:08:33Z</time>
      </trkpt>
      <trkpt lat="46.76713" lon="4.67393">
        <ele>386</ele>
        <time>2017-02-19T11:08:34Z</time>
      </trkpt>
      <trkpt lat="46.76708" lon="4.67403">
        <ele>385</ele>
        <time>2017-02-19T11:08:35Z</time>
      </trkpt>
      <trkpt lat="46.76703" lon="4.67415">
        <ele>385</ele>
        <time>2017-02-19T11:08:36Z</time>
      </trkpt>
      <trkpt lat="46.76701" lon="4.67427">
        <ele>384</ele>
        <time>2017-02-19T11:08:37Z</time>
      </trkpt>
      <trkpt lat="46.76698" lon="4.67439">
        <ele>383</ele>
        <time>2017-02-19T11:08:38Z</time>
      </trkpt>
      <trkpt lat="46.76695" lon="4.67451">
        <ele>383</ele>
        <time>2017-02-19T11:08:39Z</time>
      </trkpt>
      <trkpt lat="46.76692" lon="4.67464">
        <ele>382</ele>
        <time>2017-02-19T11:08:40Z</time>
      </trkpt>
      <trkpt lat="46.76688" lon="4.67477">
        <ele>381</ele>
        <time>2017-02-19T11:08:41Z</time>
      </trkpt>
      <trkpt lat="46.76685" lon="4.67491">
        <ele>381</ele>
        <time>2017-02-19T11:08:42Z</time>
      </trkpt>
      <trkpt lat="46.76681" lon="4.67505">
        <ele>380</ele>
        <time>2017-02-19T11:08:43Z</time>
      </trkpt>
      <trkpt lat="46.76677" lon="4.6752">
        <ele>379</ele>
        <time>2017-02-19T11:08:44Z</time>
      </trkpt>
      <trkpt lat="46.76673" lon="4.67536">
        <ele>378</ele>
        <time>2017-02-19T11:08:45Z</time>
      </trkpt>
      <trkpt lat="46.76669" lon="4.67551">
        <ele>378</ele>
        <time>2017-02-19T11:08:46Z</time>
      </trkpt>
      <trkpt lat="46.76665" lon="4.67566">
        <ele>377</ele>
        <time>2017-02-19T11:08:47Z</time>
      </trkpt>
      <trkpt lat="46.76661" lon="4.67582">
        <ele>376</ele>
        <time>2017-02-19T11:08:48Z</time>
      </trkpt>
      <trkpt lat="46.76656" lon="4.67597">
        <ele>375</ele>
        <time>2017-02-19T11:08:49Z</time>
      </trkpt>
      <trkpt lat="46.76652" lon="4.67613">
        <ele>375</ele>
        <time>2017-02-19T11:08:50Z</time>
      </trkpt>
      <trkpt lat="46.76648" lon="4.67629">
        <ele>374</ele>
        <time>2017-02-19T11:08:51Z</time>
      </trkpt>
      <trkpt lat="46.76644" lon="4.67644">
        <ele>373</ele>
        <time>2017-02-19T11:08:52Z</time>
      </trkpt>
      <trkpt lat="46.7664" lon="4.6766">
        <ele>373</ele>
        <time>2017-02-19T11:08:53Z</time>
      </trkpt>
      <trkpt lat="46.76636" lon="4.67675">
        <ele>372</ele>
        <time>2017-02-19T11:08:54Z</time>
      </trkpt>
      <trkpt lat="46.76631" lon="4.6769">
        <ele>371</ele>
        <time>2017-02-19T11:08:55Z</time>
      </trkpt>
      <trkpt lat="46.76625" lon="4.67704">
        <ele>371</ele>
        <time>2017-02-19T11:08:56Z</time>
      </trkpt>
      <trkpt lat="46.76618" lon="4.67714">
        <ele>370</ele>
        <time>2017-02-19T11:08:57Z</time>
      </trkpt>
      <trkpt lat="46.7661" lon="4.67723">
        <ele>370</ele>
        <time>2017-02-19T11:08:58Z</time>
      </trkpt>
      <trkpt lat="46.766" lon="4.67731">
        <ele>369</ele>
        <time>2017-02-19T11:08:59Z</time>
      </trkpt>
      <trkpt lat="46.7659" lon="4.67737">
        <ele>369</ele>
        <time>2017-02-19T11:09:00Z</time>
      </trkpt>
      <trkpt lat="46.7658" lon="4.6774">
        <ele>369</ele>
        <time>2017-02-19T11:09:01Z</time>
      </trkpt>
      <trkpt lat="46.76569" lon="4.67741">
        <ele>368</ele>
        <time>2017-02-19T11:09:02Z</time>
      </trkpt>
      <trkpt lat="46.76558" lon="4.67742">
        <ele>368</ele>
        <time>2017-02-19T11:09:03Z</time>
      </trkpt>
      <trkpt lat="46.76548" lon="4.67742">
        <ele>367</ele>
        <time>2017-02-19T11:09:04Z</time>
      </trkpt>
      <trkpt lat="46.76538" lon="4.67744">
        <ele>367</ele>
        <time>2017-02-19T11:09:05Z</time>
      </trkpt>
      <trkpt lat="46.76528" lon="4.67745">
        <ele>366</ele>
        <time>2017-02-19T11:09:06Z</time>
      </trkpt>
      <trkpt lat="46.76518" lon="4.67744">
        <ele>366</ele>
        <time>2017-02-19T11:09:07Z</time>
      </trkpt>
      <trkpt lat="46.7651" lon="4.6774">
        <ele>365</ele>
        <time>2017-02-19T11:09:08Z</time>
      </trkpt>
      <trkpt lat="46.76502" lon="4.67733">
        <ele>364</ele>
        <time>2017-02-19T11:09:09Z</time>
      </trkpt>
      <trkpt lat="46.76496" lon="4.67724">
        <ele>364</ele>
        <time>2017-02-19T11:09:10Z</time>
      </trkpt>
      <trkpt lat="46.76492" lon="4.67715">
        <ele>364</ele>
        <time>2017-02-19T11:09:11Z</time>
      </trkpt>
      <trkpt lat="46.76487" lon="4.67706">
        <ele>363</ele>
        <time>2017-02-19T11:09:12Z</time>
      </trkpt>
      <trkpt lat="46.76482" lon="4.677">
        <ele>363</ele>
        <time>2017-02-19T11:09:13Z</time>
      </trkpt>
      <trkpt lat="46.76476" lon="4.67695">
        <ele>363</ele>
        <time>2017-02-19T11:09:14Z</time>
      </trkpt>
      <trkpt lat="46.7647" lon="4.6769">
        <ele>363</ele>
        <time>2017-02-19T11:09:15Z</time>
      </trkpt>
      <trkpt lat="46.76464" lon="4.67685">
        <ele>363</ele>
        <time>2017-02-19T11:09:16Z</time>
      </trkpt>
      <trkpt lat="46.76458" lon="4.6768">
        <ele>363</ele>
        <time>2017-02-19T11:09:17Z</time>
      </trkpt>
      <trkpt lat="46.76452" lon="4.67675">
        <ele>363</ele>
        <time>2017-02-19T11:09:18Z</time>
      </trkpt>
      <trkpt lat="46.76447" lon="4.6767">
        <ele>363</ele>
        <time>2017-02-19T11:09:19Z</time>
      </trkpt>
      <trkpt lat="46.76441" lon="4.67665">
        <ele>363</ele>
        <time>2017-02-19T11:09:20Z</time>
      </trkpt>
      <trkpt lat="46.76436" lon="4.6766">
        <ele>363</ele>
        <time>2017-02-19T11:09:21Z</time>
      </trkpt>
      <trkpt lat="46.7643" lon="4.67656">
        <ele>362</ele>
        <time>2017-02-19T11:09:22Z</time>
      </trkpt>
      <trkpt lat="46.76424" lon="4.67652">
        <ele>361</ele>
        <time>2017-02-19T11:09:23Z</time>
      </trkpt>
      <trkpt lat="46.76419" lon="4.67647">
        <ele>361</ele>
        <time>2017-02-19T11:09:24Z</time>
      </trkpt>
      <trkpt lat="46.76414" lon="4.67643">
        <ele>360</ele>
        <time>2017-02-19T11:09:25Z</time>
      </trkpt>
      <trkpt lat="46.76409" lon="4.67639">
        <ele>359</ele>
        <time>2017-02-19T11:09:26Z</time>
      </trkpt>
      <trkpt lat="46.76404" lon="4.67635">
        <ele>359</ele>
        <time>2017-02-19T11:09:27Z</time>
      </trkpt>
      <trkpt lat="46.76399" lon="4.67631">
        <ele>358</ele>
        <time>2017-02-19T11:09:28Z</time>
      </trkpt>
      <trkpt lat="46.76394" lon="4.67627">
        <ele>358</ele>
        <time>2017-02-19T11:09:29Z</time>
      </trkpt>
      <trkpt lat="46.76389" lon="4.67623">
        <ele>358</ele>
        <time>2017-02-19T11:09:30Z</time>
      </trkpt>
      <trkpt lat="46.76384" lon="4.67619">
        <ele>358</ele>
        <time>2017-02-19T11:09:31Z</time>
      </trkpt>
      <trkpt lat="46.7638" lon="4.67616">
        <ele>358</ele>
        <time>2017-02-19T11:09:32Z</time>
      </trkpt>
      <trkpt lat="46.76374" lon="4.67613">
        <ele>359</ele>
        <time>2017-02-19T11:09:33Z</time>
      </trkpt>
      <trkpt lat="46.7637" lon="4.67611">
        <ele>360</ele>
        <time>2017-02-19T11:09:34Z</time>
      </trkpt>
      <trkpt lat="46.76365" lon="4.67609">
        <ele>360</ele>
        <time>2017-02-19T11:09:35Z</time>
      </trkpt>
      <trkpt lat="46.76359" lon="4.67605">
        <ele>360</ele>
        <time>2017-02-19T11:09:36Z</time>
      </trkpt>
      <trkpt lat="46.76354" lon="4.67603">
        <ele>361</ele>
        <time>2017-02-19T11:09:37Z</time>
      </trkpt>
      <trkpt lat="46.76349" lon="4.676">
        <ele>360</ele>
        <time>2017-02-19T11:09:38Z</time>
      </trkpt>
      <trkpt lat="46.76344" lon="4.67597">
        <ele>360</ele>
        <time>2017-02-19T11:09:39Z</time>
      </trkpt>
      <trkpt lat="46.76338" lon="4.67595">
        <ele>360</ele>
        <time>2017-02-19T11:09:40Z</time>
      </trkpt>
      <trkpt lat="46.76333" lon="4.67594">
        <ele>359</ele>
        <time>2017-02-19T11:09:41Z</time>
      </trkpt>
      <trkpt lat="46.76328" lon="4.67592">
        <ele>359</ele>
        <time>2017-02-19T11:09:42Z</time>
      </trkpt>
      <trkpt lat="46.7632" lon="4.6759">
        <ele>358</ele>
        <time>2017-02-19T11:09:44Z</time>
      </trkpt>
      <trkpt lat="46.76313" lon="4.67588">
        <ele>358</ele>
        <time>2017-02-19T11:09:46Z</time>
      </trkpt>
      <trkpt lat="46.76304" lon="4.67585">
        <ele>359</ele>
        <time>2017-02-19T11:09:48Z</time>
      </trkpt>
      <trkpt lat="46.76297" lon="4.67583">
        <ele>359</ele>
        <time>2017-02-19T11:09:50Z</time>
      </trkpt>
      <trkpt lat="46.76288" lon="4.67578">
        <ele>360</ele>
        <time>2017-02-19T11:09:52Z</time>
      </trkpt>
      <trkpt lat="46.76284" lon="4.67576">
        <ele>361</ele>
        <time>2017-02-19T11:09:53Z</time>
      </trkpt>
      <trkpt lat="46.7628" lon="4.67572">
        <ele>361</ele>
        <time>2017-02-19T11:09:54Z</time>
      </trkpt>
      <trkpt lat="46.76276" lon="4.67568">
        <ele>362</ele>
        <time>2017-02-19T11:09:55Z</time>
      </trkpt>
      <trkpt lat="46.76271" lon="4.67564">
        <ele>362</ele>
        <time>2017-02-19T11:09:56Z</time>
      </trkpt>
      <trkpt lat="46.76267" lon="4.6756">
        <ele>362</ele>
        <time>2017-02-19T11:09:57Z</time>
      </trkpt>
      <trkpt lat="46.7626" lon="4.67553">
        <ele>363</ele>
        <time>2017-02-19T11:09:59Z</time>
      </trkpt>
      <trkpt lat="46.76253" lon="4.67547">
        <ele>363</ele>
        <time>2017-02-19T11:10:01Z</time>
      </trkpt>
      <trkpt lat="46.76249" lon="4.67543">
        <ele>364</ele>
        <time>2017-02-19T11:10:02Z</time>
      </trkpt>
      <trkpt lat="46.76246" lon="4.67539">
        <ele>365</ele>
        <time>2017-02-19T11:10:03Z</time>
      </trkpt>
      <trkpt lat="46.76238" lon="4.67532">
        <ele>365</ele>
        <time>2017-02-19T11:10:05Z</time>
      </trkpt>
      <trkpt lat="46.76234" lon="4.67527">
        <ele>366</ele>
        <time>2017-02-19T11:10:06Z</time>
      </trkpt>
      <trkpt lat="46.76231" lon="4.67523">
        <ele>366</ele>
        <time>2017-02-19T11:10:07Z</time>
      </trkpt>
      <trkpt lat="46.76223" lon="4.67516">
        <ele>366</ele>
        <time>2017-02-19T11:10:09Z</time>
      </trkpt>
      <trkpt lat="46.76216" lon="4.67508">
        <ele>367</ele>
        <time>2017-02-19T11:10:11Z</time>
      </trkpt>
      <trkpt lat="46.7621" lon="4.67501">
        <ele>367</ele>
        <time>2017-02-19T11:10:13Z</time>
      </trkpt>
      <trkpt lat="46.76203" lon="4.67494">
        <ele>368</ele>
        <time>2017-02-19T11:10:15Z</time>
      </trkpt>
      <trkpt lat="46.76197" lon="4.67487">
        <ele>368</ele>
        <time>2017-02-19T11:10:17Z</time>
      </trkpt>
      <trkpt lat="46.76191" lon="4.67481">
        <ele>368</ele>
        <time>2017-02-19T11:10:19Z</time>
      </trkpt>
      <trkpt lat="46.76185" lon="4.67475">
        <ele>368</ele>
        <time>2017-02-19T11:10:21Z</time>
      </trkpt>
      <trkpt lat="46.7618" lon="4.67471">
        <ele>368</ele>
        <time>2017-02-19T11:10:23Z</time>
      </trkpt>
      <trkpt lat="46.76174" lon="4.67467">
        <ele>368</ele>
        <time>2017-02-19T11:10:25Z</time>
      </trkpt>
      <trkpt lat="46.76166" lon="4.67462">
        <ele>368</ele>
        <time>2017-02-19T11:10:27Z</time>
      </trkpt>
      <trkpt lat="46.76161" lon="4.67458">
        <ele>368</ele>
        <time>2017-02-19T11:10:28Z</time>
      </trkpt>
      <trkpt lat="46.76157" lon="4.67454">
        <ele>368</ele>
        <time>2017-02-19T11:10:29Z</time>
      </trkpt>
      <trkpt lat="46.76152" lon="4.67451">
        <ele>367</ele>
        <time>2017-02-19T11:10:30Z</time>
      </trkpt>
      <trkpt lat="46.76148" lon="4.67448">
        <ele>367</ele>
        <time>2017-02-19T11:10:31Z</time>
      </trkpt>
      <trkpt lat="46.76143" lon="4.67445">
        <ele>367</ele>
        <time>2017-02-19T11:10:32Z</time>
      </trkpt>
      <trkpt lat="46.76139" lon="4.67442">
        <ele>367</ele>
        <time>2017-02-19T11:10:33Z</time>
      </trkpt>
      <trkpt lat="46.76134" lon="4.67438">
        <ele>367</ele>
        <time>2017-02-19T11:10:34Z</time>
      </trkpt>
      <trkpt lat="46.76129" lon="4.67434">
        <ele>367</ele>
        <time>2017-02-19T11:10:35Z</time>
      </trkpt>
      <trkpt lat="46.76124" lon="4.67429">
        <ele>367</ele>
        <time>2017-02-19T11:10:36Z</time>
      </trkpt>
      <trkpt lat="46.76119" lon="4.67424">
        <ele>367</ele>
        <time>2017-02-19T11:10:37Z</time>
      </trkpt>
      <trkpt lat="46.76113" lon="4.6742">
        <ele>367</ele>
        <time>2017-02-19T11:10:38Z</time>
      </trkpt>
      <trkpt lat="46.76109" lon="4.67413">
        <ele>367</ele>
        <time>2017-02-19T11:10:39Z</time>
      </trkpt>
      <trkpt lat="46.76105" lon="4.67406">
        <ele>367</ele>
        <time>2017-02-19T11:10:40Z</time>
      </trkpt>
      <trkpt lat="46.761" lon="4.67399">
        <ele>368</ele>
        <time>2017-02-19T11:10:41Z</time>
      </trkpt>
      <trkpt lat="46.76097" lon="4.67391">
        <ele>369</ele>
        <time>2017-02-19T11:10:42Z</time>
      </trkpt>
      <trkpt lat="46.76093" lon="4.67381">
        <ele>370</ele>
        <time>2017-02-19T11:10:43Z</time>
      </trkpt>
      <trkpt lat="46.7609" lon="4.67373">
        <ele>370</ele>
        <time>2017-02-19T11:10:44Z</time>
      </trkpt>
      <trkpt lat="46.76087" lon="4.67365">
        <ele>371</ele>
        <time>2017-02-19T11:10:45Z</time>
      </trkpt>
      <trkpt lat="46.76085" lon="4.67356">
        <ele>371</ele>
        <time>2017-02-19T11:10:46Z</time>
      </trkpt>
      <trkpt lat="46.76082" lon="4.67348">
        <ele>371</ele>
        <time>2017-02-19T11:10:47Z</time>
      </trkpt>
      <trkpt lat="46.76078" lon="4.67339">
        <ele>370</ele>
        <time>2017-02-19T11:10:48Z</time>
      </trkpt>
      <trkpt lat="46.76075" lon="4.6733">
        <ele>369</ele>
        <time>2017-02-19T11:10:49Z</time>
      </trkpt>
      <trkpt lat="46.76071" lon="4.67322">
        <ele>368</ele>
        <time>2017-02-19T11:10:50Z</time>
      </trkpt>
      <trkpt lat="46.76067" lon="4.67313">
        <ele>367</ele>
        <time>2017-02-19T11:10:51Z</time>
      </trkpt>
      <trkpt lat="46.76064" lon="4.67303">
        <ele>366</ele>
        <time>2017-02-19T11:10:52Z</time>
      </trkpt>
      <trkpt lat="46.7606" lon="4.67295">
        <ele>365</ele>
        <time>2017-02-19T11:10:53Z</time>
      </trkpt>
      <trkpt lat="46.76056" lon="4.67285">
        <ele>365</ele>
        <time>2017-02-19T11:10:54Z</time>
      </trkpt>
      <trkpt lat="46.76051" lon="4.67276">
        <ele>365</ele>
        <time>2017-02-19T11:10:55Z</time>
      </trkpt>
      <trkpt lat="46.76046" lon="4.67268">
        <ele>364</ele>
        <time>2017-02-19T11:10:56Z</time>
      </trkpt>
      <trkpt lat="46.7604" lon="4.6726">
        <ele>364</ele>
        <time>2017-02-19T11:10:57Z</time>
      </trkpt>
      <trkpt lat="46.76034" lon="4.67253">
        <ele>363</ele>
        <time>2017-02-19T11:10:58Z</time>
      </trkpt>
      <trkpt lat="46.76027" lon="4.67246">
        <ele>362</ele>
        <time>2017-02-19T11:10:59Z</time>
      </trkpt>
      <trkpt lat="46.75997" lon="4.67223">
        <ele>359</ele>
        <time>2017-02-19T11:11:03Z</time>
      </trkpt>
      <trkpt lat="46.75989" lon="4.67218">
        <ele>358</ele>
        <time>2017-02-19T11:11:04Z</time>
      </trkpt>
      <trkpt lat="46.75982" lon="4.67212">
        <ele>358</ele>
        <time>2017-02-19T11:11:05Z</time>
      </trkpt>
      <trkpt lat="46.75975" lon="4.67207">
        <ele>359</ele>
        <time>2017-02-19T11:11:06Z</time>
      </trkpt>
      <trkpt lat="46.75968" lon="4.67202">
        <ele>359</ele>
        <time>2017-02-19T11:11:07Z</time>
      </trkpt>
      <trkpt lat="46.75961" lon="4.67197">
        <ele>359</ele>
        <time>2017-02-19T11:11:08Z</time>
      </trkpt>
      <trkpt lat="46.75953" lon="4.67191">
        <ele>359</ele>
        <time>2017-02-19T11:11:09Z</time>
      </trkpt>
      <trkpt lat="46.75946" lon="4.67187">
        <ele>359</ele>
        <time>2017-02-19T11:11:10Z</time>
      </trkpt>
      <trkpt lat="46.75939" lon="4.67183">
        <ele>359</ele>
        <time>2017-02-19T11:11:11Z</time>
      </trkpt>
      <trkpt lat="46.75932" lon="4.67178">
        <ele>359</ele>
        <time>2017-02-19T11:11:12Z</time>
      </trkpt>
      <trkpt lat="46.75924" lon="4.67173">
        <ele>359</ele>
        <time>2017-02-19T11:11:13Z</time>
      </trkpt>
      <trkpt lat="46.75917" lon="4.67168">
        <ele>359</ele>
        <time>2017-02-19T11:11:14Z</time>
      </trkpt>
      <trkpt lat="46.7591" lon="4.67163">
        <ele>359</ele>
        <time>2017-02-19T11:11:15Z</time>
      </trkpt>
      <trkpt lat="46.75903" lon="4.67158">
        <ele>359</ele>
        <time>2017-02-19T11:11:16Z</time>
      </trkpt>
      <trkpt lat="46.75896" lon="4.67153">
        <ele>359</ele>
        <time>2017-02-19T11:11:17Z</time>
      </trkpt>
      <trkpt lat="46.75889" lon="4.67148">
        <ele>359</ele>
        <time>2017-02-19T11:11:18Z</time>
      </trkpt>
      <trkpt lat="46.75882" lon="4.67143">
        <ele>359</ele>
        <time>2017-02-19T11:11:19Z</time>
      </trkpt>
      <trkpt lat="46.75875" lon="4.67138">
        <ele>359</ele>
        <time>2017-02-19T11:11:20Z</time>
      </trkpt>
      <trkpt lat="46.75868" lon="4.67134">
        <ele>359</ele>
        <time>2017-02-19T11:11:21Z</time>
      </trkpt>
      <trkpt lat="46.75861" lon="4.6713">
        <ele>359</ele>
        <time>2017-02-19T11:11:22Z</time>
      </trkpt>
      <trkpt lat="46.75853" lon="4.67127">
        <ele>359</ele>
        <time>2017-02-19T11:11:23Z</time>
      </trkpt>
      <trkpt lat="46.75846" lon="4.67123">
        <ele>359</ele>
        <time>2017-02-19T11:11:24Z</time>
      </trkpt>
      <trkpt lat="46.75839" lon="4.67119">
        <ele>358</ele>
        <time>2017-02-19T11:11:25Z</time>
      </trkpt>
      <trkpt lat="46.75831" lon="4.67115">
        <ele>358</ele>
        <time>2017-02-19T11:11:26Z</time>
      </trkpt>
      <trkpt lat="46.75823" lon="4.67111">
        <ele>357</ele>
        <time>2017-02-19T11:11:27Z</time>
      </trkpt>
      <trkpt lat="46.75816" lon="4.67107">
        <ele>357</ele>
        <time>2017-02-19T11:11:28Z</time>
      </trkpt>
      <trkpt lat="46.75808" lon="4.67103">
        <ele>356</ele>
        <time>2017-02-19T11:11:29Z</time>
      </trkpt>
      <trkpt lat="46.758" lon="4.671">
        <ele>355</ele>
        <time>2017-02-19T11:11:30Z</time>
      </trkpt>
      <trkpt lat="46.75791" lon="4.67095">
        <ele>355</ele>
        <time>2017-02-19T11:11:31Z</time>
      </trkpt>
      <trkpt lat="46.75782" lon="4.67091">
        <ele>354</ele>
        <time>2017-02-19T11:11:32Z</time>
      </trkpt>
      <trkpt lat="46.75773" lon="4.67088">
        <ele>353</ele>
        <time>2017-02-19T11:11:33Z</time>
      </trkpt>
      <trkpt lat="46.75764" lon="4.67083">
        <ele>352</ele>
        <time>2017-02-19T11:11:34Z</time>
      </trkpt>
      <trkpt lat="46.75754" lon="4.67079">
        <ele>351</ele>
        <time>2017-02-19T11:11:35Z</time>
      </trkpt>
      <trkpt lat="46.75745" lon="4.67074">
        <ele>351</ele>
        <time>2017-02-19T11:11:36Z</time>
      </trkpt>
      <trkpt lat="46.75735" lon="4.67068">
        <ele>350</ele>
        <time>2017-02-19T11:11:37Z</time>
      </trkpt>
      <trkpt lat="46.75725" lon="4.67062">
        <ele>350</ele>
        <time>2017-02-19T11:11:38Z</time>
      </trkpt>
      <trkpt lat="46.75715" lon="4.67057">
        <ele>349</ele>
        <time>2017-02-19T11:11:39Z</time>
      </trkpt>
      <trkpt lat="46.75706" lon="4.67052">
        <ele>348</ele>
        <time>2017-02-19T11:11:40Z</time>
      </trkpt>
      <trkpt lat="46.75696" lon="4.67048">
        <ele>348</ele>
        <time>2017-02-19T11:11:41Z</time>
      </trkpt>
      <trkpt lat="46.75687" lon="4.67044">
        <ele>347</ele>
        <time>2017-02-19T11:11:42Z</time>
      </trkpt>
      <trkpt lat="46.75678" lon="4.67042">
        <ele>346</ele>
        <time>2017-02-19T11:11:43Z</time>
      </trkpt>
      <trkpt lat="46.75668" lon="4.6704">
        <ele>345</ele>
        <time>2017-02-19T11:11:44Z</time>
      </trkpt>
      <trkpt lat="46.7566" lon="4.67038">
        <ele>345</ele>
        <time>2017-02-19T11:11:45Z</time>
      </trkpt>
      <trkpt lat="46.7565" lon="4.67036">
        <ele>344</ele>
        <time>2017-02-19T11:11:46Z</time>
      </trkpt>
      <trkpt lat="46.75642" lon="4.67035">
        <ele>343</ele>
        <time>2017-02-19T11:11:47Z</time>
      </trkpt>
      <trkpt lat="46.75633" lon="4.67033">
        <ele>343</ele>
        <time>2017-02-19T11:11:48Z</time>
      </trkpt>
      <trkpt lat="46.75625" lon="4.67031">
        <ele>342</ele>
        <time>2017-02-19T11:11:49Z</time>
      </trkpt>
      <trkpt lat="46.75617" lon="4.6703">
        <ele>342</ele>
        <time>2017-02-19T11:11:50Z</time>
      </trkpt>
      <trkpt lat="46.75608" lon="4.67028">
        <ele>341</ele>
        <time>2017-02-19T11:11:51Z</time>
      </trkpt>
      <trkpt lat="46.756" lon="4.67027">
        <ele>341</ele>
        <time>2017-02-19T11:11:52Z</time>
      </trkpt>
      <trkpt lat="46.75592" lon="4.67025">
        <ele>340</ele>
        <time>2017-02-19T11:11:53Z</time>
      </trkpt>
      <trkpt lat="46.75584" lon="4.67024">
        <ele>340</ele>
        <time>2017-02-19T11:11:54Z</time>
      </trkpt>
      <trkpt lat="46.75575" lon="4.67023">
        <ele>339</ele>
        <time>2017-02-19T11:11:55Z</time>
      </trkpt>
      <trkpt lat="46.75567" lon="4.67024">
        <ele>339</ele>
        <time>2017-02-19T11:11:56Z</time>
      </trkpt>
      <trkpt lat="46.75559" lon="4.67024">
        <ele>339</ele>
        <time>2017-02-19T11:11:57Z</time>
      </trkpt>
      <trkpt lat="46.75551" lon="4.67025">
        <ele>338</ele>
        <time>2017-02-19T11:11:58Z</time>
      </trkpt>
      <trkpt lat="46.75542" lon="4.67028">
        <ele>337</ele>
        <time>2017-02-19T11:11:59Z</time>
      </trkpt>
      <trkpt lat="46.75533" lon="4.67032">
        <ele>336</ele>
        <time>2017-02-19T11:12:00Z</time>
      </trkpt>
      <trkpt lat="46.75525" lon="4.67034">
        <ele>336</ele>
        <time>2017-02-19T11:12:01Z</time>
      </trkpt>
      <trkpt lat="46.75516" lon="4.67037">
        <ele>335</ele>
        <time>2017-02-19T11:12:02Z</time>
      </trkpt>
      <trkpt lat="46.75508" lon="4.6704">
        <ele>334</ele>
        <time>2017-02-19T11:12:03Z</time>
      </trkpt>
      <trkpt lat="46.75499" lon="4.67042">
        <ele>334</ele>
        <time>2017-02-19T11:12:04Z</time>
      </trkpt>
      <trkpt lat="46.75491" lon="4.67044">
        <ele>334</ele>
        <time>2017-02-19T11:12:05Z</time>
      </trkpt>
      <trkpt lat="46.75483" lon="4.67045">
        <ele>333</ele>
        <time>2017-02-19T11:12:06Z</time>
      </trkpt>
      <trkpt lat="46.75475" lon="4.67047">
        <ele>333</ele>
        <time>2017-02-19T11:12:07Z</time>
      </trkpt>
      <trkpt lat="46.75467" lon="4.67049">
        <ele>333</ele>
        <time>2017-02-19T11:12:08Z</time>
      </trkpt>
      <trkpt lat="46.75459" lon="4.67051">
        <ele>333</ele>
        <time>2017-02-19T11:12:09Z</time>
      </trkpt>
      <trkpt lat="46.75452" lon="4.67052">
        <ele>333</ele>
        <time>2017-02-19T11:12:10Z</time>
      </trkpt>
      <trkpt lat="46.75445" lon="4.67053">
        <ele>333</ele>
        <time>2017-02-19T11:12:11Z</time>
      </trkpt>
      <trkpt lat="46.75438" lon="4.67055">
        <ele>333</ele>
        <time>2017-02-19T11:12:12Z</time>
      </trkpt>
      <trkpt lat="46.7543" lon="4.67057">
        <ele>333</ele>
        <time>2017-02-19T11:12:13Z</time>
      </trkpt>
      <trkpt lat="46.75424" lon="4.67058">
        <ele>333</ele>
        <time>2017-02-19T11:12:14Z</time>
      </trkpt>
      <trkpt lat="46.75417" lon="4.6706">
        <ele>333</ele>
        <time>2017-02-19T11:12:15Z</time>
      </trkpt>
      <trkpt lat="46.75411" lon="4.67061">
        <ele>332</ele>
        <time>2017-02-19T11:12:16Z</time>
      </trkpt>
      <trkpt lat="46.75405" lon="4.67062">
        <ele>332</ele>
        <time>2017-02-19T11:12:17Z</time>
      </trkpt>
      <trkpt lat="46.75398" lon="4.67063">
        <ele>332</ele>
        <time>2017-02-19T11:12:18Z</time>
      </trkpt>
      <trkpt lat="46.75392" lon="4.67064">
        <ele>332</ele>
        <time>2017-02-19T11:12:19Z</time>
      </trkpt>
      <trkpt lat="46.75386" lon="4.67064">
        <ele>331</ele>
        <time>2017-02-19T11:12:20Z</time>
      </trkpt>
      <trkpt lat="46.7538" lon="4.67065">
        <ele>331</ele>
        <time>2017-02-19T11:12:21Z</time>
      </trkpt>
      <trkpt lat="46.75374" lon="4.67066">
        <ele>331</ele>
        <time>2017-02-19T11:12:22Z</time>
      </trkpt>
      <trkpt lat="46.75368" lon="4.67067">
        <ele>331</ele>
        <time>2017-02-19T11:12:23Z</time>
      </trkpt>
      <trkpt lat="46.75363" lon="4.67067">
        <ele>330</ele>
        <time>2017-02-19T11:12:24Z</time>
      </trkpt>
      <trkpt lat="46.75357" lon="4.67067">
        <ele>330</ele>
        <time>2017-02-19T11:12:25Z</time>
      </trkpt>
      <trkpt lat="46.75352" lon="4.67068">
        <ele>329</ele>
        <time>2017-02-19T11:12:26Z</time>
      </trkpt>
      <trkpt lat="46.75346" lon="4.67069">
        <ele>329</ele>
        <time>2017-02-19T11:12:27Z</time>
      </trkpt>
      <trkpt lat="46.75341" lon="4.67069">
        <ele>328</ele>
        <time>2017-02-19T11:12:28Z</time>
      </trkpt>
      <trkpt lat="46.75335" lon="4.6707">
        <ele>328</ele>
        <time>2017-02-19T11:12:29Z</time>
      </trkpt>
      <trkpt lat="46.75329" lon="4.67071">
        <ele>328</ele>
        <time>2017-02-19T11:12:30Z</time>
      </trkpt>
      <trkpt lat="46.75323" lon="4.67071">
        <ele>327</ele>
        <time>2017-02-19T11:12:31Z</time>
      </trkpt>
      <trkpt lat="46.75317" lon="4.67072">
        <ele>327</ele>
        <time>2017-02-19T11:12:32Z</time>
      </trkpt>
      <trkpt lat="46.75309" lon="4.67073">
        <ele>327</ele>
        <time>2017-02-19T11:12:33Z</time>
      </trkpt>
      <trkpt lat="46.75302" lon="4.67075">
        <ele>327</ele>
        <time>2017-02-19T11:12:34Z</time>
      </trkpt>
      <trkpt lat="46.75294" lon="4.67078">
        <ele>327</ele>
        <time>2017-02-19T11:12:35Z</time>
      </trkpt>
      <trkpt lat="46.75285" lon="4.67082">
        <ele>326</ele>
        <time>2017-02-19T11:12:36Z</time>
      </trkpt>
      <trkpt lat="46.75277" lon="4.67087">
        <ele>326</ele>
        <time>2017-02-19T11:12:37Z</time>
      </trkpt>
      <trkpt lat="46.75269" lon="4.67093">
        <ele>325</ele>
        <time>2017-02-19T11:12:38Z</time>
      </trkpt>
      <trkpt lat="46.75261" lon="4.67101">
        <ele>325</ele>
        <time>2017-02-19T11:12:39Z</time>
      </trkpt>
      <trkpt lat="46.75254" lon="4.67109">
        <ele>324</ele>
        <time>2017-02-19T11:12:40Z</time>
      </trkpt>
      <trkpt lat="46.75247" lon="4.67118">
        <ele>324</ele>
        <time>2017-02-19T11:12:41Z</time>
      </trkpt>
      <trkpt lat="46.75241" lon="4.67126">
        <ele>324</ele>
        <time>2017-02-19T11:12:42Z</time>
      </trkpt>
      <trkpt lat="46.75235" lon="4.67135">
        <ele>323</ele>
        <time>2017-02-19T11:12:43Z</time>
      </trkpt>
      <trkpt lat="46.7523" lon="4.67142">
        <ele>323</ele>
        <time>2017-02-19T11:12:44Z</time>
      </trkpt>
      <trkpt lat="46.75225" lon="4.67149">
        <ele>323</ele>
        <time>2017-02-19T11:12:45Z</time>
      </trkpt>
      <trkpt lat="46.75219" lon="4.67156">
        <ele>322</ele>
        <time>2017-02-19T11:12:46Z</time>
      </trkpt>
      <trkpt lat="46.75213" lon="4.6716">
        <ele>322</ele>
        <time>2017-02-19T11:12:47Z</time>
      </trkpt>
      <trkpt lat="46.75207" lon="4.67165">
        <ele>322</ele>
        <time>2017-02-19T11:12:48Z</time>
      </trkpt>
      <trkpt lat="46.75201" lon="4.67167">
        <ele>321</ele>
        <time>2017-02-19T11:12:49Z</time>
      </trkpt>
      <trkpt lat="46.75196" lon="4.6717">
        <ele>321</ele>
        <time>2017-02-19T11:12:50Z</time>
      </trkpt>
      <trkpt lat="46.7519" lon="4.67172">
        <ele>321</ele>
        <time>2017-02-19T11:12:51Z</time>
      </trkpt>
      <trkpt lat="46.75185" lon="4.67173">
        <ele>320</ele>
        <time>2017-02-19T11:12:52Z</time>
      </trkpt>
      <trkpt lat="46.75179" lon="4.67172">
        <ele>320</ele>
        <time>2017-02-19T11:12:53Z</time>
      </trkpt>
      <trkpt lat="46.75174" lon="4.6717">
        <ele>320</ele>
        <time>2017-02-19T11:12:54Z</time>
      </trkpt>
      <trkpt lat="46.75169" lon="4.67169">
        <ele>320</ele>
        <time>2017-02-19T11:12:55Z</time>
      </trkpt>
      <trkpt lat="46.75164" lon="4.67168">
        <ele>320</ele>
        <time>2017-02-19T11:12:56Z</time>
      </trkpt>
      <trkpt lat="46.75159" lon="4.67167">
        <ele>319</ele>
        <time>2017-02-19T11:12:57Z</time>
      </trkpt>
      <trkpt lat="46.75154" lon="4.67165">
        <ele>319</ele>
        <time>2017-02-19T11:12:58Z</time>
      </trkpt>
      <trkpt lat="46.75148" lon="4.67165">
        <ele>319</ele>
        <time>2017-02-19T11:12:59Z</time>
      </trkpt>
      <trkpt lat="46.75143" lon="4.67163">
        <ele>319</ele>
        <time>2017-02-19T11:13:00Z</time>
      </trkpt>
      <trkpt lat="46.75138" lon="4.67163">
        <ele>318</ele>
        <time>2017-02-19T11:13:01Z</time>
      </trkpt>
      <trkpt lat="46.75133" lon="4.67163">
        <ele>318</ele>
        <time>2017-02-19T11:13:02Z</time>
      </trkpt>
      <trkpt lat="46.75125" lon="4.67166">
        <ele>318</ele>
        <time>2017-02-19T11:13:04Z</time>
      </trkpt>
      <trkpt lat="46.75117" lon="4.67163">
        <ele>317</ele>
        <time>2017-02-19T11:13:06Z</time>
      </trkpt>
      <trkpt lat="46.75111" lon="4.67159">
        <ele>317</ele>
        <time>2017-02-19T11:13:08Z</time>
      </trkpt>
      <trkpt lat="46.75104" lon="4.67156">
        <ele>316</ele>
        <time>2017-02-19T11:13:10Z</time>
      </trkpt>
      <trkpt lat="46.75098" lon="4.67155">
        <ele>316</ele>
        <time>2017-02-19T11:13:12Z</time>
      </trkpt>
      <trkpt lat="46.75092" lon="4.67154">
        <ele>316</ele>
        <time>2017-02-19T11:13:14Z</time>
      </trkpt>
      <trkpt lat="46.75087" lon="4.67154">
        <ele>315</ele>
        <time>2017-02-19T11:13:16Z</time>
      </trkpt>
      <trkpt lat="46.75079" lon="4.67155">
        <ele>314</ele>
        <time>2017-02-19T11:13:18Z</time>
      </trkpt>
      <trkpt lat="46.75073" lon="4.67154">
        <ele>314</ele>
        <time>2017-02-19T11:13:20Z</time>
      </trkpt>
      <trkpt lat="46.75066" lon="4.67152">
        <ele>313</ele>
        <time>2017-02-19T11:13:22Z</time>
      </trkpt>
      <trkpt lat="46.75057" lon="4.67148">
        <ele>312</ele>
        <time>2017-02-19T11:13:24Z</time>
      </trkpt>
      <trkpt lat="46.75053" lon="4.67145">
        <ele>312</ele>
        <time>2017-02-19T11:13:25Z</time>
      </trkpt>
      <trkpt lat="46.75048" lon="4.67143">
        <ele>312</ele>
        <time>2017-02-19T11:13:26Z</time>
      </trkpt>
      <trkpt lat="46.75042" lon="4.6714">
        <ele>311</ele>
        <time>2017-02-19T11:13:27Z</time>
      </trkpt>
      <trkpt lat="46.75037" lon="4.67138">
        <ele>311</ele>
        <time>2017-02-19T11:13:28Z</time>
      </trkpt>
      <trkpt lat="46.75032" lon="4.67136">
        <ele>311</ele>
        <time>2017-02-19T11:13:29Z</time>
      </trkpt>
      <trkpt lat="46.75028" lon="4.67135">
        <ele>311</ele>
        <time>2017-02-19T11:13:30Z</time>
      </trkpt>
      <trkpt lat="46.75023" lon="4.67133">
        <ele>311</ele>
        <time>2017-02-19T11:13:31Z</time>
      </trkpt>
      <trkpt lat="46.75018" lon="4.67132">
        <ele>311</ele>
        <time>2017-02-19T11:13:32Z</time>
      </trkpt>
      <trkpt lat="46.75013" lon="4.67131">
        <ele>311</ele>
        <time>2017-02-19T11:13:33Z</time>
      </trkpt>
      <trkpt lat="46.75007" lon="4.6713">
        <ele>311</ele>
        <time>2017-02-19T11:13:34Z</time>
      </trkpt>
      <trkpt lat="46.75002" lon="4.6713">
        <ele>311</ele>
        <time>2017-02-19T11:13:35Z</time>
      </trkpt>
      <trkpt lat="46.74992" lon="4.67128">
        <ele>311</ele>
        <time>2017-02-19T11:13:37Z</time>
      </trkpt>
      <trkpt lat="46.74987" lon="4.67127">
        <ele>312</ele>
        <time>2017-02-19T11:13:38Z</time>
      </trkpt>
      <trkpt lat="46.74982" lon="4.67127">
        <ele>312</ele>
        <time>2017-02-19T11:13:39Z</time>
      </trkpt>
      <trkpt lat="46.74977" lon="4.67127">
        <ele>313</ele>
        <time>2017-02-19T11:13:40Z</time>
      </trkpt>
      <trkpt lat="46.74972" lon="4.67127">
        <ele>313</ele>
        <time>2017-02-19T11:13:41Z</time>
      </trkpt>
      <trkpt lat="46.74966" lon="4.67127">
        <ele>313</ele>
        <time>2017-02-19T11:13:42Z</time>
      </trkpt>
      <trkpt lat="46.74961" lon="4.67128">
        <ele>314</ele>
        <time>2017-02-19T11:13:43Z</time>
      </trkpt>
      <trkpt lat="46.74957" lon="4.67128">
        <ele>314</ele>
        <time>2017-02-19T11:13:44Z</time>
      </trkpt>
      <trkpt lat="46.74952" lon="4.67129">
        <ele>315</ele>
        <time>2017-02-19T11:13:45Z</time>
      </trkpt>
      <trkpt lat="46.74947" lon="4.6713">
        <ele>315</ele>
        <time>2017-02-19T11:13:46Z</time>
      </trkpt>
      <trkpt lat="46.74942" lon="4.67131">
        <ele>315</ele>
        <time>2017-02-19T11:13:47Z</time>
      </trkpt>
      <trkpt lat="46.74937" lon="4.67131">
        <ele>315</ele>
        <time>2017-02-19T11:13:48Z</time>
      </trkpt>
      <trkpt lat="46.74933" lon="4.67131">
        <ele>316</ele>
        <time>2017-02-19T11:13:49Z</time>
      </trkpt>
      <trkpt lat="46.74925" lon="4.67129">
        <ele>316</ele>
        <time>2017-02-19T11:13:51Z</time>
      </trkpt>
      <trkpt lat="46.74916" lon="4.67131">
        <ele>316</ele>
        <time>2017-02-19T11:13:53Z</time>
      </trkpt>
      <trkpt lat="46.74907" lon="4.67134">
        <ele>316</ele>
        <time>2017-02-19T11:13:55Z</time>
      </trkpt>
      <trkpt lat="46.74903" lon="4.67136">
        <ele>316</ele>
        <time>2017-02-19T11:13:56Z</time>
      </trkpt>
      <trkpt lat="46.74894" lon="4.67138">
        <ele>316</ele>
        <time>2017-02-19T11:13:58Z</time>
      </trkpt>
      <trkpt lat="46.7489" lon="4.6714">
        <ele>317</ele>
        <time>2017-02-19T11:13:59Z</time>
      </trkpt>
      <trkpt lat="46.74882" lon="4.67143">
        <ele>317</ele>
        <time>2017-02-19T11:14:01Z</time>
      </trkpt>
      <trkpt lat="46.74874" lon="4.67145">
        <ele>317</ele>
        <time>2017-02-19T11:14:03Z</time>
      </trkpt>
      <trkpt lat="46.74866" lon="4.67147">
        <ele>317</ele>
        <time>2017-02-19T11:14:05Z</time>
      </trkpt>
      <trkpt lat="46.74859" lon="4.67147">
        <ele>317</ele>
        <time>2017-02-19T11:14:07Z</time>
      </trkpt>
      <trkpt lat="46.74852" lon="4.67149">
        <ele>317</ele>
        <time>2017-02-19T11:14:09Z</time>
      </trkpt>
      <trkpt lat="46.74846" lon="4.6715">
        <ele>317</ele>
        <time>2017-02-19T11:14:11Z</time>
      </trkpt>
      <trkpt lat="46.74839" lon="4.67151">
        <ele>317</ele>
        <time>2017-02-19T11:14:13Z</time>
      </trkpt>
      <trkpt lat="46.74832" lon="4.67151">
        <ele>317</ele>
        <time>2017-02-19T11:14:15Z</time>
      </trkpt>
      <trkpt lat="46.74825" lon="4.67151">
        <ele>317</ele>
        <time>2017-02-19T11:14:17Z</time>
      </trkpt>
      <trkpt lat="46.74818" lon="4.67151">
        <ele>317</ele>
        <time>2017-02-19T11:14:19Z</time>
      </trkpt>
      <trkpt lat="46.74812" lon="4.6715">
        <ele>317</ele>
        <time>2017-02-19T11:14:21Z</time>
      </trkpt>
      <trkpt lat="46.74805" lon="4.6715">
        <ele>317</ele>
        <time>2017-02-19T11:14:23Z</time>
      </trkpt>
      <trkpt lat="46.748" lon="4.67148">
        <ele>317</ele>
        <time>2017-02-19T11:14:25Z</time>
      </trkpt>
      <trkpt lat="46.74793" lon="4.67148">
        <ele>318</ele>
        <time>2017-02-19T11:14:27Z</time>
      </trkpt>
      <trkpt lat="46.74787" lon="4.67148">
        <ele>318</ele>
        <time>2017-02-19T11:14:29Z</time>
      </trkpt>
      <trkpt lat="46.7478" lon="4.67147">
        <ele>319</ele>
        <time>2017-02-19T11:14:31Z</time>
      </trkpt>
      <trkpt lat="46.74773" lon="4.67148">
        <ele>319</ele>
        <time>2017-02-19T11:14:33Z</time>
      </trkpt>
      <trkpt lat="46.74768" lon="4.67146">
        <ele>319</ele>
        <time>2017-02-19T11:14:35Z</time>
      </trkpt>
      <trkpt lat="46.74761" lon="4.67144">
        <ele>320</ele>
        <time>2017-02-19T11:14:37Z</time>
      </trkpt>
      <trkpt lat="46.74754" lon="4.67141">
        <ele>319</ele>
        <time>2017-02-19T11:14:39Z</time>
      </trkpt>
      <trkpt lat="46.74746" lon="4.6714">
        <ele>320</ele>
        <time>2017-02-19T11:14:41Z</time>
      </trkpt>
      <trkpt lat="46.74738" lon="4.6714">
        <ele>321</ele>
        <time>2017-02-19T11:14:43Z</time>
      </trkpt>
      <trkpt lat="46.74732" lon="4.67139">
        <ele>322</ele>
        <time>2017-02-19T11:14:45Z</time>
      </trkpt>
      <trkpt lat="46.74725" lon="4.67137">
        <ele>324</ele>
        <time>2017-02-19T11:14:47Z</time>
      </trkpt>
      <trkpt lat="46.74719" lon="4.67135">
        <ele>325</ele>
        <time>2017-02-19T11:14:49Z</time>
      </trkpt>
      <trkpt lat="46.74712" lon="4.67134">
        <ele>326</ele>
        <time>2017-02-19T11:14:51Z</time>
      </trkpt>
      <trkpt lat="46.74707" lon="4.67133">
        <ele>326</ele>
        <time>2017-02-19T11:14:53Z</time>
      </trkpt>
      <trkpt lat="46.74701" lon="4.67131">
        <ele>326</ele>
        <time>2017-02-19T11:14:55Z</time>
      </trkpt>
      <trkpt lat="46.74696" lon="4.6713">
        <ele>326</ele>
        <time>2017-02-19T11:14:57Z</time>
      </trkpt>
      <trkpt lat="46.7469" lon="4.67128">
        <ele>326</ele>
        <time>2017-02-19T11:14:59Z</time>
      </trkpt>
      <trkpt lat="46.74684" lon="4.67127">
        <ele>326</ele>
        <time>2017-02-19T11:15:01Z</time>
      </trkpt>
      <trkpt lat="46.74677" lon="4.67127">
        <ele>326</ele>
        <time>2017-02-19T11:15:03Z</time>
      </trkpt>
      <trkpt lat="46.7467" lon="4.67125">
        <ele>326</ele>
        <time>2017-02-19T11:15:05Z</time>
      </trkpt>
      <trkpt lat="46.74664" lon="4.67118">
        <ele>326</ele>
        <time>2017-02-19T11:15:07Z</time>
      </trkpt>
      <trkpt lat="46.74658" lon="4.67111">
        <ele>326</ele>
        <time>2017-02-19T11:15:09Z</time>
      </trkpt>
      <trkpt lat="46.74651" lon="4.67106">
        <ele>325</ele>
        <time>2017-02-19T11:15:11Z</time>
      </trkpt>
      <trkpt lat="46.74645" lon="4.67103">
        <ele>325</ele>
        <time>2017-02-19T11:15:13Z</time>
      </trkpt>
      <trkpt lat="46.74638" lon="4.671">
        <ele>325</ele>
        <time>2017-02-19T11:15:15Z</time>
      </trkpt>
      <trkpt lat="46.74631" lon="4.67096">
        <ele>324</ele>
        <time>2017-02-19T11:15:17Z</time>
      </trkpt>
      <trkpt lat="46.74624" lon="4.67091">
        <ele>323</ele>
        <time>2017-02-19T11:15:19Z</time>
      </trkpt>
      <trkpt lat="46.7462" lon="4.67088">
        <ele>322</ele>
        <time>2017-02-19T11:15:20Z</time>
      </trkpt>
      <trkpt lat="46.74612" lon="4.67083">
        <ele>322</ele>
        <time>2017-02-19T11:15:22Z</time>
      </trkpt>
      <trkpt lat="46.74605" lon="4.67077">
        <ele>322</ele>
        <time>2017-02-19T11:15:24Z</time>
      </trkpt>
      <trkpt lat="46.74601" lon="4.67073">
        <ele>322</ele>
        <time>2017-02-19T11:15:25Z</time>
      </trkpt>
      <trkpt lat="46.74597" lon="4.6707">
        <ele>322</ele>
        <time>2017-02-19T11:15:26Z</time>
      </trkpt>
      <trkpt lat="46.7459" lon="4.67063">
        <ele>322</ele>
        <time>2017-02-19T11:15:28Z</time>
      </trkpt>
      <trkpt lat="46.74583" lon="4.67057">
        <ele>323</ele>
        <time>2017-02-19T11:15:30Z</time>
      </trkpt>
      <trkpt lat="46.74576" lon="4.67054">
        <ele>323</ele>
        <time>2017-02-19T11:15:32Z</time>
      </trkpt>
      <trkpt lat="46.7457" lon="4.67052">
        <ele>324</ele>
        <time>2017-02-19T11:15:34Z</time>
      </trkpt>
      <trkpt lat="46.74563" lon="4.67052">
        <ele>324</ele>
        <time>2017-02-19T11:15:36Z</time>
      </trkpt>
      <trkpt lat="46.74556" lon="4.67052">
        <ele>324</ele>
        <time>2017-02-19T11:15:38Z</time>
      </trkpt>
      <trkpt lat="46.7455" lon="4.67052">
        <ele>324</ele>
        <time>2017-02-19T11:15:40Z</time>
      </trkpt>
      <trkpt lat="46.74543" lon="4.67051">
        <ele>324</ele>
        <time>2017-02-19T11:15:42Z</time>
      </trkpt>
      <trkpt lat="46.74535" lon="4.6705">
        <ele>324</ele>
        <time>2017-02-19T11:15:44Z</time>
      </trkpt>
      <trkpt lat="46.74529" lon="4.6705">
        <ele>325</ele>
        <time>2017-02-19T11:15:46Z</time>
      </trkpt>
      <trkpt lat="46.74521" lon="4.67049">
        <ele>325</ele>
        <time>2017-02-19T11:15:48Z</time>
      </trkpt>
      <trkpt lat="46.74514" lon="4.67049">
        <ele>325</ele>
        <time>2017-02-19T11:15:50Z</time>
      </trkpt>
      <trkpt lat="46.74507" lon="4.67048">
        <ele>325</ele>
        <time>2017-02-19T11:15:52Z</time>
      </trkpt>
      <trkpt lat="46.745" lon="4.67046">
        <ele>325</ele>
        <time>2017-02-19T11:15:54Z</time>
      </trkpt>
      <trkpt lat="46.74491" lon="4.67045">
        <ele>325</ele>
        <time>2017-02-19T11:15:56Z</time>
      </trkpt>
      <trkpt lat="46.74483" lon="4.67044">
        <ele>325</ele>
        <time>2017-02-19T11:15:58Z</time>
      </trkpt>
      <trkpt lat="46.74474" lon="4.67042">
        <ele>325</ele>
        <time>2017-02-19T11:16:00Z</time>
      </trkpt>
      <trkpt lat="46.74466" lon="4.6704">
        <ele>325</ele>
        <time>2017-02-19T11:16:02Z</time>
      </trkpt>
      <trkpt lat="46.74458" lon="4.67037">
        <ele>326</ele>
        <time>2017-02-19T11:16:04Z</time>
      </trkpt>
      <trkpt lat="46.7445" lon="4.67034">
        <ele>326</ele>
        <time>2017-02-19T11:16:06Z</time>
      </trkpt>
      <trkpt lat="46.74442" lon="4.67032">
        <ele>326</ele>
        <time>2017-02-19T11:16:08Z</time>
      </trkpt>
      <trkpt lat="46.74434" lon="4.6703">
        <ele>327</ele>
        <time>2017-02-19T11:16:10Z</time>
      </trkpt>
      <trkpt lat="46.74426" lon="4.67028">
        <ele>327</ele>
        <time>2017-02-19T11:16:12Z</time>
      </trkpt>
      <trkpt lat="46.74417" lon="4.67027">
        <ele>328</ele>
        <time>2017-02-19T11:16:14Z</time>
      </trkpt>
      <trkpt lat="46.7441" lon="4.67026">
        <ele>329</ele>
        <time>2017-02-19T11:16:16Z</time>
      </trkpt>
      <trkpt lat="46.74402" lon="4.67024">
        <ele>329</ele>
        <time>2017-02-19T11:16:18Z</time>
      </trkpt>
      <trkpt lat="46.74394" lon="4.67023">
        <ele>330</ele>
        <time>2017-02-19T11:16:20Z</time>
      </trkpt>
      <trkpt lat="46.74386" lon="4.67023">
        <ele>330</ele>
        <time>2017-02-19T11:16:22Z</time>
      </trkpt>
      <trkpt lat="46.74381" lon="4.67023">
        <ele>331</ele>
        <time>2017-02-19T11:16:23Z</time>
      </trkpt>
      <trkpt lat="46.74373" lon="4.67023">
        <ele>331</ele>
        <time>2017-02-19T11:16:25Z</time>
      </trkpt>
      <trkpt lat="46.74365" lon="4.67024">
        <ele>332</ele>
        <time>2017-02-19T11:16:27Z</time>
      </trkpt>
      <trkpt lat="46.74357" lon="4.67024">
        <ele>332</ele>
        <time>2017-02-19T11:16:29Z</time>
      </trkpt>
      <trkpt lat="46.7435" lon="4.67024">
        <ele>333</ele>
        <time>2017-02-19T11:16:31Z</time>
      </trkpt>
      <trkpt lat="46.74342" lon="4.67024">
        <ele>334</ele>
        <time>2017-02-19T11:16:33Z</time>
      </trkpt>
      <trkpt lat="46.74335" lon="4.67025">
        <ele>334</ele>
        <time>2017-02-19T11:16:35Z</time>
      </trkpt>
      <trkpt lat="46.74327" lon="4.67029">
        <ele>335</ele>
        <time>2017-02-19T11:16:37Z</time>
      </trkpt>
      <trkpt lat="46.74322" lon="4.6703">
        <ele>336</ele>
        <time>2017-02-19T11:16:38Z</time>
      </trkpt>
      <trkpt lat="46.74315" lon="4.67031">
        <ele>337</ele>
        <time>2017-02-19T11:16:40Z</time>
      </trkpt>
      <trkpt lat="46.74306" lon="4.67032">
        <ele>338</ele>
        <time>2017-02-19T11:16:42Z</time>
      </trkpt>
      <trkpt lat="46.74299" lon="4.67033">
        <ele>338</ele>
        <time>2017-02-19T11:16:44Z</time>
      </trkpt>
      <trkpt lat="46.74291" lon="4.67034">
        <ele>339</ele>
        <time>2017-02-19T11:16:46Z</time>
      </trkpt>
      <trkpt lat="46.74284" lon="4.67035">
        <ele>340</ele>
        <time>2017-02-19T11:16:48Z</time>
      </trkpt>
      <trkpt lat="46.74277" lon="4.67035">
        <ele>340</ele>
        <time>2017-02-19T11:16:50Z</time>
      </trkpt>
      <trkpt lat="46.7427" lon="4.67033">
        <ele>341</ele>
        <time>2017-02-19T11:16:52Z</time>
      </trkpt>
      <trkpt lat="46.74263" lon="4.67033">
        <ele>341</ele>
        <time>2017-02-19T11:16:54Z</time>
      </trkpt>
      <trkpt lat="46.74257" lon="4.67032">
        <ele>342</ele>
        <time>2017-02-19T11:16:56Z</time>
      </trkpt>
      <trkpt lat="46.74252" lon="4.6703">
        <ele>342</ele>
        <time>2017-02-19T11:16:58Z</time>
      </trkpt>
      <trkpt lat="46.74246" lon="4.67028">
        <ele>343</ele>
        <time>2017-02-19T11:17:00Z</time>
      </trkpt>
      <trkpt lat="46.7424" lon="4.67025">
        <ele>343</ele>
        <time>2017-02-19T11:17:02Z</time>
      </trkpt>
      <trkpt lat="46.74233" lon="4.67022">
        <ele>343</ele>
        <time>2017-02-19T11:17:04Z</time>
      </trkpt>
      <trkpt lat="46.74227" lon="4.6702">
        <ele>342</ele>
        <time>2017-02-19T11:17:06Z</time>
      </trkpt>
      <trkpt lat="46.74221" lon="4.67019">
        <ele>342</ele>
        <time>2017-02-19T11:17:08Z</time>
      </trkpt>
      <trkpt lat="46.74215" lon="4.67016">
        <ele>342</ele>
        <time>2017-02-19T11:17:10Z</time>
      </trkpt>
      <trkpt lat="46.74208" lon="4.67015">
        <ele>342</ele>
        <time>2017-02-19T11:17:12Z</time>
      </trkpt>
      <trkpt lat="46.74201" lon="4.67013">
        <ele>342</ele>
        <time>2017-02-19T11:17:14Z</time>
      </trkpt>
      <trkpt lat="46.74193" lon="4.67012">
        <ele>342</ele>
        <time>2017-02-19T11:17:16Z</time>
      </trkpt>
      <trkpt lat="46.74186" lon="4.67013">
        <ele>343</ele>
        <time>2017-02-19T11:17:18Z</time>
      </trkpt>
      <trkpt lat="46.74178" lon="4.67014">
        <ele>343</ele>
        <time>2017-02-19T11:17:20Z</time>
      </trkpt>
      <trkpt lat="46.74171" lon="4.67016">
        <ele>344</ele>
        <time>2017-02-19T11:17:22Z</time>
      </trkpt>
      <trkpt lat="46.74163" lon="4.67018">
        <ele>344</ele>
        <time>2017-02-19T11:17:24Z</time>
      </trkpt>
      <trkpt lat="46.74157" lon="4.67021">
        <ele>344</ele>
        <time>2017-02-19T11:17:26Z</time>
      </trkpt>
      <trkpt lat="46.7415" lon="4.67025">
        <ele>344</ele>
        <time>2017-02-19T11:17:28Z</time>
      </trkpt>
      <trkpt lat="46.74144" lon="4.67029">
        <ele>345</ele>
        <time>2017-02-19T11:17:30Z</time>
      </trkpt>
      <trkpt lat="46.74138" lon="4.67034">
        <ele>345</ele>
        <time>2017-02-19T11:17:32Z</time>
      </trkpt>
      <trkpt lat="46.74133" lon="4.67038">
        <ele>346</ele>
        <time>2017-02-19T11:17:34Z</time>
      </trkpt>
      <trkpt lat="46.74127" lon="4.67042">
        <ele>347</ele>
        <time>2017-02-19T11:17:36Z</time>
      </trkpt>
      <trkpt lat="46.74122" lon="4.67047">
        <ele>347</ele>
        <time>2017-02-19T11:17:38Z</time>
      </trkpt>
      <trkpt lat="46.74117" lon="4.67053">
        <ele>348</ele>
        <time>2017-02-19T11:17:40Z</time>
      </trkpt>
      <trkpt lat="46.74112" lon="4.67058">
        <ele>349</ele>
        <time>2017-02-19T11:17:42Z</time>
      </trkpt>
      <trkpt lat="46.74107" lon="4.67063">
        <ele>349</ele>
        <time>2017-02-19T11:17:44Z</time>
      </trkpt>
      <trkpt lat="46.74101" lon="4.6707">
        <ele>349</ele>
        <time>2017-02-19T11:17:46Z</time>
      </trkpt>
      <trkpt lat="46.74096" lon="4.67076">
        <ele>349</ele>
        <time>2017-02-19T11:17:48Z</time>
      </trkpt>
      <trkpt lat="46.74092" lon="4.67084">
        <ele>349</ele>
        <time>2017-02-19T11:17:50Z</time>
      </trkpt>
      <trkpt lat="46.74088" lon="4.67091">
        <ele>349</ele>
        <time>2017-02-19T11:17:52Z</time>
      </trkpt>
      <trkpt lat="46.74085" lon="4.67096">
        <ele>350</ele>
        <time>2017-02-19T11:17:54Z</time>
      </trkpt>
      <trkpt lat="46.74081" lon="4.67104">
        <ele>351</ele>
        <time>2017-02-19T11:17:56Z</time>
      </trkpt>
      <trkpt lat="46.74076" lon="4.67112">
        <ele>351</ele>
        <time>2017-02-19T11:17:58Z</time>
      </trkpt>
      <trkpt lat="46.74071" lon="4.6712">
        <ele>352</ele>
        <time>2017-02-19T11:18:00Z</time>
      </trkpt>
      <trkpt lat="46.74067" lon="4.67126">
        <ele>353</ele>
        <time>2017-02-19T11:18:02Z</time>
      </trkpt>
      <trkpt lat="46.74064" lon="4.6713">
        <ele>353</ele>
        <time>2017-02-19T11:18:04Z</time>
      </trkpt>
      <trkpt lat="46.7406" lon="4.67137">
        <ele>354</ele>
        <time>2017-02-19T11:18:06Z</time>
      </trkpt>
      <trkpt lat="46.74056" lon="4.67144">
        <ele>355</ele>
        <time>2017-02-19T11:18:08Z</time>
      </trkpt>
      <trkpt lat="46.74051" lon="4.67151">
        <ele>356</ele>
        <time>2017-02-19T11:18:10Z</time>
      </trkpt>
      <trkpt lat="46.74046" lon="4.67158">
        <ele>357</ele>
        <time>2017-02-19T11:18:12Z</time>
      </trkpt>
      <trkpt lat="46.74042" lon="4.67164">
        <ele>358</ele>
        <time>2017-02-19T11:18:14Z</time>
      </trkpt>
      <trkpt lat="46.74037" lon="4.67172">
        <ele>359</ele>
        <time>2017-02-19T11:18:16Z</time>
      </trkpt>
      <trkpt lat="46.74032" lon="4.67179">
        <ele>361</ele>
        <time>2017-02-19T11:18:18Z</time>
      </trkpt>
      <trkpt lat="46.74028" lon="4.67186">
        <ele>362</ele>
        <time>2017-02-19T11:18:20Z</time>
      </trkpt>
      <trkpt lat="46.74024" lon="4.67193">
        <ele>364</ele>
        <time>2017-02-19T11:18:22Z</time>
      </trkpt>
      <trkpt lat="46.74019" lon="4.67201">
        <ele>365</ele>
        <time>2017-02-19T11:18:24Z</time>
      </trkpt>
      <trkpt lat="46.74014" lon="4.67208">
        <ele>365</ele>
        <time>2017-02-19T11:18:27Z</time>
      </trkpt>
      <trkpt lat="46.7401" lon="4.67213">
        <ele>366</ele>
        <time>2017-02-19T11:18:29Z</time>
      </trkpt>
      <trkpt lat="46.74006" lon="4.67219">
        <ele>366</ele>
        <time>2017-02-19T11:18:31Z</time>
      </trkpt>
      <trkpt lat="46.74003" lon="4.67226">
        <ele>366</ele>
        <time>2017-02-19T11:18:33Z</time>
      </trkpt>
      <trkpt lat="46.73999" lon="4.67233">
        <ele>366</ele>
        <time>2017-02-19T11:18:35Z</time>
      </trkpt>
      <trkpt lat="46.73996" lon="4.67239">
        <ele>367</ele>
        <time>2017-02-19T11:18:37Z</time>
      </trkpt>
      <trkpt lat="46.7399" lon="4.67253">
        <ele>367</ele>
        <time>2017-02-19T11:18:41Z</time>
      </trkpt>
      <trkpt lat="46.73986" lon="4.6726">
        <ele>368</ele>
        <time>2017-02-19T11:18:43Z</time>
      </trkpt>
      <trkpt lat="46.73983" lon="4.67267">
        <ele>368</ele>
        <time>2017-02-19T11:18:45Z</time>
      </trkpt>
      <trkpt lat="46.7398" lon="4.67274">
        <ele>369</ele>
        <time>2017-02-19T11:18:47Z</time>
      </trkpt>
      <trkpt lat="46.73976" lon="4.67281">
        <ele>369</ele>
        <time>2017-02-19T11:18:49Z</time>
      </trkpt>
      <trkpt lat="46.73972" lon="4.67288">
        <ele>369</ele>
        <time>2017-02-19T11:18:51Z</time>
      </trkpt>
      <trkpt lat="46.73967" lon="4.67297">
        <ele>369</ele>
        <time>2017-02-19T11:18:53Z</time>
      </trkpt>
      <trkpt lat="46.73962" lon="4.67305">
        <ele>369</ele>
        <time>2017-02-19T11:18:55Z</time>
      </trkpt>
      <trkpt lat="46.73956" lon="4.67313">
        <ele>369</ele>
        <time>2017-02-19T11:18:57Z</time>
      </trkpt>
      <trkpt lat="46.73949" lon="4.67322">
        <ele>369</ele>
        <time>2017-02-19T11:18:59Z</time>
      </trkpt>
      <trkpt lat="46.73944" lon="4.6733">
        <ele>369</ele>
        <time>2017-02-19T11:19:01Z</time>
      </trkpt>
      <trkpt lat="46.73939" lon="4.67339">
        <ele>369</ele>
        <time>2017-02-19T11:19:03Z</time>
      </trkpt>
      <trkpt lat="46.73933" lon="4.67348">
        <ele>369</ele>
        <time>2017-02-19T11:19:05Z</time>
      </trkpt>
      <trkpt lat="46.73928" lon="4.67358">
        <ele>369</ele>
        <time>2017-02-19T11:19:07Z</time>
      </trkpt>
      <trkpt lat="46.73922" lon="4.67367">
        <ele>369</ele>
        <time>2017-02-19T11:19:09Z</time>
      </trkpt>
      <trkpt lat="46.73917" lon="4.67377">
        <ele>369</ele>
        <time>2017-02-19T11:19:11Z</time>
      </trkpt>
      <trkpt lat="46.73911" lon="4.67387">
        <ele>369</ele>
        <time>2017-02-19T11:19:13Z</time>
      </trkpt>
      <trkpt lat="46.73906" lon="4.67397">
        <ele>369</ele>
        <time>2017-02-19T11:19:15Z</time>
      </trkpt>
      <trkpt lat="46.739" lon="4.67406">
        <ele>369</ele>
        <time>2017-02-19T11:19:17Z</time>
      </trkpt>
      <trkpt lat="46.73894" lon="4.67416">
        <ele>369</ele>
        <time>2017-02-19T11:19:19Z</time>
      </trkpt>
      <trkpt lat="46.73891" lon="4.67421">
        <ele>369</ele>
        <time>2017-02-19T11:19:20Z</time>
      </trkpt>
      <trkpt lat="46.73888" lon="4.67426">
        <ele>369</ele>
        <time>2017-02-19T11:19:21Z</time>
      </trkpt>
      <trkpt lat="46.73883" lon="4.67437">
        <ele>369</ele>
        <time>2017-02-19T11:19:23Z</time>
      </trkpt>
      <trkpt lat="46.73878" lon="4.67447">
        <ele>369</ele>
        <time>2017-02-19T11:19:25Z</time>
      </trkpt>
      <trkpt lat="46.73872" lon="4.67456">
        <ele>369</ele>
        <time>2017-02-19T11:19:27Z</time>
      </trkpt>
      <trkpt lat="46.73869" lon="4.67461">
        <ele>370</ele>
        <time>2017-02-19T11:19:28Z</time>
      </trkpt>
      <trkpt lat="46.73866" lon="4.67466">
        <ele>370</ele>
        <time>2017-02-19T11:19:29Z</time>
      </trkpt>
      <trkpt lat="46.73863" lon="4.67471">
        <ele>370</ele>
        <time>2017-02-19T11:19:30Z</time>
      </trkpt>
      <trkpt lat="46.7386" lon="4.67477">
        <ele>370</ele>
        <time>2017-02-19T11:19:31Z</time>
      </trkpt>
      <trkpt lat="46.73856" lon="4.67482">
        <ele>371</ele>
        <time>2017-02-19T11:19:32Z</time>
      </trkpt>
      <trkpt lat="46.73853" lon="4.67488">
        <ele>371</ele>
        <time>2017-02-19T11:19:33Z</time>
      </trkpt>
      <trkpt lat="46.7385" lon="4.67493">
        <ele>371</ele>
        <time>2017-02-19T11:19:34Z</time>
      </trkpt>
      <trkpt lat="46.73847" lon="4.67499">
        <ele>371</ele>
        <time>2017-02-19T11:19:35Z</time>
      </trkpt>
      <trkpt lat="46.73845" lon="4.67504">
        <ele>372</ele>
        <time>2017-02-19T11:19:36Z</time>
      </trkpt>
      <trkpt lat="46.73839" lon="4.67514">
        <ele>371</ele>
        <time>2017-02-19T11:19:38Z</time>
      </trkpt>
      <trkpt lat="46.73836" lon="4.67519">
        <ele>370</ele>
        <time>2017-02-19T11:19:39Z</time>
      </trkpt>
      <trkpt lat="46.73833" lon="4.67524">
        <ele>370</ele>
        <time>2017-02-19T11:19:40Z</time>
      </trkpt>
      <trkpt lat="46.73829" lon="4.67529">
        <ele>369</ele>
        <time>2017-02-19T11:19:41Z</time>
      </trkpt>
      <trkpt lat="46.73824" lon="4.67538">
        <ele>369</ele>
        <time>2017-02-19T11:19:43Z</time>
      </trkpt>
      <trkpt lat="46.73819" lon="4.67547">
        <ele>369</ele>
        <time>2017-02-19T11:19:45Z</time>
      </trkpt>
      <trkpt lat="46.73814" lon="4.67557">
        <ele>370</ele>
        <time>2017-02-19T11:19:47Z</time>
      </trkpt>
      <trkpt lat="46.73811" lon="4.67562">
        <ele>370</ele>
        <time>2017-02-19T11:19:48Z</time>
      </trkpt>
      <trkpt lat="46.73807" lon="4.67567">
        <ele>371</ele>
        <time>2017-02-19T11:19:49Z</time>
      </trkpt>
      <trkpt lat="46.73805" lon="4.67573">
        <ele>371</ele>
        <time>2017-02-19T11:19:50Z</time>
      </trkpt>
      <trkpt lat="46.73801" lon="4.67579">
        <ele>371</ele>
        <time>2017-02-19T11:19:51Z</time>
      </trkpt>
      <trkpt lat="46.73798" lon="4.67584">
        <ele>371</ele>
        <time>2017-02-19T11:19:52Z</time>
      </trkpt>
      <trkpt lat="46.73795" lon="4.6759">
        <ele>371</ele>
        <time>2017-02-19T11:19:53Z</time>
      </trkpt>
      <trkpt lat="46.73792" lon="4.67596">
        <ele>372</ele>
        <time>2017-02-19T11:19:54Z</time>
      </trkpt>
      <trkpt lat="46.73789" lon="4.67601">
        <ele>372</ele>
        <time>2017-02-19T11:19:55Z</time>
      </trkpt>
      <trkpt lat="46.73785" lon="4.67607">
        <ele>372</ele>
        <time>2017-02-19T11:19:56Z</time>
      </trkpt>
      <trkpt lat="46.73782" lon="4.67613">
        <ele>373</ele>
        <time>2017-02-19T11:19:57Z</time>
      </trkpt>
      <trkpt lat="46.73779" lon="4.67618">
        <ele>373</ele>
        <time>2017-02-19T11:19:58Z</time>
      </trkpt>
      <trkpt lat="46.73776" lon="4.67624">
        <ele>373</ele>
        <time>2017-02-19T11:19:59Z</time>
      </trkpt>
      <trkpt lat="46.73772" lon="4.6763">
        <ele>374</ele>
        <time>2017-02-19T11:20:00Z</time>
      </trkpt>
      <trkpt lat="46.73769" lon="4.67636">
        <ele>374</ele>
        <time>2017-02-19T11:20:01Z</time>
      </trkpt>
      <trkpt lat="46.73765" lon="4.67642">
        <ele>374</ele>
        <time>2017-02-19T11:20:02Z</time>
      </trkpt>
      <trkpt lat="46.73762" lon="4.67648">
        <ele>374</ele>
        <time>2017-02-19T11:20:03Z</time>
      </trkpt>
      <trkpt lat="46.73758" lon="4.67654">
        <ele>374</ele>
        <time>2017-02-19T11:20:04Z</time>
      </trkpt>
      <trkpt lat="46.73754" lon="4.6766">
        <ele>374</ele>
        <time>2017-02-19T11:20:05Z</time>
      </trkpt>
      <trkpt lat="46.7375" lon="4.67667">
        <ele>374</ele>
        <time>2017-02-19T11:20:06Z</time>
      </trkpt>
      <trkpt lat="46.73745" lon="4.67673">
        <ele>374</ele>
        <time>2017-02-19T11:20:07Z</time>
      </trkpt>
      <trkpt lat="46.73741" lon="4.6768">
        <ele>373</ele>
        <time>2017-02-19T11:20:08Z</time>
      </trkpt>
      <trkpt lat="46.73737" lon="4.67688">
        <ele>372</ele>
        <time>2017-02-19T11:20:09Z</time>
      </trkpt>
      <trkpt lat="46.73732" lon="4.67697">
        <ele>372</ele>
        <time>2017-02-19T11:20:10Z</time>
      </trkpt>
      <trkpt lat="46.73728" lon="4.67705">
        <ele>372</ele>
        <time>2017-02-19T11:20:11Z</time>
      </trkpt>
      <trkpt lat="46.73722" lon="4.67713">
        <ele>371</ele>
        <time>2017-02-19T11:20:12Z</time>
      </trkpt>
      <trkpt lat="46.73716" lon="4.67722">
        <ele>371</ele>
        <time>2017-02-19T11:20:13Z</time>
      </trkpt>
      <trkpt lat="46.7371" lon="4.6773">
        <ele>371</ele>
        <time>2017-02-19T11:20:14Z</time>
      </trkpt>
      <trkpt lat="46.73705" lon="4.6774">
        <ele>370</ele>
        <time>2017-02-19T11:20:15Z</time>
      </trkpt>
      <trkpt lat="46.737" lon="4.6775">
        <ele>370</ele>
        <time>2017-02-19T11:20:16Z</time>
      </trkpt>
      <trkpt lat="46.73694" lon="4.67759">
        <ele>370</ele>
        <time>2017-02-19T11:20:17Z</time>
      </trkpt>
      <trkpt lat="46.73689" lon="4.67769">
        <ele>369</ele>
        <time>2017-02-19T11:20:18Z</time>
      </trkpt>
      <trkpt lat="46.73682" lon="4.67774">
        <ele>369</ele>
        <time>2017-02-19T11:20:19Z</time>
      </trkpt>
      <trkpt lat="46.73674" lon="4.67773">
        <ele>369</ele>
        <time>2017-02-19T11:20:20Z</time>
      </trkpt>
      <trkpt lat="46.73668" lon="4.67766">
        <ele>369</ele>
        <time>2017-02-19T11:20:21Z</time>
      </trkpt>
      <trkpt lat="46.73665" lon="4.67757">
        <ele>368</ele>
        <time>2017-02-19T11:20:22Z</time>
      </trkpt>
      <trkpt lat="46.73661" lon="4.67747">
        <ele>368</ele>
        <time>2017-02-19T11:20:23Z</time>
      </trkpt>
      <trkpt lat="46.73658" lon="4.67738">
        <ele>369</ele>
        <time>2017-02-19T11:20:24Z</time>
      </trkpt>
      <trkpt lat="46.73655" lon="4.67729">
        <ele>369</ele>
        <time>2017-02-19T11:20:25Z</time>
      </trkpt>
      <trkpt lat="46.73652" lon="4.6772">
        <ele>369</ele>
        <time>2017-02-19T11:20:26Z</time>
      </trkpt>
      <trkpt lat="46.73649" lon="4.67713">
        <ele>369</ele>
        <time>2017-02-19T11:20:27Z</time>
      </trkpt>
      <trkpt lat="46.73646" lon="4.67707">
        <ele>369</ele>
        <time>2017-02-19T11:20:28Z</time>
      </trkpt>
      <trkpt lat="46.73643" lon="4.67701">
        <ele>369</ele>
        <time>2017-02-19T11:20:29Z</time>
      </trkpt>
      <trkpt lat="46.73641" lon="4.67694">
        <ele>369</ele>
        <time>2017-02-19T11:20:30Z</time>
      </trkpt>
      <trkpt lat="46.73637" lon="4.67687">
        <ele>369</ele>
        <time>2017-02-19T11:20:31Z</time>
      </trkpt>
      <trkpt lat="46.73634" lon="4.67681">
        <ele>369</ele>
        <time>2017-02-19T11:20:32Z</time>
      </trkpt>
      <trkpt lat="46.73631" lon="4.67675">
        <ele>370</ele>
        <time>2017-02-19T11:20:33Z</time>
      </trkpt>
      <trkpt lat="46.73629" lon="4.67669">
        <ele>370</ele>
        <time>2017-02-19T11:20:34Z</time>
      </trkpt>
      <trkpt lat="46.73626" lon="4.67663">
        <ele>370</ele>
        <time>2017-02-19T11:20:35Z</time>
      </trkpt>
      <trkpt lat="46.73623" lon="4.67658">
        <ele>371</ele>
        <time>2017-02-19T11:20:36Z</time>
      </trkpt>
      <trkpt lat="46.73617" lon="4.67649">
        <ele>371</ele>
        <time>2017-02-19T11:20:38Z</time>
      </trkpt>
      <trkpt lat="46.73612" lon="4.6764">
        <ele>371</ele>
        <time>2017-02-19T11:20:40Z</time>
      </trkpt>
      <trkpt lat="46.73607" lon="4.6763">
        <ele>371</ele>
        <time>2017-02-19T11:20:42Z</time>
      </trkpt>
      <trkpt lat="46.73601" lon="4.67619">
        <ele>371</ele>
        <time>2017-02-19T11:20:44Z</time>
      </trkpt>
      <trkpt lat="46.73596" lon="4.67609">
        <ele>371</ele>
        <time>2017-02-19T11:20:46Z</time>
      </trkpt>
      <trkpt lat="46.73591" lon="4.67598">
        <ele>371</ele>
        <time>2017-02-19T11:20:48Z</time>
      </trkpt>
      <trkpt lat="46.73586" lon="4.6759">
        <ele>371</ele>
        <time>2017-02-19T11:20:50Z</time>
      </trkpt>
      <trkpt lat="46.7358" lon="4.67581">
        <ele>370</ele>
        <time>2017-02-19T11:20:52Z</time>
      </trkpt>
      <trkpt lat="46.73575" lon="4.67573">
        <ele>370</ele>
        <time>2017-02-19T11:20:54Z</time>
      </trkpt>
      <trkpt lat="46.73568" lon="4.67564">
        <ele>369</ele>
        <time>2017-02-19T11:20:56Z</time>
      </trkpt>
      <trkpt lat="46.73565" lon="4.67559">
        <ele>368</ele>
        <time>2017-02-19T11:20:57Z</time>
      </trkpt>
      <trkpt lat="46.73561" lon="4.67555">
        <ele>368</ele>
        <time>2017-02-19T11:20:58Z</time>
      </trkpt>
      <trkpt lat="46.73557" lon="4.6755">
        <ele>368</ele>
        <time>2017-02-19T11:20:59Z</time>
      </trkpt>
      <trkpt lat="46.73554" lon="4.67546">
        <ele>368</ele>
        <time>2017-02-19T11:21:00Z</time>
      </trkpt>
      <trkpt lat="46.7355" lon="4.67542">
        <ele>368</ele>
        <time>2017-02-19T11:21:01Z</time>
      </trkpt>
      <trkpt lat="46.73546" lon="4.67537">
        <ele>368</ele>
        <time>2017-02-19T11:21:02Z</time>
      </trkpt>
      <trkpt lat="46.73542" lon="4.67532">
        <ele>368</ele>
        <time>2017-02-19T11:21:03Z</time>
      </trkpt>
      <trkpt lat="46.73538" lon="4.67527">
        <ele>368</ele>
        <time>2017-02-19T11:21:04Z</time>
      </trkpt>
      <trkpt lat="46.73534" lon="4.67522">
        <ele>368</ele>
        <time>2017-02-19T11:21:05Z</time>
      </trkpt>
      <trkpt lat="46.73531" lon="4.67517">
        <ele>368</ele>
        <time>2017-02-19T11:21:06Z</time>
      </trkpt>
      <trkpt lat="46.73528" lon="4.67512">
        <ele>368</ele>
        <time>2017-02-19T11:21:07Z</time>
      </trkpt>
      <trkpt lat="46.73523" lon="4.67502">
        <ele>368</ele>
        <time>2017-02-19T11:21:09Z</time>
      </trkpt>
      <trkpt lat="46.73518" lon="4.67493">
        <ele>367</ele>
        <time>2017-02-19T11:21:11Z</time>
      </trkpt>
      <trkpt lat="46.73514" lon="4.67484">
        <ele>367</ele>
        <time>2017-02-19T11:21:13Z</time>
      </trkpt>
      <trkpt lat="46.73512" lon="4.67477">
        <ele>366</ele>
        <time>2017-02-19T11:21:14Z</time>
      </trkpt>
      <trkpt lat="46.73508" lon="4.67469">
        <ele>366</ele>
        <time>2017-02-19T11:21:15Z</time>
      </trkpt>
      <trkpt lat="46.73504" lon="4.67461">
        <ele>365</ele>
        <time>2017-02-19T11:21:16Z</time>
      </trkpt>
      <trkpt lat="46.735" lon="4.67454">
        <ele>365</ele>
        <time>2017-02-19T11:21:17Z</time>
      </trkpt>
      <trkpt lat="46.73496" lon="4.67447">
        <ele>364</ele>
        <time>2017-02-19T11:21:18Z</time>
      </trkpt>
      <trkpt lat="46.7349" lon="4.67441">
        <ele>364</ele>
        <time>2017-02-19T11:21:19Z</time>
      </trkpt>
      <trkpt lat="46.73484" lon="4.67436">
        <ele>363</ele>
        <time>2017-02-19T11:21:20Z</time>
      </trkpt>
      <trkpt lat="46.73478" lon="4.67431">
        <ele>363</ele>
        <time>2017-02-19T11:21:21Z</time>
      </trkpt>
      <trkpt lat="46.73472" lon="4.67426">
        <ele>362</ele>
        <time>2017-02-19T11:21:22Z</time>
      </trkpt>
      <trkpt lat="46.73466" lon="4.67421">
        <ele>362</ele>
        <time>2017-02-19T11:21:23Z</time>
      </trkpt>
      <trkpt lat="46.73459" lon="4.67417">
        <ele>362</ele>
        <time>2017-02-19T11:21:24Z</time>
      </trkpt>
      <trkpt lat="46.73453" lon="4.67413">
        <ele>361</ele>
        <time>2017-02-19T11:21:25Z</time>
      </trkpt>
      <trkpt lat="46.73446" lon="4.67408">
        <ele>362</ele>
        <time>2017-02-19T11:21:26Z</time>
      </trkpt>
      <trkpt lat="46.7344" lon="4.67404">
        <ele>362</ele>
        <time>2017-02-19T11:21:27Z</time>
      </trkpt>
      <trkpt lat="46.73435" lon="4.67401">
        <ele>362</ele>
        <time>2017-02-19T11:21:28Z</time>
      </trkpt>
      <trkpt lat="46.7343" lon="4.67397">
        <ele>362</ele>
        <time>2017-02-19T11:21:29Z</time>
      </trkpt>
      <trkpt lat="46.73425" lon="4.67393">
        <ele>361</ele>
        <time>2017-02-19T11:21:30Z</time>
      </trkpt>
      <trkpt lat="46.7342" lon="4.67388">
        <ele>361</ele>
        <time>2017-02-19T11:21:31Z</time>
      </trkpt>
      <trkpt lat="46.73415" lon="4.67385">
        <ele>361</ele>
        <time>2017-02-19T11:21:32Z</time>
      </trkpt>
      <trkpt lat="46.7341" lon="4.6738">
        <ele>360</ele>
        <time>2017-02-19T11:21:33Z</time>
      </trkpt>
      <trkpt lat="46.73406" lon="4.67376">
        <ele>360</ele>
        <time>2017-02-19T11:21:34Z</time>
      </trkpt>
      <trkpt lat="46.73401" lon="4.67372">
        <ele>360</ele>
        <time>2017-02-19T11:21:35Z</time>
      </trkpt>
      <trkpt lat="46.73396" lon="4.67368">
        <ele>360</ele>
        <time>2017-02-19T11:21:36Z</time>
      </trkpt>
      <trkpt lat="46.73391" lon="4.67364">
        <ele>360</ele>
        <time>2017-02-19T11:21:37Z</time>
      </trkpt>
      <trkpt lat="46.73386" lon="4.67361">
        <ele>360</ele>
        <time>2017-02-19T11:21:38Z</time>
      </trkpt>
      <trkpt lat="46.73382" lon="4.67358">
        <ele>361</ele>
        <time>2017-02-19T11:21:39Z</time>
      </trkpt>
      <trkpt lat="46.73378" lon="4.67355">
        <ele>361</ele>
        <time>2017-02-19T11:21:40Z</time>
      </trkpt>
      <trkpt lat="46.7337" lon="4.6735">
        <ele>362</ele>
        <time>2017-02-19T11:21:42Z</time>
      </trkpt>
      <trkpt lat="46.73365" lon="4.67347">
        <ele>363</ele>
        <time>2017-02-19T11:21:43Z</time>
      </trkpt>
      <trkpt lat="46.73361" lon="4.67344">
        <ele>363</ele>
        <time>2017-02-19T11:21:44Z</time>
      </trkpt>
      <trkpt lat="46.73356" lon="4.6734">
        <ele>364</ele>
        <time>2017-02-19T11:21:45Z</time>
      </trkpt>
      <trkpt lat="46.73352" lon="4.67337">
        <ele>364</ele>
        <time>2017-02-19T11:21:46Z</time>
      </trkpt>
      <trkpt lat="46.73346" lon="4.67334">
        <ele>364</ele>
        <time>2017-02-19T11:21:47Z</time>
      </trkpt>
      <trkpt lat="46.73341" lon="4.6733">
        <ele>365</ele>
        <time>2017-02-19T11:21:48Z</time>
      </trkpt>
      <trkpt lat="46.73336" lon="4.67326">
        <ele>365</ele>
        <time>2017-02-19T11:21:49Z</time>
      </trkpt>
      <trkpt lat="46.73332" lon="4.67322">
        <ele>366</ele>
        <time>2017-02-19T11:21:50Z</time>
      </trkpt>
      <trkpt lat="46.73327" lon="4.67318">
        <ele>366</ele>
        <time>2017-02-19T11:21:51Z</time>
      </trkpt>
      <trkpt lat="46.73323" lon="4.67315">
        <ele>367</ele>
        <time>2017-02-19T11:21:52Z</time>
      </trkpt>
      <trkpt lat="46.73319" lon="4.67312">
        <ele>368</ele>
        <time>2017-02-19T11:21:53Z</time>
      </trkpt>
      <trkpt lat="46.7331" lon="4.67308">
        <ele>368</ele>
        <time>2017-02-19T11:21:55Z</time>
      </trkpt>
      <trkpt lat="46.73306" lon="4.67305">
        <ele>369</ele>
        <time>2017-02-19T11:21:56Z</time>
      </trkpt>
      <trkpt lat="46.73298" lon="4.67299">
        <ele>369</ele>
        <time>2017-02-19T11:21:58Z</time>
      </trkpt>
      <trkpt lat="46.73291" lon="4.67294">
        <ele>370</ele>
        <time>2017-02-19T11:22:00Z</time>
      </trkpt>
      <trkpt lat="46.73284" lon="4.6729">
        <ele>370</ele>
        <time>2017-02-19T11:22:02Z</time>
      </trkpt>
      <trkpt lat="46.73276" lon="4.67286">
        <ele>371</ele>
        <time>2017-02-19T11:22:04Z</time>
      </trkpt>
      <trkpt lat="46.73269" lon="4.6728">
        <ele>371</ele>
        <time>2017-02-19T11:22:06Z</time>
      </trkpt>
      <trkpt lat="46.73262" lon="4.67275">
        <ele>372</ele>
        <time>2017-02-19T11:22:08Z</time>
      </trkpt>
      <trkpt lat="46.73253" lon="4.6727">
        <ele>372</ele>
        <time>2017-02-19T11:22:10Z</time>
      </trkpt>
      <trkpt lat="46.73245" lon="4.67264">
        <ele>372</ele>
        <time>2017-02-19T11:22:12Z</time>
      </trkpt>
      <trkpt lat="46.73237" lon="4.67259">
        <ele>373</ele>
        <time>2017-02-19T11:22:14Z</time>
      </trkpt>
      <trkpt lat="46.73233" lon="4.67256">
        <ele>373</ele>
        <time>2017-02-19T11:22:15Z</time>
      </trkpt>
      <trkpt lat="46.73225" lon="4.6725">
        <ele>373</ele>
        <time>2017-02-19T11:22:17Z</time>
      </trkpt>
      <trkpt lat="46.73218" lon="4.67244">
        <ele>373</ele>
        <time>2017-02-19T11:22:19Z</time>
      </trkpt>
      <trkpt lat="46.73211" lon="4.67238">
        <ele>374</ele>
        <time>2017-02-19T11:22:21Z</time>
      </trkpt>
      <trkpt lat="46.73204" lon="4.67232">
        <ele>375</ele>
        <time>2017-02-19T11:22:23Z</time>
      </trkpt>
      <trkpt lat="46.73199" lon="4.67228">
        <ele>376</ele>
        <time>2017-02-19T11:22:25Z</time>
      </trkpt>
      <trkpt lat="46.73192" lon="4.67222">
        <ele>377</ele>
        <time>2017-02-19T11:22:27Z</time>
      </trkpt>
      <trkpt lat="46.73185" lon="4.67215">
        <ele>378</ele>
        <time>2017-02-19T11:22:29Z</time>
      </trkpt>
      <trkpt lat="46.73178" lon="4.67209">
        <ele>378</ele>
        <time>2017-02-19T11:22:31Z</time>
      </trkpt>
      <trkpt lat="46.73172" lon="4.67202">
        <ele>378</ele>
        <time>2017-02-19T11:22:33Z</time>
      </trkpt>
      <trkpt lat="46.73166" lon="4.67196">
        <ele>378</ele>
        <time>2017-02-19T11:22:35Z</time>
      </trkpt>
      <trkpt lat="46.73159" lon="4.67188">
        <ele>379</ele>
        <time>2017-02-19T11:22:37Z</time>
      </trkpt>
      <trkpt lat="46.73154" lon="4.67182">
        <ele>379</ele>
        <time>2017-02-19T11:22:39Z</time>
      </trkpt>
      <trkpt lat="46.7315" lon="4.67175">
        <ele>380</ele>
        <time>2017-02-19T11:22:41Z</time>
      </trkpt>
      <trkpt lat="46.73144" lon="4.67168">
        <ele>380</ele>
        <time>2017-02-19T11:22:43Z</time>
      </trkpt>
      <trkpt lat="46.73139" lon="4.67159">
        <ele>381</ele>
        <time>2017-02-19T11:22:45Z</time>
      </trkpt>
      <trkpt lat="46.73134" lon="4.67152">
        <ele>381</ele>
        <time>2017-02-19T11:22:47Z</time>
      </trkpt>
      <trkpt lat="46.7313" lon="4.67146">
        <ele>381</ele>
        <time>2017-02-19T11:22:49Z</time>
      </trkpt>
      <trkpt lat="46.73125" lon="4.6714">
        <ele>382</ele>
        <time>2017-02-19T11:22:51Z</time>
      </trkpt>
      <trkpt lat="46.7312" lon="4.67133">
        <ele>382</ele>
        <time>2017-02-19T11:22:53Z</time>
      </trkpt>
      <trkpt lat="46.73114" lon="4.67126">
        <ele>383</ele>
        <time>2017-02-19T11:22:55Z</time>
      </trkpt>
      <trkpt lat="46.73108" lon="4.67118">
        <ele>383</ele>
        <time>2017-02-19T11:22:57Z</time>
      </trkpt>
      <trkpt lat="46.73103" lon="4.67109">
        <ele>383</ele>
        <time>2017-02-19T11:22:59Z</time>
      </trkpt>
      <trkpt lat="46.73098" lon="4.671">
        <ele>384</ele>
        <time>2017-02-19T11:23:01Z</time>
      </trkpt>
      <trkpt lat="46.73092" lon="4.67091">
        <ele>384</ele>
        <time>2017-02-19T11:23:03Z</time>
      </trkpt>
      <trkpt lat="46.73086" lon="4.67082">
        <ele>385</ele>
        <time>2017-02-19T11:23:05Z</time>
      </trkpt>
      <trkpt lat="46.73081" lon="4.67074">
        <ele>385</ele>
        <time>2017-02-19T11:23:07Z</time>
      </trkpt>
      <trkpt lat="46.73075" lon="4.67067">
        <ele>386</ele>
        <time>2017-02-19T11:23:09Z</time>
      </trkpt>
      <trkpt lat="46.73069" lon="4.6706">
        <ele>386</ele>
        <time>2017-02-19T11:23:11Z</time>
      </trkpt>
      <trkpt lat="46.73063" lon="4.67052">
        <ele>386</ele>
        <time>2017-02-19T11:23:13Z</time>
      </trkpt>
      <trkpt lat="46.73057" lon="4.67045">
        <ele>387</ele>
        <time>2017-02-19T11:23:15Z</time>
      </trkpt>
      <trkpt lat="46.73052" lon="4.67037">
        <ele>387</ele>
        <time>2017-02-19T11:23:17Z</time>
      </trkpt>
      <trkpt lat="46.73046" lon="4.6703">
        <ele>388</ele>
        <time>2017-02-19T11:23:19Z</time>
      </trkpt>
      <trkpt lat="46.73041" lon="4.67022">
        <ele>389</ele>
        <time>2017-02-19T11:23:21Z</time>
      </trkpt>
      <trkpt lat="46.73036" lon="4.67013">
        <ele>390</ele>
        <time>2017-02-19T11:23:23Z</time>
      </trkpt>
      <trkpt lat="46.73032" lon="4.67004">
        <ele>391</ele>
        <time>2017-02-19T11:23:25Z</time>
      </trkpt>
      <trkpt lat="46.73027" lon="4.66995">
        <ele>392</ele>
        <time>2017-02-19T11:23:27Z</time>
      </trkpt>
      <trkpt lat="46.73023" lon="4.66989">
        <ele>392</ele>
        <time>2017-02-19T11:23:29Z</time>
      </trkpt>
      <trkpt lat="46.73018" lon="4.66982">
        <ele>392</ele>
        <time>2017-02-19T11:23:31Z</time>
      </trkpt>
      <trkpt lat="46.73013" lon="4.66974">
        <ele>392</ele>
        <time>2017-02-19T11:23:33Z</time>
      </trkpt>
      <trkpt lat="46.73007" lon="4.66967">
        <ele>393</ele>
        <time>2017-02-19T11:23:35Z</time>
      </trkpt>
      <trkpt lat="46.73002" lon="4.66959">
        <ele>393</ele>
        <time>2017-02-19T11:23:37Z</time>
      </trkpt>
      <trkpt lat="46.72997" lon="4.66951">
        <ele>393</ele>
        <time>2017-02-19T11:23:39Z</time>
      </trkpt>
      <trkpt lat="46.72991" lon="4.66943">
        <ele>393</ele>
        <time>2017-02-19T11:23:41Z</time>
      </trkpt>
      <trkpt lat="46.72971" lon="4.6691">
        <ele>394</ele>
        <time>2017-02-19T11:23:49Z</time>
      </trkpt>
      <trkpt lat="46.7296" lon="4.66878">
        <ele>394</ele>
        <time>2017-02-19T11:23:57Z</time>
      </trkpt>
      <trkpt lat="46.72947" lon="4.66839">
        <ele>393</ele>
        <time>2017-02-19T11:24:05Z</time>
      </trkpt>
      <trkpt lat="46.72942" lon="4.66822">
        <ele>393</ele>
        <time>2017-02-19T11:24:09Z</time>
      </trkpt>
      <trkpt lat="46.72939" lon="4.66813">
        <ele>393</ele>
        <time>2017-02-19T11:24:11Z</time>
      </trkpt>
      <trkpt lat="46.72937" lon="4.66803">
        <ele>393</ele>
        <time>2017-02-19T11:24:13Z</time>
      </trkpt>
      <trkpt lat="46.72934" lon="4.66794">
        <ele>393</ele>
        <time>2017-02-19T11:24:15Z</time>
      </trkpt>
      <trkpt lat="46.72932" lon="4.66783">
        <ele>393</ele>
        <time>2017-02-19T11:24:17Z</time>
      </trkpt>
      <trkpt lat="46.72929" lon="4.66772">
        <ele>393</ele>
        <time>2017-02-19T11:24:19Z</time>
      </trkpt>
      <trkpt lat="46.72927" lon="4.66761">
        <ele>393</ele>
        <time>2017-02-19T11:24:21Z</time>
      </trkpt>
      <trkpt lat="46.72925" lon="4.66751">
        <ele>393</ele>
        <time>2017-02-19T11:24:23Z</time>
      </trkpt>
      <trkpt lat="46.72923" lon="4.66741">
        <ele>393</ele>
        <time>2017-02-19T11:24:25Z</time>
      </trkpt>
      <trkpt lat="46.72921" lon="4.6673">
        <ele>393</ele>
        <time>2017-02-19T11:24:27Z</time>
      </trkpt>
      <trkpt lat="46.72919" lon="4.66719">
        <ele>394</ele>
        <time>2017-02-19T11:24:29Z</time>
      </trkpt>
      <trkpt lat="46.72917" lon="4.66708">
        <ele>394</ele>
        <time>2017-02-19T11:24:31Z</time>
      </trkpt>
      <trkpt lat="46.72915" lon="4.66697">
        <ele>394</ele>
        <time>2017-02-19T11:24:33Z</time>
      </trkpt>
      <trkpt lat="46.72913" lon="4.66688">
        <ele>394</ele>
        <time>2017-02-19T11:24:35Z</time>
      </trkpt>
      <trkpt lat="46.72912" lon="4.6668">
        <ele>395</ele>
        <time>2017-02-19T11:24:37Z</time>
      </trkpt>
      <trkpt lat="46.7291" lon="4.66672">
        <ele>395</ele>
        <time>2017-02-19T11:24:39Z</time>
      </trkpt>
      <trkpt lat="46.72908" lon="4.66663">
        <ele>395</ele>
        <time>2017-02-19T11:24:41Z</time>
      </trkpt>
      <trkpt lat="46.72905" lon="4.66654">
        <ele>394</ele>
        <time>2017-02-19T11:24:43Z</time>
      </trkpt>
      <trkpt lat="46.72903" lon="4.66645">
        <ele>394</ele>
        <time>2017-02-19T11:24:45Z</time>
      </trkpt>
      <trkpt lat="46.72901" lon="4.66637">
        <ele>393</ele>
        <time>2017-02-19T11:24:47Z</time>
      </trkpt>
      <trkpt lat="46.72898" lon="4.66629">
        <ele>393</ele>
        <time>2017-02-19T11:24:49Z</time>
      </trkpt>
      <trkpt lat="46.72895" lon="4.66621">
        <ele>392</ele>
        <time>2017-02-19T11:24:51Z</time>
      </trkpt>
      <trkpt lat="46.72892" lon="4.66614">
        <ele>391</ele>
        <time>2017-02-19T11:24:53Z</time>
      </trkpt>
      <trkpt lat="46.72888" lon="4.66607">
        <ele>391</ele>
        <time>2017-02-19T11:24:55Z</time>
      </trkpt>
      <trkpt lat="46.72884" lon="4.66597">
        <ele>390</ele>
        <time>2017-02-19T11:24:57Z</time>
      </trkpt>
      <trkpt lat="46.72882" lon="4.66591">
        <ele>390</ele>
        <time>2017-02-19T11:24:58Z</time>
      </trkpt>
      <trkpt lat="46.72879" lon="4.66586">
        <ele>390</ele>
        <time>2017-02-19T11:24:59Z</time>
      </trkpt>
      <trkpt lat="46.72877" lon="4.6658">
        <ele>391</ele>
        <time>2017-02-19T11:25:00Z</time>
      </trkpt>
      <trkpt lat="46.72871" lon="4.6657">
        <ele>391</ele>
        <time>2017-02-19T11:25:02Z</time>
      </trkpt>
      <trkpt lat="46.72867" lon="4.66562">
        <ele>392</ele>
        <time>2017-02-19T11:25:04Z</time>
      </trkpt>
      <trkpt lat="46.72862" lon="4.66554">
        <ele>392</ele>
        <time>2017-02-19T11:25:06Z</time>
      </trkpt>
      <trkpt lat="46.72857" lon="4.66546">
        <ele>393</ele>
        <time>2017-02-19T11:25:08Z</time>
      </trkpt>
      <trkpt lat="46.72852" lon="4.66538">
        <ele>393</ele>
        <time>2017-02-19T11:25:10Z</time>
      </trkpt>
      <trkpt lat="46.72847" lon="4.6653">
        <ele>392</ele>
        <time>2017-02-19T11:25:12Z</time>
      </trkpt>
      <trkpt lat="46.72841" lon="4.66521">
        <ele>392</ele>
        <time>2017-02-19T11:25:14Z</time>
      </trkpt>
      <trkpt lat="46.72835" lon="4.66511">
        <ele>392</ele>
        <time>2017-02-19T11:25:16Z</time>
      </trkpt>
      <trkpt lat="46.7283" lon="4.66503">
        <ele>392</ele>
        <time>2017-02-19T11:25:18Z</time>
      </trkpt>
      <trkpt lat="46.72825" lon="4.66494">
        <ele>392</ele>
        <time>2017-02-19T11:25:20Z</time>
      </trkpt>
      <trkpt lat="46.72822" lon="4.66488">
        <ele>392</ele>
        <time>2017-02-19T11:25:21Z</time>
      </trkpt>
      <trkpt lat="46.72817" lon="4.66479">
        <ele>392</ele>
        <time>2017-02-19T11:25:23Z</time>
      </trkpt>
      <trkpt lat="46.72812" lon="4.66471">
        <ele>393</ele>
        <time>2017-02-19T11:25:25Z</time>
      </trkpt>
      <trkpt lat="46.72808" lon="4.66464">
        <ele>394</ele>
        <time>2017-02-19T11:25:27Z</time>
      </trkpt>
      <trkpt lat="46.72804" lon="4.66457">
        <ele>395</ele>
        <time>2017-02-19T11:25:29Z</time>
      </trkpt>
      <trkpt lat="46.72799" lon="4.66448">
        <ele>396</ele>
        <time>2017-02-19T11:25:31Z</time>
      </trkpt>
      <trkpt lat="46.72795" lon="4.6644">
        <ele>397</ele>
        <time>2017-02-19T11:25:33Z</time>
      </trkpt>
      <trkpt lat="46.72791" lon="4.66433">
        <ele>398</ele>
        <time>2017-02-19T11:25:35Z</time>
      </trkpt>
      <trkpt lat="46.72787" lon="4.66427">
        <ele>399</ele>
        <time>2017-02-19T11:25:37Z</time>
      </trkpt>
      <trkpt lat="46.72783" lon="4.66421">
        <ele>400</ele>
        <time>2017-02-19T11:25:39Z</time>
      </trkpt>
      <trkpt lat="46.72779" lon="4.66416">
        <ele>401</ele>
        <time>2017-02-19T11:25:41Z</time>
      </trkpt>
      <trkpt lat="46.72776" lon="4.6641">
        <ele>402</ele>
        <time>2017-02-19T11:25:43Z</time>
      </trkpt>
      <trkpt lat="46.72772" lon="4.66403">
        <ele>403</ele>
        <time>2017-02-19T11:25:46Z</time>
      </trkpt>
      <trkpt lat="46.72768" lon="4.66397">
        <ele>404</ele>
        <time>2017-02-19T11:25:49Z</time>
      </trkpt>
      <trkpt lat="46.72764" lon="4.66391">
        <ele>405</ele>
        <time>2017-02-19T11:25:52Z</time>
      </trkpt>
      <trkpt lat="46.72759" lon="4.66384">
        <ele>406</ele>
        <time>2017-02-19T11:25:55Z</time>
      </trkpt>
      <trkpt lat="46.72754" lon="4.66378">
        <ele>407</ele>
        <time>2017-02-19T11:25:58Z</time>
      </trkpt>
      <trkpt lat="46.7275" lon="4.66375">
        <ele>408</ele>
        <time>2017-02-19T11:26:00Z</time>
      </trkpt>
      <trkpt lat="46.72746" lon="4.66371">
        <ele>410</ele>
        <time>2017-02-19T11:26:03Z</time>
      </trkpt>
      <trkpt lat="46.72741" lon="4.66366">
        <ele>411</ele>
        <time>2017-02-19T11:26:06Z</time>
      </trkpt>
      <trkpt lat="46.72737" lon="4.6636">
        <ele>412</ele>
        <time>2017-02-19T11:26:09Z</time>
      </trkpt>
      <trkpt lat="46.72733" lon="4.66354">
        <ele>413</ele>
        <time>2017-02-19T11:26:12Z</time>
      </trkpt>
      <trkpt lat="46.72728" lon="4.6635">
        <ele>414</ele>
        <time>2017-02-19T11:26:15Z</time>
      </trkpt>
      <trkpt lat="46.72723" lon="4.66346">
        <ele>415</ele>
        <time>2017-02-19T11:26:18Z</time>
      </trkpt>
      <trkpt lat="46.72718" lon="4.66341">
        <ele>416</ele>
        <time>2017-02-19T11:26:21Z</time>
      </trkpt>
      <trkpt lat="46.72713" lon="4.66336">
        <ele>416</ele>
        <time>2017-02-19T11:26:24Z</time>
      </trkpt>
      <trkpt lat="46.72709" lon="4.66332">
        <ele>417</ele>
        <time>2017-02-19T11:26:27Z</time>
      </trkpt>
      <trkpt lat="46.72706" lon="4.66327">
        <ele>418</ele>
        <time>2017-02-19T11:26:30Z</time>
      </trkpt>
      <trkpt lat="46.72701" lon="4.66322">
        <ele>418</ele>
        <time>2017-02-19T11:26:34Z</time>
      </trkpt>
      <trkpt lat="46.72697" lon="4.66314">
        <ele>419</ele>
        <time>2017-02-19T11:26:37Z</time>
      </trkpt>
      <trkpt lat="46.72693" lon="4.66307">
        <ele>419</ele>
        <time>2017-02-19T11:26:41Z</time>
      </trkpt>
      <trkpt lat="46.72689" lon="4.663">
        <ele>419</ele>
        <time>2017-02-19T11:26:44Z</time>
      </trkpt>
      <trkpt lat="46.72686" lon="4.66293">
        <ele>419</ele>
        <time>2017-02-19T11:26:47Z</time>
      </trkpt>
      <trkpt lat="46.72685" lon="4.66284">
        <ele>419</ele>
        <time>2017-02-19T11:26:50Z</time>
      </trkpt>
      <trkpt lat="46.72683" lon="4.66278">
        <ele>420</ele>
        <time>2017-02-19T11:26:52Z</time>
      </trkpt>
      <trkpt lat="46.7268" lon="4.66271">
        <ele>420</ele>
        <time>2017-02-19T11:26:55Z</time>
      </trkpt>
      <trkpt lat="46.72678" lon="4.66265">
        <ele>421</ele>
        <time>2017-02-19T11:26:57Z</time>
      </trkpt>
      <trkpt lat="46.72676" lon="4.66259">
        <ele>422</ele>
        <time>2017-02-19T11:26:59Z</time>
      </trkpt>
      <trkpt lat="46.72673" lon="4.6625">
        <ele>422</ele>
        <time>2017-02-19T11:27:02Z</time>
      </trkpt>
      <trkpt lat="46.72672" lon="4.66243">
        <ele>422</ele>
        <time>2017-02-19T11:27:05Z</time>
      </trkpt>
      <trkpt lat="46.7267" lon="4.66236">
        <ele>422</ele>
        <time>2017-02-19T11:27:08Z</time>
      </trkpt>
      <trkpt lat="46.72668" lon="4.66229">
        <ele>421</ele>
        <time>2017-02-19T11:27:10Z</time>
      </trkpt>
      <trkpt lat="46.72665" lon="4.66221">
        <ele>421</ele>
        <time>2017-02-19T11:27:12Z</time>
      </trkpt>
      <trkpt lat="46.72663" lon="4.66212">
        <ele>420</ele>
        <time>2017-02-19T11:27:14Z</time>
      </trkpt>
      <trkpt lat="46.72662" lon="4.66205">
        <ele>420</ele>
        <time>2017-02-19T11:27:16Z</time>
      </trkpt>
      <trkpt lat="46.7266" lon="4.66198">
        <ele>420</ele>
        <time>2017-02-19T11:27:18Z</time>
      </trkpt>
      <trkpt lat="46.72657" lon="4.66191">
        <ele>420</ele>
        <time>2017-02-19T11:27:20Z</time>
      </trkpt>
      <trkpt lat="46.72655" lon="4.66184">
        <ele>420</ele>
        <time>2017-02-19T11:27:22Z</time>
      </trkpt>
      <trkpt lat="46.72653" lon="4.66178">
        <ele>419</ele>
        <time>2017-02-19T11:27:24Z</time>
      </trkpt>
      <trkpt lat="46.72651" lon="4.6617">
        <ele>419</ele>
        <time>2017-02-19T11:27:26Z</time>
      </trkpt>
      <trkpt lat="46.72649" lon="4.66162">
        <ele>418</ele>
        <time>2017-02-19T11:27:28Z</time>
      </trkpt>
      <trkpt lat="46.72647" lon="4.66153">
        <ele>418</ele>
        <time>2017-02-19T11:27:30Z</time>
      </trkpt>
      <trkpt lat="46.72644" lon="4.66144">
        <ele>417</ele>
        <time>2017-02-19T11:27:32Z</time>
      </trkpt>
      <trkpt lat="46.72642" lon="4.66135">
        <ele>417</ele>
        <time>2017-02-19T11:27:34Z</time>
      </trkpt>
      <trkpt lat="46.7264" lon="4.66126">
        <ele>417</ele>
        <time>2017-02-19T11:27:36Z</time>
      </trkpt>
      <trkpt lat="46.72637" lon="4.66116">
        <ele>417</ele>
        <time>2017-02-19T11:27:38Z</time>
      </trkpt>
      <trkpt lat="46.72635" lon="4.66107">
        <ele>417</ele>
        <time>2017-02-19T11:27:40Z</time>
      </trkpt>
      <trkpt lat="46.72632" lon="4.66097">
        <ele>417</ele>
        <time>2017-02-19T11:27:42Z</time>
      </trkpt>
      <trkpt lat="46.72629" lon="4.66086">
        <ele>416</ele>
        <time>2017-02-19T11:27:44Z</time>
      </trkpt>
      <trkpt lat="46.72627" lon="4.66078">
        <ele>416</ele>
        <time>2017-02-19T11:27:45Z</time>
      </trkpt>
      <trkpt lat="46.72625" lon="4.66071">
        <ele>415</ele>
        <time>2017-02-19T11:27:46Z</time>
      </trkpt>
      <trkpt lat="46.72623" lon="4.66063">
        <ele>415</ele>
        <time>2017-02-19T11:27:47Z</time>
      </trkpt>
      <trkpt lat="46.7262" lon="4.66056">
        <ele>415</ele>
        <time>2017-02-19T11:27:48Z</time>
      </trkpt>
      <trkpt lat="46.72619" lon="4.66048">
        <ele>414</ele>
        <time>2017-02-19T11:27:49Z</time>
      </trkpt>
      <trkpt lat="46.72617" lon="4.6604">
        <ele>414</ele>
        <time>2017-02-19T11:27:50Z</time>
      </trkpt>
      <trkpt lat="46.72615" lon="4.66033">
        <ele>414</ele>
        <time>2017-02-19T11:27:51Z</time>
      </trkpt>
      <trkpt lat="46.72612" lon="4.66025">
        <ele>414</ele>
        <time>2017-02-19T11:27:52Z</time>
      </trkpt>
      <trkpt lat="46.7261" lon="4.66017">
        <ele>414</ele>
        <time>2017-02-19T11:27:53Z</time>
      </trkpt>
      <trkpt lat="46.72607" lon="4.6601">
        <ele>414</ele>
        <time>2017-02-19T11:27:54Z</time>
      </trkpt>
      <trkpt lat="46.72605" lon="4.66001">
        <ele>413</ele>
        <time>2017-02-19T11:27:55Z</time>
      </trkpt>
      <trkpt lat="46.72603" lon="4.65993">
        <ele>413</ele>
        <time>2017-02-19T11:27:56Z</time>
      </trkpt>
      <trkpt lat="46.726" lon="4.65984">
        <ele>413</ele>
        <time>2017-02-19T11:27:57Z</time>
      </trkpt>
      <trkpt lat="46.72598" lon="4.65976">
        <ele>413</ele>
        <time>2017-02-19T11:27:58Z</time>
      </trkpt>
      <trkpt lat="46.72595" lon="4.65967">
        <ele>413</ele>
        <time>2017-02-19T11:27:59Z</time>
      </trkpt>
      <trkpt lat="46.72591" lon="4.65957">
        <ele>413</ele>
        <time>2017-02-19T11:28:00Z</time>
      </trkpt>
      <trkpt lat="46.72589" lon="4.65946">
        <ele>413</ele>
        <time>2017-02-19T11:28:01Z</time>
      </trkpt>
      <trkpt lat="46.72586" lon="4.65935">
        <ele>413</ele>
        <time>2017-02-19T11:28:02Z</time>
      </trkpt>
      <trkpt lat="46.72583" lon="4.65924">
        <ele>412</ele>
        <time>2017-02-19T11:28:03Z</time>
      </trkpt>
      <trkpt lat="46.7258" lon="4.65913">
        <ele>412</ele>
        <time>2017-02-19T11:28:04Z</time>
      </trkpt>
      <trkpt lat="46.72577" lon="4.65903">
        <ele>412</ele>
        <time>2017-02-19T11:28:05Z</time>
      </trkpt>
      <trkpt lat="46.72574" lon="4.65892">
        <ele>411</ele>
        <time>2017-02-19T11:28:06Z</time>
      </trkpt>
      <trkpt lat="46.72571" lon="4.65882">
        <ele>411</ele>
        <time>2017-02-19T11:28:07Z</time>
      </trkpt>
      <trkpt lat="46.72568" lon="4.6587">
        <ele>411</ele>
        <time>2017-02-19T11:28:08Z</time>
      </trkpt>
      <trkpt lat="46.72565" lon="4.65859">
        <ele>410</ele>
        <time>2017-02-19T11:28:09Z</time>
      </trkpt>
      <trkpt lat="46.72562" lon="4.65849">
        <ele>410</ele>
        <time>2017-02-19T11:28:10Z</time>
      </trkpt>
      <trkpt lat="46.72559" lon="4.65838">
        <ele>410</ele>
        <time>2017-02-19T11:28:11Z</time>
      </trkpt>
      <trkpt lat="46.72556" lon="4.65827">
        <ele>409</ele>
        <time>2017-02-19T11:28:12Z</time>
      </trkpt>
      <trkpt lat="46.72551" lon="4.65806">
        <ele>409</ele>
        <time>2017-02-19T11:28:14Z</time>
      </trkpt>
      <trkpt lat="46.72548" lon="4.65795">
        <ele>409</ele>
        <time>2017-02-19T11:28:15Z</time>
      </trkpt>
      <trkpt lat="46.72545" lon="4.65785">
        <ele>408</ele>
        <time>2017-02-19T11:28:16Z</time>
      </trkpt>
      <trkpt lat="46.72543" lon="4.65774">
        <ele>408</ele>
        <time>2017-02-19T11:28:17Z</time>
      </trkpt>
      <trkpt lat="46.72539" lon="4.65763">
        <ele>407</ele>
        <time>2017-02-19T11:28:18Z</time>
      </trkpt>
      <trkpt lat="46.72536" lon="4.65751">
        <ele>407</ele>
        <time>2017-02-19T11:28:19Z</time>
      </trkpt>
      <trkpt lat="46.72533" lon="4.6574">
        <ele>406</ele>
        <time>2017-02-19T11:28:20Z</time>
      </trkpt>
      <trkpt lat="46.7253" lon="4.65729">
        <ele>406</ele>
        <time>2017-02-19T11:28:21Z</time>
      </trkpt>
      <trkpt lat="46.72526" lon="4.65717">
        <ele>405</ele>
        <time>2017-02-19T11:28:22Z</time>
      </trkpt>
      <trkpt lat="46.72522" lon="4.65705">
        <ele>405</ele>
        <time>2017-02-19T11:28:23Z</time>
      </trkpt>
      <trkpt lat="46.72519" lon="4.65692">
        <ele>404</ele>
        <time>2017-02-19T11:28:24Z</time>
      </trkpt>
      <trkpt lat="46.72517" lon="4.65679">
        <ele>404</ele>
        <time>2017-02-19T11:28:25Z</time>
      </trkpt>
      <trkpt lat="46.72514" lon="4.65666">
        <ele>403</ele>
        <time>2017-02-19T11:28:26Z</time>
      </trkpt>
      <trkpt lat="46.72511" lon="4.65653">
        <ele>403</ele>
        <time>2017-02-19T11:28:27Z</time>
      </trkpt>
      <trkpt lat="46.72507" lon="4.6564">
        <ele>403</ele>
        <time>2017-02-19T11:28:28Z</time>
      </trkpt>
      <trkpt lat="46.72504" lon="4.65627">
        <ele>402</ele>
        <time>2017-02-19T11:28:29Z</time>
      </trkpt>
      <trkpt lat="46.725" lon="4.65614">
        <ele>402</ele>
        <time>2017-02-19T11:28:30Z</time>
      </trkpt>
      <trkpt lat="46.72497" lon="4.65602">
        <ele>402</ele>
        <time>2017-02-19T11:28:31Z</time>
      </trkpt>
      <trkpt lat="46.72494" lon="4.65589">
        <ele>401</ele>
        <time>2017-02-19T11:28:32Z</time>
      </trkpt>
      <trkpt lat="46.7249" lon="4.65577">
        <ele>401</ele>
        <time>2017-02-19T11:28:33Z</time>
      </trkpt>
      <trkpt lat="46.72487" lon="4.65565">
        <ele>401</ele>
        <time>2017-02-19T11:28:34Z</time>
      </trkpt>
      <trkpt lat="46.72484" lon="4.65553">
        <ele>400</ele>
        <time>2017-02-19T11:28:35Z</time>
      </trkpt>
      <trkpt lat="46.72481" lon="4.65542">
        <ele>400</ele>
        <time>2017-02-19T11:28:36Z</time>
      </trkpt>
      <trkpt lat="46.72478" lon="4.6553">
        <ele>400</ele>
        <time>2017-02-19T11:28:37Z</time>
      </trkpt>
      <trkpt lat="46.72475" lon="4.65519">
        <ele>400</ele>
        <time>2017-02-19T11:28:38Z</time>
      </trkpt>
      <trkpt lat="46.72472" lon="4.65507">
        <ele>399</ele>
        <time>2017-02-19T11:28:39Z</time>
      </trkpt>
      <trkpt lat="46.72469" lon="4.65495">
        <ele>399</ele>
        <time>2017-02-19T11:28:40Z</time>
      </trkpt>
      <trkpt lat="46.72466" lon="4.65484">
        <ele>399</ele>
        <time>2017-02-19T11:28:41Z</time>
      </trkpt>
      <trkpt lat="46.72462" lon="4.65472">
        <ele>399</ele>
        <time>2017-02-19T11:28:42Z</time>
      </trkpt>
      <trkpt lat="46.72459" lon="4.65461">
        <ele>398</ele>
        <time>2017-02-19T11:28:43Z</time>
      </trkpt>
      <trkpt lat="46.72456" lon="4.65449">
        <ele>398</ele>
        <time>2017-02-19T11:28:44Z</time>
      </trkpt>
      <trkpt lat="46.72453" lon="4.65437">
        <ele>398</ele>
        <time>2017-02-19T11:28:45Z</time>
      </trkpt>
      <trkpt lat="46.7245" lon="4.65424">
        <ele>398</ele>
        <time>2017-02-19T11:28:46Z</time>
      </trkpt>
      <trkpt lat="46.72446" lon="4.65412">
        <ele>397</ele>
        <time>2017-02-19T11:28:47Z</time>
      </trkpt>
      <trkpt lat="46.72443" lon="4.654">
        <ele>397</ele>
        <time>2017-02-19T11:28:48Z</time>
      </trkpt>
      <trkpt lat="46.7244" lon="4.65387">
        <ele>396</ele>
        <time>2017-02-19T11:28:49Z</time>
      </trkpt>
      <trkpt lat="46.72437" lon="4.65375">
        <ele>396</ele>
        <time>2017-02-19T11:28:50Z</time>
      </trkpt>
      <trkpt lat="46.72434" lon="4.65363">
        <ele>395</ele>
        <time>2017-02-19T11:28:51Z</time>
      </trkpt>
      <trkpt lat="46.7243" lon="4.65351">
        <ele>395</ele>
        <time>2017-02-19T11:28:52Z</time>
      </trkpt>
      <trkpt lat="46.72427" lon="4.65338">
        <ele>395</ele>
        <time>2017-02-19T11:28:53Z</time>
      </trkpt>
      <trkpt lat="46.72424" lon="4.65326">
        <ele>394</ele>
        <time>2017-02-19T11:28:54Z</time>
      </trkpt>
      <trkpt lat="46.72421" lon="4.65315">
        <ele>394</ele>
        <time>2017-02-19T11:28:55Z</time>
      </trkpt>
      <trkpt lat="46.72418" lon="4.65303">
        <ele>394</ele>
        <time>2017-02-19T11:28:56Z</time>
      </trkpt>
      <trkpt lat="46.72414" lon="4.65292">
        <ele>393</ele>
        <time>2017-02-19T11:28:57Z</time>
      </trkpt>
      <trkpt lat="46.72411" lon="4.65281">
        <ele>393</ele>
        <time>2017-02-19T11:28:58Z</time>
      </trkpt>
      <trkpt lat="46.72408" lon="4.6527">
        <ele>393</ele>
        <time>2017-02-19T11:28:59Z</time>
      </trkpt>
      <trkpt lat="46.72405" lon="4.65258">
        <ele>392</ele>
        <time>2017-02-19T11:29:00Z</time>
      </trkpt>
      <trkpt lat="46.72401" lon="4.65246">
        <ele>392</ele>
        <time>2017-02-19T11:29:01Z</time>
      </trkpt>
      <trkpt lat="46.72398" lon="4.65234">
        <ele>392</ele>
        <time>2017-02-19T11:29:02Z</time>
      </trkpt>
      <trkpt lat="46.72395" lon="4.6522">
        <ele>391</ele>
        <time>2017-02-19T11:29:03Z</time>
      </trkpt>
      <trkpt lat="46.72392" lon="4.65207">
        <ele>391</ele>
        <time>2017-02-19T11:29:04Z</time>
      </trkpt>
      <trkpt lat="46.72388" lon="4.65193">
        <ele>390</ele>
        <time>2017-02-19T11:29:05Z</time>
      </trkpt>
      <trkpt lat="46.72385" lon="4.65179">
        <ele>390</ele>
        <time>2017-02-19T11:29:06Z</time>
      </trkpt>
      <trkpt lat="46.72381" lon="4.65165">
        <ele>390</ele>
        <time>2017-02-19T11:29:07Z</time>
      </trkpt>
      <trkpt lat="46.72377" lon="4.65152">
        <ele>389</ele>
        <time>2017-02-19T11:29:08Z</time>
      </trkpt>
      <trkpt lat="46.72374" lon="4.65139">
        <ele>389</ele>
        <time>2017-02-19T11:29:09Z</time>
      </trkpt>
      <trkpt lat="46.72371" lon="4.65126">
        <ele>389</ele>
        <time>2017-02-19T11:29:10Z</time>
      </trkpt>
      <trkpt lat="46.72368" lon="4.65114">
        <ele>388</ele>
        <time>2017-02-19T11:29:11Z</time>
      </trkpt>
      <trkpt lat="46.72364" lon="4.65103">
        <ele>388</ele>
        <time>2017-02-19T11:29:12Z</time>
      </trkpt>
      <trkpt lat="46.72361" lon="4.65091">
        <ele>388</ele>
        <time>2017-02-19T11:29:13Z</time>
      </trkpt>
      <trkpt lat="46.72357" lon="4.6508">
        <ele>388</ele>
        <time>2017-02-19T11:29:14Z</time>
      </trkpt>
      <trkpt lat="46.72355" lon="4.6507">
        <ele>388</ele>
        <time>2017-02-19T11:29:15Z</time>
      </trkpt>
      <trkpt lat="46.72352" lon="4.65059">
        <ele>388</ele>
        <time>2017-02-19T11:29:16Z</time>
      </trkpt>
      <trkpt lat="46.72349" lon="4.65049">
        <ele>388</ele>
        <time>2017-02-19T11:29:17Z</time>
      </trkpt>
      <trkpt lat="46.72346" lon="4.65039">
        <ele>388</ele>
        <time>2017-02-19T11:29:18Z</time>
      </trkpt>
      <trkpt lat="46.72343" lon="4.65028">
        <ele>388</ele>
        <time>2017-02-19T11:29:19Z</time>
      </trkpt>
      <trkpt lat="46.7234" lon="4.65018">
        <ele>388</ele>
        <time>2017-02-19T11:29:20Z</time>
      </trkpt>
      <trkpt lat="46.72338" lon="4.65007">
        <ele>388</ele>
        <time>2017-02-19T11:29:21Z</time>
      </trkpt>
      <trkpt lat="46.72335" lon="4.64997">
        <ele>388</ele>
        <time>2017-02-19T11:29:22Z</time>
      </trkpt>
      <trkpt lat="46.72332" lon="4.64986">
        <ele>387</ele>
        <time>2017-02-19T11:29:23Z</time>
      </trkpt>
      <trkpt lat="46.72329" lon="4.64976">
        <ele>387</ele>
        <time>2017-02-19T11:29:24Z</time>
      </trkpt>
      <trkpt lat="46.72326" lon="4.64965">
        <ele>387</ele>
        <time>2017-02-19T11:29:25Z</time>
      </trkpt>
      <trkpt lat="46.72324" lon="4.64955">
        <ele>387</ele>
        <time>2017-02-19T11:29:26Z</time>
      </trkpt>
      <trkpt lat="46.72321" lon="4.64945">
        <ele>387</ele>
        <time>2017-02-19T11:29:27Z</time>
      </trkpt>
      <trkpt lat="46.72318" lon="4.64936">
        <ele>387</ele>
        <time>2017-02-19T11:29:28Z</time>
      </trkpt>
      <trkpt lat="46.72316" lon="4.64928">
        <ele>387</ele>
        <time>2017-02-19T11:29:29Z</time>
      </trkpt>
      <trkpt lat="46.72313" lon="4.64919">
        <ele>386</ele>
        <time>2017-02-19T11:29:30Z</time>
      </trkpt>
      <trkpt lat="46.7231" lon="4.6491">
        <ele>386</ele>
        <time>2017-02-19T11:29:31Z</time>
      </trkpt>
      <trkpt lat="46.72307" lon="4.649">
        <ele>386</ele>
        <time>2017-02-19T11:29:32Z</time>
      </trkpt>
      <trkpt lat="46.72305" lon="4.6489">
        <ele>386</ele>
        <time>2017-02-19T11:29:33Z</time>
      </trkpt>
      <trkpt lat="46.72302" lon="4.64881">
        <ele>386</ele>
        <time>2017-02-19T11:29:34Z</time>
      </trkpt>
      <trkpt lat="46.723" lon="4.64871">
        <ele>386</ele>
        <time>2017-02-19T11:29:35Z</time>
      </trkpt>
      <trkpt lat="46.72297" lon="4.64862">
        <ele>386</ele>
        <time>2017-02-19T11:29:36Z</time>
      </trkpt>
      <trkpt lat="46.72295" lon="4.64854">
        <ele>386</ele>
        <time>2017-02-19T11:29:37Z</time>
      </trkpt>
      <trkpt lat="46.72294" lon="4.64846">
        <ele>386</ele>
        <time>2017-02-19T11:29:38Z</time>
      </trkpt>
      <trkpt lat="46.72292" lon="4.64839">
        <ele>386</ele>
        <time>2017-02-19T11:29:39Z</time>
      </trkpt>
      <trkpt lat="46.7229" lon="4.64831">
        <ele>386</ele>
        <time>2017-02-19T11:29:40Z</time>
      </trkpt>
      <trkpt lat="46.72288" lon="4.64823">
        <ele>386</ele>
        <time>2017-02-19T11:29:41Z</time>
      </trkpt>
      <trkpt lat="46.72287" lon="4.64816">
        <ele>387</ele>
        <time>2017-02-19T11:29:42Z</time>
      </trkpt>
      <trkpt lat="46.72284" lon="4.64802">
        <ele>387</ele>
        <time>2017-02-19T11:29:44Z</time>
      </trkpt>
      <trkpt lat="46.72282" lon="4.64796">
        <ele>387</ele>
        <time>2017-02-19T11:29:45Z</time>
      </trkpt>
      <trkpt lat="46.72281" lon="4.64789">
        <ele>387</ele>
        <time>2017-02-19T11:29:46Z</time>
      </trkpt>
      <trkpt lat="46.72278" lon="4.64779">
        <ele>387</ele>
        <time>2017-02-19T11:29:48Z</time>
      </trkpt>
      <trkpt lat="46.72275" lon="4.64769">
        <ele>388</ele>
        <time>2017-02-19T11:29:50Z</time>
      </trkpt>
      <trkpt lat="46.72272" lon="4.64759">
        <ele>389</ele>
        <time>2017-02-19T11:29:52Z</time>
      </trkpt>
      <trkpt lat="46.72269" lon="4.64747">
        <ele>390</ele>
        <time>2017-02-19T11:29:54Z</time>
      </trkpt>
      <trkpt lat="46.72267" lon="4.64737">
        <ele>392</ele>
        <time>2017-02-19T11:29:56Z</time>
      </trkpt>
      <trkpt lat="46.72265" lon="4.64729">
        <ele>394</ele>
        <time>2017-02-19T11:29:58Z</time>
      </trkpt>
      <trkpt lat="46.72264" lon="4.64721">
        <ele>397</ele>
        <time>2017-02-19T11:30:00Z</time>
      </trkpt>
      <trkpt lat="46.72261" lon="4.64712">
        <ele>399</ele>
        <time>2017-02-19T11:30:02Z</time>
      </trkpt>
      <trkpt lat="46.7226" lon="4.64706">
        <ele>402</ele>
        <time>2017-02-19T11:30:03Z</time>
      </trkpt>
      <trkpt lat="46.72256" lon="4.64695">
        <ele>404</ele>
        <time>2017-02-19T11:30:05Z</time>
      </trkpt>
      <trkpt lat="46.72252" lon="4.64684">
        <ele>404</ele>
        <time>2017-02-19T11:30:07Z</time>
      </trkpt>
      <trkpt lat="46.7225" lon="4.64673">
        <ele>404</ele>
        <time>2017-02-19T11:30:09Z</time>
      </trkpt>
      <trkpt lat="46.72248" lon="4.64663">
        <ele>401</ele>
        <time>2017-02-19T11:30:11Z</time>
      </trkpt>
      <trkpt lat="46.72244" lon="4.64653">
        <ele>398</ele>
        <time>2017-02-19T11:30:13Z</time>
      </trkpt>
      <trkpt lat="46.7224" lon="4.64642">
        <ele>394</ele>
        <time>2017-02-19T11:30:15Z</time>
      </trkpt>
      <trkpt lat="46.72238" lon="4.64636">
        <ele>391</ele>
        <time>2017-02-19T11:30:16Z</time>
      </trkpt>
      <trkpt lat="46.72236" lon="4.64629">
        <ele>388</ele>
        <time>2017-02-19T11:30:17Z</time>
      </trkpt>
      <trkpt lat="46.72234" lon="4.64621">
        <ele>387</ele>
        <time>2017-02-19T11:30:18Z</time>
      </trkpt>
      <trkpt lat="46.72231" lon="4.64612">
        <ele>386</ele>
        <time>2017-02-19T11:30:19Z</time>
      </trkpt>
      <trkpt lat="46.72229" lon="4.64602">
        <ele>386</ele>
        <time>2017-02-19T11:30:20Z</time>
      </trkpt>
      <trkpt lat="46.72227" lon="4.64593">
        <ele>385</ele>
        <time>2017-02-19T11:30:21Z</time>
      </trkpt>
      <trkpt lat="46.72225" lon="4.64583">
        <ele>385</ele>
        <time>2017-02-19T11:30:22Z</time>
      </trkpt>
      <trkpt lat="46.72223" lon="4.64571">
        <ele>384</ele>
        <time>2017-02-19T11:30:23Z</time>
      </trkpt>
      <trkpt lat="46.72221" lon="4.64559">
        <ele>384</ele>
        <time>2017-02-19T11:30:24Z</time>
      </trkpt>
      <trkpt lat="46.72221" lon="4.64547">
        <ele>383</ele>
        <time>2017-02-19T11:30:25Z</time>
      </trkpt>
      <trkpt lat="46.7222" lon="4.64533">
        <ele>383</ele>
        <time>2017-02-19T11:30:26Z</time>
      </trkpt>
      <trkpt lat="46.7222" lon="4.6452">
        <ele>382</ele>
        <time>2017-02-19T11:30:27Z</time>
      </trkpt>
      <trkpt lat="46.7222" lon="4.64507">
        <ele>382</ele>
        <time>2017-02-19T11:30:28Z</time>
      </trkpt>
      <trkpt lat="46.7222" lon="4.64493">
        <ele>381</ele>
        <time>2017-02-19T11:30:29Z</time>
      </trkpt>
      <trkpt lat="46.72218" lon="4.64479">
        <ele>380</ele>
        <time>2017-02-19T11:30:30Z</time>
      </trkpt>
      <trkpt lat="46.72218" lon="4.64463">
        <ele>380</ele>
        <time>2017-02-19T11:30:31Z</time>
      </trkpt>
      <trkpt lat="46.72216" lon="4.64446">
        <ele>379</ele>
        <time>2017-02-19T11:30:32Z</time>
      </trkpt>
      <trkpt lat="46.72215" lon="4.64429">
        <ele>378</ele>
        <time>2017-02-19T11:30:33Z</time>
      </trkpt>
      <trkpt lat="46.72213" lon="4.64411">
        <ele>378</ele>
        <time>2017-02-19T11:30:34Z</time>
      </trkpt>
      <trkpt lat="46.72209" lon="4.64394">
        <ele>377</ele>
        <time>2017-02-19T11:30:35Z</time>
      </trkpt>
      <trkpt lat="46.72205" lon="4.64377">
        <ele>377</ele>
        <time>2017-02-19T11:30:36Z</time>
      </trkpt>
      <trkpt lat="46.722" lon="4.64358">
        <ele>376</ele>
        <time>2017-02-19T11:30:37Z</time>
      </trkpt>
      <trkpt lat="46.72194" lon="4.6434">
        <ele>375</ele>
        <time>2017-02-19T11:30:38Z</time>
      </trkpt>
      <trkpt lat="46.72187" lon="4.64322">
        <ele>374</ele>
        <time>2017-02-19T11:30:39Z</time>
      </trkpt>
      <trkpt lat="46.7218" lon="4.64305">
        <ele>373</ele>
        <time>2017-02-19T11:30:40Z</time>
      </trkpt>
      <trkpt lat="46.72173" lon="4.64287">
        <ele>372</ele>
        <time>2017-02-19T11:30:41Z</time>
      </trkpt>
      <trkpt lat="46.72166" lon="4.6427">
        <ele>371</ele>
        <time>2017-02-19T11:30:42Z</time>
      </trkpt>
      <trkpt lat="46.72159" lon="4.64252">
        <ele>370</ele>
        <time>2017-02-19T11:30:43Z</time>
      </trkpt>
      <trkpt lat="46.72152" lon="4.64235">
        <ele>369</ele>
        <time>2017-02-19T11:30:44Z</time>
      </trkpt>
      <trkpt lat="46.72145" lon="4.64218">
        <ele>368</ele>
        <time>2017-02-19T11:30:45Z</time>
      </trkpt>
      <trkpt lat="46.72139" lon="4.64201">
        <ele>368</ele>
        <time>2017-02-19T11:30:46Z</time>
      </trkpt>
      <trkpt lat="46.72135" lon="4.64183">
        <ele>367</ele>
        <time>2017-02-19T11:30:47Z</time>
      </trkpt>
      <trkpt lat="46.72133" lon="4.64164">
        <ele>366</ele>
        <time>2017-02-19T11:30:48Z</time>
      </trkpt>
      <trkpt lat="46.72131" lon="4.64145">
        <ele>365</ele>
        <time>2017-02-19T11:30:49Z</time>
      </trkpt>
      <trkpt lat="46.72131" lon="4.64126">
        <ele>364</ele>
        <time>2017-02-19T11:30:50Z</time>
      </trkpt>
      <trkpt lat="46.72131" lon="4.64109">
        <ele>363</ele>
        <time>2017-02-19T11:30:51Z</time>
      </trkpt>
      <trkpt lat="46.7213" lon="4.64092">
        <ele>361</ele>
        <time>2017-02-19T11:30:52Z</time>
      </trkpt>
      <trkpt lat="46.72129" lon="4.64075">
        <ele>360</ele>
        <time>2017-02-19T11:30:53Z</time>
      </trkpt>
      <trkpt lat="46.72129" lon="4.64059">
        <ele>358</ele>
        <time>2017-02-19T11:30:54Z</time>
      </trkpt>
      <trkpt lat="46.72128" lon="4.64043">
        <ele>357</ele>
        <time>2017-02-19T11:30:55Z</time>
      </trkpt>
      <trkpt lat="46.72127" lon="4.6403">
        <ele>356</ele>
        <time>2017-02-19T11:30:56Z</time>
      </trkpt>
      <trkpt lat="46.72126" lon="4.64016">
        <ele>354</ele>
        <time>2017-02-19T11:30:57Z</time>
      </trkpt>
      <trkpt lat="46.72123" lon="4.64002">
        <ele>354</ele>
        <time>2017-02-19T11:30:58Z</time>
      </trkpt>
      <trkpt lat="46.7212" lon="4.63989">
        <ele>353</ele>
        <time>2017-02-19T11:30:59Z</time>
      </trkpt>
      <trkpt lat="46.72116" lon="4.63976">
        <ele>352</ele>
        <time>2017-02-19T11:31:00Z</time>
      </trkpt>
      <trkpt lat="46.72112" lon="4.63964">
        <ele>352</ele>
        <time>2017-02-19T11:31:01Z</time>
      </trkpt>
      <trkpt lat="46.72107" lon="4.63952">
        <ele>351</ele>
        <time>2017-02-19T11:31:02Z</time>
      </trkpt>
      <trkpt lat="46.72101" lon="4.63938">
        <ele>351</ele>
        <time>2017-02-19T11:31:03Z</time>
      </trkpt>
      <trkpt lat="46.72094" lon="4.63924">
        <ele>350</ele>
        <time>2017-02-19T11:31:04Z</time>
      </trkpt>
      <trkpt lat="46.72088" lon="4.63911">
        <ele>348</ele>
        <time>2017-02-19T11:31:05Z</time>
      </trkpt>
      <trkpt lat="46.72081" lon="4.63901">
        <ele>347</ele>
        <time>2017-02-19T11:31:06Z</time>
      </trkpt>
      <trkpt lat="46.72073" lon="4.63889">
        <ele>345</ele>
        <time>2017-02-19T11:31:07Z</time>
      </trkpt>
      <trkpt lat="46.72065" lon="4.63876">
        <ele>343</ele>
        <time>2017-02-19T11:31:08Z</time>
      </trkpt>
      <trkpt lat="46.72056" lon="4.63861">
        <ele>341</ele>
        <time>2017-02-19T11:31:09Z</time>
      </trkpt>
      <trkpt lat="46.72047" lon="4.63847">
        <ele>340</ele>
        <time>2017-02-19T11:31:10Z</time>
      </trkpt>
      <trkpt lat="46.72038" lon="4.63835">
        <ele>339</ele>
        <time>2017-02-19T11:31:11Z</time>
      </trkpt>
      <trkpt lat="46.72027" lon="4.63824">
        <ele>338</ele>
        <time>2017-02-19T11:31:12Z</time>
      </trkpt>
      <trkpt lat="46.72017" lon="4.63815">
        <ele>337</ele>
        <time>2017-02-19T11:31:13Z</time>
      </trkpt>
      <trkpt lat="46.72006" lon="4.63805">
        <ele>336</ele>
        <time>2017-02-19T11:31:14Z</time>
      </trkpt>
      <trkpt lat="46.71983" lon="4.63789">
        <ele>334</ele>
        <time>2017-02-19T11:31:16Z</time>
      </trkpt>
      <trkpt lat="46.71971" lon="4.63782">
        <ele>333</ele>
        <time>2017-02-19T11:31:17Z</time>
      </trkpt>
      <trkpt lat="46.71959" lon="4.63775">
        <ele>332</ele>
        <time>2017-02-19T11:31:18Z</time>
      </trkpt>
      <trkpt lat="46.71947" lon="4.6377">
        <ele>332</ele>
        <time>2017-02-19T11:31:19Z</time>
      </trkpt>
      <trkpt lat="46.71935" lon="4.63763">
        <ele>331</ele>
        <time>2017-02-19T11:31:20Z</time>
      </trkpt>
      <trkpt lat="46.71925" lon="4.63755">
        <ele>330</ele>
        <time>2017-02-19T11:31:21Z</time>
      </trkpt>
      <trkpt lat="46.71915" lon="4.63745">
        <ele>329</ele>
        <time>2017-02-19T11:31:22Z</time>
      </trkpt>
      <trkpt lat="46.71907" lon="4.63733">
        <ele>328</ele>
        <time>2017-02-19T11:31:23Z</time>
      </trkpt>
      <trkpt lat="46.719" lon="4.63718">
        <ele>327</ele>
        <time>2017-02-19T11:31:24Z</time>
      </trkpt>
      <trkpt lat="46.71897" lon="4.63703">
        <ele>326</ele>
        <time>2017-02-19T11:31:25Z</time>
      </trkpt>
      <trkpt lat="46.71895" lon="4.63688">
        <ele>325</ele>
        <time>2017-02-19T11:31:26Z</time>
      </trkpt>
      <trkpt lat="46.71893" lon="4.63674">
        <ele>324</ele>
        <time>2017-02-19T11:31:27Z</time>
      </trkpt>
      <trkpt lat="46.71891" lon="4.6366">
        <ele>323</ele>
        <time>2017-02-19T11:31:28Z</time>
      </trkpt>
      <trkpt lat="46.71886" lon="4.63648">
        <ele>322</ele>
        <time>2017-02-19T11:31:29Z</time>
      </trkpt>
      <trkpt lat="46.71879" lon="4.63638">
        <ele>322</ele>
        <time>2017-02-19T11:31:30Z</time>
      </trkpt>
      <trkpt lat="46.71873" lon="4.63627">
        <ele>321</ele>
        <time>2017-02-19T11:31:31Z</time>
      </trkpt>
      <trkpt lat="46.71867" lon="4.63618">
        <ele>321</ele>
        <time>2017-02-19T11:31:32Z</time>
      </trkpt>
      <trkpt lat="46.71861" lon="4.63611">
        <ele>321</ele>
        <time>2017-02-19T11:31:33Z</time>
      </trkpt>
      <trkpt lat="46.71856" lon="4.63606">
        <ele>321</ele>
        <time>2017-02-19T11:31:34Z</time>
      </trkpt>
      <trkpt lat="46.7185" lon="4.63603">
        <ele>320</ele>
        <time>2017-02-19T11:31:35Z</time>
      </trkpt>
      <trkpt lat="46.71844" lon="4.63599">
        <ele>319</ele>
        <time>2017-02-19T11:31:36Z</time>
      </trkpt>
      <trkpt lat="46.71838" lon="4.63596">
        <ele>318</ele>
        <time>2017-02-19T11:31:37Z</time>
      </trkpt>
      <trkpt lat="46.71832" lon="4.63593">
        <ele>317</ele>
        <time>2017-02-19T11:31:38Z</time>
      </trkpt>
      <trkpt lat="46.71826" lon="4.6359">
        <ele>316</ele>
        <time>2017-02-19T11:31:39Z</time>
      </trkpt>
      <trkpt lat="46.71818" lon="4.63588">
        <ele>315</ele>
        <time>2017-02-19T11:31:40Z</time>
      </trkpt>
      <trkpt lat="46.71811" lon="4.63588">
        <ele>314</ele>
        <time>2017-02-19T11:31:41Z</time>
      </trkpt>
      <trkpt lat="46.71804" lon="4.63589">
        <ele>313</ele>
        <time>2017-02-19T11:31:42Z</time>
      </trkpt>
      <trkpt lat="46.71797" lon="4.6359">
        <ele>312</ele>
        <time>2017-02-19T11:31:43Z</time>
      </trkpt>
      <trkpt lat="46.71792" lon="4.6359">
        <ele>312</ele>
        <time>2017-02-19T11:31:44Z</time>
      </trkpt>
      <trkpt lat="46.71787" lon="4.6359">
        <ele>311</ele>
        <time>2017-02-19T11:31:45Z</time>
      </trkpt>
      <trkpt lat="46.7178" lon="4.63596">
        <ele>311</ele>
        <time>2017-02-19T11:31:47Z</time>
      </trkpt>
      <trkpt lat="46.71775" lon="4.63598">
        <ele>311</ele>
        <time>2017-02-19T11:31:49Z</time>
      </trkpt>
      <trkpt lat="46.71768" lon="4.63601">
        <ele>311</ele>
        <time>2017-02-19T11:31:51Z</time>
      </trkpt>
      <trkpt lat="46.71761" lon="4.63602">
        <ele>311</ele>
        <time>2017-02-19T11:31:53Z</time>
      </trkpt>
      <trkpt lat="46.71755" lon="4.63601">
        <ele>311</ele>
        <time>2017-02-19T11:31:56Z</time>
      </trkpt>
      <trkpt lat="46.71748" lon="4.63601">
        <ele>311</ele>
        <time>2017-02-19T11:31:58Z</time>
      </trkpt>
      <trkpt lat="46.71739" lon="4.63602">
        <ele>312</ele>
        <time>2017-02-19T11:32:00Z</time>
      </trkpt>
      <trkpt lat="46.71733" lon="4.63602">
        <ele>312</ele>
        <time>2017-02-19T11:32:01Z</time>
      </trkpt>
      <trkpt lat="46.71727" lon="4.63601">
        <ele>311</ele>
        <time>2017-02-19T11:32:02Z</time>
      </trkpt>
      <trkpt lat="46.71722" lon="4.63601">
        <ele>311</ele>
        <time>2017-02-19T11:32:03Z</time>
      </trkpt>
      <trkpt lat="46.71715" lon="4.636">
        <ele>310</ele>
        <time>2017-02-19T11:32:04Z</time>
      </trkpt>
      <trkpt lat="46.71708" lon="4.63601">
        <ele>309</ele>
        <time>2017-02-19T11:32:05Z</time>
      </trkpt>
      <trkpt lat="46.717" lon="4.63602">
        <ele>308</ele>
        <time>2017-02-19T11:32:06Z</time>
      </trkpt>
      <trkpt lat="46.71692" lon="4.63603">
        <ele>308</ele>
        <time>2017-02-19T11:32:07Z</time>
      </trkpt>
      <trkpt lat="46.71685" lon="4.63604">
        <ele>308</ele>
        <time>2017-02-19T11:32:08Z</time>
      </trkpt>
      <trkpt lat="46.71678" lon="4.63606">
        <ele>308</ele>
        <time>2017-02-19T11:32:09Z</time>
      </trkpt>
      <trkpt lat="46.71671" lon="4.63608">
        <ele>307</ele>
        <time>2017-02-19T11:32:10Z</time>
      </trkpt>
      <trkpt lat="46.71663" lon="4.63609">
        <ele>307</ele>
        <time>2017-02-19T11:32:11Z</time>
      </trkpt>
      <trkpt lat="46.71655" lon="4.6361">
        <ele>306</ele>
        <time>2017-02-19T11:32:12Z</time>
      </trkpt>
      <trkpt lat="46.71647" lon="4.63611">
        <ele>306</ele>
        <time>2017-02-19T11:32:13Z</time>
      </trkpt>
      <trkpt lat="46.71638" lon="4.63613">
        <ele>305</ele>
        <time>2017-02-19T11:32:14Z</time>
      </trkpt>
      <trkpt lat="46.71629" lon="4.63614">
        <ele>305</ele>
        <time>2017-02-19T11:32:15Z</time>
      </trkpt>
      <trkpt lat="46.71621" lon="4.63614">
        <ele>304</ele>
        <time>2017-02-19T11:32:16Z</time>
      </trkpt>
      <trkpt lat="46.71612" lon="4.63615">
        <ele>303</ele>
        <time>2017-02-19T11:32:17Z</time>
      </trkpt>
      <trkpt lat="46.71603" lon="4.63615">
        <ele>303</ele>
        <time>2017-02-19T11:32:18Z</time>
      </trkpt>
      <trkpt lat="46.71594" lon="4.63616">
        <ele>302</ele>
        <time>2017-02-19T11:32:19Z</time>
      </trkpt>
      <trkpt lat="46.71586" lon="4.63616">
        <ele>301</ele>
        <time>2017-02-19T11:32:20Z</time>
      </trkpt>
      <trkpt lat="46.71577" lon="4.63617">
        <ele>300</ele>
        <time>2017-02-19T11:32:21Z</time>
      </trkpt>
      <trkpt lat="46.71567" lon="4.63618">
        <ele>300</ele>
        <time>2017-02-19T11:32:22Z</time>
      </trkpt>
      <trkpt lat="46.71558" lon="4.63619">
        <ele>299</ele>
        <time>2017-02-19T11:32:23Z</time>
      </trkpt>
      <trkpt lat="46.71549" lon="4.6362">
        <ele>298</ele>
        <time>2017-02-19T11:32:24Z</time>
      </trkpt>
      <trkpt lat="46.71539" lon="4.63621">
        <ele>297</ele>
        <time>2017-02-19T11:32:25Z</time>
      </trkpt>
      <trkpt lat="46.7153" lon="4.63621">
        <ele>297</ele>
        <time>2017-02-19T11:32:26Z</time>
      </trkpt>
      <trkpt lat="46.7152" lon="4.63621">
        <ele>296</ele>
        <time>2017-02-19T11:32:27Z</time>
      </trkpt>
      <trkpt lat="46.7151" lon="4.6362">
        <ele>296</ele>
        <time>2017-02-19T11:32:28Z</time>
      </trkpt>
      <trkpt lat="46.715" lon="4.63617">
        <ele>295</ele>
        <time>2017-02-19T11:32:29Z</time>
      </trkpt>
      <trkpt lat="46.7149" lon="4.63613">
        <ele>295</ele>
        <time>2017-02-19T11:32:30Z</time>
      </trkpt>
      <trkpt lat="46.71481" lon="4.63608">
        <ele>295</ele>
        <time>2017-02-19T11:32:31Z</time>
      </trkpt>
      <trkpt lat="46.71472" lon="4.63601">
        <ele>295</ele>
        <time>2017-02-19T11:32:32Z</time>
      </trkpt>
      <trkpt lat="46.71464" lon="4.63593">
        <ele>295</ele>
        <time>2017-02-19T11:32:33Z</time>
      </trkpt>
      <trkpt lat="46.71456" lon="4.63585">
        <ele>294</ele>
        <time>2017-02-19T11:32:34Z</time>
      </trkpt>
      <trkpt lat="46.71447" lon="4.63577">
        <ele>294</ele>
        <time>2017-02-19T11:32:35Z</time>
      </trkpt>
      <trkpt lat="46.71439" lon="4.6357">
        <ele>293</ele>
        <time>2017-02-19T11:32:36Z</time>
      </trkpt>
      <trkpt lat="46.71431" lon="4.63562">
        <ele>292</ele>
        <time>2017-02-19T11:32:37Z</time>
      </trkpt>
      <trkpt lat="46.71422" lon="4.63555">
        <ele>291</ele>
        <time>2017-02-19T11:32:38Z</time>
      </trkpt>
      <trkpt lat="46.71414" lon="4.63547">
        <ele>291</ele>
        <time>2017-02-19T11:32:39Z</time>
      </trkpt>
      <trkpt lat="46.71406" lon="4.6354">
        <ele>290</ele>
        <time>2017-02-19T11:32:40Z</time>
      </trkpt>
      <trkpt lat="46.71398" lon="4.63533">
        <ele>289</ele>
        <time>2017-02-19T11:32:41Z</time>
      </trkpt>
      <trkpt lat="46.71389" lon="4.63526">
        <ele>289</ele>
        <time>2017-02-19T11:32:42Z</time>
      </trkpt>
      <trkpt lat="46.71381" lon="4.63519">
        <ele>288</ele>
        <time>2017-02-19T11:32:43Z</time>
      </trkpt>
      <trkpt lat="46.71372" lon="4.63513">
        <ele>288</ele>
        <time>2017-02-19T11:32:44Z</time>
      </trkpt>
      <trkpt lat="46.71363" lon="4.63505">
        <ele>287</ele>
        <time>2017-02-19T11:32:45Z</time>
      </trkpt>
      <trkpt lat="46.71355" lon="4.63498">
        <ele>286</ele>
        <time>2017-02-19T11:32:46Z</time>
      </trkpt>
      <trkpt lat="46.71346" lon="4.6349">
        <ele>286</ele>
        <time>2017-02-19T11:32:47Z</time>
      </trkpt>
      <trkpt lat="46.71337" lon="4.63482">
        <ele>285</ele>
        <time>2017-02-19T11:32:48Z</time>
      </trkpt>
      <trkpt lat="46.71328" lon="4.63474">
        <ele>285</ele>
        <time>2017-02-19T11:32:49Z</time>
      </trkpt>
      <trkpt lat="46.71319" lon="4.63466">
        <ele>284</ele>
        <time>2017-02-19T11:32:50Z</time>
      </trkpt>
      <trkpt lat="46.7131" lon="4.63459">
        <ele>283</ele>
        <time>2017-02-19T11:32:51Z</time>
      </trkpt>
      <trkpt lat="46.71301" lon="4.63451">
        <ele>283</ele>
        <time>2017-02-19T11:32:52Z</time>
      </trkpt>
      <trkpt lat="46.71291" lon="4.63444">
        <ele>282</ele>
        <time>2017-02-19T11:32:53Z</time>
      </trkpt>
      <trkpt lat="46.71282" lon="4.63436">
        <ele>282</ele>
        <time>2017-02-19T11:32:54Z</time>
      </trkpt>
      <trkpt lat="46.71272" lon="4.63427">
        <ele>281</ele>
        <time>2017-02-19T11:32:55Z</time>
      </trkpt>
      <trkpt lat="46.71263" lon="4.63419">
        <ele>280</ele>
        <time>2017-02-19T11:32:56Z</time>
      </trkpt>
      <trkpt lat="46.71254" lon="4.63411">
        <ele>279</ele>
        <time>2017-02-19T11:32:57Z</time>
      </trkpt>
      <trkpt lat="46.71244" lon="4.63403">
        <ele>279</ele>
        <time>2017-02-19T11:32:58Z</time>
      </trkpt>
      <trkpt lat="46.71235" lon="4.63395">
        <ele>278</ele>
        <time>2017-02-19T11:32:59Z</time>
      </trkpt>
      <trkpt lat="46.71225" lon="4.63387">
        <ele>277</ele>
        <time>2017-02-19T11:33:00Z</time>
      </trkpt>
      <trkpt lat="46.71216" lon="4.63379">
        <ele>277</ele>
        <time>2017-02-19T11:33:01Z</time>
      </trkpt>
      <trkpt lat="46.71207" lon="4.63372">
        <ele>276</ele>
        <time>2017-02-19T11:33:02Z</time>
      </trkpt>
      <trkpt lat="46.71199" lon="4.63366">
        <ele>275</ele>
        <time>2017-02-19T11:33:03Z</time>
      </trkpt>
      <trkpt lat="46.7119" lon="4.63359">
        <ele>275</ele>
        <time>2017-02-19T11:33:04Z</time>
      </trkpt>
      <trkpt lat="46.71181" lon="4.63351">
        <ele>275</ele>
        <time>2017-02-19T11:33:05Z</time>
      </trkpt>
      <trkpt lat="46.71173" lon="4.63343">
        <ele>275</ele>
        <time>2017-02-19T11:33:06Z</time>
      </trkpt>
      <trkpt lat="46.71166" lon="4.63336">
        <ele>275</ele>
        <time>2017-02-19T11:33:07Z</time>
      </trkpt>
      <trkpt lat="46.71158" lon="4.63329">
        <ele>276</ele>
        <time>2017-02-19T11:33:08Z</time>
      </trkpt>
      <trkpt lat="46.7115" lon="4.63322">
        <ele>277</ele>
        <time>2017-02-19T11:33:09Z</time>
      </trkpt>
      <trkpt lat="46.71143" lon="4.63315">
        <ele>278</ele>
        <time>2017-02-19T11:33:10Z</time>
      </trkpt>
      <trkpt lat="46.71137" lon="4.63309">
        <ele>279</ele>
        <time>2017-02-19T11:33:11Z</time>
      </trkpt>
      <trkpt lat="46.71131" lon="4.63304">
        <ele>279</ele>
        <time>2017-02-19T11:33:12Z</time>
      </trkpt>
      <trkpt lat="46.71125" lon="4.63299">
        <ele>280</ele>
        <time>2017-02-19T11:33:13Z</time>
      </trkpt>
      <trkpt lat="46.71119" lon="4.63293">
        <ele>280</ele>
        <time>2017-02-19T11:33:14Z</time>
      </trkpt>
      <trkpt lat="46.71113" lon="4.63288">
        <ele>281</ele>
        <time>2017-02-19T11:33:15Z</time>
      </trkpt>
      <trkpt lat="46.71108" lon="4.63283">
        <ele>281</ele>
        <time>2017-02-19T11:33:16Z</time>
      </trkpt>
      <trkpt lat="46.71103" lon="4.63279">
        <ele>281</ele>
        <time>2017-02-19T11:33:17Z</time>
      </trkpt>
      <trkpt lat="46.71097" lon="4.63275">
        <ele>281</ele>
        <time>2017-02-19T11:33:18Z</time>
      </trkpt>
      <trkpt lat="46.71092" lon="4.63271">
        <ele>281</ele>
        <time>2017-02-19T11:33:19Z</time>
      </trkpt>
      <trkpt lat="46.71087" lon="4.63267">
        <ele>280</ele>
        <time>2017-02-19T11:33:20Z</time>
      </trkpt>
      <trkpt lat="46.71082" lon="4.63263">
        <ele>280</ele>
        <time>2017-02-19T11:33:21Z</time>
      </trkpt>
      <trkpt lat="46.71078" lon="4.63259">
        <ele>280</ele>
        <time>2017-02-19T11:33:22Z</time>
      </trkpt>
      <trkpt lat="46.71073" lon="4.63254">
        <ele>280</ele>
        <time>2017-02-19T11:33:23Z</time>
      </trkpt>
      <trkpt lat="46.71068" lon="4.63251">
        <ele>280</ele>
        <time>2017-02-19T11:33:24Z</time>
      </trkpt>
      <trkpt lat="46.71064" lon="4.63249">
        <ele>280</ele>
        <time>2017-02-19T11:33:25Z</time>
      </trkpt>
      <trkpt lat="46.71056" lon="4.63246">
        <ele>281</ele>
        <time>2017-02-19T11:33:27Z</time>
      </trkpt>
      <trkpt lat="46.71048" lon="4.63239">
        <ele>282</ele>
        <time>2017-02-19T11:33:29Z</time>
      </trkpt>
      <trkpt lat="46.71044" lon="4.63235">
        <ele>282</ele>
        <time>2017-02-19T11:33:30Z</time>
      </trkpt>
      <trkpt lat="46.71037" lon="4.63227">
        <ele>282</ele>
        <time>2017-02-19T11:33:32Z</time>
      </trkpt>
      <trkpt lat="46.71031" lon="4.63218">
        <ele>282</ele>
        <time>2017-02-19T11:33:34Z</time>
      </trkpt>
      <trkpt lat="46.71025" lon="4.6321">
        <ele>282</ele>
        <time>2017-02-19T11:33:36Z</time>
      </trkpt>
      <trkpt lat="46.71018" lon="4.63203">
        <ele>282</ele>
        <time>2017-02-19T11:33:38Z</time>
      </trkpt>
      <trkpt lat="46.71013" lon="4.63198">
        <ele>281</ele>
        <time>2017-02-19T11:33:39Z</time>
      </trkpt>
      <trkpt lat="46.71009" lon="4.63193">
        <ele>280</ele>
        <time>2017-02-19T11:33:40Z</time>
      </trkpt>
      <trkpt lat="46.71004" lon="4.63188">
        <ele>280</ele>
        <time>2017-02-19T11:33:41Z</time>
      </trkpt>
      <trkpt lat="46.70998" lon="4.63184">
        <ele>279</ele>
        <time>2017-02-19T11:33:42Z</time>
      </trkpt>
      <trkpt lat="46.70993" lon="4.6318">
        <ele>279</ele>
        <time>2017-02-19T11:33:43Z</time>
      </trkpt>
      <trkpt lat="46.70981" lon="4.63173">
        <ele>279</ele>
        <time>2017-02-19T11:33:45Z</time>
      </trkpt>
      <trkpt lat="46.70975" lon="4.63168">
        <ele>279</ele>
        <time>2017-02-19T11:33:46Z</time>
      </trkpt>
      <trkpt lat="46.70969" lon="4.63164">
        <ele>279</ele>
        <time>2017-02-19T11:33:47Z</time>
      </trkpt>
      <trkpt lat="46.70962" lon="4.6316">
        <ele>279</ele>
        <time>2017-02-19T11:33:48Z</time>
      </trkpt>
      <trkpt lat="46.70956" lon="4.63155">
        <ele>278</ele>
        <time>2017-02-19T11:33:49Z</time>
      </trkpt>
      <trkpt lat="46.7095" lon="4.6315">
        <ele>278</ele>
        <time>2017-02-19T11:33:50Z</time>
      </trkpt>
      <trkpt lat="46.70945" lon="4.63146">
        <ele>277</ele>
        <time>2017-02-19T11:33:51Z</time>
      </trkpt>
      <trkpt lat="46.70939" lon="4.63142">
        <ele>276</ele>
        <time>2017-02-19T11:33:52Z</time>
      </trkpt>
      <trkpt lat="46.70932" lon="4.63137">
        <ele>276</ele>
        <time>2017-02-19T11:33:53Z</time>
      </trkpt>
      <trkpt lat="46.70926" lon="4.63132">
        <ele>275</ele>
        <time>2017-02-19T11:33:54Z</time>
      </trkpt>
      <trkpt lat="46.7092" lon="4.63126">
        <ele>275</ele>
        <time>2017-02-19T11:33:55Z</time>
      </trkpt>
      <trkpt lat="46.70914" lon="4.63121">
        <ele>275</ele>
        <time>2017-02-19T11:33:56Z</time>
      </trkpt>
      <trkpt lat="46.70908" lon="4.63117">
        <ele>274</ele>
        <time>2017-02-19T11:33:57Z</time>
      </trkpt>
      <trkpt lat="46.70902" lon="4.63112">
        <ele>274</ele>
        <time>2017-02-19T11:33:58Z</time>
      </trkpt>
      <trkpt lat="46.70896" lon="4.63107">
        <ele>274</ele>
        <time>2017-02-19T11:33:59Z</time>
      </trkpt>
      <trkpt lat="46.70891" lon="4.63101">
        <ele>274</ele>
        <time>2017-02-19T11:34:00Z</time>
      </trkpt>
      <trkpt lat="46.70887" lon="4.63095">
        <ele>273</ele>
        <time>2017-02-19T11:34:01Z</time>
      </trkpt>
      <trkpt lat="46.70882" lon="4.6309">
        <ele>273</ele>
        <time>2017-02-19T11:34:02Z</time>
      </trkpt>
      <trkpt lat="46.70878" lon="4.63086">
        <ele>273</ele>
        <time>2017-02-19T11:34:03Z</time>
      </trkpt>
      <trkpt lat="46.70873" lon="4.63083">
        <ele>273</ele>
        <time>2017-02-19T11:34:04Z</time>
      </trkpt>
      <trkpt lat="46.70868" lon="4.6308">
        <ele>273</ele>
        <time>2017-02-19T11:34:05Z</time>
      </trkpt>
      <trkpt lat="46.70863" lon="4.63077">
        <ele>273</ele>
        <time>2017-02-19T11:34:06Z</time>
      </trkpt>
      <trkpt lat="46.70858" lon="4.63073">
        <ele>272</ele>
        <time>2017-02-19T11:34:07Z</time>
      </trkpt>
      <trkpt lat="46.70854" lon="4.6307">
        <ele>272</ele>
        <time>2017-02-19T11:34:08Z</time>
      </trkpt>
      <trkpt lat="46.7085" lon="4.63066">
        <ele>271</ele>
        <time>2017-02-19T11:34:09Z</time>
      </trkpt>
      <trkpt lat="46.70846" lon="4.63062">
        <ele>271</ele>
        <time>2017-02-19T11:34:10Z</time>
      </trkpt>
      <trkpt lat="46.70842" lon="4.63058">
        <ele>271</ele>
        <time>2017-02-19T11:34:11Z</time>
      </trkpt>
      <trkpt lat="46.70835" lon="4.63051">
        <ele>271</ele>
        <time>2017-02-19T11:34:13Z</time>
      </trkpt>
      <trkpt lat="46.70827" lon="4.63044">
        <ele>270</ele>
        <time>2017-02-19T11:34:15Z</time>
      </trkpt>
      <trkpt lat="46.70819" lon="4.63037">
        <ele>270</ele>
        <time>2017-02-19T11:34:17Z</time>
      </trkpt>
      <trkpt lat="46.70816" lon="4.63032">
        <ele>270</ele>
        <time>2017-02-19T11:34:18Z</time>
      </trkpt>
      <trkpt lat="46.70812" lon="4.63027">
        <ele>270</ele>
        <time>2017-02-19T11:34:19Z</time>
      </trkpt>
      <trkpt lat="46.70808" lon="4.63024">
        <ele>270</ele>
        <time>2017-02-19T11:34:20Z</time>
      </trkpt>
      <trkpt lat="46.70802" lon="4.63018">
        <ele>270</ele>
        <time>2017-02-19T11:34:22Z</time>
      </trkpt>
      <trkpt lat="46.70794" lon="4.6301">
        <ele>270</ele>
        <time>2017-02-19T11:34:24Z</time>
      </trkpt>
      <trkpt lat="46.70788" lon="4.63003">
        <ele>271</ele>
        <time>2017-02-19T11:34:26Z</time>
      </trkpt>
      <trkpt lat="46.70781" lon="4.62997">
        <ele>271</ele>
        <time>2017-02-19T11:34:28Z</time>
      </trkpt>
      <trkpt lat="46.70776" lon="4.62993">
        <ele>271</ele>
        <time>2017-02-19T11:34:29Z</time>
      </trkpt>
      <trkpt lat="46.70772" lon="4.62989">
        <ele>270</ele>
        <time>2017-02-19T11:34:30Z</time>
      </trkpt>
      <trkpt lat="46.70768" lon="4.62985">
        <ele>270</ele>
        <time>2017-02-19T11:34:31Z</time>
      </trkpt>
      <trkpt lat="46.70763" lon="4.62981">
        <ele>270</ele>
        <time>2017-02-19T11:34:32Z</time>
      </trkpt>
      <trkpt lat="46.70758" lon="4.62977">
        <ele>270</ele>
        <time>2017-02-19T11:34:33Z</time>
      </trkpt>
      <trkpt lat="46.70754" lon="4.62973">
        <ele>270</ele>
        <time>2017-02-19T11:34:34Z</time>
      </trkpt>
      <trkpt lat="46.70749" lon="4.62969">
        <ele>270</ele>
        <time>2017-02-19T11:34:35Z</time>
      </trkpt>
      <trkpt lat="46.70745" lon="4.62965">
        <ele>270</ele>
        <time>2017-02-19T11:34:36Z</time>
      </trkpt>
      <trkpt lat="46.7074" lon="4.62961">
        <ele>269</ele>
        <time>2017-02-19T11:34:37Z</time>
      </trkpt>
      <trkpt lat="46.70736" lon="4.62957">
        <ele>269</ele>
        <time>2017-02-19T11:34:38Z</time>
      </trkpt>
      <trkpt lat="46.70731" lon="4.62952">
        <ele>269</ele>
        <time>2017-02-19T11:34:39Z</time>
      </trkpt>
      <trkpt lat="46.70726" lon="4.62947">
        <ele>269</ele>
        <time>2017-02-19T11:34:40Z</time>
      </trkpt>
      <trkpt lat="46.70721" lon="4.62943">
        <ele>269</ele>
        <time>2017-02-19T11:34:41Z</time>
      </trkpt>
      <trkpt lat="46.70716" lon="4.62939">
        <ele>270</ele>
        <time>2017-02-19T11:34:42Z</time>
      </trkpt>
      <trkpt lat="46.70712" lon="4.62935">
        <ele>270</ele>
        <time>2017-02-19T11:34:43Z</time>
      </trkpt>
      <trkpt lat="46.70707" lon="4.62931">
        <ele>270</ele>
        <time>2017-02-19T11:34:44Z</time>
      </trkpt>
      <trkpt lat="46.70702" lon="4.62926">
        <ele>270</ele>
        <time>2017-02-19T11:34:45Z</time>
      </trkpt>
      <trkpt lat="46.70696" lon="4.62922">
        <ele>270</ele>
        <time>2017-02-19T11:34:46Z</time>
      </trkpt>
      <trkpt lat="46.70691" lon="4.62917">
        <ele>270</ele>
        <time>2017-02-19T11:34:47Z</time>
      </trkpt>
      <trkpt lat="46.70685" lon="4.62913">
        <ele>269</ele>
        <time>2017-02-19T11:34:48Z</time>
      </trkpt>
      <trkpt lat="46.7068" lon="4.62909">
        <ele>269</ele>
        <time>2017-02-19T11:34:49Z</time>
      </trkpt>
      <trkpt lat="46.70675" lon="4.62904">
        <ele>269</ele>
        <time>2017-02-19T11:34:50Z</time>
      </trkpt>
      <trkpt lat="46.7067" lon="4.62899">
        <ele>269</ele>
        <time>2017-02-19T11:34:51Z</time>
      </trkpt>
      <trkpt lat="46.70664" lon="4.62895">
        <ele>269</ele>
        <time>2017-02-19T11:34:52Z</time>
      </trkpt>
      <trkpt lat="46.70659" lon="4.62891">
        <ele>269</ele>
        <time>2017-02-19T11:34:53Z</time>
      </trkpt>
      <trkpt lat="46.70654" lon="4.62887">
        <ele>269</ele>
        <time>2017-02-19T11:34:54Z</time>
      </trkpt>
      <trkpt lat="46.70649" lon="4.62883">
        <ele>269</ele>
        <time>2017-02-19T11:34:55Z</time>
      </trkpt>
      <trkpt lat="46.70644" lon="4.62878">
        <ele>269</ele>
        <time>2017-02-19T11:34:56Z</time>
      </trkpt>
      <trkpt lat="46.70638" lon="4.62874">
        <ele>270</ele>
        <time>2017-02-19T11:34:57Z</time>
      </trkpt>
      <trkpt lat="46.70633" lon="4.6287">
        <ele>270</ele>
        <time>2017-02-19T11:34:58Z</time>
      </trkpt>
      <trkpt lat="46.70628" lon="4.62865">
        <ele>270</ele>
        <time>2017-02-19T11:34:59Z</time>
      </trkpt>
      <trkpt lat="46.70623" lon="4.62861">
        <ele>270</ele>
        <time>2017-02-19T11:35:00Z</time>
      </trkpt>
      <trkpt lat="46.70618" lon="4.62857">
        <ele>270</ele>
        <time>2017-02-19T11:35:01Z</time>
      </trkpt>
      <trkpt lat="46.70613" lon="4.62852">
        <ele>270</ele>
        <time>2017-02-19T11:35:02Z</time>
      </trkpt>
      <trkpt lat="46.70607" lon="4.62848">
        <ele>270</ele>
        <time>2017-02-19T11:35:03Z</time>
      </trkpt>
      <trkpt lat="46.70602" lon="4.62844">
        <ele>269</ele>
        <time>2017-02-19T11:35:04Z</time>
      </trkpt>
      <trkpt lat="46.70596" lon="4.62839">
        <ele>269</ele>
        <time>2017-02-19T11:35:05Z</time>
      </trkpt>
      <trkpt lat="46.70591" lon="4.62835">
        <ele>269</ele>
        <time>2017-02-19T11:35:06Z</time>
      </trkpt>
      <trkpt lat="46.70586" lon="4.6283">
        <ele>269</ele>
        <time>2017-02-19T11:35:07Z</time>
      </trkpt>
      <trkpt lat="46.7058" lon="4.62826">
        <ele>269</ele>
        <time>2017-02-19T11:35:08Z</time>
      </trkpt>
      <trkpt lat="46.70575" lon="4.62821">
        <ele>269</ele>
        <time>2017-02-19T11:35:09Z</time>
      </trkpt>
      <trkpt lat="46.70569" lon="4.62816">
        <ele>269</ele>
        <time>2017-02-19T11:35:10Z</time>
      </trkpt>
      <trkpt lat="46.70564" lon="4.62812">
        <ele>268</ele>
        <time>2017-02-19T11:35:11Z</time>
      </trkpt>
      <trkpt lat="46.70559" lon="4.62807">
        <ele>268</ele>
        <time>2017-02-19T11:35:12Z</time>
      </trkpt>
      <trkpt lat="46.70553" lon="4.62803">
        <ele>268</ele>
        <time>2017-02-19T11:35:13Z</time>
      </trkpt>
      <trkpt lat="46.70548" lon="4.62798">
        <ele>268</ele>
        <time>2017-02-19T11:35:14Z</time>
      </trkpt>
      <trkpt lat="46.70543" lon="4.62793">
        <ele>267</ele>
        <time>2017-02-19T11:35:15Z</time>
      </trkpt>
      <trkpt lat="46.70537" lon="4.62788">
        <ele>267</ele>
        <time>2017-02-19T11:35:16Z</time>
      </trkpt>
      <trkpt lat="46.70532" lon="4.62783">
        <ele>267</ele>
        <time>2017-02-19T11:35:17Z</time>
      </trkpt>
      <trkpt lat="46.70527" lon="4.62779">
        <ele>267</ele>
        <time>2017-02-19T11:35:18Z</time>
      </trkpt>
      <trkpt lat="46.70522" lon="4.62774">
        <ele>267</ele>
        <time>2017-02-19T11:35:19Z</time>
      </trkpt>
      <trkpt lat="46.70516" lon="4.62769">
        <ele>267</ele>
        <time>2017-02-19T11:35:20Z</time>
      </trkpt>
      <trkpt lat="46.70511" lon="4.62765">
        <ele>267</ele>
        <time>2017-02-19T11:35:21Z</time>
      </trkpt>
      <trkpt lat="46.70506" lon="4.62761">
        <ele>267</ele>
        <time>2017-02-19T11:35:22Z</time>
      </trkpt>
      <trkpt lat="46.70501" lon="4.62757">
        <ele>267</ele>
        <time>2017-02-19T11:35:23Z</time>
      </trkpt>
      <trkpt lat="46.70496" lon="4.62752">
        <ele>267</ele>
        <time>2017-02-19T11:35:24Z</time>
      </trkpt>
      <trkpt lat="46.7049" lon="4.62747">
        <ele>267</ele>
        <time>2017-02-19T11:35:25Z</time>
      </trkpt>
      <trkpt lat="46.70485" lon="4.62743">
        <ele>267</ele>
        <time>2017-02-19T11:35:26Z</time>
      </trkpt>
      <trkpt lat="46.7048" lon="4.62738">
        <ele>267</ele>
        <time>2017-02-19T11:35:27Z</time>
      </trkpt>
      <trkpt lat="46.70474" lon="4.62734">
        <ele>267</ele>
        <time>2017-02-19T11:35:28Z</time>
      </trkpt>
      <trkpt lat="46.70469" lon="4.62729">
        <ele>267</ele>
        <time>2017-02-19T11:35:29Z</time>
      </trkpt>
      <trkpt lat="46.70464" lon="4.62725">
        <ele>267</ele>
        <time>2017-02-19T11:35:30Z</time>
      </trkpt>
      <trkpt lat="46.70459" lon="4.62721">
        <ele>267</ele>
        <time>2017-02-19T11:35:31Z</time>
      </trkpt>
      <trkpt lat="46.70454" lon="4.62717">
        <ele>267</ele>
        <time>2017-02-19T11:35:32Z</time>
      </trkpt>
      <trkpt lat="46.70449" lon="4.62713">
        <ele>267</ele>
        <time>2017-02-19T11:35:33Z</time>
      </trkpt>
      <trkpt lat="46.70444" lon="4.62708">
        <ele>267</ele>
        <time>2017-02-19T11:35:34Z</time>
      </trkpt>
      <trkpt lat="46.70439" lon="4.62704">
        <ele>267</ele>
        <time>2017-02-19T11:35:35Z</time>
      </trkpt>
      <trkpt lat="46.70435" lon="4.627">
        <ele>267</ele>
        <time>2017-02-19T11:35:36Z</time>
      </trkpt>
      <trkpt lat="46.7043" lon="4.62695">
        <ele>267</ele>
        <time>2017-02-19T11:35:37Z</time>
      </trkpt>
      <trkpt lat="46.70425" lon="4.62691">
        <ele>267</ele>
        <time>2017-02-19T11:35:38Z</time>
      </trkpt>
      <trkpt lat="46.70421" lon="4.62687">
        <ele>267</ele>
        <time>2017-02-19T11:35:39Z</time>
      </trkpt>
      <trkpt lat="46.70416" lon="4.62683">
        <ele>267</ele>
        <time>2017-02-19T11:35:40Z</time>
      </trkpt>
      <trkpt lat="46.70411" lon="4.62679">
        <ele>267</ele>
        <time>2017-02-19T11:35:41Z</time>
      </trkpt>
      <trkpt lat="46.70407" lon="4.62675">
        <ele>267</ele>
        <time>2017-02-19T11:35:42Z</time>
      </trkpt>
      <trkpt lat="46.70403" lon="4.62671">
        <ele>267</ele>
        <time>2017-02-19T11:35:43Z</time>
      </trkpt>
      <trkpt lat="46.70398" lon="4.62667">
        <ele>267</ele>
        <time>2017-02-19T11:35:44Z</time>
      </trkpt>
      <trkpt lat="46.70394" lon="4.62663">
        <ele>267</ele>
        <time>2017-02-19T11:35:45Z</time>
      </trkpt>
      <trkpt lat="46.7039" lon="4.62659">
        <ele>267</ele>
        <time>2017-02-19T11:35:46Z</time>
      </trkpt>
      <trkpt lat="46.70386" lon="4.62655">
        <ele>266</ele>
        <time>2017-02-19T11:35:47Z</time>
      </trkpt>
      <trkpt lat="46.70381" lon="4.62652">
        <ele>266</ele>
        <time>2017-02-19T11:35:48Z</time>
      </trkpt>
      <trkpt lat="46.70377" lon="4.62649">
        <ele>266</ele>
        <time>2017-02-19T11:35:49Z</time>
      </trkpt>
      <trkpt lat="46.70372" lon="4.62645">
        <ele>266</ele>
        <time>2017-02-19T11:35:50Z</time>
      </trkpt>
      <trkpt lat="46.70367" lon="4.62641">
        <ele>266</ele>
        <time>2017-02-19T11:35:51Z</time>
      </trkpt>
      <trkpt lat="46.70363" lon="4.62637">
        <ele>266</ele>
        <time>2017-02-19T11:35:52Z</time>
      </trkpt>
      <trkpt lat="46.70359" lon="4.62634">
        <ele>266</ele>
        <time>2017-02-19T11:35:53Z</time>
      </trkpt>
      <trkpt lat="46.70355" lon="4.62631">
        <ele>267</ele>
        <time>2017-02-19T11:35:54Z</time>
      </trkpt>
      <trkpt lat="46.7035" lon="4.62627">
        <ele>267</ele>
        <time>2017-02-19T11:35:55Z</time>
      </trkpt>
      <trkpt lat="46.70346" lon="4.62624">
        <ele>266</ele>
        <time>2017-02-19T11:35:56Z</time>
      </trkpt>
      <trkpt lat="46.70339" lon="4.62617">
        <ele>266</ele>
        <time>2017-02-19T11:35:58Z</time>
      </trkpt>
      <trkpt lat="46.70332" lon="4.62611">
        <ele>266</ele>
        <time>2017-02-19T11:36:00Z</time>
      </trkpt>
      <trkpt lat="46.70324" lon="4.62605">
        <ele>266</ele>
        <time>2017-02-19T11:36:02Z</time>
      </trkpt>
      <trkpt lat="46.70316" lon="4.62599">
        <ele>267</ele>
        <time>2017-02-19T11:36:04Z</time>
      </trkpt>
      <trkpt lat="46.70309" lon="4.62593">
        <ele>267</ele>
        <time>2017-02-19T11:36:06Z</time>
      </trkpt>
      <trkpt lat="46.70303" lon="4.62588">
        <ele>268</ele>
        <time>2017-02-19T11:36:08Z</time>
      </trkpt>
      <trkpt lat="46.70297" lon="4.62582">
        <ele>268</ele>
        <time>2017-02-19T11:36:10Z</time>
      </trkpt>
      <trkpt lat="46.70292" lon="4.62576">
        <ele>269</ele>
        <time>2017-02-19T11:36:12Z</time>
      </trkpt>
      <trkpt lat="46.70285" lon="4.62571">
        <ele>269</ele>
        <time>2017-02-19T11:36:14Z</time>
      </trkpt>
      <trkpt lat="46.70279" lon="4.62566">
        <ele>270</ele>
        <time>2017-02-19T11:36:16Z</time>
      </trkpt>
      <trkpt lat="46.70274" lon="4.62559">
        <ele>270</ele>
        <time>2017-02-19T11:36:18Z</time>
      </trkpt>
      <trkpt lat="46.70268" lon="4.62552">
        <ele>271</ele>
        <time>2017-02-19T11:36:20Z</time>
      </trkpt>
      <trkpt lat="46.70261" lon="4.62547">
        <ele>271</ele>
        <time>2017-02-19T11:36:22Z</time>
      </trkpt>
      <trkpt lat="46.70255" lon="4.62542">
        <ele>271</ele>
        <time>2017-02-19T11:36:24Z</time>
      </trkpt>
      <trkpt lat="46.70249" lon="4.62538">
        <ele>271</ele>
        <time>2017-02-19T11:36:26Z</time>
      </trkpt>
      <trkpt lat="46.70243" lon="4.62532">
        <ele>272</ele>
        <time>2017-02-19T11:36:28Z</time>
      </trkpt>
      <trkpt lat="46.70237" lon="4.62526">
        <ele>272</ele>
        <time>2017-02-19T11:36:30Z</time>
      </trkpt>
      <trkpt lat="46.70232" lon="4.62521">
        <ele>273</ele>
        <time>2017-02-19T11:36:32Z</time>
      </trkpt>
      <trkpt lat="46.70226" lon="4.62515">
        <ele>273</ele>
        <time>2017-02-19T11:36:34Z</time>
      </trkpt>
      <trkpt lat="46.7022" lon="4.62511">
        <ele>273</ele>
        <time>2017-02-19T11:36:36Z</time>
      </trkpt>
      <trkpt lat="46.70215" lon="4.62507">
        <ele>274</ele>
        <time>2017-02-19T11:36:38Z</time>
      </trkpt>
      <trkpt lat="46.7021" lon="4.62503">
        <ele>274</ele>
        <time>2017-02-19T11:36:40Z</time>
      </trkpt>
      <trkpt lat="46.70205" lon="4.62497">
        <ele>274</ele>
        <time>2017-02-19T11:36:42Z</time>
      </trkpt>
      <trkpt lat="46.70199" lon="4.62493">
        <ele>274</ele>
        <time>2017-02-19T11:36:44Z</time>
      </trkpt>
      <trkpt lat="46.70193" lon="4.62488">
        <ele>275</ele>
        <time>2017-02-19T11:36:46Z</time>
      </trkpt>
      <trkpt lat="46.70188" lon="4.62484">
        <ele>275</ele>
        <time>2017-02-19T11:36:48Z</time>
      </trkpt>
      <trkpt lat="46.70182" lon="4.62479">
        <ele>275</ele>
        <time>2017-02-19T11:36:50Z</time>
      </trkpt>
      <trkpt lat="46.70177" lon="4.62476">
        <ele>276</ele>
        <time>2017-02-19T11:36:52Z</time>
      </trkpt>
      <trkpt lat="46.70172" lon="4.62471">
        <ele>276</ele>
        <time>2017-02-19T11:36:54Z</time>
      </trkpt>
      <trkpt lat="46.70168" lon="4.62467">
        <ele>277</ele>
        <time>2017-02-19T11:36:56Z</time>
      </trkpt>
      <trkpt lat="46.70163" lon="4.62462">
        <ele>277</ele>
        <time>2017-02-19T11:36:58Z</time>
      </trkpt>
      <trkpt lat="46.70158" lon="4.62457">
        <ele>278</ele>
        <time>2017-02-19T11:37:00Z</time>
      </trkpt>
      <trkpt lat="46.70153" lon="4.62451">
        <ele>278</ele>
        <time>2017-02-19T11:37:02Z</time>
      </trkpt>
      <trkpt lat="46.70147" lon="4.62445">
        <ele>278</ele>
        <time>2017-02-19T11:37:04Z</time>
      </trkpt>
      <trkpt lat="46.70142" lon="4.62439">
        <ele>278</ele>
        <time>2017-02-19T11:37:06Z</time>
      </trkpt>
      <trkpt lat="46.70138" lon="4.62433">
        <ele>278</ele>
        <time>2017-02-19T11:37:08Z</time>
      </trkpt>
      <trkpt lat="46.70134" lon="4.62427">
        <ele>278</ele>
        <time>2017-02-19T11:37:10Z</time>
      </trkpt>
      <trkpt lat="46.70129" lon="4.6242">
        <ele>277</ele>
        <time>2017-02-19T11:37:12Z</time>
      </trkpt>
      <trkpt lat="46.70124" lon="4.62412">
        <ele>277</ele>
        <time>2017-02-19T11:37:14Z</time>
      </trkpt>
      <trkpt lat="46.7012" lon="4.62404">
        <ele>277</ele>
        <time>2017-02-19T11:37:16Z</time>
      </trkpt>
      <trkpt lat="46.70116" lon="4.62399">
        <ele>276</ele>
        <time>2017-02-19T11:37:18Z</time>
      </trkpt>
      <trkpt lat="46.70111" lon="4.62392">
        <ele>275</ele>
        <time>2017-02-19T11:37:20Z</time>
      </trkpt>
      <trkpt lat="46.70105" lon="4.62385">
        <ele>274</ele>
        <time>2017-02-19T11:37:22Z</time>
      </trkpt>
      <trkpt lat="46.701" lon="4.62378">
        <ele>272</ele>
        <time>2017-02-19T11:37:24Z</time>
      </trkpt>
      <trkpt lat="46.70095" lon="4.62371">
        <ele>271</ele>
        <time>2017-02-19T11:37:26Z</time>
      </trkpt>
      <trkpt lat="46.70091" lon="4.62367">
        <ele>269</ele>
        <time>2017-02-19T11:37:28Z</time>
      </trkpt>
      <trkpt lat="46.70086" lon="4.62359">
        <ele>267</ele>
        <time>2017-02-19T11:37:30Z</time>
      </trkpt>
      <trkpt lat="46.70079" lon="4.62349">
        <ele>266</ele>
        <time>2017-02-19T11:37:32Z</time>
      </trkpt>
      <trkpt lat="46.70076" lon="4.62343">
        <ele>264</ele>
        <time>2017-02-19T11:37:33Z</time>
      </trkpt>
      <trkpt lat="46.70073" lon="4.62338">
        <ele>263</ele>
        <time>2017-02-19T11:37:34Z</time>
      </trkpt>
      <trkpt lat="46.70067" lon="4.62327">
        <ele>262</ele>
        <time>2017-02-19T11:37:36Z</time>
      </trkpt>
      <trkpt lat="46.70064" lon="4.62322">
        <ele>262</ele>
        <time>2017-02-19T11:37:37Z</time>
      </trkpt>
      <trkpt lat="46.7006" lon="4.62316">
        <ele>261</ele>
        <time>2017-02-19T11:37:38Z</time>
      </trkpt>
      <trkpt lat="46.70057" lon="4.6231">
        <ele>261</ele>
        <time>2017-02-19T11:37:39Z</time>
      </trkpt>
      <trkpt lat="46.70053" lon="4.62305">
        <ele>261</ele>
        <time>2017-02-19T11:37:40Z</time>
      </trkpt>
      <trkpt lat="46.7005" lon="4.623">
        <ele>260</ele>
        <time>2017-02-19T11:37:41Z</time>
      </trkpt>
      <trkpt lat="46.70046" lon="4.62295">
        <ele>260</ele>
        <time>2017-02-19T11:37:42Z</time>
      </trkpt>
      <trkpt lat="46.70043" lon="4.6229">
        <ele>260</ele>
        <time>2017-02-19T11:37:43Z</time>
      </trkpt>
      <trkpt lat="46.70039" lon="4.62284">
        <ele>259</ele>
        <time>2017-02-19T11:37:44Z</time>
      </trkpt>
      <trkpt lat="46.70035" lon="4.6228">
        <ele>259</ele>
        <time>2017-02-19T11:37:45Z</time>
      </trkpt>
      <trkpt lat="46.70032" lon="4.62274">
        <ele>259</ele>
        <time>2017-02-19T11:37:46Z</time>
      </trkpt>
      <trkpt lat="46.70028" lon="4.62269">
        <ele>259</ele>
        <time>2017-02-19T11:37:47Z</time>
      </trkpt>
      <trkpt lat="46.70025" lon="4.62264">
        <ele>259</ele>
        <time>2017-02-19T11:37:48Z</time>
      </trkpt>
      <trkpt lat="46.70022" lon="4.62258">
        <ele>258</ele>
        <time>2017-02-19T11:37:49Z</time>
      </trkpt>
      <trkpt lat="46.70019" lon="4.62253">
        <ele>258</ele>
        <time>2017-02-19T11:37:50Z</time>
      </trkpt>
      <trkpt lat="46.70015" lon="4.62248">
        <ele>258</ele>
        <time>2017-02-19T11:37:51Z</time>
      </trkpt>
      <trkpt lat="46.70011" lon="4.62243">
        <ele>257</ele>
        <time>2017-02-19T11:37:52Z</time>
      </trkpt>
      <trkpt lat="46.70007" lon="4.62237">
        <ele>257</ele>
        <time>2017-02-19T11:37:53Z</time>
      </trkpt>
      <trkpt lat="46.70002" lon="4.62231">
        <ele>257</ele>
        <time>2017-02-19T11:37:54Z</time>
      </trkpt>
      <trkpt lat="46.69998" lon="4.62226">
        <ele>257</ele>
        <time>2017-02-19T11:37:55Z</time>
      </trkpt>
      <trkpt lat="46.69993" lon="4.6222">
        <ele>256</ele>
        <time>2017-02-19T11:37:56Z</time>
      </trkpt>
      <trkpt lat="46.69989" lon="4.62213">
        <ele>256</ele>
        <time>2017-02-19T11:37:57Z</time>
      </trkpt>
      <trkpt lat="46.69984" lon="4.62206">
        <ele>256</ele>
        <time>2017-02-19T11:37:58Z</time>
      </trkpt>
      <trkpt lat="46.69969" lon="4.62187">
        <ele>256</ele>
        <time>2017-02-19T11:38:01Z</time>
      </trkpt>
      <trkpt lat="46.69965" lon="4.6218">
        <ele>256</ele>
        <time>2017-02-19T11:38:02Z</time>
      </trkpt>
      <trkpt lat="46.6996" lon="4.62174">
        <ele>256</ele>
        <time>2017-02-19T11:38:03Z</time>
      </trkpt>
      <trkpt lat="46.69955" lon="4.62167">
        <ele>256</ele>
        <time>2017-02-19T11:38:04Z</time>
      </trkpt>
      <trkpt lat="46.69951" lon="4.6216">
        <ele>256</ele>
        <time>2017-02-19T11:38:05Z</time>
      </trkpt>
      <trkpt lat="46.69946" lon="4.62153">
        <ele>256</ele>
        <time>2017-02-19T11:38:06Z</time>
      </trkpt>
      <trkpt lat="46.69941" lon="4.62147">
        <ele>256</ele>
        <time>2017-02-19T11:38:07Z</time>
      </trkpt>
      <trkpt lat="46.69936" lon="4.6214">
        <ele>256</ele>
        <time>2017-02-19T11:38:08Z</time>
      </trkpt>
      <trkpt lat="46.69932" lon="4.62133">
        <ele>256</ele>
        <time>2017-02-19T11:38:09Z</time>
      </trkpt>
      <trkpt lat="46.69927" lon="4.62127">
        <ele>256</ele>
        <time>2017-02-19T11:38:10Z</time>
      </trkpt>
      <trkpt lat="46.69923" lon="4.6212">
        <ele>256</ele>
        <time>2017-02-19T11:38:11Z</time>
      </trkpt>
      <trkpt lat="46.69918" lon="4.62114">
        <ele>257</ele>
        <time>2017-02-19T11:38:12Z</time>
      </trkpt>
      <trkpt lat="46.69913" lon="4.62107">
        <ele>257</ele>
        <time>2017-02-19T11:38:13Z</time>
      </trkpt>
      <trkpt lat="46.69908" lon="4.62101">
        <ele>257</ele>
        <time>2017-02-19T11:38:14Z</time>
      </trkpt>
      <trkpt lat="46.69904" lon="4.62094">
        <ele>257</ele>
        <time>2017-02-19T11:38:15Z</time>
      </trkpt>
      <trkpt lat="46.69899" lon="4.62088">
        <ele>257</ele>
        <time>2017-02-19T11:38:16Z</time>
      </trkpt>
      <trkpt lat="46.69894" lon="4.62081">
        <ele>257</ele>
        <time>2017-02-19T11:38:17Z</time>
      </trkpt>
      <trkpt lat="46.6989" lon="4.62074">
        <ele>257</ele>
        <time>2017-02-19T11:38:18Z</time>
      </trkpt>
      <trkpt lat="46.69885" lon="4.62068">
        <ele>258</ele>
        <time>2017-02-19T11:38:19Z</time>
      </trkpt>
      <trkpt lat="46.6988" lon="4.6206">
        <ele>258</ele>
        <time>2017-02-19T11:38:20Z</time>
      </trkpt>
      <trkpt lat="46.69875" lon="4.62054">
        <ele>258</ele>
        <time>2017-02-19T11:38:21Z</time>
      </trkpt>
      <trkpt lat="46.6987" lon="4.62047">
        <ele>258</ele>
        <time>2017-02-19T11:38:22Z</time>
      </trkpt>
      <trkpt lat="46.69865" lon="4.6204">
        <ele>258</ele>
        <time>2017-02-19T11:38:23Z</time>
      </trkpt>
      <trkpt lat="46.6986" lon="4.62032">
        <ele>258</ele>
        <time>2017-02-19T11:38:24Z</time>
      </trkpt>
      <trkpt lat="46.69855" lon="4.62024">
        <ele>258</ele>
        <time>2017-02-19T11:38:25Z</time>
      </trkpt>
      <trkpt lat="46.69849" lon="4.62016">
        <ele>258</ele>
        <time>2017-02-19T11:38:26Z</time>
      </trkpt>
      <trkpt lat="46.69844" lon="4.62009">
        <ele>258</ele>
        <time>2017-02-19T11:38:27Z</time>
      </trkpt>
      <trkpt lat="46.69839" lon="4.62002">
        <ele>258</ele>
        <time>2017-02-19T11:38:28Z</time>
      </trkpt>
      <trkpt lat="46.69834" lon="4.61994">
        <ele>259</ele>
        <time>2017-02-19T11:38:29Z</time>
      </trkpt>
      <trkpt lat="46.69829" lon="4.61987">
        <ele>259</ele>
        <time>2017-02-19T11:38:30Z</time>
      </trkpt>
      <trkpt lat="46.69825" lon="4.61981">
        <ele>259</ele>
        <time>2017-02-19T11:38:31Z</time>
      </trkpt>
      <trkpt lat="46.6982" lon="4.61974">
        <ele>259</ele>
        <time>2017-02-19T11:38:32Z</time>
      </trkpt>
      <trkpt lat="46.69816" lon="4.61968">
        <ele>259</ele>
        <time>2017-02-19T11:38:33Z</time>
      </trkpt>
      <trkpt lat="46.69812" lon="4.61961">
        <ele>259</ele>
        <time>2017-02-19T11:38:34Z</time>
      </trkpt>
      <trkpt lat="46.69807" lon="4.61954">
        <ele>259</ele>
        <time>2017-02-19T11:38:35Z</time>
      </trkpt>
      <trkpt lat="46.69803" lon="4.61948">
        <ele>258</ele>
        <time>2017-02-19T11:38:36Z</time>
      </trkpt>
      <trkpt lat="46.69799" lon="4.61942">
        <ele>258</ele>
        <time>2017-02-19T11:38:37Z</time>
      </trkpt>
      <trkpt lat="46.69795" lon="4.61936">
        <ele>258</ele>
        <time>2017-02-19T11:38:38Z</time>
      </trkpt>
      <trkpt lat="46.6979" lon="4.6193">
        <ele>258</ele>
        <time>2017-02-19T11:38:39Z</time>
      </trkpt>
      <trkpt lat="46.69786" lon="4.61924">
        <ele>257</ele>
        <time>2017-02-19T11:38:40Z</time>
      </trkpt>
      <trkpt lat="46.69781" lon="4.61918">
        <ele>257</ele>
        <time>2017-02-19T11:38:41Z</time>
      </trkpt>
      <trkpt lat="46.69775" lon="4.61912">
        <ele>257</ele>
        <time>2017-02-19T11:38:42Z</time>
      </trkpt>
      <trkpt lat="46.6977" lon="4.61906">
        <ele>257</ele>
        <time>2017-02-19T11:38:43Z</time>
      </trkpt>
      <trkpt lat="46.69764" lon="4.61902">
        <ele>257</ele>
        <time>2017-02-19T11:38:44Z</time>
      </trkpt>
      <trkpt lat="46.69759" lon="4.61898">
        <ele>257</ele>
        <time>2017-02-19T11:38:45Z</time>
      </trkpt>
      <trkpt lat="46.69754" lon="4.61895">
        <ele>257</ele>
        <time>2017-02-19T11:38:46Z</time>
      </trkpt>
      <trkpt lat="46.69749" lon="4.61891">
        <ele>257</ele>
        <time>2017-02-19T11:38:47Z</time>
      </trkpt>
      <trkpt lat="46.69743" lon="4.61887">
        <ele>257</ele>
        <time>2017-02-19T11:38:48Z</time>
      </trkpt>
      <trkpt lat="46.69738" lon="4.61883">
        <ele>257</ele>
        <time>2017-02-19T11:38:49Z</time>
      </trkpt>
      <trkpt lat="46.69732" lon="4.61879">
        <ele>257</ele>
        <time>2017-02-19T11:38:50Z</time>
      </trkpt>
      <trkpt lat="46.69727" lon="4.61877">
        <ele>256</ele>
        <time>2017-02-19T11:38:51Z</time>
      </trkpt>
      <trkpt lat="46.69721" lon="4.61876">
        <ele>256</ele>
        <time>2017-02-19T11:38:52Z</time>
      </trkpt>
      <trkpt lat="46.69716" lon="4.61875">
        <ele>256</ele>
        <time>2017-02-19T11:38:53Z</time>
      </trkpt>
      <trkpt lat="46.69711" lon="4.61875">
        <ele>255</ele>
        <time>2017-02-19T11:38:54Z</time>
      </trkpt>
      <trkpt lat="46.69706" lon="4.61875">
        <ele>254</ele>
        <time>2017-02-19T11:38:55Z</time>
      </trkpt>
      <trkpt lat="46.69701" lon="4.61874">
        <ele>253</ele>
        <time>2017-02-19T11:38:56Z</time>
      </trkpt>
      <trkpt lat="46.69695" lon="4.61873">
        <ele>252</ele>
        <time>2017-02-19T11:38:57Z</time>
      </trkpt>
      <trkpt lat="46.6969" lon="4.61871">
        <ele>251</ele>
        <time>2017-02-19T11:38:58Z</time>
      </trkpt>
      <trkpt lat="46.69684" lon="4.61869">
        <ele>250</ele>
        <time>2017-02-19T11:38:59Z</time>
      </trkpt>
      <trkpt lat="46.69679" lon="4.61867">
        <ele>249</ele>
        <time>2017-02-19T11:39:00Z</time>
      </trkpt>
      <trkpt lat="46.69674" lon="4.61864">
        <ele>248</ele>
        <time>2017-02-19T11:39:01Z</time>
      </trkpt>
      <trkpt lat="46.69668" lon="4.61862">
        <ele>248</ele>
        <time>2017-02-19T11:39:02Z</time>
      </trkpt>
      <trkpt lat="46.69663" lon="4.61859">
        <ele>247</ele>
        <time>2017-02-19T11:39:03Z</time>
      </trkpt>
      <trkpt lat="46.69658" lon="4.61857">
        <ele>246</ele>
        <time>2017-02-19T11:39:04Z</time>
      </trkpt>
      <trkpt lat="46.69653" lon="4.61855">
        <ele>246</ele>
        <time>2017-02-19T11:39:05Z</time>
      </trkpt>
      <trkpt lat="46.69648" lon="4.61854">
        <ele>245</ele>
        <time>2017-02-19T11:39:06Z</time>
      </trkpt>
      <trkpt lat="46.69643" lon="4.61853">
        <ele>244</ele>
        <time>2017-02-19T11:39:07Z</time>
      </trkpt>
      <trkpt lat="46.69638" lon="4.6185">
        <ele>242</ele>
        <time>2017-02-19T11:39:08Z</time>
      </trkpt>
      <trkpt lat="46.69633" lon="4.61847">
        <ele>241</ele>
        <time>2017-02-19T11:39:09Z</time>
      </trkpt>
      <trkpt lat="46.69628" lon="4.61844">
        <ele>240</ele>
        <time>2017-02-19T11:39:10Z</time>
      </trkpt>
      <trkpt lat="46.69622" lon="4.61839">
        <ele>240</ele>
        <time>2017-02-19T11:39:11Z</time>
      </trkpt>
      <trkpt lat="46.69617" lon="4.61834">
        <ele>240</ele>
        <time>2017-02-19T11:39:12Z</time>
      </trkpt>
      <trkpt lat="46.69611" lon="4.61828">
        <ele>240</ele>
        <time>2017-02-19T11:39:13Z</time>
      </trkpt>
      <trkpt lat="46.69605" lon="4.61823">
        <ele>240</ele>
        <time>2017-02-19T11:39:14Z</time>
      </trkpt>
      <trkpt lat="46.69599" lon="4.61817">
        <ele>241</ele>
        <time>2017-02-19T11:39:15Z</time>
      </trkpt>
      <trkpt lat="46.69592" lon="4.61812">
        <ele>241</ele>
        <time>2017-02-19T11:39:16Z</time>
      </trkpt>
      <trkpt lat="46.69586" lon="4.61806">
        <ele>242</ele>
        <time>2017-02-19T11:39:17Z</time>
      </trkpt>
      <trkpt lat="46.6958" lon="4.618">
        <ele>243</ele>
        <time>2017-02-19T11:39:18Z</time>
      </trkpt>
      <trkpt lat="46.69574" lon="4.61795">
        <ele>244</ele>
        <time>2017-02-19T11:39:19Z</time>
      </trkpt>
      <trkpt lat="46.69568" lon="4.61791">
        <ele>244</ele>
        <time>2017-02-19T11:39:20Z</time>
      </trkpt>
      <trkpt lat="46.69562" lon="4.61787">
        <ele>245</ele>
        <time>2017-02-19T11:39:21Z</time>
      </trkpt>
      <trkpt lat="46.69556" lon="4.61783">
        <ele>245</ele>
        <time>2017-02-19T11:39:22Z</time>
      </trkpt>
      <trkpt lat="46.6955" lon="4.61779">
        <ele>246</ele>
        <time>2017-02-19T11:39:23Z</time>
      </trkpt>
      <trkpt lat="46.69544" lon="4.61775">
        <ele>246</ele>
        <time>2017-02-19T11:39:24Z</time>
      </trkpt>
      <trkpt lat="46.69537" lon="4.61771">
        <ele>246</ele>
        <time>2017-02-19T11:39:25Z</time>
      </trkpt>
      <trkpt lat="46.69531" lon="4.61767">
        <ele>247</ele>
        <time>2017-02-19T11:39:26Z</time>
      </trkpt>
      <trkpt lat="46.69525" lon="4.61763">
        <ele>247</ele>
        <time>2017-02-19T11:39:27Z</time>
      </trkpt>
      <trkpt lat="46.69519" lon="4.61759">
        <ele>247</ele>
        <time>2017-02-19T11:39:28Z</time>
      </trkpt>
      <trkpt lat="46.69514" lon="4.61756">
        <ele>247</ele>
        <time>2017-02-19T11:39:29Z</time>
      </trkpt>
      <trkpt lat="46.69509" lon="4.61752">
        <ele>248</ele>
        <time>2017-02-19T11:39:30Z</time>
      </trkpt>
      <trkpt lat="46.69503" lon="4.61749">
        <ele>248</ele>
        <time>2017-02-19T11:39:31Z</time>
      </trkpt>
      <trkpt lat="46.69498" lon="4.61745">
        <ele>248</ele>
        <time>2017-02-19T11:39:32Z</time>
      </trkpt>
      <trkpt lat="46.69492" lon="4.61741">
        <ele>248</ele>
        <time>2017-02-19T11:39:33Z</time>
      </trkpt>
      <trkpt lat="46.69486" lon="4.61737">
        <ele>248</ele>
        <time>2017-02-19T11:39:34Z</time>
      </trkpt>
      <trkpt lat="46.69481" lon="4.61732">
        <ele>249</ele>
        <time>2017-02-19T11:39:35Z</time>
      </trkpt>
      <trkpt lat="46.69476" lon="4.61729">
        <ele>249</ele>
        <time>2017-02-19T11:39:36Z</time>
      </trkpt>
      <trkpt lat="46.69471" lon="4.61724">
        <ele>250</ele>
        <time>2017-02-19T11:39:37Z</time>
      </trkpt>
      <trkpt lat="46.69466" lon="4.6172">
        <ele>250</ele>
        <time>2017-02-19T11:39:38Z</time>
      </trkpt>
      <trkpt lat="46.69461" lon="4.61717">
        <ele>251</ele>
        <time>2017-02-19T11:39:39Z</time>
      </trkpt>
      <trkpt lat="46.69457" lon="4.61714">
        <ele>252</ele>
        <time>2017-02-19T11:39:40Z</time>
      </trkpt>
      <trkpt lat="46.69452" lon="4.61711">
        <ele>252</ele>
        <time>2017-02-19T11:39:41Z</time>
      </trkpt>
      <trkpt lat="46.69447" lon="4.61709">
        <ele>252</ele>
        <time>2017-02-19T11:39:42Z</time>
      </trkpt>
      <trkpt lat="46.69442" lon="4.61707">
        <ele>253</ele>
        <time>2017-02-19T11:39:43Z</time>
      </trkpt>
      <trkpt lat="46.69437" lon="4.61704">
        <ele>253</ele>
        <time>2017-02-19T11:39:44Z</time>
      </trkpt>
      <trkpt lat="46.69432" lon="4.61702">
        <ele>253</ele>
        <time>2017-02-19T11:39:45Z</time>
      </trkpt>
      <trkpt lat="46.69428" lon="4.617">
        <ele>253</ele>
        <time>2017-02-19T11:39:46Z</time>
      </trkpt>
      <trkpt lat="46.6942" lon="4.61696">
        <ele>252</ele>
        <time>2017-02-19T11:39:48Z</time>
      </trkpt>
      <trkpt lat="46.69415" lon="4.61692">
        <ele>252</ele>
        <time>2017-02-19T11:39:49Z</time>
      </trkpt>
      <trkpt lat="46.6941" lon="4.61689">
        <ele>252</ele>
        <time>2017-02-19T11:39:50Z</time>
      </trkpt>
      <trkpt lat="46.69404" lon="4.61685">
        <ele>252</ele>
        <time>2017-02-19T11:39:51Z</time>
      </trkpt>
      <trkpt lat="46.69398" lon="4.61681">
        <ele>252</ele>
        <time>2017-02-19T11:39:52Z</time>
      </trkpt>
      <trkpt lat="46.69393" lon="4.61677">
        <ele>252</ele>
        <time>2017-02-19T11:39:53Z</time>
      </trkpt>
      <trkpt lat="46.69388" lon="4.61673">
        <ele>252</ele>
        <time>2017-02-19T11:39:54Z</time>
      </trkpt>
      <trkpt lat="46.69381" lon="4.61664">
        <ele>253</ele>
        <time>2017-02-19T11:39:56Z</time>
      </trkpt>
      <trkpt lat="46.69377" lon="4.61661">
        <ele>254</ele>
        <time>2017-02-19T11:39:57Z</time>
      </trkpt>
      <trkpt lat="46.69369" lon="4.61655">
        <ele>255</ele>
        <time>2017-02-19T11:39:59Z</time>
      </trkpt>
      <trkpt lat="46.69362" lon="4.6165">
        <ele>255</ele>
        <time>2017-02-19T11:40:01Z</time>
      </trkpt>
      <trkpt lat="46.69355" lon="4.61645">
        <ele>256</ele>
        <time>2017-02-19T11:40:03Z</time>
      </trkpt>
      <trkpt lat="46.69348" lon="4.61639">
        <ele>257</ele>
        <time>2017-02-19T11:40:05Z</time>
      </trkpt>
      <trkpt lat="46.6934" lon="4.61633">
        <ele>258</ele>
        <time>2017-02-19T11:40:07Z</time>
      </trkpt>
      <trkpt lat="46.69333" lon="4.61629">
        <ele>259</ele>
        <time>2017-02-19T11:40:09Z</time>
      </trkpt>
      <trkpt lat="46.69325" lon="4.61625">
        <ele>260</ele>
        <time>2017-02-19T11:40:11Z</time>
      </trkpt>
      <trkpt lat="46.69319" lon="4.61621">
        <ele>261</ele>
        <time>2017-02-19T11:40:13Z</time>
      </trkpt>
      <trkpt lat="46.69313" lon="4.61618">
        <ele>262</ele>
        <time>2017-02-19T11:40:15Z</time>
      </trkpt>
      <trkpt lat="46.69305" lon="4.61613">
        <ele>262</ele>
        <time>2017-02-19T11:40:17Z</time>
      </trkpt>
      <trkpt lat="46.69298" lon="4.61609">
        <ele>263</ele>
        <time>2017-02-19T11:40:19Z</time>
      </trkpt>
      <trkpt lat="46.6929" lon="4.61603">
        <ele>264</ele>
        <time>2017-02-19T11:40:21Z</time>
      </trkpt>
      <trkpt lat="46.69286" lon="4.61601">
        <ele>264</ele>
        <time>2017-02-19T11:40:22Z</time>
      </trkpt>
      <trkpt lat="46.69279" lon="4.61597">
        <ele>265</ele>
        <time>2017-02-19T11:40:24Z</time>
      </trkpt>
      <trkpt lat="46.69272" lon="4.61593">
        <ele>266</ele>
        <time>2017-02-19T11:40:26Z</time>
      </trkpt>
      <trkpt lat="46.69265" lon="4.61589">
        <ele>266</ele>
        <time>2017-02-19T11:40:28Z</time>
      </trkpt>
      <trkpt lat="46.69258" lon="4.61584">
        <ele>266</ele>
        <time>2017-02-19T11:40:30Z</time>
      </trkpt>
      <trkpt lat="46.6925" lon="4.61578">
        <ele>266</ele>
        <time>2017-02-19T11:40:32Z</time>
      </trkpt>
      <trkpt lat="46.69243" lon="4.61573">
        <ele>267</ele>
        <time>2017-02-19T11:40:34Z</time>
      </trkpt>
      <trkpt lat="46.69235" lon="4.61568">
        <ele>267</ele>
        <time>2017-02-19T11:40:36Z</time>
      </trkpt>
      <trkpt lat="46.69228" lon="4.61563">
        <ele>268</ele>
        <time>2017-02-19T11:40:38Z</time>
      </trkpt>
      <trkpt lat="46.69222" lon="4.61559">
        <ele>269</ele>
        <time>2017-02-19T11:40:40Z</time>
      </trkpt>
      <trkpt lat="46.69216" lon="4.61553">
        <ele>270</ele>
        <time>2017-02-19T11:40:42Z</time>
      </trkpt>
      <trkpt lat="46.69209" lon="4.61546">
        <ele>270</ele>
        <time>2017-02-19T11:40:44Z</time>
      </trkpt>
      <trkpt lat="46.69201" lon="4.61541">
        <ele>271</ele>
        <time>2017-02-19T11:40:46Z</time>
      </trkpt>
      <trkpt lat="46.69196" lon="4.61538">
        <ele>271</ele>
        <time>2017-02-19T11:40:47Z</time>
      </trkpt>
      <trkpt lat="46.69192" lon="4.61534">
        <ele>272</ele>
        <time>2017-02-19T11:40:48Z</time>
      </trkpt>
      <trkpt lat="46.69188" lon="4.61531">
        <ele>273</ele>
        <time>2017-02-19T11:40:49Z</time>
      </trkpt>
      <trkpt lat="46.69183" lon="4.61528">
        <ele>273</ele>
        <time>2017-02-19T11:40:50Z</time>
      </trkpt>
      <trkpt lat="46.69179" lon="4.61526">
        <ele>273</ele>
        <time>2017-02-19T11:40:51Z</time>
      </trkpt>
      <trkpt lat="46.69175" lon="4.61523">
        <ele>274</ele>
        <time>2017-02-19T11:40:52Z</time>
      </trkpt>
      <trkpt lat="46.6917" lon="4.6152">
        <ele>274</ele>
        <time>2017-02-19T11:40:53Z</time>
      </trkpt>
      <trkpt lat="46.69165" lon="4.61518">
        <ele>274</ele>
        <time>2017-02-19T11:40:54Z</time>
      </trkpt>
      <trkpt lat="46.69161" lon="4.61516">
        <ele>274</ele>
        <time>2017-02-19T11:40:55Z</time>
      </trkpt>
      <trkpt lat="46.69156" lon="4.61513">
        <ele>275</ele>
        <time>2017-02-19T11:40:56Z</time>
      </trkpt>
      <trkpt lat="46.69152" lon="4.6151">
        <ele>275</ele>
        <time>2017-02-19T11:40:57Z</time>
      </trkpt>
      <trkpt lat="46.69147" lon="4.61508">
        <ele>275</ele>
        <time>2017-02-19T11:40:58Z</time>
      </trkpt>
      <trkpt lat="46.69143" lon="4.61506">
        <ele>275</ele>
        <time>2017-02-19T11:40:59Z</time>
      </trkpt>
      <trkpt lat="46.69138" lon="4.61503">
        <ele>275</ele>
        <time>2017-02-19T11:41:00Z</time>
      </trkpt>
      <trkpt lat="46.69134" lon="4.61501">
        <ele>275</ele>
        <time>2017-02-19T11:41:01Z</time>
      </trkpt>
      <trkpt lat="46.6913" lon="4.61498">
        <ele>275</ele>
        <time>2017-02-19T11:41:02Z</time>
      </trkpt>
      <trkpt lat="46.69125" lon="4.61495">
        <ele>275</ele>
        <time>2017-02-19T11:41:03Z</time>
      </trkpt>
      <trkpt lat="46.6912" lon="4.61493">
        <ele>275</ele>
        <time>2017-02-19T11:41:04Z</time>
      </trkpt>
      <trkpt lat="46.69116" lon="4.6149">
        <ele>275</ele>
        <time>2017-02-19T11:41:05Z</time>
      </trkpt>
      <trkpt lat="46.69111" lon="4.61487">
        <ele>275</ele>
        <time>2017-02-19T11:41:06Z</time>
      </trkpt>
      <trkpt lat="46.69106" lon="4.61484">
        <ele>275</ele>
        <time>2017-02-19T11:41:07Z</time>
      </trkpt>
      <trkpt lat="46.69102" lon="4.61482">
        <ele>276</ele>
        <time>2017-02-19T11:41:08Z</time>
      </trkpt>
      <trkpt lat="46.69097" lon="4.61479">
        <ele>276</ele>
        <time>2017-02-19T11:41:09Z</time>
      </trkpt>
      <trkpt lat="46.69092" lon="4.61476">
        <ele>276</ele>
        <time>2017-02-19T11:41:10Z</time>
      </trkpt>
      <trkpt lat="46.69087" lon="4.61473">
        <ele>276</ele>
        <time>2017-02-19T11:41:11Z</time>
      </trkpt>
      <trkpt lat="46.69082" lon="4.6147">
        <ele>276</ele>
        <time>2017-02-19T11:41:12Z</time>
      </trkpt>
      <trkpt lat="46.69077" lon="4.61466">
        <ele>276</ele>
        <time>2017-02-19T11:41:13Z</time>
      </trkpt>
      <trkpt lat="46.69072" lon="4.61464">
        <ele>276</ele>
        <time>2017-02-19T11:41:14Z</time>
      </trkpt>
      <trkpt lat="46.69067" lon="4.61461">
        <ele>276</ele>
        <time>2017-02-19T11:41:15Z</time>
      </trkpt>
      <trkpt lat="46.69062" lon="4.61458">
        <ele>276</ele>
        <time>2017-02-19T11:41:16Z</time>
      </trkpt>
      <trkpt lat="46.69057" lon="4.61455">
        <ele>276</ele>
        <time>2017-02-19T11:41:17Z</time>
      </trkpt>
      <trkpt lat="46.69052" lon="4.61451">
        <ele>276</ele>
        <time>2017-02-19T11:41:18Z</time>
      </trkpt>
      <trkpt lat="46.69047" lon="4.61447">
        <ele>277</ele>
        <time>2017-02-19T11:41:19Z</time>
      </trkpt>
      <trkpt lat="46.69043" lon="4.61444">
        <ele>277</ele>
        <time>2017-02-19T11:41:20Z</time>
      </trkpt>
      <trkpt lat="46.69038" lon="4.61441">
        <ele>277</ele>
        <time>2017-02-19T11:41:21Z</time>
      </trkpt>
      <trkpt lat="46.69034" lon="4.61437">
        <ele>278</ele>
        <time>2017-02-19T11:41:22Z</time>
      </trkpt>
      <trkpt lat="46.6903" lon="4.61434">
        <ele>278</ele>
        <time>2017-02-19T11:41:23Z</time>
      </trkpt>
      <trkpt lat="46.69026" lon="4.61431">
        <ele>278</ele>
        <time>2017-02-19T11:41:24Z</time>
      </trkpt>
      <trkpt lat="46.69017" lon="4.61426">
        <ele>279</ele>
        <time>2017-02-19T11:41:26Z</time>
      </trkpt>
      <trkpt lat="46.69011" lon="4.61422">
        <ele>279</ele>
        <time>2017-02-19T11:41:28Z</time>
      </trkpt>
      <trkpt lat="46.69003" lon="4.61423">
        <ele>279</ele>
        <time>2017-02-19T11:41:30Z</time>
      </trkpt>
      <trkpt lat="46.68999" lon="4.6143">
        <ele>280</ele>
        <time>2017-02-19T11:41:32Z</time>
      </trkpt>
      <trkpt lat="46.68995" lon="4.61437">
        <ele>280</ele>
        <time>2017-02-19T11:41:34Z</time>
      </trkpt>
      <trkpt lat="46.68993" lon="4.61446">
        <ele>280</ele>
        <time>2017-02-19T11:41:36Z</time>
      </trkpt>
      <trkpt lat="46.6899" lon="4.61452">
        <ele>280</ele>
        <time>2017-02-19T11:41:38Z</time>
      </trkpt>
      <trkpt lat="46.68989" lon="4.61459">
        <ele>281</ele>
        <time>2017-02-19T11:41:40Z</time>
      </trkpt>
      <trkpt lat="46.68988" lon="4.61466">
        <ele>281</ele>
        <time>2017-02-19T11:41:42Z</time>
      </trkpt>
      <trkpt lat="46.68986" lon="4.61473">
        <ele>282</ele>
        <time>2017-02-19T11:41:44Z</time>
      </trkpt>
      <trkpt lat="46.68985" lon="4.6148">
        <ele>283</ele>
        <time>2017-02-19T11:41:46Z</time>
      </trkpt>
      <trkpt lat="46.68983" lon="4.61488">
        <ele>283</ele>
        <time>2017-02-19T11:41:48Z</time>
      </trkpt>
      <trkpt lat="46.68982" lon="4.61496">
        <ele>284</ele>
        <time>2017-02-19T11:41:50Z</time>
      </trkpt>
      <trkpt lat="46.6898" lon="4.61504">
        <ele>285</ele>
        <time>2017-02-19T11:41:52Z</time>
      </trkpt>
      <trkpt lat="46.68978" lon="4.6151">
        <ele>285</ele>
        <time>2017-02-19T11:41:54Z</time>
      </trkpt>
      <trkpt lat="46.68975" lon="4.61516">
        <ele>286</ele>
        <time>2017-02-19T11:41:56Z</time>
      </trkpt>
      <trkpt lat="46.68974" lon="4.61523">
        <ele>286</ele>
        <time>2017-02-19T11:41:58Z</time>
      </trkpt>
      <trkpt lat="46.68969" lon="4.61542">
        <ele>287</ele>
        <time>2017-02-19T11:42:04Z</time>
      </trkpt>
      <trkpt lat="46.68968" lon="4.61549">
        <ele>288</ele>
        <time>2017-02-19T11:42:06Z</time>
      </trkpt>
      <trkpt lat="46.68966" lon="4.61555">
        <ele>288</ele>
        <time>2017-02-19T11:42:08Z</time>
      </trkpt>
      <trkpt lat="46.68965" lon="4.61562">
        <ele>289</ele>
        <time>2017-02-19T11:42:11Z</time>
      </trkpt>
      <trkpt lat="46.68963" lon="4.6157">
        <ele>290</ele>
        <time>2017-02-19T11:42:14Z</time>
      </trkpt>
      <trkpt lat="46.6896" lon="4.61579">
        <ele>292</ele>
        <time>2017-02-19T11:42:17Z</time>
      </trkpt>
      <trkpt lat="46.68958" lon="4.61586">
        <ele>293</ele>
        <time>2017-02-19T11:42:20Z</time>
      </trkpt>
      <trkpt lat="46.68956" lon="4.61596">
        <ele>294</ele>
        <time>2017-02-19T11:42:23Z</time>
      </trkpt>
      <trkpt lat="46.68953" lon="4.61603">
        <ele>295</ele>
        <time>2017-02-19T11:42:25Z</time>
      </trkpt>
      <trkpt lat="46.68951" lon="4.61609">
        <ele>296</ele>
        <time>2017-02-19T11:42:27Z</time>
      </trkpt>
      <trkpt lat="46.68949" lon="4.61618">
        <ele>296</ele>
        <time>2017-02-19T11:42:30Z</time>
      </trkpt>
      <trkpt lat="46.68947" lon="4.61624">
        <ele>297</ele>
        <time>2017-02-19T11:42:32Z</time>
      </trkpt>
      <trkpt lat="46.68945" lon="4.61632">
        <ele>298</ele>
        <time>2017-02-19T11:42:35Z</time>
      </trkpt>
      <trkpt lat="46.68942" lon="4.61639">
        <ele>298</ele>
        <time>2017-02-19T11:42:38Z</time>
      </trkpt>
      <trkpt lat="46.6894" lon="4.61647">
        <ele>299</ele>
        <time>2017-02-19T11:42:40Z</time>
      </trkpt>
      <trkpt lat="46.68938" lon="4.61653">
        <ele>300</ele>
        <time>2017-02-19T11:42:42Z</time>
      </trkpt>
      <trkpt lat="46.68936" lon="4.6166">
        <ele>300</ele>
        <time>2017-02-19T11:42:44Z</time>
      </trkpt>
      <trkpt lat="46.68934" lon="4.61666">
        <ele>301</ele>
        <time>2017-02-19T11:42:46Z</time>
      </trkpt>
      <trkpt lat="46.68932" lon="4.61673">
        <ele>301</ele>
        <time>2017-02-19T11:42:48Z</time>
      </trkpt>
      <trkpt lat="46.68931" lon="4.6168">
        <ele>301</ele>
        <time>2017-02-19T11:42:50Z</time>
      </trkpt>
      <trkpt lat="46.68929" lon="4.61688">
        <ele>300</ele>
        <time>2017-02-19T11:42:53Z</time>
      </trkpt>
      <trkpt lat="46.68928" lon="4.61695">
        <ele>299</ele>
        <time>2017-02-19T11:42:56Z</time>
      </trkpt>
      <trkpt lat="46.68927" lon="4.61704">
        <ele>298</ele>
        <time>2017-02-19T11:42:59Z</time>
      </trkpt>
      <trkpt lat="46.68926" lon="4.61713">
        <ele>296</ele>
        <time>2017-02-19T11:43:02Z</time>
      </trkpt>
      <trkpt lat="46.68926" lon="4.61722">
        <ele>295</ele>
        <time>2017-02-19T11:43:05Z</time>
      </trkpt>
      <trkpt lat="46.68924" lon="4.61729">
        <ele>293</ele>
        <time>2017-02-19T11:43:07Z</time>
      </trkpt>
      <trkpt lat="46.68924" lon="4.61737">
        <ele>292</ele>
        <time>2017-02-19T11:43:10Z</time>
      </trkpt>
      <trkpt lat="46.68924" lon="4.61745">
        <ele>291</ele>
        <time>2017-02-19T11:43:13Z</time>
      </trkpt>
      <trkpt lat="46.68922" lon="4.61755">
        <ele>289</ele>
        <time>2017-02-19T11:43:16Z</time>
      </trkpt>
      <trkpt lat="46.68922" lon="4.61763">
        <ele>288</ele>
        <time>2017-02-19T11:43:18Z</time>
      </trkpt>
      <trkpt lat="46.68919" lon="4.61773">
        <ele>285</ele>
        <time>2017-02-19T11:43:20Z</time>
      </trkpt>
      <trkpt lat="46.68916" lon="4.61784">
        <ele>283</ele>
        <time>2017-02-19T11:43:22Z</time>
      </trkpt>
      <trkpt lat="46.68914" lon="4.61791">
        <ele>281</ele>
        <time>2017-02-19T11:43:23Z</time>
      </trkpt>
      <trkpt lat="46.68912" lon="4.618">
        <ele>280</ele>
        <time>2017-02-19T11:43:24Z</time>
      </trkpt>
      <trkpt lat="46.6891" lon="4.61811">
        <ele>278</ele>
        <time>2017-02-19T11:43:25Z</time>
      </trkpt>
      <trkpt lat="46.68906" lon="4.61822">
        <ele>277</ele>
        <time>2017-02-19T11:43:26Z</time>
      </trkpt>
      <trkpt lat="46.68904" lon="4.61835">
        <ele>277</ele>
        <time>2017-02-19T11:43:27Z</time>
      </trkpt>
      <trkpt lat="46.68901" lon="4.61846">
        <ele>277</ele>
        <time>2017-02-19T11:43:28Z</time>
      </trkpt>
      <trkpt lat="46.68898" lon="4.61858">
        <ele>277</ele>
        <time>2017-02-19T11:43:29Z</time>
      </trkpt>
      <trkpt lat="46.68895" lon="4.6187">
        <ele>277</ele>
        <time>2017-02-19T11:43:30Z</time>
      </trkpt>
      <trkpt lat="46.68892" lon="4.61881">
        <ele>277</ele>
        <time>2017-02-19T11:43:31Z</time>
      </trkpt>
      <trkpt lat="46.68889" lon="4.61892">
        <ele>278</ele>
        <time>2017-02-19T11:43:32Z</time>
      </trkpt>
      <trkpt lat="46.68885" lon="4.61903">
        <ele>278</ele>
        <time>2017-02-19T11:43:33Z</time>
      </trkpt>
      <trkpt lat="46.68882" lon="4.61913">
        <ele>279</ele>
        <time>2017-02-19T11:43:34Z</time>
      </trkpt>
      <trkpt lat="46.68879" lon="4.61923">
        <ele>279</ele>
        <time>2017-02-19T11:43:35Z</time>
      </trkpt>
      <trkpt lat="46.68876" lon="4.61932">
        <ele>279</ele>
        <time>2017-02-19T11:43:36Z</time>
      </trkpt>
      <trkpt lat="46.68874" lon="4.61942">
        <ele>279</ele>
        <time>2017-02-19T11:43:37Z</time>
      </trkpt>
      <trkpt lat="46.68872" lon="4.61951">
        <ele>280</ele>
        <time>2017-02-19T11:43:38Z</time>
      </trkpt>
      <trkpt lat="46.6887" lon="4.6196">
        <ele>280</ele>
        <time>2017-02-19T11:43:39Z</time>
      </trkpt>
      <trkpt lat="46.68869" lon="4.61969">
        <ele>281</ele>
        <time>2017-02-19T11:43:40Z</time>
      </trkpt>
      <trkpt lat="46.68867" lon="4.61977">
        <ele>281</ele>
        <time>2017-02-19T11:43:41Z</time>
      </trkpt>
      <trkpt lat="46.68866" lon="4.61986">
        <ele>282</ele>
        <time>2017-02-19T11:43:42Z</time>
      </trkpt>
      <trkpt lat="46.68864" lon="4.61993">
        <ele>283</ele>
        <time>2017-02-19T11:43:43Z</time>
      </trkpt>
      <trkpt lat="46.68864" lon="4.62001">
        <ele>284</ele>
        <time>2017-02-19T11:43:44Z</time>
      </trkpt>
      <trkpt lat="46.68863" lon="4.62007">
        <ele>285</ele>
        <time>2017-02-19T11:43:45Z</time>
      </trkpt>
      <trkpt lat="46.68861" lon="4.6202">
        <ele>285</ele>
        <time>2017-02-19T11:43:47Z</time>
      </trkpt>
      <trkpt lat="46.68859" lon="4.62032">
        <ele>286</ele>
        <time>2017-02-19T11:43:49Z</time>
      </trkpt>
      <trkpt lat="46.68858" lon="4.6204">
        <ele>287</ele>
        <time>2017-02-19T11:43:50Z</time>
      </trkpt>
      <trkpt lat="46.68857" lon="4.62047">
        <ele>288</ele>
        <time>2017-02-19T11:43:51Z</time>
      </trkpt>
      <trkpt lat="46.68856" lon="4.62059">
        <ele>289</ele>
        <time>2017-02-19T11:43:53Z</time>
      </trkpt>
      <trkpt lat="46.68855" lon="4.62069">
        <ele>291</ele>
        <time>2017-02-19T11:43:55Z</time>
      </trkpt>
      <trkpt lat="46.68855" lon="4.62078">
        <ele>292</ele>
        <time>2017-02-19T11:43:57Z</time>
      </trkpt>
      <trkpt lat="46.68853" lon="4.62087">
        <ele>293</ele>
        <time>2017-02-19T11:43:59Z</time>
      </trkpt>
      <trkpt lat="46.68853" lon="4.62094">
        <ele>295</ele>
        <time>2017-02-19T11:44:01Z</time>
      </trkpt>
      <trkpt lat="46.68851" lon="4.62104">
        <ele>296</ele>
        <time>2017-02-19T11:44:04Z</time>
      </trkpt>
      <trkpt lat="46.68851" lon="4.62111">
        <ele>297</ele>
        <time>2017-02-19T11:44:06Z</time>
      </trkpt>
      <trkpt lat="46.6885" lon="4.62121">
        <ele>298</ele>
        <time>2017-02-19T11:44:09Z</time>
      </trkpt>
      <trkpt lat="46.68849" lon="4.62128">
        <ele>299</ele>
        <time>2017-02-19T11:44:11Z</time>
      </trkpt>
      <trkpt lat="46.68847" lon="4.62136">
        <ele>300</ele>
        <time>2017-02-19T11:44:14Z</time>
      </trkpt>
      <trkpt lat="46.68846" lon="4.62144">
        <ele>301</ele>
        <time>2017-02-19T11:44:17Z</time>
      </trkpt>
      <trkpt lat="46.68844" lon="4.62152">
        <ele>302</ele>
        <time>2017-02-19T11:44:21Z</time>
      </trkpt>
      <trkpt lat="46.6884" lon="4.62159">
        <ele>302</ele>
        <time>2017-02-19T11:44:25Z</time>
      </trkpt>
      <trkpt lat="46.68839" lon="4.62166">
        <ele>303</ele>
        <time>2017-02-19T11:44:28Z</time>
      </trkpt>
      <trkpt lat="46.68836" lon="4.62173">
        <ele>304</ele>
        <time>2017-02-19T11:44:31Z</time>
      </trkpt>
      <trkpt lat="46.68833" lon="4.6218">
        <ele>305</ele>
        <time>2017-02-19T11:44:34Z</time>
      </trkpt>
      <trkpt lat="46.6883" lon="4.62187">
        <ele>306</ele>
        <time>2017-02-19T11:44:37Z</time>
      </trkpt>
      <trkpt lat="46.68827" lon="4.62195">
        <ele>308</ele>
        <time>2017-02-19T11:44:40Z</time>
      </trkpt>
      <trkpt lat="46.68824" lon="4.62203">
        <ele>309</ele>
        <time>2017-02-19T11:44:43Z</time>
      </trkpt>
      <trkpt lat="46.68822" lon="4.62211">
        <ele>311</ele>
        <time>2017-02-19T11:44:46Z</time>
      </trkpt>
      <trkpt lat="46.68819" lon="4.62218">
        <ele>312</ele>
        <time>2017-02-19T11:44:49Z</time>
      </trkpt>
      <trkpt lat="46.68815" lon="4.62223">
        <ele>313</ele>
        <time>2017-02-19T11:44:52Z</time>
      </trkpt>
      <trkpt lat="46.68812" lon="4.62228">
        <ele>314</ele>
        <time>2017-02-19T11:44:55Z</time>
      </trkpt>
      <trkpt lat="46.68808" lon="4.62234">
        <ele>315</ele>
        <time>2017-02-19T11:44:58Z</time>
      </trkpt>
      <trkpt lat="46.68804" lon="4.62241">
        <ele>315</ele>
        <time>2017-02-19T11:45:01Z</time>
      </trkpt>
      <trkpt lat="46.68801" lon="4.62247">
        <ele>316</ele>
        <time>2017-02-19T11:45:04Z</time>
      </trkpt>
      <trkpt lat="46.68797" lon="4.62254">
        <ele>317</ele>
        <time>2017-02-19T11:45:07Z</time>
      </trkpt>
      <trkpt lat="46.68792" lon="4.62262">
        <ele>318</ele>
        <time>2017-02-19T11:45:10Z</time>
      </trkpt>
      <trkpt lat="46.68788" lon="4.62269">
        <ele>319</ele>
        <time>2017-02-19T11:45:13Z</time>
      </trkpt>
      <trkpt lat="46.68784" lon="4.62274">
        <ele>320</ele>
        <time>2017-02-19T11:45:16Z</time>
      </trkpt>
      <trkpt lat="46.6878" lon="4.62281">
        <ele>320</ele>
        <time>2017-02-19T11:45:19Z</time>
      </trkpt>
      <trkpt lat="46.68777" lon="4.62286">
        <ele>321</ele>
        <time>2017-02-19T11:45:21Z</time>
      </trkpt>
      <trkpt lat="46.68773" lon="4.62291">
        <ele>321</ele>
        <time>2017-02-19T11:45:23Z</time>
      </trkpt>
      <trkpt lat="46.6877" lon="4.62298">
        <ele>322</ele>
        <time>2017-02-19T11:45:26Z</time>
      </trkpt>
      <trkpt lat="46.68765" lon="4.62305">
        <ele>322</ele>
        <time>2017-02-19T11:45:29Z</time>
      </trkpt>
      <trkpt lat="46.68761" lon="4.62312">
        <ele>322</ele>
        <time>2017-02-19T11:45:32Z</time>
      </trkpt>
      <trkpt lat="46.68758" lon="4.62318">
        <ele>323</ele>
        <time>2017-02-19T11:45:35Z</time>
      </trkpt>
      <trkpt lat="46.68754" lon="4.62326">
        <ele>323</ele>
        <time>2017-02-19T11:45:38Z</time>
      </trkpt>
      <trkpt lat="46.68752" lon="4.62332">
        <ele>322</ele>
        <time>2017-02-19T11:45:40Z</time>
      </trkpt>
      <trkpt lat="46.6875" lon="4.62338">
        <ele>322</ele>
        <time>2017-02-19T11:45:42Z</time>
      </trkpt>
      <trkpt lat="46.68748" lon="4.62344">
        <ele>322</ele>
        <time>2017-02-19T11:45:44Z</time>
      </trkpt>
      <trkpt lat="46.68746" lon="4.6235">
        <ele>322</ele>
        <time>2017-02-19T11:45:46Z</time>
      </trkpt>
      <trkpt lat="46.68744" lon="4.62356">
        <ele>322</ele>
        <time>2017-02-19T11:45:48Z</time>
      </trkpt>
      <trkpt lat="46.68742" lon="4.62363">
        <ele>322</ele>
        <time>2017-02-19T11:45:50Z</time>
      </trkpt>
      <trkpt lat="46.68741" lon="4.6237">
        <ele>322</ele>
        <time>2017-02-19T11:45:52Z</time>
      </trkpt>
      <trkpt lat="46.6874" lon="4.62378">
        <ele>320</ele>
        <time>2017-02-19T11:45:55Z</time>
      </trkpt>
      <trkpt lat="46.68739" lon="4.62384">
        <ele>319</ele>
        <time>2017-02-19T11:45:57Z</time>
      </trkpt>
      <trkpt lat="46.68738" lon="4.62392">
        <ele>317</ele>
        <time>2017-02-19T11:45:59Z</time>
      </trkpt>
      <trkpt lat="46.68738" lon="4.624">
        <ele>316</ele>
        <time>2017-02-19T11:46:01Z</time>
      </trkpt>
      <trkpt lat="46.68737" lon="4.62408">
        <ele>314</ele>
        <time>2017-02-19T11:46:03Z</time>
      </trkpt>
      <trkpt lat="46.68737" lon="4.62415">
        <ele>313</ele>
        <time>2017-02-19T11:46:05Z</time>
      </trkpt>
      <trkpt lat="46.68737" lon="4.62422">
        <ele>311</ele>
        <time>2017-02-19T11:46:07Z</time>
      </trkpt>
      <trkpt lat="46.68736" lon="4.62429">
        <ele>310</ele>
        <time>2017-02-19T11:46:09Z</time>
      </trkpt>
      <trkpt lat="46.68736" lon="4.62438">
        <ele>309</ele>
        <time>2017-02-19T11:46:12Z</time>
      </trkpt>
      <trkpt lat="46.68738" lon="4.62446">
        <ele>307</ele>
        <time>2017-02-19T11:46:14Z</time>
      </trkpt>
      <trkpt lat="46.6874" lon="4.62454">
        <ele>306</ele>
        <time>2017-02-19T11:46:16Z</time>
      </trkpt>
      <trkpt lat="46.68741" lon="4.62463">
        <ele>306</ele>
        <time>2017-02-19T11:46:18Z</time>
      </trkpt>
      <trkpt lat="46.68742" lon="4.62471">
        <ele>305</ele>
        <time>2017-02-19T11:46:20Z</time>
      </trkpt>
      <trkpt lat="46.68744" lon="4.6248">
        <ele>304</ele>
        <time>2017-02-19T11:46:22Z</time>
      </trkpt>
      <trkpt lat="46.68746" lon="4.6249">
        <ele>302</ele>
        <time>2017-02-19T11:46:24Z</time>
      </trkpt>
      <trkpt lat="46.68748" lon="4.62496">
        <ele>301</ele>
        <time>2017-02-19T11:46:25Z</time>
      </trkpt>
      <trkpt lat="46.6875" lon="4.62503">
        <ele>299</ele>
        <time>2017-02-19T11:46:26Z</time>
      </trkpt>
      <trkpt lat="46.68752" lon="4.62511">
        <ele>298</ele>
        <time>2017-02-19T11:46:27Z</time>
      </trkpt>
      <trkpt lat="46.68753" lon="4.6252">
        <ele>296</ele>
        <time>2017-02-19T11:46:28Z</time>
      </trkpt>
      <trkpt lat="46.68756" lon="4.62528">
        <ele>296</ele>
        <time>2017-02-19T11:46:29Z</time>
      </trkpt>
      <trkpt lat="46.68758" lon="4.62536">
        <ele>295</ele>
        <time>2017-02-19T11:46:30Z</time>
      </trkpt>
      <trkpt lat="46.68773" lon="4.62605">
        <ele>289</ele>
        <time>2017-02-19T11:46:37Z</time>
      </trkpt>
      <trkpt lat="46.68773" lon="4.62644">
        <ele>288</ele>
        <time>2017-02-19T11:46:41Z</time>
      </trkpt>
      <trkpt lat="46.68772" lon="4.62653">
        <ele>288</ele>
        <time>2017-02-19T11:46:42Z</time>
      </trkpt>
      <trkpt lat="46.6877" lon="4.62662">
        <ele>288</ele>
        <time>2017-02-19T11:46:43Z</time>
      </trkpt>
      <trkpt lat="46.68768" lon="4.6267">
        <ele>289</ele>
        <time>2017-02-19T11:46:44Z</time>
      </trkpt>
      <trkpt lat="46.68766" lon="4.62677">
        <ele>290</ele>
        <time>2017-02-19T11:46:45Z</time>
      </trkpt>
      <trkpt lat="46.68766" lon="4.62685">
        <ele>291</ele>
        <time>2017-02-19T11:46:46Z</time>
      </trkpt>
      <trkpt lat="46.68763" lon="4.62692">
        <ele>290</ele>
        <time>2017-02-19T11:46:48Z</time>
      </trkpt>
      <trkpt lat="46.6876" lon="4.62701">
        <ele>290</ele>
        <time>2017-02-19T11:46:50Z</time>
      </trkpt>
      <trkpt lat="46.68761" lon="4.62709">
        <ele>289</ele>
        <time>2017-02-19T11:46:51Z</time>
      </trkpt>
      <trkpt lat="46.6876" lon="4.62717">
        <ele>289</ele>
        <time>2017-02-19T11:46:52Z</time>
      </trkpt>
      <trkpt lat="46.6876" lon="4.62725">
        <ele>288</ele>
        <time>2017-02-19T11:46:53Z</time>
      </trkpt>
      <trkpt lat="46.68757" lon="4.62737">
        <ele>289</ele>
        <time>2017-02-19T11:46:55Z</time>
      </trkpt>
      <trkpt lat="46.68752" lon="4.62741">
        <ele>289</ele>
        <time>2017-02-19T11:46:57Z</time>
      </trkpt>
      <trkpt lat="46.68747" lon="4.62742">
        <ele>289</ele>
        <time>2017-02-19T11:46:59Z</time>
      </trkpt>
      <trkpt lat="46.68737" lon="4.6274">
        <ele>288</ele>
        <time>2017-02-19T11:47:01Z</time>
      </trkpt>
      <trkpt lat="46.68732" lon="4.6274">
        <ele>286</ele>
        <time>2017-02-19T11:47:02Z</time>
      </trkpt>
      <trkpt lat="46.68726" lon="4.62741">
        <ele>284</ele>
        <time>2017-02-19T11:47:03Z</time>
      </trkpt>
      <trkpt lat="46.68719" lon="4.62741">
        <ele>283</ele>
        <time>2017-02-19T11:47:04Z</time>
      </trkpt>
      <trkpt lat="46.68713" lon="4.62742">
        <ele>281</ele>
        <time>2017-02-19T11:47:05Z</time>
      </trkpt>
      <trkpt lat="46.68707" lon="4.62742">
        <ele>281</ele>
        <time>2017-02-19T11:47:06Z</time>
      </trkpt>
      <trkpt lat="46.687" lon="4.62743">
        <ele>280</ele>
        <time>2017-02-19T11:47:07Z</time>
      </trkpt>
      <trkpt lat="46.68694" lon="4.62744">
        <ele>280</ele>
        <time>2017-02-19T11:47:08Z</time>
      </trkpt>
      <trkpt lat="46.68687" lon="4.62745">
        <ele>281</ele>
        <time>2017-02-19T11:47:09Z</time>
      </trkpt>
      <trkpt lat="46.68681" lon="4.62746">
        <ele>281</ele>
        <time>2017-02-19T11:47:10Z</time>
      </trkpt>
      <trkpt lat="46.68676" lon="4.62746">
        <ele>282</ele>
        <time>2017-02-19T11:47:11Z</time>
      </trkpt>
      <trkpt lat="46.6867" lon="4.62746">
        <ele>282</ele>
        <time>2017-02-19T11:47:12Z</time>
      </trkpt>
      <trkpt lat="46.68665" lon="4.62747">
        <ele>282</ele>
        <time>2017-02-19T11:47:13Z</time>
      </trkpt>
      <trkpt lat="46.68657" lon="4.62748">
        <ele>282</ele>
        <time>2017-02-19T11:47:15Z</time>
      </trkpt>
      <trkpt lat="46.68652" lon="4.62749">
        <ele>281</ele>
        <time>2017-02-19T11:47:16Z</time>
      </trkpt>
      <trkpt lat="46.68647" lon="4.62748">
        <ele>280</ele>
        <time>2017-02-19T11:47:18Z</time>
      </trkpt>
      <trkpt lat="46.68644" lon="4.62756">
        <ele>277</ele>
        <time>2017-02-19T11:47:24Z</time>
      </trkpt>
      <trkpt lat="46.6864" lon="4.6276">
        <ele>274</ele>
        <time>2017-02-19T11:47:25Z</time>
      </trkpt>
      <trkpt lat="46.68635" lon="4.62765">
        <ele>271</ele>
        <time>2017-02-19T11:47:26Z</time>
      </trkpt>
      <trkpt lat="46.6863" lon="4.62771">
        <ele>268</ele>
        <time>2017-02-19T11:47:27Z</time>
      </trkpt>
      <trkpt lat="46.68626" lon="4.62776">
        <ele>266</ele>
        <time>2017-02-19T11:47:28Z</time>
      </trkpt>
      <trkpt lat="46.68619" lon="4.62783">
        <ele>265</ele>
        <time>2017-02-19T11:47:30Z</time>
      </trkpt>
      <trkpt lat="46.68613" lon="4.62784">
        <ele>265</ele>
        <time>2017-02-19T11:47:32Z</time>
      </trkpt>
      <trkpt lat="46.68588" lon="4.62779">
        <ele>265</ele>
        <time>2017-02-19T11:47:34Z</time>
      </trkpt>
      <trkpt lat="46.68583" lon="4.62776">
        <ele>265</ele>
        <time>2017-02-19T11:47:35Z</time>
      </trkpt>
      <trkpt lat="46.68577" lon="4.62771">
        <ele>265</ele>
        <time>2017-02-19T11:47:36Z</time>
      </trkpt>
      <trkpt lat="46.68573" lon="4.62767">
        <ele>265</ele>
        <time>2017-02-19T11:47:37Z</time>
      </trkpt>
      <trkpt lat="46.68569" lon="4.62763">
        <ele>265</ele>
        <time>2017-02-19T11:47:38Z</time>
      </trkpt>
      <trkpt lat="46.68564" lon="4.62759">
        <ele>265</ele>
        <time>2017-02-19T11:47:39Z</time>
      </trkpt>
      <trkpt lat="46.68559" lon="4.62756">
        <ele>264</ele>
        <time>2017-02-19T11:47:40Z</time>
      </trkpt>
      <trkpt lat="46.68554" lon="4.6275">
        <ele>264</ele>
        <time>2017-02-19T11:47:41Z</time>
      </trkpt>
      <trkpt lat="46.68549" lon="4.62744">
        <ele>265</ele>
        <time>2017-02-19T11:47:42Z</time>
      </trkpt>
      <trkpt lat="46.68542" lon="4.62738">
        <ele>266</ele>
        <time>2017-02-19T11:47:43Z</time>
      </trkpt>
      <trkpt lat="46.68536" lon="4.62733">
        <ele>267</ele>
        <time>2017-02-19T11:47:44Z</time>
      </trkpt>
      <trkpt lat="46.68532" lon="4.62728">
        <ele>268</ele>
        <time>2017-02-19T11:47:45Z</time>
      </trkpt>
      <trkpt lat="46.68528" lon="4.62724">
        <ele>269</ele>
        <time>2017-02-19T11:47:46Z</time>
      </trkpt>
      <trkpt lat="46.68523" lon="4.62719">
        <ele>270</ele>
        <time>2017-02-19T11:47:47Z</time>
      </trkpt>
      <trkpt lat="46.68517" lon="4.62713">
        <ele>271</ele>
        <time>2017-02-19T11:47:48Z</time>
      </trkpt>
      <trkpt lat="46.68512" lon="4.62706">
        <ele>272</ele>
        <time>2017-02-19T11:47:49Z</time>
      </trkpt>
      <trkpt lat="46.68507" lon="4.627">
        <ele>273</ele>
        <time>2017-02-19T11:47:50Z</time>
      </trkpt>
      <trkpt lat="46.68503" lon="4.62693">
        <ele>274</ele>
        <time>2017-02-19T11:47:51Z</time>
      </trkpt>
      <trkpt lat="46.68499" lon="4.62686">
        <ele>275</ele>
        <time>2017-02-19T11:47:52Z</time>
      </trkpt>
      <trkpt lat="46.68496" lon="4.62678">
        <ele>275</ele>
        <time>2017-02-19T11:47:53Z</time>
      </trkpt>
      <trkpt lat="46.68492" lon="4.62669">
        <ele>275</ele>
        <time>2017-02-19T11:47:54Z</time>
      </trkpt>
      <trkpt lat="46.68489" lon="4.62659">
        <ele>275</ele>
        <time>2017-02-19T11:47:55Z</time>
      </trkpt>
      <trkpt lat="46.68487" lon="4.6265">
        <ele>275</ele>
        <time>2017-02-19T11:47:56Z</time>
      </trkpt>
      <trkpt lat="46.68486" lon="4.62641">
        <ele>275</ele>
        <time>2017-02-19T11:47:57Z</time>
      </trkpt>
      <trkpt lat="46.68484" lon="4.62631">
        <ele>274</ele>
        <time>2017-02-19T11:47:58Z</time>
      </trkpt>
      <trkpt lat="46.68483" lon="4.62621">
        <ele>273</ele>
        <time>2017-02-19T11:47:59Z</time>
      </trkpt>
      <trkpt lat="46.68482" lon="4.62611">
        <ele>272</ele>
        <time>2017-02-19T11:48:00Z</time>
      </trkpt>
      <trkpt lat="46.6848" lon="4.62602">
        <ele>271</ele>
        <time>2017-02-19T11:48:01Z</time>
      </trkpt>
      <trkpt lat="46.68479" lon="4.62593">
        <ele>270</ele>
        <time>2017-02-19T11:48:02Z</time>
      </trkpt>
      <trkpt lat="46.68478" lon="4.62583">
        <ele>270</ele>
        <time>2017-02-19T11:48:03Z</time>
      </trkpt>
      <trkpt lat="46.68478" lon="4.62575">
        <ele>270</ele>
        <time>2017-02-19T11:48:04Z</time>
      </trkpt>
      <trkpt lat="46.68477" lon="4.62566">
        <ele>270</ele>
        <time>2017-02-19T11:48:05Z</time>
      </trkpt>
      <trkpt lat="46.68477" lon="4.62556">
        <ele>270</ele>
        <time>2017-02-19T11:48:06Z</time>
      </trkpt>
      <trkpt lat="46.68478" lon="4.62547">
        <ele>270</ele>
        <time>2017-02-19T11:48:07Z</time>
      </trkpt>
      <trkpt lat="46.68479" lon="4.62537">
        <ele>271</ele>
        <time>2017-02-19T11:48:08Z</time>
      </trkpt>
      <trkpt lat="46.6848" lon="4.62526">
        <ele>271</ele>
        <time>2017-02-19T11:48:09Z</time>
      </trkpt>
      <trkpt lat="46.6848" lon="4.62515">
        <ele>272</ele>
        <time>2017-02-19T11:48:10Z</time>
      </trkpt>
      <trkpt lat="46.6848" lon="4.62504">
        <ele>272</ele>
        <time>2017-02-19T11:48:11Z</time>
      </trkpt>
      <trkpt lat="46.6848" lon="4.62493">
        <ele>273</ele>
        <time>2017-02-19T11:48:12Z</time>
      </trkpt>
      <trkpt lat="46.6848" lon="4.62482">
        <ele>273</ele>
        <time>2017-02-19T11:48:13Z</time>
      </trkpt>
      <trkpt lat="46.68479" lon="4.62471">
        <ele>273</ele>
        <time>2017-02-19T11:48:14Z</time>
      </trkpt>
      <trkpt lat="46.68479" lon="4.6246">
        <ele>273</ele>
        <time>2017-02-19T11:48:15Z</time>
      </trkpt>
      <trkpt lat="46.68478" lon="4.62449">
        <ele>272</ele>
        <time>2017-02-19T11:48:16Z</time>
      </trkpt>
      <trkpt lat="46.68477" lon="4.62439">
        <ele>272</ele>
        <time>2017-02-19T11:48:17Z</time>
      </trkpt>
      <trkpt lat="46.68476" lon="4.62429">
        <ele>272</ele>
        <time>2017-02-19T11:48:18Z</time>
      </trkpt>
      <trkpt lat="46.68474" lon="4.6242">
        <ele>271</ele>
        <time>2017-02-19T11:48:19Z</time>
      </trkpt>
      <trkpt lat="46.68472" lon="4.6241">
        <ele>271</ele>
        <time>2017-02-19T11:48:20Z</time>
      </trkpt>
      <trkpt lat="46.6847" lon="4.62399">
        <ele>270</ele>
        <time>2017-02-19T11:48:21Z</time>
      </trkpt>
      <trkpt lat="46.68467" lon="4.62388">
        <ele>270</ele>
        <time>2017-02-19T11:48:22Z</time>
      </trkpt>
      <trkpt lat="46.68462" lon="4.62376">
        <ele>270</ele>
        <time>2017-02-19T11:48:23Z</time>
      </trkpt>
      <trkpt lat="46.68457" lon="4.62365">
        <ele>269</ele>
        <time>2017-02-19T11:48:24Z</time>
      </trkpt>
      <trkpt lat="46.6845" lon="4.62351">
        <ele>269</ele>
        <time>2017-02-19T11:48:25Z</time>
      </trkpt>
      <trkpt lat="46.68443" lon="4.62339">
        <ele>268</ele>
        <time>2017-02-19T11:48:26Z</time>
      </trkpt>
      <trkpt lat="46.68433" lon="4.62329">
        <ele>267</ele>
        <time>2017-02-19T11:48:27Z</time>
      </trkpt>
      <trkpt lat="46.68424" lon="4.62319">
        <ele>266</ele>
        <time>2017-02-19T11:48:28Z</time>
      </trkpt>
      <trkpt lat="46.68414" lon="4.62312">
        <ele>265</ele>
        <time>2017-02-19T11:48:29Z</time>
      </trkpt>
      <trkpt lat="46.68405" lon="4.62305">
        <ele>264</ele>
        <time>2017-02-19T11:48:30Z</time>
      </trkpt>
      <trkpt lat="46.68395" lon="4.62299">
        <ele>263</ele>
        <time>2017-02-19T11:48:31Z</time>
      </trkpt>
      <trkpt lat="46.68386" lon="4.62295">
        <ele>263</ele>
        <time>2017-02-19T11:48:32Z</time>
      </trkpt>
      <trkpt lat="46.68376" lon="4.62293">
        <ele>263</ele>
        <time>2017-02-19T11:48:33Z</time>
      </trkpt>
      <trkpt lat="46.68367" lon="4.62292">
        <ele>262</ele>
        <time>2017-02-19T11:48:34Z</time>
      </trkpt>
      <trkpt lat="46.68357" lon="4.62291">
        <ele>262</ele>
        <time>2017-02-19T11:48:35Z</time>
      </trkpt>
      <trkpt lat="46.68348" lon="4.62291">
        <ele>261</ele>
        <time>2017-02-19T11:48:36Z</time>
      </trkpt>
      <trkpt lat="46.68338" lon="4.62291">
        <ele>260</ele>
        <time>2017-02-19T11:48:37Z</time>
      </trkpt>
      <trkpt lat="46.6833" lon="4.62291">
        <ele>259</ele>
        <time>2017-02-19T11:48:38Z</time>
      </trkpt>
      <trkpt lat="46.68321" lon="4.62292">
        <ele>259</ele>
        <time>2017-02-19T11:48:39Z</time>
      </trkpt>
      <trkpt lat="46.68313" lon="4.62292">
        <ele>258</ele>
        <time>2017-02-19T11:48:40Z</time>
      </trkpt>
      <trkpt lat="46.68306" lon="4.62292">
        <ele>257</ele>
        <time>2017-02-19T11:48:41Z</time>
      </trkpt>
      <trkpt lat="46.68301" lon="4.62291">
        <ele>256</ele>
        <time>2017-02-19T11:48:42Z</time>
      </trkpt>
      <trkpt lat="46.68293" lon="4.6229">
        <ele>255</ele>
        <time>2017-02-19T11:48:44Z</time>
      </trkpt>
      <trkpt lat="46.68288" lon="4.6229">
        <ele>254</ele>
        <time>2017-02-19T11:48:46Z</time>
      </trkpt>
      <trkpt lat="46.68285" lon="4.62297">
        <ele>252</ele>
        <time>2017-02-19T11:48:48Z</time>
      </trkpt>
      <trkpt lat="46.68287" lon="4.62307">
        <ele>251</ele>
        <time>2017-02-19T11:48:50Z</time>
      </trkpt>
      <trkpt lat="46.6829" lon="4.62318">
        <ele>250</ele>
        <time>2017-02-19T11:48:52Z</time>
      </trkpt>
      <trkpt lat="46.68292" lon="4.62324">
        <ele>250</ele>
        <time>2017-02-19T11:48:53Z</time>
      </trkpt>
      <trkpt lat="46.68292" lon="4.62335">
        <ele>250</ele>
        <time>2017-02-19T11:48:55Z</time>
      </trkpt>
      <trkpt lat="46.68292" lon="4.62344">
        <ele>249</ele>
        <time>2017-02-19T11:48:57Z</time>
      </trkpt>
      <trkpt lat="46.68288" lon="4.62353">
        <ele>249</ele>
        <time>2017-02-19T11:48:59Z</time>
      </trkpt>
      <trkpt lat="46.68285" lon="4.62364">
        <ele>248</ele>
        <time>2017-02-19T11:49:01Z</time>
      </trkpt>
      <trkpt lat="46.68282" lon="4.62369">
        <ele>247</ele>
        <time>2017-02-19T11:49:02Z</time>
      </trkpt>
      <trkpt lat="46.68279" lon="4.62375">
        <ele>246</ele>
        <time>2017-02-19T11:49:03Z</time>
      </trkpt>
      <trkpt lat="46.68276" lon="4.62381">
        <ele>245</ele>
        <time>2017-02-19T11:49:04Z</time>
      </trkpt>
      <trkpt lat="46.68274" lon="4.62387">
        <ele>245</ele>
        <time>2017-02-19T11:49:05Z</time>
      </trkpt>
      <trkpt lat="46.68268" lon="4.62398">
        <ele>245</ele>
        <time>2017-02-19T11:49:07Z</time>
      </trkpt>
      <trkpt lat="46.68265" lon="4.62404">
        <ele>245</ele>
        <time>2017-02-19T11:49:08Z</time>
      </trkpt>
      <trkpt lat="46.68262" lon="4.62409">
        <ele>245</ele>
        <time>2017-02-19T11:49:09Z</time>
      </trkpt>
      <trkpt lat="46.68259" lon="4.62414">
        <ele>245</ele>
        <time>2017-02-19T11:49:10Z</time>
      </trkpt>
      <trkpt lat="46.68255" lon="4.6242">
        <ele>245</ele>
        <time>2017-02-19T11:49:11Z</time>
      </trkpt>
      <trkpt lat="46.68252" lon="4.62426">
        <ele>245</ele>
        <time>2017-02-19T11:49:12Z</time>
      </trkpt>
      <trkpt lat="46.68248" lon="4.62431">
        <ele>246</ele>
        <time>2017-02-19T11:49:13Z</time>
      </trkpt>
      <trkpt lat="46.68244" lon="4.62438">
        <ele>247</ele>
        <time>2017-02-19T11:49:14Z</time>
      </trkpt>
      <trkpt lat="46.6824" lon="4.62444">
        <ele>248</ele>
        <time>2017-02-19T11:49:15Z</time>
      </trkpt>
      <trkpt lat="46.68237" lon="4.6245">
        <ele>249</ele>
        <time>2017-02-19T11:49:16Z</time>
      </trkpt>
      <trkpt lat="46.68233" lon="4.62456">
        <ele>249</ele>
        <time>2017-02-19T11:49:17Z</time>
      </trkpt>
      <trkpt lat="46.6823" lon="4.62462">
        <ele>250</ele>
        <time>2017-02-19T11:49:18Z</time>
      </trkpt>
      <trkpt lat="46.68226" lon="4.62467">
        <ele>250</ele>
        <time>2017-02-19T11:49:19Z</time>
      </trkpt>
      <trkpt lat="46.68222" lon="4.62474">
        <ele>250</ele>
        <time>2017-02-19T11:49:20Z</time>
      </trkpt>
      <trkpt lat="46.68218" lon="4.62481">
        <ele>250</ele>
        <time>2017-02-19T11:49:21Z</time>
      </trkpt>
      <trkpt lat="46.68214" lon="4.62487">
        <ele>250</ele>
        <time>2017-02-19T11:49:22Z</time>
      </trkpt>
      <trkpt lat="46.68211" lon="4.62495">
        <ele>250</ele>
        <time>2017-02-19T11:49:23Z</time>
      </trkpt>
      <trkpt lat="46.68207" lon="4.62505">
        <ele>251</ele>
        <time>2017-02-19T11:49:24Z</time>
      </trkpt>
      <trkpt lat="46.68204" lon="4.62514">
        <ele>251</ele>
        <time>2017-02-19T11:49:25Z</time>
      </trkpt>
      <trkpt lat="46.68201" lon="4.62522">
        <ele>251</ele>
        <time>2017-02-19T11:49:26Z</time>
      </trkpt>
      <trkpt lat="46.68199" lon="4.6253">
        <ele>251</ele>
        <time>2017-02-19T11:49:27Z</time>
      </trkpt>
      <trkpt lat="46.68197" lon="4.62539">
        <ele>251</ele>
        <time>2017-02-19T11:49:28Z</time>
      </trkpt>
      <trkpt lat="46.68194" lon="4.62547">
        <ele>252</ele>
        <time>2017-02-19T11:49:29Z</time>
      </trkpt>
      <trkpt lat="46.68192" lon="4.62555">
        <ele>252</ele>
        <time>2017-02-19T11:49:30Z</time>
      </trkpt>
      <trkpt lat="46.68189" lon="4.62563">
        <ele>253</ele>
        <time>2017-02-19T11:49:31Z</time>
      </trkpt>
      <trkpt lat="46.68187" lon="4.6257">
        <ele>253</ele>
        <time>2017-02-19T11:49:32Z</time>
      </trkpt>
      <trkpt lat="46.68184" lon="4.62578">
        <ele>253</ele>
        <time>2017-02-19T11:49:33Z</time>
      </trkpt>
      <trkpt lat="46.68182" lon="4.62586">
        <ele>253</ele>
        <time>2017-02-19T11:49:34Z</time>
      </trkpt>
      <trkpt lat="46.6818" lon="4.62594">
        <ele>253</ele>
        <time>2017-02-19T11:49:35Z</time>
      </trkpt>
      <trkpt lat="46.68177" lon="4.62602">
        <ele>253</ele>
        <time>2017-02-19T11:49:36Z</time>
      </trkpt>
      <trkpt lat="46.68175" lon="4.6261">
        <ele>254</ele>
        <time>2017-02-19T11:49:37Z</time>
      </trkpt>
      <trkpt lat="46.68172" lon="4.62619">
        <ele>254</ele>
        <time>2017-02-19T11:49:38Z</time>
      </trkpt>
      <trkpt lat="46.6817" lon="4.62627">
        <ele>255</ele>
        <time>2017-02-19T11:49:39Z</time>
      </trkpt>
      <trkpt lat="46.68168" lon="4.62635">
        <ele>256</ele>
        <time>2017-02-19T11:49:40Z</time>
      </trkpt>
      <trkpt lat="46.68166" lon="4.62643">
        <ele>256</ele>
        <time>2017-02-19T11:49:41Z</time>
      </trkpt>
      <trkpt lat="46.68164" lon="4.62651">
        <ele>257</ele>
        <time>2017-02-19T11:49:42Z</time>
      </trkpt>
      <trkpt lat="46.68162" lon="4.62658">
        <ele>257</ele>
        <time>2017-02-19T11:49:43Z</time>
      </trkpt>
      <trkpt lat="46.6816" lon="4.62666">
        <ele>258</ele>
        <time>2017-02-19T11:49:44Z</time>
      </trkpt>
      <trkpt lat="46.68158" lon="4.62673">
        <ele>258</ele>
        <time>2017-02-19T11:49:45Z</time>
      </trkpt>
      <trkpt lat="46.68156" lon="4.6268">
        <ele>258</ele>
        <time>2017-02-19T11:49:46Z</time>
      </trkpt>
      <trkpt lat="46.68155" lon="4.62688">
        <ele>259</ele>
        <time>2017-02-19T11:49:47Z</time>
      </trkpt>
      <trkpt lat="46.68152" lon="4.62695">
        <ele>259</ele>
        <time>2017-02-19T11:49:48Z</time>
      </trkpt>
      <trkpt lat="46.6815" lon="4.62703">
        <ele>259</ele>
        <time>2017-02-19T11:49:49Z</time>
      </trkpt>
      <trkpt lat="46.68148" lon="4.6271">
        <ele>260</ele>
        <time>2017-02-19T11:49:50Z</time>
      </trkpt>
      <trkpt lat="46.68145" lon="4.62718">
        <ele>260</ele>
        <time>2017-02-19T11:49:51Z</time>
      </trkpt>
      <trkpt lat="46.68142" lon="4.62725">
        <ele>260</ele>
        <time>2017-02-19T11:49:52Z</time>
      </trkpt>
      <trkpt lat="46.68139" lon="4.62733">
        <ele>261</ele>
        <time>2017-02-19T11:49:53Z</time>
      </trkpt>
      <trkpt lat="46.68137" lon="4.62741">
        <ele>261</ele>
        <time>2017-02-19T11:49:54Z</time>
      </trkpt>
      <trkpt lat="46.68134" lon="4.62749">
        <ele>262</ele>
        <time>2017-02-19T11:49:55Z</time>
      </trkpt>
      <trkpt lat="46.68132" lon="4.62756">
        <ele>262</ele>
        <time>2017-02-19T11:49:56Z</time>
      </trkpt>
      <trkpt lat="46.68129" lon="4.62764">
        <ele>263</ele>
        <time>2017-02-19T11:49:57Z</time>
      </trkpt>
      <trkpt lat="46.68127" lon="4.62772">
        <ele>263</ele>
        <time>2017-02-19T11:49:58Z</time>
      </trkpt>
      <trkpt lat="46.68126" lon="4.62779">
        <ele>263</ele>
        <time>2017-02-19T11:49:59Z</time>
      </trkpt>
      <trkpt lat="46.68124" lon="4.62787">
        <ele>263</ele>
        <time>2017-02-19T11:50:00Z</time>
      </trkpt>
      <trkpt lat="46.68122" lon="4.62794">
        <ele>264</ele>
        <time>2017-02-19T11:50:01Z</time>
      </trkpt>
      <trkpt lat="46.6812" lon="4.62801">
        <ele>264</ele>
        <time>2017-02-19T11:50:02Z</time>
      </trkpt>
      <trkpt lat="46.68118" lon="4.62809">
        <ele>264</ele>
        <time>2017-02-19T11:50:03Z</time>
      </trkpt>
      <trkpt lat="46.68116" lon="4.62815">
        <ele>264</ele>
        <time>2017-02-19T11:50:04Z</time>
      </trkpt>
      <trkpt lat="46.68115" lon="4.62822">
        <ele>264</ele>
        <time>2017-02-19T11:50:05Z</time>
      </trkpt>
      <trkpt lat="46.68113" lon="4.62829">
        <ele>264</ele>
        <time>2017-02-19T11:50:06Z</time>
      </trkpt>
      <trkpt lat="46.68111" lon="4.62835">
        <ele>264</ele>
        <time>2017-02-19T11:50:07Z</time>
      </trkpt>
      <trkpt lat="46.68109" lon="4.62842">
        <ele>264</ele>
        <time>2017-02-19T11:50:08Z</time>
      </trkpt>
      <trkpt lat="46.68107" lon="4.62849">
        <ele>264</ele>
        <time>2017-02-19T11:50:09Z</time>
      </trkpt>
      <trkpt lat="46.68105" lon="4.62856">
        <ele>264</ele>
        <time>2017-02-19T11:50:10Z</time>
      </trkpt>
      <trkpt lat="46.68104" lon="4.62864">
        <ele>264</ele>
        <time>2017-02-19T11:50:11Z</time>
      </trkpt>
      <trkpt lat="46.68102" lon="4.62872">
        <ele>264</ele>
        <time>2017-02-19T11:50:12Z</time>
      </trkpt>
      <trkpt lat="46.68101" lon="4.62879">
        <ele>264</ele>
        <time>2017-02-19T11:50:13Z</time>
      </trkpt>
      <trkpt lat="46.68099" lon="4.62887">
        <ele>264</ele>
        <time>2017-02-19T11:50:14Z</time>
      </trkpt>
      <trkpt lat="46.68097" lon="4.62895">
        <ele>265</ele>
        <time>2017-02-19T11:50:15Z</time>
      </trkpt>
      <trkpt lat="46.68095" lon="4.62903">
        <ele>265</ele>
        <time>2017-02-19T11:50:16Z</time>
      </trkpt>
      <trkpt lat="46.68094" lon="4.62911">
        <ele>266</ele>
        <time>2017-02-19T11:50:17Z</time>
      </trkpt>
      <trkpt lat="46.68092" lon="4.62918">
        <ele>266</ele>
        <time>2017-02-19T11:50:18Z</time>
      </trkpt>
      <trkpt lat="46.6809" lon="4.62926">
        <ele>267</ele>
        <time>2017-02-19T11:50:19Z</time>
      </trkpt>
      <trkpt lat="46.68088" lon="4.62934">
        <ele>267</ele>
        <time>2017-02-19T11:50:20Z</time>
      </trkpt>
      <trkpt lat="46.68086" lon="4.62942">
        <ele>268</ele>
        <time>2017-02-19T11:50:21Z</time>
      </trkpt>
      <trkpt lat="46.68084" lon="4.62949">
        <ele>268</ele>
        <time>2017-02-19T11:50:22Z</time>
      </trkpt>
      <trkpt lat="46.68081" lon="4.62957">
        <ele>268</ele>
        <time>2017-02-19T11:50:23Z</time>
      </trkpt>
      <trkpt lat="46.68079" lon="4.62964">
        <ele>268</ele>
        <time>2017-02-19T11:50:24Z</time>
      </trkpt>
      <trkpt lat="46.68077" lon="4.62971">
        <ele>268</ele>
        <time>2017-02-19T11:50:25Z</time>
      </trkpt>
      <trkpt lat="46.68075" lon="4.62979">
        <ele>268</ele>
        <time>2017-02-19T11:50:26Z</time>
      </trkpt>
      <trkpt lat="46.68073" lon="4.62987">
        <ele>268</ele>
        <time>2017-02-19T11:50:27Z</time>
      </trkpt>
      <trkpt lat="46.68071" lon="4.62994">
        <ele>268</ele>
        <time>2017-02-19T11:50:28Z</time>
      </trkpt>
      <trkpt lat="46.68069" lon="4.63001">
        <ele>268</ele>
        <time>2017-02-19T11:50:29Z</time>
      </trkpt>
      <trkpt lat="46.68068" lon="4.63009">
        <ele>268</ele>
        <time>2017-02-19T11:50:30Z</time>
      </trkpt>
      <trkpt lat="46.68066" lon="4.63016">
        <ele>268</ele>
        <time>2017-02-19T11:50:31Z</time>
      </trkpt>
      <trkpt lat="46.68065" lon="4.63024">
        <ele>268</ele>
        <time>2017-02-19T11:50:32Z</time>
      </trkpt>
      <trkpt lat="46.68064" lon="4.63032">
        <ele>269</ele>
        <time>2017-02-19T11:50:33Z</time>
      </trkpt>
      <trkpt lat="46.68063" lon="4.6304">
        <ele>269</ele>
        <time>2017-02-19T11:50:34Z</time>
      </trkpt>
      <trkpt lat="46.68063" lon="4.63047">
        <ele>269</ele>
        <time>2017-02-19T11:50:35Z</time>
      </trkpt>
      <trkpt lat="46.68062" lon="4.63054">
        <ele>269</ele>
        <time>2017-02-19T11:50:36Z</time>
      </trkpt>
      <trkpt lat="46.68061" lon="4.63062">
        <ele>269</ele>
        <time>2017-02-19T11:50:37Z</time>
      </trkpt>
      <trkpt lat="46.6806" lon="4.6307">
        <ele>269</ele>
        <time>2017-02-19T11:50:38Z</time>
      </trkpt>
      <trkpt lat="46.6806" lon="4.63078">
        <ele>269</ele>
        <time>2017-02-19T11:50:39Z</time>
      </trkpt>
      <trkpt lat="46.68059" lon="4.63086">
        <ele>269</ele>
        <time>2017-02-19T11:50:40Z</time>
      </trkpt>
      <trkpt lat="46.68058" lon="4.63094">
        <ele>269</ele>
        <time>2017-02-19T11:50:41Z</time>
      </trkpt>
      <trkpt lat="46.68057" lon="4.63103">
        <ele>269</ele>
        <time>2017-02-19T11:50:42Z</time>
      </trkpt>
      <trkpt lat="46.68056" lon="4.63111">
        <ele>269</ele>
        <time>2017-02-19T11:50:43Z</time>
      </trkpt>
      <trkpt lat="46.68055" lon="4.6312">
        <ele>270</ele>
        <time>2017-02-19T11:50:44Z</time>
      </trkpt>
      <trkpt lat="46.68054" lon="4.63128">
        <ele>270</ele>
        <time>2017-02-19T11:50:45Z</time>
      </trkpt>
      <trkpt lat="46.68053" lon="4.63136">
        <ele>270</ele>
        <time>2017-02-19T11:50:46Z</time>
      </trkpt>
      <trkpt lat="46.68053" lon="4.63144">
        <ele>271</ele>
        <time>2017-02-19T11:50:47Z</time>
      </trkpt>
      <trkpt lat="46.68053" lon="4.63153">
        <ele>271</ele>
        <time>2017-02-19T11:50:48Z</time>
      </trkpt>
      <trkpt lat="46.68052" lon="4.63161">
        <ele>271</ele>
        <time>2017-02-19T11:50:49Z</time>
      </trkpt>
      <trkpt lat="46.68052" lon="4.6317">
        <ele>271</ele>
        <time>2017-02-19T11:50:50Z</time>
      </trkpt>
      <trkpt lat="46.68052" lon="4.63178">
        <ele>271</ele>
        <time>2017-02-19T11:50:51Z</time>
      </trkpt>
      <trkpt lat="46.68053" lon="4.63187">
        <ele>271</ele>
        <time>2017-02-19T11:50:52Z</time>
      </trkpt>
      <trkpt lat="46.68054" lon="4.63194">
        <ele>271</ele>
        <time>2017-02-19T11:50:53Z</time>
      </trkpt>
      <trkpt lat="46.68055" lon="4.63202">
        <ele>271</ele>
        <time>2017-02-19T11:50:54Z</time>
      </trkpt>
      <trkpt lat="46.68056" lon="4.63213">
        <ele>271</ele>
        <time>2017-02-19T11:50:56Z</time>
      </trkpt>
      <trkpt lat="46.68057" lon="4.63225">
        <ele>271</ele>
        <time>2017-02-19T11:50:58Z</time>
      </trkpt>
      <trkpt lat="46.68058" lon="4.63238">
        <ele>271</ele>
        <time>2017-02-19T11:51:00Z</time>
      </trkpt>
      <trkpt lat="46.68056" lon="4.63249">
        <ele>271</ele>
        <time>2017-02-19T11:51:02Z</time>
      </trkpt>
      <trkpt lat="46.68053" lon="4.63255">
        <ele>270</ele>
        <time>2017-02-19T11:51:03Z</time>
      </trkpt>
      <trkpt lat="46.68049" lon="4.6326">
        <ele>270</ele>
        <time>2017-02-19T11:51:04Z</time>
      </trkpt>
      <trkpt lat="46.68045" lon="4.63265">
        <ele>269</ele>
        <time>2017-02-19T11:51:05Z</time>
      </trkpt>
      <trkpt lat="46.6804" lon="4.63269">
        <ele>269</ele>
        <time>2017-02-19T11:51:06Z</time>
      </trkpt>
      <trkpt lat="46.68035" lon="4.63275">
        <ele>268</ele>
        <time>2017-02-19T11:51:07Z</time>
      </trkpt>
      <trkpt lat="46.68031" lon="4.63281">
        <ele>268</ele>
        <time>2017-02-19T11:51:08Z</time>
      </trkpt>
      <trkpt lat="46.68026" lon="4.63288">
        <ele>268</ele>
        <time>2017-02-19T11:51:09Z</time>
      </trkpt>
      <trkpt lat="46.68021" lon="4.63295">
        <ele>268</ele>
        <time>2017-02-19T11:51:10Z</time>
      </trkpt>
      <trkpt lat="46.68016" lon="4.63301">
        <ele>268</ele>
        <time>2017-02-19T11:51:11Z</time>
      </trkpt>
      <trkpt lat="46.68011" lon="4.63307">
        <ele>268</ele>
        <time>2017-02-19T11:51:12Z</time>
      </trkpt>
      <trkpt lat="46.68007" lon="4.63313">
        <ele>268</ele>
        <time>2017-02-19T11:51:13Z</time>
      </trkpt>
      <trkpt lat="46.68002" lon="4.63319">
        <ele>268</ele>
        <time>2017-02-19T11:51:14Z</time>
      </trkpt>
      <trkpt lat="46.67997" lon="4.63325">
        <ele>268</ele>
        <time>2017-02-19T11:51:15Z</time>
      </trkpt>
      <trkpt lat="46.67993" lon="4.6333">
        <ele>268</ele>
        <time>2017-02-19T11:51:16Z</time>
      </trkpt>
      <trkpt lat="46.67989" lon="4.63334">
        <ele>268</ele>
        <time>2017-02-19T11:51:17Z</time>
      </trkpt>
      <trkpt lat="46.67985" lon="4.6334">
        <ele>267</ele>
        <time>2017-02-19T11:51:18Z</time>
      </trkpt>
      <trkpt lat="46.67981" lon="4.63345">
        <ele>267</ele>
        <time>2017-02-19T11:51:19Z</time>
      </trkpt>
      <trkpt lat="46.67977" lon="4.6335">
        <ele>267</ele>
        <time>2017-02-19T11:51:20Z</time>
      </trkpt>
      <trkpt lat="46.67973" lon="4.63355">
        <ele>267</ele>
        <time>2017-02-19T11:51:21Z</time>
      </trkpt>
      <trkpt lat="46.67969" lon="4.6336">
        <ele>267</ele>
        <time>2017-02-19T11:51:22Z</time>
      </trkpt>
      <trkpt lat="46.67965" lon="4.63366">
        <ele>267</ele>
        <time>2017-02-19T11:51:23Z</time>
      </trkpt>
      <trkpt lat="46.67961" lon="4.63371">
        <ele>267</ele>
        <time>2017-02-19T11:51:24Z</time>
      </trkpt>
      <trkpt lat="46.67957" lon="4.63376">
        <ele>267</ele>
        <time>2017-02-19T11:51:25Z</time>
      </trkpt>
      <trkpt lat="46.67954" lon="4.63381">
        <ele>267</ele>
        <time>2017-02-19T11:51:26Z</time>
      </trkpt>
      <trkpt lat="46.67949" lon="4.63384">
        <ele>267</ele>
        <time>2017-02-19T11:51:27Z</time>
      </trkpt>
      <trkpt lat="46.67942" lon="4.63386">
        <ele>266</ele>
        <time>2017-02-19T11:51:29Z</time>
      </trkpt>
      <trkpt lat="46.67934" lon="4.63389">
        <ele>266</ele>
        <time>2017-02-19T11:51:31Z</time>
      </trkpt>
      <trkpt lat="46.67927" lon="4.6339">
        <ele>264</ele>
        <time>2017-02-19T11:51:33Z</time>
      </trkpt>
      <trkpt lat="46.6792" lon="4.63389">
        <ele>263</ele>
        <time>2017-02-19T11:51:35Z</time>
      </trkpt>
      <trkpt lat="46.67915" lon="4.63389">
        <ele>262</ele>
        <time>2017-02-19T11:51:36Z</time>
      </trkpt>
      <trkpt lat="46.6791" lon="4.63388">
        <ele>261</ele>
        <time>2017-02-19T11:51:37Z</time>
      </trkpt>
      <trkpt lat="46.67903" lon="4.63388">
        <ele>260</ele>
        <time>2017-02-19T11:51:39Z</time>
      </trkpt>
      <trkpt lat="46.67896" lon="4.63388">
        <ele>259</ele>
        <time>2017-02-19T11:51:41Z</time>
      </trkpt>
      <trkpt lat="46.67888" lon="4.63391">
        <ele>259</ele>
        <time>2017-02-19T11:51:43Z</time>
      </trkpt>
      <trkpt lat="46.6788" lon="4.63392">
        <ele>259</ele>
        <time>2017-02-19T11:51:45Z</time>
      </trkpt>
      <trkpt lat="46.67873" lon="4.63393">
        <ele>259</ele>
        <time>2017-02-19T11:51:47Z</time>
      </trkpt>
      <trkpt lat="46.67865" lon="4.63395">
        <ele>260</ele>
        <time>2017-02-19T11:51:49Z</time>
      </trkpt>
      <trkpt lat="46.6786" lon="4.63396">
        <ele>261</ele>
        <time>2017-02-19T11:51:50Z</time>
      </trkpt>
      <trkpt lat="46.67856" lon="4.63399">
        <ele>262</ele>
        <time>2017-02-19T11:51:51Z</time>
      </trkpt>
      <trkpt lat="46.67848" lon="4.63403">
        <ele>263</ele>
        <time>2017-02-19T11:51:53Z</time>
      </trkpt>
      <trkpt lat="46.67841" lon="4.63408">
        <ele>265</ele>
        <time>2017-02-19T11:51:55Z</time>
      </trkpt>
      <trkpt lat="46.67833" lon="4.63412">
        <ele>266</ele>
        <time>2017-02-19T11:51:57Z</time>
      </trkpt>
      <trkpt lat="46.67825" lon="4.63416">
        <ele>266</ele>
        <time>2017-02-19T11:51:59Z</time>
      </trkpt>
      <trkpt lat="46.67819" lon="4.63419">
        <ele>267</ele>
        <time>2017-02-19T11:52:01Z</time>
      </trkpt>
      <trkpt lat="46.67812" lon="4.63423">
        <ele>267</ele>
        <time>2017-02-19T11:52:03Z</time>
      </trkpt>
      <trkpt lat="46.67805" lon="4.63426">
        <ele>266</ele>
        <time>2017-02-19T11:52:05Z</time>
      </trkpt>
      <trkpt lat="46.67799" lon="4.6343">
        <ele>266</ele>
        <time>2017-02-19T11:52:07Z</time>
      </trkpt>
      <trkpt lat="46.67792" lon="4.63435">
        <ele>265</ele>
        <time>2017-02-19T11:52:09Z</time>
      </trkpt>
      <trkpt lat="46.67786" lon="4.63438">
        <ele>264</ele>
        <time>2017-02-19T11:52:11Z</time>
      </trkpt>
      <trkpt lat="46.6778" lon="4.63441">
        <ele>264</ele>
        <time>2017-02-19T11:52:13Z</time>
      </trkpt>
      <trkpt lat="46.67775" lon="4.63445">
        <ele>264</ele>
        <time>2017-02-19T11:52:15Z</time>
      </trkpt>
      <trkpt lat="46.67769" lon="4.63449">
        <ele>265</ele>
        <time>2017-02-19T11:52:17Z</time>
      </trkpt>
      <trkpt lat="46.67757" lon="4.63458">
        <ele>266</ele>
        <time>2017-02-19T11:52:21Z</time>
      </trkpt>
      <trkpt lat="46.67753" lon="4.63459">
        <ele>266</ele>
        <time>2017-02-19T11:52:23Z</time>
      </trkpt>
      <trkpt lat="46.67747" lon="4.63463">
        <ele>267</ele>
        <time>2017-02-19T11:52:25Z</time>
      </trkpt>
      <trkpt lat="46.67741" lon="4.63468">
        <ele>267</ele>
        <time>2017-02-19T11:52:27Z</time>
      </trkpt>
      <trkpt lat="46.67736" lon="4.63472">
        <ele>267</ele>
        <time>2017-02-19T11:52:29Z</time>
      </trkpt>
      <trkpt lat="46.6773" lon="4.63478">
        <ele>265</ele>
        <time>2017-02-19T11:52:31Z</time>
      </trkpt>
      <trkpt lat="46.67726" lon="4.63484">
        <ele>264</ele>
        <time>2017-02-19T11:52:33Z</time>
      </trkpt>
      <trkpt lat="46.67722" lon="4.63489">
        <ele>261</ele>
        <time>2017-02-19T11:52:35Z</time>
      </trkpt>
      <trkpt lat="46.67718" lon="4.63495">
        <ele>259</ele>
        <time>2017-02-19T11:52:37Z</time>
      </trkpt>
      <trkpt lat="46.67715" lon="4.635">
        <ele>256</ele>
        <time>2017-02-19T11:52:39Z</time>
      </trkpt>
      <trkpt lat="46.67711" lon="4.63508">
        <ele>254</ele>
        <time>2017-02-19T11:52:42Z</time>
      </trkpt>
      <trkpt lat="46.67707" lon="4.63513">
        <ele>252</ele>
        <time>2017-02-19T11:52:44Z</time>
      </trkpt>
      <trkpt lat="46.67703" lon="4.63518">
        <ele>250</ele>
        <time>2017-02-19T11:52:46Z</time>
      </trkpt>
      <trkpt lat="46.67699" lon="4.63522">
        <ele>249</ele>
        <time>2017-02-19T11:52:48Z</time>
      </trkpt>
      <trkpt lat="46.67695" lon="4.63526">
        <ele>247</ele>
        <time>2017-02-19T11:52:50Z</time>
      </trkpt>
      <trkpt lat="46.6769" lon="4.63529">
        <ele>246</ele>
        <time>2017-02-19T11:52:52Z</time>
      </trkpt>
      <trkpt lat="46.67685" lon="4.63531">
        <ele>245</ele>
        <time>2017-02-19T11:52:54Z</time>
      </trkpt>
      <trkpt lat="46.67679" lon="4.63533">
        <ele>244</ele>
        <time>2017-02-19T11:52:56Z</time>
      </trkpt>
      <trkpt lat="46.67671" lon="4.63536">
        <ele>244</ele>
        <time>2017-02-19T11:52:58Z</time>
      </trkpt>
      <trkpt lat="46.67664" lon="4.63539">
        <ele>245</ele>
        <time>2017-02-19T11:53:00Z</time>
      </trkpt>
      <trkpt lat="46.67656" lon="4.63544">
        <ele>246</ele>
        <time>2017-02-19T11:53:02Z</time>
      </trkpt>
      <trkpt lat="46.67651" lon="4.63546">
        <ele>248</ele>
        <time>2017-02-19T11:53:03Z</time>
      </trkpt>
      <trkpt lat="46.67646" lon="4.63546">
        <ele>249</ele>
        <time>2017-02-19T11:53:04Z</time>
      </trkpt>
      <trkpt lat="46.67639" lon="4.63548">
        <ele>251</ele>
        <time>2017-02-19T11:53:06Z</time>
      </trkpt>
      <trkpt lat="46.67633" lon="4.6355">
        <ele>252</ele>
        <time>2017-02-19T11:53:08Z</time>
      </trkpt>
      <trkpt lat="46.67627" lon="4.63552">
        <ele>253</ele>
        <time>2017-02-19T11:53:10Z</time>
      </trkpt>
      <trkpt lat="46.67621" lon="4.63554">
        <ele>253</ele>
        <time>2017-02-19T11:53:12Z</time>
      </trkpt>
      <trkpt lat="46.67614" lon="4.63558">
        <ele>252</ele>
        <time>2017-02-19T11:53:14Z</time>
      </trkpt>
      <trkpt lat="46.67608" lon="4.63563">
        <ele>252</ele>
        <time>2017-02-19T11:53:16Z</time>
      </trkpt>
      <trkpt lat="46.67601" lon="4.63566">
        <ele>251</ele>
        <time>2017-02-19T11:53:18Z</time>
      </trkpt>
      <trkpt lat="46.67592" lon="4.6357">
        <ele>251</ele>
        <time>2017-02-19T11:53:20Z</time>
      </trkpt>
      <trkpt lat="46.67588" lon="4.63573">
        <ele>251</ele>
        <time>2017-02-19T11:53:21Z</time>
      </trkpt>
      <trkpt lat="46.67579" lon="4.63577">
        <ele>253</ele>
        <time>2017-02-19T11:53:23Z</time>
      </trkpt>
      <trkpt lat="46.67575" lon="4.63579">
        <ele>256</ele>
        <time>2017-02-19T11:53:24Z</time>
      </trkpt>
      <trkpt lat="46.67567" lon="4.63583">
        <ele>259</ele>
        <time>2017-02-19T11:53:26Z</time>
      </trkpt>
      <trkpt lat="46.6756" lon="4.63583">
        <ele>262</ele>
        <time>2017-02-19T11:53:28Z</time>
      </trkpt>
      <trkpt lat="46.67553" lon="4.63584">
        <ele>264</ele>
        <time>2017-02-19T11:53:30Z</time>
      </trkpt>
      <trkpt lat="46.67545" lon="4.63586">
        <ele>266</ele>
        <time>2017-02-19T11:53:32Z</time>
      </trkpt>
      <trkpt lat="46.67538" lon="4.63589">
        <ele>267</ele>
        <time>2017-02-19T11:53:34Z</time>
      </trkpt>
      <trkpt lat="46.6753" lon="4.63593">
        <ele>268</ele>
        <time>2017-02-19T11:53:36Z</time>
      </trkpt>
      <trkpt lat="46.67524" lon="4.63596">
        <ele>268</ele>
        <time>2017-02-19T11:53:38Z</time>
      </trkpt>
      <trkpt lat="46.67518" lon="4.63599">
        <ele>268</ele>
        <time>2017-02-19T11:53:40Z</time>
      </trkpt>
      <trkpt lat="46.67511" lon="4.63601">
        <ele>268</ele>
        <time>2017-02-19T11:53:42Z</time>
      </trkpt>
      <trkpt lat="46.67504" lon="4.63604">
        <ele>268</ele>
        <time>2017-02-19T11:53:44Z</time>
      </trkpt>
      <trkpt lat="46.67497" lon="4.63608">
        <ele>269</ele>
        <time>2017-02-19T11:53:46Z</time>
      </trkpt>
      <trkpt lat="46.67489" lon="4.63612">
        <ele>270</ele>
        <time>2017-02-19T11:53:48Z</time>
      </trkpt>
      <trkpt lat="46.67482" lon="4.63615">
        <ele>272</ele>
        <time>2017-02-19T11:53:50Z</time>
      </trkpt>
      <trkpt lat="46.67475" lon="4.63618">
        <ele>274</ele>
        <time>2017-02-19T11:53:52Z</time>
      </trkpt>
      <trkpt lat="46.67468" lon="4.63621">
        <ele>276</ele>
        <time>2017-02-19T11:53:54Z</time>
      </trkpt>
      <trkpt lat="46.6746" lon="4.63623">
        <ele>278</ele>
        <time>2017-02-19T11:53:56Z</time>
      </trkpt>
      <trkpt lat="46.67452" lon="4.63623">
        <ele>280</ele>
        <time>2017-02-19T11:53:58Z</time>
      </trkpt>
      <trkpt lat="46.67445" lon="4.63623">
        <ele>281</ele>
        <time>2017-02-19T11:54:00Z</time>
      </trkpt>
      <trkpt lat="46.67439" lon="4.63623">
        <ele>282</ele>
        <time>2017-02-19T11:54:02Z</time>
      </trkpt>
      <trkpt lat="46.67433" lon="4.63625">
        <ele>283</ele>
        <time>2017-02-19T11:54:04Z</time>
      </trkpt>
      <trkpt lat="46.67427" lon="4.63625">
        <ele>283</ele>
        <time>2017-02-19T11:54:07Z</time>
      </trkpt>
      <trkpt lat="46.67421" lon="4.63625">
        <ele>284</ele>
        <time>2017-02-19T11:54:09Z</time>
      </trkpt>
      <trkpt lat="46.67416" lon="4.63625">
        <ele>286</ele>
        <time>2017-02-19T11:54:11Z</time>
      </trkpt>
      <trkpt lat="46.67409" lon="4.63625">
        <ele>287</ele>
        <time>2017-02-19T11:54:13Z</time>
      </trkpt>
      <trkpt lat="46.67403" lon="4.63625">
        <ele>289</ele>
        <time>2017-02-19T11:54:15Z</time>
      </trkpt>
      <trkpt lat="46.67399" lon="4.63625">
        <ele>291</ele>
        <time>2017-02-19T11:54:17Z</time>
      </trkpt>
      <trkpt lat="46.67394" lon="4.63626">
        <ele>292</ele>
        <time>2017-02-19T11:54:19Z</time>
      </trkpt>
      <trkpt lat="46.67389" lon="4.63627">
        <ele>294</ele>
        <time>2017-02-19T11:54:21Z</time>
      </trkpt>
      <trkpt lat="46.67384" lon="4.63628">
        <ele>295</ele>
        <time>2017-02-19T11:54:23Z</time>
      </trkpt>
      <trkpt lat="46.67379" lon="4.63628">
        <ele>296</ele>
        <time>2017-02-19T11:54:25Z</time>
      </trkpt>
      <trkpt lat="46.67374" lon="4.63629">
        <ele>297</ele>
        <time>2017-02-19T11:54:27Z</time>
      </trkpt>
      <trkpt lat="46.67368" lon="4.63629">
        <ele>298</ele>
        <time>2017-02-19T11:54:30Z</time>
      </trkpt>
      <trkpt lat="46.67362" lon="4.6363">
        <ele>299</ele>
        <time>2017-02-19T11:54:32Z</time>
      </trkpt>
      <trkpt lat="46.67357" lon="4.6363">
        <ele>299</ele>
        <time>2017-02-19T11:54:34Z</time>
      </trkpt>
      <trkpt lat="46.6735" lon="4.6363">
        <ele>300</ele>
        <time>2017-02-19T11:54:36Z</time>
      </trkpt>
      <trkpt lat="46.67345" lon="4.63631">
        <ele>301</ele>
        <time>2017-02-19T11:54:38Z</time>
      </trkpt>
      <trkpt lat="46.67339" lon="4.63633">
        <ele>301</ele>
        <time>2017-02-19T11:54:40Z</time>
      </trkpt>
      <trkpt lat="46.67334" lon="4.63635">
        <ele>301</ele>
        <time>2017-02-19T11:54:42Z</time>
      </trkpt>
      <trkpt lat="46.67329" lon="4.63638">
        <ele>301</ele>
        <time>2017-02-19T11:54:44Z</time>
      </trkpt>
      <trkpt lat="46.67321" lon="4.63641">
        <ele>301</ele>
        <time>2017-02-19T11:54:46Z</time>
      </trkpt>
      <trkpt lat="46.67314" lon="4.63643">
        <ele>301</ele>
        <time>2017-02-19T11:54:48Z</time>
      </trkpt>
      <trkpt lat="46.67308" lon="4.63646">
        <ele>300</ele>
        <time>2017-02-19T11:54:50Z</time>
      </trkpt>
      <trkpt lat="46.67302" lon="4.6365">
        <ele>300</ele>
        <time>2017-02-19T11:54:52Z</time>
      </trkpt>
      <trkpt lat="46.67297" lon="4.63652">
        <ele>299</ele>
        <time>2017-02-19T11:54:54Z</time>
      </trkpt>
      <trkpt lat="46.67293" lon="4.63654">
        <ele>298</ele>
        <time>2017-02-19T11:54:57Z</time>
      </trkpt>
      <trkpt lat="46.67292" lon="4.63656">
        <ele>297</ele>
        <time>2017-02-19T11:55:16Z</time>
      </trkpt>
      <trkpt lat="46.67292" lon="4.63656">
        <ele>296</ele>
        <time>2017-02-19T11:55:19Z</time>
      </trkpt>
      <trkpt lat="46.67292" lon="4.63656">
        <ele>295</ele>
        <time>2017-02-19T11:55:46Z</time>
      </trkpt>
      <trkpt lat="46.67292" lon="4.63656">
        <ele>295</ele>
        <time>2017-02-19T11:55:48Z</time>
      </trkpt>
      <trkpt lat="46.67289" lon="4.63661">
        <ele>296</ele>
        <time>2017-02-19T11:56:09Z</time>
      </trkpt>
      <trkpt lat="46.67284" lon="4.63666">
        <ele>296</ele>
        <time>2017-02-19T11:56:12Z</time>
      </trkpt>
      <trkpt lat="46.67279" lon="4.63671">
        <ele>295</ele>
        <time>2017-02-19T11:56:15Z</time>
      </trkpt>
      <trkpt lat="46.67275" lon="4.63675">
        <ele>294</ele>
        <time>2017-02-19T11:56:17Z</time>
      </trkpt>
      <trkpt lat="46.6727" lon="4.63678">
        <ele>293</ele>
        <time>2017-02-19T11:56:19Z</time>
      </trkpt>
      <trkpt lat="46.67265" lon="4.63681">
        <ele>291</ele>
        <time>2017-02-19T11:56:21Z</time>
      </trkpt>
      <trkpt lat="46.6726" lon="4.63687">
        <ele>290</ele>
        <time>2017-02-19T11:56:23Z</time>
      </trkpt>
      <trkpt lat="46.67255" lon="4.63693">
        <ele>288</ele>
        <time>2017-02-19T11:56:25Z</time>
      </trkpt>
      <trkpt lat="46.6725" lon="4.637">
        <ele>287</ele>
        <time>2017-02-19T11:56:27Z</time>
      </trkpt>
      <trkpt lat="46.67245" lon="4.63706">
        <ele>286</ele>
        <time>2017-02-19T11:56:29Z</time>
      </trkpt>
      <trkpt lat="46.6724" lon="4.63711">
        <ele>287</ele>
        <time>2017-02-19T11:56:31Z</time>
      </trkpt>
      <trkpt lat="46.67235" lon="4.63718">
        <ele>287</ele>
        <time>2017-02-19T11:56:33Z</time>
      </trkpt>
      <trkpt lat="46.6723" lon="4.63724">
        <ele>288</ele>
        <time>2017-02-19T11:56:35Z</time>
      </trkpt>
      <trkpt lat="46.67225" lon="4.6373">
        <ele>289</ele>
        <time>2017-02-19T11:56:37Z</time>
      </trkpt>
      <trkpt lat="46.67219" lon="4.63737">
        <ele>289</ele>
        <time>2017-02-19T11:56:39Z</time>
      </trkpt>
      <trkpt lat="46.67212" lon="4.63741">
        <ele>289</ele>
        <time>2017-02-19T11:56:41Z</time>
      </trkpt>
      <trkpt lat="46.67208" lon="4.63747">
        <ele>289</ele>
        <time>2017-02-19T11:56:43Z</time>
      </trkpt>
      <trkpt lat="46.67204" lon="4.63752">
        <ele>288</ele>
        <time>2017-02-19T11:56:45Z</time>
      </trkpt>
      <trkpt lat="46.67199" lon="4.63758">
        <ele>288</ele>
        <time>2017-02-19T11:56:47Z</time>
      </trkpt>
      <trkpt lat="46.67195" lon="4.63764">
        <ele>287</ele>
        <time>2017-02-19T11:56:49Z</time>
      </trkpt>
      <trkpt lat="46.67191" lon="4.63769">
        <ele>285</ele>
        <time>2017-02-19T11:56:51Z</time>
      </trkpt>
      <trkpt lat="46.67188" lon="4.63779">
        <ele>283</ele>
        <time>2017-02-19T11:56:54Z</time>
      </trkpt>
      <trkpt lat="46.67183" lon="4.63785">
        <ele>280</ele>
        <time>2017-02-19T11:56:56Z</time>
      </trkpt>
      <trkpt lat="46.6718" lon="4.63793">
        <ele>277</ele>
        <time>2017-02-19T11:56:58Z</time>
      </trkpt>
      <trkpt lat="46.67176" lon="4.63802">
        <ele>274</ele>
        <time>2017-02-19T11:57:00Z</time>
      </trkpt>
      <trkpt lat="46.67173" lon="4.63812">
        <ele>273</ele>
        <time>2017-02-19T11:57:02Z</time>
      </trkpt>
      <trkpt lat="46.67169" lon="4.63821">
        <ele>271</ele>
        <time>2017-02-19T11:57:04Z</time>
      </trkpt>
      <trkpt lat="46.67164" lon="4.63827">
        <ele>269</ele>
        <time>2017-02-19T11:57:06Z</time>
      </trkpt>
      <trkpt lat="46.67159" lon="4.63833">
        <ele>268</ele>
        <time>2017-02-19T11:57:08Z</time>
      </trkpt>
      <trkpt lat="46.67152" lon="4.63839">
        <ele>266</ele>
        <time>2017-02-19T11:57:10Z</time>
      </trkpt>
      <trkpt lat="46.67146" lon="4.63845">
        <ele>264</ele>
        <time>2017-02-19T11:57:12Z</time>
      </trkpt>
      <trkpt lat="46.67141" lon="4.63852">
        <ele>263</ele>
        <time>2017-02-19T11:57:14Z</time>
      </trkpt>
      <trkpt lat="46.67136" lon="4.63859">
        <ele>262</ele>
        <time>2017-02-19T11:57:16Z</time>
      </trkpt>
      <trkpt lat="46.6713" lon="4.63863">
        <ele>261</ele>
        <time>2017-02-19T11:57:19Z</time>
      </trkpt>
      <trkpt lat="46.67125" lon="4.63867">
        <ele>260</ele>
        <time>2017-02-19T11:57:21Z</time>
      </trkpt>
      <trkpt lat="46.6712" lon="4.63874">
        <ele>260</ele>
        <time>2017-02-19T11:57:23Z</time>
      </trkpt>
      <trkpt lat="46.67114" lon="4.63881">
        <ele>259</ele>
        <time>2017-02-19T11:57:25Z</time>
      </trkpt>
      <trkpt lat="46.67108" lon="4.63888">
        <ele>258</ele>
        <time>2017-02-19T11:57:27Z</time>
      </trkpt>
      <trkpt lat="46.67101" lon="4.63894">
        <ele>258</ele>
        <time>2017-02-19T11:57:29Z</time>
      </trkpt>
      <trkpt lat="46.67095" lon="4.639">
        <ele>259</ele>
        <time>2017-02-19T11:57:31Z</time>
      </trkpt>
      <trkpt lat="46.67091" lon="4.63904">
        <ele>260</ele>
        <time>2017-02-19T11:57:33Z</time>
      </trkpt>
      <trkpt lat="46.67086" lon="4.63909">
        <ele>261</ele>
        <time>2017-02-19T11:57:35Z</time>
      </trkpt>
      <trkpt lat="46.67082" lon="4.63917">
        <ele>263</ele>
        <time>2017-02-19T11:57:37Z</time>
      </trkpt>
      <trkpt lat="46.67075" lon="4.63922">
        <ele>265</ele>
        <time>2017-02-19T11:57:39Z</time>
      </trkpt>
      <trkpt lat="46.6707" lon="4.63927">
        <ele>268</ele>
        <time>2017-02-19T11:57:41Z</time>
      </trkpt>
      <trkpt lat="46.67065" lon="4.63933">
        <ele>270</ele>
        <time>2017-02-19T11:57:44Z</time>
      </trkpt>
      <trkpt lat="46.67059" lon="4.63938">
        <ele>272</ele>
        <time>2017-02-19T11:57:47Z</time>
      </trkpt>
      <trkpt lat="46.67054" lon="4.6394">
        <ele>274</ele>
        <time>2017-02-19T11:57:50Z</time>
      </trkpt>
      <trkpt lat="46.6705" lon="4.63943">
        <ele>274</ele>
        <time>2017-02-19T11:57:52Z</time>
      </trkpt>
      <trkpt lat="46.67044" lon="4.63943">
        <ele>274</ele>
        <time>2017-02-19T11:57:55Z</time>
      </trkpt>
      <trkpt lat="46.67038" lon="4.63943">
        <ele>273</ele>
        <time>2017-02-19T11:57:58Z</time>
      </trkpt>
      <trkpt lat="46.67033" lon="4.63943">
        <ele>271</ele>
        <time>2017-02-19T11:58:01Z</time>
      </trkpt>
      <trkpt lat="46.67027" lon="4.63943">
        <ele>268</ele>
        <time>2017-02-19T11:58:03Z</time>
      </trkpt>
      <trkpt lat="46.67024" lon="4.63947">
        <ele>266</ele>
        <time>2017-02-19T11:58:05Z</time>
      </trkpt>
      <trkpt lat="46.67019" lon="4.63951">
        <ele>264</ele>
        <time>2017-02-19T11:58:07Z</time>
      </trkpt>
      <trkpt lat="46.67014" lon="4.63952">
        <ele>262</ele>
        <time>2017-02-19T11:58:09Z</time>
      </trkpt>
      <trkpt lat="46.67007" lon="4.63956">
        <ele>262</ele>
        <time>2017-02-19T11:58:11Z</time>
      </trkpt>
      <trkpt lat="46.66999" lon="4.63959">
        <ele>261</ele>
        <time>2017-02-19T11:58:13Z</time>
      </trkpt>
      <trkpt lat="46.66994" lon="4.63959">
        <ele>260</ele>
        <time>2017-02-19T11:58:15Z</time>
      </trkpt>
      <trkpt lat="46.66989" lon="4.63962">
        <ele>260</ele>
        <time>2017-02-19T11:58:17Z</time>
      </trkpt>
      <trkpt lat="46.66983" lon="4.63967">
        <ele>260</ele>
        <time>2017-02-19T11:58:19Z</time>
      </trkpt>
      <trkpt lat="46.66979" lon="4.63969">
        <ele>260</ele>
        <time>2017-02-19T11:58:21Z</time>
      </trkpt>
      <trkpt lat="46.66974" lon="4.63967">
        <ele>259</ele>
        <time>2017-02-19T11:58:23Z</time>
      </trkpt>
      <trkpt lat="46.66968" lon="4.63964">
        <ele>259</ele>
        <time>2017-02-19T11:58:25Z</time>
      </trkpt>
      <trkpt lat="46.66959" lon="4.63961">
        <ele>259</ele>
        <time>2017-02-19T11:58:27Z</time>
      </trkpt>
      <trkpt lat="46.66954" lon="4.63959">
        <ele>258</ele>
        <time>2017-02-19T11:58:28Z</time>
      </trkpt>
      <trkpt lat="46.66947" lon="4.63957">
        <ele>258</ele>
        <time>2017-02-19T11:58:29Z</time>
      </trkpt>
      <trkpt lat="46.6694" lon="4.63955">
        <ele>257</ele>
        <time>2017-02-19T11:58:30Z</time>
      </trkpt>
      <trkpt lat="46.66932" lon="4.63954">
        <ele>257</ele>
        <time>2017-02-19T11:58:31Z</time>
      </trkpt>
      <trkpt lat="46.66924" lon="4.63952">
        <ele>257</ele>
        <time>2017-02-19T11:58:32Z</time>
      </trkpt>
      <trkpt lat="46.66916" lon="4.63949">
        <ele>257</ele>
        <time>2017-02-19T11:58:33Z</time>
      </trkpt>
      <trkpt lat="46.66907" lon="4.63945">
        <ele>258</ele>
        <time>2017-02-19T11:58:34Z</time>
      </trkpt>
      <trkpt lat="46.66899" lon="4.63944">
        <ele>258</ele>
        <time>2017-02-19T11:58:35Z</time>
      </trkpt>
      <trkpt lat="46.66892" lon="4.63943">
        <ele>258</ele>
        <time>2017-02-19T11:58:36Z</time>
      </trkpt>
      <trkpt lat="46.66885" lon="4.63944">
        <ele>258</ele>
        <time>2017-02-19T11:58:37Z</time>
      </trkpt>
      <trkpt lat="46.66876" lon="4.63946">
        <ele>259</ele>
        <time>2017-02-19T11:58:38Z</time>
      </trkpt>
      <trkpt lat="46.66867" lon="4.63948">
        <ele>259</ele>
        <time>2017-02-19T11:58:39Z</time>
      </trkpt>
      <trkpt lat="46.66862" lon="4.63949">
        <ele>260</ele>
        <time>2017-02-19T11:58:40Z</time>
      </trkpt>
      <trkpt lat="46.66858" lon="4.63949">
        <ele>260</ele>
        <time>2017-02-19T11:58:41Z</time>
      </trkpt>
      <trkpt lat="46.66851" lon="4.63947">
        <ele>260</ele>
        <time>2017-02-19T11:58:42Z</time>
      </trkpt>
      <trkpt lat="46.66843" lon="4.63943">
        <ele>261</ele>
        <time>2017-02-19T11:58:43Z</time>
      </trkpt>
      <trkpt lat="46.66836" lon="4.63942">
        <ele>261</ele>
        <time>2017-02-19T11:58:44Z</time>
      </trkpt>
      <trkpt lat="46.66828" lon="4.63941">
        <ele>262</ele>
        <time>2017-02-19T11:58:45Z</time>
      </trkpt>
      <trkpt lat="46.66822" lon="4.6394">
        <ele>263</ele>
        <time>2017-02-19T11:58:46Z</time>
      </trkpt>
      <trkpt lat="46.66817" lon="4.63939">
        <ele>264</ele>
        <time>2017-02-19T11:58:47Z</time>
      </trkpt>
      <trkpt lat="46.66812" lon="4.63935">
        <ele>266</ele>
        <time>2017-02-19T11:58:48Z</time>
      </trkpt>
      <trkpt lat="46.66808" lon="4.63931">
        <ele>267</ele>
        <time>2017-02-19T11:58:49Z</time>
      </trkpt>
      <trkpt lat="46.66803" lon="4.63924">
        <ele>268</ele>
        <time>2017-02-19T11:58:50Z</time>
      </trkpt>
      <trkpt lat="46.668" lon="4.63914">
        <ele>269</ele>
        <time>2017-02-19T11:58:51Z</time>
      </trkpt>
      <trkpt lat="46.66798" lon="4.63905">
        <ele>270</ele>
        <time>2017-02-19T11:58:52Z</time>
      </trkpt>
      <trkpt lat="46.66794" lon="4.63894">
        <ele>272</ele>
        <time>2017-02-19T11:58:53Z</time>
      </trkpt>
      <trkpt lat="46.66792" lon="4.63884">
        <ele>274</ele>
        <time>2017-02-19T11:58:54Z</time>
      </trkpt>
      <trkpt lat="46.66789" lon="4.63875">
        <ele>276</ele>
        <time>2017-02-19T11:58:55Z</time>
      </trkpt>
      <trkpt lat="46.66786" lon="4.63865">
        <ele>279</ele>
        <time>2017-02-19T11:58:56Z</time>
      </trkpt>
      <trkpt lat="46.66781" lon="4.63858">
        <ele>282</ele>
        <time>2017-02-19T11:58:57Z</time>
      </trkpt>
      <trkpt lat="46.66776" lon="4.63853">
        <ele>284</ele>
        <time>2017-02-19T11:58:58Z</time>
      </trkpt>
      <trkpt lat="46.6677" lon="4.63849">
        <ele>287</ele>
        <time>2017-02-19T11:58:59Z</time>
      </trkpt>
      <trkpt lat="46.66764" lon="4.63846">
        <ele>288</ele>
        <time>2017-02-19T11:59:00Z</time>
      </trkpt>
      <trkpt lat="46.66757" lon="4.63842">
        <ele>289</ele>
        <time>2017-02-19T11:59:01Z</time>
      </trkpt>
      <trkpt lat="46.66745" lon="4.63836">
        <ele>290</ele>
        <time>2017-02-19T11:59:03Z</time>
      </trkpt>
      <trkpt lat="46.6674" lon="4.63832">
        <ele>290</ele>
        <time>2017-02-19T11:59:04Z</time>
      </trkpt>
      <trkpt lat="46.66734" lon="4.63829">
        <ele>291</ele>
        <time>2017-02-19T11:59:05Z</time>
      </trkpt>
      <trkpt lat="46.66727" lon="4.63826">
        <ele>291</ele>
        <time>2017-02-19T11:59:06Z</time>
      </trkpt>
      <trkpt lat="46.66721" lon="4.63823">
        <ele>292</ele>
        <time>2017-02-19T11:59:07Z</time>
      </trkpt>
      <trkpt lat="46.66715" lon="4.6382">
        <ele>293</ele>
        <time>2017-02-19T11:59:08Z</time>
      </trkpt>
      <trkpt lat="46.66711" lon="4.63817">
        <ele>293</ele>
        <time>2017-02-19T11:59:09Z</time>
      </trkpt>
      <trkpt lat="46.66705" lon="4.63821">
        <ele>294</ele>
        <time>2017-02-19T11:59:12Z</time>
      </trkpt>
      <trkpt lat="46.66701" lon="4.63823">
        <ele>293</ele>
        <time>2017-02-19T11:59:14Z</time>
      </trkpt>
      <trkpt lat="46.66693" lon="4.63822">
        <ele>293</ele>
        <time>2017-02-19T11:59:16Z</time>
      </trkpt>
      <trkpt lat="46.66685" lon="4.6382">
        <ele>292</ele>
        <time>2017-02-19T11:59:18Z</time>
      </trkpt>
      <trkpt lat="46.66679" lon="4.63819">
        <ele>292</ele>
        <time>2017-02-19T11:59:19Z</time>
      </trkpt>
      <trkpt lat="46.66673" lon="4.63818">
        <ele>292</ele>
        <time>2017-02-19T11:59:20Z</time>
      </trkpt>
      <trkpt lat="46.66667" lon="4.63817">
        <ele>293</ele>
        <time>2017-02-19T11:59:21Z</time>
      </trkpt>
      <trkpt lat="46.66662" lon="4.63815">
        <ele>294</ele>
        <time>2017-02-19T11:59:22Z</time>
      </trkpt>
      <trkpt lat="46.66656" lon="4.63812">
        <ele>295</ele>
        <time>2017-02-19T11:59:23Z</time>
      </trkpt>
      <trkpt lat="46.6665" lon="4.63808">
        <ele>295</ele>
        <time>2017-02-19T11:59:24Z</time>
      </trkpt>
      <trkpt lat="46.66644" lon="4.63805">
        <ele>296</ele>
        <time>2017-02-19T11:59:25Z</time>
      </trkpt>
      <trkpt lat="46.66639" lon="4.63802">
        <ele>296</ele>
        <time>2017-02-19T11:59:26Z</time>
      </trkpt>
      <trkpt lat="46.66634" lon="4.63798">
        <ele>296</ele>
        <time>2017-02-19T11:59:27Z</time>
      </trkpt>
      <trkpt lat="46.66629" lon="4.63793">
        <ele>296</ele>
        <time>2017-02-19T11:59:28Z</time>
      </trkpt>
      <trkpt lat="46.66624" lon="4.63789">
        <ele>296</ele>
        <time>2017-02-19T11:59:29Z</time>
      </trkpt>
      <trkpt lat="46.66618" lon="4.63784">
        <ele>297</ele>
        <time>2017-02-19T11:59:30Z</time>
      </trkpt>
      <trkpt lat="46.66614" lon="4.63779">
        <ele>297</ele>
        <time>2017-02-19T11:59:31Z</time>
      </trkpt>
      <trkpt lat="46.66608" lon="4.63773">
        <ele>297</ele>
        <time>2017-02-19T11:59:32Z</time>
      </trkpt>
      <trkpt lat="46.66603" lon="4.63767">
        <ele>298</ele>
        <time>2017-02-19T11:59:33Z</time>
      </trkpt>
      <trkpt lat="46.66598" lon="4.63762">
        <ele>298</ele>
        <time>2017-02-19T11:59:34Z</time>
      </trkpt>
      <trkpt lat="46.66593" lon="4.63755">
        <ele>299</ele>
        <time>2017-02-19T11:59:35Z</time>
      </trkpt>
      <trkpt lat="46.66588" lon="4.63749">
        <ele>299</ele>
        <time>2017-02-19T11:59:36Z</time>
      </trkpt>
      <trkpt lat="46.66584" lon="4.63743">
        <ele>300</ele>
        <time>2017-02-19T11:59:37Z</time>
      </trkpt>
      <trkpt lat="46.66579" lon="4.63737">
        <ele>300</ele>
        <time>2017-02-19T11:59:38Z</time>
      </trkpt>
      <trkpt lat="46.66575" lon="4.63733">
        <ele>300</ele>
        <time>2017-02-19T11:59:39Z</time>
      </trkpt>
      <trkpt lat="46.66569" lon="4.63729">
        <ele>300</ele>
        <time>2017-02-19T11:59:40Z</time>
      </trkpt>
      <trkpt lat="46.66563" lon="4.63726">
        <ele>300</ele>
        <time>2017-02-19T11:59:41Z</time>
      </trkpt>
      <trkpt lat="46.66557" lon="4.63725">
        <ele>300</ele>
        <time>2017-02-19T11:59:42Z</time>
      </trkpt>
      <trkpt lat="46.66551" lon="4.63724">
        <ele>300</ele>
        <time>2017-02-19T11:59:43Z</time>
      </trkpt>
      <trkpt lat="46.66546" lon="4.63724">
        <ele>300</ele>
        <time>2017-02-19T11:59:44Z</time>
      </trkpt>
      <trkpt lat="46.6654" lon="4.63724">
        <ele>300</ele>
        <time>2017-02-19T11:59:45Z</time>
      </trkpt>
      <trkpt lat="46.66536" lon="4.63723">
        <ele>300</ele>
        <time>2017-02-19T11:59:46Z</time>
      </trkpt>
      <trkpt lat="46.66531" lon="4.6372">
        <ele>300</ele>
        <time>2017-02-19T11:59:47Z</time>
      </trkpt>
      <trkpt lat="46.66526" lon="4.63716">
        <ele>300</ele>
        <time>2017-02-19T11:59:48Z</time>
      </trkpt>
      <trkpt lat="46.66522" lon="4.63711">
        <ele>300</ele>
        <time>2017-02-19T11:59:49Z</time>
      </trkpt>
      <trkpt lat="46.66517" lon="4.63704">
        <ele>300</ele>
        <time>2017-02-19T11:59:50Z</time>
      </trkpt>
      <trkpt lat="46.66513" lon="4.63698">
        <ele>300</ele>
        <time>2017-02-19T11:59:51Z</time>
      </trkpt>
      <trkpt lat="46.66509" lon="4.63691">
        <ele>300</ele>
        <time>2017-02-19T11:59:52Z</time>
      </trkpt>
      <trkpt lat="46.66506" lon="4.63684">
        <ele>300</ele>
        <time>2017-02-19T11:59:53Z</time>
      </trkpt>
      <trkpt lat="46.66503" lon="4.63677">
        <ele>300</ele>
        <time>2017-02-19T11:59:54Z</time>
      </trkpt>
      <trkpt lat="46.66501" lon="4.63671">
        <ele>301</ele>
        <time>2017-02-19T11:59:55Z</time>
      </trkpt>
      <trkpt lat="46.66497" lon="4.63658">
        <ele>301</ele>
        <time>2017-02-19T11:59:57Z</time>
      </trkpt>
      <trkpt lat="46.66496" lon="4.63652">
        <ele>302</ele>
        <time>2017-02-19T11:59:58Z</time>
      </trkpt>
      <trkpt lat="46.66493" lon="4.63641">
        <ele>302</ele>
        <time>2017-02-19T12:00:00Z</time>
      </trkpt>
      <trkpt lat="46.66489" lon="4.63631">
        <ele>303</ele>
        <time>2017-02-19T12:00:02Z</time>
      </trkpt>
      <trkpt lat="46.66486" lon="4.6362">
        <ele>303</ele>
        <time>2017-02-19T12:00:04Z</time>
      </trkpt>
      <trkpt lat="46.66484" lon="4.6361">
        <ele>304</ele>
        <time>2017-02-19T12:00:06Z</time>
      </trkpt>
      <trkpt lat="46.66481" lon="4.63602">
        <ele>305</ele>
        <time>2017-02-19T12:00:08Z</time>
      </trkpt>
      <trkpt lat="46.66478" lon="4.63595">
        <ele>306</ele>
        <time>2017-02-19T12:00:10Z</time>
      </trkpt>
      <trkpt lat="46.66474" lon="4.63587">
        <ele>307</ele>
        <time>2017-02-19T12:00:12Z</time>
      </trkpt>
      <trkpt lat="46.6647" lon="4.63579">
        <ele>307</ele>
        <time>2017-02-19T12:00:14Z</time>
      </trkpt>
      <trkpt lat="46.66467" lon="4.63572">
        <ele>308</ele>
        <time>2017-02-19T12:00:16Z</time>
      </trkpt>
      <trkpt lat="46.66464" lon="4.63565">
        <ele>309</ele>
        <time>2017-02-19T12:00:18Z</time>
      </trkpt>
      <trkpt lat="46.66461" lon="4.63559">
        <ele>311</ele>
        <time>2017-02-19T12:00:20Z</time>
      </trkpt>
      <trkpt lat="46.66458" lon="4.63553">
        <ele>312</ele>
        <time>2017-02-19T12:00:22Z</time>
      </trkpt>
      <trkpt lat="46.66456" lon="4.63547">
        <ele>314</ele>
        <time>2017-02-19T12:00:24Z</time>
      </trkpt>
      <trkpt lat="46.66453" lon="4.63539">
        <ele>315</ele>
        <time>2017-02-19T12:00:27Z</time>
      </trkpt>
      <trkpt lat="46.66449" lon="4.63531">
        <ele>316</ele>
        <time>2017-02-19T12:00:30Z</time>
      </trkpt>
      <trkpt lat="46.66446" lon="4.63524">
        <ele>317</ele>
        <time>2017-02-19T12:00:33Z</time>
      </trkpt>
      <trkpt lat="46.66442" lon="4.63517">
        <ele>318</ele>
        <time>2017-02-19T12:00:36Z</time>
      </trkpt>
      <trkpt lat="46.66438" lon="4.63512">
        <ele>318</ele>
        <time>2017-02-19T12:00:38Z</time>
      </trkpt>
      <trkpt lat="46.66435" lon="4.63504">
        <ele>318</ele>
        <time>2017-02-19T12:00:41Z</time>
      </trkpt>
      <trkpt lat="46.66433" lon="4.63496">
        <ele>318</ele>
        <time>2017-02-19T12:00:44Z</time>
      </trkpt>
      <trkpt lat="46.6643" lon="4.63489">
        <ele>318</ele>
        <time>2017-02-19T12:00:47Z</time>
      </trkpt>
      <trkpt lat="46.66427" lon="4.63482">
        <ele>317</ele>
        <time>2017-02-19T12:00:50Z</time>
      </trkpt>
      <trkpt lat="46.66424" lon="4.63476">
        <ele>317</ele>
        <time>2017-02-19T12:00:53Z</time>
      </trkpt>
      <trkpt lat="46.66422" lon="4.63468">
        <ele>317</ele>
        <time>2017-02-19T12:00:55Z</time>
      </trkpt>
      <trkpt lat="46.66418" lon="4.6346">
        <ele>316</ele>
        <time>2017-02-19T12:00:58Z</time>
      </trkpt>
      <trkpt lat="46.66414" lon="4.63453">
        <ele>316</ele>
        <time>2017-02-19T12:01:00Z</time>
      </trkpt>
      <trkpt lat="46.6641" lon="4.63446">
        <ele>316</ele>
        <time>2017-02-19T12:01:02Z</time>
      </trkpt>
      <trkpt lat="46.66406" lon="4.6344">
        <ele>316</ele>
        <time>2017-02-19T12:01:04Z</time>
      </trkpt>
      <trkpt lat="46.66402" lon="4.63434">
        <ele>316</ele>
        <time>2017-02-19T12:01:06Z</time>
      </trkpt>
      <trkpt lat="46.66398" lon="4.63428">
        <ele>316</ele>
        <time>2017-02-19T12:01:08Z</time>
      </trkpt>
      <trkpt lat="46.66393" lon="4.63422">
        <ele>315</ele>
        <time>2017-02-19T12:01:10Z</time>
      </trkpt>
      <trkpt lat="46.6639" lon="4.63415">
        <ele>314</ele>
        <time>2017-02-19T12:01:12Z</time>
      </trkpt>
      <trkpt lat="46.66384" lon="4.63407">
        <ele>314</ele>
        <time>2017-02-19T12:01:14Z</time>
      </trkpt>
      <trkpt lat="46.66381" lon="4.63402">
        <ele>313</ele>
        <time>2017-02-19T12:01:15Z</time>
      </trkpt>
      <trkpt lat="46.66377" lon="4.63397">
        <ele>312</ele>
        <time>2017-02-19T12:01:16Z</time>
      </trkpt>
      <trkpt lat="46.66373" lon="4.63393">
        <ele>312</ele>
        <time>2017-02-19T12:01:17Z</time>
      </trkpt>
      <trkpt lat="46.66369" lon="4.63388">
        <ele>312</ele>
        <time>2017-02-19T12:01:18Z</time>
      </trkpt>
      <trkpt lat="46.66365" lon="4.63384">
        <ele>312</ele>
        <time>2017-02-19T12:01:19Z</time>
      </trkpt>
      <trkpt lat="46.66361" lon="4.6338">
        <ele>313</ele>
        <time>2017-02-19T12:01:20Z</time>
      </trkpt>
      <trkpt lat="46.66358" lon="4.63376">
        <ele>313</ele>
        <time>2017-02-19T12:01:21Z</time>
      </trkpt>
      <trkpt lat="46.6635" lon="4.63369">
        <ele>314</ele>
        <time>2017-02-19T12:01:23Z</time>
      </trkpt>
      <trkpt lat="46.66344" lon="4.6336">
        <ele>314</ele>
        <time>2017-02-19T12:01:25Z</time>
      </trkpt>
      <trkpt lat="46.66337" lon="4.63353">
        <ele>315</ele>
        <time>2017-02-19T12:01:27Z</time>
      </trkpt>
      <trkpt lat="46.66333" lon="4.6335">
        <ele>315</ele>
        <time>2017-02-19T12:01:28Z</time>
      </trkpt>
      <trkpt lat="46.6633" lon="4.63346">
        <ele>316</ele>
        <time>2017-02-19T12:01:29Z</time>
      </trkpt>
      <trkpt lat="46.66326" lon="4.63342">
        <ele>317</ele>
        <time>2017-02-19T12:01:30Z</time>
      </trkpt>
      <trkpt lat="46.66319" lon="4.63336">
        <ele>317</ele>
        <time>2017-02-19T12:01:32Z</time>
      </trkpt>
      <trkpt lat="46.66312" lon="4.63331">
        <ele>317</ele>
        <time>2017-02-19T12:01:34Z</time>
      </trkpt>
      <trkpt lat="46.66309" lon="4.63327">
        <ele>317</ele>
        <time>2017-02-19T12:01:35Z</time>
      </trkpt>
      <trkpt lat="46.66305" lon="4.63324">
        <ele>317</ele>
        <time>2017-02-19T12:01:36Z</time>
      </trkpt>
      <trkpt lat="46.66301" lon="4.63321">
        <ele>317</ele>
        <time>2017-02-19T12:01:37Z</time>
      </trkpt>
      <trkpt lat="46.66297" lon="4.63317">
        <ele>317</ele>
        <time>2017-02-19T12:01:38Z</time>
      </trkpt>
      <trkpt lat="46.66293" lon="4.63313">
        <ele>316</ele>
        <time>2017-02-19T12:01:39Z</time>
      </trkpt>
      <trkpt lat="46.66288" lon="4.63309">
        <ele>316</ele>
        <time>2017-02-19T12:01:40Z</time>
      </trkpt>
      <trkpt lat="46.66284" lon="4.63305">
        <ele>316</ele>
        <time>2017-02-19T12:01:41Z</time>
      </trkpt>
      <trkpt lat="46.6628" lon="4.63301">
        <ele>316</ele>
        <time>2017-02-19T12:01:42Z</time>
      </trkpt>
      <trkpt lat="46.66276" lon="4.63298">
        <ele>316</ele>
        <time>2017-02-19T12:01:43Z</time>
      </trkpt>
      <trkpt lat="46.66272" lon="4.63294">
        <ele>317</ele>
        <time>2017-02-19T12:01:44Z</time>
      </trkpt>
      <trkpt lat="46.66268" lon="4.6329">
        <ele>317</ele>
        <time>2017-02-19T12:01:45Z</time>
      </trkpt>
      <trkpt lat="46.66264" lon="4.63286">
        <ele>317</ele>
        <time>2017-02-19T12:01:46Z</time>
      </trkpt>
      <trkpt lat="46.66259" lon="4.63283">
        <ele>318</ele>
        <time>2017-02-19T12:01:47Z</time>
      </trkpt>
      <trkpt lat="46.66255" lon="4.63279">
        <ele>318</ele>
        <time>2017-02-19T12:01:48Z</time>
      </trkpt>
      <trkpt lat="46.66251" lon="4.63275">
        <ele>318</ele>
        <time>2017-02-19T12:01:49Z</time>
      </trkpt>
      <trkpt lat="46.66247" lon="4.63271">
        <ele>319</ele>
        <time>2017-02-19T12:01:50Z</time>
      </trkpt>
      <trkpt lat="46.66243" lon="4.63268">
        <ele>319</ele>
        <time>2017-02-19T12:01:51Z</time>
      </trkpt>
      <trkpt lat="46.66239" lon="4.63265">
        <ele>320</ele>
        <time>2017-02-19T12:01:52Z</time>
      </trkpt>
      <trkpt lat="46.66235" lon="4.63262">
        <ele>320</ele>
        <time>2017-02-19T12:01:53Z</time>
      </trkpt>
      <trkpt lat="46.66231" lon="4.63258">
        <ele>320</ele>
        <time>2017-02-19T12:01:54Z</time>
      </trkpt>
      <trkpt lat="46.66223" lon="4.63252">
        <ele>320</ele>
        <time>2017-02-19T12:01:56Z</time>
      </trkpt>
      <trkpt lat="46.66216" lon="4.63245">
        <ele>321</ele>
        <time>2017-02-19T12:01:58Z</time>
      </trkpt>
      <trkpt lat="46.66209" lon="4.63239">
        <ele>321</ele>
        <time>2017-02-19T12:02:00Z</time>
      </trkpt>
      <trkpt lat="46.66203" lon="4.63233">
        <ele>322</ele>
        <time>2017-02-19T12:02:02Z</time>
      </trkpt>
      <trkpt lat="46.66198" lon="4.63228">
        <ele>322</ele>
        <time>2017-02-19T12:02:04Z</time>
      </trkpt>
      <trkpt lat="46.66193" lon="4.63224">
        <ele>322</ele>
        <time>2017-02-19T12:02:06Z</time>
      </trkpt>
      <trkpt lat="46.66187" lon="4.63219">
        <ele>322</ele>
        <time>2017-02-19T12:02:08Z</time>
      </trkpt>
      <trkpt lat="46.6618" lon="4.63213">
        <ele>322</ele>
        <time>2017-02-19T12:02:10Z</time>
      </trkpt>
      <trkpt lat="46.66175" lon="4.63207">
        <ele>323</ele>
        <time>2017-02-19T12:02:12Z</time>
      </trkpt>
      <trkpt lat="46.66169" lon="4.63201">
        <ele>324</ele>
        <time>2017-02-19T12:02:14Z</time>
      </trkpt>
      <trkpt lat="46.66164" lon="4.63197">
        <ele>325</ele>
        <time>2017-02-19T12:02:16Z</time>
      </trkpt>
      <trkpt lat="46.66158" lon="4.63193">
        <ele>326</ele>
        <time>2017-02-19T12:02:18Z</time>
      </trkpt>
      <trkpt lat="46.66152" lon="4.6319">
        <ele>327</ele>
        <time>2017-02-19T12:02:20Z</time>
      </trkpt>
      <trkpt lat="46.66147" lon="4.63184">
        <ele>327</ele>
        <time>2017-02-19T12:02:22Z</time>
      </trkpt>
      <trkpt lat="46.66142" lon="4.6318">
        <ele>327</ele>
        <time>2017-02-19T12:02:24Z</time>
      </trkpt>
      <trkpt lat="46.66135" lon="4.63175">
        <ele>328</ele>
        <time>2017-02-19T12:02:26Z</time>
      </trkpt>
      <trkpt lat="46.66129" lon="4.63171">
        <ele>329</ele>
        <time>2017-02-19T12:02:28Z</time>
      </trkpt>
      <trkpt lat="46.66123" lon="4.63167">
        <ele>329</ele>
        <time>2017-02-19T12:02:30Z</time>
      </trkpt>
      <trkpt lat="46.66117" lon="4.63163">
        <ele>330</ele>
        <time>2017-02-19T12:02:32Z</time>
      </trkpt>
      <trkpt lat="46.66111" lon="4.6316">
        <ele>331</ele>
        <time>2017-02-19T12:02:34Z</time>
      </trkpt>
      <trkpt lat="46.66106" lon="4.63157">
        <ele>331</ele>
        <time>2017-02-19T12:02:36Z</time>
      </trkpt>
      <trkpt lat="46.661" lon="4.63153">
        <ele>332</ele>
        <time>2017-02-19T12:02:38Z</time>
      </trkpt>
      <trkpt lat="46.66093" lon="4.63149">
        <ele>332</ele>
        <time>2017-02-19T12:02:40Z</time>
      </trkpt>
      <trkpt lat="46.66086" lon="4.63144">
        <ele>332</ele>
        <time>2017-02-19T12:02:42Z</time>
      </trkpt>
      <trkpt lat="46.6608" lon="4.63139">
        <ele>332</ele>
        <time>2017-02-19T12:02:44Z</time>
      </trkpt>
      <trkpt lat="46.66074" lon="4.63134">
        <ele>333</ele>
        <time>2017-02-19T12:02:46Z</time>
      </trkpt>
      <trkpt lat="46.66069" lon="4.63129">
        <ele>333</ele>
        <time>2017-02-19T12:02:48Z</time>
      </trkpt>
      <trkpt lat="46.66063" lon="4.63123">
        <ele>333</ele>
        <time>2017-02-19T12:02:50Z</time>
      </trkpt>
      <trkpt lat="46.66057" lon="4.63117">
        <ele>334</ele>
        <time>2017-02-19T12:02:52Z</time>
      </trkpt>
      <trkpt lat="46.66051" lon="4.6311">
        <ele>334</ele>
        <time>2017-02-19T12:02:54Z</time>
      </trkpt>
      <trkpt lat="46.66045" lon="4.63104">
        <ele>334</ele>
        <time>2017-02-19T12:02:56Z</time>
      </trkpt>
      <trkpt lat="46.66039" lon="4.63099">
        <ele>334</ele>
        <time>2017-02-19T12:02:58Z</time>
      </trkpt>
      <trkpt lat="46.66033" lon="4.63093">
        <ele>335</ele>
        <time>2017-02-19T12:03:00Z</time>
      </trkpt>
      <trkpt lat="46.66026" lon="4.63087">
        <ele>335</ele>
        <time>2017-02-19T12:03:02Z</time>
      </trkpt>
      <trkpt lat="46.66021" lon="4.63085">
        <ele>335</ele>
        <time>2017-02-19T12:03:03Z</time>
      </trkpt>
      <trkpt lat="46.66017" lon="4.63083">
        <ele>335</ele>
        <time>2017-02-19T12:03:04Z</time>
      </trkpt>
      <trkpt lat="46.66013" lon="4.63081">
        <ele>335</ele>
        <time>2017-02-19T12:03:05Z</time>
      </trkpt>
      <trkpt lat="46.66008" lon="4.63079">
        <ele>335</ele>
        <time>2017-02-19T12:03:06Z</time>
      </trkpt>
      <trkpt lat="46.66003" lon="4.63077">
        <ele>335</ele>
        <time>2017-02-19T12:03:07Z</time>
      </trkpt>
      <trkpt lat="46.65998" lon="4.63074">
        <ele>335</ele>
        <time>2017-02-19T12:03:08Z</time>
      </trkpt>
      <trkpt lat="46.65992" lon="4.63072">
        <ele>335</ele>
        <time>2017-02-19T12:03:09Z</time>
      </trkpt>
      <trkpt lat="46.65986" lon="4.63069">
        <ele>335</ele>
        <time>2017-02-19T12:03:10Z</time>
      </trkpt>
      <trkpt lat="46.6598" lon="4.63067">
        <ele>335</ele>
        <time>2017-02-19T12:03:11Z</time>
      </trkpt>
      <trkpt lat="46.65974" lon="4.63064">
        <ele>335</ele>
        <time>2017-02-19T12:03:12Z</time>
      </trkpt>
      <trkpt lat="46.65968" lon="4.63061">
        <ele>334</ele>
        <time>2017-02-19T12:03:13Z</time>
      </trkpt>
      <trkpt lat="46.65961" lon="4.63057">
        <ele>334</ele>
        <time>2017-02-19T12:03:14Z</time>
      </trkpt>
      <trkpt lat="46.65955" lon="4.63052">
        <ele>334</ele>
        <time>2017-02-19T12:03:15Z</time>
      </trkpt>
      <trkpt lat="46.65948" lon="4.63048">
        <ele>334</ele>
        <time>2017-02-19T12:03:16Z</time>
      </trkpt>
      <trkpt lat="46.65942" lon="4.63042">
        <ele>333</ele>
        <time>2017-02-19T12:03:17Z</time>
      </trkpt>
      <trkpt lat="46.65935" lon="4.63037">
        <ele>333</ele>
        <time>2017-02-19T12:03:18Z</time>
      </trkpt>
      <trkpt lat="46.65928" lon="4.63031">
        <ele>333</ele>
        <time>2017-02-19T12:03:19Z</time>
      </trkpt>
      <trkpt lat="46.65921" lon="4.63026">
        <ele>333</ele>
        <time>2017-02-19T12:03:20Z</time>
      </trkpt>
      <trkpt lat="46.65915" lon="4.63021">
        <ele>332</ele>
        <time>2017-02-19T12:03:21Z</time>
      </trkpt>
      <trkpt lat="46.65909" lon="4.63017">
        <ele>332</ele>
        <time>2017-02-19T12:03:22Z</time>
      </trkpt>
      <trkpt lat="46.65903" lon="4.63013">
        <ele>332</ele>
        <time>2017-02-19T12:03:23Z</time>
      </trkpt>
      <trkpt lat="46.65898" lon="4.63008">
        <ele>332</ele>
        <time>2017-02-19T12:03:24Z</time>
      </trkpt>
      <trkpt lat="46.65893" lon="4.63003">
        <ele>332</ele>
        <time>2017-02-19T12:03:25Z</time>
      </trkpt>
      <trkpt lat="46.65889" lon="4.62998">
        <ele>332</ele>
        <time>2017-02-19T12:03:26Z</time>
      </trkpt>
      <trkpt lat="46.65884" lon="4.62993">
        <ele>331</ele>
        <time>2017-02-19T12:03:27Z</time>
      </trkpt>
      <trkpt lat="46.65879" lon="4.62988">
        <ele>331</ele>
        <time>2017-02-19T12:03:28Z</time>
      </trkpt>
      <trkpt lat="46.65874" lon="4.62984">
        <ele>331</ele>
        <time>2017-02-19T12:03:29Z</time>
      </trkpt>
      <trkpt lat="46.6587" lon="4.62979">
        <ele>331</ele>
        <time>2017-02-19T12:03:30Z</time>
      </trkpt>
      <trkpt lat="46.65865" lon="4.62974">
        <ele>332</ele>
        <time>2017-02-19T12:03:31Z</time>
      </trkpt>
      <trkpt lat="46.65859" lon="4.6297">
        <ele>332</ele>
        <time>2017-02-19T12:03:32Z</time>
      </trkpt>
      <trkpt lat="46.65852" lon="4.62965">
        <ele>332</ele>
        <time>2017-02-19T12:03:33Z</time>
      </trkpt>
      <trkpt lat="46.65846" lon="4.62959">
        <ele>332</ele>
        <time>2017-02-19T12:03:34Z</time>
      </trkpt>
      <trkpt lat="46.65839" lon="4.62953">
        <ele>331</ele>
        <time>2017-02-19T12:03:35Z</time>
      </trkpt>
      <trkpt lat="46.65833" lon="4.62948">
        <ele>331</ele>
        <time>2017-02-19T12:03:36Z</time>
      </trkpt>
      <trkpt lat="46.65828" lon="4.62943">
        <ele>331</ele>
        <time>2017-02-19T12:03:37Z</time>
      </trkpt>
      <trkpt lat="46.65823" lon="4.62938">
        <ele>331</ele>
        <time>2017-02-19T12:03:38Z</time>
      </trkpt>
      <trkpt lat="46.65818" lon="4.62934">
        <ele>331</ele>
        <time>2017-02-19T12:03:39Z</time>
      </trkpt>
      <trkpt lat="46.65813" lon="4.62929">
        <ele>331</ele>
        <time>2017-02-19T12:03:40Z</time>
      </trkpt>
      <trkpt lat="46.65808" lon="4.62924">
        <ele>330</ele>
        <time>2017-02-19T12:03:41Z</time>
      </trkpt>
      <trkpt lat="46.65804" lon="4.6292">
        <ele>330</ele>
        <time>2017-02-19T12:03:42Z</time>
      </trkpt>
      <trkpt lat="46.658" lon="4.62916">
        <ele>330</ele>
        <time>2017-02-19T12:03:43Z</time>
      </trkpt>
      <trkpt lat="46.65795" lon="4.62911">
        <ele>330</ele>
        <time>2017-02-19T12:03:44Z</time>
      </trkpt>
      <trkpt lat="46.65791" lon="4.62907">
        <ele>330</ele>
        <time>2017-02-19T12:03:45Z</time>
      </trkpt>
      <trkpt lat="46.65786" lon="4.62905">
        <ele>331</ele>
        <time>2017-02-19T12:03:46Z</time>
      </trkpt>
      <trkpt lat="46.65778" lon="4.62908">
        <ele>331</ele>
        <time>2017-02-19T12:03:48Z</time>
      </trkpt>
      <trkpt lat="46.65776" lon="4.62915">
        <ele>331</ele>
        <time>2017-02-19T12:03:49Z</time>
      </trkpt>
      <trkpt lat="46.65775" lon="4.62923">
        <ele>331</ele>
        <time>2017-02-19T12:03:50Z</time>
      </trkpt>
      <trkpt lat="46.65773" lon="4.6293">
        <ele>331</ele>
        <time>2017-02-19T12:03:51Z</time>
      </trkpt>
      <trkpt lat="46.65772" lon="4.62937">
        <ele>331</ele>
        <time>2017-02-19T12:03:52Z</time>
      </trkpt>
      <trkpt lat="46.6577" lon="4.62944">
        <ele>331</ele>
        <time>2017-02-19T12:03:53Z</time>
      </trkpt>
      <trkpt lat="46.65768" lon="4.6295">
        <ele>331</ele>
        <time>2017-02-19T12:03:54Z</time>
      </trkpt>
      <trkpt lat="46.65765" lon="4.62956">
        <ele>331</ele>
        <time>2017-02-19T12:03:55Z</time>
      </trkpt>
      <trkpt lat="46.65762" lon="4.62962">
        <ele>331</ele>
        <time>2017-02-19T12:03:56Z</time>
      </trkpt>
      <trkpt lat="46.65759" lon="4.62968">
        <ele>331</ele>
        <time>2017-02-19T12:03:57Z</time>
      </trkpt>
      <trkpt lat="46.65756" lon="4.62973">
        <ele>331</ele>
        <time>2017-02-19T12:03:58Z</time>
      </trkpt>
      <trkpt lat="46.65754" lon="4.62979">
        <ele>331</ele>
        <time>2017-02-19T12:03:59Z</time>
      </trkpt>
      <trkpt lat="46.65751" lon="4.62985">
        <ele>330</ele>
        <time>2017-02-19T12:04:00Z</time>
      </trkpt>
      <trkpt lat="46.65749" lon="4.62991">
        <ele>330</ele>
        <time>2017-02-19T12:04:01Z</time>
      </trkpt>
      <trkpt lat="46.65743" lon="4.63002">
        <ele>330</ele>
        <time>2017-02-19T12:04:03Z</time>
      </trkpt>
      <trkpt lat="46.65741" lon="4.63008">
        <ele>330</ele>
        <time>2017-02-19T12:04:04Z</time>
      </trkpt>
      <trkpt lat="46.65736" lon="4.63019">
        <ele>331</ele>
        <time>2017-02-19T12:04:06Z</time>
      </trkpt>
      <trkpt lat="46.65732" lon="4.63027">
        <ele>331</ele>
        <time>2017-02-19T12:04:08Z</time>
      </trkpt>
      <trkpt lat="46.65728" lon="4.63035">
        <ele>331</ele>
        <time>2017-02-19T12:04:10Z</time>
      </trkpt>
      <trkpt lat="46.65724" lon="4.63043">
        <ele>331</ele>
        <time>2017-02-19T12:04:12Z</time>
      </trkpt>
      <trkpt lat="46.6572" lon="4.63051">
        <ele>331</ele>
        <time>2017-02-19T12:04:14Z</time>
      </trkpt>
      <trkpt lat="46.65717" lon="4.63058">
        <ele>332</ele>
        <time>2017-02-19T12:04:16Z</time>
      </trkpt>
      <trkpt lat="46.65713" lon="4.63065">
        <ele>332</ele>
        <time>2017-02-19T12:04:18Z</time>
      </trkpt>
      <trkpt lat="46.65709" lon="4.63073">
        <ele>333</ele>
        <time>2017-02-19T12:04:20Z</time>
      </trkpt>
      <trkpt lat="46.65706" lon="4.6308">
        <ele>333</ele>
        <time>2017-02-19T12:04:22Z</time>
      </trkpt>
      <trkpt lat="46.65703" lon="4.63087">
        <ele>333</ele>
        <time>2017-02-19T12:04:24Z</time>
      </trkpt>
      <trkpt lat="46.657" lon="4.63094">
        <ele>333</ele>
        <time>2017-02-19T12:04:26Z</time>
      </trkpt>
      <trkpt lat="46.65697" lon="4.63101">
        <ele>334</ele>
        <time>2017-02-19T12:04:28Z</time>
      </trkpt>
      <trkpt lat="46.65693" lon="4.63108">
        <ele>334</ele>
        <time>2017-02-19T12:04:30Z</time>
      </trkpt>
      <trkpt lat="46.65691" lon="4.63115">
        <ele>334</ele>
        <time>2017-02-19T12:04:32Z</time>
      </trkpt>
      <trkpt lat="46.65687" lon="4.63122">
        <ele>334</ele>
        <time>2017-02-19T12:04:34Z</time>
      </trkpt>
      <trkpt lat="46.65682" lon="4.63129">
        <ele>334</ele>
        <time>2017-02-19T12:04:36Z</time>
      </trkpt>
      <trkpt lat="46.65677" lon="4.63135">
        <ele>334</ele>
        <time>2017-02-19T12:04:38Z</time>
      </trkpt>
      <trkpt lat="46.65673" lon="4.63141">
        <ele>334</ele>
        <time>2017-02-19T12:04:40Z</time>
      </trkpt>
      <trkpt lat="46.6567" lon="4.63147">
        <ele>335</ele>
        <time>2017-02-19T12:04:42Z</time>
      </trkpt>
      <trkpt lat="46.65667" lon="4.63153">
        <ele>335</ele>
        <time>2017-02-19T12:04:44Z</time>
      </trkpt>
      <trkpt lat="46.65664" lon="4.63159">
        <ele>335</ele>
        <time>2017-02-19T12:04:46Z</time>
      </trkpt>
      <trkpt lat="46.6566" lon="4.63165">
        <ele>336</ele>
        <time>2017-02-19T12:04:48Z</time>
      </trkpt>
      <trkpt lat="46.65657" lon="4.63171">
        <ele>336</ele>
        <time>2017-02-19T12:04:50Z</time>
      </trkpt>
      <trkpt lat="46.65655" lon="4.63178">
        <ele>336</ele>
        <time>2017-02-19T12:04:52Z</time>
      </trkpt>
      <trkpt lat="46.65653" lon="4.63184">
        <ele>337</ele>
        <time>2017-02-19T12:04:55Z</time>
      </trkpt>
      <trkpt lat="46.65648" lon="4.63191">
        <ele>338</ele>
        <time>2017-02-19T12:04:58Z</time>
      </trkpt>
      <trkpt lat="46.65645" lon="4.63198">
        <ele>339</ele>
        <time>2017-02-19T12:05:01Z</time>
      </trkpt>
      <trkpt lat="46.65641" lon="4.63206">
        <ele>340</ele>
        <time>2017-02-19T12:05:04Z</time>
      </trkpt>
      <trkpt lat="46.65637" lon="4.63213">
        <ele>342</ele>
        <time>2017-02-19T12:05:07Z</time>
      </trkpt>
      <trkpt lat="46.65633" lon="4.63219">
        <ele>343</ele>
        <time>2017-02-19T12:05:10Z</time>
      </trkpt>
      <trkpt lat="46.6563" lon="4.63226">
        <ele>344</ele>
        <time>2017-02-19T12:05:13Z</time>
      </trkpt>
      <trkpt lat="46.65627" lon="4.63231">
        <ele>344</ele>
        <time>2017-02-19T12:05:15Z</time>
      </trkpt>
      <trkpt lat="46.65624" lon="4.63237">
        <ele>344</ele>
        <time>2017-02-19T12:05:17Z</time>
      </trkpt>
      <trkpt lat="46.6562" lon="4.63242">
        <ele>344</ele>
        <time>2017-02-19T12:05:19Z</time>
      </trkpt>
      <trkpt lat="46.65616" lon="4.63248">
        <ele>344</ele>
        <time>2017-02-19T12:05:21Z</time>
      </trkpt>
      <trkpt lat="46.65612" lon="4.63254">
        <ele>343</ele>
        <time>2017-02-19T12:05:23Z</time>
      </trkpt>
      <trkpt lat="46.6561" lon="4.63262">
        <ele>342</ele>
        <time>2017-02-19T12:05:25Z</time>
      </trkpt>
      <trkpt lat="46.65608" lon="4.63269">
        <ele>342</ele>
        <time>2017-02-19T12:05:27Z</time>
      </trkpt>
      <trkpt lat="46.65606" lon="4.63277">
        <ele>341</ele>
        <time>2017-02-19T12:05:29Z</time>
      </trkpt>
      <trkpt lat="46.65603" lon="4.63284">
        <ele>341</ele>
        <time>2017-02-19T12:05:31Z</time>
      </trkpt>
      <trkpt lat="46.65599" lon="4.63289">
        <ele>340</ele>
        <time>2017-02-19T12:05:33Z</time>
      </trkpt>
      <trkpt lat="46.65598" lon="4.63297">
        <ele>340</ele>
        <time>2017-02-19T12:05:35Z</time>
      </trkpt>
      <trkpt lat="46.65596" lon="4.63304">
        <ele>340</ele>
        <time>2017-02-19T12:05:37Z</time>
      </trkpt>
      <trkpt lat="46.65594" lon="4.63312">
        <ele>341</ele>
        <time>2017-02-19T12:05:40Z</time>
      </trkpt>
      <trkpt lat="46.65591" lon="4.63317">
        <ele>341</ele>
        <time>2017-02-19T12:05:42Z</time>
      </trkpt>
      <trkpt lat="46.6559" lon="4.63324">
        <ele>342</ele>
        <time>2017-02-19T12:05:44Z</time>
      </trkpt>
      <trkpt lat="46.65588" lon="4.63331">
        <ele>342</ele>
        <time>2017-02-19T12:05:46Z</time>
      </trkpt>
      <trkpt lat="46.65587" lon="4.63337">
        <ele>343</ele>
        <time>2017-02-19T12:05:48Z</time>
      </trkpt>
      <trkpt lat="46.65583" lon="4.63346">
        <ele>344</ele>
        <time>2017-02-19T12:05:51Z</time>
      </trkpt>
      <trkpt lat="46.6558" lon="4.63353">
        <ele>345</ele>
        <time>2017-02-19T12:05:54Z</time>
      </trkpt>
      <trkpt lat="46.65577" lon="4.6336">
        <ele>345</ele>
        <time>2017-02-19T12:05:57Z</time>
      </trkpt>
      <trkpt lat="46.65575" lon="4.63366">
        <ele>346</ele>
        <time>2017-02-19T12:06:00Z</time>
      </trkpt>
      <trkpt lat="46.65573" lon="4.63374">
        <ele>346</ele>
        <time>2017-02-19T12:06:03Z</time>
      </trkpt>
      <trkpt lat="46.6557" lon="4.63383">
        <ele>347</ele>
        <time>2017-02-19T12:06:06Z</time>
      </trkpt>
      <trkpt lat="46.65568" lon="4.63388">
        <ele>348</ele>
        <time>2017-02-19T12:06:08Z</time>
      </trkpt>
      <trkpt lat="46.65566" lon="4.63394">
        <ele>348</ele>
        <time>2017-02-19T12:06:10Z</time>
      </trkpt>
      <trkpt lat="46.65563" lon="4.63402">
        <ele>348</ele>
        <time>2017-02-19T12:06:13Z</time>
      </trkpt>
      <trkpt lat="46.6556" lon="4.6341">
        <ele>349</ele>
        <time>2017-02-19T12:06:16Z</time>
      </trkpt>
      <trkpt lat="46.65558" lon="4.63418">
        <ele>349</ele>
        <time>2017-02-19T12:06:19Z</time>
      </trkpt>
      <trkpt lat="46.65556" lon="4.63427">
        <ele>349</ele>
        <time>2017-02-19T12:06:22Z</time>
      </trkpt>
      <trkpt lat="46.65554" lon="4.63433">
        <ele>349</ele>
        <time>2017-02-19T12:06:24Z</time>
      </trkpt>
      <trkpt lat="46.65553" lon="4.63439">
        <ele>350</ele>
        <time>2017-02-19T12:06:26Z</time>
      </trkpt>
      <trkpt lat="46.65551" lon="4.63445">
        <ele>350</ele>
        <time>2017-02-19T12:06:28Z</time>
      </trkpt>
      <trkpt lat="46.65549" lon="4.63454">
        <ele>350</ele>
        <time>2017-02-19T12:06:31Z</time>
      </trkpt>
      <trkpt lat="46.65548" lon="4.63463">
        <ele>351</ele>
        <time>2017-02-19T12:06:34Z</time>
      </trkpt>
      <trkpt lat="46.65547" lon="4.63473">
        <ele>351</ele>
        <time>2017-02-19T12:06:37Z</time>
      </trkpt>
      <trkpt lat="46.65545" lon="4.63482">
        <ele>351</ele>
        <time>2017-02-19T12:06:40Z</time>
      </trkpt>
      <trkpt lat="46.65544" lon="4.63492">
        <ele>352</ele>
        <time>2017-02-19T12:06:43Z</time>
      </trkpt>
      <trkpt lat="46.65543" lon="4.63501">
        <ele>352</ele>
        <time>2017-02-19T12:06:46Z</time>
      </trkpt>
      <trkpt lat="46.65544" lon="4.6351">
        <ele>353</ele>
        <time>2017-02-19T12:06:49Z</time>
      </trkpt>
      <trkpt lat="46.65543" lon="4.63517">
        <ele>353</ele>
        <time>2017-02-19T12:06:52Z</time>
      </trkpt>
      <trkpt lat="46.65543" lon="4.63526">
        <ele>353</ele>
        <time>2017-02-19T12:06:55Z</time>
      </trkpt>
      <trkpt lat="46.65544" lon="4.63533">
        <ele>354</ele>
        <time>2017-02-19T12:06:57Z</time>
      </trkpt>
      <trkpt lat="46.65544" lon="4.6354">
        <ele>354</ele>
        <time>2017-02-19T12:06:59Z</time>
      </trkpt>
      <trkpt lat="46.65544" lon="4.63549">
        <ele>354</ele>
        <time>2017-02-19T12:07:02Z</time>
      </trkpt>
      <trkpt lat="46.65543" lon="4.63558">
        <ele>354</ele>
        <time>2017-02-19T12:07:05Z</time>
      </trkpt>
      <trkpt lat="46.65543" lon="4.63567">
        <ele>354</ele>
        <time>2017-02-19T12:07:08Z</time>
      </trkpt>
      <trkpt lat="46.65543" lon="4.63576">
        <ele>354</ele>
        <time>2017-02-19T12:07:11Z</time>
      </trkpt>
      <trkpt lat="46.65542" lon="4.63586">
        <ele>353</ele>
        <time>2017-02-19T12:07:14Z</time>
      </trkpt>
      <trkpt lat="46.6554" lon="4.63595">
        <ele>353</ele>
        <time>2017-02-19T12:07:17Z</time>
      </trkpt>
      <trkpt lat="46.65537" lon="4.63604">
        <ele>352</ele>
        <time>2017-02-19T12:07:20Z</time>
      </trkpt>
      <trkpt lat="46.65533" lon="4.63611">
        <ele>352</ele>
        <time>2017-02-19T12:07:23Z</time>
      </trkpt>
      <trkpt lat="46.6553" lon="4.63617">
        <ele>352</ele>
        <time>2017-02-19T12:07:26Z</time>
      </trkpt>
      <trkpt lat="46.65525" lon="4.63623">
        <ele>351</ele>
        <time>2017-02-19T12:07:29Z</time>
      </trkpt>
      <trkpt lat="46.65519" lon="4.63627">
        <ele>351</ele>
        <time>2017-02-19T12:07:31Z</time>
      </trkpt>
      <trkpt lat="46.65513" lon="4.63632">
        <ele>350</ele>
        <time>2017-02-19T12:07:33Z</time>
      </trkpt>
      <trkpt lat="46.65506" lon="4.63636">
        <ele>350</ele>
        <time>2017-02-19T12:07:35Z</time>
      </trkpt>
      <trkpt lat="46.65499" lon="4.63639">
        <ele>349</ele>
        <time>2017-02-19T12:07:37Z</time>
      </trkpt>
      <trkpt lat="46.65493" lon="4.6364">
        <ele>349</ele>
        <time>2017-02-19T12:07:39Z</time>
      </trkpt>
      <trkpt lat="46.65487" lon="4.63641">
        <ele>349</ele>
        <time>2017-02-19T12:07:41Z</time>
      </trkpt>
      <trkpt lat="46.65483" lon="4.63642">
        <ele>348</ele>
        <time>2017-02-19T12:07:43Z</time>
      </trkpt>
      <trkpt lat="46.65478" lon="4.63643">
        <ele>348</ele>
        <time>2017-02-19T12:07:45Z</time>
      </trkpt>
      <trkpt lat="46.65472" lon="4.63644">
        <ele>347</ele>
        <time>2017-02-19T12:07:47Z</time>
      </trkpt>
      <trkpt lat="46.65466" lon="4.63649">
        <ele>346</ele>
        <time>2017-02-19T12:07:49Z</time>
      </trkpt>
      <trkpt lat="46.65461" lon="4.63656">
        <ele>346</ele>
        <time>2017-02-19T12:07:51Z</time>
      </trkpt>
      <trkpt lat="46.65459" lon="4.63666">
        <ele>346</ele>
        <time>2017-02-19T12:07:53Z</time>
      </trkpt>
      <trkpt lat="46.65459" lon="4.63673">
        <ele>347</ele>
        <time>2017-02-19T12:07:54Z</time>
      </trkpt>
      <trkpt lat="46.6546" lon="4.6368">
        <ele>348</ele>
        <time>2017-02-19T12:07:55Z</time>
      </trkpt>
      <trkpt lat="46.65463" lon="4.6369">
        <ele>349</ele>
        <time>2017-02-19T12:07:57Z</time>
      </trkpt>
      <trkpt lat="46.65469" lon="4.63697">
        <ele>350</ele>
        <time>2017-02-19T12:07:59Z</time>
      </trkpt>
      <trkpt lat="46.65474" lon="4.63703">
        <ele>351</ele>
        <time>2017-02-19T12:08:01Z</time>
      </trkpt>
      <trkpt lat="46.6548" lon="4.63708">
        <ele>352</ele>
        <time>2017-02-19T12:08:03Z</time>
      </trkpt>
      <trkpt lat="46.65487" lon="4.63711">
        <ele>353</ele>
        <time>2017-02-19T12:08:05Z</time>
      </trkpt>
      <trkpt lat="46.65493" lon="4.63715">
        <ele>355</ele>
        <time>2017-02-19T12:08:07Z</time>
      </trkpt>
      <trkpt lat="46.65499" lon="4.63718">
        <ele>355</ele>
        <time>2017-02-19T12:08:09Z</time>
      </trkpt>
      <trkpt lat="46.65505" lon="4.63721">
        <ele>356</ele>
        <time>2017-02-19T12:08:11Z</time>
      </trkpt>
      <trkpt lat="46.65511" lon="4.63724">
        <ele>357</ele>
        <time>2017-02-19T12:08:13Z</time>
      </trkpt>
      <trkpt lat="46.65517" lon="4.63727">
        <ele>358</ele>
        <time>2017-02-19T12:08:15Z</time>
      </trkpt>
      <trkpt lat="46.65524" lon="4.63732">
        <ele>358</ele>
        <time>2017-02-19T12:08:17Z</time>
      </trkpt>
      <trkpt lat="46.6553" lon="4.63736">
        <ele>359</ele>
        <time>2017-02-19T12:08:19Z</time>
      </trkpt>
      <trkpt lat="46.65537" lon="4.63741">
        <ele>359</ele>
        <time>2017-02-19T12:08:21Z</time>
      </trkpt>
      <trkpt lat="46.65543" lon="4.63746">
        <ele>360</ele>
        <time>2017-02-19T12:08:23Z</time>
      </trkpt>
      <trkpt lat="46.6555" lon="4.63751">
        <ele>360</ele>
        <time>2017-02-19T12:08:25Z</time>
      </trkpt>
      <trkpt lat="46.65556" lon="4.63757">
        <ele>361</ele>
        <time>2017-02-19T12:08:27Z</time>
      </trkpt>
      <trkpt lat="46.65563" lon="4.63765">
        <ele>361</ele>
        <time>2017-02-19T12:08:29Z</time>
      </trkpt>
      <trkpt lat="46.65569" lon="4.63772">
        <ele>361</ele>
        <time>2017-02-19T12:08:31Z</time>
      </trkpt>
      <trkpt lat="46.65572" lon="4.6378">
        <ele>362</ele>
        <time>2017-02-19T12:08:33Z</time>
      </trkpt>
      <trkpt lat="46.65576" lon="4.6379">
        <ele>362</ele>
        <time>2017-02-19T12:08:35Z</time>
      </trkpt>
      <trkpt lat="46.65577" lon="4.63799">
        <ele>363</ele>
        <time>2017-02-19T12:08:37Z</time>
      </trkpt>
      <trkpt lat="46.65579" lon="4.6381">
        <ele>363</ele>
        <time>2017-02-19T12:08:39Z</time>
      </trkpt>
      <trkpt lat="46.65581" lon="4.63819">
        <ele>364</ele>
        <time>2017-02-19T12:08:41Z</time>
      </trkpt>
      <trkpt lat="46.65583" lon="4.63829">
        <ele>365</ele>
        <time>2017-02-19T12:08:43Z</time>
      </trkpt>
      <trkpt lat="46.65584" lon="4.6384">
        <ele>365</ele>
        <time>2017-02-19T12:08:45Z</time>
      </trkpt>
      <trkpt lat="46.65586" lon="4.6385">
        <ele>366</ele>
        <time>2017-02-19T12:08:47Z</time>
      </trkpt>
      <trkpt lat="46.65587" lon="4.6386">
        <ele>366</ele>
        <time>2017-02-19T12:08:49Z</time>
      </trkpt>
      <trkpt lat="46.65589" lon="4.63871">
        <ele>367</ele>
        <time>2017-02-19T12:08:51Z</time>
      </trkpt>
      <trkpt lat="46.65591" lon="4.63883">
        <ele>367</ele>
        <time>2017-02-19T12:08:53Z</time>
      </trkpt>
      <trkpt lat="46.65592" lon="4.63894">
        <ele>368</ele>
        <time>2017-02-19T12:08:55Z</time>
      </trkpt>
      <trkpt lat="46.65593" lon="4.63906">
        <ele>368</ele>
        <time>2017-02-19T12:08:57Z</time>
      </trkpt>
      <trkpt lat="46.65593" lon="4.63917">
        <ele>369</ele>
        <time>2017-02-19T12:08:59Z</time>
      </trkpt>
      <trkpt lat="46.65594" lon="4.63928">
        <ele>369</ele>
        <time>2017-02-19T12:09:01Z</time>
      </trkpt>
      <trkpt lat="46.65595" lon="4.63939">
        <ele>369</ele>
        <time>2017-02-19T12:09:03Z</time>
      </trkpt>
      <trkpt lat="46.65595" lon="4.6395">
        <ele>370</ele>
        <time>2017-02-19T12:09:05Z</time>
      </trkpt>
      <trkpt lat="46.65596" lon="4.63961">
        <ele>371</ele>
        <time>2017-02-19T12:09:07Z</time>
      </trkpt>
      <trkpt lat="46.65596" lon="4.63972">
        <ele>371</ele>
        <time>2017-02-19T12:09:09Z</time>
      </trkpt>
      <trkpt lat="46.65596" lon="4.63984">
        <ele>372</ele>
        <time>2017-02-19T12:09:11Z</time>
      </trkpt>
      <trkpt lat="46.65596" lon="4.63995">
        <ele>372</ele>
        <time>2017-02-19T12:09:13Z</time>
      </trkpt>
      <trkpt lat="46.65595" lon="4.64007">
        <ele>372</ele>
        <time>2017-02-19T12:09:15Z</time>
      </trkpt>
      <trkpt lat="46.65593" lon="4.64027">
        <ele>372</ele>
        <time>2017-02-19T12:09:19Z</time>
      </trkpt>
      <trkpt lat="46.65592" lon="4.64039">
        <ele>371</ele>
        <time>2017-02-19T12:09:21Z</time>
      </trkpt>
      <trkpt lat="46.65591" lon="4.64052">
        <ele>371</ele>
        <time>2017-02-19T12:09:23Z</time>
      </trkpt>
      <trkpt lat="46.6559" lon="4.64059">
        <ele>371</ele>
        <time>2017-02-19T12:09:24Z</time>
      </trkpt>
      <trkpt lat="46.6559" lon="4.64066">
        <ele>370</ele>
        <time>2017-02-19T12:09:25Z</time>
      </trkpt>
      <trkpt lat="46.65589" lon="4.64074">
        <ele>370</ele>
        <time>2017-02-19T12:09:26Z</time>
      </trkpt>
      <trkpt lat="46.65589" lon="4.64084">
        <ele>370</ele>
        <time>2017-02-19T12:09:27Z</time>
      </trkpt>
      <trkpt lat="46.6559" lon="4.64095">
        <ele>369</ele>
        <time>2017-02-19T12:09:28Z</time>
      </trkpt>
      <trkpt lat="46.65591" lon="4.64107">
        <ele>369</ele>
        <time>2017-02-19T12:09:29Z</time>
      </trkpt>
      <trkpt lat="46.65591" lon="4.64119">
        <ele>369</ele>
        <time>2017-02-19T12:09:30Z</time>
      </trkpt>
      <trkpt lat="46.65591" lon="4.64131">
        <ele>368</ele>
        <time>2017-02-19T12:09:31Z</time>
      </trkpt>
      <trkpt lat="46.65592" lon="4.64145">
        <ele>368</ele>
        <time>2017-02-19T12:09:32Z</time>
      </trkpt>
      <trkpt lat="46.65594" lon="4.64158">
        <ele>367</ele>
        <time>2017-02-19T12:09:33Z</time>
      </trkpt>
      <trkpt lat="46.65595" lon="4.64172">
        <ele>367</ele>
        <time>2017-02-19T12:09:34Z</time>
      </trkpt>
      <trkpt lat="46.65596" lon="4.64186">
        <ele>366</ele>
        <time>2017-02-19T12:09:35Z</time>
      </trkpt>
      <trkpt lat="46.65597" lon="4.642">
        <ele>366</ele>
        <time>2017-02-19T12:09:36Z</time>
      </trkpt>
      <trkpt lat="46.65598" lon="4.64213">
        <ele>366</ele>
        <time>2017-02-19T12:09:37Z</time>
      </trkpt>
      <trkpt lat="46.65599" lon="4.64227">
        <ele>366</ele>
        <time>2017-02-19T12:09:38Z</time>
      </trkpt>
      <trkpt lat="46.65601" lon="4.6424">
        <ele>366</ele>
        <time>2017-02-19T12:09:39Z</time>
      </trkpt>
      <trkpt lat="46.65601" lon="4.64254">
        <ele>366</ele>
        <time>2017-02-19T12:09:40Z</time>
      </trkpt>
      <trkpt lat="46.65602" lon="4.64268">
        <ele>366</ele>
        <time>2017-02-19T12:09:41Z</time>
      </trkpt>
      <trkpt lat="46.65602" lon="4.64282">
        <ele>366</ele>
        <time>2017-02-19T12:09:42Z</time>
      </trkpt>
      <trkpt lat="46.65601" lon="4.64297">
        <ele>365</ele>
        <time>2017-02-19T12:09:43Z</time>
      </trkpt>
      <trkpt lat="46.656" lon="4.64312">
        <ele>365</ele>
        <time>2017-02-19T12:09:44Z</time>
      </trkpt>
      <trkpt lat="46.65598" lon="4.64326">
        <ele>365</ele>
        <time>2017-02-19T12:09:45Z</time>
      </trkpt>
      <trkpt lat="46.65596" lon="4.64341">
        <ele>364</ele>
        <time>2017-02-19T12:09:46Z</time>
      </trkpt>
      <trkpt lat="46.65593" lon="4.64356">
        <ele>364</ele>
        <time>2017-02-19T12:09:47Z</time>
      </trkpt>
      <trkpt lat="46.65591" lon="4.64371">
        <ele>363</ele>
        <time>2017-02-19T12:09:48Z</time>
      </trkpt>
      <trkpt lat="46.65588" lon="4.64387">
        <ele>363</ele>
        <time>2017-02-19T12:09:49Z</time>
      </trkpt>
      <trkpt lat="46.65587" lon="4.64403">
        <ele>362</ele>
        <time>2017-02-19T12:09:50Z</time>
      </trkpt>
      <trkpt lat="46.65586" lon="4.64419">
        <ele>362</ele>
        <time>2017-02-19T12:09:51Z</time>
      </trkpt>
      <trkpt lat="46.65586" lon="4.64435">
        <ele>361</ele>
        <time>2017-02-19T12:09:52Z</time>
      </trkpt>
      <trkpt lat="46.65585" lon="4.64451">
        <ele>361</ele>
        <time>2017-02-19T12:09:53Z</time>
      </trkpt>
      <trkpt lat="46.65586" lon="4.64467">
        <ele>360</ele>
        <time>2017-02-19T12:09:54Z</time>
      </trkpt>
      <trkpt lat="46.65588" lon="4.64483">
        <ele>360</ele>
        <time>2017-02-19T12:09:55Z</time>
      </trkpt>
      <trkpt lat="46.65591" lon="4.64497">
        <ele>359</ele>
        <time>2017-02-19T12:09:56Z</time>
      </trkpt>
      <trkpt lat="46.65596" lon="4.64511">
        <ele>358</ele>
        <time>2017-02-19T12:09:57Z</time>
      </trkpt>
      <trkpt lat="46.65602" lon="4.64522">
        <ele>358</ele>
        <time>2017-02-19T12:09:58Z</time>
      </trkpt>
      <trkpt lat="46.65608" lon="4.64533">
        <ele>358</ele>
        <time>2017-02-19T12:09:59Z</time>
      </trkpt>
      <trkpt lat="46.65615" lon="4.64544">
        <ele>358</ele>
        <time>2017-02-19T12:10:00Z</time>
      </trkpt>
      <trkpt lat="46.65622" lon="4.64557">
        <ele>357</ele>
        <time>2017-02-19T12:10:01Z</time>
      </trkpt>
      <trkpt lat="46.65628" lon="4.64571">
        <ele>357</ele>
        <time>2017-02-19T12:10:02Z</time>
      </trkpt>
      <trkpt lat="46.65633" lon="4.64586">
        <ele>357</ele>
        <time>2017-02-19T12:10:03Z</time>
      </trkpt>
      <trkpt lat="46.65636" lon="4.64602">
        <ele>357</ele>
        <time>2017-02-19T12:10:04Z</time>
      </trkpt>
      <trkpt lat="46.65638" lon="4.64619">
        <ele>356</ele>
        <time>2017-02-19T12:10:05Z</time>
      </trkpt>
      <trkpt lat="46.6564" lon="4.64636">
        <ele>355</ele>
        <time>2017-02-19T12:10:06Z</time>
      </trkpt>
      <trkpt lat="46.65641" lon="4.64654">
        <ele>354</ele>
        <time>2017-02-19T12:10:07Z</time>
      </trkpt>
      <trkpt lat="46.65642" lon="4.64672">
        <ele>354</ele>
        <time>2017-02-19T12:10:08Z</time>
      </trkpt>
      <trkpt lat="46.65642" lon="4.64689">
        <ele>353</ele>
        <time>2017-02-19T12:10:09Z</time>
      </trkpt>
      <trkpt lat="46.65641" lon="4.64707">
        <ele>353</ele>
        <time>2017-02-19T12:10:10Z</time>
      </trkpt>
      <trkpt lat="46.65638" lon="4.64723">
        <ele>352</ele>
        <time>2017-02-19T12:10:11Z</time>
      </trkpt>
      <trkpt lat="46.65633" lon="4.64739">
        <ele>351</ele>
        <time>2017-02-19T12:10:12Z</time>
      </trkpt>
      <trkpt lat="46.65624" lon="4.64753">
        <ele>351</ele>
        <time>2017-02-19T12:10:13Z</time>
      </trkpt>
      <trkpt lat="46.65613" lon="4.64764">
        <ele>350</ele>
        <time>2017-02-19T12:10:14Z</time>
      </trkpt>
      <trkpt lat="46.65601" lon="4.64774">
        <ele>349</ele>
        <time>2017-02-19T12:10:15Z</time>
      </trkpt>
      <trkpt lat="46.6559" lon="4.64783">
        <ele>349</ele>
        <time>2017-02-19T12:10:16Z</time>
      </trkpt>
      <trkpt lat="46.65579" lon="4.64793">
        <ele>349</ele>
        <time>2017-02-19T12:10:17Z</time>
      </trkpt>
      <trkpt lat="46.65569" lon="4.64803">
        <ele>349</ele>
        <time>2017-02-19T12:10:18Z</time>
      </trkpt>
      <trkpt lat="46.65559" lon="4.64812">
        <ele>349</ele>
        <time>2017-02-19T12:10:19Z</time>
      </trkpt>
      <trkpt lat="46.6555" lon="4.64821">
        <ele>349</ele>
        <time>2017-02-19T12:10:20Z</time>
      </trkpt>
      <trkpt lat="46.6554" lon="4.64829">
        <ele>349</ele>
        <time>2017-02-19T12:10:21Z</time>
      </trkpt>
      <trkpt lat="46.6553" lon="4.64835">
        <ele>349</ele>
        <time>2017-02-19T12:10:22Z</time>
      </trkpt>
      <trkpt lat="46.6552" lon="4.64839">
        <ele>348</ele>
        <time>2017-02-19T12:10:23Z</time>
      </trkpt>
      <trkpt lat="46.65509" lon="4.64841">
        <ele>348</ele>
        <time>2017-02-19T12:10:24Z</time>
      </trkpt>
      <trkpt lat="46.65499" lon="4.64842">
        <ele>348</ele>
        <time>2017-02-19T12:10:25Z</time>
      </trkpt>
      <trkpt lat="46.65488" lon="4.64841">
        <ele>348</ele>
        <time>2017-02-19T12:10:26Z</time>
      </trkpt>
      <trkpt lat="46.65479" lon="4.64839">
        <ele>348</ele>
        <time>2017-02-19T12:10:27Z</time>
      </trkpt>
      <trkpt lat="46.65469" lon="4.64838">
        <ele>347</ele>
        <time>2017-02-19T12:10:28Z</time>
      </trkpt>
      <trkpt lat="46.6546" lon="4.64838">
        <ele>347</ele>
        <time>2017-02-19T12:10:29Z</time>
      </trkpt>
      <trkpt lat="46.65451" lon="4.64839">
        <ele>347</ele>
        <time>2017-02-19T12:10:30Z</time>
      </trkpt>
      <trkpt lat="46.65443" lon="4.64843">
        <ele>346</ele>
        <time>2017-02-19T12:10:31Z</time>
      </trkpt>
      <trkpt lat="46.65435" lon="4.6485">
        <ele>346</ele>
        <time>2017-02-19T12:10:32Z</time>
      </trkpt>
      <trkpt lat="46.65429" lon="4.64858">
        <ele>345</ele>
        <time>2017-02-19T12:10:33Z</time>
      </trkpt>
      <trkpt lat="46.65422" lon="4.64867">
        <ele>345</ele>
        <time>2017-02-19T12:10:34Z</time>
      </trkpt>
      <trkpt lat="46.65416" lon="4.64876">
        <ele>345</ele>
        <time>2017-02-19T12:10:35Z</time>
      </trkpt>
      <trkpt lat="46.6541" lon="4.64886">
        <ele>345</ele>
        <time>2017-02-19T12:10:36Z</time>
      </trkpt>
      <trkpt lat="46.65406" lon="4.64896">
        <ele>346</ele>
        <time>2017-02-19T12:10:37Z</time>
      </trkpt>
      <trkpt lat="46.65403" lon="4.64906">
        <ele>346</ele>
        <time>2017-02-19T12:10:38Z</time>
      </trkpt>
      <trkpt lat="46.654" lon="4.64914">
        <ele>346</ele>
        <time>2017-02-19T12:10:39Z</time>
      </trkpt>
      <trkpt lat="46.65396" lon="4.64923">
        <ele>345</ele>
        <time>2017-02-19T12:10:40Z</time>
      </trkpt>
      <trkpt lat="46.65392" lon="4.64931">
        <ele>344</ele>
        <time>2017-02-19T12:10:41Z</time>
      </trkpt>
      <trkpt lat="46.6539" lon="4.64941">
        <ele>343</ele>
        <time>2017-02-19T12:10:42Z</time>
      </trkpt>
      <trkpt lat="46.65389" lon="4.6495">
        <ele>342</ele>
        <time>2017-02-19T12:10:43Z</time>
      </trkpt>
      <trkpt lat="46.65388" lon="4.6496">
        <ele>341</ele>
        <time>2017-02-19T12:10:44Z</time>
      </trkpt>
      <trkpt lat="46.65388" lon="4.64971">
        <ele>340</ele>
        <time>2017-02-19T12:10:45Z</time>
      </trkpt>
      <trkpt lat="46.65389" lon="4.64983">
        <ele>340</ele>
        <time>2017-02-19T12:10:46Z</time>
      </trkpt>
      <trkpt lat="46.6539" lon="4.64995">
        <ele>339</ele>
        <time>2017-02-19T12:10:47Z</time>
      </trkpt>
      <trkpt lat="46.65392" lon="4.65006">
        <ele>339</ele>
        <time>2017-02-19T12:10:48Z</time>
      </trkpt>
      <trkpt lat="46.65394" lon="4.65017">
        <ele>338</ele>
        <time>2017-02-19T12:10:49Z</time>
      </trkpt>
      <trkpt lat="46.65407" lon="4.65058">
        <ele>335</ele>
        <time>2017-02-19T12:10:54Z</time>
      </trkpt>
      <trkpt lat="46.65407" lon="4.65067">
        <ele>334</ele>
        <time>2017-02-19T12:10:55Z</time>
      </trkpt>
      <trkpt lat="46.65406" lon="4.65075">
        <ele>334</ele>
        <time>2017-02-19T12:10:56Z</time>
      </trkpt>
      <trkpt lat="46.65403" lon="4.65086">
        <ele>334</ele>
        <time>2017-02-19T12:10:58Z</time>
      </trkpt>
      <trkpt lat="46.654" lon="4.65092">
        <ele>333</ele>
        <time>2017-02-19T12:10:59Z</time>
      </trkpt>
      <trkpt lat="46.65396" lon="4.65098">
        <ele>333</ele>
        <time>2017-02-19T12:11:00Z</time>
      </trkpt>
      <trkpt lat="46.65391" lon="4.65104">
        <ele>333</ele>
        <time>2017-02-19T12:11:01Z</time>
      </trkpt>
      <trkpt lat="46.65387" lon="4.65108">
        <ele>333</ele>
        <time>2017-02-19T12:11:02Z</time>
      </trkpt>
      <trkpt lat="46.65381" lon="4.65113">
        <ele>332</ele>
        <time>2017-02-19T12:11:03Z</time>
      </trkpt>
      <trkpt lat="46.65374" lon="4.65116">
        <ele>331</ele>
        <time>2017-02-19T12:11:04Z</time>
      </trkpt>
      <trkpt lat="46.65368" lon="4.65117">
        <ele>331</ele>
        <time>2017-02-19T12:11:05Z</time>
      </trkpt>
      <trkpt lat="46.65362" lon="4.6512">
        <ele>330</ele>
        <time>2017-02-19T12:11:06Z</time>
      </trkpt>
      <trkpt lat="46.65358" lon="4.65123">
        <ele>330</ele>
        <time>2017-02-19T12:11:07Z</time>
      </trkpt>
      <trkpt lat="46.65352" lon="4.65123">
        <ele>330</ele>
        <time>2017-02-19T12:11:08Z</time>
      </trkpt>
      <trkpt lat="46.65346" lon="4.65122">
        <ele>330</ele>
        <time>2017-02-19T12:11:09Z</time>
      </trkpt>
      <trkpt lat="46.6534" lon="4.65122">
        <ele>330</ele>
        <time>2017-02-19T12:11:10Z</time>
      </trkpt>
      <trkpt lat="46.65332" lon="4.65119">
        <ele>330</ele>
        <time>2017-02-19T12:11:11Z</time>
      </trkpt>
      <trkpt lat="46.65324" lon="4.65117">
        <ele>329</ele>
        <time>2017-02-19T12:11:12Z</time>
      </trkpt>
      <trkpt lat="46.65316" lon="4.65116">
        <ele>327</ele>
        <time>2017-02-19T12:11:13Z</time>
      </trkpt>
      <trkpt lat="46.65309" lon="4.65116">
        <ele>325</ele>
        <time>2017-02-19T12:11:14Z</time>
      </trkpt>
      <trkpt lat="46.65302" lon="4.65116">
        <ele>322</ele>
        <time>2017-02-19T12:11:15Z</time>
      </trkpt>
      <trkpt lat="46.65295" lon="4.65117">
        <ele>320</ele>
        <time>2017-02-19T12:11:16Z</time>
      </trkpt>
      <trkpt lat="46.65288" lon="4.65119">
        <ele>319</ele>
        <time>2017-02-19T12:11:17Z</time>
      </trkpt>
      <trkpt lat="46.6528" lon="4.65121">
        <ele>319</ele>
        <time>2017-02-19T12:11:18Z</time>
      </trkpt>
      <trkpt lat="46.65273" lon="4.65123">
        <ele>319</ele>
        <time>2017-02-19T12:11:19Z</time>
      </trkpt>
      <trkpt lat="46.65265" lon="4.65125">
        <ele>319</ele>
        <time>2017-02-19T12:11:20Z</time>
      </trkpt>
      <trkpt lat="46.65258" lon="4.65126">
        <ele>319</ele>
        <time>2017-02-19T12:11:21Z</time>
      </trkpt>
      <trkpt lat="46.6525" lon="4.65127">
        <ele>318</ele>
        <time>2017-02-19T12:11:22Z</time>
      </trkpt>
      <trkpt lat="46.65242" lon="4.65129">
        <ele>318</ele>
        <time>2017-02-19T12:11:23Z</time>
      </trkpt>
      <trkpt lat="46.65235" lon="4.65131">
        <ele>318</ele>
        <time>2017-02-19T12:11:24Z</time>
      </trkpt>
      <trkpt lat="46.65227" lon="4.65133">
        <ele>317</ele>
        <time>2017-02-19T12:11:25Z</time>
      </trkpt>
      <trkpt lat="46.65219" lon="4.65137">
        <ele>317</ele>
        <time>2017-02-19T12:11:26Z</time>
      </trkpt>
      <trkpt lat="46.65211" lon="4.65142">
        <ele>316</ele>
        <time>2017-02-19T12:11:27Z</time>
      </trkpt>
      <trkpt lat="46.65204" lon="4.65149">
        <ele>315</ele>
        <time>2017-02-19T12:11:28Z</time>
      </trkpt>
      <trkpt lat="46.65197" lon="4.65157">
        <ele>316</ele>
        <time>2017-02-19T12:11:29Z</time>
      </trkpt>
      <trkpt lat="46.65192" lon="4.65165">
        <ele>316</ele>
        <time>2017-02-19T12:11:30Z</time>
      </trkpt>
      <trkpt lat="46.65187" lon="4.65175">
        <ele>317</ele>
        <time>2017-02-19T12:11:31Z</time>
      </trkpt>
      <trkpt lat="46.65183" lon="4.65186">
        <ele>319</ele>
        <time>2017-02-19T12:11:32Z</time>
      </trkpt>
      <trkpt lat="46.65179" lon="4.65197">
        <ele>320</ele>
        <time>2017-02-19T12:11:33Z</time>
      </trkpt>
      <trkpt lat="46.65176" lon="4.6521">
        <ele>321</ele>
        <time>2017-02-19T12:11:34Z</time>
      </trkpt>
      <trkpt lat="46.65173" lon="4.65222">
        <ele>322</ele>
        <time>2017-02-19T12:11:35Z</time>
      </trkpt>
      <trkpt lat="46.65171" lon="4.65235">
        <ele>322</ele>
        <time>2017-02-19T12:11:36Z</time>
      </trkpt>
      <trkpt lat="46.6517" lon="4.65248">
        <ele>323</ele>
        <time>2017-02-19T12:11:37Z</time>
      </trkpt>
      <trkpt lat="46.65169" lon="4.6526">
        <ele>323</ele>
        <time>2017-02-19T12:11:38Z</time>
      </trkpt>
      <trkpt lat="46.65171" lon="4.65272">
        <ele>324</ele>
        <time>2017-02-19T12:11:39Z</time>
      </trkpt>
      <trkpt lat="46.65174" lon="4.65283">
        <ele>324</ele>
        <time>2017-02-19T12:11:40Z</time>
      </trkpt>
      <trkpt lat="46.65178" lon="4.65294">
        <ele>323</ele>
        <time>2017-02-19T12:11:41Z</time>
      </trkpt>
      <trkpt lat="46.65182" lon="4.65303">
        <ele>323</ele>
        <time>2017-02-19T12:11:42Z</time>
      </trkpt>
      <trkpt lat="46.65189" lon="4.6531">
        <ele>323</ele>
        <time>2017-02-19T12:11:43Z</time>
      </trkpt>
      <trkpt lat="46.65197" lon="4.65315">
        <ele>322</ele>
        <time>2017-02-19T12:11:44Z</time>
      </trkpt>
      <trkpt lat="46.65205" lon="4.65319">
        <ele>321</ele>
        <time>2017-02-19T12:11:45Z</time>
      </trkpt>
      <trkpt lat="46.65215" lon="4.65324">
        <ele>321</ele>
        <time>2017-02-19T12:11:46Z</time>
      </trkpt>
      <trkpt lat="46.65225" lon="4.6533">
        <ele>320</ele>
        <time>2017-02-19T12:11:47Z</time>
      </trkpt>
      <trkpt lat="46.65234" lon="4.65336">
        <ele>319</ele>
        <time>2017-02-19T12:11:48Z</time>
      </trkpt>
      <trkpt lat="46.65243" lon="4.65342">
        <ele>319</ele>
        <time>2017-02-19T12:11:49Z</time>
      </trkpt>
      <trkpt lat="46.65252" lon="4.65347">
        <ele>319</ele>
        <time>2017-02-19T12:11:50Z</time>
      </trkpt>
      <trkpt lat="46.65262" lon="4.65351">
        <ele>319</ele>
        <time>2017-02-19T12:11:51Z</time>
      </trkpt>
      <trkpt lat="46.65271" lon="4.65355">
        <ele>319</ele>
        <time>2017-02-19T12:11:52Z</time>
      </trkpt>
      <trkpt lat="46.6528" lon="4.65358">
        <ele>319</ele>
        <time>2017-02-19T12:11:53Z</time>
      </trkpt>
      <trkpt lat="46.65289" lon="4.65363">
        <ele>319</ele>
        <time>2017-02-19T12:11:54Z</time>
      </trkpt>
      <trkpt lat="46.65297" lon="4.6537">
        <ele>319</ele>
        <time>2017-02-19T12:11:55Z</time>
      </trkpt>
      <trkpt lat="46.65305" lon="4.65377">
        <ele>319</ele>
        <time>2017-02-19T12:11:56Z</time>
      </trkpt>
      <trkpt lat="46.65314" lon="4.65384">
        <ele>319</ele>
        <time>2017-02-19T12:11:57Z</time>
      </trkpt>
      <trkpt lat="46.65322" lon="4.65391">
        <ele>318</ele>
        <time>2017-02-19T12:11:58Z</time>
      </trkpt>
      <trkpt lat="46.65328" lon="4.654">
        <ele>317</ele>
        <time>2017-02-19T12:11:59Z</time>
      </trkpt>
      <trkpt lat="46.65334" lon="4.65408">
        <ele>317</ele>
        <time>2017-02-19T12:12:00Z</time>
      </trkpt>
      <trkpt lat="46.6534" lon="4.65416">
        <ele>316</ele>
        <time>2017-02-19T12:12:01Z</time>
      </trkpt>
      <trkpt lat="46.65347" lon="4.65423">
        <ele>316</ele>
        <time>2017-02-19T12:12:02Z</time>
      </trkpt>
      <trkpt lat="46.65351" lon="4.65432">
        <ele>315</ele>
        <time>2017-02-19T12:12:03Z</time>
      </trkpt>
      <trkpt lat="46.65355" lon="4.6544">
        <ele>315</ele>
        <time>2017-02-19T12:12:04Z</time>
      </trkpt>
      <trkpt lat="46.65357" lon="4.65449">
        <ele>314</ele>
        <time>2017-02-19T12:12:05Z</time>
      </trkpt>
      <trkpt lat="46.6536" lon="4.65457">
        <ele>314</ele>
        <time>2017-02-19T12:12:06Z</time>
      </trkpt>
      <trkpt lat="46.65361" lon="4.65464">
        <ele>314</ele>
        <time>2017-02-19T12:12:07Z</time>
      </trkpt>
      <trkpt lat="46.65359" lon="4.65474">
        <ele>314</ele>
        <time>2017-02-19T12:12:09Z</time>
      </trkpt>
      <trkpt lat="46.6535" lon="4.65476">
        <ele>315</ele>
        <time>2017-02-19T12:12:11Z</time>
      </trkpt>
      <trkpt lat="46.65344" lon="4.65473">
        <ele>315</ele>
        <time>2017-02-19T12:12:12Z</time>
      </trkpt>
      <trkpt lat="46.65338" lon="4.65469">
        <ele>316</ele>
        <time>2017-02-19T12:12:13Z</time>
      </trkpt>
      <trkpt lat="46.65332" lon="4.65466">
        <ele>316</ele>
        <time>2017-02-19T12:12:14Z</time>
      </trkpt>
      <trkpt lat="46.65327" lon="4.65465">
        <ele>317</ele>
        <time>2017-02-19T12:12:15Z</time>
      </trkpt>
      <trkpt lat="46.65321" lon="4.65465">
        <ele>316</ele>
        <time>2017-02-19T12:12:17Z</time>
      </trkpt>
      <trkpt lat="46.65313" lon="4.65457">
        <ele>315</ele>
        <time>2017-02-19T12:12:19Z</time>
      </trkpt>
      <trkpt lat="46.65307" lon="4.65452">
        <ele>314</ele>
        <time>2017-02-19T12:12:21Z</time>
      </trkpt>
      <trkpt lat="46.653" lon="4.65449">
        <ele>311</ele>
        <time>2017-02-19T12:12:22Z</time>
      </trkpt>
      <trkpt lat="46.65295" lon="4.65445">
        <ele>309</ele>
        <time>2017-02-19T12:12:23Z</time>
      </trkpt>
      <trkpt lat="46.65289" lon="4.65441">
        <ele>306</ele>
        <time>2017-02-19T12:12:24Z</time>
      </trkpt>
      <trkpt lat="46.65284" lon="4.65438">
        <ele>304</ele>
        <time>2017-02-19T12:12:25Z</time>
      </trkpt>
      <trkpt lat="46.65279" lon="4.65434">
        <ele>303</ele>
        <time>2017-02-19T12:12:26Z</time>
      </trkpt>
      <trkpt lat="46.65275" lon="4.6543">
        <ele>301</ele>
        <time>2017-02-19T12:12:27Z</time>
      </trkpt>
      <trkpt lat="46.65271" lon="4.65427">
        <ele>300</ele>
        <time>2017-02-19T12:12:28Z</time>
      </trkpt>
      <trkpt lat="46.65264" lon="4.65424">
        <ele>299</ele>
        <time>2017-02-19T12:12:29Z</time>
      </trkpt>
      <trkpt lat="46.65257" lon="4.65421">
        <ele>299</ele>
        <time>2017-02-19T12:12:30Z</time>
      </trkpt>
      <trkpt lat="46.65249" lon="4.65419">
        <ele>300</ele>
        <time>2017-02-19T12:12:31Z</time>
      </trkpt>
      <trkpt lat="46.65242" lon="4.65418">
        <ele>301</ele>
        <time>2017-02-19T12:12:32Z</time>
      </trkpt>
      <trkpt lat="46.65235" lon="4.65419">
        <ele>302</ele>
        <time>2017-02-19T12:12:33Z</time>
      </trkpt>
      <trkpt lat="46.65228" lon="4.65419">
        <ele>302</ele>
        <time>2017-02-19T12:12:34Z</time>
      </trkpt>
      <trkpt lat="46.65222" lon="4.6542">
        <ele>302</ele>
        <time>2017-02-19T12:12:35Z</time>
      </trkpt>
      <trkpt lat="46.65216" lon="4.6542">
        <ele>302</ele>
        <time>2017-02-19T12:12:36Z</time>
      </trkpt>
      <trkpt lat="46.65209" lon="4.65421">
        <ele>302</ele>
        <time>2017-02-19T12:12:37Z</time>
      </trkpt>
      <trkpt lat="46.65203" lon="4.65422">
        <ele>301</ele>
        <time>2017-02-19T12:12:38Z</time>
      </trkpt>
      <trkpt lat="46.65196" lon="4.65423">
        <ele>301</ele>
        <time>2017-02-19T12:12:39Z</time>
      </trkpt>
      <trkpt lat="46.65189" lon="4.65425">
        <ele>300</ele>
        <time>2017-02-19T12:12:40Z</time>
      </trkpt>
      <trkpt lat="46.65181" lon="4.65427">
        <ele>299</ele>
        <time>2017-02-19T12:12:41Z</time>
      </trkpt>
      <trkpt lat="46.65173" lon="4.6543">
        <ele>298</ele>
        <time>2017-02-19T12:12:42Z</time>
      </trkpt>
      <trkpt lat="46.65165" lon="4.65434">
        <ele>298</ele>
        <time>2017-02-19T12:12:43Z</time>
      </trkpt>
      <trkpt lat="46.65156" lon="4.65438">
        <ele>298</ele>
        <time>2017-02-19T12:12:44Z</time>
      </trkpt>
      <trkpt lat="46.65148" lon="4.65443">
        <ele>298</ele>
        <time>2017-02-19T12:12:45Z</time>
      </trkpt>
      <trkpt lat="46.65139" lon="4.65447">
        <ele>298</ele>
        <time>2017-02-19T12:12:46Z</time>
      </trkpt>
      <trkpt lat="46.65131" lon="4.65452">
        <ele>297</ele>
        <time>2017-02-19T12:12:47Z</time>
      </trkpt>
      <trkpt lat="46.65122" lon="4.65456">
        <ele>297</ele>
        <time>2017-02-19T12:12:48Z</time>
      </trkpt>
      <trkpt lat="46.65113" lon="4.6546">
        <ele>295</ele>
        <time>2017-02-19T12:12:49Z</time>
      </trkpt>
      <trkpt lat="46.65105" lon="4.65462">
        <ele>294</ele>
        <time>2017-02-19T12:12:50Z</time>
      </trkpt>
      <trkpt lat="46.65097" lon="4.65465">
        <ele>293</ele>
        <time>2017-02-19T12:12:51Z</time>
      </trkpt>
      <trkpt lat="46.65089" lon="4.65469">
        <ele>293</ele>
        <time>2017-02-19T12:12:52Z</time>
      </trkpt>
      <trkpt lat="46.65081" lon="4.65472">
        <ele>292</ele>
        <time>2017-02-19T12:12:53Z</time>
      </trkpt>
      <trkpt lat="46.65075" lon="4.65474">
        <ele>291</ele>
        <time>2017-02-19T12:12:54Z</time>
      </trkpt>
      <trkpt lat="46.65068" lon="4.65475">
        <ele>289</ele>
        <time>2017-02-19T12:12:55Z</time>
      </trkpt>
      <trkpt lat="46.65062" lon="4.65476">
        <ele>287</ele>
        <time>2017-02-19T12:12:56Z</time>
      </trkpt>
      <trkpt lat="46.65054" lon="4.65476">
        <ele>284</ele>
        <time>2017-02-19T12:12:57Z</time>
      </trkpt>
      <trkpt lat="46.65048" lon="4.65475">
        <ele>281</ele>
        <time>2017-02-19T12:12:58Z</time>
      </trkpt>
      <trkpt lat="46.65039" lon="4.65472">
        <ele>279</ele>
        <time>2017-02-19T12:12:59Z</time>
      </trkpt>
      <trkpt lat="46.65031" lon="4.65469">
        <ele>278</ele>
        <time>2017-02-19T12:13:00Z</time>
      </trkpt>
      <trkpt lat="46.65023" lon="4.65467">
        <ele>277</ele>
        <time>2017-02-19T12:13:01Z</time>
      </trkpt>
      <trkpt lat="46.65015" lon="4.65464">
        <ele>278</ele>
        <time>2017-02-19T12:13:02Z</time>
      </trkpt>
      <trkpt lat="46.65007" lon="4.65462">
        <ele>278</ele>
        <time>2017-02-19T12:13:03Z</time>
      </trkpt>
      <trkpt lat="46.64999" lon="4.65459">
        <ele>279</ele>
        <time>2017-02-19T12:13:04Z</time>
      </trkpt>
      <trkpt lat="46.64989" lon="4.65454">
        <ele>279</ele>
        <time>2017-02-19T12:13:05Z</time>
      </trkpt>
      <trkpt lat="46.64978" lon="4.65449">
        <ele>279</ele>
        <time>2017-02-19T12:13:06Z</time>
      </trkpt>
      <trkpt lat="46.64969" lon="4.65444">
        <ele>279</ele>
        <time>2017-02-19T12:13:07Z</time>
      </trkpt>
      <trkpt lat="46.6496" lon="4.6544">
        <ele>280</ele>
        <time>2017-02-19T12:13:08Z</time>
      </trkpt>
      <trkpt lat="46.64952" lon="4.65436">
        <ele>281</ele>
        <time>2017-02-19T12:13:09Z</time>
      </trkpt>
      <trkpt lat="46.64943" lon="4.65433">
        <ele>282</ele>
        <time>2017-02-19T12:13:10Z</time>
      </trkpt>
      <trkpt lat="46.64935" lon="4.6543">
        <ele>283</ele>
        <time>2017-02-19T12:13:11Z</time>
      </trkpt>
      <trkpt lat="46.64927" lon="4.65426">
        <ele>283</ele>
        <time>2017-02-19T12:13:12Z</time>
      </trkpt>
      <trkpt lat="46.6492" lon="4.65423">
        <ele>282</ele>
        <time>2017-02-19T12:13:13Z</time>
      </trkpt>
      <trkpt lat="46.64912" lon="4.6542">
        <ele>281</ele>
        <time>2017-02-19T12:13:14Z</time>
      </trkpt>
      <trkpt lat="46.64906" lon="4.6542">
        <ele>281</ele>
        <time>2017-02-19T12:13:15Z</time>
      </trkpt>
      <trkpt lat="46.64901" lon="4.65419">
        <ele>282</ele>
        <time>2017-02-19T12:13:16Z</time>
      </trkpt>
      <trkpt lat="46.64894" lon="4.65419">
        <ele>283</ele>
        <time>2017-02-19T12:13:18Z</time>
      </trkpt>
      <trkpt lat="46.64886" lon="4.65422">
        <ele>285</ele>
        <time>2017-02-19T12:13:20Z</time>
      </trkpt>
      <trkpt lat="46.6488" lon="4.65423">
        <ele>287</ele>
        <time>2017-02-19T12:13:21Z</time>
      </trkpt>
      <trkpt lat="46.64875" lon="4.65425">
        <ele>289</ele>
        <time>2017-02-19T12:13:22Z</time>
      </trkpt>
      <trkpt lat="46.6487" lon="4.65426">
        <ele>291</ele>
        <time>2017-02-19T12:13:23Z</time>
      </trkpt>
      <trkpt lat="46.64865" lon="4.65427">
        <ele>291</ele>
        <time>2017-02-19T12:13:24Z</time>
      </trkpt>
      <trkpt lat="46.64861" lon="4.6543">
        <ele>292</ele>
        <time>2017-02-19T12:13:25Z</time>
      </trkpt>
      <trkpt lat="46.64853" lon="4.65433">
        <ele>293</ele>
        <time>2017-02-19T12:13:27Z</time>
      </trkpt>
      <trkpt lat="46.64846" lon="4.65437">
        <ele>294</ele>
        <time>2017-02-19T12:13:29Z</time>
      </trkpt>
      <trkpt lat="46.64839" lon="4.65438">
        <ele>294</ele>
        <time>2017-02-19T12:13:31Z</time>
      </trkpt>
      <trkpt lat="46.64834" lon="4.65442">
        <ele>294</ele>
        <time>2017-02-19T12:13:33Z</time>
      </trkpt>
      <trkpt lat="46.64829" lon="4.65451">
        <ele>294</ele>
        <time>2017-02-19T12:13:35Z</time>
      </trkpt>
      <trkpt lat="46.64824" lon="4.6546">
        <ele>294</ele>
        <time>2017-02-19T12:13:37Z</time>
      </trkpt>
      <trkpt lat="46.64821" lon="4.65465">
        <ele>293</ele>
        <time>2017-02-19T12:13:39Z</time>
      </trkpt>
      <trkpt lat="46.64814" lon="4.65472">
        <ele>291</ele>
        <time>2017-02-19T12:13:41Z</time>
      </trkpt>
      <trkpt lat="46.64811" lon="4.65477">
        <ele>290</ele>
        <time>2017-02-19T12:13:42Z</time>
      </trkpt>
      <trkpt lat="46.64807" lon="4.65481">
        <ele>288</ele>
        <time>2017-02-19T12:13:43Z</time>
      </trkpt>
      <trkpt lat="46.64801" lon="4.65489">
        <ele>286</ele>
        <time>2017-02-19T12:13:45Z</time>
      </trkpt>
      <trkpt lat="46.64796" lon="4.65496">
        <ele>285</ele>
        <time>2017-02-19T12:13:47Z</time>
      </trkpt>
      <trkpt lat="46.6479" lon="4.65502">
        <ele>283</ele>
        <time>2017-02-19T12:13:49Z</time>
      </trkpt>
      <trkpt lat="46.64785" lon="4.65507">
        <ele>282</ele>
        <time>2017-02-19T12:13:51Z</time>
      </trkpt>
      <trkpt lat="46.64781" lon="4.65512">
        <ele>280</ele>
        <time>2017-02-19T12:13:53Z</time>
      </trkpt>
      <trkpt lat="46.64776" lon="4.65518">
        <ele>278</ele>
        <time>2017-02-19T12:13:55Z</time>
      </trkpt>
      <trkpt lat="46.64772" lon="4.65525">
        <ele>276</ele>
        <time>2017-02-19T12:13:57Z</time>
      </trkpt>
      <trkpt lat="46.64768" lon="4.65532">
        <ele>275</ele>
        <time>2017-02-19T12:13:59Z</time>
      </trkpt>
      <trkpt lat="46.64762" lon="4.65537">
        <ele>274</ele>
        <time>2017-02-19T12:14:01Z</time>
      </trkpt>
      <trkpt lat="46.64758" lon="4.65542">
        <ele>272</ele>
        <time>2017-02-19T12:14:03Z</time>
      </trkpt>
      <trkpt lat="46.64753" lon="4.65546">
        <ele>272</ele>
        <time>2017-02-19T12:14:05Z</time>
      </trkpt>
      <trkpt lat="46.6475" lon="4.65552">
        <ele>271</ele>
        <time>2017-02-19T12:14:07Z</time>
      </trkpt>
      <trkpt lat="46.64747" lon="4.65558">
        <ele>270</ele>
        <time>2017-02-19T12:14:09Z</time>
      </trkpt>
      <trkpt lat="46.64745" lon="4.65565">
        <ele>270</ele>
        <time>2017-02-19T12:14:11Z</time>
      </trkpt>
      <trkpt lat="46.64742" lon="4.65571">
        <ele>269</ele>
        <time>2017-02-19T12:14:13Z</time>
      </trkpt>
      <trkpt lat="46.64739" lon="4.65578">
        <ele>269</ele>
        <time>2017-02-19T12:14:15Z</time>
      </trkpt>
      <trkpt lat="46.64736" lon="4.65585">
        <ele>269</ele>
        <time>2017-02-19T12:14:18Z</time>
      </trkpt>
      <trkpt lat="46.64733" lon="4.65592">
        <ele>269</ele>
        <time>2017-02-19T12:14:21Z</time>
      </trkpt>
      <trkpt lat="46.64729" lon="4.65599">
        <ele>269</ele>
        <time>2017-02-19T12:14:23Z</time>
      </trkpt>
      <trkpt lat="46.64724" lon="4.65606">
        <ele>269</ele>
        <time>2017-02-19T12:14:25Z</time>
      </trkpt>
      <trkpt lat="46.64718" lon="4.65612">
        <ele>268</ele>
        <time>2017-02-19T12:14:27Z</time>
      </trkpt>
      <trkpt lat="46.64714" lon="4.65618">
        <ele>268</ele>
        <time>2017-02-19T12:14:29Z</time>
      </trkpt>
      <trkpt lat="46.64711" lon="4.65624">
        <ele>268</ele>
        <time>2017-02-19T12:14:31Z</time>
      </trkpt>
      <trkpt lat="46.64708" lon="4.65632">
        <ele>268</ele>
        <time>2017-02-19T12:14:34Z</time>
      </trkpt>
      <trkpt lat="46.64706" lon="4.65637">
        <ele>268</ele>
        <time>2017-02-19T12:14:36Z</time>
      </trkpt>
      <trkpt lat="46.64701" lon="4.65646">
        <ele>269</ele>
        <time>2017-02-19T12:14:38Z</time>
      </trkpt>
      <trkpt lat="46.64698" lon="4.65653">
        <ele>269</ele>
        <time>2017-02-19T12:14:40Z</time>
      </trkpt>
      <trkpt lat="46.64695" lon="4.6566">
        <ele>269</ele>
        <time>2017-02-19T12:14:42Z</time>
      </trkpt>
      <trkpt lat="46.64695" lon="4.65668">
        <ele>268</ele>
        <time>2017-02-19T12:14:46Z</time>
      </trkpt>
      <trkpt lat="46.64694" lon="4.65677">
        <ele>267</ele>
        <time>2017-02-19T12:14:49Z</time>
      </trkpt>
      <trkpt lat="46.64694" lon="4.65684">
        <ele>266</ele>
        <time>2017-02-19T12:14:51Z</time>
      </trkpt>
      <trkpt lat="46.64691" lon="4.65693">
        <ele>264</ele>
        <time>2017-02-19T12:14:56Z</time>
      </trkpt>
      <trkpt lat="46.64685" lon="4.65698">
        <ele>261</ele>
        <time>2017-02-19T12:14:58Z</time>
      </trkpt>
      <trkpt lat="46.6468" lon="4.65702">
        <ele>258</ele>
        <time>2017-02-19T12:15:00Z</time>
      </trkpt>
      <trkpt lat="46.64677" lon="4.65709">
        <ele>255</ele>
        <time>2017-02-19T12:15:02Z</time>
      </trkpt>
      <trkpt lat="46.64674" lon="4.65721">
        <ele>251</ele>
        <time>2017-02-19T12:15:04Z</time>
      </trkpt>
      <trkpt lat="46.6467" lon="4.65732">
        <ele>249</ele>
        <time>2017-02-19T12:15:06Z</time>
      </trkpt>
      <trkpt lat="46.6464" lon="4.65789">
        <ele>248</ele>
        <time>2017-02-19T12:15:09Z</time>
      </trkpt>
      <trkpt lat="46.64634" lon="4.65796">
        <ele>247</ele>
        <time>2017-02-19T12:15:11Z</time>
      </trkpt>
      <trkpt lat="46.64632" lon="4.65807">
        <ele>247</ele>
        <time>2017-02-19T12:15:13Z</time>
      </trkpt>
      <trkpt lat="46.64631" lon="4.65819">
        <ele>247</ele>
        <time>2017-02-19T12:15:15Z</time>
      </trkpt>
      <trkpt lat="46.64629" lon="4.65832">
        <ele>247</ele>
        <time>2017-02-19T12:15:17Z</time>
      </trkpt>
      <trkpt lat="46.64627" lon="4.65842">
        <ele>246</ele>
        <time>2017-02-19T12:15:19Z</time>
      </trkpt>
      <trkpt lat="46.64624" lon="4.65848">
        <ele>244</ele>
        <time>2017-02-19T12:15:20Z</time>
      </trkpt>
      <trkpt lat="46.64623" lon="4.65855">
        <ele>243</ele>
        <time>2017-02-19T12:15:21Z</time>
      </trkpt>
      <trkpt lat="46.64622" lon="4.65863">
        <ele>242</ele>
        <time>2017-02-19T12:15:22Z</time>
      </trkpt>
      <trkpt lat="46.64621" lon="4.65871">
        <ele>240</ele>
        <time>2017-02-19T12:15:23Z</time>
      </trkpt>
      <trkpt lat="46.6462" lon="4.65879">
        <ele>238</ele>
        <time>2017-02-19T12:15:24Z</time>
      </trkpt>
      <trkpt lat="46.64618" lon="4.6589">
        <ele>236</ele>
        <time>2017-02-19T12:15:26Z</time>
      </trkpt>
      <trkpt lat="46.64595" lon="4.65963">
        <ele>236</ele>
        <time>2017-02-19T12:15:31Z</time>
      </trkpt>
      <trkpt lat="46.64594" lon="4.65971">
        <ele>236</ele>
        <time>2017-02-19T12:15:32Z</time>
      </trkpt>
      <trkpt lat="46.6459" lon="4.65983">
        <ele>236</ele>
        <time>2017-02-19T12:15:34Z</time>
      </trkpt>
      <trkpt lat="46.64587" lon="4.6599">
        <ele>236</ele>
        <time>2017-02-19T12:15:35Z</time>
      </trkpt>
      <trkpt lat="46.64588" lon="4.66001">
        <ele>236</ele>
        <time>2017-02-19T12:15:37Z</time>
      </trkpt>
      <trkpt lat="46.64587" lon="4.66009">
        <ele>234</ele>
        <time>2017-02-19T12:15:39Z</time>
      </trkpt>
      <trkpt lat="46.64585" lon="4.66017">
        <ele>231</ele>
        <time>2017-02-19T12:15:41Z</time>
      </trkpt>
      <trkpt lat="46.64581" lon="4.66027">
        <ele>227</ele>
        <time>2017-02-19T12:15:43Z</time>
      </trkpt>
      <trkpt lat="46.64579" lon="4.66033">
        <ele>224</ele>
        <time>2017-02-19T12:15:44Z</time>
      </trkpt>
      <trkpt lat="46.64579" lon="4.6604">
        <ele>220</ele>
        <time>2017-02-19T12:15:45Z</time>
      </trkpt>
      <trkpt lat="46.6458" lon="4.66048">
        <ele>218</ele>
        <time>2017-02-19T12:15:46Z</time>
      </trkpt>
      <trkpt lat="46.64579" lon="4.66055">
        <ele>216</ele>
        <time>2017-02-19T12:15:47Z</time>
      </trkpt>
      <trkpt lat="46.64572" lon="4.66109">
        <ele>215</ele>
        <time>2017-02-19T12:15:52Z</time>
      </trkpt>
      <trkpt lat="46.64571" lon="4.66121">
        <ele>216</ele>
        <time>2017-02-19T12:15:53Z</time>
      </trkpt>
      <trkpt lat="46.64569" lon="4.66133">
        <ele>217</ele>
        <time>2017-02-19T12:15:54Z</time>
      </trkpt>
      <trkpt lat="46.64566" lon="4.66146">
        <ele>217</ele>
        <time>2017-02-19T12:15:55Z</time>
      </trkpt>
      <trkpt lat="46.64566" lon="4.66158">
        <ele>219</ele>
        <time>2017-02-19T12:15:56Z</time>
      </trkpt>
      <trkpt lat="46.64565" lon="4.66172">
        <ele>221</ele>
        <time>2017-02-19T12:15:57Z</time>
      </trkpt>
      <trkpt lat="46.64565" lon="4.66185">
        <ele>223</ele>
        <time>2017-02-19T12:15:58Z</time>
      </trkpt>
      <trkpt lat="46.64565" lon="4.66196">
        <ele>225</ele>
        <time>2017-02-19T12:15:59Z</time>
      </trkpt>
      <trkpt lat="46.64565" lon="4.66205">
        <ele>228</ele>
        <time>2017-02-19T12:16:00Z</time>
      </trkpt>
      <trkpt lat="46.64566" lon="4.66214">
        <ele>229</ele>
        <time>2017-02-19T12:16:01Z</time>
      </trkpt>
      <trkpt lat="46.64566" lon="4.66221">
        <ele>231</ele>
        <time>2017-02-19T12:16:02Z</time>
      </trkpt>
      <trkpt lat="46.64565" lon="4.6623">
        <ele>231</ele>
        <time>2017-02-19T12:16:03Z</time>
      </trkpt>
      <trkpt lat="46.64565" lon="4.66239">
        <ele>232</ele>
        <time>2017-02-19T12:16:04Z</time>
      </trkpt>
      <trkpt lat="46.64564" lon="4.66249">
        <ele>233</ele>
        <time>2017-02-19T12:16:05Z</time>
      </trkpt>
      <trkpt lat="46.64563" lon="4.66259">
        <ele>233</ele>
        <time>2017-02-19T12:16:06Z</time>
      </trkpt>
      <trkpt lat="46.64563" lon="4.66269">
        <ele>233</ele>
        <time>2017-02-19T12:16:07Z</time>
      </trkpt>
      <trkpt lat="46.64563" lon="4.66279">
        <ele>234</ele>
        <time>2017-02-19T12:16:08Z</time>
      </trkpt>
      <trkpt lat="46.64563" lon="4.66289">
        <ele>234</ele>
        <time>2017-02-19T12:16:09Z</time>
      </trkpt>
      <trkpt lat="46.64563" lon="4.663">
        <ele>235</ele>
        <time>2017-02-19T12:16:10Z</time>
      </trkpt>
      <trkpt lat="46.64563" lon="4.6631">
        <ele>235</ele>
        <time>2017-02-19T12:16:11Z</time>
      </trkpt>
      <trkpt lat="46.64563" lon="4.6632">
        <ele>236</ele>
        <time>2017-02-19T12:16:12Z</time>
      </trkpt>
      <trkpt lat="46.64564" lon="4.6633">
        <ele>237</ele>
        <time>2017-02-19T12:16:13Z</time>
      </trkpt>
      <trkpt lat="46.64564" lon="4.66341">
        <ele>238</ele>
        <time>2017-02-19T12:16:14Z</time>
      </trkpt>
      <trkpt lat="46.64563" lon="4.66353">
        <ele>238</ele>
        <time>2017-02-19T12:16:15Z</time>
      </trkpt>
      <trkpt lat="46.64563" lon="4.66363">
        <ele>239</ele>
        <time>2017-02-19T12:16:16Z</time>
      </trkpt>
      <trkpt lat="46.64563" lon="4.66374">
        <ele>240</ele>
        <time>2017-02-19T12:16:17Z</time>
      </trkpt>
      <trkpt lat="46.64562" lon="4.66385">
        <ele>241</ele>
        <time>2017-02-19T12:16:18Z</time>
      </trkpt>
      <trkpt lat="46.64562" lon="4.66395">
        <ele>242</ele>
        <time>2017-02-19T12:16:19Z</time>
      </trkpt>
      <trkpt lat="46.64562" lon="4.66404">
        <ele>242</ele>
        <time>2017-02-19T12:16:20Z</time>
      </trkpt>
      <trkpt lat="46.64561" lon="4.66415">
        <ele>243</ele>
        <time>2017-02-19T12:16:21Z</time>
      </trkpt>
      <trkpt lat="46.6456" lon="4.66425">
        <ele>244</ele>
        <time>2017-02-19T12:16:22Z</time>
      </trkpt>
      <trkpt lat="46.64559" lon="4.66435">
        <ele>244</ele>
        <time>2017-02-19T12:16:23Z</time>
      </trkpt>
      <trkpt lat="46.64558" lon="4.66445">
        <ele>245</ele>
        <time>2017-02-19T12:16:24Z</time>
      </trkpt>
      <trkpt lat="46.64557" lon="4.66455">
        <ele>245</ele>
        <time>2017-02-19T12:16:25Z</time>
      </trkpt>
      <trkpt lat="46.64557" lon="4.66467">
        <ele>246</ele>
        <time>2017-02-19T12:16:26Z</time>
      </trkpt>
      <trkpt lat="46.64556" lon="4.66478">
        <ele>247</ele>
        <time>2017-02-19T12:16:27Z</time>
      </trkpt>
      <trkpt lat="46.64555" lon="4.66488">
        <ele>247</ele>
        <time>2017-02-19T12:16:28Z</time>
      </trkpt>
      <trkpt lat="46.64554" lon="4.66498">
        <ele>248</ele>
        <time>2017-02-19T12:16:29Z</time>
      </trkpt>
      <trkpt lat="46.64552" lon="4.66509">
        <ele>249</ele>
        <time>2017-02-19T12:16:30Z</time>
      </trkpt>
      <trkpt lat="46.6455" lon="4.6652">
        <ele>249</ele>
        <time>2017-02-19T12:16:31Z</time>
      </trkpt>
      <trkpt lat="46.64549" lon="4.66529">
        <ele>250</ele>
        <time>2017-02-19T12:16:32Z</time>
      </trkpt>
      <trkpt lat="46.64549" lon="4.66538">
        <ele>250</ele>
        <time>2017-02-19T12:16:33Z</time>
      </trkpt>
      <trkpt lat="46.64549" lon="4.66548">
        <ele>251</ele>
        <time>2017-02-19T12:16:34Z</time>
      </trkpt>
      <trkpt lat="46.64548" lon="4.66557">
        <ele>251</ele>
        <time>2017-02-19T12:16:35Z</time>
      </trkpt>
      <trkpt lat="46.64547" lon="4.66566">
        <ele>252</ele>
        <time>2017-02-19T12:16:36Z</time>
      </trkpt>
      <trkpt lat="46.64546" lon="4.66574">
        <ele>252</ele>
        <time>2017-02-19T12:16:37Z</time>
      </trkpt>
      <trkpt lat="46.64544" lon="4.66583">
        <ele>253</ele>
        <time>2017-02-19T12:16:38Z</time>
      </trkpt>
      <trkpt lat="46.64543" lon="4.66592">
        <ele>254</ele>
        <time>2017-02-19T12:16:39Z</time>
      </trkpt>
      <trkpt lat="46.64542" lon="4.66602">
        <ele>255</ele>
        <time>2017-02-19T12:16:40Z</time>
      </trkpt>
      <trkpt lat="46.64539" lon="4.66615">
        <ele>256</ele>
        <time>2017-02-19T12:16:41Z</time>
      </trkpt>
      <trkpt lat="46.64536" lon="4.66628">
        <ele>257</ele>
        <time>2017-02-19T12:16:42Z</time>
      </trkpt>
      <trkpt lat="46.64533" lon="4.66641">
        <ele>258</ele>
        <time>2017-02-19T12:16:43Z</time>
      </trkpt>
      <trkpt lat="46.64529" lon="4.66652">
        <ele>258</ele>
        <time>2017-02-19T12:16:44Z</time>
      </trkpt>
      <trkpt lat="46.64525" lon="4.66663">
        <ele>259</ele>
        <time>2017-02-19T12:16:45Z</time>
      </trkpt>
      <trkpt lat="46.64523" lon="4.66674">
        <ele>260</ele>
        <time>2017-02-19T12:16:46Z</time>
      </trkpt>
      <trkpt lat="46.6452" lon="4.66684">
        <ele>261</ele>
        <time>2017-02-19T12:16:47Z</time>
      </trkpt>
      <trkpt lat="46.64518" lon="4.66693">
        <ele>262</ele>
        <time>2017-02-19T12:16:48Z</time>
      </trkpt>
      <trkpt lat="46.64514" lon="4.66701">
        <ele>262</ele>
        <time>2017-02-19T12:16:49Z</time>
      </trkpt>
      <trkpt lat="46.64511" lon="4.6671">
        <ele>262</ele>
        <time>2017-02-19T12:16:50Z</time>
      </trkpt>
      <trkpt lat="46.64507" lon="4.66718">
        <ele>262</ele>
        <time>2017-02-19T12:16:51Z</time>
      </trkpt>
      <trkpt lat="46.64503" lon="4.66728">
        <ele>262</ele>
        <time>2017-02-19T12:16:52Z</time>
      </trkpt>
      <trkpt lat="46.64498" lon="4.66737">
        <ele>261</ele>
        <time>2017-02-19T12:16:53Z</time>
      </trkpt>
      <trkpt lat="46.64495" lon="4.66744">
        <ele>262</ele>
        <time>2017-02-19T12:16:54Z</time>
      </trkpt>
      <trkpt lat="46.64491" lon="4.66753">
        <ele>262</ele>
        <time>2017-02-19T12:16:55Z</time>
      </trkpt>
      <trkpt lat="46.64486" lon="4.66764">
        <ele>263</ele>
        <time>2017-02-19T12:16:56Z</time>
      </trkpt>
      <trkpt lat="46.64482" lon="4.66775">
        <ele>263</ele>
        <time>2017-02-19T12:16:57Z</time>
      </trkpt>
      <trkpt lat="46.64478" lon="4.66784">
        <ele>264</ele>
        <time>2017-02-19T12:16:58Z</time>
      </trkpt>
      <trkpt lat="46.64475" lon="4.66793">
        <ele>265</ele>
        <time>2017-02-19T12:16:59Z</time>
      </trkpt>
      <trkpt lat="46.64473" lon="4.66801">
        <ele>266</ele>
        <time>2017-02-19T12:17:00Z</time>
      </trkpt>
      <trkpt lat="46.6447" lon="4.66809">
        <ele>267</ele>
        <time>2017-02-19T12:17:01Z</time>
      </trkpt>
      <trkpt lat="46.64466" lon="4.66817">
        <ele>267</ele>
        <time>2017-02-19T12:17:03Z</time>
      </trkpt>
      <trkpt lat="46.64465" lon="4.66825">
        <ele>268</ele>
        <time>2017-02-19T12:17:06Z</time>
      </trkpt>
      <trkpt lat="46.64469" lon="4.66831">
        <ele>269</ele>
        <time>2017-02-19T12:17:09Z</time>
      </trkpt>
      <trkpt lat="46.64459" lon="4.66849">
        <ele>269</ele>
        <time>2017-02-19T12:17:11Z</time>
      </trkpt>
      <trkpt lat="46.64454" lon="4.6686">
        <ele>269</ele>
        <time>2017-02-19T12:17:12Z</time>
      </trkpt>
      <trkpt lat="46.64447" lon="4.66874">
        <ele>269</ele>
        <time>2017-02-19T12:17:14Z</time>
      </trkpt>
      <trkpt lat="46.64433" lon="4.66903">
        <ele>269</ele>
        <time>2017-02-19T12:17:17Z</time>
      </trkpt>
      <trkpt lat="46.64431" lon="4.66909">
        <ele>269</ele>
        <time>2017-02-19T12:17:18Z</time>
      </trkpt>
      <trkpt lat="46.64434" lon="4.66914">
        <ele>270</ele>
        <time>2017-02-19T12:17:21Z</time>
      </trkpt>
      <trkpt lat="46.64427" lon="4.66922">
        <ele>273</ele>
        <time>2017-02-19T12:17:22Z</time>
      </trkpt>
      <trkpt lat="46.64422" lon="4.66926">
        <ele>279</ele>
        <time>2017-02-19T12:17:23Z</time>
      </trkpt>
      <trkpt lat="46.64417" lon="4.66933">
        <ele>285</ele>
        <time>2017-02-19T12:17:24Z</time>
      </trkpt>
      <trkpt lat="46.64412" lon="4.66941">
        <ele>292</ele>
        <time>2017-02-19T12:17:25Z</time>
      </trkpt>
      <trkpt lat="46.64405" lon="4.66957">
        <ele>300</ele>
        <time>2017-02-19T12:17:26Z</time>
      </trkpt>
      <trkpt lat="46.64399" lon="4.66968">
        <ele>307</ele>
        <time>2017-02-19T12:17:27Z</time>
      </trkpt>
      <trkpt lat="46.64383" lon="4.66984">
        <ele>313</ele>
        <time>2017-02-19T12:17:29Z</time>
      </trkpt>
      <trkpt lat="46.64377" lon="4.66984">
        <ele>317</ele>
        <time>2017-02-19T12:17:30Z</time>
      </trkpt>
      <trkpt lat="46.64365" lon="4.67006">
        <ele>321</ele>
        <time>2017-02-19T12:17:31Z</time>
      </trkpt>
      <trkpt lat="46.64359" lon="4.67012">
        <ele>323</ele>
        <time>2017-02-19T12:17:32Z</time>
      </trkpt>
      <trkpt lat="46.64353" lon="4.6702">
        <ele>325</ele>
        <time>2017-02-19T12:17:33Z</time>
      </trkpt>
      <trkpt lat="46.64346" lon="4.6703">
        <ele>326</ele>
        <time>2017-02-19T12:17:34Z</time>
      </trkpt>
      <trkpt lat="46.6434" lon="4.67038">
        <ele>327</ele>
        <time>2017-02-19T12:17:35Z</time>
      </trkpt>
      <trkpt lat="46.64334" lon="4.67047">
        <ele>327</ele>
        <time>2017-02-19T12:17:36Z</time>
      </trkpt>
      <trkpt lat="46.64328" lon="4.67053">
        <ele>328</ele>
        <time>2017-02-19T12:17:37Z</time>
      </trkpt>
      <trkpt lat="46.64321" lon="4.67059">
        <ele>328</ele>
        <time>2017-02-19T12:17:38Z</time>
      </trkpt>
      <trkpt lat="46.64315" lon="4.67064">
        <ele>328</ele>
        <time>2017-02-19T12:17:39Z</time>
      </trkpt>
      <trkpt lat="46.64309" lon="4.67067">
        <ele>328</ele>
        <time>2017-02-19T12:17:40Z</time>
      </trkpt>
      <trkpt lat="46.64303" lon="4.67066">
        <ele>328</ele>
        <time>2017-02-19T12:17:42Z</time>
      </trkpt>
      <trkpt lat="46.64297" lon="4.6707">
        <ele>328</ele>
        <time>2017-02-19T12:17:45Z</time>
      </trkpt>
      <trkpt lat="46.6428" lon="4.67091">
        <ele>327</ele>
        <time>2017-02-19T12:17:48Z</time>
      </trkpt>
      <trkpt lat="46.64274" lon="4.67097">
        <ele>326</ele>
        <time>2017-02-19T12:17:50Z</time>
      </trkpt>
      <trkpt lat="46.64259" lon="4.67112">
        <ele>325</ele>
        <time>2017-02-19T12:17:52Z</time>
      </trkpt>
      <trkpt lat="46.64196" lon="4.67148">
        <ele>320</ele>
        <time>2017-02-19T12:18:01Z</time>
      </trkpt>
      <trkpt lat="46.64158" lon="4.67177">
        <ele>315</ele>
        <time>2017-02-19T12:18:09Z</time>
      </trkpt>
      <trkpt lat="46.64083" lon="4.67213">
        <ele>310</ele>
        <time>2017-02-19T12:18:19Z</time>
      </trkpt>
      <trkpt lat="46.6404" lon="4.67228">
        <ele>292</ele>
        <time>2017-02-19T12:18:26Z</time>
      </trkpt>
      <trkpt lat="46.64023" lon="4.67255">
        <ele>263</ele>
        <time>2017-02-19T12:18:37Z</time>
      </trkpt>
      <trkpt lat="46.64007" lon="4.67284">
        <ele>250</ele>
        <time>2017-02-19T12:18:45Z</time>
      </trkpt>
      <trkpt lat="46.63973" lon="4.67333">
        <ele>243</ele>
        <time>2017-02-19T12:18:52Z</time>
      </trkpt>
      <trkpt lat="46.63942" lon="4.67395">
        <ele>251</ele>
        <time>2017-02-19T12:18:59Z</time>
      </trkpt>
      <trkpt lat="46.63917" lon="4.67456">
        <ele>255</ele>
        <time>2017-02-19T12:19:06Z</time>
      </trkpt>
      <trkpt lat="46.639" lon="4.67511">
        <ele>257</ele>
        <time>2017-02-19T12:19:13Z</time>
      </trkpt>
      <trkpt lat="46.63885" lon="4.67573">
        <ele>259</ele>
        <time>2017-02-19T12:19:20Z</time>
      </trkpt>
      <trkpt lat="46.63878" lon="4.67613">
        <ele>260</ele>
        <time>2017-02-19T12:19:28Z</time>
      </trkpt>
      <trkpt lat="46.63876" lon="4.67622">
        <ele>260</ele>
        <time>2017-02-19T12:19:31Z</time>
      </trkpt>
      <trkpt lat="46.63876" lon="4.67632">
        <ele>260</ele>
        <time>2017-02-19T12:19:33Z</time>
      </trkpt>
      <trkpt lat="46.63873" lon="4.67642">
        <ele>260</ele>
        <time>2017-02-19T12:19:35Z</time>
      </trkpt>
      <trkpt lat="46.63874" lon="4.6765">
        <ele>259</ele>
        <time>2017-02-19T12:19:37Z</time>
      </trkpt>
      <trkpt lat="46.63874" lon="4.6766">
        <ele>258</ele>
        <time>2017-02-19T12:19:39Z</time>
      </trkpt>
      <trkpt lat="46.63876" lon="4.67667">
        <ele>256</ele>
        <time>2017-02-19T12:19:41Z</time>
      </trkpt>
      <trkpt lat="46.63876" lon="4.67676">
        <ele>253</ele>
        <time>2017-02-19T12:19:43Z</time>
      </trkpt>
      <trkpt lat="46.63877" lon="4.67684">
        <ele>250</ele>
        <time>2017-02-19T12:19:45Z</time>
      </trkpt>
      <trkpt lat="46.63876" lon="4.67696">
        <ele>247</ele>
        <time>2017-02-19T12:19:47Z</time>
      </trkpt>
      <trkpt lat="46.63876" lon="4.67706">
        <ele>243</ele>
        <time>2017-02-19T12:19:49Z</time>
      </trkpt>
      <trkpt lat="46.63875" lon="4.67713">
        <ele>240</ele>
        <time>2017-02-19T12:19:52Z</time>
      </trkpt>
      <trkpt lat="46.63872" lon="4.67721">
        <ele>235</ele>
        <time>2017-02-19T12:19:56Z</time>
      </trkpt>
      <trkpt lat="46.63871" lon="4.67741">
        <ele>232</ele>
        <time>2017-02-19T12:19:57Z</time>
      </trkpt>
      <trkpt lat="46.63866" lon="4.6776">
        <ele>228</ele>
        <time>2017-02-19T12:19:59Z</time>
      </trkpt>
      <trkpt lat="46.63869" lon="4.67811">
        <ele>225</ele>
        <time>2017-02-19T12:20:04Z</time>
      </trkpt>
      <trkpt lat="46.6387" lon="4.6782">
        <ele>221</ele>
        <time>2017-02-19T12:20:07Z</time>
      </trkpt>
      <trkpt lat="46.63865" lon="4.67842">
        <ele>219</ele>
        <time>2017-02-19T12:20:09Z</time>
      </trkpt>
      <trkpt lat="46.63847" lon="4.67874">
        <ele>217</ele>
        <time>2017-02-19T12:20:12Z</time>
      </trkpt>
      <trkpt lat="46.63835" lon="4.67899">
        <ele>215</ele>
        <time>2017-02-19T12:20:15Z</time>
      </trkpt>
      <trkpt lat="46.63809" lon="4.67943">
        <ele>215</ele>
        <time>2017-02-19T12:20:19Z</time>
      </trkpt>
      <trkpt lat="46.63803" lon="4.67959">
        <ele>217</ele>
        <time>2017-02-19T12:20:24Z</time>
      </trkpt>
      <trkpt lat="46.63772" lon="4.68015">
        <ele>222</ele>
        <time>2017-02-19T12:20:28Z</time>
      </trkpt>
      <trkpt lat="46.63762" lon="4.68032">
        <ele>226</ele>
        <time>2017-02-19T12:20:29Z</time>
      </trkpt>
      <trkpt lat="46.63752" lon="4.68047">
        <ele>232</ele>
        <time>2017-02-19T12:20:32Z</time>
      </trkpt>
      <trkpt lat="46.63737" lon="4.68078">
        <ele>236</ele>
        <time>2017-02-19T12:20:35Z</time>
      </trkpt>
      <trkpt lat="46.63732" lon="4.68091">
        <ele>239</ele>
        <time>2017-02-19T12:20:38Z</time>
      </trkpt>
      <trkpt lat="46.63713" lon="4.68121">
        <ele>241</ele>
        <time>2017-02-19T12:20:42Z</time>
      </trkpt>
      <trkpt lat="46.63707" lon="4.68132">
        <ele>242</ele>
        <time>2017-02-19T12:20:43Z</time>
      </trkpt>
      <trkpt lat="46.63699" lon="4.68146">
        <ele>244</ele>
        <time>2017-02-19T12:20:44Z</time>
      </trkpt>
      <trkpt lat="46.63694" lon="4.68147">
        <ele>245</ele>
        <time>2017-02-19T12:20:46Z</time>
      </trkpt>
      <trkpt lat="46.63684" lon="4.68172">
        <ele>247</ele>
        <time>2017-02-19T12:20:47Z</time>
      </trkpt>
      <trkpt lat="46.63676" lon="4.68174">
        <ele>248</ele>
        <time>2017-02-19T12:20:49Z</time>
      </trkpt>
      <trkpt lat="46.63668" lon="4.68174">
        <ele>249</ele>
        <time>2017-02-19T12:20:51Z</time>
      </trkpt>
      <trkpt lat="46.6366" lon="4.68191">
        <ele>250</ele>
        <time>2017-02-19T12:20:53Z</time>
      </trkpt>
      <trkpt lat="46.6365" lon="4.68215">
        <ele>251</ele>
        <time>2017-02-19T12:20:55Z</time>
      </trkpt>
      <trkpt lat="46.63638" lon="4.68245">
        <ele>251</ele>
        <time>2017-02-19T12:20:57Z</time>
      </trkpt>
      <trkpt lat="46.63633" lon="4.68252">
        <ele>252</ele>
        <time>2017-02-19T12:20:59Z</time>
      </trkpt>
      <trkpt lat="46.63628" lon="4.68254">
        <ele>251</ele>
        <time>2017-02-19T12:21:00Z</time>
      </trkpt>
      <trkpt lat="46.63621" lon="4.68261">
        <ele>250</ele>
        <time>2017-02-19T12:21:02Z</time>
      </trkpt>
      <trkpt lat="46.6362" lon="4.68274">
        <ele>251</ele>
        <time>2017-02-19T12:21:05Z</time>
      </trkpt>
      <trkpt lat="46.63614" lon="4.68281">
        <ele>251</ele>
        <time>2017-02-19T12:21:07Z</time>
      </trkpt>
      <trkpt lat="46.63611" lon="4.68284">
        <ele>252</ele>
        <time>2017-02-19T12:21:08Z</time>
      </trkpt>
      <trkpt lat="46.63606" lon="4.68288">
        <ele>253</ele>
        <time>2017-02-19T12:21:09Z</time>
      </trkpt>
      <trkpt lat="46.63602" lon="4.68293">
        <ele>255</ele>
        <time>2017-02-19T12:21:10Z</time>
      </trkpt>
      <trkpt lat="46.63598" lon="4.68298">
        <ele>254</ele>
        <time>2017-02-19T12:21:11Z</time>
      </trkpt>
      <trkpt lat="46.63583" lon="4.68329">
        <ele>255</ele>
        <time>2017-02-19T12:21:13Z</time>
      </trkpt>
      <trkpt lat="46.63578" lon="4.68335">
        <ele>255</ele>
        <time>2017-02-19T12:21:14Z</time>
      </trkpt>
      <trkpt lat="46.63573" lon="4.68339">
        <ele>255</ele>
        <time>2017-02-19T12:21:15Z</time>
      </trkpt>
      <trkpt lat="46.63567" lon="4.68343">
        <ele>256</ele>
        <time>2017-02-19T12:21:16Z</time>
      </trkpt>
      <trkpt lat="46.63561" lon="4.68349">
        <ele>256</ele>
        <time>2017-02-19T12:21:17Z</time>
      </trkpt>
      <trkpt lat="46.63554" lon="4.68353">
        <ele>256</ele>
        <time>2017-02-19T12:21:18Z</time>
      </trkpt>
      <trkpt lat="46.63548" lon="4.68357">
        <ele>256</ele>
        <time>2017-02-19T12:21:19Z</time>
      </trkpt>
      <trkpt lat="46.63542" lon="4.68363">
        <ele>256</ele>
        <time>2017-02-19T12:21:20Z</time>
      </trkpt>
      <trkpt lat="46.63536" lon="4.68367">
        <ele>256</ele>
        <time>2017-02-19T12:21:21Z</time>
      </trkpt>
      <trkpt lat="46.6353" lon="4.68369">
        <ele>255</ele>
        <time>2017-02-19T12:21:22Z</time>
      </trkpt>
      <trkpt lat="46.63524" lon="4.68373">
        <ele>255</ele>
        <time>2017-02-19T12:21:23Z</time>
      </trkpt>
      <trkpt lat="46.63518" lon="4.68377">
        <ele>254</ele>
        <time>2017-02-19T12:21:24Z</time>
      </trkpt>
      <trkpt lat="46.63511" lon="4.68382">
        <ele>253</ele>
        <time>2017-02-19T12:21:25Z</time>
      </trkpt>
      <trkpt lat="46.63504" lon="4.68386">
        <ele>252</ele>
        <time>2017-02-19T12:21:26Z</time>
      </trkpt>
      <trkpt lat="46.63498" lon="4.6839">
        <ele>252</ele>
        <time>2017-02-19T12:21:27Z</time>
      </trkpt>
      <trkpt lat="46.63491" lon="4.68395">
        <ele>251</ele>
        <time>2017-02-19T12:21:28Z</time>
      </trkpt>
      <trkpt lat="46.63484" lon="4.684">
        <ele>251</ele>
        <time>2017-02-19T12:21:29Z</time>
      </trkpt>
      <trkpt lat="46.63477" lon="4.68405">
        <ele>250</ele>
        <time>2017-02-19T12:21:30Z</time>
      </trkpt>
      <trkpt lat="46.6347" lon="4.68409">
        <ele>251</ele>
        <time>2017-02-19T12:21:31Z</time>
      </trkpt>
      <trkpt lat="46.63464" lon="4.68412">
        <ele>251</ele>
        <time>2017-02-19T12:21:32Z</time>
      </trkpt>
      <trkpt lat="46.63458" lon="4.68415">
        <ele>251</ele>
        <time>2017-02-19T12:21:33Z</time>
      </trkpt>
      <trkpt lat="46.63451" lon="4.68418">
        <ele>251</ele>
        <time>2017-02-19T12:21:34Z</time>
      </trkpt>
      <trkpt lat="46.63445" lon="4.6842">
        <ele>251</ele>
        <time>2017-02-19T12:21:35Z</time>
      </trkpt>
      <trkpt lat="46.63438" lon="4.68423">
        <ele>251</ele>
        <time>2017-02-19T12:21:36Z</time>
      </trkpt>
      <trkpt lat="46.63432" lon="4.68425">
        <ele>251</ele>
        <time>2017-02-19T12:21:37Z</time>
      </trkpt>
      <trkpt lat="46.63426" lon="4.68428">
        <ele>250</ele>
        <time>2017-02-19T12:21:38Z</time>
      </trkpt>
      <trkpt lat="46.6342" lon="4.68431">
        <ele>250</ele>
        <time>2017-02-19T12:21:39Z</time>
      </trkpt>
      <trkpt lat="46.63414" lon="4.68433">
        <ele>250</ele>
        <time>2017-02-19T12:21:40Z</time>
      </trkpt>
      <trkpt lat="46.63407" lon="4.68436">
        <ele>250</ele>
        <time>2017-02-19T12:21:41Z</time>
      </trkpt>
      <trkpt lat="46.634" lon="4.68438">
        <ele>250</ele>
        <time>2017-02-19T12:21:42Z</time>
      </trkpt>
      <trkpt lat="46.63394" lon="4.6844">
        <ele>250</ele>
        <time>2017-02-19T12:21:43Z</time>
      </trkpt>
      <trkpt lat="46.63387" lon="4.68442">
        <ele>250</ele>
        <time>2017-02-19T12:21:44Z</time>
      </trkpt>
      <trkpt lat="46.6338" lon="4.68443">
        <ele>250</ele>
        <time>2017-02-19T12:21:45Z</time>
      </trkpt>
      <trkpt lat="46.63373" lon="4.68444">
        <ele>250</ele>
        <time>2017-02-19T12:21:46Z</time>
      </trkpt>
      <trkpt lat="46.63366" lon="4.68446">
        <ele>250</ele>
        <time>2017-02-19T12:21:47Z</time>
      </trkpt>
      <trkpt lat="46.63358" lon="4.68447">
        <ele>250</ele>
        <time>2017-02-19T12:21:48Z</time>
      </trkpt>
      <trkpt lat="46.63351" lon="4.68447">
        <ele>250</ele>
        <time>2017-02-19T12:21:49Z</time>
      </trkpt>
      <trkpt lat="46.63343" lon="4.68448">
        <ele>250</ele>
        <time>2017-02-19T12:21:50Z</time>
      </trkpt>
      <trkpt lat="46.63335" lon="4.68449">
        <ele>250</ele>
        <time>2017-02-19T12:21:51Z</time>
      </trkpt>
      <trkpt lat="46.63328" lon="4.6845">
        <ele>251</ele>
        <time>2017-02-19T12:21:52Z</time>
      </trkpt>
      <trkpt lat="46.63321" lon="4.68451">
        <ele>251</ele>
        <time>2017-02-19T12:21:53Z</time>
      </trkpt>
      <trkpt lat="46.63313" lon="4.68452">
        <ele>250</ele>
        <time>2017-02-19T12:21:54Z</time>
      </trkpt>
      <trkpt lat="46.63306" lon="4.68453">
        <ele>250</ele>
        <time>2017-02-19T12:21:55Z</time>
      </trkpt>
      <trkpt lat="46.633" lon="4.68454">
        <ele>250</ele>
        <time>2017-02-19T12:21:56Z</time>
      </trkpt>
      <trkpt lat="46.63293" lon="4.68455">
        <ele>250</ele>
        <time>2017-02-19T12:21:57Z</time>
      </trkpt>
      <trkpt lat="46.63286" lon="4.68456">
        <ele>250</ele>
        <time>2017-02-19T12:21:58Z</time>
      </trkpt>
      <trkpt lat="46.6328" lon="4.68456">
        <ele>250</ele>
        <time>2017-02-19T12:21:59Z</time>
      </trkpt>
      <trkpt lat="46.63273" lon="4.68457">
        <ele>250</ele>
        <time>2017-02-19T12:22:00Z</time>
      </trkpt>
      <trkpt lat="46.63266" lon="4.68458">
        <ele>250</ele>
        <time>2017-02-19T12:22:01Z</time>
      </trkpt>
      <trkpt lat="46.63259" lon="4.68458">
        <ele>250</ele>
        <time>2017-02-19T12:22:02Z</time>
      </trkpt>
      <trkpt lat="46.63252" lon="4.68459">
        <ele>250</ele>
        <time>2017-02-19T12:22:03Z</time>
      </trkpt>
      <trkpt lat="46.63244" lon="4.6846">
        <ele>250</ele>
        <time>2017-02-19T12:22:04Z</time>
      </trkpt>
      <trkpt lat="46.63237" lon="4.68461">
        <ele>250</ele>
        <time>2017-02-19T12:22:05Z</time>
      </trkpt>
      <trkpt lat="46.63229" lon="4.68462">
        <ele>249</ele>
        <time>2017-02-19T12:22:06Z</time>
      </trkpt>
      <trkpt lat="46.63221" lon="4.68463">
        <ele>249</ele>
        <time>2017-02-19T12:22:07Z</time>
      </trkpt>
      <trkpt lat="46.63214" lon="4.68464">
        <ele>249</ele>
        <time>2017-02-19T12:22:08Z</time>
      </trkpt>
      <trkpt lat="46.63206" lon="4.68464">
        <ele>249</ele>
        <time>2017-02-19T12:22:09Z</time>
      </trkpt>
      <trkpt lat="46.63199" lon="4.68465">
        <ele>249</ele>
        <time>2017-02-19T12:22:10Z</time>
      </trkpt>
      <trkpt lat="46.63192" lon="4.68466">
        <ele>249</ele>
        <time>2017-02-19T12:22:11Z</time>
      </trkpt>
      <trkpt lat="46.63185" lon="4.68466">
        <ele>249</ele>
        <time>2017-02-19T12:22:12Z</time>
      </trkpt>
      <trkpt lat="46.63179" lon="4.68467">
        <ele>248</ele>
        <time>2017-02-19T12:22:13Z</time>
      </trkpt>
      <trkpt lat="46.63173" lon="4.68468">
        <ele>248</ele>
        <time>2017-02-19T12:22:14Z</time>
      </trkpt>
      <trkpt lat="46.63166" lon="4.68469">
        <ele>248</ele>
        <time>2017-02-19T12:22:15Z</time>
      </trkpt>
      <trkpt lat="46.6316" lon="4.6847">
        <ele>248</ele>
        <time>2017-02-19T12:22:16Z</time>
      </trkpt>
      <trkpt lat="46.63155" lon="4.68471">
        <ele>247</ele>
        <time>2017-02-19T12:22:17Z</time>
      </trkpt>
      <trkpt lat="46.63149" lon="4.68471">
        <ele>247</ele>
        <time>2017-02-19T12:22:18Z</time>
      </trkpt>
      <trkpt lat="46.63143" lon="4.68472">
        <ele>246</ele>
        <time>2017-02-19T12:22:19Z</time>
      </trkpt>
      <trkpt lat="46.63137" lon="4.68472">
        <ele>245</ele>
        <time>2017-02-19T12:22:20Z</time>
      </trkpt>
      <trkpt lat="46.63131" lon="4.68472">
        <ele>245</ele>
        <time>2017-02-19T12:22:21Z</time>
      </trkpt>
      <trkpt lat="46.63125" lon="4.68473">
        <ele>244</ele>
        <time>2017-02-19T12:22:22Z</time>
      </trkpt>
      <trkpt lat="46.63118" lon="4.68475">
        <ele>244</ele>
        <time>2017-02-19T12:22:23Z</time>
      </trkpt>
      <trkpt lat="46.63112" lon="4.68476">
        <ele>244</ele>
        <time>2017-02-19T12:22:24Z</time>
      </trkpt>
      <trkpt lat="46.63106" lon="4.68477">
        <ele>244</ele>
        <time>2017-02-19T12:22:25Z</time>
      </trkpt>
      <trkpt lat="46.631" lon="4.68477">
        <ele>244</ele>
        <time>2017-02-19T12:22:26Z</time>
      </trkpt>
      <trkpt lat="46.63094" lon="4.68478">
        <ele>244</ele>
        <time>2017-02-19T12:22:27Z</time>
      </trkpt>
      <trkpt lat="46.63089" lon="4.68478">
        <ele>244</ele>
        <time>2017-02-19T12:22:28Z</time>
      </trkpt>
      <trkpt lat="46.63082" lon="4.68478">
        <ele>244</ele>
        <time>2017-02-19T12:22:29Z</time>
      </trkpt>
      <trkpt lat="46.63076" lon="4.68478">
        <ele>243</ele>
        <time>2017-02-19T12:22:30Z</time>
      </trkpt>
      <trkpt lat="46.6307" lon="4.68478">
        <ele>243</ele>
        <time>2017-02-19T12:22:31Z</time>
      </trkpt>
      <trkpt lat="46.63065" lon="4.68477">
        <ele>242</ele>
        <time>2017-02-19T12:22:32Z</time>
      </trkpt>
      <trkpt lat="46.63059" lon="4.68477">
        <ele>242</ele>
        <time>2017-02-19T12:22:33Z</time>
      </trkpt>
      <trkpt lat="46.63053" lon="4.68477">
        <ele>241</ele>
        <time>2017-02-19T12:22:34Z</time>
      </trkpt>
      <trkpt lat="46.63047" lon="4.68477">
        <ele>241</ele>
        <time>2017-02-19T12:22:35Z</time>
      </trkpt>
      <trkpt lat="46.63041" lon="4.68476">
        <ele>241</ele>
        <time>2017-02-19T12:22:36Z</time>
      </trkpt>
      <trkpt lat="46.63036" lon="4.68476">
        <ele>240</ele>
        <time>2017-02-19T12:22:37Z</time>
      </trkpt>
      <trkpt lat="46.6303" lon="4.68475">
        <ele>240</ele>
        <time>2017-02-19T12:22:38Z</time>
      </trkpt>
      <trkpt lat="46.63024" lon="4.68475">
        <ele>239</ele>
        <time>2017-02-19T12:22:39Z</time>
      </trkpt>
      <trkpt lat="46.63018" lon="4.68474">
        <ele>239</ele>
        <time>2017-02-19T12:22:40Z</time>
      </trkpt>
      <trkpt lat="46.63013" lon="4.68473">
        <ele>239</ele>
        <time>2017-02-19T12:22:41Z</time>
      </trkpt>
      <trkpt lat="46.63007" lon="4.68472">
        <ele>238</ele>
        <time>2017-02-19T12:22:42Z</time>
      </trkpt>
      <trkpt lat="46.63002" lon="4.68471">
        <ele>238</ele>
        <time>2017-02-19T12:22:43Z</time>
      </trkpt>
      <trkpt lat="46.62996" lon="4.68469">
        <ele>238</ele>
        <time>2017-02-19T12:22:44Z</time>
      </trkpt>
      <trkpt lat="46.62991" lon="4.68468">
        <ele>238</ele>
        <time>2017-02-19T12:22:45Z</time>
      </trkpt>
      <trkpt lat="46.62985" lon="4.68466">
        <ele>237</ele>
        <time>2017-02-19T12:22:46Z</time>
      </trkpt>
      <trkpt lat="46.6298" lon="4.68464">
        <ele>237</ele>
        <time>2017-02-19T12:22:47Z</time>
      </trkpt>
      <trkpt lat="46.62974" lon="4.68462">
        <ele>237</ele>
        <time>2017-02-19T12:22:48Z</time>
      </trkpt>
      <trkpt lat="46.62969" lon="4.6846">
        <ele>237</ele>
        <time>2017-02-19T12:22:49Z</time>
      </trkpt>
      <trkpt lat="46.62964" lon="4.68458">
        <ele>237</ele>
        <time>2017-02-19T12:22:50Z</time>
      </trkpt>
      <trkpt lat="46.62959" lon="4.68456">
        <ele>237</ele>
        <time>2017-02-19T12:22:51Z</time>
      </trkpt>
      <trkpt lat="46.62954" lon="4.68454">
        <ele>236</ele>
        <time>2017-02-19T12:22:52Z</time>
      </trkpt>
      <trkpt lat="46.62946" lon="4.68452">
        <ele>236</ele>
        <time>2017-02-19T12:22:54Z</time>
      </trkpt>
      <trkpt lat="46.62941" lon="4.68449">
        <ele>235</ele>
        <time>2017-02-19T12:22:56Z</time>
      </trkpt>
      <trkpt lat="46.62939" lon="4.68455">
        <ele>234</ele>
        <time>2017-02-19T12:22:59Z</time>
      </trkpt>
      <trkpt lat="46.62945" lon="4.6846">
        <ele>234</ele>
        <time>2017-02-19T12:23:02Z</time>
      </trkpt>
      <trkpt lat="46.62952" lon="4.68463">
        <ele>233</ele>
        <time>2017-02-19T12:23:04Z</time>
      </trkpt>
      <trkpt lat="46.62957" lon="4.68467">
        <ele>233</ele>
        <time>2017-02-19T12:23:06Z</time>
      </trkpt>
      <trkpt lat="46.62962" lon="4.6847">
        <ele>233</ele>
        <time>2017-02-19T12:23:09Z</time>
      </trkpt>
      <trkpt lat="46.62967" lon="4.68474">
        <ele>232</ele>
        <time>2017-02-19T12:23:12Z</time>
      </trkpt>
      <trkpt lat="46.6297" lon="4.68479">
        <ele>232</ele>
        <time>2017-02-19T12:23:14Z</time>
      </trkpt>
      <trkpt lat="46.62976" lon="4.68484">
        <ele>232</ele>
        <time>2017-02-19T12:23:17Z</time>
      </trkpt>
      <trkpt lat="46.62983" lon="4.68491">
        <ele>231</ele>
        <time>2017-02-19T12:23:19Z</time>
      </trkpt>
      <trkpt lat="46.62991" lon="4.68497">
        <ele>231</ele>
        <time>2017-02-19T12:23:21Z</time>
      </trkpt>
      <trkpt lat="46.62997" lon="4.68503">
        <ele>231</ele>
        <time>2017-02-19T12:23:23Z</time>
      </trkpt>
      <trkpt lat="46.63005" lon="4.68508">
        <ele>231</ele>
        <time>2017-02-19T12:23:25Z</time>
      </trkpt>
      <trkpt lat="46.6301" lon="4.6851">
        <ele>231</ele>
        <time>2017-02-19T12:23:26Z</time>
      </trkpt>
      <trkpt lat="46.63015" lon="4.68511">
        <ele>231</ele>
        <time>2017-02-19T12:23:27Z</time>
      </trkpt>
      <trkpt lat="46.6302" lon="4.68513">
        <ele>231</ele>
        <time>2017-02-19T12:23:28Z</time>
      </trkpt>
      <trkpt lat="46.63025" lon="4.68516">
        <ele>231</ele>
        <time>2017-02-19T12:23:29Z</time>
      </trkpt>
      <trkpt lat="46.6303" lon="4.68517">
        <ele>230</ele>
        <time>2017-02-19T12:23:30Z</time>
      </trkpt>
      <trkpt lat="46.63035" lon="4.68519">
        <ele>230</ele>
        <time>2017-02-19T12:23:31Z</time>
      </trkpt>
      <trkpt lat="46.63041" lon="4.6852">
        <ele>230</ele>
        <time>2017-02-19T12:23:32Z</time>
      </trkpt>
      <trkpt lat="46.63045" lon="4.68522">
        <ele>230</ele>
        <time>2017-02-19T12:23:33Z</time>
      </trkpt>
      <trkpt lat="46.6305" lon="4.68523">
        <ele>230</ele>
        <time>2017-02-19T12:23:34Z</time>
      </trkpt>
      <trkpt lat="46.63055" lon="4.68525">
        <ele>230</ele>
        <time>2017-02-19T12:23:35Z</time>
      </trkpt>
      <trkpt lat="46.63061" lon="4.68528">
        <ele>230</ele>
        <time>2017-02-19T12:23:36Z</time>
      </trkpt>
      <trkpt lat="46.63066" lon="4.68531">
        <ele>230</ele>
        <time>2017-02-19T12:23:37Z</time>
      </trkpt>
      <trkpt lat="46.63071" lon="4.68533">
        <ele>230</ele>
        <time>2017-02-19T12:23:38Z</time>
      </trkpt>
      <trkpt lat="46.63076" lon="4.68536">
        <ele>230</ele>
        <time>2017-02-19T12:23:39Z</time>
      </trkpt>
      <trkpt lat="46.63082" lon="4.68538">
        <ele>230</ele>
        <time>2017-02-19T12:23:40Z</time>
      </trkpt>
      <trkpt lat="46.63088" lon="4.6854">
        <ele>230</ele>
        <time>2017-02-19T12:23:41Z</time>
      </trkpt>
      <trkpt lat="46.63093" lon="4.68542">
        <ele>229</ele>
        <time>2017-02-19T12:23:42Z</time>
      </trkpt>
      <trkpt lat="46.63098" lon="4.68544">
        <ele>229</ele>
        <time>2017-02-19T12:23:43Z</time>
      </trkpt>
      <trkpt lat="46.63103" lon="4.68547">
        <ele>229</ele>
        <time>2017-02-19T12:23:44Z</time>
      </trkpt>
      <trkpt lat="46.63108" lon="4.6855">
        <ele>229</ele>
        <time>2017-02-19T12:23:45Z</time>
      </trkpt>
      <trkpt lat="46.63113" lon="4.68553">
        <ele>228</ele>
        <time>2017-02-19T12:23:46Z</time>
      </trkpt>
      <trkpt lat="46.63119" lon="4.68555">
        <ele>228</ele>
        <time>2017-02-19T12:23:47Z</time>
      </trkpt>
      <trkpt lat="46.63125" lon="4.68557">
        <ele>228</ele>
        <time>2017-02-19T12:23:48Z</time>
      </trkpt>
      <trkpt lat="46.63129" lon="4.68559">
        <ele>227</ele>
        <time>2017-02-19T12:23:49Z</time>
      </trkpt>
      <trkpt lat="46.63134" lon="4.68561">
        <ele>227</ele>
        <time>2017-02-19T12:23:50Z</time>
      </trkpt>
      <trkpt lat="46.6314" lon="4.68564">
        <ele>227</ele>
        <time>2017-02-19T12:23:51Z</time>
      </trkpt>
      <trkpt lat="46.63145" lon="4.68568">
        <ele>227</ele>
        <time>2017-02-19T12:23:52Z</time>
      </trkpt>
      <trkpt lat="46.63151" lon="4.68571">
        <ele>226</ele>
        <time>2017-02-19T12:23:53Z</time>
      </trkpt>
      <trkpt lat="46.63157" lon="4.68574">
        <ele>226</ele>
        <time>2017-02-19T12:23:54Z</time>
      </trkpt>
      <trkpt lat="46.63164" lon="4.68577">
        <ele>226</ele>
        <time>2017-02-19T12:23:55Z</time>
      </trkpt>
      <trkpt lat="46.6317" lon="4.6858">
        <ele>225</ele>
        <time>2017-02-19T12:23:56Z</time>
      </trkpt>
      <trkpt lat="46.63177" lon="4.68582">
        <ele>225</ele>
        <time>2017-02-19T12:23:57Z</time>
      </trkpt>
      <trkpt lat="46.63182" lon="4.68585">
        <ele>225</ele>
        <time>2017-02-19T12:23:58Z</time>
      </trkpt>
      <trkpt lat="46.63188" lon="4.68588">
        <ele>224</ele>
        <time>2017-02-19T12:23:59Z</time>
      </trkpt>
      <trkpt lat="46.63195" lon="4.6859">
        <ele>224</ele>
        <time>2017-02-19T12:24:00Z</time>
      </trkpt>
      <trkpt lat="46.63201" lon="4.68592">
        <ele>224</ele>
        <time>2017-02-19T12:24:01Z</time>
      </trkpt>
      <trkpt lat="46.63207" lon="4.68594">
        <ele>225</ele>
        <time>2017-02-19T12:24:02Z</time>
      </trkpt>
      <trkpt lat="46.63212" lon="4.68595">
        <ele>225</ele>
        <time>2017-02-19T12:24:03Z</time>
      </trkpt>
      <trkpt lat="46.63218" lon="4.686">
        <ele>226</ele>
        <time>2017-02-19T12:24:05Z</time>
      </trkpt>
      <trkpt lat="46.63223" lon="4.68605">
        <ele>226</ele>
        <time>2017-02-19T12:24:07Z</time>
      </trkpt>
      <trkpt lat="46.63229" lon="4.68609">
        <ele>227</ele>
        <time>2017-02-19T12:24:09Z</time>
      </trkpt>
      <trkpt lat="46.63239" lon="4.68611">
        <ele>227</ele>
        <time>2017-02-19T12:24:13Z</time>
      </trkpt>
      <trkpt lat="46.63244" lon="4.68617">
        <ele>227</ele>
        <time>2017-02-19T12:24:15Z</time>
      </trkpt>
      <trkpt lat="46.63249" lon="4.68619">
        <ele>226</ele>
        <time>2017-02-19T12:24:16Z</time>
      </trkpt>
      <trkpt lat="46.63257" lon="4.68623">
        <ele>226</ele>
        <time>2017-02-19T12:24:18Z</time>
      </trkpt>
      <trkpt lat="46.63262" lon="4.68625">
        <ele>225</ele>
        <time>2017-02-19T12:24:19Z</time>
      </trkpt>
      <trkpt lat="46.63267" lon="4.68629">
        <ele>224</ele>
        <time>2017-02-19T12:24:20Z</time>
      </trkpt>
      <trkpt lat="46.63273" lon="4.68632">
        <ele>223</ele>
        <time>2017-02-19T12:24:21Z</time>
      </trkpt>
      <trkpt lat="46.63278" lon="4.68635">
        <ele>223</ele>
        <time>2017-02-19T12:24:22Z</time>
      </trkpt>
      <trkpt lat="46.63284" lon="4.68637">
        <ele>223</ele>
        <time>2017-02-19T12:24:23Z</time>
      </trkpt>
      <trkpt lat="46.63289" lon="4.68639">
        <ele>222</ele>
        <time>2017-02-19T12:24:24Z</time>
      </trkpt>
      <trkpt lat="46.63296" lon="4.68641">
        <ele>222</ele>
        <time>2017-02-19T12:24:25Z</time>
      </trkpt>
      <trkpt lat="46.63301" lon="4.68644">
        <ele>222</ele>
        <time>2017-02-19T12:24:26Z</time>
      </trkpt>
      <trkpt lat="46.63306" lon="4.68646">
        <ele>222</ele>
        <time>2017-02-19T12:24:27Z</time>
      </trkpt>
      <trkpt lat="46.63312" lon="4.68648">
        <ele>222</ele>
        <time>2017-02-19T12:24:28Z</time>
      </trkpt>
      <trkpt lat="46.63318" lon="4.68651">
        <ele>222</ele>
        <time>2017-02-19T12:24:29Z</time>
      </trkpt>
      <trkpt lat="46.63323" lon="4.68654">
        <ele>222</ele>
        <time>2017-02-19T12:24:30Z</time>
      </trkpt>
      <trkpt lat="46.63329" lon="4.68658">
        <ele>222</ele>
        <time>2017-02-19T12:24:31Z</time>
      </trkpt>
      <trkpt lat="46.63335" lon="4.68661">
        <ele>222</ele>
        <time>2017-02-19T12:24:32Z</time>
      </trkpt>
      <trkpt lat="46.63341" lon="4.68664">
        <ele>222</ele>
        <time>2017-02-19T12:24:33Z</time>
      </trkpt>
      <trkpt lat="46.63348" lon="4.68667">
        <ele>221</ele>
        <time>2017-02-19T12:24:34Z</time>
      </trkpt>
      <trkpt lat="46.63354" lon="4.6867">
        <ele>221</ele>
        <time>2017-02-19T12:24:35Z</time>
      </trkpt>
      <trkpt lat="46.63361" lon="4.68674">
        <ele>221</ele>
        <time>2017-02-19T12:24:36Z</time>
      </trkpt>
      <trkpt lat="46.63366" lon="4.68678">
        <ele>221</ele>
        <time>2017-02-19T12:24:37Z</time>
      </trkpt>
      <trkpt lat="46.63373" lon="4.68683">
        <ele>221</ele>
        <time>2017-02-19T12:24:38Z</time>
      </trkpt>
      <trkpt lat="46.6338" lon="4.68686">
        <ele>221</ele>
        <time>2017-02-19T12:24:39Z</time>
      </trkpt>
      <trkpt lat="46.63387" lon="4.68689">
        <ele>221</ele>
        <time>2017-02-19T12:24:40Z</time>
      </trkpt>
      <trkpt lat="46.63395" lon="4.68692">
        <ele>221</ele>
        <time>2017-02-19T12:24:41Z</time>
      </trkpt>
      <trkpt lat="46.63401" lon="4.68695">
        <ele>221</ele>
        <time>2017-02-19T12:24:42Z</time>
      </trkpt>
      <trkpt lat="46.63409" lon="4.68698">
        <ele>222</ele>
        <time>2017-02-19T12:24:43Z</time>
      </trkpt>
      <trkpt lat="46.63417" lon="4.68701">
        <ele>222</ele>
        <time>2017-02-19T12:24:44Z</time>
      </trkpt>
      <trkpt lat="46.63425" lon="4.68703">
        <ele>222</ele>
        <time>2017-02-19T12:24:45Z</time>
      </trkpt>
      <trkpt lat="46.63432" lon="4.68706">
        <ele>222</ele>
        <time>2017-02-19T12:24:46Z</time>
      </trkpt>
      <trkpt lat="46.63439" lon="4.68709">
        <ele>223</ele>
        <time>2017-02-19T12:24:47Z</time>
      </trkpt>
      <trkpt lat="46.63447" lon="4.68713">
        <ele>223</ele>
        <time>2017-02-19T12:24:48Z</time>
      </trkpt>
      <trkpt lat="46.63456" lon="4.68716">
        <ele>223</ele>
        <time>2017-02-19T12:24:49Z</time>
      </trkpt>
      <trkpt lat="46.63464" lon="4.68719">
        <ele>223</ele>
        <time>2017-02-19T12:24:50Z</time>
      </trkpt>
      <trkpt lat="46.63473" lon="4.68721">
        <ele>223</ele>
        <time>2017-02-19T12:24:51Z</time>
      </trkpt>
      <trkpt lat="46.63481" lon="4.68723">
        <ele>223</ele>
        <time>2017-02-19T12:24:52Z</time>
      </trkpt>
      <trkpt lat="46.63489" lon="4.68724">
        <ele>224</ele>
        <time>2017-02-19T12:24:53Z</time>
      </trkpt>
      <trkpt lat="46.63496" lon="4.68726">
        <ele>224</ele>
        <time>2017-02-19T12:24:54Z</time>
      </trkpt>
      <trkpt lat="46.63504" lon="4.68727">
        <ele>224</ele>
        <time>2017-02-19T12:24:55Z</time>
      </trkpt>
      <trkpt lat="46.6351" lon="4.68729">
        <ele>225</ele>
        <time>2017-02-19T12:24:56Z</time>
      </trkpt>
      <trkpt lat="46.63516" lon="4.68731">
        <ele>225</ele>
        <time>2017-02-19T12:24:57Z</time>
      </trkpt>
      <trkpt lat="46.63521" lon="4.68733">
        <ele>225</ele>
        <time>2017-02-19T12:24:58Z</time>
      </trkpt>
      <trkpt lat="46.63529" lon="4.68734">
        <ele>225</ele>
        <time>2017-02-19T12:24:59Z</time>
      </trkpt>
      <trkpt lat="46.63538" lon="4.68734">
        <ele>226</ele>
        <time>2017-02-19T12:25:00Z</time>
      </trkpt>
      <trkpt lat="46.63545" lon="4.68735">
        <ele>226</ele>
        <time>2017-02-19T12:25:01Z</time>
      </trkpt>
      <trkpt lat="46.63552" lon="4.68736">
        <ele>226</ele>
        <time>2017-02-19T12:25:02Z</time>
      </trkpt>
      <trkpt lat="46.63558" lon="4.68738">
        <ele>226</ele>
        <time>2017-02-19T12:25:03Z</time>
      </trkpt>
      <trkpt lat="46.63564" lon="4.68739">
        <ele>226</ele>
        <time>2017-02-19T12:25:04Z</time>
      </trkpt>
      <trkpt lat="46.63569" lon="4.6874">
        <ele>226</ele>
        <time>2017-02-19T12:25:05Z</time>
      </trkpt>
      <trkpt lat="46.63575" lon="4.68742">
        <ele>226</ele>
        <time>2017-02-19T12:25:06Z</time>
      </trkpt>
      <trkpt lat="46.63581" lon="4.68744">
        <ele>226</ele>
        <time>2017-02-19T12:25:07Z</time>
      </trkpt>
      <trkpt lat="46.63588" lon="4.68746">
        <ele>226</ele>
        <time>2017-02-19T12:25:08Z</time>
      </trkpt>
      <trkpt lat="46.63595" lon="4.68747">
        <ele>225</ele>
        <time>2017-02-19T12:25:09Z</time>
      </trkpt>
      <trkpt lat="46.63601" lon="4.68747">
        <ele>225</ele>
        <time>2017-02-19T12:25:10Z</time>
      </trkpt>
      <trkpt lat="46.63606" lon="4.68748">
        <ele>224</ele>
        <time>2017-02-19T12:25:11Z</time>
      </trkpt>
      <trkpt lat="46.63611" lon="4.6875">
        <ele>223</ele>
        <time>2017-02-19T12:25:12Z</time>
      </trkpt>
      <trkpt lat="46.63616" lon="4.68753">
        <ele>223</ele>
        <time>2017-02-19T12:25:13Z</time>
      </trkpt>
      <trkpt lat="46.6362" lon="4.68756">
        <ele>224</ele>
        <time>2017-02-19T12:25:14Z</time>
      </trkpt>
      <trkpt lat="46.63628" lon="4.6876">
        <ele>224</ele>
        <time>2017-02-19T12:25:16Z</time>
      </trkpt>
      <trkpt lat="46.63635" lon="4.68758">
        <ele>225</ele>
        <time>2017-02-19T12:25:18Z</time>
      </trkpt>
      <trkpt lat="46.63639" lon="4.68756">
        <ele>225</ele>
        <time>2017-02-19T12:25:19Z</time>
      </trkpt>
      <trkpt lat="46.63644" lon="4.68756">
        <ele>226</ele>
        <time>2017-02-19T12:25:20Z</time>
      </trkpt>
      <trkpt lat="46.63649" lon="4.68756">
        <ele>227</ele>
        <time>2017-02-19T12:25:21Z</time>
      </trkpt>
      <trkpt lat="46.63654" lon="4.68755">
        <ele>228</ele>
        <time>2017-02-19T12:25:22Z</time>
      </trkpt>
      <trkpt lat="46.6366" lon="4.68753">
        <ele>228</ele>
        <time>2017-02-19T12:25:23Z</time>
      </trkpt>
      <trkpt lat="46.63666" lon="4.68752">
        <ele>228</ele>
        <time>2017-02-19T12:25:24Z</time>
      </trkpt>
      <trkpt lat="46.63673" lon="4.68752">
        <ele>228</ele>
        <time>2017-02-19T12:25:25Z</time>
      </trkpt>
      <trkpt lat="46.6368" lon="4.68752">
        <ele>228</ele>
        <time>2017-02-19T12:25:26Z</time>
      </trkpt>
      <trkpt lat="46.63687" lon="4.68752">
        <ele>227</ele>
        <time>2017-02-19T12:25:27Z</time>
      </trkpt>
      <trkpt lat="46.63694" lon="4.68752">
        <ele>226</ele>
        <time>2017-02-19T12:25:28Z</time>
      </trkpt>
      <trkpt lat="46.63702" lon="4.68753">
        <ele>226</ele>
        <time>2017-02-19T12:25:29Z</time>
      </trkpt>
      <trkpt lat="46.6371" lon="4.68753">
        <ele>225</ele>
        <time>2017-02-19T12:25:30Z</time>
      </trkpt>
      <trkpt lat="46.63718" lon="4.68754">
        <ele>225</ele>
        <time>2017-02-19T12:25:31Z</time>
      </trkpt>
      <trkpt lat="46.63726" lon="4.68755">
        <ele>225</ele>
        <time>2017-02-19T12:25:32Z</time>
      </trkpt>
      <trkpt lat="46.63733" lon="4.68756">
        <ele>225</ele>
        <time>2017-02-19T12:25:33Z</time>
      </trkpt>
      <trkpt lat="46.63742" lon="4.68756">
        <ele>225</ele>
        <time>2017-02-19T12:25:34Z</time>
      </trkpt>
      <trkpt lat="46.63749" lon="4.68755">
        <ele>225</ele>
        <time>2017-02-19T12:25:35Z</time>
      </trkpt>
      <trkpt lat="46.63757" lon="4.68755">
        <ele>224</ele>
        <time>2017-02-19T12:25:36Z</time>
      </trkpt>
      <trkpt lat="46.63765" lon="4.68755">
        <ele>224</ele>
        <time>2017-02-19T12:25:37Z</time>
      </trkpt>
      <trkpt lat="46.63773" lon="4.68755">
        <ele>223</ele>
        <time>2017-02-19T12:25:38Z</time>
      </trkpt>
      <trkpt lat="46.63781" lon="4.68756">
        <ele>223</ele>
        <time>2017-02-19T12:25:39Z</time>
      </trkpt>
      <trkpt lat="46.63789" lon="4.68756">
        <ele>223</ele>
        <time>2017-02-19T12:25:40Z</time>
      </trkpt>
      <trkpt lat="46.63797" lon="4.68757">
        <ele>223</ele>
        <time>2017-02-19T12:25:41Z</time>
      </trkpt>
      <trkpt lat="46.63804" lon="4.68759">
        <ele>223</ele>
        <time>2017-02-19T12:25:42Z</time>
      </trkpt>
      <trkpt lat="46.63812" lon="4.6876">
        <ele>224</ele>
        <time>2017-02-19T12:25:43Z</time>
      </trkpt>
      <trkpt lat="46.63819" lon="4.6876">
        <ele>224</ele>
        <time>2017-02-19T12:25:44Z</time>
      </trkpt>
      <trkpt lat="46.63827" lon="4.6876">
        <ele>225</ele>
        <time>2017-02-19T12:25:45Z</time>
      </trkpt>
      <trkpt lat="46.63835" lon="4.68762">
        <ele>225</ele>
        <time>2017-02-19T12:25:46Z</time>
      </trkpt>
      <trkpt lat="46.63845" lon="4.68762">
        <ele>226</ele>
        <time>2017-02-19T12:25:47Z</time>
      </trkpt>
      <trkpt lat="46.63855" lon="4.68764">
        <ele>227</ele>
        <time>2017-02-19T12:25:48Z</time>
      </trkpt>
      <trkpt lat="46.63864" lon="4.68766">
        <ele>228</ele>
        <time>2017-02-19T12:25:49Z</time>
      </trkpt>
      <trkpt lat="46.63872" lon="4.68766">
        <ele>229</ele>
        <time>2017-02-19T12:25:50Z</time>
      </trkpt>
      <trkpt lat="46.63879" lon="4.68766">
        <ele>230</ele>
        <time>2017-02-19T12:25:51Z</time>
      </trkpt>
      <trkpt lat="46.63886" lon="4.68767">
        <ele>230</ele>
        <time>2017-02-19T12:25:52Z</time>
      </trkpt>
      <trkpt lat="46.63893" lon="4.68769">
        <ele>231</ele>
        <time>2017-02-19T12:25:53Z</time>
      </trkpt>
      <trkpt lat="46.639" lon="4.68771">
        <ele>230</ele>
        <time>2017-02-19T12:25:54Z</time>
      </trkpt>
      <trkpt lat="46.63907" lon="4.68773">
        <ele>230</ele>
        <time>2017-02-19T12:25:55Z</time>
      </trkpt>
      <trkpt lat="46.63913" lon="4.68775">
        <ele>230</ele>
        <time>2017-02-19T12:25:56Z</time>
      </trkpt>
      <trkpt lat="46.6392" lon="4.68776">
        <ele>229</ele>
        <time>2017-02-19T12:25:57Z</time>
      </trkpt>
      <trkpt lat="46.63926" lon="4.68776">
        <ele>229</ele>
        <time>2017-02-19T12:25:58Z</time>
      </trkpt>
      <trkpt lat="46.63933" lon="4.68777">
        <ele>228</ele>
        <time>2017-02-19T12:25:59Z</time>
      </trkpt>
      <trkpt lat="46.63941" lon="4.68777">
        <ele>228</ele>
        <time>2017-02-19T12:26:00Z</time>
      </trkpt>
      <trkpt lat="46.63949" lon="4.68777">
        <ele>227</ele>
        <time>2017-02-19T12:26:01Z</time>
      </trkpt>
      <trkpt lat="46.63957" lon="4.68777">
        <ele>226</ele>
        <time>2017-02-19T12:26:02Z</time>
      </trkpt>
      <trkpt lat="46.63965" lon="4.68777">
        <ele>226</ele>
        <time>2017-02-19T12:26:03Z</time>
      </trkpt>
      <trkpt lat="46.63971" lon="4.68777">
        <ele>225</ele>
        <time>2017-02-19T12:26:04Z</time>
      </trkpt>
      <trkpt lat="46.63979" lon="4.68778">
        <ele>225</ele>
        <time>2017-02-19T12:26:05Z</time>
      </trkpt>
      <trkpt lat="46.63985" lon="4.68778">
        <ele>224</ele>
        <time>2017-02-19T12:26:06Z</time>
      </trkpt>
      <trkpt lat="46.63993" lon="4.68778">
        <ele>224</ele>
        <time>2017-02-19T12:26:07Z</time>
      </trkpt>
      <trkpt lat="46.64" lon="4.68778">
        <ele>224</ele>
        <time>2017-02-19T12:26:08Z</time>
      </trkpt>
      <trkpt lat="46.64006" lon="4.68778">
        <ele>224</ele>
        <time>2017-02-19T12:26:09Z</time>
      </trkpt>
      <trkpt lat="46.64012" lon="4.68779">
        <ele>224</ele>
        <time>2017-02-19T12:26:10Z</time>
      </trkpt>
      <trkpt lat="46.64018" lon="4.68781">
        <ele>224</ele>
        <time>2017-02-19T12:26:11Z</time>
      </trkpt>
      <trkpt lat="46.64025" lon="4.68782">
        <ele>224</ele>
        <time>2017-02-19T12:26:12Z</time>
      </trkpt>
      <trkpt lat="46.64033" lon="4.68784">
        <ele>225</ele>
        <time>2017-02-19T12:26:13Z</time>
      </trkpt>
      <trkpt lat="46.6404" lon="4.68784">
        <ele>225</ele>
        <time>2017-02-19T12:26:14Z</time>
      </trkpt>
      <trkpt lat="46.64047" lon="4.68785">
        <ele>225</ele>
        <time>2017-02-19T12:26:15Z</time>
      </trkpt>
      <trkpt lat="46.64055" lon="4.68786">
        <ele>226</ele>
        <time>2017-02-19T12:26:16Z</time>
      </trkpt>
      <trkpt lat="46.64063" lon="4.68786">
        <ele>226</ele>
        <time>2017-02-19T12:26:17Z</time>
      </trkpt>
      <trkpt lat="46.64069" lon="4.68786">
        <ele>226</ele>
        <time>2017-02-19T12:26:18Z</time>
      </trkpt>
      <trkpt lat="46.64077" lon="4.68787">
        <ele>226</ele>
        <time>2017-02-19T12:26:19Z</time>
      </trkpt>
      <trkpt lat="46.64084" lon="4.68787">
        <ele>226</ele>
        <time>2017-02-19T12:26:20Z</time>
      </trkpt>
      <trkpt lat="46.6409" lon="4.68786">
        <ele>226</ele>
        <time>2017-02-19T12:26:21Z</time>
      </trkpt>
      <trkpt lat="46.64098" lon="4.68786">
        <ele>226</ele>
        <time>2017-02-19T12:26:22Z</time>
      </trkpt>
      <trkpt lat="46.64105" lon="4.68786">
        <ele>226</ele>
        <time>2017-02-19T12:26:23Z</time>
      </trkpt>
      <trkpt lat="46.64111" lon="4.68787">
        <ele>226</ele>
        <time>2017-02-19T12:26:24Z</time>
      </trkpt>
      <trkpt lat="46.64118" lon="4.68789">
        <ele>225</ele>
        <time>2017-02-19T12:26:25Z</time>
      </trkpt>
      <trkpt lat="46.64125" lon="4.68791">
        <ele>225</ele>
        <time>2017-02-19T12:26:26Z</time>
      </trkpt>
      <trkpt lat="46.64132" lon="4.68792">
        <ele>224</ele>
        <time>2017-02-19T12:26:27Z</time>
      </trkpt>
      <trkpt lat="46.64139" lon="4.68793">
        <ele>224</ele>
        <time>2017-02-19T12:26:28Z</time>
      </trkpt>
      <trkpt lat="46.64145" lon="4.68795">
        <ele>224</ele>
        <time>2017-02-19T12:26:29Z</time>
      </trkpt>
      <trkpt lat="46.6415" lon="4.68798">
        <ele>223</ele>
        <time>2017-02-19T12:26:30Z</time>
      </trkpt>
      <trkpt lat="46.64156" lon="4.688">
        <ele>223</ele>
        <time>2017-02-19T12:26:31Z</time>
      </trkpt>
      <trkpt lat="46.64163" lon="4.68801">
        <ele>223</ele>
        <time>2017-02-19T12:26:32Z</time>
      </trkpt>
      <trkpt lat="46.6417" lon="4.68802">
        <ele>223</ele>
        <time>2017-02-19T12:26:33Z</time>
      </trkpt>
      <trkpt lat="46.64177" lon="4.68802">
        <ele>223</ele>
        <time>2017-02-19T12:26:34Z</time>
      </trkpt>
      <trkpt lat="46.64183" lon="4.68803">
        <ele>223</ele>
        <time>2017-02-19T12:26:35Z</time>
      </trkpt>
      <trkpt lat="46.6419" lon="4.68804">
        <ele>223</ele>
        <time>2017-02-19T12:26:36Z</time>
      </trkpt>
      <trkpt lat="46.64195" lon="4.68802">
        <ele>223</ele>
        <time>2017-02-19T12:26:37Z</time>
      </trkpt>
      <trkpt lat="46.64201" lon="4.68802">
        <ele>223</ele>
        <time>2017-02-19T12:26:38Z</time>
      </trkpt>
      <trkpt lat="46.64207" lon="4.68803">
        <ele>223</ele>
        <time>2017-02-19T12:26:39Z</time>
      </trkpt>
      <trkpt lat="46.64213" lon="4.68803">
        <ele>224</ele>
        <time>2017-02-19T12:26:40Z</time>
      </trkpt>
      <trkpt lat="46.6422" lon="4.68803">
        <ele>224</ele>
        <time>2017-02-19T12:26:41Z</time>
      </trkpt>
      <trkpt lat="46.64227" lon="4.68803">
        <ele>224</ele>
        <time>2017-02-19T12:26:42Z</time>
      </trkpt>
      <trkpt lat="46.64234" lon="4.68804">
        <ele>225</ele>
        <time>2017-02-19T12:26:43Z</time>
      </trkpt>
      <trkpt lat="46.64246" lon="4.68806">
        <ele>226</ele>
        <time>2017-02-19T12:26:45Z</time>
      </trkpt>
      <trkpt lat="46.64252" lon="4.68805">
        <ele>226</ele>
        <time>2017-02-19T12:26:46Z</time>
      </trkpt>
      <trkpt lat="46.64258" lon="4.68806">
        <ele>226</ele>
        <time>2017-02-19T12:26:47Z</time>
      </trkpt>
      <trkpt lat="46.64264" lon="4.68808">
        <ele>227</ele>
        <time>2017-02-19T12:26:48Z</time>
      </trkpt>
      <trkpt lat="46.64272" lon="4.68809">
        <ele>227</ele>
        <time>2017-02-19T12:26:49Z</time>
      </trkpt>
      <trkpt lat="46.64279" lon="4.68809">
        <ele>227</ele>
        <time>2017-02-19T12:26:50Z</time>
      </trkpt>
      <trkpt lat="46.64286" lon="4.6881">
        <ele>227</ele>
        <time>2017-02-19T12:26:51Z</time>
      </trkpt>
      <trkpt lat="46.64293" lon="4.6881">
        <ele>228</ele>
        <time>2017-02-19T12:26:52Z</time>
      </trkpt>
      <trkpt lat="46.643" lon="4.6881">
        <ele>228</ele>
        <time>2017-02-19T12:26:53Z</time>
      </trkpt>
      <trkpt lat="46.64307" lon="4.6881">
        <ele>229</ele>
        <time>2017-02-19T12:26:54Z</time>
      </trkpt>
      <trkpt lat="46.64314" lon="4.68809">
        <ele>229</ele>
        <time>2017-02-19T12:26:55Z</time>
      </trkpt>
      <trkpt lat="46.64321" lon="4.6881">
        <ele>230</ele>
        <time>2017-02-19T12:26:56Z</time>
      </trkpt>
      <trkpt lat="46.64328" lon="4.68811">
        <ele>231</ele>
        <time>2017-02-19T12:26:57Z</time>
      </trkpt>
      <trkpt lat="46.64335" lon="4.68811">
        <ele>231</ele>
        <time>2017-02-19T12:26:58Z</time>
      </trkpt>
      <trkpt lat="46.64341" lon="4.68811">
        <ele>232</ele>
        <time>2017-02-19T12:26:59Z</time>
      </trkpt>
      <trkpt lat="46.64346" lon="4.68812">
        <ele>232</ele>
        <time>2017-02-19T12:27:00Z</time>
      </trkpt>
      <trkpt lat="46.64352" lon="4.68812">
        <ele>233</ele>
        <time>2017-02-19T12:27:01Z</time>
      </trkpt>
      <trkpt lat="46.64361" lon="4.68814">
        <ele>233</ele>
        <time>2017-02-19T12:27:03Z</time>
      </trkpt>
      <trkpt lat="46.64367" lon="4.68815">
        <ele>233</ele>
        <time>2017-02-19T12:27:04Z</time>
      </trkpt>
      <trkpt lat="46.64373" lon="4.68816">
        <ele>232</ele>
        <time>2017-02-19T12:27:05Z</time>
      </trkpt>
      <trkpt lat="46.64379" lon="4.68817">
        <ele>232</ele>
        <time>2017-02-19T12:27:06Z</time>
      </trkpt>
      <trkpt lat="46.64384" lon="4.68818">
        <ele>232</ele>
        <time>2017-02-19T12:27:07Z</time>
      </trkpt>
      <trkpt lat="46.64389" lon="4.68819">
        <ele>232</ele>
        <time>2017-02-19T12:27:08Z</time>
      </trkpt>
      <trkpt lat="46.64395" lon="4.6882">
        <ele>233</ele>
        <time>2017-02-19T12:27:09Z</time>
      </trkpt>
      <trkpt lat="46.64402" lon="4.6882">
        <ele>233</ele>
        <time>2017-02-19T12:27:10Z</time>
      </trkpt>
      <trkpt lat="46.64407" lon="4.68821">
        <ele>233</ele>
        <time>2017-02-19T12:27:11Z</time>
      </trkpt>
      <trkpt lat="46.64413" lon="4.68822">
        <ele>232</ele>
        <time>2017-02-19T12:27:12Z</time>
      </trkpt>
      <trkpt lat="46.64418" lon="4.68823">
        <ele>232</ele>
        <time>2017-02-19T12:27:13Z</time>
      </trkpt>
      <trkpt lat="46.64423" lon="4.68824">
        <ele>231</ele>
        <time>2017-02-19T12:27:14Z</time>
      </trkpt>
      <trkpt lat="46.64428" lon="4.68825">
        <ele>230</ele>
        <time>2017-02-19T12:27:15Z</time>
      </trkpt>
      <trkpt lat="46.64434" lon="4.68826">
        <ele>229</ele>
        <time>2017-02-19T12:27:16Z</time>
      </trkpt>
      <trkpt lat="46.6444" lon="4.68827">
        <ele>228</ele>
        <time>2017-02-19T12:27:17Z</time>
      </trkpt>
      <trkpt lat="46.64447" lon="4.68828">
        <ele>227</ele>
        <time>2017-02-19T12:27:18Z</time>
      </trkpt>
      <trkpt lat="46.64454" lon="4.68829">
        <ele>227</ele>
        <time>2017-02-19T12:27:19Z</time>
      </trkpt>
      <trkpt lat="46.6446" lon="4.68829">
        <ele>226</ele>
        <time>2017-02-19T12:27:20Z</time>
      </trkpt>
      <trkpt lat="46.64467" lon="4.6883">
        <ele>226</ele>
        <time>2017-02-19T12:27:21Z</time>
      </trkpt>
      <trkpt lat="46.64473" lon="4.6883">
        <ele>225</ele>
        <time>2017-02-19T12:27:22Z</time>
      </trkpt>
      <trkpt lat="46.64479" lon="4.68831">
        <ele>225</ele>
        <time>2017-02-19T12:27:23Z</time>
      </trkpt>
      <trkpt lat="46.64484" lon="4.68832">
        <ele>225</ele>
        <time>2017-02-19T12:27:24Z</time>
      </trkpt>
      <trkpt lat="46.6449" lon="4.68832">
        <ele>224</ele>
        <time>2017-02-19T12:27:25Z</time>
      </trkpt>
      <trkpt lat="46.64496" lon="4.68832">
        <ele>224</ele>
        <time>2017-02-19T12:27:26Z</time>
      </trkpt>
      <trkpt lat="46.64503" lon="4.68833">
        <ele>223</ele>
        <time>2017-02-19T12:27:27Z</time>
      </trkpt>
      <trkpt lat="46.64508" lon="4.68834">
        <ele>223</ele>
        <time>2017-02-19T12:27:28Z</time>
      </trkpt>
      <trkpt lat="46.64515" lon="4.68834">
        <ele>222</ele>
        <time>2017-02-19T12:27:29Z</time>
      </trkpt>
      <trkpt lat="46.6452" lon="4.68836">
        <ele>222</ele>
        <time>2017-02-19T12:27:30Z</time>
      </trkpt>
      <trkpt lat="46.64525" lon="4.68837">
        <ele>222</ele>
        <time>2017-02-19T12:27:31Z</time>
      </trkpt>
      <trkpt lat="46.64531" lon="4.68837">
        <ele>221</ele>
        <time>2017-02-19T12:27:32Z</time>
      </trkpt>
      <trkpt lat="46.64537" lon="4.68838">
        <ele>221</ele>
        <time>2017-02-19T12:27:33Z</time>
      </trkpt>
      <trkpt lat="46.64544" lon="4.68838">
        <ele>221</ele>
        <time>2017-02-19T12:27:34Z</time>
      </trkpt>
      <trkpt lat="46.6455" lon="4.68839">
        <ele>221</ele>
        <time>2017-02-19T12:27:35Z</time>
      </trkpt>
      <trkpt lat="46.64557" lon="4.6884">
        <ele>222</ele>
        <time>2017-02-19T12:27:36Z</time>
      </trkpt>
      <trkpt lat="46.64563" lon="4.6884">
        <ele>222</ele>
        <time>2017-02-19T12:27:37Z</time>
      </trkpt>
      <trkpt lat="46.64568" lon="4.68841">
        <ele>222</ele>
        <time>2017-02-19T12:27:38Z</time>
      </trkpt>
      <trkpt lat="46.64574" lon="4.68841">
        <ele>222</ele>
        <time>2017-02-19T12:27:39Z</time>
      </trkpt>
      <trkpt lat="46.6458" lon="4.68841">
        <ele>222</ele>
        <time>2017-02-19T12:27:40Z</time>
      </trkpt>
      <trkpt lat="46.64586" lon="4.68841">
        <ele>222</ele>
        <time>2017-02-19T12:27:41Z</time>
      </trkpt>
      <trkpt lat="46.64592" lon="4.68841">
        <ele>222</ele>
        <time>2017-02-19T12:27:42Z</time>
      </trkpt>
      <trkpt lat="46.64598" lon="4.68841">
        <ele>222</ele>
        <time>2017-02-19T12:27:43Z</time>
      </trkpt>
      <trkpt lat="46.64604" lon="4.68842">
        <ele>222</ele>
        <time>2017-02-19T12:27:44Z</time>
      </trkpt>
      <trkpt lat="46.6461" lon="4.68842">
        <ele>222</ele>
        <time>2017-02-19T12:27:45Z</time>
      </trkpt>
      <trkpt lat="46.64616" lon="4.68842">
        <ele>221</ele>
        <time>2017-02-19T12:27:46Z</time>
      </trkpt>
      <trkpt lat="46.64623" lon="4.68842">
        <ele>221</ele>
        <time>2017-02-19T12:27:47Z</time>
      </trkpt>
      <trkpt lat="46.64629" lon="4.68843">
        <ele>220</ele>
        <time>2017-02-19T12:27:48Z</time>
      </trkpt>
      <trkpt lat="46.64634" lon="4.68843">
        <ele>220</ele>
        <time>2017-02-19T12:27:49Z</time>
      </trkpt>
      <trkpt lat="46.6464" lon="4.68843">
        <ele>219</ele>
        <time>2017-02-19T12:27:50Z</time>
      </trkpt>
      <trkpt lat="46.64645" lon="4.68843">
        <ele>219</ele>
        <time>2017-02-19T12:27:51Z</time>
      </trkpt>
      <trkpt lat="46.64655" lon="4.68844">
        <ele>218</ele>
        <time>2017-02-19T12:27:53Z</time>
      </trkpt>
      <trkpt lat="46.6466" lon="4.68846">
        <ele>217</ele>
        <time>2017-02-19T12:27:54Z</time>
      </trkpt>
      <trkpt lat="46.64666" lon="4.68847">
        <ele>216</ele>
        <time>2017-02-19T12:27:55Z</time>
      </trkpt>
      <trkpt lat="46.64672" lon="4.68847">
        <ele>215</ele>
        <time>2017-02-19T12:27:56Z</time>
      </trkpt>
      <trkpt lat="46.64679" lon="4.68847">
        <ele>215</ele>
        <time>2017-02-19T12:27:57Z</time>
      </trkpt>
      <trkpt lat="46.64684" lon="4.68848">
        <ele>215</ele>
        <time>2017-02-19T12:27:58Z</time>
      </trkpt>
      <trkpt lat="46.6469" lon="4.68848">
        <ele>215</ele>
        <time>2017-02-19T12:27:59Z</time>
      </trkpt>
      <trkpt lat="46.64695" lon="4.68849">
        <ele>216</ele>
        <time>2017-02-19T12:28:00Z</time>
      </trkpt>
      <trkpt lat="46.647" lon="4.68849">
        <ele>216</ele>
        <time>2017-02-19T12:28:01Z</time>
      </trkpt>
      <trkpt lat="46.6471" lon="4.68847">
        <ele>216</ele>
        <time>2017-02-19T12:28:03Z</time>
      </trkpt>
      <trkpt lat="46.64714" lon="4.68847">
        <ele>217</ele>
        <time>2017-02-19T12:28:04Z</time>
      </trkpt>
      <trkpt lat="46.64718" lon="4.68848">
        <ele>217</ele>
        <time>2017-02-19T12:28:05Z</time>
      </trkpt>
      <trkpt lat="46.64727" lon="4.68849">
        <ele>217</ele>
        <time>2017-02-19T12:28:07Z</time>
      </trkpt>
      <trkpt lat="46.64732" lon="4.6885">
        <ele>216</ele>
        <time>2017-02-19T12:28:08Z</time>
      </trkpt>
      <trkpt lat="46.64736" lon="4.68851">
        <ele>216</ele>
        <time>2017-02-19T12:28:09Z</time>
      </trkpt>
      <trkpt lat="46.64742" lon="4.68852">
        <ele>215</ele>
        <time>2017-02-19T12:28:10Z</time>
      </trkpt>
      <trkpt lat="46.64747" lon="4.68853">
        <ele>214</ele>
        <time>2017-02-19T12:28:11Z</time>
      </trkpt>
      <trkpt lat="46.64753" lon="4.68855">
        <ele>214</ele>
        <time>2017-02-19T12:28:12Z</time>
      </trkpt>
      <trkpt lat="46.64759" lon="4.68857">
        <ele>214</ele>
        <time>2017-02-19T12:28:13Z</time>
      </trkpt>
      <trkpt lat="46.64766" lon="4.68858">
        <ele>214</ele>
        <time>2017-02-19T12:28:14Z</time>
      </trkpt>
      <trkpt lat="46.64773" lon="4.68859">
        <ele>214</ele>
        <time>2017-02-19T12:28:15Z</time>
      </trkpt>
      <trkpt lat="46.6478" lon="4.68861">
        <ele>215</ele>
        <time>2017-02-19T12:28:16Z</time>
      </trkpt>
      <trkpt lat="46.64786" lon="4.68862">
        <ele>215</ele>
        <time>2017-02-19T12:28:17Z</time>
      </trkpt>
      <trkpt lat="46.64792" lon="4.68864">
        <ele>216</ele>
        <time>2017-02-19T12:28:18Z</time>
      </trkpt>
      <trkpt lat="46.64797" lon="4.68866">
        <ele>216</ele>
        <time>2017-02-19T12:28:19Z</time>
      </trkpt>
      <trkpt lat="46.64802" lon="4.68866">
        <ele>216</ele>
        <time>2017-02-19T12:28:20Z</time>
      </trkpt>
      <trkpt lat="46.6481" lon="4.68866">
        <ele>216</ele>
        <time>2017-02-19T12:28:22Z</time>
      </trkpt>
      <trkpt lat="46.64816" lon="4.68868">
        <ele>216</ele>
        <time>2017-02-19T12:28:23Z</time>
      </trkpt>
      <trkpt lat="46.64823" lon="4.68869">
        <ele>217</ele>
        <time>2017-02-19T12:28:24Z</time>
      </trkpt>
      <trkpt lat="46.64829" lon="4.68869">
        <ele>217</ele>
        <time>2017-02-19T12:28:25Z</time>
      </trkpt>
      <trkpt lat="46.64834" lon="4.68871">
        <ele>217</ele>
        <time>2017-02-19T12:28:26Z</time>
      </trkpt>
      <trkpt lat="46.6484" lon="4.68873">
        <ele>217</ele>
        <time>2017-02-19T12:28:27Z</time>
      </trkpt>
      <trkpt lat="46.64846" lon="4.68875">
        <ele>217</ele>
        <time>2017-02-19T12:28:28Z</time>
      </trkpt>
      <trkpt lat="46.64853" lon="4.68876">
        <ele>218</ele>
        <time>2017-02-19T12:28:29Z</time>
      </trkpt>
      <trkpt lat="46.64859" lon="4.68877">
        <ele>218</ele>
        <time>2017-02-19T12:28:30Z</time>
      </trkpt>
      <trkpt lat="46.64866" lon="4.6888">
        <ele>218</ele>
        <time>2017-02-19T12:28:31Z</time>
      </trkpt>
      <trkpt lat="46.64873" lon="4.68883">
        <ele>218</ele>
        <time>2017-02-19T12:28:32Z</time>
      </trkpt>
      <trkpt lat="46.64881" lon="4.68885">
        <ele>219</ele>
        <time>2017-02-19T12:28:33Z</time>
      </trkpt>
      <trkpt lat="46.64887" lon="4.68887">
        <ele>219</ele>
        <time>2017-02-19T12:28:34Z</time>
      </trkpt>
      <trkpt lat="46.64894" lon="4.6889">
        <ele>220</ele>
        <time>2017-02-19T12:28:35Z</time>
      </trkpt>
      <trkpt lat="46.64901" lon="4.68893">
        <ele>220</ele>
        <time>2017-02-19T12:28:36Z</time>
      </trkpt>
      <trkpt lat="46.64908" lon="4.68895">
        <ele>220</ele>
        <time>2017-02-19T12:28:37Z</time>
      </trkpt>
      <trkpt lat="46.64915" lon="4.68897">
        <ele>221</ele>
        <time>2017-02-19T12:28:38Z</time>
      </trkpt>
      <trkpt lat="46.64922" lon="4.689">
        <ele>221</ele>
        <time>2017-02-19T12:28:39Z</time>
      </trkpt>
      <trkpt lat="46.64929" lon="4.68903">
        <ele>222</ele>
        <time>2017-02-19T12:28:40Z</time>
      </trkpt>
      <trkpt lat="46.64936" lon="4.68906">
        <ele>223</ele>
        <time>2017-02-19T12:28:41Z</time>
      </trkpt>
      <trkpt lat="46.64943" lon="4.68909">
        <ele>223</ele>
        <time>2017-02-19T12:28:42Z</time>
      </trkpt>
      <trkpt lat="46.64952" lon="4.68915">
        <ele>223</ele>
        <time>2017-02-19T12:28:43Z</time>
      </trkpt>
      <trkpt lat="46.64958" lon="4.68922">
        <ele>223</ele>
        <time>2017-02-19T12:28:44Z</time>
      </trkpt>
      <trkpt lat="46.64965" lon="4.68927">
        <ele>223</ele>
        <time>2017-02-19T12:28:45Z</time>
      </trkpt>
      <trkpt lat="46.64972" lon="4.6893">
        <ele>223</ele>
        <time>2017-02-19T12:28:46Z</time>
      </trkpt>
      <trkpt lat="46.64979" lon="4.68933">
        <ele>223</ele>
        <time>2017-02-19T12:28:47Z</time>
      </trkpt>
      <trkpt lat="46.64986" lon="4.68936">
        <ele>223</ele>
        <time>2017-02-19T12:28:48Z</time>
      </trkpt>
      <trkpt lat="46.64992" lon="4.68938">
        <ele>222</ele>
        <time>2017-02-19T12:28:49Z</time>
      </trkpt>
      <trkpt lat="46.64999" lon="4.68941">
        <ele>222</ele>
        <time>2017-02-19T12:28:50Z</time>
      </trkpt>
      <trkpt lat="46.65007" lon="4.68943">
        <ele>222</ele>
        <time>2017-02-19T12:28:51Z</time>
      </trkpt>
      <trkpt lat="46.65015" lon="4.68945">
        <ele>222</ele>
        <time>2017-02-19T12:28:52Z</time>
      </trkpt>
      <trkpt lat="46.65022" lon="4.68947">
        <ele>223</ele>
        <time>2017-02-19T12:28:53Z</time>
      </trkpt>
      <trkpt lat="46.6503" lon="4.68949">
        <ele>223</ele>
        <time>2017-02-19T12:28:54Z</time>
      </trkpt>
      <trkpt lat="46.65036" lon="4.6895">
        <ele>224</ele>
        <time>2017-02-19T12:28:55Z</time>
      </trkpt>
      <trkpt lat="46.65043" lon="4.68951">
        <ele>224</ele>
        <time>2017-02-19T12:28:56Z</time>
      </trkpt>
      <trkpt lat="46.65049" lon="4.68953">
        <ele>224</ele>
        <time>2017-02-19T12:28:57Z</time>
      </trkpt>
      <trkpt lat="46.65055" lon="4.68954">
        <ele>224</ele>
        <time>2017-02-19T12:28:58Z</time>
      </trkpt>
      <trkpt lat="46.6506" lon="4.68957">
        <ele>223</ele>
        <time>2017-02-19T12:28:59Z</time>
      </trkpt>
      <trkpt lat="46.65064" lon="4.68961">
        <ele>223</ele>
        <time>2017-02-19T12:29:00Z</time>
      </trkpt>
      <trkpt lat="46.65072" lon="4.68966">
        <ele>223</ele>
        <time>2017-02-19T12:29:02Z</time>
      </trkpt>
      <trkpt lat="46.65083" lon="4.68972">
        <ele>223</ele>
        <time>2017-02-19T12:29:04Z</time>
      </trkpt>
      <trkpt lat="46.6509" lon="4.68975">
        <ele>223</ele>
        <time>2017-02-19T12:29:05Z</time>
      </trkpt>
      <trkpt lat="46.65096" lon="4.68979">
        <ele>223</ele>
        <time>2017-02-19T12:29:06Z</time>
      </trkpt>
      <trkpt lat="46.65102" lon="4.68982">
        <ele>224</ele>
        <time>2017-02-19T12:29:07Z</time>
      </trkpt>
      <trkpt lat="46.65108" lon="4.68985">
        <ele>223</ele>
        <time>2017-02-19T12:29:08Z</time>
      </trkpt>
      <trkpt lat="46.65114" lon="4.68988">
        <ele>223</ele>
        <time>2017-02-19T12:29:09Z</time>
      </trkpt>
      <trkpt lat="46.6512" lon="4.6899">
        <ele>223</ele>
        <time>2017-02-19T12:29:10Z</time>
      </trkpt>
      <trkpt lat="46.65126" lon="4.68992">
        <ele>223</ele>
        <time>2017-02-19T12:29:11Z</time>
      </trkpt>
      <trkpt lat="46.65132" lon="4.68994">
        <ele>222</ele>
        <time>2017-02-19T12:29:12Z</time>
      </trkpt>
      <trkpt lat="46.65139" lon="4.68996">
        <ele>222</ele>
        <time>2017-02-19T12:29:13Z</time>
      </trkpt>
      <trkpt lat="46.65146" lon="4.68999">
        <ele>222</ele>
        <time>2017-02-19T12:29:14Z</time>
      </trkpt>
      <trkpt lat="46.65152" lon="4.69001">
        <ele>222</ele>
        <time>2017-02-19T12:29:15Z</time>
      </trkpt>
      <trkpt lat="46.6516" lon="4.69002">
        <ele>222</ele>
        <time>2017-02-19T12:29:16Z</time>
      </trkpt>
      <trkpt lat="46.65167" lon="4.69004">
        <ele>221</ele>
        <time>2017-02-19T12:29:17Z</time>
      </trkpt>
      <trkpt lat="46.65175" lon="4.69006">
        <ele>221</ele>
        <time>2017-02-19T12:29:18Z</time>
      </trkpt>
      <trkpt lat="46.65182" lon="4.69008">
        <ele>221</ele>
        <time>2017-02-19T12:29:19Z</time>
      </trkpt>
      <trkpt lat="46.6519" lon="4.69011">
        <ele>220</ele>
        <time>2017-02-19T12:29:20Z</time>
      </trkpt>
      <trkpt lat="46.65199" lon="4.69014">
        <ele>220</ele>
        <time>2017-02-19T12:29:21Z</time>
      </trkpt>
      <trkpt lat="46.65206" lon="4.69016">
        <ele>221</ele>
        <time>2017-02-19T12:29:22Z</time>
      </trkpt>
      <trkpt lat="46.65213" lon="4.69019">
        <ele>221</ele>
        <time>2017-02-19T12:29:23Z</time>
      </trkpt>
      <trkpt lat="46.65221" lon="4.69021">
        <ele>222</ele>
        <time>2017-02-19T12:29:24Z</time>
      </trkpt>
      <trkpt lat="46.65229" lon="4.69023">
        <ele>222</ele>
        <time>2017-02-19T12:29:25Z</time>
      </trkpt>
      <trkpt lat="46.65236" lon="4.69025">
        <ele>223</ele>
        <time>2017-02-19T12:29:26Z</time>
      </trkpt>
      <trkpt lat="46.65243" lon="4.69027">
        <ele>223</ele>
        <time>2017-02-19T12:29:27Z</time>
      </trkpt>
      <trkpt lat="46.65257" lon="4.6903">
        <ele>224</ele>
        <time>2017-02-19T12:29:29Z</time>
      </trkpt>
      <trkpt lat="46.65264" lon="4.69032">
        <ele>224</ele>
        <time>2017-02-19T12:29:30Z</time>
      </trkpt>
      <trkpt lat="46.6527" lon="4.69034">
        <ele>224</ele>
        <time>2017-02-19T12:29:31Z</time>
      </trkpt>
      <trkpt lat="46.65275" lon="4.69036">
        <ele>224</ele>
        <time>2017-02-19T12:29:32Z</time>
      </trkpt>
      <trkpt lat="46.65282" lon="4.69039">
        <ele>224</ele>
        <time>2017-02-19T12:29:33Z</time>
      </trkpt>
      <trkpt lat="46.6529" lon="4.69042">
        <ele>224</ele>
        <time>2017-02-19T12:29:34Z</time>
      </trkpt>
      <trkpt lat="46.65298" lon="4.69045">
        <ele>223</ele>
        <time>2017-02-19T12:29:35Z</time>
      </trkpt>
      <trkpt lat="46.65306" lon="4.69048">
        <ele>223</ele>
        <time>2017-02-19T12:29:36Z</time>
      </trkpt>
      <trkpt lat="46.65315" lon="4.69052">
        <ele>223</ele>
        <time>2017-02-19T12:29:37Z</time>
      </trkpt>
      <trkpt lat="46.65324" lon="4.69054">
        <ele>223</ele>
        <time>2017-02-19T12:29:38Z</time>
      </trkpt>
      <trkpt lat="46.65332" lon="4.69056">
        <ele>223</ele>
        <time>2017-02-19T12:29:39Z</time>
      </trkpt>
      <trkpt lat="46.65339" lon="4.69057">
        <ele>223</ele>
        <time>2017-02-19T12:29:40Z</time>
      </trkpt>
      <trkpt lat="46.65343" lon="4.69059">
        <ele>222</ele>
        <time>2017-02-19T12:29:41Z</time>
      </trkpt>
      <trkpt lat="46.65349" lon="4.69062">
        <ele>222</ele>
        <time>2017-02-19T12:29:42Z</time>
      </trkpt>
      <trkpt lat="46.65355" lon="4.69065">
        <ele>222</ele>
        <time>2017-02-19T12:29:43Z</time>
      </trkpt>
      <trkpt lat="46.65361" lon="4.69068">
        <ele>222</ele>
        <time>2017-02-19T12:29:44Z</time>
      </trkpt>
      <trkpt lat="46.65367" lon="4.69073">
        <ele>221</ele>
        <time>2017-02-19T12:29:45Z</time>
      </trkpt>
      <trkpt lat="46.65374" lon="4.69076">
        <ele>221</ele>
        <time>2017-02-19T12:29:46Z</time>
      </trkpt>
      <trkpt lat="46.65382" lon="4.69078">
        <ele>222</ele>
        <time>2017-02-19T12:29:47Z</time>
      </trkpt>
      <trkpt lat="46.65389" lon="4.69081">
        <ele>222</ele>
        <time>2017-02-19T12:29:48Z</time>
      </trkpt>
      <trkpt lat="46.65397" lon="4.69084">
        <ele>222</ele>
        <time>2017-02-19T12:29:49Z</time>
      </trkpt>
      <trkpt lat="46.65405" lon="4.69087">
        <ele>222</ele>
        <time>2017-02-19T12:29:50Z</time>
      </trkpt>
      <trkpt lat="46.65413" lon="4.69091">
        <ele>222</ele>
        <time>2017-02-19T12:29:51Z</time>
      </trkpt>
      <trkpt lat="46.65421" lon="4.69096">
        <ele>222</ele>
        <time>2017-02-19T12:29:52Z</time>
      </trkpt>
      <trkpt lat="46.6543" lon="4.69101">
        <ele>222</ele>
        <time>2017-02-19T12:29:53Z</time>
      </trkpt>
      <trkpt lat="46.65438" lon="4.69104">
        <ele>221</ele>
        <time>2017-02-19T12:29:54Z</time>
      </trkpt>
      <trkpt lat="46.65444" lon="4.69106">
        <ele>221</ele>
        <time>2017-02-19T12:29:55Z</time>
      </trkpt>
      <trkpt lat="46.6545" lon="4.69108">
        <ele>221</ele>
        <time>2017-02-19T12:29:56Z</time>
      </trkpt>
      <trkpt lat="46.65458" lon="4.69111">
        <ele>221</ele>
        <time>2017-02-19T12:29:57Z</time>
      </trkpt>
      <trkpt lat="46.65465" lon="4.69113">
        <ele>221</ele>
        <time>2017-02-19T12:29:58Z</time>
      </trkpt>
      <trkpt lat="46.65472" lon="4.69117">
        <ele>221</ele>
        <time>2017-02-19T12:29:59Z</time>
      </trkpt>
      <trkpt lat="46.6548" lon="4.6912">
        <ele>221</ele>
        <time>2017-02-19T12:30:00Z</time>
      </trkpt>
      <trkpt lat="46.65488" lon="4.69122">
        <ele>221</ele>
        <time>2017-02-19T12:30:01Z</time>
      </trkpt>
      <trkpt lat="46.65494" lon="4.69125">
        <ele>221</ele>
        <time>2017-02-19T12:30:02Z</time>
      </trkpt>
      <trkpt lat="46.65501" lon="4.69127">
        <ele>222</ele>
        <time>2017-02-19T12:30:03Z</time>
      </trkpt>
      <trkpt lat="46.65509" lon="4.69128">
        <ele>222</ele>
        <time>2017-02-19T12:30:04Z</time>
      </trkpt>
      <trkpt lat="46.65517" lon="4.69131">
        <ele>222</ele>
        <time>2017-02-19T12:30:05Z</time>
      </trkpt>
      <trkpt lat="46.65524" lon="4.69133">
        <ele>222</ele>
        <time>2017-02-19T12:30:06Z</time>
      </trkpt>
      <trkpt lat="46.65531" lon="4.69136">
        <ele>222</ele>
        <time>2017-02-19T12:30:07Z</time>
      </trkpt>
      <trkpt lat="46.65538" lon="4.69139">
        <ele>222</ele>
        <time>2017-02-19T12:30:08Z</time>
      </trkpt>
      <trkpt lat="46.65546" lon="4.69141">
        <ele>222</ele>
        <time>2017-02-19T12:30:09Z</time>
      </trkpt>
      <trkpt lat="46.65552" lon="4.69145">
        <ele>222</ele>
        <time>2017-02-19T12:30:10Z</time>
      </trkpt>
      <trkpt lat="46.65558" lon="4.69147">
        <ele>222</ele>
        <time>2017-02-19T12:30:11Z</time>
      </trkpt>
      <trkpt lat="46.65566" lon="4.69151">
        <ele>222</ele>
        <time>2017-02-19T12:30:12Z</time>
      </trkpt>
      <trkpt lat="46.65572" lon="4.69157">
        <ele>221</ele>
        <time>2017-02-19T12:30:13Z</time>
      </trkpt>
      <trkpt lat="46.65582" lon="4.69163">
        <ele>221</ele>
        <time>2017-02-19T12:30:14Z</time>
      </trkpt>
      <trkpt lat="46.65588" lon="4.69167">
        <ele>220</ele>
        <time>2017-02-19T12:30:15Z</time>
      </trkpt>
      <trkpt lat="46.65596" lon="4.69171">
        <ele>219</ele>
        <time>2017-02-19T12:30:16Z</time>
      </trkpt>
      <trkpt lat="46.65605" lon="4.69174">
        <ele>218</ele>
        <time>2017-02-19T12:30:17Z</time>
      </trkpt>
      <trkpt lat="46.65613" lon="4.69177">
        <ele>217</ele>
        <time>2017-02-19T12:30:18Z</time>
      </trkpt>
      <trkpt lat="46.65621" lon="4.6918">
        <ele>216</ele>
        <time>2017-02-19T12:30:19Z</time>
      </trkpt>
      <trkpt lat="46.65628" lon="4.69183">
        <ele>216</ele>
        <time>2017-02-19T12:30:20Z</time>
      </trkpt>
      <trkpt lat="46.65633" lon="4.69185">
        <ele>216</ele>
        <time>2017-02-19T12:30:21Z</time>
      </trkpt>
      <trkpt lat="46.6564" lon="4.69188">
        <ele>216</ele>
        <time>2017-02-19T12:30:22Z</time>
      </trkpt>
      <trkpt lat="46.65646" lon="4.6919">
        <ele>216</ele>
        <time>2017-02-19T12:30:23Z</time>
      </trkpt>
      <trkpt lat="46.6565" lon="4.69191">
        <ele>216</ele>
        <time>2017-02-19T12:30:24Z</time>
      </trkpt>
      <trkpt lat="46.65657" lon="4.69193">
        <ele>216</ele>
        <time>2017-02-19T12:30:26Z</time>
      </trkpt>
      <trkpt lat="46.65664" lon="4.69198">
        <ele>217</ele>
        <time>2017-02-19T12:30:28Z</time>
      </trkpt>
      <trkpt lat="46.65671" lon="4.69197">
        <ele>218</ele>
        <time>2017-02-19T12:30:30Z</time>
      </trkpt>
      <trkpt lat="46.65676" lon="4.69196">
        <ele>219</ele>
        <time>2017-02-19T12:30:32Z</time>
      </trkpt>
      <trkpt lat="46.65681" lon="4.692">
        <ele>219</ele>
        <time>2017-02-19T12:30:34Z</time>
      </trkpt>
      <trkpt lat="46.65688" lon="4.69206">
        <ele>219</ele>
        <time>2017-02-19T12:30:37Z</time>
      </trkpt>
      <trkpt lat="46.65693" lon="4.69208">
        <ele>219</ele>
        <time>2017-02-19T12:30:38Z</time>
      </trkpt>
      <trkpt lat="46.65697" lon="4.69211">
        <ele>218</ele>
        <time>2017-02-19T12:30:39Z</time>
      </trkpt>
      <trkpt lat="46.65707" lon="4.69215">
        <ele>218</ele>
        <time>2017-02-19T12:30:41Z</time>
      </trkpt>
      <trkpt lat="46.65714" lon="4.69217">
        <ele>217</ele>
        <time>2017-02-19T12:30:42Z</time>
      </trkpt>
      <trkpt lat="46.65719" lon="4.69218">
        <ele>217</ele>
        <time>2017-02-19T12:30:43Z</time>
      </trkpt>
      <trkpt lat="46.65724" lon="4.69219">
        <ele>217</ele>
        <time>2017-02-19T12:30:44Z</time>
      </trkpt>
      <trkpt lat="46.6573" lon="4.69221">
        <ele>217</ele>
        <time>2017-02-19T12:30:45Z</time>
      </trkpt>
      <trkpt lat="46.65736" lon="4.69224">
        <ele>217</ele>
        <time>2017-02-19T12:30:46Z</time>
      </trkpt>
      <trkpt lat="46.65742" lon="4.69226">
        <ele>217</ele>
        <time>2017-02-19T12:30:47Z</time>
      </trkpt>
      <trkpt lat="46.65748" lon="4.69229">
        <ele>217</ele>
        <time>2017-02-19T12:30:48Z</time>
      </trkpt>
      <trkpt lat="46.65754" lon="4.69231">
        <ele>218</ele>
        <time>2017-02-19T12:30:49Z</time>
      </trkpt>
      <trkpt lat="46.65759" lon="4.69234">
        <ele>218</ele>
        <time>2017-02-19T12:30:50Z</time>
      </trkpt>
      <trkpt lat="46.65764" lon="4.69236">
        <ele>218</ele>
        <time>2017-02-19T12:30:51Z</time>
      </trkpt>
      <trkpt lat="46.6577" lon="4.69238">
        <ele>218</ele>
        <time>2017-02-19T12:30:52Z</time>
      </trkpt>
      <trkpt lat="46.65775" lon="4.6924">
        <ele>218</ele>
        <time>2017-02-19T12:30:53Z</time>
      </trkpt>
      <trkpt lat="46.65781" lon="4.69243">
        <ele>218</ele>
        <time>2017-02-19T12:30:54Z</time>
      </trkpt>
      <trkpt lat="46.65786" lon="4.69245">
        <ele>218</ele>
        <time>2017-02-19T12:30:55Z</time>
      </trkpt>
      <trkpt lat="46.65792" lon="4.69247">
        <ele>218</ele>
        <time>2017-02-19T12:30:56Z</time>
      </trkpt>
      <trkpt lat="46.65797" lon="4.69249">
        <ele>218</ele>
        <time>2017-02-19T12:30:57Z</time>
      </trkpt>
      <trkpt lat="46.65803" lon="4.69252">
        <ele>218</ele>
        <time>2017-02-19T12:30:58Z</time>
      </trkpt>
      <trkpt lat="46.6581" lon="4.69254">
        <ele>218</ele>
        <time>2017-02-19T12:30:59Z</time>
      </trkpt>
      <trkpt lat="46.65815" lon="4.69257">
        <ele>217</ele>
        <time>2017-02-19T12:31:00Z</time>
      </trkpt>
      <trkpt lat="46.65822" lon="4.6926">
        <ele>217</ele>
        <time>2017-02-19T12:31:01Z</time>
      </trkpt>
      <trkpt lat="46.65828" lon="4.69264">
        <ele>217</ele>
        <time>2017-02-19T12:31:02Z</time>
      </trkpt>
      <trkpt lat="46.65834" lon="4.69267">
        <ele>217</ele>
        <time>2017-02-19T12:31:03Z</time>
      </trkpt>
      <trkpt lat="46.6584" lon="4.6927">
        <ele>217</ele>
        <time>2017-02-19T12:31:04Z</time>
      </trkpt>
      <trkpt lat="46.65846" lon="4.69273">
        <ele>218</ele>
        <time>2017-02-19T12:31:05Z</time>
      </trkpt>
      <trkpt lat="46.65852" lon="4.69276">
        <ele>218</ele>
        <time>2017-02-19T12:31:06Z</time>
      </trkpt>
      <trkpt lat="46.65859" lon="4.6928">
        <ele>218</ele>
        <time>2017-02-19T12:31:07Z</time>
      </trkpt>
      <trkpt lat="46.65865" lon="4.69285">
        <ele>218</ele>
        <time>2017-02-19T12:31:08Z</time>
      </trkpt>
      <trkpt lat="46.65871" lon="4.69289">
        <ele>218</ele>
        <time>2017-02-19T12:31:09Z</time>
      </trkpt>
      <trkpt lat="46.65878" lon="4.69293">
        <ele>218</ele>
        <time>2017-02-19T12:31:10Z</time>
      </trkpt>
      <trkpt lat="46.65884" lon="4.69297">
        <ele>218</ele>
        <time>2017-02-19T12:31:11Z</time>
      </trkpt>
      <trkpt lat="46.65889" lon="4.69301">
        <ele>218</ele>
        <time>2017-02-19T12:31:12Z</time>
      </trkpt>
      <trkpt lat="46.65895" lon="4.69305">
        <ele>217</ele>
        <time>2017-02-19T12:31:13Z</time>
      </trkpt>
      <trkpt lat="46.65901" lon="4.69308">
        <ele>217</ele>
        <time>2017-02-19T12:31:14Z</time>
      </trkpt>
      <trkpt lat="46.65907" lon="4.69313">
        <ele>217</ele>
        <time>2017-02-19T12:31:15Z</time>
      </trkpt>
      <trkpt lat="46.65913" lon="4.69317">
        <ele>217</ele>
        <time>2017-02-19T12:31:16Z</time>
      </trkpt>
      <trkpt lat="46.65919" lon="4.69321">
        <ele>217</ele>
        <time>2017-02-19T12:31:17Z</time>
      </trkpt>
      <trkpt lat="46.65925" lon="4.69324">
        <ele>218</ele>
        <time>2017-02-19T12:31:18Z</time>
      </trkpt>
      <trkpt lat="46.6593" lon="4.69327">
        <ele>218</ele>
        <time>2017-02-19T12:31:19Z</time>
      </trkpt>
      <trkpt lat="46.65936" lon="4.6933">
        <ele>218</ele>
        <time>2017-02-19T12:31:20Z</time>
      </trkpt>
      <trkpt lat="46.65942" lon="4.69334">
        <ele>218</ele>
        <time>2017-02-19T12:31:21Z</time>
      </trkpt>
      <trkpt lat="46.65947" lon="4.69337">
        <ele>218</ele>
        <time>2017-02-19T12:31:22Z</time>
      </trkpt>
      <trkpt lat="46.65953" lon="4.69341">
        <ele>219</ele>
        <time>2017-02-19T12:31:23Z</time>
      </trkpt>
      <trkpt lat="46.65958" lon="4.69344">
        <ele>219</ele>
        <time>2017-02-19T12:31:24Z</time>
      </trkpt>
      <trkpt lat="46.65964" lon="4.69348">
        <ele>218</ele>
        <time>2017-02-19T12:31:25Z</time>
      </trkpt>
      <trkpt lat="46.65969" lon="4.69351">
        <ele>218</ele>
        <time>2017-02-19T12:31:26Z</time>
      </trkpt>
      <trkpt lat="46.65973" lon="4.69354">
        <ele>218</ele>
        <time>2017-02-19T12:31:27Z</time>
      </trkpt>
      <trkpt lat="46.65978" lon="4.69357">
        <ele>217</ele>
        <time>2017-02-19T12:31:28Z</time>
      </trkpt>
      <trkpt lat="46.65983" lon="4.69361">
        <ele>217</ele>
        <time>2017-02-19T12:31:29Z</time>
      </trkpt>
      <trkpt lat="46.65987" lon="4.69364">
        <ele>217</ele>
        <time>2017-02-19T12:31:30Z</time>
      </trkpt>
      <trkpt lat="46.65992" lon="4.69368">
        <ele>217</ele>
        <time>2017-02-19T12:31:31Z</time>
      </trkpt>
      <trkpt lat="46.65998" lon="4.69373">
        <ele>217</ele>
        <time>2017-02-19T12:31:32Z</time>
      </trkpt>
      <trkpt lat="46.66003" lon="4.69378">
        <ele>217</ele>
        <time>2017-02-19T12:31:33Z</time>
      </trkpt>
      <trkpt lat="46.66008" lon="4.69382">
        <ele>218</ele>
        <time>2017-02-19T12:31:34Z</time>
      </trkpt>
      <trkpt lat="46.66013" lon="4.69386">
        <ele>219</ele>
        <time>2017-02-19T12:31:35Z</time>
      </trkpt>
      <trkpt lat="46.66019" lon="4.6939">
        <ele>220</ele>
        <time>2017-02-19T12:31:36Z</time>
      </trkpt>
      <trkpt lat="46.66026" lon="4.69394">
        <ele>221</ele>
        <time>2017-02-19T12:31:37Z</time>
      </trkpt>
      <trkpt lat="46.66031" lon="4.69399">
        <ele>222</ele>
        <time>2017-02-19T12:31:38Z</time>
      </trkpt>
      <trkpt lat="46.66037" lon="4.69404">
        <ele>222</ele>
        <time>2017-02-19T12:31:39Z</time>
      </trkpt>
      <trkpt lat="46.66042" lon="4.69407">
        <ele>223</ele>
        <time>2017-02-19T12:31:40Z</time>
      </trkpt>
      <trkpt lat="46.66048" lon="4.69411">
        <ele>223</ele>
        <time>2017-02-19T12:31:41Z</time>
      </trkpt>
      <trkpt lat="46.66054" lon="4.69415">
        <ele>223</ele>
        <time>2017-02-19T12:31:42Z</time>
      </trkpt>
      <trkpt lat="46.6606" lon="4.69418">
        <ele>223</ele>
        <time>2017-02-19T12:31:43Z</time>
      </trkpt>
      <trkpt lat="46.66065" lon="4.69422">
        <ele>223</ele>
        <time>2017-02-19T12:31:44Z</time>
      </trkpt>
      <trkpt lat="46.66072" lon="4.69426">
        <ele>223</ele>
        <time>2017-02-19T12:31:45Z</time>
      </trkpt>
      <trkpt lat="46.66078" lon="4.69429">
        <ele>223</ele>
        <time>2017-02-19T12:31:46Z</time>
      </trkpt>
      <trkpt lat="46.66082" lon="4.69432">
        <ele>223</ele>
        <time>2017-02-19T12:31:47Z</time>
      </trkpt>
      <trkpt lat="46.66088" lon="4.69434">
        <ele>222</ele>
        <time>2017-02-19T12:31:48Z</time>
      </trkpt>
      <trkpt lat="46.66092" lon="4.69437">
        <ele>222</ele>
        <time>2017-02-19T12:31:49Z</time>
      </trkpt>
      <trkpt lat="46.66097" lon="4.69441">
        <ele>221</ele>
        <time>2017-02-19T12:31:50Z</time>
      </trkpt>
      <trkpt lat="46.66102" lon="4.69445">
        <ele>221</ele>
        <time>2017-02-19T12:31:51Z</time>
      </trkpt>
      <trkpt lat="46.66107" lon="4.69448">
        <ele>221</ele>
        <time>2017-02-19T12:31:52Z</time>
      </trkpt>
      <trkpt lat="46.66113" lon="4.69451">
        <ele>221</ele>
        <time>2017-02-19T12:31:53Z</time>
      </trkpt>
      <trkpt lat="46.66119" lon="4.69453">
        <ele>221</ele>
        <time>2017-02-19T12:31:54Z</time>
      </trkpt>
      <trkpt lat="46.66125" lon="4.69457">
        <ele>221</ele>
        <time>2017-02-19T12:31:55Z</time>
      </trkpt>
      <trkpt lat="46.66132" lon="4.69462">
        <ele>221</ele>
        <time>2017-02-19T12:31:56Z</time>
      </trkpt>
      <trkpt lat="46.66139" lon="4.69465">
        <ele>221</ele>
        <time>2017-02-19T12:31:57Z</time>
      </trkpt>
      <trkpt lat="46.66147" lon="4.69468">
        <ele>221</ele>
        <time>2017-02-19T12:31:58Z</time>
      </trkpt>
      <trkpt lat="46.66153" lon="4.69471">
        <ele>221</ele>
        <time>2017-02-19T12:31:59Z</time>
      </trkpt>
      <trkpt lat="46.66159" lon="4.69474">
        <ele>221</ele>
        <time>2017-02-19T12:32:00Z</time>
      </trkpt>
      <trkpt lat="46.66164" lon="4.69478">
        <ele>221</ele>
        <time>2017-02-19T12:32:01Z</time>
      </trkpt>
      <trkpt lat="46.66169" lon="4.69482">
        <ele>221</ele>
        <time>2017-02-19T12:32:02Z</time>
      </trkpt>
      <trkpt lat="46.66179" lon="4.69487">
        <ele>220</ele>
        <time>2017-02-19T12:32:04Z</time>
      </trkpt>
      <trkpt lat="46.66186" lon="4.69489">
        <ele>219</ele>
        <time>2017-02-19T12:32:05Z</time>
      </trkpt>
      <trkpt lat="46.66192" lon="4.69492">
        <ele>218</ele>
        <time>2017-02-19T12:32:06Z</time>
      </trkpt>
      <trkpt lat="46.66198" lon="4.69496">
        <ele>217</ele>
        <time>2017-02-19T12:32:07Z</time>
      </trkpt>
      <trkpt lat="46.66204" lon="4.695">
        <ele>216</ele>
        <time>2017-02-19T12:32:08Z</time>
      </trkpt>
      <trkpt lat="46.66213" lon="4.69504">
        <ele>216</ele>
        <time>2017-02-19T12:32:09Z</time>
      </trkpt>
      <trkpt lat="46.66221" lon="4.69508">
        <ele>215</ele>
        <time>2017-02-19T12:32:10Z</time>
      </trkpt>
      <trkpt lat="46.6623" lon="4.69513">
        <ele>214</ele>
        <time>2017-02-19T12:32:11Z</time>
      </trkpt>
      <trkpt lat="46.66236" lon="4.69516">
        <ele>214</ele>
        <time>2017-02-19T12:32:12Z</time>
      </trkpt>
      <trkpt lat="46.66241" lon="4.6952">
        <ele>213</ele>
        <time>2017-02-19T12:32:13Z</time>
      </trkpt>
      <trkpt lat="46.66247" lon="4.69524">
        <ele>212</ele>
        <time>2017-02-19T12:32:14Z</time>
      </trkpt>
      <trkpt lat="46.66254" lon="4.69528">
        <ele>212</ele>
        <time>2017-02-19T12:32:15Z</time>
      </trkpt>
      <trkpt lat="46.66266" lon="4.69537">
        <ele>211</ele>
        <time>2017-02-19T12:32:17Z</time>
      </trkpt>
      <trkpt lat="46.66272" lon="4.69542">
        <ele>211</ele>
        <time>2017-02-19T12:32:18Z</time>
      </trkpt>
      <trkpt lat="46.6628" lon="4.69548">
        <ele>212</ele>
        <time>2017-02-19T12:32:19Z</time>
      </trkpt>
      <trkpt lat="46.66286" lon="4.69553">
        <ele>212</ele>
        <time>2017-02-19T12:32:20Z</time>
      </trkpt>
      <trkpt lat="46.66291" lon="4.69556">
        <ele>212</ele>
        <time>2017-02-19T12:32:21Z</time>
      </trkpt>
      <trkpt lat="46.66296" lon="4.6956">
        <ele>213</ele>
        <time>2017-02-19T12:32:22Z</time>
      </trkpt>
      <trkpt lat="46.66301" lon="4.69564">
        <ele>213</ele>
        <time>2017-02-19T12:32:23Z</time>
      </trkpt>
      <trkpt lat="46.66306" lon="4.69567">
        <ele>212</ele>
        <time>2017-02-19T12:32:24Z</time>
      </trkpt>
      <trkpt lat="46.66311" lon="4.69572">
        <ele>212</ele>
        <time>2017-02-19T12:32:25Z</time>
      </trkpt>
      <trkpt lat="46.66317" lon="4.69576">
        <ele>211</ele>
        <time>2017-02-19T12:32:26Z</time>
      </trkpt>
      <trkpt lat="46.66322" lon="4.69579">
        <ele>210</ele>
        <time>2017-02-19T12:32:27Z</time>
      </trkpt>
      <trkpt lat="46.66333" lon="4.69587">
        <ele>209</ele>
        <time>2017-02-19T12:32:29Z</time>
      </trkpt>
      <trkpt lat="46.66339" lon="4.69591">
        <ele>208</ele>
        <time>2017-02-19T12:32:30Z</time>
      </trkpt>
      <trkpt lat="46.66345" lon="4.69595">
        <ele>207</ele>
        <time>2017-02-19T12:32:31Z</time>
      </trkpt>
      <trkpt lat="46.6635" lon="4.69599">
        <ele>207</ele>
        <time>2017-02-19T12:32:32Z</time>
      </trkpt>
      <trkpt lat="46.66355" lon="4.69603">
        <ele>206</ele>
        <time>2017-02-19T12:32:33Z</time>
      </trkpt>
      <trkpt lat="46.6636" lon="4.69607">
        <ele>206</ele>
        <time>2017-02-19T12:32:34Z</time>
      </trkpt>
      <trkpt lat="46.66366" lon="4.69612">
        <ele>206</ele>
        <time>2017-02-19T12:32:35Z</time>
      </trkpt>
      <trkpt lat="46.66372" lon="4.69617">
        <ele>207</ele>
        <time>2017-02-19T12:32:36Z</time>
      </trkpt>
      <trkpt lat="46.66378" lon="4.6962">
        <ele>207</ele>
        <time>2017-02-19T12:32:37Z</time>
      </trkpt>
      <trkpt lat="46.66384" lon="4.69625">
        <ele>207</ele>
        <time>2017-02-19T12:32:38Z</time>
      </trkpt>
      <trkpt lat="46.6639" lon="4.6963">
        <ele>207</ele>
        <time>2017-02-19T12:32:39Z</time>
      </trkpt>
      <trkpt lat="46.66396" lon="4.69634">
        <ele>207</ele>
        <time>2017-02-19T12:32:40Z</time>
      </trkpt>
      <trkpt lat="46.66403" lon="4.69639">
        <ele>207</ele>
        <time>2017-02-19T12:32:41Z</time>
      </trkpt>
      <trkpt lat="46.6641" lon="4.69645">
        <ele>206</ele>
        <time>2017-02-19T12:32:42Z</time>
      </trkpt>
      <trkpt lat="46.66417" lon="4.69648">
        <ele>206</ele>
        <time>2017-02-19T12:32:43Z</time>
      </trkpt>
      <trkpt lat="46.66423" lon="4.69651">
        <ele>205</ele>
        <time>2017-02-19T12:32:44Z</time>
      </trkpt>
      <trkpt lat="46.66427" lon="4.69653">
        <ele>205</ele>
        <time>2017-02-19T12:32:45Z</time>
      </trkpt>
      <trkpt lat="46.66432" lon="4.69657">
        <ele>204</ele>
        <time>2017-02-19T12:32:46Z</time>
      </trkpt>
      <trkpt lat="46.66438" lon="4.6966">
        <ele>203</ele>
        <time>2017-02-19T12:32:47Z</time>
      </trkpt>
      <trkpt lat="46.66444" lon="4.69666">
        <ele>202</ele>
        <time>2017-02-19T12:32:48Z</time>
      </trkpt>
      <trkpt lat="46.66449" lon="4.69672">
        <ele>202</ele>
        <time>2017-02-19T12:32:49Z</time>
      </trkpt>
      <trkpt lat="46.66455" lon="4.69679">
        <ele>202</ele>
        <time>2017-02-19T12:32:50Z</time>
      </trkpt>
      <trkpt lat="46.6646" lon="4.69684">
        <ele>203</ele>
        <time>2017-02-19T12:32:51Z</time>
      </trkpt>
      <trkpt lat="46.66466" lon="4.69689">
        <ele>203</ele>
        <time>2017-02-19T12:32:52Z</time>
      </trkpt>
      <trkpt lat="46.66472" lon="4.69693">
        <ele>204</ele>
        <time>2017-02-19T12:32:53Z</time>
      </trkpt>
      <trkpt lat="46.66478" lon="4.69698">
        <ele>205</ele>
        <time>2017-02-19T12:32:54Z</time>
      </trkpt>
      <trkpt lat="46.66483" lon="4.69703">
        <ele>205</ele>
        <time>2017-02-19T12:32:55Z</time>
      </trkpt>
      <trkpt lat="46.66488" lon="4.69708">
        <ele>206</ele>
        <time>2017-02-19T12:32:56Z</time>
      </trkpt>
      <trkpt lat="46.66493" lon="4.69712">
        <ele>206</ele>
        <time>2017-02-19T12:32:57Z</time>
      </trkpt>
      <trkpt lat="46.66498" lon="4.69716">
        <ele>207</ele>
        <time>2017-02-19T12:32:58Z</time>
      </trkpt>
      <trkpt lat="46.66503" lon="4.6972">
        <ele>207</ele>
        <time>2017-02-19T12:32:59Z</time>
      </trkpt>
      <trkpt lat="46.66507" lon="4.69725">
        <ele>207</ele>
        <time>2017-02-19T12:33:00Z</time>
      </trkpt>
      <trkpt lat="46.66512" lon="4.69728">
        <ele>207</ele>
        <time>2017-02-19T12:33:01Z</time>
      </trkpt>
      <trkpt lat="46.66517" lon="4.69731">
        <ele>207</ele>
        <time>2017-02-19T12:33:02Z</time>
      </trkpt>
      <trkpt lat="46.66522" lon="4.69735">
        <ele>207</ele>
        <time>2017-02-19T12:33:03Z</time>
      </trkpt>
      <trkpt lat="46.66527" lon="4.6974">
        <ele>207</ele>
        <time>2017-02-19T12:33:04Z</time>
      </trkpt>
      <trkpt lat="46.66532" lon="4.69744">
        <ele>207</ele>
        <time>2017-02-19T12:33:05Z</time>
      </trkpt>
      <trkpt lat="46.66537" lon="4.69749">
        <ele>207</ele>
        <time>2017-02-19T12:33:06Z</time>
      </trkpt>
      <trkpt lat="46.66542" lon="4.69754">
        <ele>208</ele>
        <time>2017-02-19T12:33:07Z</time>
      </trkpt>
      <trkpt lat="46.66548" lon="4.6976">
        <ele>208</ele>
        <time>2017-02-19T12:33:08Z</time>
      </trkpt>
      <trkpt lat="46.66554" lon="4.69764">
        <ele>208</ele>
        <time>2017-02-19T12:33:09Z</time>
      </trkpt>
      <trkpt lat="46.66561" lon="4.69768">
        <ele>208</ele>
        <time>2017-02-19T12:33:10Z</time>
      </trkpt>
      <trkpt lat="46.66567" lon="4.69771">
        <ele>208</ele>
        <time>2017-02-19T12:33:11Z</time>
      </trkpt>
      <trkpt lat="46.66571" lon="4.69776">
        <ele>208</ele>
        <time>2017-02-19T12:33:12Z</time>
      </trkpt>
      <trkpt lat="46.66575" lon="4.69781">
        <ele>208</ele>
        <time>2017-02-19T12:33:13Z</time>
      </trkpt>
      <trkpt lat="46.66578" lon="4.69785">
        <ele>209</ele>
        <time>2017-02-19T12:33:14Z</time>
      </trkpt>
      <trkpt lat="46.66583" lon="4.69789">
        <ele>209</ele>
        <time>2017-02-19T12:33:15Z</time>
      </trkpt>
      <trkpt lat="46.66588" lon="4.69792">
        <ele>209</ele>
        <time>2017-02-19T12:33:16Z</time>
      </trkpt>
      <trkpt lat="46.66595" lon="4.69798">
        <ele>209</ele>
        <time>2017-02-19T12:33:18Z</time>
      </trkpt>
      <trkpt lat="46.666" lon="4.69805">
        <ele>208</ele>
        <time>2017-02-19T12:33:20Z</time>
      </trkpt>
      <trkpt lat="46.66604" lon="4.69809">
        <ele>208</ele>
        <time>2017-02-19T12:33:21Z</time>
      </trkpt>
      <trkpt lat="46.6661" lon="4.69816">
        <ele>207</ele>
        <time>2017-02-19T12:33:23Z</time>
      </trkpt>
      <trkpt lat="46.66615" lon="4.69819">
        <ele>206</ele>
        <time>2017-02-19T12:33:24Z</time>
      </trkpt>
      <trkpt lat="46.6662" lon="4.69824">
        <ele>205</ele>
        <time>2017-02-19T12:33:25Z</time>
      </trkpt>
      <trkpt lat="46.66625" lon="4.69828">
        <ele>204</ele>
        <time>2017-02-19T12:33:26Z</time>
      </trkpt>
      <trkpt lat="46.66631" lon="4.69833">
        <ele>203</ele>
        <time>2017-02-19T12:33:28Z</time>
      </trkpt>
      <trkpt lat="46.66635" lon="4.69837">
        <ele>203</ele>
        <time>2017-02-19T12:33:29Z</time>
      </trkpt>
      <trkpt lat="46.66639" lon="4.69841">
        <ele>202</ele>
        <time>2017-02-19T12:33:30Z</time>
      </trkpt>
      <trkpt lat="46.66644" lon="4.69843">
        <ele>201</ele>
        <time>2017-02-19T12:33:31Z</time>
      </trkpt>
      <trkpt lat="46.66648" lon="4.69847">
        <ele>201</ele>
        <time>2017-02-19T12:33:32Z</time>
      </trkpt>
      <trkpt lat="46.66652" lon="4.69851">
        <ele>200</ele>
        <time>2017-02-19T12:33:33Z</time>
      </trkpt>
      <trkpt lat="46.66656" lon="4.69855">
        <ele>199</ele>
        <time>2017-02-19T12:33:34Z</time>
      </trkpt>
      <trkpt lat="46.6666" lon="4.69858">
        <ele>199</ele>
        <time>2017-02-19T12:33:35Z</time>
      </trkpt>
      <trkpt lat="46.66668" lon="4.69866">
        <ele>198</ele>
        <time>2017-02-19T12:33:37Z</time>
      </trkpt>
      <trkpt lat="46.66671" lon="4.69871">
        <ele>197</ele>
        <time>2017-02-19T12:33:38Z</time>
      </trkpt>
      <trkpt lat="46.66676" lon="4.69876">
        <ele>197</ele>
        <time>2017-02-19T12:33:39Z</time>
      </trkpt>
      <trkpt lat="46.6668" lon="4.6988">
        <ele>196</ele>
        <time>2017-02-19T12:33:40Z</time>
      </trkpt>
      <trkpt lat="46.66685" lon="4.69884">
        <ele>195</ele>
        <time>2017-02-19T12:33:41Z</time>
      </trkpt>
      <trkpt lat="46.66691" lon="4.69887">
        <ele>195</ele>
        <time>2017-02-19T12:33:42Z</time>
      </trkpt>
      <trkpt lat="46.66697" lon="4.6989">
        <ele>194</ele>
        <time>2017-02-19T12:33:43Z</time>
      </trkpt>
      <trkpt lat="46.66702" lon="4.69893">
        <ele>194</ele>
        <time>2017-02-19T12:33:44Z</time>
      </trkpt>
      <trkpt lat="46.66707" lon="4.69897">
        <ele>194</ele>
        <time>2017-02-19T12:33:45Z</time>
      </trkpt>
      <trkpt lat="46.66712" lon="4.69899">
        <ele>194</ele>
        <time>2017-02-19T12:33:46Z</time>
      </trkpt>
      <trkpt lat="46.66721" lon="4.69903">
        <ele>193</ele>
        <time>2017-02-19T12:33:48Z</time>
      </trkpt>
      <trkpt lat="46.66737" lon="4.69905">
        <ele>194</ele>
        <time>2017-02-19T12:33:49Z</time>
      </trkpt>
      <trkpt lat="46.66744" lon="4.69907">
        <ele>195</ele>
        <time>2017-02-19T12:33:51Z</time>
      </trkpt>
      <trkpt lat="46.6675" lon="4.69912">
        <ele>196</ele>
        <time>2017-02-19T12:33:53Z</time>
      </trkpt>
      <trkpt lat="46.66755" lon="4.6992">
        <ele>197</ele>
        <time>2017-02-19T12:33:55Z</time>
      </trkpt>
      <trkpt lat="46.66761" lon="4.69929">
        <ele>199</ele>
        <time>2017-02-19T12:33:57Z</time>
      </trkpt>
      <trkpt lat="46.66768" lon="4.69937">
        <ele>199</ele>
        <time>2017-02-19T12:33:59Z</time>
      </trkpt>
      <trkpt lat="46.66772" lon="4.69941">
        <ele>199</ele>
        <time>2017-02-19T12:34:00Z</time>
      </trkpt>
      <trkpt lat="46.66778" lon="4.69944">
        <ele>199</ele>
        <time>2017-02-19T12:34:01Z</time>
      </trkpt>
      <trkpt lat="46.66783" lon="4.69946">
        <ele>199</ele>
        <time>2017-02-19T12:34:02Z</time>
      </trkpt>
      <trkpt lat="46.6679" lon="4.69949">
        <ele>198</ele>
        <time>2017-02-19T12:34:03Z</time>
      </trkpt>
      <trkpt lat="46.66795" lon="4.69952">
        <ele>198</ele>
        <time>2017-02-19T12:34:04Z</time>
      </trkpt>
      <trkpt lat="46.66799" lon="4.69956">
        <ele>198</ele>
        <time>2017-02-19T12:34:05Z</time>
      </trkpt>
      <trkpt lat="46.66803" lon="4.69958">
        <ele>198</ele>
        <time>2017-02-19T12:34:06Z</time>
      </trkpt>
      <trkpt lat="46.6681" lon="4.69962">
        <ele>198</ele>
        <time>2017-02-19T12:34:08Z</time>
      </trkpt>
      <trkpt lat="46.66816" lon="4.69967">
        <ele>198</ele>
        <time>2017-02-19T12:34:10Z</time>
      </trkpt>
      <trkpt lat="46.6682" lon="4.6997">
        <ele>198</ele>
        <time>2017-02-19T12:34:11Z</time>
      </trkpt>
      <trkpt lat="46.66824" lon="4.69974">
        <ele>198</ele>
        <time>2017-02-19T12:34:12Z</time>
      </trkpt>
      <trkpt lat="46.66832" lon="4.69982">
        <ele>198</ele>
        <time>2017-02-19T12:34:14Z</time>
      </trkpt>
      <trkpt lat="46.66839" lon="4.69989">
        <ele>198</ele>
        <time>2017-02-19T12:34:16Z</time>
      </trkpt>
      <trkpt lat="46.66843" lon="4.69993">
        <ele>198</ele>
        <time>2017-02-19T12:34:17Z</time>
      </trkpt>
      <trkpt lat="46.66848" lon="4.69997">
        <ele>198</ele>
        <time>2017-02-19T12:34:18Z</time>
      </trkpt>
      <trkpt lat="46.66852" lon="4.70001">
        <ele>197</ele>
        <time>2017-02-19T12:34:19Z</time>
      </trkpt>
      <trkpt lat="46.66856" lon="4.70004">
        <ele>197</ele>
        <time>2017-02-19T12:34:20Z</time>
      </trkpt>
      <trkpt lat="46.66861" lon="4.70008">
        <ele>197</ele>
        <time>2017-02-19T12:34:21Z</time>
      </trkpt>
      <trkpt lat="46.66867" lon="4.7001">
        <ele>197</ele>
        <time>2017-02-19T12:34:22Z</time>
      </trkpt>
      <trkpt lat="46.66871" lon="4.70012">
        <ele>197</ele>
        <time>2017-02-19T12:34:23Z</time>
      </trkpt>
      <trkpt lat="46.66876" lon="4.70014">
        <ele>196</ele>
        <time>2017-02-19T12:34:24Z</time>
      </trkpt>
      <trkpt lat="46.66885" lon="4.70019">
        <ele>195</ele>
        <time>2017-02-19T12:34:26Z</time>
      </trkpt>
      <trkpt lat="46.66893" lon="4.70026">
        <ele>194</ele>
        <time>2017-02-19T12:34:28Z</time>
      </trkpt>
      <trkpt lat="46.66897" lon="4.70029">
        <ele>192</ele>
        <time>2017-02-19T12:34:29Z</time>
      </trkpt>
      <trkpt lat="46.66902" lon="4.70034">
        <ele>191</ele>
        <time>2017-02-19T12:34:30Z</time>
      </trkpt>
      <trkpt lat="46.66909" lon="4.70038">
        <ele>190</ele>
        <time>2017-02-19T12:34:31Z</time>
      </trkpt>
      <trkpt lat="46.66915" lon="4.70042">
        <ele>190</ele>
        <time>2017-02-19T12:34:32Z</time>
      </trkpt>
      <trkpt lat="46.66921" lon="4.70045">
        <ele>190</ele>
        <time>2017-02-19T12:34:33Z</time>
      </trkpt>
      <trkpt lat="46.66925" lon="4.70048">
        <ele>190</ele>
        <time>2017-02-19T12:34:34Z</time>
      </trkpt>
      <trkpt lat="46.66929" lon="4.70052">
        <ele>190</ele>
        <time>2017-02-19T12:34:35Z</time>
      </trkpt>
      <trkpt lat="46.66933" lon="4.70056">
        <ele>190</ele>
        <time>2017-02-19T12:34:36Z</time>
      </trkpt>
      <trkpt lat="46.66939" lon="4.70059">
        <ele>191</ele>
        <time>2017-02-19T12:34:37Z</time>
      </trkpt>
      <trkpt lat="46.66945" lon="4.70062">
        <ele>191</ele>
        <time>2017-02-19T12:34:38Z</time>
      </trkpt>
      <trkpt lat="46.6695" lon="4.70063">
        <ele>191</ele>
        <time>2017-02-19T12:34:39Z</time>
      </trkpt>
      <trkpt lat="46.66954" lon="4.70066">
        <ele>191</ele>
        <time>2017-02-19T12:34:40Z</time>
      </trkpt>
      <trkpt lat="46.66959" lon="4.70072">
        <ele>192</ele>
        <time>2017-02-19T12:34:42Z</time>
      </trkpt>
      <trkpt lat="46.66965" lon="4.70074">
        <ele>193</ele>
        <time>2017-02-19T12:34:44Z</time>
      </trkpt>
      <trkpt lat="46.66972" lon="4.70076">
        <ele>192</ele>
        <time>2017-02-19T12:34:46Z</time>
      </trkpt>
      <trkpt lat="46.66976" lon="4.70079">
        <ele>192</ele>
        <time>2017-02-19T12:34:47Z</time>
      </trkpt>
      <trkpt lat="46.66982" lon="4.70086">
        <ele>192</ele>
        <time>2017-02-19T12:34:49Z</time>
      </trkpt>
      <trkpt lat="46.66989" lon="4.7009">
        <ele>191</ele>
        <time>2017-02-19T12:34:51Z</time>
      </trkpt>
      <trkpt lat="46.66998" lon="4.70093">
        <ele>191</ele>
        <time>2017-02-19T12:34:53Z</time>
      </trkpt>
      <trkpt lat="46.67005" lon="4.70096">
        <ele>191</ele>
        <time>2017-02-19T12:34:55Z</time>
      </trkpt>
      <trkpt lat="46.67014" lon="4.70101">
        <ele>190</ele>
        <time>2017-02-19T12:34:57Z</time>
      </trkpt>
      <trkpt lat="46.67018" lon="4.70101">
        <ele>189</ele>
        <time>2017-02-19T12:34:58Z</time>
      </trkpt>
      <trkpt lat="46.67027" lon="4.70105">
        <ele>186</ele>
        <time>2017-02-19T12:35:00Z</time>
      </trkpt>
      <trkpt lat="46.67033" lon="4.70108">
        <ele>184</ele>
        <time>2017-02-19T12:35:01Z</time>
      </trkpt>
      <trkpt lat="46.67039" lon="4.70111">
        <ele>183</ele>
        <time>2017-02-19T12:35:02Z</time>
      </trkpt>
      <trkpt lat="46.67045" lon="4.70113">
        <ele>181</ele>
        <time>2017-02-19T12:35:03Z</time>
      </trkpt>
      <trkpt lat="46.67051" lon="4.70114">
        <ele>181</ele>
        <time>2017-02-19T12:35:04Z</time>
      </trkpt>
      <trkpt lat="46.67059" lon="4.70116">
        <ele>181</ele>
        <time>2017-02-19T12:35:05Z</time>
      </trkpt>
      <trkpt lat="46.67064" lon="4.70118">
        <ele>181</ele>
        <time>2017-02-19T12:35:06Z</time>
      </trkpt>
      <trkpt lat="46.67069" lon="4.70121">
        <ele>181</ele>
        <time>2017-02-19T12:35:07Z</time>
      </trkpt>
      <trkpt lat="46.67075" lon="4.70123">
        <ele>182</ele>
        <time>2017-02-19T12:35:08Z</time>
      </trkpt>
      <trkpt lat="46.67087" lon="4.70124">
        <ele>182</ele>
        <time>2017-02-19T12:35:10Z</time>
      </trkpt>
      <trkpt lat="46.67093" lon="4.70124">
        <ele>183</ele>
        <time>2017-02-19T12:35:11Z</time>
      </trkpt>
      <trkpt lat="46.67099" lon="4.70124">
        <ele>183</ele>
        <time>2017-02-19T12:35:12Z</time>
      </trkpt>
      <trkpt lat="46.67104" lon="4.70124">
        <ele>184</ele>
        <time>2017-02-19T12:35:13Z</time>
      </trkpt>
      <trkpt lat="46.67111" lon="4.70125">
        <ele>185</ele>
        <time>2017-02-19T12:35:15Z</time>
      </trkpt>
      <trkpt lat="46.67116" lon="4.70126">
        <ele>185</ele>
        <time>2017-02-19T12:35:18Z</time>
      </trkpt>
      <trkpt lat="46.67122" lon="4.70125">
        <ele>184</ele>
        <time>2017-02-19T12:35:21Z</time>
      </trkpt>
      <trkpt lat="46.67126" lon="4.7013">
        <ele>182</ele>
        <time>2017-02-19T12:35:25Z</time>
      </trkpt>
      <trkpt lat="46.67133" lon="4.70128">
        <ele>179</ele>
        <time>2017-02-19T12:35:27Z</time>
      </trkpt>
      <trkpt lat="46.67138" lon="4.70127">
        <ele>176</ele>
        <time>2017-02-19T12:35:29Z</time>
      </trkpt>
      <trkpt lat="46.67144" lon="4.70127">
        <ele>174</ele>
        <time>2017-02-19T12:35:31Z</time>
      </trkpt>
      <trkpt lat="46.6717" lon="4.70131">
        <ele>172</ele>
        <time>2017-02-19T12:35:34Z</time>
      </trkpt>
      <trkpt lat="46.67176" lon="4.7013">
        <ele>173</ele>
        <time>2017-02-19T12:35:36Z</time>
      </trkpt>
      <trkpt lat="46.6718" lon="4.70127">
        <ele>173</ele>
        <time>2017-02-19T12:35:38Z</time>
      </trkpt>
      <trkpt lat="46.67198" lon="4.7013">
        <ele>174</ele>
        <time>2017-02-19T12:35:40Z</time>
      </trkpt>
      <trkpt lat="46.67204" lon="4.7013">
        <ele>174</ele>
        <time>2017-02-19T12:35:42Z</time>
      </trkpt>
      <trkpt lat="46.6721" lon="4.7013">
        <ele>172</ele>
        <time>2017-02-19T12:35:44Z</time>
      </trkpt>
      <trkpt lat="46.67231" lon="4.70125">
        <ele>172</ele>
        <time>2017-02-19T12:35:46Z</time>
      </trkpt>
      <trkpt lat="46.67237" lon="4.70124">
        <ele>173</ele>
        <time>2017-02-19T12:35:47Z</time>
      </trkpt>
      <trkpt lat="46.67242" lon="4.70124">
        <ele>174</ele>
        <time>2017-02-19T12:35:48Z</time>
      </trkpt>
      <trkpt lat="46.67249" lon="4.70124">
        <ele>175</ele>
        <time>2017-02-19T12:35:49Z</time>
      </trkpt>
      <trkpt lat="46.67255" lon="4.70124">
        <ele>177</ele>
        <time>2017-02-19T12:35:50Z</time>
      </trkpt>
      <trkpt lat="46.67262" lon="4.70124">
        <ele>178</ele>
        <time>2017-02-19T12:35:51Z</time>
      </trkpt>
      <trkpt lat="46.67275" lon="4.70123">
        <ele>179</ele>
        <time>2017-02-19T12:35:53Z</time>
      </trkpt>
      <trkpt lat="46.67283" lon="4.70122">
        <ele>179</ele>
        <time>2017-02-19T12:35:54Z</time>
      </trkpt>
      <trkpt lat="46.67289" lon="4.70122">
        <ele>180</ele>
        <time>2017-02-19T12:35:55Z</time>
      </trkpt>
      <trkpt lat="46.67296" lon="4.70121">
        <ele>180</ele>
        <time>2017-02-19T12:35:56Z</time>
      </trkpt>
      <trkpt lat="46.67304" lon="4.70122">
        <ele>181</ele>
        <time>2017-02-19T12:35:57Z</time>
      </trkpt>
      <trkpt lat="46.67312" lon="4.70121">
        <ele>181</ele>
        <time>2017-02-19T12:35:58Z</time>
      </trkpt>
      <trkpt lat="46.6732" lon="4.7012">
        <ele>182</ele>
        <time>2017-02-19T12:35:59Z</time>
      </trkpt>
      <trkpt lat="46.67329" lon="4.70119">
        <ele>182</ele>
        <time>2017-02-19T12:36:00Z</time>
      </trkpt>
      <trkpt lat="46.67339" lon="4.70117">
        <ele>183</ele>
        <time>2017-02-19T12:36:01Z</time>
      </trkpt>
      <trkpt lat="46.6735" lon="4.70115">
        <ele>185</ele>
        <time>2017-02-19T12:36:02Z</time>
      </trkpt>
      <trkpt lat="46.6736" lon="4.70114">
        <ele>187</ele>
        <time>2017-02-19T12:36:03Z</time>
      </trkpt>
      <trkpt lat="46.6737" lon="4.70112">
        <ele>189</ele>
        <time>2017-02-19T12:36:04Z</time>
      </trkpt>
      <trkpt lat="46.6738" lon="4.7011">
        <ele>191</ele>
        <time>2017-02-19T12:36:05Z</time>
      </trkpt>
      <trkpt lat="46.6739" lon="4.70108">
        <ele>193</ele>
        <time>2017-02-19T12:36:06Z</time>
      </trkpt>
      <trkpt lat="46.67401" lon="4.70107">
        <ele>195</ele>
        <time>2017-02-19T12:36:07Z</time>
      </trkpt>
      <trkpt lat="46.67412" lon="4.70106">
        <ele>197</ele>
        <time>2017-02-19T12:36:08Z</time>
      </trkpt>
      <trkpt lat="46.6742" lon="4.70106">
        <ele>197</ele>
        <time>2017-02-19T12:36:09Z</time>
      </trkpt>
      <trkpt lat="46.67428" lon="4.70106">
        <ele>198</ele>
        <time>2017-02-19T12:36:10Z</time>
      </trkpt>
      <trkpt lat="46.67437" lon="4.70106">
        <ele>199</ele>
        <time>2017-02-19T12:36:11Z</time>
      </trkpt>
      <trkpt lat="46.67445" lon="4.70106">
        <ele>199</ele>
        <time>2017-02-19T12:36:12Z</time>
      </trkpt>
      <trkpt lat="46.67454" lon="4.70106">
        <ele>199</ele>
        <time>2017-02-19T12:36:13Z</time>
      </trkpt>
      <trkpt lat="46.67462" lon="4.70106">
        <ele>199</ele>
        <time>2017-02-19T12:36:14Z</time>
      </trkpt>
      <trkpt lat="46.67472" lon="4.70107">
        <ele>200</ele>
        <time>2017-02-19T12:36:15Z</time>
      </trkpt>
      <trkpt lat="46.6748" lon="4.70108">
        <ele>200</ele>
        <time>2017-02-19T12:36:16Z</time>
      </trkpt>
      <trkpt lat="46.6749" lon="4.70109">
        <ele>201</ele>
        <time>2017-02-19T12:36:17Z</time>
      </trkpt>
      <trkpt lat="46.675" lon="4.7011">
        <ele>202</ele>
        <time>2017-02-19T12:36:18Z</time>
      </trkpt>
      <trkpt lat="46.67509" lon="4.7011">
        <ele>203</ele>
        <time>2017-02-19T12:36:19Z</time>
      </trkpt>
      <trkpt lat="46.67519" lon="4.7011">
        <ele>204</ele>
        <time>2017-02-19T12:36:20Z</time>
      </trkpt>
      <trkpt lat="46.67529" lon="4.70111">
        <ele>205</ele>
        <time>2017-02-19T12:36:21Z</time>
      </trkpt>
      <trkpt lat="46.67539" lon="4.70112">
        <ele>206</ele>
        <time>2017-02-19T12:36:22Z</time>
      </trkpt>
      <trkpt lat="46.67548" lon="4.70113">
        <ele>208</ele>
        <time>2017-02-19T12:36:23Z</time>
      </trkpt>
      <trkpt lat="46.67557" lon="4.70114">
        <ele>209</ele>
        <time>2017-02-19T12:36:24Z</time>
      </trkpt>
      <trkpt lat="46.67565" lon="4.70115">
        <ele>210</ele>
        <time>2017-02-19T12:36:25Z</time>
      </trkpt>
      <trkpt lat="46.67574" lon="4.70116">
        <ele>211</ele>
        <time>2017-02-19T12:36:26Z</time>
      </trkpt>
      <trkpt lat="46.67582" lon="4.70117">
        <ele>213</ele>
        <time>2017-02-19T12:36:27Z</time>
      </trkpt>
      <trkpt lat="46.67589" lon="4.70119">
        <ele>214</ele>
        <time>2017-02-19T12:36:28Z</time>
      </trkpt>
      <trkpt lat="46.67597" lon="4.7012">
        <ele>214</ele>
        <time>2017-02-19T12:36:29Z</time>
      </trkpt>
      <trkpt lat="46.67604" lon="4.70122">
        <ele>215</ele>
        <time>2017-02-19T12:36:30Z</time>
      </trkpt>
      <trkpt lat="46.67611" lon="4.70124">
        <ele>216</ele>
        <time>2017-02-19T12:36:31Z</time>
      </trkpt>
      <trkpt lat="46.67619" lon="4.70126">
        <ele>217</ele>
        <time>2017-02-19T12:36:32Z</time>
      </trkpt>
      <trkpt lat="46.67625" lon="4.70129">
        <ele>218</ele>
        <time>2017-02-19T12:36:33Z</time>
      </trkpt>
      <trkpt lat="46.67632" lon="4.70131">
        <ele>219</ele>
        <time>2017-02-19T12:36:34Z</time>
      </trkpt>
      <trkpt lat="46.67638" lon="4.70132">
        <ele>220</ele>
        <time>2017-02-19T12:36:35Z</time>
      </trkpt>
      <trkpt lat="46.67645" lon="4.70134">
        <ele>221</ele>
        <time>2017-02-19T12:36:36Z</time>
      </trkpt>
      <trkpt lat="46.67651" lon="4.70134">
        <ele>222</ele>
        <time>2017-02-19T12:36:37Z</time>
      </trkpt>
      <trkpt lat="46.67658" lon="4.70134">
        <ele>222</ele>
        <time>2017-02-19T12:36:38Z</time>
      </trkpt>
      <trkpt lat="46.67666" lon="4.70135">
        <ele>223</ele>
        <time>2017-02-19T12:36:39Z</time>
      </trkpt>
      <trkpt lat="46.67673" lon="4.70135">
        <ele>223</ele>
        <time>2017-02-19T12:36:40Z</time>
      </trkpt>
      <trkpt lat="46.67682" lon="4.70137">
        <ele>224</ele>
        <time>2017-02-19T12:36:41Z</time>
      </trkpt>
      <trkpt lat="46.6769" lon="4.70137">
        <ele>224</ele>
        <time>2017-02-19T12:36:42Z</time>
      </trkpt>
      <trkpt lat="46.67699" lon="4.70136">
        <ele>225</ele>
        <time>2017-02-19T12:36:43Z</time>
      </trkpt>
      <trkpt lat="46.67709" lon="4.70135">
        <ele>226</ele>
        <time>2017-02-19T12:36:44Z</time>
      </trkpt>
      <trkpt lat="46.67717" lon="4.70135">
        <ele>227</ele>
        <time>2017-02-19T12:36:45Z</time>
      </trkpt>
      <trkpt lat="46.67725" lon="4.70136">
        <ele>227</ele>
        <time>2017-02-19T12:36:46Z</time>
      </trkpt>
      <trkpt lat="46.67733" lon="4.70139">
        <ele>228</ele>
        <time>2017-02-19T12:36:47Z</time>
      </trkpt>
      <trkpt lat="46.6774" lon="4.7014">
        <ele>229</ele>
        <time>2017-02-19T12:36:48Z</time>
      </trkpt>
      <trkpt lat="46.67747" lon="4.70143">
        <ele>229</ele>
        <time>2017-02-19T12:36:49Z</time>
      </trkpt>
      <trkpt lat="46.67754" lon="4.70146">
        <ele>230</ele>
        <time>2017-02-19T12:36:50Z</time>
      </trkpt>
      <trkpt lat="46.67762" lon="4.70148">
        <ele>231</ele>
        <time>2017-02-19T12:36:51Z</time>
      </trkpt>
      <trkpt lat="46.67769" lon="4.7015">
        <ele>232</ele>
        <time>2017-02-19T12:36:52Z</time>
      </trkpt>
      <trkpt lat="46.67777" lon="4.70153">
        <ele>233</ele>
        <time>2017-02-19T12:36:53Z</time>
      </trkpt>
      <trkpt lat="46.67785" lon="4.70155">
        <ele>234</ele>
        <time>2017-02-19T12:36:54Z</time>
      </trkpt>
      <trkpt lat="46.67793" lon="4.70157">
        <ele>235</ele>
        <time>2017-02-19T12:36:55Z</time>
      </trkpt>
      <trkpt lat="46.678" lon="4.70159">
        <ele>236</ele>
        <time>2017-02-19T12:36:56Z</time>
      </trkpt>
      <trkpt lat="46.67807" lon="4.70161">
        <ele>237</ele>
        <time>2017-02-19T12:36:57Z</time>
      </trkpt>
      <trkpt lat="46.67813" lon="4.70164">
        <ele>238</ele>
        <time>2017-02-19T12:36:58Z</time>
      </trkpt>
      <trkpt lat="46.67819" lon="4.70166">
        <ele>238</ele>
        <time>2017-02-19T12:36:59Z</time>
      </trkpt>
      <trkpt lat="46.67825" lon="4.70168">
        <ele>238</ele>
        <time>2017-02-19T12:37:00Z</time>
      </trkpt>
      <trkpt lat="46.67833" lon="4.7017">
        <ele>238</ele>
        <time>2017-02-19T12:37:01Z</time>
      </trkpt>
      <trkpt lat="46.6784" lon="4.70171">
        <ele>239</ele>
        <time>2017-02-19T12:37:02Z</time>
      </trkpt>
      <trkpt lat="46.67847" lon="4.70173">
        <ele>239</ele>
        <time>2017-02-19T12:37:03Z</time>
      </trkpt>
      <trkpt lat="46.67854" lon="4.70175">
        <ele>239</ele>
        <time>2017-02-19T12:37:04Z</time>
      </trkpt>
      <trkpt lat="46.67861" lon="4.70178">
        <ele>239</ele>
        <time>2017-02-19T12:37:05Z</time>
      </trkpt>
      <trkpt lat="46.67868" lon="4.7018">
        <ele>239</ele>
        <time>2017-02-19T12:37:06Z</time>
      </trkpt>
      <trkpt lat="46.67875" lon="4.70181">
        <ele>239</ele>
        <time>2017-02-19T12:37:07Z</time>
      </trkpt>
      <trkpt lat="46.67883" lon="4.70183">
        <ele>240</ele>
        <time>2017-02-19T12:37:08Z</time>
      </trkpt>
      <trkpt lat="46.6789" lon="4.70185">
        <ele>240</ele>
        <time>2017-02-19T12:37:09Z</time>
      </trkpt>
      <trkpt lat="46.67897" lon="4.70187">
        <ele>241</ele>
        <time>2017-02-19T12:37:10Z</time>
      </trkpt>
      <trkpt lat="46.67904" lon="4.70189">
        <ele>241</ele>
        <time>2017-02-19T12:37:11Z</time>
      </trkpt>
      <trkpt lat="46.67911" lon="4.70192">
        <ele>242</ele>
        <time>2017-02-19T12:37:12Z</time>
      </trkpt>
      <trkpt lat="46.67918" lon="4.70195">
        <ele>243</ele>
        <time>2017-02-19T12:37:13Z</time>
      </trkpt>
      <trkpt lat="46.67924" lon="4.70198">
        <ele>243</ele>
        <time>2017-02-19T12:37:14Z</time>
      </trkpt>
      <trkpt lat="46.6793" lon="4.702">
        <ele>244</ele>
        <time>2017-02-19T12:37:15Z</time>
      </trkpt>
      <trkpt lat="46.67936" lon="4.70204">
        <ele>244</ele>
        <time>2017-02-19T12:37:16Z</time>
      </trkpt>
      <trkpt lat="46.67942" lon="4.70204">
        <ele>244</ele>
        <time>2017-02-19T12:37:17Z</time>
      </trkpt>
      <trkpt lat="46.67949" lon="4.70204">
        <ele>243</ele>
        <time>2017-02-19T12:37:18Z</time>
      </trkpt>
      <trkpt lat="46.67955" lon="4.70205">
        <ele>242</ele>
        <time>2017-02-19T12:37:19Z</time>
      </trkpt>
      <trkpt lat="46.67962" lon="4.70205">
        <ele>242</ele>
        <time>2017-02-19T12:37:20Z</time>
      </trkpt>
      <trkpt lat="46.67969" lon="4.70206">
        <ele>241</ele>
        <time>2017-02-19T12:37:21Z</time>
      </trkpt>
      <trkpt lat="46.67978" lon="4.70207">
        <ele>240</ele>
        <time>2017-02-19T12:37:22Z</time>
      </trkpt>
      <trkpt lat="46.67986" lon="4.70209">
        <ele>239</ele>
        <time>2017-02-19T12:37:23Z</time>
      </trkpt>
      <trkpt lat="46.67993" lon="4.70212">
        <ele>239</ele>
        <time>2017-02-19T12:37:24Z</time>
      </trkpt>
      <trkpt lat="46.68" lon="4.70215">
        <ele>238</ele>
        <time>2017-02-19T12:37:25Z</time>
      </trkpt>
      <trkpt lat="46.68008" lon="4.70217">
        <ele>238</ele>
        <time>2017-02-19T12:37:26Z</time>
      </trkpt>
      <trkpt lat="46.68016" lon="4.70219">
        <ele>237</ele>
        <time>2017-02-19T12:37:27Z</time>
      </trkpt>
      <trkpt lat="46.68024" lon="4.70219">
        <ele>237</ele>
        <time>2017-02-19T12:37:28Z</time>
      </trkpt>
      <trkpt lat="46.68032" lon="4.70219">
        <ele>237</ele>
        <time>2017-02-19T12:37:29Z</time>
      </trkpt>
      <trkpt lat="46.68041" lon="4.7022">
        <ele>237</ele>
        <time>2017-02-19T12:37:30Z</time>
      </trkpt>
      <trkpt lat="46.68049" lon="4.70221">
        <ele>238</ele>
        <time>2017-02-19T12:37:31Z</time>
      </trkpt>
      <trkpt lat="46.68057" lon="4.70223">
        <ele>238</ele>
        <time>2017-02-19T12:37:32Z</time>
      </trkpt>
      <trkpt lat="46.68063" lon="4.70226">
        <ele>238</ele>
        <time>2017-02-19T12:37:33Z</time>
      </trkpt>
      <trkpt lat="46.6807" lon="4.70227">
        <ele>238</ele>
        <time>2017-02-19T12:37:34Z</time>
      </trkpt>
      <trkpt lat="46.68078" lon="4.70228">
        <ele>238</ele>
        <time>2017-02-19T12:37:35Z</time>
      </trkpt>
      <trkpt lat="46.68086" lon="4.70229">
        <ele>237</ele>
        <time>2017-02-19T12:37:36Z</time>
      </trkpt>
      <trkpt lat="46.68094" lon="4.7023">
        <ele>238</ele>
        <time>2017-02-19T12:37:37Z</time>
      </trkpt>
      <trkpt lat="46.681" lon="4.70232">
        <ele>237</ele>
        <time>2017-02-19T12:37:38Z</time>
      </trkpt>
      <trkpt lat="46.68107" lon="4.70233">
        <ele>238</ele>
        <time>2017-02-19T12:37:39Z</time>
      </trkpt>
      <trkpt lat="46.68113" lon="4.70234">
        <ele>238</ele>
        <time>2017-02-19T12:37:40Z</time>
      </trkpt>
      <trkpt lat="46.68119" lon="4.70236">
        <ele>237</ele>
        <time>2017-02-19T12:37:41Z</time>
      </trkpt>
      <trkpt lat="46.68124" lon="4.70239">
        <ele>236</ele>
        <time>2017-02-19T12:37:42Z</time>
      </trkpt>
      <trkpt lat="46.6813" lon="4.70241">
        <ele>235</ele>
        <time>2017-02-19T12:37:43Z</time>
      </trkpt>
      <trkpt lat="46.68135" lon="4.70243">
        <ele>233</ele>
        <time>2017-02-19T12:37:44Z</time>
      </trkpt>
      <trkpt lat="46.6814" lon="4.70245">
        <ele>232</ele>
        <time>2017-02-19T12:37:45Z</time>
      </trkpt>
      <trkpt lat="46.68146" lon="4.70247">
        <ele>230</ele>
        <time>2017-02-19T12:37:46Z</time>
      </trkpt>
      <trkpt lat="46.68152" lon="4.70249">
        <ele>229</ele>
        <time>2017-02-19T12:37:47Z</time>
      </trkpt>
      <trkpt lat="46.68158" lon="4.70251">
        <ele>228</ele>
        <time>2017-02-19T12:37:48Z</time>
      </trkpt>
      <trkpt lat="46.68163" lon="4.70253">
        <ele>227</ele>
        <time>2017-02-19T12:37:49Z</time>
      </trkpt>
      <trkpt lat="46.68172" lon="4.70258">
        <ele>226</ele>
        <time>2017-02-19T12:37:51Z</time>
      </trkpt>
      <trkpt lat="46.68178" lon="4.70261">
        <ele>225</ele>
        <time>2017-02-19T12:37:52Z</time>
      </trkpt>
      <trkpt lat="46.68184" lon="4.70263">
        <ele>224</ele>
        <time>2017-02-19T12:37:53Z</time>
      </trkpt>
      <trkpt lat="46.6819" lon="4.70266">
        <ele>223</ele>
        <time>2017-02-19T12:37:54Z</time>
      </trkpt>
      <trkpt lat="46.68196" lon="4.70269">
        <ele>223</ele>
        <time>2017-02-19T12:37:55Z</time>
      </trkpt>
      <trkpt lat="46.68202" lon="4.70272">
        <ele>223</ele>
        <time>2017-02-19T12:37:56Z</time>
      </trkpt>
      <trkpt lat="46.68209" lon="4.70274">
        <ele>224</ele>
        <time>2017-02-19T12:37:57Z</time>
      </trkpt>
      <trkpt lat="46.68214" lon="4.70275">
        <ele>224</ele>
        <time>2017-02-19T12:37:58Z</time>
      </trkpt>
      <trkpt lat="46.68219" lon="4.70276">
        <ele>224</ele>
        <time>2017-02-19T12:37:59Z</time>
      </trkpt>
      <trkpt lat="46.68224" lon="4.70277">
        <ele>224</ele>
        <time>2017-02-19T12:38:00Z</time>
      </trkpt>
      <trkpt lat="46.6823" lon="4.70279">
        <ele>224</ele>
        <time>2017-02-19T12:38:01Z</time>
      </trkpt>
      <trkpt lat="46.68235" lon="4.7028">
        <ele>224</ele>
        <time>2017-02-19T12:38:02Z</time>
      </trkpt>
      <trkpt lat="46.68241" lon="4.70282">
        <ele>224</ele>
        <time>2017-02-19T12:38:03Z</time>
      </trkpt>
      <trkpt lat="46.68246" lon="4.70282">
        <ele>224</ele>
        <time>2017-02-19T12:38:04Z</time>
      </trkpt>
      <trkpt lat="46.68252" lon="4.70283">
        <ele>224</ele>
        <time>2017-02-19T12:38:05Z</time>
      </trkpt>
      <trkpt lat="46.68258" lon="4.70285">
        <ele>224</ele>
        <time>2017-02-19T12:38:06Z</time>
      </trkpt>
      <trkpt lat="46.68264" lon="4.70286">
        <ele>223</ele>
        <time>2017-02-19T12:38:07Z</time>
      </trkpt>
      <trkpt lat="46.68269" lon="4.70287">
        <ele>223</ele>
        <time>2017-02-19T12:38:08Z</time>
      </trkpt>
      <trkpt lat="46.6828" lon="4.70291">
        <ele>223</ele>
        <time>2017-02-19T12:38:10Z</time>
      </trkpt>
      <trkpt lat="46.68285" lon="4.70292">
        <ele>222</ele>
        <time>2017-02-19T12:38:11Z</time>
      </trkpt>
      <trkpt lat="46.68291" lon="4.70293">
        <ele>222</ele>
        <time>2017-02-19T12:38:12Z</time>
      </trkpt>
      <trkpt lat="46.68296" lon="4.70295">
        <ele>221</ele>
        <time>2017-02-19T12:38:13Z</time>
      </trkpt>
      <trkpt lat="46.68303" lon="4.70298">
        <ele>221</ele>
        <time>2017-02-19T12:38:14Z</time>
      </trkpt>
      <trkpt lat="46.68308" lon="4.703">
        <ele>221</ele>
        <time>2017-02-19T12:38:15Z</time>
      </trkpt>
      <trkpt lat="46.68314" lon="4.70301">
        <ele>221</ele>
        <time>2017-02-19T12:38:16Z</time>
      </trkpt>
      <trkpt lat="46.68319" lon="4.70302">
        <ele>221</ele>
        <time>2017-02-19T12:38:17Z</time>
      </trkpt>
      <trkpt lat="46.68324" lon="4.70303">
        <ele>221</ele>
        <time>2017-02-19T12:38:18Z</time>
      </trkpt>
      <trkpt lat="46.6833" lon="4.70305">
        <ele>221</ele>
        <time>2017-02-19T12:38:19Z</time>
      </trkpt>
      <trkpt lat="46.68336" lon="4.70306">
        <ele>221</ele>
        <time>2017-02-19T12:38:20Z</time>
      </trkpt>
      <trkpt lat="46.68342" lon="4.70307">
        <ele>221</ele>
        <time>2017-02-19T12:38:21Z</time>
      </trkpt>
      <trkpt lat="46.68347" lon="4.70308">
        <ele>220</ele>
        <time>2017-02-19T12:38:22Z</time>
      </trkpt>
      <trkpt lat="46.68353" lon="4.70309">
        <ele>220</ele>
        <time>2017-02-19T12:38:23Z</time>
      </trkpt>
      <trkpt lat="46.68359" lon="4.70311">
        <ele>220</ele>
        <time>2017-02-19T12:38:24Z</time>
      </trkpt>
      <trkpt lat="46.68365" lon="4.70312">
        <ele>220</ele>
        <time>2017-02-19T12:38:25Z</time>
      </trkpt>
      <trkpt lat="46.68371" lon="4.70312">
        <ele>220</ele>
        <time>2017-02-19T12:38:26Z</time>
      </trkpt>
      <trkpt lat="46.68377" lon="4.70313">
        <ele>220</ele>
        <time>2017-02-19T12:38:27Z</time>
      </trkpt>
      <trkpt lat="46.68383" lon="4.70314">
        <ele>220</ele>
        <time>2017-02-19T12:38:28Z</time>
      </trkpt>
      <trkpt lat="46.68389" lon="4.70316">
        <ele>220</ele>
        <time>2017-02-19T12:38:29Z</time>
      </trkpt>
      <trkpt lat="46.68395" lon="4.70318">
        <ele>220</ele>
        <time>2017-02-19T12:38:30Z</time>
      </trkpt>
      <trkpt lat="46.684" lon="4.70319">
        <ele>220</ele>
        <time>2017-02-19T12:38:31Z</time>
      </trkpt>
      <trkpt lat="46.68406" lon="4.7032">
        <ele>220</ele>
        <time>2017-02-19T12:38:32Z</time>
      </trkpt>
      <trkpt lat="46.68411" lon="4.70321">
        <ele>220</ele>
        <time>2017-02-19T12:38:33Z</time>
      </trkpt>
      <trkpt lat="46.68417" lon="4.70322">
        <ele>220</ele>
        <time>2017-02-19T12:38:34Z</time>
      </trkpt>
      <trkpt lat="46.68422" lon="4.70323">
        <ele>220</ele>
        <time>2017-02-19T12:38:35Z</time>
      </trkpt>
      <trkpt lat="46.68427" lon="4.70324">
        <ele>220</ele>
        <time>2017-02-19T12:38:36Z</time>
      </trkpt>
      <trkpt lat="46.68432" lon="4.70325">
        <ele>220</ele>
        <time>2017-02-19T12:38:37Z</time>
      </trkpt>
      <trkpt lat="46.68437" lon="4.70326">
        <ele>220</ele>
        <time>2017-02-19T12:38:38Z</time>
      </trkpt>
      <trkpt lat="46.68443" lon="4.70327">
        <ele>220</ele>
        <time>2017-02-19T12:38:39Z</time>
      </trkpt>
      <trkpt lat="46.68448" lon="4.70328">
        <ele>220</ele>
        <time>2017-02-19T12:38:40Z</time>
      </trkpt>
      <trkpt lat="46.68453" lon="4.70329">
        <ele>220</ele>
        <time>2017-02-19T12:38:41Z</time>
      </trkpt>
      <trkpt lat="46.68459" lon="4.7033">
        <ele>220</ele>
        <time>2017-02-19T12:38:42Z</time>
      </trkpt>
      <trkpt lat="46.68464" lon="4.70331">
        <ele>220</ele>
        <time>2017-02-19T12:38:43Z</time>
      </trkpt>
      <trkpt lat="46.68469" lon="4.70332">
        <ele>220</ele>
        <time>2017-02-19T12:38:44Z</time>
      </trkpt>
      <trkpt lat="46.68474" lon="4.70333">
        <ele>220</ele>
        <time>2017-02-19T12:38:45Z</time>
      </trkpt>
      <trkpt lat="46.68479" lon="4.70335">
        <ele>221</ele>
        <time>2017-02-19T12:38:46Z</time>
      </trkpt>
      <trkpt lat="46.68484" lon="4.70335">
        <ele>221</ele>
        <time>2017-02-19T12:38:47Z</time>
      </trkpt>
      <trkpt lat="46.68489" lon="4.70336">
        <ele>221</ele>
        <time>2017-02-19T12:38:48Z</time>
      </trkpt>
      <trkpt lat="46.68497" lon="4.70337">
        <ele>221</ele>
        <time>2017-02-19T12:38:50Z</time>
      </trkpt>
      <trkpt lat="46.68502" lon="4.70339">
        <ele>220</ele>
        <time>2017-02-19T12:38:52Z</time>
      </trkpt>
      <trkpt lat="46.68506" lon="4.70337">
        <ele>220</ele>
        <time>2017-02-19T12:38:55Z</time>
      </trkpt>
      <trkpt lat="46.68511" lon="4.70338">
        <ele>219</ele>
        <time>2017-02-19T12:38:57Z</time>
      </trkpt>
      <trkpt lat="46.68519" lon="4.7034">
        <ele>218</ele>
        <time>2017-02-19T12:38:59Z</time>
      </trkpt>
      <trkpt lat="46.68528" lon="4.70342">
        <ele>217</ele>
        <time>2017-02-19T12:39:01Z</time>
      </trkpt>
      <trkpt lat="46.68534" lon="4.70343">
        <ele>216</ele>
        <time>2017-02-19T12:39:02Z</time>
      </trkpt>
      <trkpt lat="46.68539" lon="4.70344">
        <ele>216</ele>
        <time>2017-02-19T12:39:03Z</time>
      </trkpt>
      <trkpt lat="46.68544" lon="4.70344">
        <ele>217</ele>
        <time>2017-02-19T12:39:04Z</time>
      </trkpt>
      <trkpt lat="46.68549" lon="4.70346">
        <ele>217</ele>
        <time>2017-02-19T12:39:05Z</time>
      </trkpt>
      <trkpt lat="46.68556" lon="4.70347">
        <ele>217</ele>
        <time>2017-02-19T12:39:07Z</time>
      </trkpt>
      <trkpt lat="46.68562" lon="4.7035">
        <ele>217</ele>
        <time>2017-02-19T12:39:10Z</time>
      </trkpt>
      <trkpt lat="46.68566" lon="4.70353">
        <ele>215</ele>
        <time>2017-02-19T12:39:12Z</time>
      </trkpt>
      <trkpt lat="46.68571" lon="4.70353">
        <ele>213</ele>
        <time>2017-02-19T12:39:16Z</time>
      </trkpt>
      <trkpt lat="46.68576" lon="4.7036">
        <ele>211</ele>
        <time>2017-02-19T12:39:20Z</time>
      </trkpt>
      <trkpt lat="46.68581" lon="4.70361">
        <ele>208</ele>
        <time>2017-02-19T12:39:22Z</time>
      </trkpt>
      <trkpt lat="46.68587" lon="4.70362">
        <ele>205</ele>
        <time>2017-02-19T12:39:24Z</time>
      </trkpt>
      <trkpt lat="46.68596" lon="4.70364">
        <ele>203</ele>
        <time>2017-02-19T12:39:26Z</time>
      </trkpt>
      <trkpt lat="46.68602" lon="4.70367">
        <ele>201</ele>
        <time>2017-02-19T12:39:28Z</time>
      </trkpt>
      <trkpt lat="46.68607" lon="4.70366">
        <ele>199</ele>
        <time>2017-02-19T12:39:30Z</time>
      </trkpt>
      <trkpt lat="46.68613" lon="4.70368">
        <ele>195</ele>
        <time>2017-02-19T12:39:34Z</time>
      </trkpt>
      <trkpt lat="46.68623" lon="4.70371">
        <ele>191</ele>
        <time>2017-02-19T12:39:36Z</time>
      </trkpt>
      <trkpt lat="46.68629" lon="4.70374">
        <ele>187</ele>
        <time>2017-02-19T12:39:37Z</time>
      </trkpt>
      <trkpt lat="46.68636" lon="4.70377">
        <ele>184</ele>
        <time>2017-02-19T12:39:38Z</time>
      </trkpt>
      <trkpt lat="46.68643" lon="4.70379">
        <ele>182</ele>
        <time>2017-02-19T12:39:39Z</time>
      </trkpt>
      <trkpt lat="46.6865" lon="4.7038">
        <ele>182</ele>
        <time>2017-02-19T12:39:40Z</time>
      </trkpt>
      <trkpt lat="46.68657" lon="4.70381">
        <ele>182</ele>
        <time>2017-02-19T12:39:41Z</time>
      </trkpt>
      <trkpt lat="46.68664" lon="4.70382">
        <ele>182</ele>
        <time>2017-02-19T12:39:42Z</time>
      </trkpt>
      <trkpt lat="46.68671" lon="4.70383">
        <ele>182</ele>
        <time>2017-02-19T12:39:43Z</time>
      </trkpt>
      <trkpt lat="46.68677" lon="4.70384">
        <ele>182</ele>
        <time>2017-02-19T12:39:44Z</time>
      </trkpt>
      <trkpt lat="46.68683" lon="4.70386">
        <ele>181</ele>
        <time>2017-02-19T12:39:45Z</time>
      </trkpt>
      <trkpt lat="46.68687" lon="4.70388">
        <ele>180</ele>
        <time>2017-02-19T12:39:46Z</time>
      </trkpt>
      <trkpt lat="46.68692" lon="4.7039">
        <ele>179</ele>
        <time>2017-02-19T12:39:47Z</time>
      </trkpt>
      <trkpt lat="46.68702" lon="4.70392">
        <ele>177</ele>
        <time>2017-02-19T12:39:49Z</time>
      </trkpt>
      <trkpt lat="46.68707" lon="4.70393">
        <ele>174</ele>
        <time>2017-02-19T12:39:50Z</time>
      </trkpt>
      <trkpt lat="46.68711" lon="4.70393">
        <ele>172</ele>
        <time>2017-02-19T12:39:51Z</time>
      </trkpt>
      <trkpt lat="46.68716" lon="4.70394">
        <ele>169</ele>
        <time>2017-02-19T12:39:52Z</time>
      </trkpt>
      <trkpt lat="46.68721" lon="4.70396">
        <ele>167</ele>
        <time>2017-02-19T12:39:53Z</time>
      </trkpt>
      <trkpt lat="46.68727" lon="4.704">
        <ele>164</ele>
        <time>2017-02-19T12:39:55Z</time>
      </trkpt>
      <trkpt lat="46.68734" lon="4.70398">
        <ele>160</ele>
        <time>2017-02-19T12:39:59Z</time>
      </trkpt>
      <trkpt lat="46.68763" lon="4.70407">
        <ele>154</ele>
        <time>2017-02-19T12:40:02Z</time>
      </trkpt>
      <trkpt lat="46.68767" lon="4.70409">
        <ele>149</ele>
        <time>2017-02-19T12:40:03Z</time>
      </trkpt>
      <trkpt lat="46.68785" lon="4.70414">
        <ele>145</ele>
        <time>2017-02-19T12:40:04Z</time>
      </trkpt>
      <trkpt lat="46.6879" lon="4.70417">
        <ele>140</ele>
        <time>2017-02-19T12:40:06Z</time>
      </trkpt>
      <trkpt lat="46.68798" lon="4.7042">
        <ele>138</ele>
        <time>2017-02-19T12:40:08Z</time>
      </trkpt>
      <trkpt lat="46.68802" lon="4.70421">
        <ele>137</ele>
        <time>2017-02-19T12:40:09Z</time>
      </trkpt>
      <trkpt lat="46.68812" lon="4.70421">
        <ele>136</ele>
        <time>2017-02-19T12:40:11Z</time>
      </trkpt>
      <trkpt lat="46.68821" lon="4.70422">
        <ele>134</ele>
        <time>2017-02-19T12:40:12Z</time>
      </trkpt>
      <trkpt lat="46.68828" lon="4.70423">
        <ele>132</ele>
        <time>2017-02-19T12:40:13Z</time>
      </trkpt>
      <trkpt lat="46.68834" lon="4.70423">
        <ele>131</ele>
        <time>2017-02-19T12:40:14Z</time>
      </trkpt>
      <trkpt lat="46.68841" lon="4.70424">
        <ele>130</ele>
        <time>2017-02-19T12:40:15Z</time>
      </trkpt>
      <trkpt lat="46.68845" lon="4.70427">
        <ele>130</ele>
        <time>2017-02-19T12:40:16Z</time>
      </trkpt>
      <trkpt lat="46.68852" lon="4.70432">
        <ele>129</ele>
        <time>2017-02-19T12:40:18Z</time>
      </trkpt>
      <trkpt lat="46.68857" lon="4.70433">
        <ele>129</ele>
        <time>2017-02-19T12:40:19Z</time>
      </trkpt>
      <trkpt lat="46.68864" lon="4.70435">
        <ele>128</ele>
        <time>2017-02-19T12:40:20Z</time>
      </trkpt>
      <trkpt lat="46.6887" lon="4.70437">
        <ele>127</ele>
        <time>2017-02-19T12:40:21Z</time>
      </trkpt>
      <trkpt lat="46.68878" lon="4.70439">
        <ele>127</ele>
        <time>2017-02-19T12:40:22Z</time>
      </trkpt>
      <trkpt lat="46.68887" lon="4.70442">
        <ele>127</ele>
        <time>2017-02-19T12:40:23Z</time>
      </trkpt>
      <trkpt lat="46.68896" lon="4.70445">
        <ele>128</ele>
        <time>2017-02-19T12:40:24Z</time>
      </trkpt>
      <trkpt lat="46.68906" lon="4.70446">
        <ele>129</ele>
        <time>2017-02-19T12:40:25Z</time>
      </trkpt>
      <trkpt lat="46.68916" lon="4.70449">
        <ele>130</ele>
        <time>2017-02-19T12:40:26Z</time>
      </trkpt>
      <trkpt lat="46.68926" lon="4.70452">
        <ele>131</ele>
        <time>2017-02-19T12:40:27Z</time>
      </trkpt>
      <trkpt lat="46.68938" lon="4.70455">
        <ele>133</ele>
        <time>2017-02-19T12:40:28Z</time>
      </trkpt>
      <trkpt lat="46.68947" lon="4.70458">
        <ele>135</ele>
        <time>2017-02-19T12:40:29Z</time>
      </trkpt>
      <trkpt lat="46.68955" lon="4.7046">
        <ele>137</ele>
        <time>2017-02-19T12:40:30Z</time>
      </trkpt>
      <trkpt lat="46.68964" lon="4.70462">
        <ele>139</ele>
        <time>2017-02-19T12:40:31Z</time>
      </trkpt>
      <trkpt lat="46.68973" lon="4.70464">
        <ele>141</ele>
        <time>2017-02-19T12:40:32Z</time>
      </trkpt>
      <trkpt lat="46.68982" lon="4.70465">
        <ele>142</ele>
        <time>2017-02-19T12:40:33Z</time>
      </trkpt>
      <trkpt lat="46.68992" lon="4.70467">
        <ele>144</ele>
        <time>2017-02-19T12:40:34Z</time>
      </trkpt>
      <trkpt lat="46.69" lon="4.70468">
        <ele>146</ele>
        <time>2017-02-19T12:40:35Z</time>
      </trkpt>
      <trkpt lat="46.69009" lon="4.70469">
        <ele>148</ele>
        <time>2017-02-19T12:40:36Z</time>
      </trkpt>
      <trkpt lat="46.69018" lon="4.7047">
        <ele>150</ele>
        <time>2017-02-19T12:40:37Z</time>
      </trkpt>
      <trkpt lat="46.69027" lon="4.70472">
        <ele>152</ele>
        <time>2017-02-19T12:40:38Z</time>
      </trkpt>
      <trkpt lat="46.69036" lon="4.70474">
        <ele>154</ele>
        <time>2017-02-19T12:40:39Z</time>
      </trkpt>
      <trkpt lat="46.69046" lon="4.70475">
        <ele>156</ele>
        <time>2017-02-19T12:40:40Z</time>
      </trkpt>
      <trkpt lat="46.69055" lon="4.70477">
        <ele>158</ele>
        <time>2017-02-19T12:40:41Z</time>
      </trkpt>
      <trkpt lat="46.69063" lon="4.70478">
        <ele>160</ele>
        <time>2017-02-19T12:40:42Z</time>
      </trkpt>
      <trkpt lat="46.69071" lon="4.7048">
        <ele>162</ele>
        <time>2017-02-19T12:40:43Z</time>
      </trkpt>
      <trkpt lat="46.6908" lon="4.70482">
        <ele>164</ele>
        <time>2017-02-19T12:40:44Z</time>
      </trkpt>
      <trkpt lat="46.69088" lon="4.70484">
        <ele>166</ele>
        <time>2017-02-19T12:40:45Z</time>
      </trkpt>
      <trkpt lat="46.69097" lon="4.70486">
        <ele>168</ele>
        <time>2017-02-19T12:40:46Z</time>
      </trkpt>
      <trkpt lat="46.69104" lon="4.70487">
        <ele>170</ele>
        <time>2017-02-19T12:40:47Z</time>
      </trkpt>
      <trkpt lat="46.69112" lon="4.70489">
        <ele>172</ele>
        <time>2017-02-19T12:40:48Z</time>
      </trkpt>
      <trkpt lat="46.6912" lon="4.70491">
        <ele>174</ele>
        <time>2017-02-19T12:40:49Z</time>
      </trkpt>
      <trkpt lat="46.69128" lon="4.70492">
        <ele>175</ele>
        <time>2017-02-19T12:40:50Z</time>
      </trkpt>
      <trkpt lat="46.69137" lon="4.70494">
        <ele>177</ele>
        <time>2017-02-19T12:40:51Z</time>
      </trkpt>
      <trkpt lat="46.69146" lon="4.70496">
        <ele>179</ele>
        <time>2017-02-19T12:40:52Z</time>
      </trkpt>
      <trkpt lat="46.69153" lon="4.70497">
        <ele>180</ele>
        <time>2017-02-19T12:40:53Z</time>
      </trkpt>
      <trkpt lat="46.69161" lon="4.70498">
        <ele>181</ele>
        <time>2017-02-19T12:40:54Z</time>
      </trkpt>
      <trkpt lat="46.6917" lon="4.705">
        <ele>183</ele>
        <time>2017-02-19T12:40:55Z</time>
      </trkpt>
      <trkpt lat="46.69177" lon="4.70501">
        <ele>184</ele>
        <time>2017-02-19T12:40:56Z</time>
      </trkpt>
      <trkpt lat="46.69185" lon="4.70504">
        <ele>185</ele>
        <time>2017-02-19T12:40:57Z</time>
      </trkpt>
      <trkpt lat="46.69193" lon="4.70506">
        <ele>186</ele>
        <time>2017-02-19T12:40:58Z</time>
      </trkpt>
      <trkpt lat="46.69201" lon="4.70508">
        <ele>188</ele>
        <time>2017-02-19T12:40:59Z</time>
      </trkpt>
      <trkpt lat="46.69208" lon="4.7051">
        <ele>189</ele>
        <time>2017-02-19T12:41:00Z</time>
      </trkpt>
      <trkpt lat="46.69215" lon="4.70512">
        <ele>189</ele>
        <time>2017-02-19T12:41:01Z</time>
      </trkpt>
      <trkpt lat="46.69221" lon="4.70514">
        <ele>190</ele>
        <time>2017-02-19T12:41:02Z</time>
      </trkpt>
      <trkpt lat="46.69228" lon="4.70516">
        <ele>191</ele>
        <time>2017-02-19T12:41:03Z</time>
      </trkpt>
      <trkpt lat="46.69234" lon="4.70518">
        <ele>192</ele>
        <time>2017-02-19T12:41:04Z</time>
      </trkpt>
      <trkpt lat="46.69241" lon="4.70519">
        <ele>193</ele>
        <time>2017-02-19T12:41:05Z</time>
      </trkpt>
      <trkpt lat="46.69249" lon="4.70521">
        <ele>194</ele>
        <time>2017-02-19T12:41:06Z</time>
      </trkpt>
      <trkpt lat="46.69257" lon="4.70523">
        <ele>195</ele>
        <time>2017-02-19T12:41:07Z</time>
      </trkpt>
      <trkpt lat="46.69265" lon="4.70526">
        <ele>196</ele>
        <time>2017-02-19T12:41:08Z</time>
      </trkpt>
      <trkpt lat="46.69273" lon="4.70528">
        <ele>197</ele>
        <time>2017-02-19T12:41:09Z</time>
      </trkpt>
      <trkpt lat="46.69281" lon="4.7053">
        <ele>198</ele>
        <time>2017-02-19T12:41:10Z</time>
      </trkpt>
      <trkpt lat="46.69333" lon="4.70542">
        <ele>208</ele>
        <time>2017-02-19T12:41:17Z</time>
      </trkpt>
      <trkpt lat="46.69347" lon="4.70546">
        <ele>211</ele>
        <time>2017-02-19T12:41:19Z</time>
      </trkpt>
      <trkpt lat="46.69355" lon="4.70548">
        <ele>213</ele>
        <time>2017-02-19T12:41:20Z</time>
      </trkpt>
      <trkpt lat="46.69362" lon="4.70551">
        <ele>215</ele>
        <time>2017-02-19T12:41:21Z</time>
      </trkpt>
      <trkpt lat="46.69369" lon="4.70552">
        <ele>216</ele>
        <time>2017-02-19T12:41:22Z</time>
      </trkpt>
      <trkpt lat="46.69375" lon="4.70552">
        <ele>218</ele>
        <time>2017-02-19T12:41:23Z</time>
      </trkpt>
      <trkpt lat="46.69379" lon="4.70552">
        <ele>219</ele>
        <time>2017-02-19T12:41:24Z</time>
      </trkpt>
      <trkpt lat="46.69385" lon="4.70551">
        <ele>220</ele>
        <time>2017-02-19T12:41:25Z</time>
      </trkpt>
      <trkpt lat="46.69391" lon="4.70551">
        <ele>221</ele>
        <time>2017-02-19T12:41:26Z</time>
      </trkpt>
      <trkpt lat="46.69398" lon="4.70552">
        <ele>221</ele>
        <time>2017-02-19T12:41:27Z</time>
      </trkpt>
      <trkpt lat="46.69405" lon="4.70554">
        <ele>222</ele>
        <time>2017-02-19T12:41:28Z</time>
      </trkpt>
      <trkpt lat="46.69411" lon="4.70555">
        <ele>222</ele>
        <time>2017-02-19T12:41:29Z</time>
      </trkpt>
      <trkpt lat="46.69417" lon="4.70556">
        <ele>223</ele>
        <time>2017-02-19T12:41:30Z</time>
      </trkpt>
      <trkpt lat="46.69423" lon="4.70558">
        <ele>223</ele>
        <time>2017-02-19T12:41:31Z</time>
      </trkpt>
      <trkpt lat="46.69431" lon="4.70561">
        <ele>223</ele>
        <time>2017-02-19T12:41:32Z</time>
      </trkpt>
      <trkpt lat="46.69437" lon="4.70564">
        <ele>224</ele>
        <time>2017-02-19T12:41:33Z</time>
      </trkpt>
      <trkpt lat="46.69442" lon="4.70568">
        <ele>224</ele>
        <time>2017-02-19T12:41:34Z</time>
      </trkpt>
      <trkpt lat="46.69448" lon="4.70571">
        <ele>224</ele>
        <time>2017-02-19T12:41:35Z</time>
      </trkpt>
      <trkpt lat="46.69454" lon="4.70573">
        <ele>224</ele>
        <time>2017-02-19T12:41:36Z</time>
      </trkpt>
      <trkpt lat="46.69461" lon="4.70575">
        <ele>224</ele>
        <time>2017-02-19T12:41:37Z</time>
      </trkpt>
      <trkpt lat="46.69467" lon="4.70577">
        <ele>224</ele>
        <time>2017-02-19T12:41:38Z</time>
      </trkpt>
      <trkpt lat="46.69472" lon="4.70578">
        <ele>225</ele>
        <time>2017-02-19T12:41:39Z</time>
      </trkpt>
      <trkpt lat="46.69479" lon="4.70582">
        <ele>225</ele>
        <time>2017-02-19T12:41:41Z</time>
      </trkpt>
      <trkpt lat="46.69485" lon="4.70585">
        <ele>226</ele>
        <time>2017-02-19T12:41:43Z</time>
      </trkpt>
      <trkpt lat="46.6949" lon="4.70584">
        <ele>227</ele>
        <time>2017-02-19T12:41:45Z</time>
      </trkpt>
      <trkpt lat="46.69495" lon="4.70583">
        <ele>227</ele>
        <time>2017-02-19T12:41:47Z</time>
      </trkpt>
      <trkpt lat="46.695" lon="4.70585">
        <ele>226</ele>
        <time>2017-02-19T12:41:49Z</time>
      </trkpt>
      <trkpt lat="46.69507" lon="4.70587">
        <ele>226</ele>
        <time>2017-02-19T12:41:51Z</time>
      </trkpt>
      <trkpt lat="46.69513" lon="4.70589">
        <ele>224</ele>
        <time>2017-02-19T12:41:53Z</time>
      </trkpt>
      <trkpt lat="46.69521" lon="4.70589">
        <ele>223</ele>
        <time>2017-02-19T12:41:55Z</time>
      </trkpt>
      <trkpt lat="46.69527" lon="4.7059">
        <ele>222</ele>
        <time>2017-02-19T12:41:57Z</time>
      </trkpt>
      <trkpt lat="46.69535" lon="4.70591">
        <ele>220</ele>
        <time>2017-02-19T12:41:59Z</time>
      </trkpt>
      <trkpt lat="46.69543" lon="4.70592">
        <ele>219</ele>
        <time>2017-02-19T12:42:01Z</time>
      </trkpt>
      <trkpt lat="46.69548" lon="4.70594">
        <ele>218</ele>
        <time>2017-02-19T12:42:02Z</time>
      </trkpt>
      <trkpt lat="46.69552" lon="4.70596">
        <ele>216</ele>
        <time>2017-02-19T12:42:03Z</time>
      </trkpt>
      <trkpt lat="46.69558" lon="4.70597">
        <ele>215</ele>
        <time>2017-02-19T12:42:04Z</time>
      </trkpt>
      <trkpt lat="46.69562" lon="4.70598">
        <ele>215</ele>
        <time>2017-02-19T12:42:05Z</time>
      </trkpt>
      <trkpt lat="46.69568" lon="4.706">
        <ele>214</ele>
        <time>2017-02-19T12:42:06Z</time>
      </trkpt>
      <trkpt lat="46.69573" lon="4.70601">
        <ele>214</ele>
        <time>2017-02-19T12:42:07Z</time>
      </trkpt>
      <trkpt lat="46.69579" lon="4.70603">
        <ele>213</ele>
        <time>2017-02-19T12:42:08Z</time>
      </trkpt>
      <trkpt lat="46.69584" lon="4.70605">
        <ele>213</ele>
        <time>2017-02-19T12:42:09Z</time>
      </trkpt>
      <trkpt lat="46.6959" lon="4.70606">
        <ele>213</ele>
        <time>2017-02-19T12:42:10Z</time>
      </trkpt>
      <trkpt lat="46.69595" lon="4.70608">
        <ele>213</ele>
        <time>2017-02-19T12:42:11Z</time>
      </trkpt>
      <trkpt lat="46.696" lon="4.7061">
        <ele>213</ele>
        <time>2017-02-19T12:42:12Z</time>
      </trkpt>
      <trkpt lat="46.69605" lon="4.70612">
        <ele>213</ele>
        <time>2017-02-19T12:42:13Z</time>
      </trkpt>
      <trkpt lat="46.69609" lon="4.70613">
        <ele>212</ele>
        <time>2017-02-19T12:42:14Z</time>
      </trkpt>
      <trkpt lat="46.69618" lon="4.70616">
        <ele>212</ele>
        <time>2017-02-19T12:42:16Z</time>
      </trkpt>
      <trkpt lat="46.69623" lon="4.70617">
        <ele>211</ele>
        <time>2017-02-19T12:42:17Z</time>
      </trkpt>
      <trkpt lat="46.69629" lon="4.70618">
        <ele>210</ele>
        <time>2017-02-19T12:42:18Z</time>
      </trkpt>
      <trkpt lat="46.69634" lon="4.70619">
        <ele>210</ele>
        <time>2017-02-19T12:42:19Z</time>
      </trkpt>
      <trkpt lat="46.69638" lon="4.7062">
        <ele>210</ele>
        <time>2017-02-19T12:42:20Z</time>
      </trkpt>
      <trkpt lat="46.69643" lon="4.70621">
        <ele>210</ele>
        <time>2017-02-19T12:42:21Z</time>
      </trkpt>
      <trkpt lat="46.69649" lon="4.70622">
        <ele>210</ele>
        <time>2017-02-19T12:42:22Z</time>
      </trkpt>
      <trkpt lat="46.69655" lon="4.70623">
        <ele>210</ele>
        <time>2017-02-19T12:42:23Z</time>
      </trkpt>
      <trkpt lat="46.69659" lon="4.70625">
        <ele>211</ele>
        <time>2017-02-19T12:42:24Z</time>
      </trkpt>
      <trkpt lat="46.69664" lon="4.70627">
        <ele>211</ele>
        <time>2017-02-19T12:42:25Z</time>
      </trkpt>
      <trkpt lat="46.6967" lon="4.70628">
        <ele>211</ele>
        <time>2017-02-19T12:42:26Z</time>
      </trkpt>
      <trkpt lat="46.69675" lon="4.70629">
        <ele>212</ele>
        <time>2017-02-19T12:42:27Z</time>
      </trkpt>
      <trkpt lat="46.6968" lon="4.7063">
        <ele>212</ele>
        <time>2017-02-19T12:42:28Z</time>
      </trkpt>
      <trkpt lat="46.69687" lon="4.70632">
        <ele>212</ele>
        <time>2017-02-19T12:42:30Z</time>
      </trkpt>
      <trkpt lat="46.69694" lon="4.70634">
        <ele>212</ele>
        <time>2017-02-19T12:42:33Z</time>
      </trkpt>
      <trkpt lat="46.69699" lon="4.70635">
        <ele>211</ele>
        <time>2017-02-19T12:42:35Z</time>
      </trkpt>
      <trkpt lat="46.69705" lon="4.70636">
        <ele>211</ele>
        <time>2017-02-19T12:42:37Z</time>
      </trkpt>
      <trkpt lat="46.69712" lon="4.70638">
        <ele>209</ele>
        <time>2017-02-19T12:42:39Z</time>
      </trkpt>
      <trkpt lat="46.69717" lon="4.7064">
        <ele>208</ele>
        <time>2017-02-19T12:42:41Z</time>
      </trkpt>
      <trkpt lat="46.69722" lon="4.70642">
        <ele>206</ele>
        <time>2017-02-19T12:42:43Z</time>
      </trkpt>
      <trkpt lat="46.69727" lon="4.70643">
        <ele>204</ele>
        <time>2017-02-19T12:42:45Z</time>
      </trkpt>
      <trkpt lat="46.69732" lon="4.70644">
        <ele>202</ele>
        <time>2017-02-19T12:42:47Z</time>
      </trkpt>
      <trkpt lat="46.69738" lon="4.70644">
        <ele>199</ele>
        <time>2017-02-19T12:42:49Z</time>
      </trkpt>
      <trkpt lat="46.69744" lon="4.70644">
        <ele>196</ele>
        <time>2017-02-19T12:42:51Z</time>
      </trkpt>
      <trkpt lat="46.69749" lon="4.70645">
        <ele>193</ele>
        <time>2017-02-19T12:42:53Z</time>
      </trkpt>
      <trkpt lat="46.69754" lon="4.70644">
        <ele>190</ele>
        <time>2017-02-19T12:42:55Z</time>
      </trkpt>
      <trkpt lat="46.69761" lon="4.70644">
        <ele>187</ele>
        <time>2017-02-19T12:42:57Z</time>
      </trkpt>
      <trkpt lat="46.69767" lon="4.70646">
        <ele>184</ele>
        <time>2017-02-19T12:42:59Z</time>
      </trkpt>
      <trkpt lat="46.69773" lon="4.70648">
        <ele>181</ele>
        <time>2017-02-19T12:43:01Z</time>
      </trkpt>
      <trkpt lat="46.6978" lon="4.70648">
        <ele>177</ele>
        <time>2017-02-19T12:43:03Z</time>
      </trkpt>
      <trkpt lat="46.69785" lon="4.70645">
        <ele>174</ele>
        <time>2017-02-19T12:43:05Z</time>
      </trkpt>
      <trkpt lat="46.69807" lon="4.70647">
        <ele>170</ele>
        <time>2017-02-19T12:43:07Z</time>
      </trkpt>
      <trkpt lat="46.69814" lon="4.70645">
        <ele>165</ele>
        <time>2017-02-19T12:43:09Z</time>
      </trkpt>
      <trkpt lat="46.69835" lon="4.70644">
        <ele>163</ele>
        <time>2017-02-19T12:43:10Z</time>
      </trkpt>
      <trkpt lat="46.69843" lon="4.70643">
        <ele>162</ele>
        <time>2017-02-19T12:43:11Z</time>
      </trkpt>
      <trkpt lat="46.69851" lon="4.70641">
        <ele>162</ele>
        <time>2017-02-19T12:43:12Z</time>
      </trkpt>
      <trkpt lat="46.69859" lon="4.70638">
        <ele>162</ele>
        <time>2017-02-19T12:43:13Z</time>
      </trkpt>
      <trkpt lat="46.69865" lon="4.70636">
        <ele>163</ele>
        <time>2017-02-19T12:43:14Z</time>
      </trkpt>
      <trkpt lat="46.69871" lon="4.70635">
        <ele>163</ele>
        <time>2017-02-19T12:43:15Z</time>
      </trkpt>
      <trkpt lat="46.69878" lon="4.70633">
        <ele>163</ele>
        <time>2017-02-19T12:43:16Z</time>
      </trkpt>
      <trkpt lat="46.69893" lon="4.70627">
        <ele>165</ele>
        <time>2017-02-19T12:43:17Z</time>
      </trkpt>
      <trkpt lat="46.69904" lon="4.70622">
        <ele>167</ele>
        <time>2017-02-19T12:43:18Z</time>
      </trkpt>
      <trkpt lat="46.69914" lon="4.70617">
        <ele>169</ele>
        <time>2017-02-19T12:43:19Z</time>
      </trkpt>
      <trkpt lat="46.69922" lon="4.70614">
        <ele>172</ele>
        <time>2017-02-19T12:43:20Z</time>
      </trkpt>
      <trkpt lat="46.6993" lon="4.7061">
        <ele>175</ele>
        <time>2017-02-19T12:43:21Z</time>
      </trkpt>
      <trkpt lat="46.69937" lon="4.70607">
        <ele>176</ele>
        <time>2017-02-19T12:43:22Z</time>
      </trkpt>
      <trkpt lat="46.69945" lon="4.70605">
        <ele>177</ele>
        <time>2017-02-19T12:43:23Z</time>
      </trkpt>
      <trkpt lat="46.69953" lon="4.706">
        <ele>178</ele>
        <time>2017-02-19T12:43:24Z</time>
      </trkpt>
      <trkpt lat="46.69961" lon="4.70595">
        <ele>178</ele>
        <time>2017-02-19T12:43:25Z</time>
      </trkpt>
      <trkpt lat="46.69969" lon="4.70591">
        <ele>179</ele>
        <time>2017-02-19T12:43:26Z</time>
      </trkpt>
      <trkpt lat="46.69977" lon="4.70588">
        <ele>179</ele>
        <time>2017-02-19T12:43:27Z</time>
      </trkpt>
      <trkpt lat="46.69986" lon="4.70585">
        <ele>180</ele>
        <time>2017-02-19T12:43:28Z</time>
      </trkpt>
      <trkpt lat="46.69996" lon="4.70581">
        <ele>181</ele>
        <time>2017-02-19T12:43:29Z</time>
      </trkpt>
      <trkpt lat="46.70005" lon="4.70578">
        <ele>182</ele>
        <time>2017-02-19T12:43:30Z</time>
      </trkpt>
      <trkpt lat="46.70018" lon="4.70575">
        <ele>184</ele>
        <time>2017-02-19T12:43:31Z</time>
      </trkpt>
      <trkpt lat="46.70029" lon="4.70572">
        <ele>185</ele>
        <time>2017-02-19T12:43:32Z</time>
      </trkpt>
      <trkpt lat="46.70038" lon="4.70569">
        <ele>187</ele>
        <time>2017-02-19T12:43:33Z</time>
      </trkpt>
      <trkpt lat="46.70046" lon="4.70566">
        <ele>189</ele>
        <time>2017-02-19T12:43:34Z</time>
      </trkpt>
      <trkpt lat="46.70055" lon="4.70563">
        <ele>190</ele>
        <time>2017-02-19T12:43:35Z</time>
      </trkpt>
      <trkpt lat="46.70064" lon="4.70561">
        <ele>191</ele>
        <time>2017-02-19T12:43:36Z</time>
      </trkpt>
      <trkpt lat="46.70072" lon="4.70559">
        <ele>192</ele>
        <time>2017-02-19T12:43:37Z</time>
      </trkpt>
      <trkpt lat="46.70079" lon="4.70556">
        <ele>192</ele>
        <time>2017-02-19T12:43:38Z</time>
      </trkpt>
      <trkpt lat="46.70087" lon="4.70554">
        <ele>193</ele>
        <time>2017-02-19T12:43:39Z</time>
      </trkpt>
      <trkpt lat="46.70095" lon="4.7055">
        <ele>194</ele>
        <time>2017-02-19T12:43:40Z</time>
      </trkpt>
      <trkpt lat="46.70104" lon="4.70546">
        <ele>195</ele>
        <time>2017-02-19T12:43:41Z</time>
      </trkpt>
      <trkpt lat="46.70111" lon="4.70543">
        <ele>196</ele>
        <time>2017-02-19T12:43:42Z</time>
      </trkpt>
      <trkpt lat="46.70118" lon="4.7054">
        <ele>198</ele>
        <time>2017-02-19T12:43:43Z</time>
      </trkpt>
      <trkpt lat="46.70125" lon="4.70538">
        <ele>199</ele>
        <time>2017-02-19T12:43:44Z</time>
      </trkpt>
      <trkpt lat="46.7013" lon="4.70536">
        <ele>200</ele>
        <time>2017-02-19T12:43:45Z</time>
      </trkpt>
      <trkpt lat="46.70138" lon="4.70535">
        <ele>201</ele>
        <time>2017-02-19T12:43:47Z</time>
      </trkpt>
      <trkpt lat="46.70148" lon="4.70531">
        <ele>202</ele>
        <time>2017-02-19T12:43:49Z</time>
      </trkpt>
      <trkpt lat="46.70153" lon="4.70529">
        <ele>203</ele>
        <time>2017-02-19T12:43:50Z</time>
      </trkpt>
      <trkpt lat="46.70158" lon="4.70527">
        <ele>204</ele>
        <time>2017-02-19T12:43:51Z</time>
      </trkpt>
      <trkpt lat="46.70168" lon="4.70525">
        <ele>205</ele>
        <time>2017-02-19T12:43:53Z</time>
      </trkpt>
      <trkpt lat="46.70174" lon="4.70523">
        <ele>206</ele>
        <time>2017-02-19T12:43:54Z</time>
      </trkpt>
      <trkpt lat="46.7018" lon="4.70521">
        <ele>207</ele>
        <time>2017-02-19T12:43:55Z</time>
      </trkpt>
      <trkpt lat="46.70185" lon="4.70519">
        <ele>208</ele>
        <time>2017-02-19T12:43:56Z</time>
      </trkpt>
      <trkpt lat="46.7019" lon="4.70518">
        <ele>209</ele>
        <time>2017-02-19T12:43:57Z</time>
      </trkpt>
      <trkpt lat="46.70194" lon="4.70516">
        <ele>209</ele>
        <time>2017-02-19T12:43:58Z</time>
      </trkpt>
      <trkpt lat="46.70202" lon="4.70512">
        <ele>210</ele>
        <time>2017-02-19T12:44:00Z</time>
      </trkpt>
      <trkpt lat="46.7021" lon="4.70509">
        <ele>210</ele>
        <time>2017-02-19T12:44:02Z</time>
      </trkpt>
      <trkpt lat="46.70218" lon="4.70505">
        <ele>210</ele>
        <time>2017-02-19T12:44:04Z</time>
      </trkpt>
      <trkpt lat="46.70225" lon="4.70501">
        <ele>209</ele>
        <time>2017-02-19T12:44:06Z</time>
      </trkpt>
      <trkpt lat="46.70233" lon="4.70495">
        <ele>208</ele>
        <time>2017-02-19T12:44:08Z</time>
      </trkpt>
      <trkpt lat="46.7024" lon="4.7049">
        <ele>207</ele>
        <time>2017-02-19T12:44:10Z</time>
      </trkpt>
      <trkpt lat="46.70246" lon="4.70484">
        <ele>206</ele>
        <time>2017-02-19T12:44:12Z</time>
      </trkpt>
      <trkpt lat="46.70253" lon="4.70479">
        <ele>204</ele>
        <time>2017-02-19T12:44:14Z</time>
      </trkpt>
      <trkpt lat="46.70261" lon="4.70474">
        <ele>202</ele>
        <time>2017-02-19T12:44:16Z</time>
      </trkpt>
      <trkpt lat="46.70269" lon="4.7047">
        <ele>199</ele>
        <time>2017-02-19T12:44:18Z</time>
      </trkpt>
      <trkpt lat="46.70277" lon="4.70463">
        <ele>197</ele>
        <time>2017-02-19T12:44:20Z</time>
      </trkpt>
      <trkpt lat="46.70281" lon="4.7046">
        <ele>194</ele>
        <time>2017-02-19T12:44:21Z</time>
      </trkpt>
      <trkpt lat="46.70286" lon="4.70458">
        <ele>193</ele>
        <time>2017-02-19T12:44:22Z</time>
      </trkpt>
      <trkpt lat="46.70294" lon="4.70453">
        <ele>190</ele>
        <time>2017-02-19T12:44:24Z</time>
      </trkpt>
      <trkpt lat="46.70298" lon="4.7045">
        <ele>189</ele>
        <time>2017-02-19T12:44:25Z</time>
      </trkpt>
      <trkpt lat="46.70304" lon="4.70447">
        <ele>187</ele>
        <time>2017-02-19T12:44:26Z</time>
      </trkpt>
      <trkpt lat="46.7031" lon="4.70445">
        <ele>186</ele>
        <time>2017-02-19T12:44:27Z</time>
      </trkpt>
      <trkpt lat="46.70316" lon="4.70442">
        <ele>185</ele>
        <time>2017-02-19T12:44:28Z</time>
      </trkpt>
      <trkpt lat="46.70325" lon="4.70439">
        <ele>185</ele>
        <time>2017-02-19T12:44:29Z</time>
      </trkpt>
      <trkpt lat="46.70332" lon="4.70437">
        <ele>186</ele>
        <time>2017-02-19T12:44:30Z</time>
      </trkpt>
      <trkpt lat="46.70339" lon="4.70435">
        <ele>187</ele>
        <time>2017-02-19T12:44:31Z</time>
      </trkpt>
      <trkpt lat="46.70346" lon="4.70432">
        <ele>189</ele>
        <time>2017-02-19T12:44:32Z</time>
      </trkpt>
      <trkpt lat="46.70361" lon="4.70427">
        <ele>192</ele>
        <time>2017-02-19T12:44:34Z</time>
      </trkpt>
      <trkpt lat="46.70367" lon="4.70424">
        <ele>193</ele>
        <time>2017-02-19T12:44:35Z</time>
      </trkpt>
      <trkpt lat="46.70373" lon="4.7042">
        <ele>194</ele>
        <time>2017-02-19T12:44:36Z</time>
      </trkpt>
      <trkpt lat="46.7038" lon="4.70417">
        <ele>194</ele>
        <time>2017-02-19T12:44:37Z</time>
      </trkpt>
      <trkpt lat="46.70386" lon="4.70414">
        <ele>195</ele>
        <time>2017-02-19T12:44:38Z</time>
      </trkpt>
      <trkpt lat="46.70392" lon="4.70411">
        <ele>195</ele>
        <time>2017-02-19T12:44:39Z</time>
      </trkpt>
      <trkpt lat="46.704" lon="4.70409">
        <ele>196</ele>
        <time>2017-02-19T12:44:40Z</time>
      </trkpt>
      <trkpt lat="46.70406" lon="4.70407">
        <ele>197</ele>
        <time>2017-02-19T12:44:41Z</time>
      </trkpt>
      <trkpt lat="46.70412" lon="4.70405">
        <ele>198</ele>
        <time>2017-02-19T12:44:42Z</time>
      </trkpt>
      <trkpt lat="46.70419" lon="4.70402">
        <ele>199</ele>
        <time>2017-02-19T12:44:43Z</time>
      </trkpt>
      <trkpt lat="46.70426" lon="4.704">
        <ele>200</ele>
        <time>2017-02-19T12:44:44Z</time>
      </trkpt>
      <trkpt lat="46.70433" lon="4.70398">
        <ele>201</ele>
        <time>2017-02-19T12:44:45Z</time>
      </trkpt>
      <trkpt lat="46.7044" lon="4.70396">
        <ele>202</ele>
        <time>2017-02-19T12:44:46Z</time>
      </trkpt>
      <trkpt lat="46.70446" lon="4.70394">
        <ele>203</ele>
        <time>2017-02-19T12:44:47Z</time>
      </trkpt>
      <trkpt lat="46.70453" lon="4.70392">
        <ele>204</ele>
        <time>2017-02-19T12:44:48Z</time>
      </trkpt>
      <trkpt lat="46.70458" lon="4.70389">
        <ele>205</ele>
        <time>2017-02-19T12:44:49Z</time>
      </trkpt>
      <trkpt lat="46.70463" lon="4.70386">
        <ele>206</ele>
        <time>2017-02-19T12:44:50Z</time>
      </trkpt>
      <trkpt lat="46.70468" lon="4.70384">
        <ele>207</ele>
        <time>2017-02-19T12:44:51Z</time>
      </trkpt>
      <trkpt lat="46.70474" lon="4.70381">
        <ele>207</ele>
        <time>2017-02-19T12:44:52Z</time>
      </trkpt>
      <trkpt lat="46.70478" lon="4.70379">
        <ele>207</ele>
        <time>2017-02-19T12:44:53Z</time>
      </trkpt>
      <trkpt lat="46.70483" lon="4.70377">
        <ele>208</ele>
        <time>2017-02-19T12:44:54Z</time>
      </trkpt>
      <trkpt lat="46.70489" lon="4.70374">
        <ele>208</ele>
        <time>2017-02-19T12:44:55Z</time>
      </trkpt>
      <trkpt lat="46.70494" lon="4.70372">
        <ele>208</ele>
        <time>2017-02-19T12:44:56Z</time>
      </trkpt>
      <trkpt lat="46.70499" lon="4.7037">
        <ele>209</ele>
        <time>2017-02-19T12:44:57Z</time>
      </trkpt>
      <trkpt lat="46.70504" lon="4.70369">
        <ele>209</ele>
        <time>2017-02-19T12:44:58Z</time>
      </trkpt>
      <trkpt lat="46.7051" lon="4.70367">
        <ele>210</ele>
        <time>2017-02-19T12:44:59Z</time>
      </trkpt>
      <trkpt lat="46.70515" lon="4.70365">
        <ele>210</ele>
        <time>2017-02-19T12:45:00Z</time>
      </trkpt>
      <trkpt lat="46.7052" lon="4.70363">
        <ele>211</ele>
        <time>2017-02-19T12:45:01Z</time>
      </trkpt>
      <trkpt lat="46.70524" lon="4.70361">
        <ele>211</ele>
        <time>2017-02-19T12:45:02Z</time>
      </trkpt>
      <trkpt lat="46.70529" lon="4.70358">
        <ele>212</ele>
        <time>2017-02-19T12:45:03Z</time>
      </trkpt>
      <trkpt lat="46.70533" lon="4.70355">
        <ele>212</ele>
        <time>2017-02-19T12:45:04Z</time>
      </trkpt>
      <trkpt lat="46.70537" lon="4.70353">
        <ele>212</ele>
        <time>2017-02-19T12:45:05Z</time>
      </trkpt>
      <trkpt lat="46.70542" lon="4.70351">
        <ele>212</ele>
        <time>2017-02-19T12:45:06Z</time>
      </trkpt>
      <trkpt lat="46.70547" lon="4.70349">
        <ele>212</ele>
        <time>2017-02-19T12:45:07Z</time>
      </trkpt>
      <trkpt lat="46.70551" lon="4.70346">
        <ele>212</ele>
        <time>2017-02-19T12:45:08Z</time>
      </trkpt>
      <trkpt lat="46.70559" lon="4.70342">
        <ele>211</ele>
        <time>2017-02-19T12:45:10Z</time>
      </trkpt>
      <trkpt lat="46.70564" lon="4.70339">
        <ele>211</ele>
        <time>2017-02-19T12:45:11Z</time>
      </trkpt>
      <trkpt lat="46.70569" lon="4.70337">
        <ele>210</ele>
        <time>2017-02-19T12:45:12Z</time>
      </trkpt>
      <trkpt lat="46.70573" lon="4.70334">
        <ele>210</ele>
        <time>2017-02-19T12:45:13Z</time>
      </trkpt>
      <trkpt lat="46.70578" lon="4.70331">
        <ele>209</ele>
        <time>2017-02-19T12:45:14Z</time>
      </trkpt>
      <trkpt lat="46.70584" lon="4.70329">
        <ele>209</ele>
        <time>2017-02-19T12:45:15Z</time>
      </trkpt>
      <trkpt lat="46.70589" lon="4.70326">
        <ele>209</ele>
        <time>2017-02-19T12:45:16Z</time>
      </trkpt>
      <trkpt lat="46.70594" lon="4.70324">
        <ele>209</ele>
        <time>2017-02-19T12:45:17Z</time>
      </trkpt>
      <trkpt lat="46.70599" lon="4.70321">
        <ele>210</ele>
        <time>2017-02-19T12:45:18Z</time>
      </trkpt>
      <trkpt lat="46.70606" lon="4.70316">
        <ele>210</ele>
        <time>2017-02-19T12:45:19Z</time>
      </trkpt>
      <trkpt lat="46.7061" lon="4.70313">
        <ele>210</ele>
        <time>2017-02-19T12:45:20Z</time>
      </trkpt>
      <trkpt lat="46.70616" lon="4.7031">
        <ele>211</ele>
        <time>2017-02-19T12:45:21Z</time>
      </trkpt>
      <trkpt lat="46.70621" lon="4.70308">
        <ele>211</ele>
        <time>2017-02-19T12:45:22Z</time>
      </trkpt>
      <trkpt lat="46.70626" lon="4.70306">
        <ele>211</ele>
        <time>2017-02-19T12:45:23Z</time>
      </trkpt>
      <trkpt lat="46.70633" lon="4.70304">
        <ele>212</ele>
        <time>2017-02-19T12:45:24Z</time>
      </trkpt>
      <trkpt lat="46.70639" lon="4.70302">
        <ele>212</ele>
        <time>2017-02-19T12:45:25Z</time>
      </trkpt>
      <trkpt lat="46.70645" lon="4.70299">
        <ele>213</ele>
        <time>2017-02-19T12:45:26Z</time>
      </trkpt>
      <trkpt lat="46.70651" lon="4.70297">
        <ele>214</ele>
        <time>2017-02-19T12:45:27Z</time>
      </trkpt>
      <trkpt lat="46.70656" lon="4.70295">
        <ele>215</ele>
        <time>2017-02-19T12:45:28Z</time>
      </trkpt>
      <trkpt lat="46.70662" lon="4.70293">
        <ele>216</ele>
        <time>2017-02-19T12:45:29Z</time>
      </trkpt>
      <trkpt lat="46.70666" lon="4.70291">
        <ele>216</ele>
        <time>2017-02-19T12:45:30Z</time>
      </trkpt>
      <trkpt lat="46.70671" lon="4.70288">
        <ele>216</ele>
        <time>2017-02-19T12:45:31Z</time>
      </trkpt>
      <trkpt lat="46.70676" lon="4.70286">
        <ele>216</ele>
        <time>2017-02-19T12:45:32Z</time>
      </trkpt>
      <trkpt lat="46.70683" lon="4.70282">
        <ele>217</ele>
        <time>2017-02-19T12:45:34Z</time>
      </trkpt>
      <trkpt lat="46.70691" lon="4.70276">
        <ele>217</ele>
        <time>2017-02-19T12:45:36Z</time>
      </trkpt>
      <trkpt lat="46.70695" lon="4.70271">
        <ele>217</ele>
        <time>2017-02-19T12:45:37Z</time>
      </trkpt>
      <trkpt lat="46.70701" lon="4.70268">
        <ele>218</ele>
        <time>2017-02-19T12:45:38Z</time>
      </trkpt>
      <trkpt lat="46.70705" lon="4.70266">
        <ele>218</ele>
        <time>2017-02-19T12:45:39Z</time>
      </trkpt>
      <trkpt lat="46.7071" lon="4.70264">
        <ele>219</ele>
        <time>2017-02-19T12:45:40Z</time>
      </trkpt>
      <trkpt lat="46.70715" lon="4.70261">
        <ele>219</ele>
        <time>2017-02-19T12:45:41Z</time>
      </trkpt>
      <trkpt lat="46.7072" lon="4.70259">
        <ele>220</ele>
        <time>2017-02-19T12:45:42Z</time>
      </trkpt>
      <trkpt lat="46.70724" lon="4.70257">
        <ele>220</ele>
        <time>2017-02-19T12:45:43Z</time>
      </trkpt>
      <trkpt lat="46.70732" lon="4.70253">
        <ele>220</ele>
        <time>2017-02-19T12:45:45Z</time>
      </trkpt>
      <trkpt lat="46.70739" lon="4.70249">
        <ele>219</ele>
        <time>2017-02-19T12:45:47Z</time>
      </trkpt>
      <trkpt lat="46.70749" lon="4.70248">
        <ele>219</ele>
        <time>2017-02-19T12:45:49Z</time>
      </trkpt>
      <trkpt lat="46.70756" lon="4.70245">
        <ele>219</ele>
        <time>2017-02-19T12:45:51Z</time>
      </trkpt>
      <trkpt lat="46.70761" lon="4.70243">
        <ele>218</ele>
        <time>2017-02-19T12:45:53Z</time>
      </trkpt>
      <trkpt lat="46.70766" lon="4.7024">
        <ele>218</ele>
        <time>2017-02-19T12:45:55Z</time>
      </trkpt>
      <trkpt lat="46.70773" lon="4.70236">
        <ele>218</ele>
        <time>2017-02-19T12:45:57Z</time>
      </trkpt>
      <trkpt lat="46.70779" lon="4.70232">
        <ele>218</ele>
        <time>2017-02-19T12:45:59Z</time>
      </trkpt>
      <trkpt lat="46.70784" lon="4.70231">
        <ele>218</ele>
        <time>2017-02-19T12:46:01Z</time>
      </trkpt>
      <trkpt lat="46.70791" lon="4.70228">
        <ele>217</ele>
        <time>2017-02-19T12:46:03Z</time>
      </trkpt>
      <trkpt lat="46.70796" lon="4.70226">
        <ele>217</ele>
        <time>2017-02-19T12:46:04Z</time>
      </trkpt>
      <trkpt lat="46.70801" lon="4.70225">
        <ele>217</ele>
        <time>2017-02-19T12:46:05Z</time>
      </trkpt>
      <trkpt lat="46.70809" lon="4.70221">
        <ele>216</ele>
        <time>2017-02-19T12:46:07Z</time>
      </trkpt>
      <trkpt lat="46.70816" lon="4.70216">
        <ele>215</ele>
        <time>2017-02-19T12:46:09Z</time>
      </trkpt>
      <trkpt lat="46.70821" lon="4.70214">
        <ele>215</ele>
        <time>2017-02-19T12:46:10Z</time>
      </trkpt>
      <trkpt lat="46.70826" lon="4.70211">
        <ele>215</ele>
        <time>2017-02-19T12:46:11Z</time>
      </trkpt>
      <trkpt lat="46.7083" lon="4.70209">
        <ele>215</ele>
        <time>2017-02-19T12:46:12Z</time>
      </trkpt>
      <trkpt lat="46.70837" lon="4.70208">
        <ele>214</ele>
        <time>2017-02-19T12:46:14Z</time>
      </trkpt>
      <trkpt lat="46.70842" lon="4.70205">
        <ele>214</ele>
        <time>2017-02-19T12:46:16Z</time>
      </trkpt>
      <trkpt lat="46.70849" lon="4.70202">
        <ele>214</ele>
        <time>2017-02-19T12:46:18Z</time>
      </trkpt>
      <trkpt lat="46.70857" lon="4.70198">
        <ele>214</ele>
        <time>2017-02-19T12:46:20Z</time>
      </trkpt>
      <trkpt lat="46.70864" lon="4.70194">
        <ele>213</ele>
        <time>2017-02-19T12:46:22Z</time>
      </trkpt>
      <trkpt lat="46.70869" lon="4.7019">
        <ele>213</ele>
        <time>2017-02-19T12:46:24Z</time>
      </trkpt>
      <trkpt lat="46.70876" lon="4.70187">
        <ele>212</ele>
        <time>2017-02-19T12:46:26Z</time>
      </trkpt>
      <trkpt lat="46.70883" lon="4.70185">
        <ele>211</ele>
        <time>2017-02-19T12:46:28Z</time>
      </trkpt>
      <trkpt lat="46.70888" lon="4.70184">
        <ele>211</ele>
        <time>2017-02-19T12:46:29Z</time>
      </trkpt>
      <trkpt lat="46.70892" lon="4.70183">
        <ele>210</ele>
        <time>2017-02-19T12:46:30Z</time>
      </trkpt>
      <trkpt lat="46.70897" lon="4.70181">
        <ele>210</ele>
        <time>2017-02-19T12:46:31Z</time>
      </trkpt>
      <trkpt lat="46.70905" lon="4.70177">
        <ele>210</ele>
        <time>2017-02-19T12:46:33Z</time>
      </trkpt>
      <trkpt lat="46.7091" lon="4.70175">
        <ele>211</ele>
        <time>2017-02-19T12:46:34Z</time>
      </trkpt>
      <trkpt lat="46.70915" lon="4.70173">
        <ele>211</ele>
        <time>2017-02-19T12:46:35Z</time>
      </trkpt>
      <trkpt lat="46.7092" lon="4.70171">
        <ele>211</ele>
        <time>2017-02-19T12:46:36Z</time>
      </trkpt>
      <trkpt lat="46.70929" lon="4.70169">
        <ele>211</ele>
        <time>2017-02-19T12:46:38Z</time>
      </trkpt>
      <trkpt lat="46.70933" lon="4.70167">
        <ele>211</ele>
        <time>2017-02-19T12:46:39Z</time>
      </trkpt>
      <trkpt lat="46.70941" lon="4.70164">
        <ele>211</ele>
        <time>2017-02-19T12:46:41Z</time>
      </trkpt>
      <trkpt lat="46.70949" lon="4.70162">
        <ele>211</ele>
        <time>2017-02-19T12:46:43Z</time>
      </trkpt>
      <trkpt lat="46.70955" lon="4.70162">
        <ele>211</ele>
        <time>2017-02-19T12:46:45Z</time>
      </trkpt>
      <trkpt lat="46.70961" lon="4.70159">
        <ele>210</ele>
        <time>2017-02-19T12:46:47Z</time>
      </trkpt>
      <trkpt lat="46.70969" lon="4.70159">
        <ele>210</ele>
        <time>2017-02-19T12:46:49Z</time>
      </trkpt>
      <trkpt lat="46.70977" lon="4.70158">
        <ele>210</ele>
        <time>2017-02-19T12:46:51Z</time>
      </trkpt>
      <trkpt lat="46.70986" lon="4.70157">
        <ele>211</ele>
        <time>2017-02-19T12:46:53Z</time>
      </trkpt>
      <trkpt lat="46.70994" lon="4.70156">
        <ele>212</ele>
        <time>2017-02-19T12:46:55Z</time>
      </trkpt>
      <trkpt lat="46.71" lon="4.70156">
        <ele>214</ele>
        <time>2017-02-19T12:46:56Z</time>
      </trkpt>
      <trkpt lat="46.71009" lon="4.70156">
        <ele>216</ele>
        <time>2017-02-19T12:46:58Z</time>
      </trkpt>
      <trkpt lat="46.71014" lon="4.70156">
        <ele>217</ele>
        <time>2017-02-19T12:46:59Z</time>
      </trkpt>
      <trkpt lat="46.71018" lon="4.70156">
        <ele>219</ele>
        <time>2017-02-19T12:47:00Z</time>
      </trkpt>
      <trkpt lat="46.71024" lon="4.70156">
        <ele>220</ele>
        <time>2017-02-19T12:47:01Z</time>
      </trkpt>
      <trkpt lat="46.71029" lon="4.70155">
        <ele>221</ele>
        <time>2017-02-19T12:47:02Z</time>
      </trkpt>
      <trkpt lat="46.71034" lon="4.70156">
        <ele>222</ele>
        <time>2017-02-19T12:47:03Z</time>
      </trkpt>
      <trkpt lat="46.71043" lon="4.70156">
        <ele>223</ele>
        <time>2017-02-19T12:47:05Z</time>
      </trkpt>
      <trkpt lat="46.71048" lon="4.70156">
        <ele>224</ele>
        <time>2017-02-19T12:47:06Z</time>
      </trkpt>
      <trkpt lat="46.71052" lon="4.70155">
        <ele>225</ele>
        <time>2017-02-19T12:47:07Z</time>
      </trkpt>
      <trkpt lat="46.71057" lon="4.70155">
        <ele>226</ele>
        <time>2017-02-19T12:47:08Z</time>
      </trkpt>
      <trkpt lat="46.71065" lon="4.70155">
        <ele>226</ele>
        <time>2017-02-19T12:47:10Z</time>
      </trkpt>
      <trkpt lat="46.71074" lon="4.70156">
        <ele>227</ele>
        <time>2017-02-19T12:47:12Z</time>
      </trkpt>
      <trkpt lat="46.7108" lon="4.70157">
        <ele>227</ele>
        <time>2017-02-19T12:47:13Z</time>
      </trkpt>
      <trkpt lat="46.71085" lon="4.70158">
        <ele>228</ele>
        <time>2017-02-19T12:47:14Z</time>
      </trkpt>
      <trkpt lat="46.71089" lon="4.70159">
        <ele>228</ele>
        <time>2017-02-19T12:47:15Z</time>
      </trkpt>
      <trkpt lat="46.71095" lon="4.7016">
        <ele>229</ele>
        <time>2017-02-19T12:47:16Z</time>
      </trkpt>
      <trkpt lat="46.71099" lon="4.70161">
        <ele>229</ele>
        <time>2017-02-19T12:47:17Z</time>
      </trkpt>
      <trkpt lat="46.71108" lon="4.70165">
        <ele>230</ele>
        <time>2017-02-19T12:47:19Z</time>
      </trkpt>
      <trkpt lat="46.71113" lon="4.70166">
        <ele>230</ele>
        <time>2017-02-19T12:47:20Z</time>
      </trkpt>
      <trkpt lat="46.71117" lon="4.70168">
        <ele>230</ele>
        <time>2017-02-19T12:47:21Z</time>
      </trkpt>
      <trkpt lat="46.71122" lon="4.70169">
        <ele>230</ele>
        <time>2017-02-19T12:47:22Z</time>
      </trkpt>
      <trkpt lat="46.71127" lon="4.70171">
        <ele>230</ele>
        <time>2017-02-19T12:47:23Z</time>
      </trkpt>
      <trkpt lat="46.71131" lon="4.70172">
        <ele>230</ele>
        <time>2017-02-19T12:47:24Z</time>
      </trkpt>
      <trkpt lat="46.71136" lon="4.70175">
        <ele>230</ele>
        <time>2017-02-19T12:47:25Z</time>
      </trkpt>
      <trkpt lat="46.7114" lon="4.70177">
        <ele>230</ele>
        <time>2017-02-19T12:47:26Z</time>
      </trkpt>
      <trkpt lat="46.71148" lon="4.70181">
        <ele>230</ele>
        <time>2017-02-19T12:47:28Z</time>
      </trkpt>
      <trkpt lat="46.71153" lon="4.70183">
        <ele>230</ele>
        <time>2017-02-19T12:47:29Z</time>
      </trkpt>
      <trkpt lat="46.7116" lon="4.70186">
        <ele>230</ele>
        <time>2017-02-19T12:47:31Z</time>
      </trkpt>
      <trkpt lat="46.71167" lon="4.7019">
        <ele>230</ele>
        <time>2017-02-19T12:47:33Z</time>
      </trkpt>
      <trkpt lat="46.71175" lon="4.70193">
        <ele>229</ele>
        <time>2017-02-19T12:47:35Z</time>
      </trkpt>
      <trkpt lat="46.71182" lon="4.70198">
        <ele>229</ele>
        <time>2017-02-19T12:47:37Z</time>
      </trkpt>
      <trkpt lat="46.71189" lon="4.70204">
        <ele>229</ele>
        <time>2017-02-19T12:47:39Z</time>
      </trkpt>
      <trkpt lat="46.71195" lon="4.70208">
        <ele>228</ele>
        <time>2017-02-19T12:47:41Z</time>
      </trkpt>
      <trkpt lat="46.71201" lon="4.70213">
        <ele>228</ele>
        <time>2017-02-19T12:47:43Z</time>
      </trkpt>
      <trkpt lat="46.71207" lon="4.70219">
        <ele>227</ele>
        <time>2017-02-19T12:47:45Z</time>
      </trkpt>
      <trkpt lat="46.71213" lon="4.70225">
        <ele>226</ele>
        <time>2017-02-19T12:47:47Z</time>
      </trkpt>
      <trkpt lat="46.71219" lon="4.70232">
        <ele>224</ele>
        <time>2017-02-19T12:47:49Z</time>
      </trkpt>
      <trkpt lat="46.71226" lon="4.70239">
        <ele>224</ele>
        <time>2017-02-19T12:47:51Z</time>
      </trkpt>
      <trkpt lat="46.71229" lon="4.70244">
        <ele>223</ele>
        <time>2017-02-19T12:47:53Z</time>
      </trkpt>
      <trkpt lat="46.71233" lon="4.70251">
        <ele>222</ele>
        <time>2017-02-19T12:47:55Z</time>
      </trkpt>
      <trkpt lat="46.71238" lon="4.70258">
        <ele>221</ele>
        <time>2017-02-19T12:47:57Z</time>
      </trkpt>
      <trkpt lat="46.71243" lon="4.70264">
        <ele>220</ele>
        <time>2017-02-19T12:47:58Z</time>
      </trkpt>
      <trkpt lat="46.71247" lon="4.70269">
        <ele>220</ele>
        <time>2017-02-19T12:47:59Z</time>
      </trkpt>
      <trkpt lat="46.7125" lon="4.70279">
        <ele>219</ele>
        <time>2017-02-19T12:48:01Z</time>
      </trkpt>
      <trkpt lat="46.71254" lon="4.70283">
        <ele>220</ele>
        <time>2017-02-19T12:48:03Z</time>
      </trkpt>
      <trkpt lat="46.71259" lon="4.70282">
        <ele>220</ele>
        <time>2017-02-19T12:48:06Z</time>
      </trkpt>
      <trkpt lat="46.71262" lon="4.70287">
        <ele>221</ele>
        <time>2017-02-19T12:48:09Z</time>
      </trkpt>
      <trkpt lat="46.71266" lon="4.70292">
        <ele>222</ele>
        <time>2017-02-19T12:48:12Z</time>
      </trkpt>
      <trkpt lat="46.71271" lon="4.70292">
        <ele>222</ele>
        <time>2017-02-19T12:48:17Z</time>
      </trkpt>
      <trkpt lat="46.71275" lon="4.70295">
        <ele>223</ele>
        <time>2017-02-19T12:48:21Z</time>
      </trkpt>
      <trkpt lat="46.71278" lon="4.70301">
        <ele>223</ele>
        <time>2017-02-19T12:48:23Z</time>
      </trkpt>
      <trkpt lat="46.71282" lon="4.70312">
        <ele>223</ele>
        <time>2017-02-19T12:48:25Z</time>
      </trkpt>
      <trkpt lat="46.71287" lon="4.7032">
        <ele>223</ele>
        <time>2017-02-19T12:48:27Z</time>
      </trkpt>
      <trkpt lat="46.71289" lon="4.70325">
        <ele>223</ele>
        <time>2017-02-19T12:48:29Z</time>
      </trkpt>
      <trkpt lat="46.71294" lon="4.70332">
        <ele>224</ele>
        <time>2017-02-19T12:48:31Z</time>
      </trkpt>
      <trkpt lat="46.71298" lon="4.70338">
        <ele>224</ele>
        <time>2017-02-19T12:48:33Z</time>
      </trkpt>
      <trkpt lat="46.71302" lon="4.70338">
        <ele>225</ele>
        <time>2017-02-19T12:48:35Z</time>
      </trkpt>
      <trkpt lat="46.71309" lon="4.70338">
        <ele>226</ele>
        <time>2017-02-19T12:48:38Z</time>
      </trkpt>
      <trkpt lat="46.71314" lon="4.70337">
        <ele>227</ele>
        <time>2017-02-19T12:48:40Z</time>
      </trkpt>
      <trkpt lat="46.71319" lon="4.70334">
        <ele>228</ele>
        <time>2017-02-19T12:48:42Z</time>
      </trkpt>
      <trkpt lat="46.71324" lon="4.70332">
        <ele>230</ele>
        <time>2017-02-19T12:48:44Z</time>
      </trkpt>
      <trkpt lat="46.71331" lon="4.7033">
        <ele>231</ele>
        <time>2017-02-19T12:48:46Z</time>
      </trkpt>
      <trkpt lat="46.71338" lon="4.70329">
        <ele>232</ele>
        <time>2017-02-19T12:48:48Z</time>
      </trkpt>
      <trkpt lat="46.71343" lon="4.70327">
        <ele>233</ele>
        <time>2017-02-19T12:48:49Z</time>
      </trkpt>
      <trkpt lat="46.71346" lon="4.70323">
        <ele>233</ele>
        <time>2017-02-19T12:48:50Z</time>
      </trkpt>
      <trkpt lat="46.71354" lon="4.7032">
        <ele>233</ele>
        <time>2017-02-19T12:48:52Z</time>
      </trkpt>
      <trkpt lat="46.71359" lon="4.70327">
        <ele>233</ele>
        <time>2017-02-19T12:48:54Z</time>
      </trkpt>
      <trkpt lat="46.71366" lon="4.70344">
        <ele>234</ele>
        <time>2017-02-19T12:48:58Z</time>
      </trkpt>
      <trkpt lat="46.71369" lon="4.70352">
        <ele>233</ele>
        <time>2017-02-19T12:49:00Z</time>
      </trkpt>
      <trkpt lat="46.71371" lon="4.7036">
        <ele>233</ele>
        <time>2017-02-19T12:49:02Z</time>
      </trkpt>
      <trkpt lat="46.71374" lon="4.70367">
        <ele>234</ele>
        <time>2017-02-19T12:49:04Z</time>
      </trkpt>
      <trkpt lat="46.71377" lon="4.70372">
        <ele>234</ele>
        <time>2017-02-19T12:49:06Z</time>
      </trkpt>
      <trkpt lat="46.71382" lon="4.70377">
        <ele>234</ele>
        <time>2017-02-19T12:49:08Z</time>
      </trkpt>
      <trkpt lat="46.71388" lon="4.70381">
        <ele>234</ele>
        <time>2017-02-19T12:49:10Z</time>
      </trkpt>
      <trkpt lat="46.71392" lon="4.70384">
        <ele>234</ele>
        <time>2017-02-19T12:49:12Z</time>
      </trkpt>
      <trkpt lat="46.71397" lon="4.7039">
        <ele>234</ele>
        <time>2017-02-19T12:49:14Z</time>
      </trkpt>
      <trkpt lat="46.71399" lon="4.70396">
        <ele>233</ele>
        <time>2017-02-19T12:49:15Z</time>
      </trkpt>
      <trkpt lat="46.71404" lon="4.70404">
        <ele>232</ele>
        <time>2017-02-19T12:49:17Z</time>
      </trkpt>
      <trkpt lat="46.71411" lon="4.70408">
        <ele>231</ele>
        <time>2017-02-19T12:49:19Z</time>
      </trkpt>
      <trkpt lat="46.71416" lon="4.7041">
        <ele>230</ele>
        <time>2017-02-19T12:49:22Z</time>
      </trkpt>
      <trkpt lat="46.71422" lon="4.70415">
        <ele>228</ele>
        <time>2017-02-19T12:49:25Z</time>
      </trkpt>
      <trkpt lat="46.71429" lon="4.70419">
        <ele>227</ele>
        <time>2017-02-19T12:49:27Z</time>
      </trkpt>
      <trkpt lat="46.71433" lon="4.70422">
        <ele>226</ele>
        <time>2017-02-19T12:49:28Z</time>
      </trkpt>
      <trkpt lat="46.71438" lon="4.70426">
        <ele>225</ele>
        <time>2017-02-19T12:49:29Z</time>
      </trkpt>
      <trkpt lat="46.71442" lon="4.7043">
        <ele>224</ele>
        <time>2017-02-19T12:49:30Z</time>
      </trkpt>
      <trkpt lat="46.71446" lon="4.70434">
        <ele>224</ele>
        <time>2017-02-19T12:49:31Z</time>
      </trkpt>
      <trkpt lat="46.7145" lon="4.70438">
        <ele>224</ele>
        <time>2017-02-19T12:49:32Z</time>
      </trkpt>
      <trkpt lat="46.71454" lon="4.70442">
        <ele>224</ele>
        <time>2017-02-19T12:49:33Z</time>
      </trkpt>
      <trkpt lat="46.71458" lon="4.70446">
        <ele>225</ele>
        <time>2017-02-19T12:49:34Z</time>
      </trkpt>
      <trkpt lat="46.71461" lon="4.70451">
        <ele>225</ele>
        <time>2017-02-19T12:49:35Z</time>
      </trkpt>
      <trkpt lat="46.71465" lon="4.70456">
        <ele>225</ele>
        <time>2017-02-19T12:49:36Z</time>
      </trkpt>
      <trkpt lat="46.7147" lon="4.70465">
        <ele>225</ele>
        <time>2017-02-19T12:49:38Z</time>
      </trkpt>
      <trkpt lat="46.71477" lon="4.70472">
        <ele>225</ele>
        <time>2017-02-19T12:49:40Z</time>
      </trkpt>
      <trkpt lat="46.71481" lon="4.70477">
        <ele>225</ele>
        <time>2017-02-19T12:49:41Z</time>
      </trkpt>
      <trkpt lat="46.71485" lon="4.70482">
        <ele>225</ele>
        <time>2017-02-19T12:49:42Z</time>
      </trkpt>
      <trkpt lat="46.71489" lon="4.70487">
        <ele>225</ele>
        <time>2017-02-19T12:49:43Z</time>
      </trkpt>
      <trkpt lat="46.71494" lon="4.70492">
        <ele>225</ele>
        <time>2017-02-19T12:49:44Z</time>
      </trkpt>
      <trkpt lat="46.71497" lon="4.70497">
        <ele>225</ele>
        <time>2017-02-19T12:49:45Z</time>
      </trkpt>
      <trkpt lat="46.71502" lon="4.70502">
        <ele>225</ele>
        <time>2017-02-19T12:49:46Z</time>
      </trkpt>
      <trkpt lat="46.71506" lon="4.70507">
        <ele>225</ele>
        <time>2017-02-19T12:49:47Z</time>
      </trkpt>
      <trkpt lat="46.7151" lon="4.70512">
        <ele>225</ele>
        <time>2017-02-19T12:49:48Z</time>
      </trkpt>
      <trkpt lat="46.71516" lon="4.70522">
        <ele>225</ele>
        <time>2017-02-19T12:49:50Z</time>
      </trkpt>
      <trkpt lat="46.7152" lon="4.70526">
        <ele>225</ele>
        <time>2017-02-19T12:49:51Z</time>
      </trkpt>
      <trkpt lat="46.71523" lon="4.70531">
        <ele>225</ele>
        <time>2017-02-19T12:49:52Z</time>
      </trkpt>
      <trkpt lat="46.71528" lon="4.70535">
        <ele>225</ele>
        <time>2017-02-19T12:49:53Z</time>
      </trkpt>
      <trkpt lat="46.71532" lon="4.70539">
        <ele>225</ele>
        <time>2017-02-19T12:49:54Z</time>
      </trkpt>
      <trkpt lat="46.71536" lon="4.70543">
        <ele>225</ele>
        <time>2017-02-19T12:49:55Z</time>
      </trkpt>
      <trkpt lat="46.7154" lon="4.70548">
        <ele>225</ele>
        <time>2017-02-19T12:49:56Z</time>
      </trkpt>
      <trkpt lat="46.71545" lon="4.70553">
        <ele>224</ele>
        <time>2017-02-19T12:49:57Z</time>
      </trkpt>
      <trkpt lat="46.7155" lon="4.70557">
        <ele>224</ele>
        <time>2017-02-19T12:49:58Z</time>
      </trkpt>
      <trkpt lat="46.71555" lon="4.70562">
        <ele>224</ele>
        <time>2017-02-19T12:49:59Z</time>
      </trkpt>
      <trkpt lat="46.7156" lon="4.70567">
        <ele>224</ele>
        <time>2017-02-19T12:50:00Z</time>
      </trkpt>
      <trkpt lat="46.71565" lon="4.70571">
        <ele>225</ele>
        <time>2017-02-19T12:50:01Z</time>
      </trkpt>
      <trkpt lat="46.71569" lon="4.70576">
        <ele>225</ele>
        <time>2017-02-19T12:50:02Z</time>
      </trkpt>
      <trkpt lat="46.71573" lon="4.70581">
        <ele>225</ele>
        <time>2017-02-19T12:50:03Z</time>
      </trkpt>
      <trkpt lat="46.71578" lon="4.70586">
        <ele>225</ele>
        <time>2017-02-19T12:50:04Z</time>
      </trkpt>
      <trkpt lat="46.71582" lon="4.7059">
        <ele>225</ele>
        <time>2017-02-19T12:50:05Z</time>
      </trkpt>
      <trkpt lat="46.71587" lon="4.70595">
        <ele>225</ele>
        <time>2017-02-19T12:50:06Z</time>
      </trkpt>
      <trkpt lat="46.71591" lon="4.70599">
        <ele>225</ele>
        <time>2017-02-19T12:50:07Z</time>
      </trkpt>
      <trkpt lat="46.71595" lon="4.70603">
        <ele>225</ele>
        <time>2017-02-19T12:50:08Z</time>
      </trkpt>
      <trkpt lat="46.716" lon="4.70608">
        <ele>225</ele>
        <time>2017-02-19T12:50:09Z</time>
      </trkpt>
      <trkpt lat="46.71603" lon="4.70612">
        <ele>225</ele>
        <time>2017-02-19T12:50:10Z</time>
      </trkpt>
      <trkpt lat="46.71607" lon="4.70617">
        <ele>224</ele>
        <time>2017-02-19T12:50:11Z</time>
      </trkpt>
      <trkpt lat="46.71612" lon="4.70621">
        <ele>224</ele>
        <time>2017-02-19T12:50:12Z</time>
      </trkpt>
      <trkpt lat="46.71616" lon="4.70625">
        <ele>224</ele>
        <time>2017-02-19T12:50:13Z</time>
      </trkpt>
      <trkpt lat="46.71621" lon="4.7063">
        <ele>224</ele>
        <time>2017-02-19T12:50:14Z</time>
      </trkpt>
      <trkpt lat="46.71625" lon="4.70635">
        <ele>223</ele>
        <time>2017-02-19T12:50:15Z</time>
      </trkpt>
      <trkpt lat="46.71628" lon="4.7064">
        <ele>223</ele>
        <time>2017-02-19T12:50:16Z</time>
      </trkpt>
      <trkpt lat="46.71632" lon="4.70645">
        <ele>223</ele>
        <time>2017-02-19T12:50:17Z</time>
      </trkpt>
      <trkpt lat="46.71637" lon="4.70649">
        <ele>222</ele>
        <time>2017-02-19T12:50:18Z</time>
      </trkpt>
      <trkpt lat="46.71642" lon="4.70653">
        <ele>222</ele>
        <time>2017-02-19T12:50:19Z</time>
      </trkpt>
      <trkpt lat="46.71646" lon="4.70658">
        <ele>221</ele>
        <time>2017-02-19T12:50:20Z</time>
      </trkpt>
      <trkpt lat="46.7165" lon="4.70663">
        <ele>221</ele>
        <time>2017-02-19T12:50:21Z</time>
      </trkpt>
      <trkpt lat="46.71654" lon="4.70667">
        <ele>220</ele>
        <time>2017-02-19T12:50:22Z</time>
      </trkpt>
      <trkpt lat="46.71658" lon="4.7067">
        <ele>220</ele>
        <time>2017-02-19T12:50:23Z</time>
      </trkpt>
      <trkpt lat="46.71662" lon="4.70674">
        <ele>220</ele>
        <time>2017-02-19T12:50:24Z</time>
      </trkpt>
      <trkpt lat="46.71666" lon="4.70678">
        <ele>219</ele>
        <time>2017-02-19T12:50:25Z</time>
      </trkpt>
      <trkpt lat="46.7167" lon="4.70683">
        <ele>219</ele>
        <time>2017-02-19T12:50:26Z</time>
      </trkpt>
      <trkpt lat="46.71674" lon="4.70688">
        <ele>219</ele>
        <time>2017-02-19T12:50:27Z</time>
      </trkpt>
      <trkpt lat="46.71678" lon="4.70693">
        <ele>219</ele>
        <time>2017-02-19T12:50:28Z</time>
      </trkpt>
      <trkpt lat="46.71683" lon="4.70699">
        <ele>219</ele>
        <time>2017-02-19T12:50:29Z</time>
      </trkpt>
      <trkpt lat="46.71688" lon="4.70705">
        <ele>219</ele>
        <time>2017-02-19T12:50:30Z</time>
      </trkpt>
      <trkpt lat="46.71693" lon="4.7071">
        <ele>219</ele>
        <time>2017-02-19T12:50:31Z</time>
      </trkpt>
      <trkpt lat="46.717" lon="4.70716">
        <ele>220</ele>
        <time>2017-02-19T12:50:32Z</time>
      </trkpt>
      <trkpt lat="46.71705" lon="4.70721">
        <ele>221</ele>
        <time>2017-02-19T12:50:33Z</time>
      </trkpt>
      <trkpt lat="46.71708" lon="4.70725">
        <ele>222</ele>
        <time>2017-02-19T12:50:34Z</time>
      </trkpt>
      <trkpt lat="46.71712" lon="4.7073">
        <ele>222</ele>
        <time>2017-02-19T12:50:35Z</time>
      </trkpt>
      <trkpt lat="46.71717" lon="4.70735">
        <ele>222</ele>
        <time>2017-02-19T12:50:36Z</time>
      </trkpt>
      <trkpt lat="46.71722" lon="4.7074">
        <ele>223</ele>
        <time>2017-02-19T12:50:37Z</time>
      </trkpt>
      <trkpt lat="46.71727" lon="4.70745">
        <ele>223</ele>
        <time>2017-02-19T12:50:38Z</time>
      </trkpt>
      <trkpt lat="46.71733" lon="4.7075">
        <ele>223</ele>
        <time>2017-02-19T12:50:39Z</time>
      </trkpt>
      <trkpt lat="46.71738" lon="4.70755">
        <ele>224</ele>
        <time>2017-02-19T12:50:40Z</time>
      </trkpt>
      <trkpt lat="46.71743" lon="4.7076">
        <ele>224</ele>
        <time>2017-02-19T12:50:41Z</time>
      </trkpt>
      <trkpt lat="46.71748" lon="4.70765">
        <ele>225</ele>
        <time>2017-02-19T12:50:42Z</time>
      </trkpt>
      <trkpt lat="46.71753" lon="4.7077">
        <ele>225</ele>
        <time>2017-02-19T12:50:43Z</time>
      </trkpt>
      <trkpt lat="46.71758" lon="4.70775">
        <ele>225</ele>
        <time>2017-02-19T12:50:44Z</time>
      </trkpt>
      <trkpt lat="46.71763" lon="4.7078">
        <ele>226</ele>
        <time>2017-02-19T12:50:45Z</time>
      </trkpt>
      <trkpt lat="46.71767" lon="4.70785">
        <ele>226</ele>
        <time>2017-02-19T12:50:46Z</time>
      </trkpt>
      <trkpt lat="46.71772" lon="4.7079">
        <ele>227</ele>
        <time>2017-02-19T12:50:47Z</time>
      </trkpt>
      <trkpt lat="46.71777" lon="4.70795">
        <ele>227</ele>
        <time>2017-02-19T12:50:48Z</time>
      </trkpt>
      <trkpt lat="46.71782" lon="4.708">
        <ele>227</ele>
        <time>2017-02-19T12:50:49Z</time>
      </trkpt>
      <trkpt lat="46.71787" lon="4.70805">
        <ele>228</ele>
        <time>2017-02-19T12:50:50Z</time>
      </trkpt>
      <trkpt lat="46.71792" lon="4.7081">
        <ele>228</ele>
        <time>2017-02-19T12:50:51Z</time>
      </trkpt>
      <trkpt lat="46.71796" lon="4.70815">
        <ele>228</ele>
        <time>2017-02-19T12:50:52Z</time>
      </trkpt>
      <trkpt lat="46.71801" lon="4.7082">
        <ele>228</ele>
        <time>2017-02-19T12:50:53Z</time>
      </trkpt>
      <trkpt lat="46.71806" lon="4.70824">
        <ele>228</ele>
        <time>2017-02-19T12:50:54Z</time>
      </trkpt>
      <trkpt lat="46.7181" lon="4.70829">
        <ele>228</ele>
        <time>2017-02-19T12:50:55Z</time>
      </trkpt>
      <trkpt lat="46.71815" lon="4.70834">
        <ele>228</ele>
        <time>2017-02-19T12:50:56Z</time>
      </trkpt>
      <trkpt lat="46.71819" lon="4.70838">
        <ele>228</ele>
        <time>2017-02-19T12:50:57Z</time>
      </trkpt>
      <trkpt lat="46.71822" lon="4.70842">
        <ele>228</ele>
        <time>2017-02-19T12:50:58Z</time>
      </trkpt>
      <trkpt lat="46.7183" lon="4.70848">
        <ele>227</ele>
        <time>2017-02-19T12:51:00Z</time>
      </trkpt>
      <trkpt lat="46.71837" lon="4.70857">
        <ele>227</ele>
        <time>2017-02-19T12:51:02Z</time>
      </trkpt>
      <trkpt lat="46.71841" lon="4.70862">
        <ele>227</ele>
        <time>2017-02-19T12:51:03Z</time>
      </trkpt>
      <trkpt lat="46.71846" lon="4.70868">
        <ele>226</ele>
        <time>2017-02-19T12:51:04Z</time>
      </trkpt>
      <trkpt lat="46.71851" lon="4.70873">
        <ele>226</ele>
        <time>2017-02-19T12:51:05Z</time>
      </trkpt>
      <trkpt lat="46.71856" lon="4.70879">
        <ele>226</ele>
        <time>2017-02-19T12:51:06Z</time>
      </trkpt>
      <trkpt lat="46.71861" lon="4.70884">
        <ele>226</ele>
        <time>2017-02-19T12:51:07Z</time>
      </trkpt>
      <trkpt lat="46.71866" lon="4.70889">
        <ele>226</ele>
        <time>2017-02-19T12:51:08Z</time>
      </trkpt>
      <trkpt lat="46.71871" lon="4.70894">
        <ele>226</ele>
        <time>2017-02-19T12:51:09Z</time>
      </trkpt>
      <trkpt lat="46.71876" lon="4.70898">
        <ele>226</ele>
        <time>2017-02-19T12:51:10Z</time>
      </trkpt>
      <trkpt lat="46.7188" lon="4.70902">
        <ele>226</ele>
        <time>2017-02-19T12:51:11Z</time>
      </trkpt>
      <trkpt lat="46.71885" lon="4.70906">
        <ele>225</ele>
        <time>2017-02-19T12:51:12Z</time>
      </trkpt>
      <trkpt lat="46.71889" lon="4.70911">
        <ele>225</ele>
        <time>2017-02-19T12:51:13Z</time>
      </trkpt>
      <trkpt lat="46.71894" lon="4.70915">
        <ele>225</ele>
        <time>2017-02-19T12:51:14Z</time>
      </trkpt>
      <trkpt lat="46.71898" lon="4.7092">
        <ele>225</ele>
        <time>2017-02-19T12:51:15Z</time>
      </trkpt>
      <trkpt lat="46.71903" lon="4.70925">
        <ele>224</ele>
        <time>2017-02-19T12:51:16Z</time>
      </trkpt>
      <trkpt lat="46.71909" lon="4.7093">
        <ele>224</ele>
        <time>2017-02-19T12:51:17Z</time>
      </trkpt>
      <trkpt lat="46.71914" lon="4.70935">
        <ele>224</ele>
        <time>2017-02-19T12:51:18Z</time>
      </trkpt>
      <trkpt lat="46.71918" lon="4.7094">
        <ele>224</ele>
        <time>2017-02-19T12:51:19Z</time>
      </trkpt>
      <trkpt lat="46.71923" lon="4.70945">
        <ele>224</ele>
        <time>2017-02-19T12:51:20Z</time>
      </trkpt>
      <trkpt lat="46.71927" lon="4.7095">
        <ele>224</ele>
        <time>2017-02-19T12:51:21Z</time>
      </trkpt>
      <trkpt lat="46.71932" lon="4.70955">
        <ele>224</ele>
        <time>2017-02-19T12:51:22Z</time>
      </trkpt>
      <trkpt lat="46.71937" lon="4.70961">
        <ele>225</ele>
        <time>2017-02-19T12:51:23Z</time>
      </trkpt>
      <trkpt lat="46.71943" lon="4.70967">
        <ele>225</ele>
        <time>2017-02-19T12:51:24Z</time>
      </trkpt>
      <trkpt lat="46.71948" lon="4.70973">
        <ele>225</ele>
        <time>2017-02-19T12:51:25Z</time>
      </trkpt>
      <trkpt lat="46.71953" lon="4.70979">
        <ele>226</ele>
        <time>2017-02-19T12:51:26Z</time>
      </trkpt>
      <trkpt lat="46.71958" lon="4.70984">
        <ele>226</ele>
        <time>2017-02-19T12:51:27Z</time>
      </trkpt>
      <trkpt lat="46.71964" lon="4.7099">
        <ele>227</ele>
        <time>2017-02-19T12:51:28Z</time>
      </trkpt>
      <trkpt lat="46.71969" lon="4.70995">
        <ele>227</ele>
        <time>2017-02-19T12:51:29Z</time>
      </trkpt>
      <trkpt lat="46.71975" lon="4.71">
        <ele>227</ele>
        <time>2017-02-19T12:51:30Z</time>
      </trkpt>
      <trkpt lat="46.7198" lon="4.71005">
        <ele>227</ele>
        <time>2017-02-19T12:51:31Z</time>
      </trkpt>
      <trkpt lat="46.71985" lon="4.7101">
        <ele>228</ele>
        <time>2017-02-19T12:51:32Z</time>
      </trkpt>
      <trkpt lat="46.7199" lon="4.71015">
        <ele>228</ele>
        <time>2017-02-19T12:51:33Z</time>
      </trkpt>
      <trkpt lat="46.71995" lon="4.7102">
        <ele>228</ele>
        <time>2017-02-19T12:51:34Z</time>
      </trkpt>
      <trkpt lat="46.72" lon="4.71025">
        <ele>228</ele>
        <time>2017-02-19T12:51:35Z</time>
      </trkpt>
      <trkpt lat="46.72005" lon="4.7103">
        <ele>228</ele>
        <time>2017-02-19T12:51:36Z</time>
      </trkpt>
      <trkpt lat="46.7201" lon="4.71035">
        <ele>228</ele>
        <time>2017-02-19T12:51:37Z</time>
      </trkpt>
      <trkpt lat="46.72015" lon="4.7104">
        <ele>228</ele>
        <time>2017-02-19T12:51:38Z</time>
      </trkpt>
      <trkpt lat="46.7202" lon="4.71045">
        <ele>228</ele>
        <time>2017-02-19T12:51:39Z</time>
      </trkpt>
      <trkpt lat="46.72025" lon="4.7105">
        <ele>228</ele>
        <time>2017-02-19T12:51:40Z</time>
      </trkpt>
      <trkpt lat="46.7203" lon="4.71055">
        <ele>228</ele>
        <time>2017-02-19T12:51:41Z</time>
      </trkpt>
      <trkpt lat="46.72035" lon="4.7106">
        <ele>228</ele>
        <time>2017-02-19T12:51:42Z</time>
      </trkpt>
      <trkpt lat="46.72039" lon="4.71066">
        <ele>227</ele>
        <time>2017-02-19T12:51:43Z</time>
      </trkpt>
      <trkpt lat="46.72045" lon="4.71072">
        <ele>227</ele>
        <time>2017-02-19T12:51:44Z</time>
      </trkpt>
      <trkpt lat="46.7205" lon="4.71077">
        <ele>227</ele>
        <time>2017-02-19T12:51:45Z</time>
      </trkpt>
      <trkpt lat="46.72055" lon="4.71083">
        <ele>227</ele>
        <time>2017-02-19T12:51:46Z</time>
      </trkpt>
      <trkpt lat="46.72061" lon="4.71088">
        <ele>226</ele>
        <time>2017-02-19T12:51:47Z</time>
      </trkpt>
      <trkpt lat="46.72066" lon="4.71094">
        <ele>226</ele>
        <time>2017-02-19T12:51:48Z</time>
      </trkpt>
      <trkpt lat="46.72071" lon="4.71099">
        <ele>226</ele>
        <time>2017-02-19T12:51:49Z</time>
      </trkpt>
      <trkpt lat="46.72076" lon="4.71105">
        <ele>226</ele>
        <time>2017-02-19T12:51:50Z</time>
      </trkpt>
      <trkpt lat="46.72082" lon="4.7111">
        <ele>226</ele>
        <time>2017-02-19T12:51:51Z</time>
      </trkpt>
      <trkpt lat="46.72087" lon="4.71115">
        <ele>226</ele>
        <time>2017-02-19T12:51:52Z</time>
      </trkpt>
      <trkpt lat="46.72092" lon="4.7112">
        <ele>226</ele>
        <time>2017-02-19T12:51:53Z</time>
      </trkpt>
      <trkpt lat="46.72098" lon="4.71126">
        <ele>226</ele>
        <time>2017-02-19T12:51:54Z</time>
      </trkpt>
      <trkpt lat="46.72104" lon="4.71131">
        <ele>226</ele>
        <time>2017-02-19T12:51:55Z</time>
      </trkpt>
      <trkpt lat="46.72109" lon="4.71137">
        <ele>226</ele>
        <time>2017-02-19T12:51:56Z</time>
      </trkpt>
      <trkpt lat="46.72115" lon="4.71142">
        <ele>226</ele>
        <time>2017-02-19T12:51:57Z</time>
      </trkpt>
      <trkpt lat="46.72121" lon="4.71148">
        <ele>226</ele>
        <time>2017-02-19T12:51:58Z</time>
      </trkpt>
      <trkpt lat="46.72126" lon="4.71153">
        <ele>226</ele>
        <time>2017-02-19T12:51:59Z</time>
      </trkpt>
      <trkpt lat="46.72132" lon="4.71159">
        <ele>226</ele>
        <time>2017-02-19T12:52:00Z</time>
      </trkpt>
      <trkpt lat="46.72137" lon="4.71164">
        <ele>226</ele>
        <time>2017-02-19T12:52:01Z</time>
      </trkpt>
      <trkpt lat="46.72143" lon="4.71171">
        <ele>226</ele>
        <time>2017-02-19T12:52:02Z</time>
      </trkpt>
      <trkpt lat="46.72148" lon="4.71177">
        <ele>225</ele>
        <time>2017-02-19T12:52:03Z</time>
      </trkpt>
      <trkpt lat="46.72154" lon="4.71183">
        <ele>225</ele>
        <time>2017-02-19T12:52:04Z</time>
      </trkpt>
      <trkpt lat="46.72159" lon="4.71189">
        <ele>225</ele>
        <time>2017-02-19T12:52:05Z</time>
      </trkpt>
      <trkpt lat="46.72164" lon="4.71195">
        <ele>225</ele>
        <time>2017-02-19T12:52:06Z</time>
      </trkpt>
      <trkpt lat="46.7217" lon="4.71202">
        <ele>224</ele>
        <time>2017-02-19T12:52:07Z</time>
      </trkpt>
      <trkpt lat="46.72176" lon="4.71208">
        <ele>224</ele>
        <time>2017-02-19T12:52:08Z</time>
      </trkpt>
      <trkpt lat="46.72181" lon="4.71214">
        <ele>224</ele>
        <time>2017-02-19T12:52:09Z</time>
      </trkpt>
      <trkpt lat="46.72186" lon="4.7122">
        <ele>224</ele>
        <time>2017-02-19T12:52:10Z</time>
      </trkpt>
      <trkpt lat="46.72191" lon="4.71225">
        <ele>224</ele>
        <time>2017-02-19T12:52:11Z</time>
      </trkpt>
      <trkpt lat="46.72197" lon="4.71231">
        <ele>224</ele>
        <time>2017-02-19T12:52:12Z</time>
      </trkpt>
      <trkpt lat="46.72202" lon="4.71237">
        <ele>224</ele>
        <time>2017-02-19T12:52:13Z</time>
      </trkpt>
      <trkpt lat="46.72208" lon="4.71243">
        <ele>224</ele>
        <time>2017-02-19T12:52:14Z</time>
      </trkpt>
      <trkpt lat="46.72213" lon="4.71249">
        <ele>224</ele>
        <time>2017-02-19T12:52:15Z</time>
      </trkpt>
      <trkpt lat="46.72218" lon="4.71255">
        <ele>224</ele>
        <time>2017-02-19T12:52:16Z</time>
      </trkpt>
      <trkpt lat="46.72224" lon="4.71261">
        <ele>225</ele>
        <time>2017-02-19T12:52:17Z</time>
      </trkpt>
      <trkpt lat="46.72229" lon="4.71266">
        <ele>225</ele>
        <time>2017-02-19T12:52:18Z</time>
      </trkpt>
      <trkpt lat="46.72234" lon="4.71271">
        <ele>225</ele>
        <time>2017-02-19T12:52:19Z</time>
      </trkpt>
      <trkpt lat="46.7224" lon="4.71276">
        <ele>225</ele>
        <time>2017-02-19T12:52:20Z</time>
      </trkpt>
      <trkpt lat="46.72245" lon="4.71282">
        <ele>224</ele>
        <time>2017-02-19T12:52:21Z</time>
      </trkpt>
      <trkpt lat="46.7225" lon="4.71287">
        <ele>224</ele>
        <time>2017-02-19T12:52:22Z</time>
      </trkpt>
      <trkpt lat="46.72256" lon="4.71292">
        <ele>224</ele>
        <time>2017-02-19T12:52:23Z</time>
      </trkpt>
      <trkpt lat="46.72261" lon="4.71296">
        <ele>224</ele>
        <time>2017-02-19T12:52:24Z</time>
      </trkpt>
      <trkpt lat="46.72266" lon="4.71301">
        <ele>223</ele>
        <time>2017-02-19T12:52:25Z</time>
      </trkpt>
      <trkpt lat="46.72272" lon="4.71306">
        <ele>223</ele>
        <time>2017-02-19T12:52:26Z</time>
      </trkpt>
      <trkpt lat="46.72276" lon="4.71311">
        <ele>222</ele>
        <time>2017-02-19T12:52:27Z</time>
      </trkpt>
      <trkpt lat="46.72281" lon="4.71316">
        <ele>221</ele>
        <time>2017-02-19T12:52:28Z</time>
      </trkpt>
      <trkpt lat="46.72287" lon="4.71322">
        <ele>220</ele>
        <time>2017-02-19T12:52:29Z</time>
      </trkpt>
      <trkpt lat="46.72293" lon="4.71329">
        <ele>219</ele>
        <time>2017-02-19T12:52:30Z</time>
      </trkpt>
      <trkpt lat="46.72299" lon="4.71336">
        <ele>218</ele>
        <time>2017-02-19T12:52:31Z</time>
      </trkpt>
      <trkpt lat="46.72305" lon="4.71342">
        <ele>218</ele>
        <time>2017-02-19T12:52:32Z</time>
      </trkpt>
      <trkpt lat="46.72316" lon="4.71354">
        <ele>216</ele>
        <time>2017-02-19T12:52:34Z</time>
      </trkpt>
      <trkpt lat="46.72321" lon="4.71359">
        <ele>215</ele>
        <time>2017-02-19T12:52:35Z</time>
      </trkpt>
      <trkpt lat="46.72326" lon="4.71364">
        <ele>214</ele>
        <time>2017-02-19T12:52:36Z</time>
      </trkpt>
      <trkpt lat="46.72332" lon="4.71369">
        <ele>213</ele>
        <time>2017-02-19T12:52:37Z</time>
      </trkpt>
      <trkpt lat="46.72337" lon="4.71373">
        <ele>212</ele>
        <time>2017-02-19T12:52:38Z</time>
      </trkpt>
      <trkpt lat="46.72342" lon="4.71376">
        <ele>211</ele>
        <time>2017-02-19T12:52:39Z</time>
      </trkpt>
      <trkpt lat="46.72347" lon="4.71379">
        <ele>210</ele>
        <time>2017-02-19T12:52:40Z</time>
      </trkpt>
      <trkpt lat="46.72352" lon="4.71381">
        <ele>210</ele>
        <time>2017-02-19T12:52:41Z</time>
      </trkpt>
      <trkpt lat="46.72356" lon="4.71383">
        <ele>210</ele>
        <time>2017-02-19T12:52:42Z</time>
      </trkpt>
      <trkpt lat="46.7236" lon="4.71387">
        <ele>209</ele>
        <time>2017-02-19T12:52:43Z</time>
      </trkpt>
      <trkpt lat="46.72367" lon="4.71392">
        <ele>208</ele>
        <time>2017-02-19T12:52:45Z</time>
      </trkpt>
      <trkpt lat="46.72371" lon="4.71399">
        <ele>206</ele>
        <time>2017-02-19T12:52:47Z</time>
      </trkpt>
      <trkpt lat="46.72376" lon="4.71406">
        <ele>203</ele>
        <time>2017-02-19T12:52:49Z</time>
      </trkpt>
      <trkpt lat="46.72379" lon="4.7141">
        <ele>199</ele>
        <time>2017-02-19T12:52:50Z</time>
      </trkpt>
      <trkpt lat="46.72383" lon="4.71416">
        <ele>195</ele>
        <time>2017-02-19T12:52:51Z</time>
      </trkpt>
      <trkpt lat="46.72386" lon="4.71424">
        <ele>192</ele>
        <time>2017-02-19T12:52:52Z</time>
      </trkpt>
      <trkpt lat="46.72389" lon="4.71431">
        <ele>189</ele>
        <time>2017-02-19T12:52:53Z</time>
      </trkpt>
      <trkpt lat="46.7239" lon="4.71438">
        <ele>187</ele>
        <time>2017-02-19T12:52:54Z</time>
      </trkpt>
      <trkpt lat="46.72393" lon="4.71445">
        <ele>184</ele>
        <time>2017-02-19T12:52:55Z</time>
      </trkpt>
      <trkpt lat="46.72397" lon="4.71451">
        <ele>182</ele>
        <time>2017-02-19T12:52:56Z</time>
      </trkpt>
      <trkpt lat="46.72399" lon="4.71457">
        <ele>180</ele>
        <time>2017-02-19T12:52:57Z</time>
      </trkpt>
      <trkpt lat="46.72409" lon="4.71474">
        <ele>180</ele>
        <time>2017-02-19T12:52:58Z</time>
      </trkpt>
      <trkpt lat="46.72413" lon="4.71482">
        <ele>179</ele>
        <time>2017-02-19T12:53:00Z</time>
      </trkpt>
      <trkpt lat="46.72413" lon="4.71488">
        <ele>179</ele>
        <time>2017-02-19T12:53:01Z</time>
      </trkpt>
      <trkpt lat="46.72415" lon="4.71496">
        <ele>179</ele>
        <time>2017-02-19T12:53:02Z</time>
      </trkpt>
      <trkpt lat="46.72417" lon="4.71502">
        <ele>179</ele>
        <time>2017-02-19T12:53:03Z</time>
      </trkpt>
      <trkpt lat="46.72419" lon="4.71509">
        <ele>177</ele>
        <time>2017-02-19T12:53:04Z</time>
      </trkpt>
      <trkpt lat="46.72421" lon="4.71517">
        <ele>176</ele>
        <time>2017-02-19T12:53:05Z</time>
      </trkpt>
      <trkpt lat="46.72424" lon="4.71524">
        <ele>174</ele>
        <time>2017-02-19T12:53:06Z</time>
      </trkpt>
      <trkpt lat="46.72427" lon="4.71531">
        <ele>171</ele>
        <time>2017-02-19T12:53:07Z</time>
      </trkpt>
      <trkpt lat="46.7243" lon="4.71539">
        <ele>168</ele>
        <time>2017-02-19T12:53:08Z</time>
      </trkpt>
      <trkpt lat="46.72434" lon="4.71546">
        <ele>165</ele>
        <time>2017-02-19T12:53:09Z</time>
      </trkpt>
      <trkpt lat="46.72439" lon="4.71552">
        <ele>161</ele>
        <time>2017-02-19T12:53:10Z</time>
      </trkpt>
      <trkpt lat="46.72442" lon="4.71556">
        <ele>158</ele>
        <time>2017-02-19T12:53:11Z</time>
      </trkpt>
      <trkpt lat="46.72444" lon="4.71564">
        <ele>155</ele>
        <time>2017-02-19T12:53:12Z</time>
      </trkpt>
      <trkpt lat="46.72458" lon="4.71589">
        <ele>154</ele>
        <time>2017-02-19T12:53:13Z</time>
      </trkpt>
      <trkpt lat="46.72461" lon="4.71594">
        <ele>153</ele>
        <time>2017-02-19T12:53:14Z</time>
      </trkpt>
      <trkpt lat="46.72466" lon="4.71599">
        <ele>152</ele>
        <time>2017-02-19T12:53:15Z</time>
      </trkpt>
      <trkpt lat="46.72471" lon="4.71603">
        <ele>151</ele>
        <time>2017-02-19T12:53:16Z</time>
      </trkpt>
      <trkpt lat="46.72476" lon="4.71607">
        <ele>151</ele>
        <time>2017-02-19T12:53:17Z</time>
      </trkpt>
      <trkpt lat="46.72482" lon="4.71611">
        <ele>150</ele>
        <time>2017-02-19T12:53:18Z</time>
      </trkpt>
      <trkpt lat="46.72487" lon="4.71614">
        <ele>148</ele>
        <time>2017-02-19T12:53:19Z</time>
      </trkpt>
      <trkpt lat="46.72492" lon="4.71618">
        <ele>147</ele>
        <time>2017-02-19T12:53:20Z</time>
      </trkpt>
      <trkpt lat="46.72498" lon="4.71626">
        <ele>145</ele>
        <time>2017-02-19T12:53:22Z</time>
      </trkpt>
      <trkpt lat="46.72516" lon="4.71633">
        <ele>144</ele>
        <time>2017-02-19T12:53:23Z</time>
      </trkpt>
      <trkpt lat="46.7252" lon="4.71642">
        <ele>143</ele>
        <time>2017-02-19T12:53:25Z</time>
      </trkpt>
      <trkpt lat="46.72524" lon="4.7165">
        <ele>141</ele>
        <time>2017-02-19T12:53:27Z</time>
      </trkpt>
      <trkpt lat="46.72528" lon="4.71659">
        <ele>139</ele>
        <time>2017-02-19T12:53:29Z</time>
      </trkpt>
      <trkpt lat="46.72532" lon="4.71664">
        <ele>138</ele>
        <time>2017-02-19T12:53:30Z</time>
      </trkpt>
      <trkpt lat="46.72535" lon="4.71668">
        <ele>135</ele>
        <time>2017-02-19T12:53:31Z</time>
      </trkpt>
      <trkpt lat="46.72543" lon="4.71675">
        <ele>133</ele>
        <time>2017-02-19T12:53:33Z</time>
      </trkpt>
      <trkpt lat="46.72549" lon="4.7168">
        <ele>130</ele>
        <time>2017-02-19T12:53:35Z</time>
      </trkpt>
      <trkpt lat="46.72569" lon="4.71676">
        <ele>129</ele>
        <time>2017-02-19T12:53:36Z</time>
      </trkpt>
      <trkpt lat="46.72573" lon="4.71677">
        <ele>128</ele>
        <time>2017-02-19T12:53:37Z</time>
      </trkpt>
      <trkpt lat="46.72578" lon="4.7168">
        <ele>128</ele>
        <time>2017-02-19T12:53:38Z</time>
      </trkpt>
      <trkpt lat="46.72597" lon="4.71689">
        <ele>128</ele>
        <time>2017-02-19T12:53:40Z</time>
      </trkpt>
      <trkpt lat="46.72598" lon="4.717">
        <ele>127</ele>
        <time>2017-02-19T12:53:42Z</time>
      </trkpt>
      <trkpt lat="46.72611" lon="4.71709">
        <ele>126</ele>
        <time>2017-02-19T12:53:44Z</time>
      </trkpt>
      <trkpt lat="46.72614" lon="4.71717">
        <ele>123</ele>
        <time>2017-02-19T12:53:46Z</time>
      </trkpt>
      <trkpt lat="46.72634" lon="4.71726">
        <ele>121</ele>
        <time>2017-02-19T12:53:48Z</time>
      </trkpt>
      <trkpt lat="46.72636" lon="4.71736">
        <ele>117</ele>
        <time>2017-02-19T12:53:50Z</time>
      </trkpt>
      <trkpt lat="46.72652" lon="4.7174">
        <ele>115</ele>
        <time>2017-02-19T12:53:52Z</time>
      </trkpt>
      <trkpt lat="46.72656" lon="4.71747">
        <ele>112</ele>
        <time>2017-02-19T12:53:54Z</time>
      </trkpt>
      <trkpt lat="46.72671" lon="4.71751">
        <ele>110</ele>
        <time>2017-02-19T12:53:55Z</time>
      </trkpt>
      <trkpt lat="46.72688" lon="4.7176">
        <ele>109</ele>
        <time>2017-02-19T12:53:58Z</time>
      </trkpt>
      <trkpt lat="46.72701" lon="4.71769">
        <ele>108</ele>
        <time>2017-02-19T12:54:00Z</time>
      </trkpt>
      <trkpt lat="46.72709" lon="4.71774">
        <ele>108</ele>
        <time>2017-02-19T12:54:02Z</time>
      </trkpt>
      <trkpt lat="46.72718" lon="4.71777">
        <ele>108</ele>
        <time>2017-02-19T12:54:03Z</time>
      </trkpt>
      <trkpt lat="46.72728" lon="4.7178">
        <ele>107</ele>
        <time>2017-02-19T12:54:04Z</time>
      </trkpt>
      <trkpt lat="46.72743" lon="4.71786">
        <ele>108</ele>
        <time>2017-02-19T12:54:05Z</time>
      </trkpt>
      <trkpt lat="46.72759" lon="4.71792">
        <ele>108</ele>
        <time>2017-02-19T12:54:08Z</time>
      </trkpt>
      <trkpt lat="46.7276" lon="4.71798">
        <ele>108</ele>
        <time>2017-02-19T12:54:10Z</time>
      </trkpt>
      <trkpt lat="46.72772" lon="4.71803">
        <ele>108</ele>
        <time>2017-02-19T12:54:11Z</time>
      </trkpt>
      <trkpt lat="46.72776" lon="4.71812">
        <ele>108</ele>
        <time>2017-02-19T12:54:13Z</time>
      </trkpt>
      <trkpt lat="46.72777" lon="4.7182">
        <ele>105</ele>
        <time>2017-02-19T12:54:15Z</time>
      </trkpt>
      <trkpt lat="46.72788" lon="4.71829">
        <ele>103</ele>
        <time>2017-02-19T12:54:17Z</time>
      </trkpt>
      <trkpt lat="46.72797" lon="4.71833">
        <ele>103</ele>
        <time>2017-02-19T12:54:18Z</time>
      </trkpt>
      <trkpt lat="46.72807" lon="4.71836">
        <ele>103</ele>
        <time>2017-02-19T12:54:19Z</time>
      </trkpt>
      <trkpt lat="46.72816" lon="4.71838">
        <ele>104</ele>
        <time>2017-02-19T12:54:20Z</time>
      </trkpt>
      <trkpt lat="46.72827" lon="4.71841">
        <ele>107</ele>
        <time>2017-02-19T12:54:21Z</time>
      </trkpt>
      <trkpt lat="46.72843" lon="4.71845">
        <ele>111</ele>
        <time>2017-02-19T12:54:22Z</time>
      </trkpt>
      <trkpt lat="46.72857" lon="4.71847">
        <ele>115</ele>
        <time>2017-02-19T12:54:23Z</time>
      </trkpt>
      <trkpt lat="46.72867" lon="4.7185">
        <ele>119</ele>
        <time>2017-02-19T12:54:24Z</time>
      </trkpt>
      <trkpt lat="46.72877" lon="4.7185">
        <ele>122</ele>
        <time>2017-02-19T12:54:25Z</time>
      </trkpt>
      <trkpt lat="46.72886" lon="4.71855">
        <ele>126</ele>
        <time>2017-02-19T12:54:26Z</time>
      </trkpt>
      <trkpt lat="46.72895" lon="4.71858">
        <ele>130</ele>
        <time>2017-02-19T12:54:27Z</time>
      </trkpt>
      <trkpt lat="46.72907" lon="4.71862">
        <ele>133</ele>
        <time>2017-02-19T12:54:28Z</time>
      </trkpt>
      <trkpt lat="46.72919" lon="4.71867">
        <ele>137</ele>
        <time>2017-02-19T12:54:29Z</time>
      </trkpt>
      <trkpt lat="46.72926" lon="4.71873">
        <ele>141</ele>
        <time>2017-02-19T12:54:30Z</time>
      </trkpt>
      <trkpt lat="46.72936" lon="4.71878">
        <ele>145</ele>
        <time>2017-02-19T12:54:31Z</time>
      </trkpt>
      <trkpt lat="46.72947" lon="4.71884">
        <ele>149</ele>
        <time>2017-02-19T12:54:32Z</time>
      </trkpt>
      <trkpt lat="46.72955" lon="4.71892">
        <ele>153</ele>
        <time>2017-02-19T12:54:33Z</time>
      </trkpt>
      <trkpt lat="46.72963" lon="4.71898">
        <ele>156</ele>
        <time>2017-02-19T12:54:34Z</time>
      </trkpt>
      <trkpt lat="46.72973" lon="4.71904">
        <ele>160</ele>
        <time>2017-02-19T12:54:35Z</time>
      </trkpt>
      <trkpt lat="46.72982" lon="4.71907">
        <ele>164</ele>
        <time>2017-02-19T12:54:36Z</time>
      </trkpt>
      <trkpt lat="46.7299" lon="4.71909">
        <ele>168</ele>
        <time>2017-02-19T12:54:37Z</time>
      </trkpt>
      <trkpt lat="46.72998" lon="4.7191">
        <ele>171</ele>
        <time>2017-02-19T12:54:38Z</time>
      </trkpt>
      <trkpt lat="46.73009" lon="4.71912">
        <ele>174</ele>
        <time>2017-02-19T12:54:39Z</time>
      </trkpt>
      <trkpt lat="46.73012" lon="4.71919">
        <ele>176</ele>
        <time>2017-02-19T12:54:42Z</time>
      </trkpt>
      <trkpt lat="46.73015" lon="4.71924">
        <ele>178</ele>
        <time>2017-02-19T12:54:44Z</time>
      </trkpt>
      <trkpt lat="46.73028" lon="4.71934">
        <ele>179</ele>
        <time>2017-02-19T12:54:47Z</time>
      </trkpt>
      <trkpt lat="46.73031" lon="4.71942">
        <ele>178</ele>
        <time>2017-02-19T12:54:50Z</time>
      </trkpt>
      <trkpt lat="46.73034" lon="4.71948">
        <ele>176</ele>
        <time>2017-02-19T12:54:53Z</time>
      </trkpt>
      <trkpt lat="46.73045" lon="4.71953">
        <ele>173</ele>
        <time>2017-02-19T12:54:56Z</time>
      </trkpt>
      <trkpt lat="46.73056" lon="4.7196">
        <ele>171</ele>
        <time>2017-02-19T12:54:57Z</time>
      </trkpt>
      <trkpt lat="46.73068" lon="4.71969">
        <ele>168</ele>
        <time>2017-02-19T12:54:58Z</time>
      </trkpt>
      <trkpt lat="46.73107" lon="4.71983">
        <ele>165</ele>
        <time>2017-02-19T12:55:02Z</time>
      </trkpt>
      <trkpt lat="46.73129" lon="4.71998">
        <ele>162</ele>
        <time>2017-02-19T12:55:05Z</time>
      </trkpt>
      <trkpt lat="46.73134" lon="4.72007">
        <ele>159</ele>
        <time>2017-02-19T12:55:08Z</time>
      </trkpt>
      <trkpt lat="46.73138" lon="4.72013">
        <ele>156</ele>
        <time>2017-02-19T12:55:10Z</time>
      </trkpt>
      <trkpt lat="46.73165" lon="4.72023">
        <ele>155</ele>
        <time>2017-02-19T12:55:13Z</time>
      </trkpt>
      <trkpt lat="46.73188" lon="4.72032">
        <ele>156</ele>
        <time>2017-02-19T12:55:16Z</time>
      </trkpt>
      <trkpt lat="46.73216" lon="4.72045">
        <ele>159</ele>
        <time>2017-02-19T12:55:19Z</time>
      </trkpt>
      <trkpt lat="46.73222" lon="4.72047">
        <ele>161</ele>
        <time>2017-02-19T12:55:21Z</time>
      </trkpt>
      <trkpt lat="46.73248" lon="4.72056">
        <ele>163</ele>
        <time>2017-02-19T12:55:24Z</time>
      </trkpt>
      <trkpt lat="46.73254" lon="4.72058">
        <ele>164</ele>
        <time>2017-02-19T12:55:25Z</time>
      </trkpt>
      <trkpt lat="46.73261" lon="4.72061">
        <ele>161</ele>
        <time>2017-02-19T12:55:27Z</time>
      </trkpt>
      <trkpt lat="46.73266" lon="4.72064">
        <ele>158</ele>
        <time>2017-02-19T12:55:28Z</time>
      </trkpt>
      <trkpt lat="46.73272" lon="4.72069">
        <ele>155</ele>
        <time>2017-02-19T12:55:29Z</time>
      </trkpt>
      <trkpt lat="46.73279" lon="4.72073">
        <ele>153</ele>
        <time>2017-02-19T12:55:30Z</time>
      </trkpt>
      <trkpt lat="46.73287" lon="4.72075">
        <ele>151</ele>
        <time>2017-02-19T12:55:31Z</time>
      </trkpt>
      <trkpt lat="46.73294" lon="4.72078">
        <ele>151</ele>
        <time>2017-02-19T12:55:32Z</time>
      </trkpt>
      <trkpt lat="46.73304" lon="4.72082">
        <ele>151</ele>
        <time>2017-02-19T12:55:33Z</time>
      </trkpt>
      <trkpt lat="46.73315" lon="4.72087">
        <ele>151</ele>
        <time>2017-02-19T12:55:34Z</time>
      </trkpt>
      <trkpt lat="46.73337" lon="4.72093">
        <ele>152</ele>
        <time>2017-02-19T12:55:36Z</time>
      </trkpt>
      <trkpt lat="46.73348" lon="4.72096">
        <ele>153</ele>
        <time>2017-02-19T12:55:37Z</time>
      </trkpt>
      <trkpt lat="46.73358" lon="4.72098">
        <ele>155</ele>
        <time>2017-02-19T12:55:38Z</time>
      </trkpt>
      <trkpt lat="46.73368" lon="4.721">
        <ele>157</ele>
        <time>2017-02-19T12:55:39Z</time>
      </trkpt>
      <trkpt lat="46.73378" lon="4.72101">
        <ele>160</ele>
        <time>2017-02-19T12:55:40Z</time>
      </trkpt>
      <trkpt lat="46.73386" lon="4.72102">
        <ele>162</ele>
        <time>2017-02-19T12:55:41Z</time>
      </trkpt>
      <trkpt lat="46.73394" lon="4.72104">
        <ele>164</ele>
        <time>2017-02-19T12:55:42Z</time>
      </trkpt>
      <trkpt lat="46.73402" lon="4.72106">
        <ele>166</ele>
        <time>2017-02-19T12:55:43Z</time>
      </trkpt>
      <trkpt lat="46.7341" lon="4.72107">
        <ele>168</ele>
        <time>2017-02-19T12:55:44Z</time>
      </trkpt>
      <trkpt lat="46.73418" lon="4.72108">
        <ele>169</ele>
        <time>2017-02-19T12:55:45Z</time>
      </trkpt>
      <trkpt lat="46.73426" lon="4.72109">
        <ele>170</ele>
        <time>2017-02-19T12:55:46Z</time>
      </trkpt>
      <trkpt lat="46.73434" lon="4.7211">
        <ele>171</ele>
        <time>2017-02-19T12:55:47Z</time>
      </trkpt>
      <trkpt lat="46.73441" lon="4.72111">
        <ele>171</ele>
        <time>2017-02-19T12:55:48Z</time>
      </trkpt>
      <trkpt lat="46.73449" lon="4.72111">
        <ele>172</ele>
        <time>2017-02-19T12:55:49Z</time>
      </trkpt>
      <trkpt lat="46.73457" lon="4.72112">
        <ele>173</ele>
        <time>2017-02-19T12:55:50Z</time>
      </trkpt>
      <trkpt lat="46.73465" lon="4.72113">
        <ele>174</ele>
        <time>2017-02-19T12:55:51Z</time>
      </trkpt>
      <trkpt lat="46.73474" lon="4.72113">
        <ele>174</ele>
        <time>2017-02-19T12:55:52Z</time>
      </trkpt>
      <trkpt lat="46.73483" lon="4.72114">
        <ele>176</ele>
        <time>2017-02-19T12:55:53Z</time>
      </trkpt>
      <trkpt lat="46.73492" lon="4.72116">
        <ele>177</ele>
        <time>2017-02-19T12:55:54Z</time>
      </trkpt>
      <trkpt lat="46.735" lon="4.72118">
        <ele>179</ele>
        <time>2017-02-19T12:55:55Z</time>
      </trkpt>
      <trkpt lat="46.73508" lon="4.7212">
        <ele>180</ele>
        <time>2017-02-19T12:55:56Z</time>
      </trkpt>
      <trkpt lat="46.73515" lon="4.72123">
        <ele>182</ele>
        <time>2017-02-19T12:55:57Z</time>
      </trkpt>
      <trkpt lat="46.73523" lon="4.72125">
        <ele>183</ele>
        <time>2017-02-19T12:55:58Z</time>
      </trkpt>
      <trkpt lat="46.7353" lon="4.72127">
        <ele>184</ele>
        <time>2017-02-19T12:55:59Z</time>
      </trkpt>
      <trkpt lat="46.73537" lon="4.72129">
        <ele>185</ele>
        <time>2017-02-19T12:56:00Z</time>
      </trkpt>
      <trkpt lat="46.73544" lon="4.72131">
        <ele>186</ele>
        <time>2017-02-19T12:56:01Z</time>
      </trkpt>
      <trkpt lat="46.73552" lon="4.72132">
        <ele>186</ele>
        <time>2017-02-19T12:56:02Z</time>
      </trkpt>
      <trkpt lat="46.73559" lon="4.72133">
        <ele>187</ele>
        <time>2017-02-19T12:56:03Z</time>
      </trkpt>
      <trkpt lat="46.73566" lon="4.72135">
        <ele>188</ele>
        <time>2017-02-19T12:56:04Z</time>
      </trkpt>
      <trkpt lat="46.73574" lon="4.72137">
        <ele>188</ele>
        <time>2017-02-19T12:56:05Z</time>
      </trkpt>
      <trkpt lat="46.73581" lon="4.72138">
        <ele>189</ele>
        <time>2017-02-19T12:56:06Z</time>
      </trkpt>
      <trkpt lat="46.73588" lon="4.72139">
        <ele>190</ele>
        <time>2017-02-19T12:56:07Z</time>
      </trkpt>
      <trkpt lat="46.73594" lon="4.7214">
        <ele>191</ele>
        <time>2017-02-19T12:56:08Z</time>
      </trkpt>
      <trkpt lat="46.73601" lon="4.72141">
        <ele>192</ele>
        <time>2017-02-19T12:56:09Z</time>
      </trkpt>
      <trkpt lat="46.73608" lon="4.72143">
        <ele>192</ele>
        <time>2017-02-19T12:56:10Z</time>
      </trkpt>
      <trkpt lat="46.73615" lon="4.72144">
        <ele>193</ele>
        <time>2017-02-19T12:56:11Z</time>
      </trkpt>
      <trkpt lat="46.73622" lon="4.72145">
        <ele>193</ele>
        <time>2017-02-19T12:56:12Z</time>
      </trkpt>
      <trkpt lat="46.73629" lon="4.72146">
        <ele>194</ele>
        <time>2017-02-19T12:56:13Z</time>
      </trkpt>
      <trkpt lat="46.73636" lon="4.72148">
        <ele>194</ele>
        <time>2017-02-19T12:56:14Z</time>
      </trkpt>
      <trkpt lat="46.73642" lon="4.7215">
        <ele>195</ele>
        <time>2017-02-19T12:56:15Z</time>
      </trkpt>
      <trkpt lat="46.73649" lon="4.72152">
        <ele>195</ele>
        <time>2017-02-19T12:56:16Z</time>
      </trkpt>
      <trkpt lat="46.73656" lon="4.72154">
        <ele>196</ele>
        <time>2017-02-19T12:56:17Z</time>
      </trkpt>
      <trkpt lat="46.73663" lon="4.72155">
        <ele>196</ele>
        <time>2017-02-19T12:56:18Z</time>
      </trkpt>
      <trkpt lat="46.7367" lon="4.72156">
        <ele>197</ele>
        <time>2017-02-19T12:56:19Z</time>
      </trkpt>
      <trkpt lat="46.73677" lon="4.72157">
        <ele>197</ele>
        <time>2017-02-19T12:56:20Z</time>
      </trkpt>
      <trkpt lat="46.73684" lon="4.72157">
        <ele>198</ele>
        <time>2017-02-19T12:56:21Z</time>
      </trkpt>
      <trkpt lat="46.73692" lon="4.72158">
        <ele>198</ele>
        <time>2017-02-19T12:56:22Z</time>
      </trkpt>
      <trkpt lat="46.73699" lon="4.72158">
        <ele>199</ele>
        <time>2017-02-19T12:56:23Z</time>
      </trkpt>
      <trkpt lat="46.73706" lon="4.7216">
        <ele>199</ele>
        <time>2017-02-19T12:56:24Z</time>
      </trkpt>
      <trkpt lat="46.73713" lon="4.72161">
        <ele>200</ele>
        <time>2017-02-19T12:56:25Z</time>
      </trkpt>
      <trkpt lat="46.7372" lon="4.72162">
        <ele>200</ele>
        <time>2017-02-19T12:56:26Z</time>
      </trkpt>
      <trkpt lat="46.73726" lon="4.72163">
        <ele>201</ele>
        <time>2017-02-19T12:56:27Z</time>
      </trkpt>
      <trkpt lat="46.73732" lon="4.72164">
        <ele>201</ele>
        <time>2017-02-19T12:56:28Z</time>
      </trkpt>
      <trkpt lat="46.73739" lon="4.72165">
        <ele>202</ele>
        <time>2017-02-19T12:56:29Z</time>
      </trkpt>
      <trkpt lat="46.73746" lon="4.72166">
        <ele>202</ele>
        <time>2017-02-19T12:56:30Z</time>
      </trkpt>
      <trkpt lat="46.73752" lon="4.72168">
        <ele>202</ele>
        <time>2017-02-19T12:56:31Z</time>
      </trkpt>
      <trkpt lat="46.73759" lon="4.72169">
        <ele>203</ele>
        <time>2017-02-19T12:56:32Z</time>
      </trkpt>
      <trkpt lat="46.73764" lon="4.72171">
        <ele>203</ele>
        <time>2017-02-19T12:56:33Z</time>
      </trkpt>
      <trkpt lat="46.73769" lon="4.72172">
        <ele>203</ele>
        <time>2017-02-19T12:56:34Z</time>
      </trkpt>
      <trkpt lat="46.73774" lon="4.72173">
        <ele>203</ele>
        <time>2017-02-19T12:56:35Z</time>
      </trkpt>
      <trkpt lat="46.7378" lon="4.72173">
        <ele>203</ele>
        <time>2017-02-19T12:56:36Z</time>
      </trkpt>
      <trkpt lat="46.73786" lon="4.72175">
        <ele>203</ele>
        <time>2017-02-19T12:56:37Z</time>
      </trkpt>
      <trkpt lat="46.73793" lon="4.72176">
        <ele>203</ele>
        <time>2017-02-19T12:56:38Z</time>
      </trkpt>
      <trkpt lat="46.73801" lon="4.72178">
        <ele>204</ele>
        <time>2017-02-19T12:56:39Z</time>
      </trkpt>
      <trkpt lat="46.73808" lon="4.7218">
        <ele>204</ele>
        <time>2017-02-19T12:56:40Z</time>
      </trkpt>
      <trkpt lat="46.73815" lon="4.72181">
        <ele>204</ele>
        <time>2017-02-19T12:56:41Z</time>
      </trkpt>
      <trkpt lat="46.73822" lon="4.72182">
        <ele>204</ele>
        <time>2017-02-19T12:56:42Z</time>
      </trkpt>
      <trkpt lat="46.73829" lon="4.72183">
        <ele>204</ele>
        <time>2017-02-19T12:56:43Z</time>
      </trkpt>
      <trkpt lat="46.73837" lon="4.72183">
        <ele>204</ele>
        <time>2017-02-19T12:56:44Z</time>
      </trkpt>
      <trkpt lat="46.73844" lon="4.72185">
        <ele>204</ele>
        <time>2017-02-19T12:56:45Z</time>
      </trkpt>
      <trkpt lat="46.73851" lon="4.72186">
        <ele>205</ele>
        <time>2017-02-19T12:56:46Z</time>
      </trkpt>
      <trkpt lat="46.73859" lon="4.72188">
        <ele>205</ele>
        <time>2017-02-19T12:56:47Z</time>
      </trkpt>
      <trkpt lat="46.73866" lon="4.72189">
        <ele>205</ele>
        <time>2017-02-19T12:56:48Z</time>
      </trkpt>
      <trkpt lat="46.73873" lon="4.72191">
        <ele>206</ele>
        <time>2017-02-19T12:56:49Z</time>
      </trkpt>
      <trkpt lat="46.73879" lon="4.72192">
        <ele>206</ele>
        <time>2017-02-19T12:56:50Z</time>
      </trkpt>
      <trkpt lat="46.73885" lon="4.72192">
        <ele>206</ele>
        <time>2017-02-19T12:56:51Z</time>
      </trkpt>
      <trkpt lat="46.73891" lon="4.72194">
        <ele>207</ele>
        <time>2017-02-19T12:56:52Z</time>
      </trkpt>
      <trkpt lat="46.73898" lon="4.72194">
        <ele>207</ele>
        <time>2017-02-19T12:56:53Z</time>
      </trkpt>
      <trkpt lat="46.73904" lon="4.72194">
        <ele>207</ele>
        <time>2017-02-19T12:56:54Z</time>
      </trkpt>
      <trkpt lat="46.7391" lon="4.72195">
        <ele>208</ele>
        <time>2017-02-19T12:56:55Z</time>
      </trkpt>
      <trkpt lat="46.73917" lon="4.72198">
        <ele>208</ele>
        <time>2017-02-19T12:56:57Z</time>
      </trkpt>
      <trkpt lat="46.73924" lon="4.722">
        <ele>208</ele>
        <time>2017-02-19T12:56:59Z</time>
      </trkpt>
      <trkpt lat="46.73928" lon="4.72198">
        <ele>208</ele>
        <time>2017-02-19T12:57:01Z</time>
      </trkpt>
      <trkpt lat="46.73933" lon="4.722">
        <ele>209</ele>
        <time>2017-02-19T12:57:03Z</time>
      </trkpt>
      <trkpt lat="46.7394" lon="4.72203">
        <ele>209</ele>
        <time>2017-02-19T12:57:05Z</time>
      </trkpt>
      <trkpt lat="46.73945" lon="4.72206">
        <ele>209</ele>
        <time>2017-02-19T12:57:06Z</time>
      </trkpt>
      <trkpt lat="46.73951" lon="4.72208">
        <ele>209</ele>
        <time>2017-02-19T12:57:07Z</time>
      </trkpt>
      <trkpt lat="46.73957" lon="4.72208">
        <ele>210</ele>
        <time>2017-02-19T12:57:08Z</time>
      </trkpt>
      <trkpt lat="46.73962" lon="4.7221">
        <ele>210</ele>
        <time>2017-02-19T12:57:09Z</time>
      </trkpt>
      <trkpt lat="46.73968" lon="4.72212">
        <ele>210</ele>
        <time>2017-02-19T12:57:10Z</time>
      </trkpt>
      <trkpt lat="46.73974" lon="4.72212">
        <ele>210</ele>
        <time>2017-02-19T12:57:11Z</time>
      </trkpt>
      <trkpt lat="46.73978" lon="4.72213">
        <ele>210</ele>
        <time>2017-02-19T12:57:12Z</time>
      </trkpt>
      <trkpt lat="46.73984" lon="4.72214">
        <ele>210</ele>
        <time>2017-02-19T12:57:13Z</time>
      </trkpt>
      <trkpt lat="46.73989" lon="4.72214">
        <ele>210</ele>
        <time>2017-02-19T12:57:14Z</time>
      </trkpt>
      <trkpt lat="46.73993" lon="4.72215">
        <ele>210</ele>
        <time>2017-02-19T12:57:15Z</time>
      </trkpt>
      <trkpt lat="46.73998" lon="4.72214">
        <ele>210</ele>
        <time>2017-02-19T12:57:16Z</time>
      </trkpt>
      <trkpt lat="46.74004" lon="4.72215">
        <ele>210</ele>
        <time>2017-02-19T12:57:17Z</time>
      </trkpt>
      <trkpt lat="46.74009" lon="4.72216">
        <ele>210</ele>
        <time>2017-02-19T12:57:18Z</time>
      </trkpt>
      <trkpt lat="46.74014" lon="4.72217">
        <ele>210</ele>
        <time>2017-02-19T12:57:19Z</time>
      </trkpt>
      <trkpt lat="46.74019" lon="4.72217">
        <ele>210</ele>
        <time>2017-02-19T12:57:20Z</time>
      </trkpt>
      <trkpt lat="46.74023" lon="4.72218">
        <ele>210</ele>
        <time>2017-02-19T12:57:21Z</time>
      </trkpt>
      <trkpt lat="46.74029" lon="4.72219">
        <ele>210</ele>
        <time>2017-02-19T12:57:22Z</time>
      </trkpt>
      <trkpt lat="46.74034" lon="4.7222">
        <ele>210</ele>
        <time>2017-02-19T12:57:23Z</time>
      </trkpt>
      <trkpt lat="46.74038" lon="4.72221">
        <ele>210</ele>
        <time>2017-02-19T12:57:24Z</time>
      </trkpt>
      <trkpt lat="46.74043" lon="4.72222">
        <ele>210</ele>
        <time>2017-02-19T12:57:25Z</time>
      </trkpt>
      <trkpt lat="46.74052" lon="4.72224">
        <ele>210</ele>
        <time>2017-02-19T12:57:27Z</time>
      </trkpt>
      <trkpt lat="46.74056" lon="4.72225">
        <ele>210</ele>
        <time>2017-02-19T12:57:28Z</time>
      </trkpt>
      <trkpt lat="46.74061" lon="4.72226">
        <ele>209</ele>
        <time>2017-02-19T12:57:29Z</time>
      </trkpt>
      <trkpt lat="46.74067" lon="4.72226">
        <ele>209</ele>
        <time>2017-02-19T12:57:30Z</time>
      </trkpt>
      <trkpt lat="46.74073" lon="4.72227">
        <ele>209</ele>
        <time>2017-02-19T12:57:31Z</time>
      </trkpt>
      <trkpt lat="46.74078" lon="4.72228">
        <ele>209</ele>
        <time>2017-02-19T12:57:32Z</time>
      </trkpt>
      <trkpt lat="46.74084" lon="4.72229">
        <ele>210</ele>
        <time>2017-02-19T12:57:33Z</time>
      </trkpt>
      <trkpt lat="46.74089" lon="4.72229">
        <ele>210</ele>
        <time>2017-02-19T12:57:34Z</time>
      </trkpt>
      <trkpt lat="46.74095" lon="4.7223">
        <ele>211</ele>
        <time>2017-02-19T12:57:35Z</time>
      </trkpt>
      <trkpt lat="46.741" lon="4.72231">
        <ele>211</ele>
        <time>2017-02-19T12:57:36Z</time>
      </trkpt>
      <trkpt lat="46.74105" lon="4.72232">
        <ele>211</ele>
        <time>2017-02-19T12:57:37Z</time>
      </trkpt>
      <trkpt lat="46.7411" lon="4.72233">
        <ele>211</ele>
        <time>2017-02-19T12:57:38Z</time>
      </trkpt>
      <trkpt lat="46.74115" lon="4.72233">
        <ele>212</ele>
        <time>2017-02-19T12:57:39Z</time>
      </trkpt>
      <trkpt lat="46.7412" lon="4.72234">
        <ele>212</ele>
        <time>2017-02-19T12:57:40Z</time>
      </trkpt>
      <trkpt lat="46.74125" lon="4.72235">
        <ele>212</ele>
        <time>2017-02-19T12:57:41Z</time>
      </trkpt>
      <trkpt lat="46.74129" lon="4.72236">
        <ele>212</ele>
        <time>2017-02-19T12:57:42Z</time>
      </trkpt>
      <trkpt lat="46.74134" lon="4.72236">
        <ele>212</ele>
        <time>2017-02-19T12:57:43Z</time>
      </trkpt>
      <trkpt lat="46.74139" lon="4.72237">
        <ele>212</ele>
        <time>2017-02-19T12:57:44Z</time>
      </trkpt>
      <trkpt lat="46.74143" lon="4.72238">
        <ele>212</ele>
        <time>2017-02-19T12:57:45Z</time>
      </trkpt>
      <trkpt lat="46.74152" lon="4.7224">
        <ele>211</ele>
        <time>2017-02-19T12:57:47Z</time>
      </trkpt>
      <trkpt lat="46.7416" lon="4.72241">
        <ele>211</ele>
        <time>2017-02-19T12:57:49Z</time>
      </trkpt>
      <trkpt lat="46.74168" lon="4.72243">
        <ele>211</ele>
        <time>2017-02-19T12:57:51Z</time>
      </trkpt>
      <trkpt lat="46.74177" lon="4.72244">
        <ele>210</ele>
        <time>2017-02-19T12:57:53Z</time>
      </trkpt>
      <trkpt lat="46.74186" lon="4.72246">
        <ele>210</ele>
        <time>2017-02-19T12:57:55Z</time>
      </trkpt>
      <trkpt lat="46.74194" lon="4.72247">
        <ele>209</ele>
        <time>2017-02-19T12:57:57Z</time>
      </trkpt>
      <trkpt lat="46.74202" lon="4.72248">
        <ele>208</ele>
        <time>2017-02-19T12:57:59Z</time>
      </trkpt>
      <trkpt lat="46.7421" lon="4.7225">
        <ele>207</ele>
        <time>2017-02-19T12:58:01Z</time>
      </trkpt>
      <trkpt lat="46.74217" lon="4.72252">
        <ele>205</ele>
        <time>2017-02-19T12:58:03Z</time>
      </trkpt>
      <trkpt lat="46.74225" lon="4.72253">
        <ele>204</ele>
        <time>2017-02-19T12:58:05Z</time>
      </trkpt>
      <trkpt lat="46.74234" lon="4.72254">
        <ele>202</ele>
        <time>2017-02-19T12:58:07Z</time>
      </trkpt>
      <trkpt lat="46.74242" lon="4.72256">
        <ele>200</ele>
        <time>2017-02-19T12:58:09Z</time>
      </trkpt>
      <trkpt lat="46.74247" lon="4.72257">
        <ele>198</ele>
        <time>2017-02-19T12:58:10Z</time>
      </trkpt>
      <trkpt lat="46.74252" lon="4.72257">
        <ele>197</ele>
        <time>2017-02-19T12:58:11Z</time>
      </trkpt>
      <trkpt lat="46.74256" lon="4.72258">
        <ele>196</ele>
        <time>2017-02-19T12:58:12Z</time>
      </trkpt>
      <trkpt lat="46.74261" lon="4.7226">
        <ele>194</ele>
        <time>2017-02-19T12:58:13Z</time>
      </trkpt>
      <trkpt lat="46.74269" lon="4.72261">
        <ele>193</ele>
        <time>2017-02-19T12:58:15Z</time>
      </trkpt>
      <trkpt lat="46.74276" lon="4.72262">
        <ele>191</ele>
        <time>2017-02-19T12:58:17Z</time>
      </trkpt>
      <trkpt lat="46.74284" lon="4.72264">
        <ele>188</ele>
        <time>2017-02-19T12:58:19Z</time>
      </trkpt>
      <trkpt lat="46.7429" lon="4.72265">
        <ele>185</ele>
        <time>2017-02-19T12:58:21Z</time>
      </trkpt>
      <trkpt lat="46.74296" lon="4.72267">
        <ele>182</ele>
        <time>2017-02-19T12:58:23Z</time>
      </trkpt>
      <trkpt lat="46.74305" lon="4.72268">
        <ele>179</ele>
        <time>2017-02-19T12:58:25Z</time>
      </trkpt>
      <trkpt lat="46.74313" lon="4.72269">
        <ele>176</ele>
        <time>2017-02-19T12:58:27Z</time>
      </trkpt>
      <trkpt lat="46.74319" lon="4.7227">
        <ele>173</ele>
        <time>2017-02-19T12:58:29Z</time>
      </trkpt>
      <trkpt lat="46.74324" lon="4.72273">
        <ele>170</ele>
        <time>2017-02-19T12:58:31Z</time>
      </trkpt>
      <trkpt lat="46.7433" lon="4.72274">
        <ele>167</ele>
        <time>2017-02-19T12:58:33Z</time>
      </trkpt>
      <trkpt lat="46.74341" lon="4.72276">
        <ele>161</ele>
        <time>2017-02-19T12:58:37Z</time>
      </trkpt>
      <trkpt lat="46.74349" lon="4.72278">
        <ele>159</ele>
        <time>2017-02-19T12:58:39Z</time>
      </trkpt>
      <trkpt lat="46.74358" lon="4.72278">
        <ele>157</ele>
        <time>2017-02-19T12:58:41Z</time>
      </trkpt>
      <trkpt lat="46.74364" lon="4.72279">
        <ele>156</ele>
        <time>2017-02-19T12:58:42Z</time>
      </trkpt>
      <trkpt lat="46.74369" lon="4.72279">
        <ele>155</ele>
        <time>2017-02-19T12:58:43Z</time>
      </trkpt>
      <trkpt lat="46.74375" lon="4.7228">
        <ele>155</ele>
        <time>2017-02-19T12:58:44Z</time>
      </trkpt>
      <trkpt lat="46.7438" lon="4.72282">
        <ele>155</ele>
        <time>2017-02-19T12:58:45Z</time>
      </trkpt>
      <trkpt lat="46.74386" lon="4.72283">
        <ele>154</ele>
        <time>2017-02-19T12:58:46Z</time>
      </trkpt>
      <trkpt lat="46.74393" lon="4.72285">
        <ele>152</ele>
        <time>2017-02-19T12:58:48Z</time>
      </trkpt>
      <trkpt lat="46.744" lon="4.72285">
        <ele>151</ele>
        <time>2017-02-19T12:58:50Z</time>
      </trkpt>
      <trkpt lat="46.74409" lon="4.72287">
        <ele>150</ele>
        <time>2017-02-19T12:58:52Z</time>
      </trkpt>
      <trkpt lat="46.74414" lon="4.72288">
        <ele>148</ele>
        <time>2017-02-19T12:58:53Z</time>
      </trkpt>
      <trkpt lat="46.74419" lon="4.72289">
        <ele>147</ele>
        <time>2017-02-19T12:58:54Z</time>
      </trkpt>
      <trkpt lat="46.74425" lon="4.7229">
        <ele>146</ele>
        <time>2017-02-19T12:58:55Z</time>
      </trkpt>
      <trkpt lat="46.74433" lon="4.7229">
        <ele>145</ele>
        <time>2017-02-19T12:58:57Z</time>
      </trkpt>
      <trkpt lat="46.7444" lon="4.7229">
        <ele>144</ele>
        <time>2017-02-19T12:58:59Z</time>
      </trkpt>
      <trkpt lat="46.74448" lon="4.72291">
        <ele>143</ele>
        <time>2017-02-19T12:59:01Z</time>
      </trkpt>
      <trkpt lat="46.74456" lon="4.72292">
        <ele>142</ele>
        <time>2017-02-19T12:59:03Z</time>
      </trkpt>
      <trkpt lat="46.74461" lon="4.72293">
        <ele>140</ele>
        <time>2017-02-19T12:59:04Z</time>
      </trkpt>
      <trkpt lat="46.74466" lon="4.72295">
        <ele>139</ele>
        <time>2017-02-19T12:59:05Z</time>
      </trkpt>
      <trkpt lat="46.7447" lon="4.72296">
        <ele>137</ele>
        <time>2017-02-19T12:59:06Z</time>
      </trkpt>
      <trkpt lat="46.74475" lon="4.72297">
        <ele>136</ele>
        <time>2017-02-19T12:59:07Z</time>
      </trkpt>
      <trkpt lat="46.7448" lon="4.72299">
        <ele>136</ele>
        <time>2017-02-19T12:59:08Z</time>
      </trkpt>
      <trkpt lat="46.74488" lon="4.72301">
        <ele>134</ele>
        <time>2017-02-19T12:59:10Z</time>
      </trkpt>
      <trkpt lat="46.74497" lon="4.72302">
        <ele>133</ele>
        <time>2017-02-19T12:59:12Z</time>
      </trkpt>
      <trkpt lat="46.74501" lon="4.72303">
        <ele>131</ele>
        <time>2017-02-19T12:59:13Z</time>
      </trkpt>
      <trkpt lat="46.7451" lon="4.72306">
        <ele>130</ele>
        <time>2017-02-19T12:59:15Z</time>
      </trkpt>
      <trkpt lat="46.74516" lon="4.72309">
        <ele>129</ele>
        <time>2017-02-19T12:59:16Z</time>
      </trkpt>
      <trkpt lat="46.74522" lon="4.72312">
        <ele>130</ele>
        <time>2017-02-19T12:59:17Z</time>
      </trkpt>
      <trkpt lat="46.74527" lon="4.72314">
        <ele>130</ele>
        <time>2017-02-19T12:59:18Z</time>
      </trkpt>
      <trkpt lat="46.74534" lon="4.72316">
        <ele>132</ele>
        <time>2017-02-19T12:59:19Z</time>
      </trkpt>
      <trkpt lat="46.74541" lon="4.72317">
        <ele>133</ele>
        <time>2017-02-19T12:59:20Z</time>
      </trkpt>
      <trkpt lat="46.74548" lon="4.72317">
        <ele>135</ele>
        <time>2017-02-19T12:59:21Z</time>
      </trkpt>
      <trkpt lat="46.74554" lon="4.72317">
        <ele>137</ele>
        <time>2017-02-19T12:59:22Z</time>
      </trkpt>
      <trkpt lat="46.74561" lon="4.72319">
        <ele>139</ele>
        <time>2017-02-19T12:59:23Z</time>
      </trkpt>
      <trkpt lat="46.74569" lon="4.72321">
        <ele>141</ele>
        <time>2017-02-19T12:59:24Z</time>
      </trkpt>
      <trkpt lat="46.74577" lon="4.72323">
        <ele>143</ele>
        <time>2017-02-19T12:59:25Z</time>
      </trkpt>
      <trkpt lat="46.74583" lon="4.72323">
        <ele>145</ele>
        <time>2017-02-19T12:59:26Z</time>
      </trkpt>
      <trkpt lat="46.74589" lon="4.72324">
        <ele>147</ele>
        <time>2017-02-19T12:59:27Z</time>
      </trkpt>
      <trkpt lat="46.74595" lon="4.72325">
        <ele>148</ele>
        <time>2017-02-19T12:59:28Z</time>
      </trkpt>
      <trkpt lat="46.746" lon="4.72326">
        <ele>150</ele>
        <time>2017-02-19T12:59:29Z</time>
      </trkpt>
      <trkpt lat="46.74606" lon="4.72327">
        <ele>151</ele>
        <time>2017-02-19T12:59:30Z</time>
      </trkpt>
      <trkpt lat="46.74611" lon="4.72328">
        <ele>152</ele>
        <time>2017-02-19T12:59:31Z</time>
      </trkpt>
      <trkpt lat="46.74616" lon="4.72329">
        <ele>153</ele>
        <time>2017-02-19T12:59:32Z</time>
      </trkpt>
      <trkpt lat="46.74621" lon="4.72329">
        <ele>154</ele>
        <time>2017-02-19T12:59:33Z</time>
      </trkpt>
      <trkpt lat="46.74626" lon="4.7233">
        <ele>155</ele>
        <time>2017-02-19T12:59:34Z</time>
      </trkpt>
      <trkpt lat="46.74633" lon="4.72332">
        <ele>156</ele>
        <time>2017-02-19T12:59:36Z</time>
      </trkpt>
      <trkpt lat="46.7464" lon="4.72334">
        <ele>156</ele>
        <time>2017-02-19T12:59:38Z</time>
      </trkpt>
      <trkpt lat="46.74645" lon="4.72336">
        <ele>155</ele>
        <time>2017-02-19T12:59:39Z</time>
      </trkpt>
      <trkpt lat="46.7465" lon="4.72337">
        <ele>155</ele>
        <time>2017-02-19T12:59:40Z</time>
      </trkpt>
      <trkpt lat="46.74656" lon="4.72339">
        <ele>155</ele>
        <time>2017-02-19T12:59:41Z</time>
      </trkpt>
      <trkpt lat="46.74661" lon="4.72341">
        <ele>154</ele>
        <time>2017-02-19T12:59:42Z</time>
      </trkpt>
      <trkpt lat="46.74667" lon="4.72342">
        <ele>155</ele>
        <time>2017-02-19T12:59:43Z</time>
      </trkpt>
      <trkpt lat="46.74672" lon="4.72343">
        <ele>155</ele>
        <time>2017-02-19T12:59:44Z</time>
      </trkpt>
      <trkpt lat="46.74678" lon="4.72344">
        <ele>155</ele>
        <time>2017-02-19T12:59:45Z</time>
      </trkpt>
      <trkpt lat="46.74683" lon="4.72344">
        <ele>155</ele>
        <time>2017-02-19T12:59:46Z</time>
      </trkpt>
      <trkpt lat="46.7469" lon="4.72345">
        <ele>155</ele>
        <time>2017-02-19T12:59:47Z</time>
      </trkpt>
      <trkpt lat="46.74697" lon="4.72346">
        <ele>156</ele>
        <time>2017-02-19T12:59:48Z</time>
      </trkpt>
      <trkpt lat="46.74703" lon="4.72347">
        <ele>157</ele>
        <time>2017-02-19T12:59:49Z</time>
      </trkpt>
      <trkpt lat="46.74708" lon="4.72347">
        <ele>158</ele>
        <time>2017-02-19T12:59:50Z</time>
      </trkpt>
      <trkpt lat="46.74714" lon="4.72348">
        <ele>158</ele>
        <time>2017-02-19T12:59:51Z</time>
      </trkpt>
      <trkpt lat="46.74719" lon="4.72348">
        <ele>158</ele>
        <time>2017-02-19T12:59:52Z</time>
      </trkpt>
      <trkpt lat="46.74723" lon="4.72349">
        <ele>158</ele>
        <time>2017-02-19T12:59:53Z</time>
      </trkpt>
      <trkpt lat="46.74729" lon="4.7235">
        <ele>158</ele>
        <time>2017-02-19T12:59:54Z</time>
      </trkpt>
      <trkpt lat="46.74734" lon="4.72351">
        <ele>158</ele>
        <time>2017-02-19T12:59:55Z</time>
      </trkpt>
      <trkpt lat="46.7474" lon="4.72352">
        <ele>158</ele>
        <time>2017-02-19T12:59:56Z</time>
      </trkpt>
      <trkpt lat="46.74746" lon="4.72352">
        <ele>158</ele>
        <time>2017-02-19T12:59:57Z</time>
      </trkpt>
      <trkpt lat="46.74752" lon="4.72352">
        <ele>158</ele>
        <time>2017-02-19T12:59:58Z</time>
      </trkpt>
      <trkpt lat="46.74758" lon="4.72353">
        <ele>159</ele>
        <time>2017-02-19T12:59:59Z</time>
      </trkpt>
      <trkpt lat="46.74764" lon="4.72354">
        <ele>159</ele>
        <time>2017-02-19T13:00:00Z</time>
      </trkpt>
      <trkpt lat="46.7477" lon="4.72354">
        <ele>160</ele>
        <time>2017-02-19T13:00:01Z</time>
      </trkpt>
      <trkpt lat="46.74775" lon="4.72355">
        <ele>160</ele>
        <time>2017-02-19T13:00:02Z</time>
      </trkpt>
      <trkpt lat="46.7478" lon="4.72355">
        <ele>161</ele>
        <time>2017-02-19T13:00:03Z</time>
      </trkpt>
      <trkpt lat="46.74787" lon="4.72356">
        <ele>161</ele>
        <time>2017-02-19T13:00:05Z</time>
      </trkpt>
      <trkpt lat="46.74792" lon="4.72357">
        <ele>162</ele>
        <time>2017-02-19T13:00:07Z</time>
      </trkpt>
      <trkpt lat="46.74801" lon="4.72358">
        <ele>163</ele>
        <time>2017-02-19T13:00:09Z</time>
      </trkpt>
      <trkpt lat="46.74806" lon="4.72359">
        <ele>163</ele>
        <time>2017-02-19T13:00:10Z</time>
      </trkpt>
      <trkpt lat="46.74812" lon="4.7236">
        <ele>164</ele>
        <time>2017-02-19T13:00:11Z</time>
      </trkpt>
      <trkpt lat="46.74819" lon="4.72362">
        <ele>164</ele>
        <time>2017-02-19T13:00:12Z</time>
      </trkpt>
      <trkpt lat="46.74825" lon="4.72364">
        <ele>165</ele>
        <time>2017-02-19T13:00:13Z</time>
      </trkpt>
      <trkpt lat="46.7483" lon="4.72366">
        <ele>165</ele>
        <time>2017-02-19T13:00:14Z</time>
      </trkpt>
      <trkpt lat="46.74838" lon="4.7237">
        <ele>165</ele>
        <time>2017-02-19T13:00:16Z</time>
      </trkpt>
      <trkpt lat="46.74846" lon="4.72375">
        <ele>164</ele>
        <time>2017-02-19T13:00:18Z</time>
      </trkpt>
      <trkpt lat="46.74852" lon="4.72378">
        <ele>163</ele>
        <time>2017-02-19T13:00:19Z</time>
      </trkpt>
      <trkpt lat="46.74857" lon="4.72381">
        <ele>161</ele>
        <time>2017-02-19T13:00:20Z</time>
      </trkpt>
      <trkpt lat="46.74862" lon="4.72384">
        <ele>160</ele>
        <time>2017-02-19T13:00:21Z</time>
      </trkpt>
      <trkpt lat="46.74867" lon="4.72387">
        <ele>159</ele>
        <time>2017-02-19T13:00:22Z</time>
      </trkpt>
      <trkpt lat="46.74872" lon="4.72389">
        <ele>159</ele>
        <time>2017-02-19T13:00:23Z</time>
      </trkpt>
      <trkpt lat="46.74876" lon="4.72393">
        <ele>159</ele>
        <time>2017-02-19T13:00:24Z</time>
      </trkpt>
      <trkpt lat="46.74881" lon="4.72396">
        <ele>158</ele>
        <time>2017-02-19T13:00:25Z</time>
      </trkpt>
      <trkpt lat="46.74886" lon="4.724">
        <ele>158</ele>
        <time>2017-02-19T13:00:26Z</time>
      </trkpt>
      <trkpt lat="46.74891" lon="4.72404">
        <ele>157</ele>
        <time>2017-02-19T13:00:27Z</time>
      </trkpt>
      <trkpt lat="46.74897" lon="4.72408">
        <ele>157</ele>
        <time>2017-02-19T13:00:28Z</time>
      </trkpt>
      <trkpt lat="46.74902" lon="4.72411">
        <ele>156</ele>
        <time>2017-02-19T13:00:29Z</time>
      </trkpt>
      <trkpt lat="46.74907" lon="4.72414">
        <ele>156</ele>
        <time>2017-02-19T13:00:30Z</time>
      </trkpt>
      <trkpt lat="46.74912" lon="4.72416">
        <ele>155</ele>
        <time>2017-02-19T13:00:31Z</time>
      </trkpt>
      <trkpt lat="46.74918" lon="4.72418">
        <ele>155</ele>
        <time>2017-02-19T13:00:32Z</time>
      </trkpt>
      <trkpt lat="46.74923" lon="4.7242">
        <ele>155</ele>
        <time>2017-02-19T13:00:33Z</time>
      </trkpt>
      <trkpt lat="46.74932" lon="4.72425">
        <ele>154</ele>
        <time>2017-02-19T13:00:35Z</time>
      </trkpt>
      <trkpt lat="46.74938" lon="4.72429">
        <ele>155</ele>
        <time>2017-02-19T13:00:36Z</time>
      </trkpt>
      <trkpt lat="46.74944" lon="4.72432">
        <ele>155</ele>
        <time>2017-02-19T13:00:37Z</time>
      </trkpt>
      <trkpt lat="46.74951" lon="4.72436">
        <ele>155</ele>
        <time>2017-02-19T13:00:38Z</time>
      </trkpt>
      <trkpt lat="46.74957" lon="4.72438">
        <ele>156</ele>
        <time>2017-02-19T13:00:39Z</time>
      </trkpt>
      <trkpt lat="46.74963" lon="4.72441">
        <ele>156</ele>
        <time>2017-02-19T13:00:40Z</time>
      </trkpt>
      <trkpt lat="46.74969" lon="4.72444">
        <ele>157</ele>
        <time>2017-02-19T13:00:41Z</time>
      </trkpt>
      <trkpt lat="46.74974" lon="4.72448">
        <ele>157</ele>
        <time>2017-02-19T13:00:42Z</time>
      </trkpt>
      <trkpt lat="46.74979" lon="4.72451">
        <ele>157</ele>
        <time>2017-02-19T13:00:43Z</time>
      </trkpt>
      <trkpt lat="46.74985" lon="4.72454">
        <ele>157</ele>
        <time>2017-02-19T13:00:44Z</time>
      </trkpt>
      <trkpt lat="46.74991" lon="4.72457">
        <ele>157</ele>
        <time>2017-02-19T13:00:45Z</time>
      </trkpt>
      <trkpt lat="46.74997" lon="4.7246">
        <ele>157</ele>
        <time>2017-02-19T13:00:46Z</time>
      </trkpt>
      <trkpt lat="46.75003" lon="4.72463">
        <ele>158</ele>
        <time>2017-02-19T13:00:47Z</time>
      </trkpt>
      <trkpt lat="46.75009" lon="4.72466">
        <ele>158</ele>
        <time>2017-02-19T13:00:48Z</time>
      </trkpt>
      <trkpt lat="46.75015" lon="4.72469">
        <ele>158</ele>
        <time>2017-02-19T13:00:49Z</time>
      </trkpt>
      <trkpt lat="46.75021" lon="4.72472">
        <ele>158</ele>
        <time>2017-02-19T13:00:50Z</time>
      </trkpt>
      <trkpt lat="46.75026" lon="4.72475">
        <ele>159</ele>
        <time>2017-02-19T13:00:51Z</time>
      </trkpt>
      <trkpt lat="46.75031" lon="4.72477">
        <ele>159</ele>
        <time>2017-02-19T13:00:52Z</time>
      </trkpt>
      <trkpt lat="46.75037" lon="4.72482">
        <ele>160</ele>
        <time>2017-02-19T13:00:54Z</time>
      </trkpt>
      <trkpt lat="46.75044" lon="4.72482">
        <ele>160</ele>
        <time>2017-02-19T13:00:56Z</time>
      </trkpt>
      <trkpt lat="46.75052" lon="4.72484">
        <ele>161</ele>
        <time>2017-02-19T13:00:58Z</time>
      </trkpt>
      <trkpt lat="46.75058" lon="4.72486">
        <ele>161</ele>
        <time>2017-02-19T13:00:59Z</time>
      </trkpt>
      <trkpt lat="46.75064" lon="4.72487">
        <ele>162</ele>
        <time>2017-02-19T13:01:00Z</time>
      </trkpt>
      <trkpt lat="46.75069" lon="4.72489">
        <ele>162</ele>
        <time>2017-02-19T13:01:01Z</time>
      </trkpt>
      <trkpt lat="46.75076" lon="4.72493">
        <ele>162</ele>
        <time>2017-02-19T13:01:02Z</time>
      </trkpt>
      <trkpt lat="46.75081" lon="4.72495">
        <ele>163</ele>
        <time>2017-02-19T13:01:03Z</time>
      </trkpt>
      <trkpt lat="46.75086" lon="4.72499">
        <ele>163</ele>
        <time>2017-02-19T13:01:04Z</time>
      </trkpt>
      <trkpt lat="46.75092" lon="4.72505">
        <ele>163</ele>
        <time>2017-02-19T13:01:05Z</time>
      </trkpt>
      <trkpt lat="46.75098" lon="4.7251">
        <ele>163</ele>
        <time>2017-02-19T13:01:06Z</time>
      </trkpt>
      <trkpt lat="46.75105" lon="4.72513">
        <ele>164</ele>
        <time>2017-02-19T13:01:07Z</time>
      </trkpt>
      <trkpt lat="46.75111" lon="4.72516">
        <ele>164</ele>
        <time>2017-02-19T13:01:08Z</time>
      </trkpt>
      <trkpt lat="46.75118" lon="4.7252">
        <ele>166</ele>
        <time>2017-02-19T13:01:09Z</time>
      </trkpt>
      <trkpt lat="46.75125" lon="4.72522">
        <ele>167</ele>
        <time>2017-02-19T13:01:10Z</time>
      </trkpt>
      <trkpt lat="46.75131" lon="4.72525">
        <ele>168</ele>
        <time>2017-02-19T13:01:11Z</time>
      </trkpt>
      <trkpt lat="46.75138" lon="4.72527">
        <ele>170</ele>
        <time>2017-02-19T13:01:12Z</time>
      </trkpt>
      <trkpt lat="46.75143" lon="4.7253">
        <ele>171</ele>
        <time>2017-02-19T13:01:13Z</time>
      </trkpt>
      <trkpt lat="46.7515" lon="4.72533">
        <ele>172</ele>
        <time>2017-02-19T13:01:14Z</time>
      </trkpt>
      <trkpt lat="46.75158" lon="4.72536">
        <ele>173</ele>
        <time>2017-02-19T13:01:15Z</time>
      </trkpt>
      <trkpt lat="46.75167" lon="4.72539">
        <ele>174</ele>
        <time>2017-02-19T13:01:16Z</time>
      </trkpt>
      <trkpt lat="46.75172" lon="4.72543">
        <ele>175</ele>
        <time>2017-02-19T13:01:17Z</time>
      </trkpt>
      <trkpt lat="46.75178" lon="4.72546">
        <ele>176</ele>
        <time>2017-02-19T13:01:18Z</time>
      </trkpt>
      <trkpt lat="46.75184" lon="4.7255">
        <ele>178</ele>
        <time>2017-02-19T13:01:19Z</time>
      </trkpt>
      <trkpt lat="46.75189" lon="4.72552">
        <ele>178</ele>
        <time>2017-02-19T13:01:20Z</time>
      </trkpt>
      <trkpt lat="46.75195" lon="4.72554">
        <ele>179</ele>
        <time>2017-02-19T13:01:21Z</time>
      </trkpt>
      <trkpt lat="46.752" lon="4.72557">
        <ele>180</ele>
        <time>2017-02-19T13:01:22Z</time>
      </trkpt>
      <trkpt lat="46.75205" lon="4.72561">
        <ele>180</ele>
        <time>2017-02-19T13:01:23Z</time>
      </trkpt>
      <trkpt lat="46.75209" lon="4.72563">
        <ele>181</ele>
        <time>2017-02-19T13:01:24Z</time>
      </trkpt>
      <trkpt lat="46.75215" lon="4.72569">
        <ele>181</ele>
        <time>2017-02-19T13:01:26Z</time>
      </trkpt>
      <trkpt lat="46.75222" lon="4.72573">
        <ele>182</ele>
        <time>2017-02-19T13:01:28Z</time>
      </trkpt>
      <trkpt lat="46.75228" lon="4.72578">
        <ele>183</ele>
        <time>2017-02-19T13:01:30Z</time>
      </trkpt>
      <trkpt lat="46.75234" lon="4.72585">
        <ele>184</ele>
        <time>2017-02-19T13:01:32Z</time>
      </trkpt>
      <trkpt lat="46.75238" lon="4.72589">
        <ele>185</ele>
        <time>2017-02-19T13:01:34Z</time>
      </trkpt>
      <trkpt lat="46.75244" lon="4.72595">
        <ele>185</ele>
        <time>2017-02-19T13:01:36Z</time>
      </trkpt>
      <trkpt lat="46.75249" lon="4.72601">
        <ele>186</ele>
        <time>2017-02-19T13:01:38Z</time>
      </trkpt>
      <trkpt lat="46.75255" lon="4.72607">
        <ele>186</ele>
        <time>2017-02-19T13:01:40Z</time>
      </trkpt>
      <trkpt lat="46.75259" lon="4.72611">
        <ele>185</ele>
        <time>2017-02-19T13:01:41Z</time>
      </trkpt>
      <trkpt lat="46.75264" lon="4.72616">
        <ele>185</ele>
        <time>2017-02-19T13:01:42Z</time>
      </trkpt>
      <trkpt lat="46.75269" lon="4.72621">
        <ele>185</ele>
        <time>2017-02-19T13:01:43Z</time>
      </trkpt>
      <trkpt lat="46.75274" lon="4.72626">
        <ele>185</ele>
        <time>2017-02-19T13:01:44Z</time>
      </trkpt>
      <trkpt lat="46.75277" lon="4.72631">
        <ele>185</ele>
        <time>2017-02-19T13:01:45Z</time>
      </trkpt>
      <trkpt lat="46.75281" lon="4.72635">
        <ele>185</ele>
        <time>2017-02-19T13:01:46Z</time>
      </trkpt>
      <trkpt lat="46.75286" lon="4.7264">
        <ele>186</ele>
        <time>2017-02-19T13:01:47Z</time>
      </trkpt>
      <trkpt lat="46.75291" lon="4.72644">
        <ele>186</ele>
        <time>2017-02-19T13:01:48Z</time>
      </trkpt>
      <trkpt lat="46.75295" lon="4.72649">
        <ele>186</ele>
        <time>2017-02-19T13:01:49Z</time>
      </trkpt>
      <trkpt lat="46.753" lon="4.72653">
        <ele>186</ele>
        <time>2017-02-19T13:01:50Z</time>
      </trkpt>
      <trkpt lat="46.75303" lon="4.72658">
        <ele>187</ele>
        <time>2017-02-19T13:01:51Z</time>
      </trkpt>
      <trkpt lat="46.75311" lon="4.72665">
        <ele>187</ele>
        <time>2017-02-19T13:01:53Z</time>
      </trkpt>
      <trkpt lat="46.75315" lon="4.72669">
        <ele>187</ele>
        <time>2017-02-19T13:01:54Z</time>
      </trkpt>
      <trkpt lat="46.75319" lon="4.72674">
        <ele>187</ele>
        <time>2017-02-19T13:01:55Z</time>
      </trkpt>
      <trkpt lat="46.75323" lon="4.72679">
        <ele>187</ele>
        <time>2017-02-19T13:01:56Z</time>
      </trkpt>
      <trkpt lat="46.75327" lon="4.72684">
        <ele>187</ele>
        <time>2017-02-19T13:01:57Z</time>
      </trkpt>
      <trkpt lat="46.75332" lon="4.72687">
        <ele>187</ele>
        <time>2017-02-19T13:01:58Z</time>
      </trkpt>
      <trkpt lat="46.75337" lon="4.7269">
        <ele>187</ele>
        <time>2017-02-19T13:01:59Z</time>
      </trkpt>
      <trkpt lat="46.75345" lon="4.72698">
        <ele>188</ele>
        <time>2017-02-19T13:02:01Z</time>
      </trkpt>
      <trkpt lat="46.75349" lon="4.72701">
        <ele>188</ele>
        <time>2017-02-19T13:02:02Z</time>
      </trkpt>
      <trkpt lat="46.75352" lon="4.72706">
        <ele>187</ele>
        <time>2017-02-19T13:02:03Z</time>
      </trkpt>
      <trkpt lat="46.75356" lon="4.72711">
        <ele>187</ele>
        <time>2017-02-19T13:02:04Z</time>
      </trkpt>
      <trkpt lat="46.75362" lon="4.7272">
        <ele>186</ele>
        <time>2017-02-19T13:02:06Z</time>
      </trkpt>
      <trkpt lat="46.75365" lon="4.72725">
        <ele>185</ele>
        <time>2017-02-19T13:02:07Z</time>
      </trkpt>
      <trkpt lat="46.75368" lon="4.7273">
        <ele>184</ele>
        <time>2017-02-19T13:02:08Z</time>
      </trkpt>
      <trkpt lat="46.75374" lon="4.72739">
        <ele>182</ele>
        <time>2017-02-19T13:02:10Z</time>
      </trkpt>
      <trkpt lat="46.75377" lon="4.72747">
        <ele>180</ele>
        <time>2017-02-19T13:02:12Z</time>
      </trkpt>
      <trkpt lat="46.7538" lon="4.72754">
        <ele>178</ele>
        <time>2017-02-19T13:02:14Z</time>
      </trkpt>
      <trkpt lat="46.75384" lon="4.72762">
        <ele>176</ele>
        <time>2017-02-19T13:02:16Z</time>
      </trkpt>
      <trkpt lat="46.75388" lon="4.72772">
        <ele>174</ele>
        <time>2017-02-19T13:02:18Z</time>
      </trkpt>
      <trkpt lat="46.75392" lon="4.72782">
        <ele>171</ele>
        <time>2017-02-19T13:02:20Z</time>
      </trkpt>
      <trkpt lat="46.75395" lon="4.72787">
        <ele>168</ele>
        <time>2017-02-19T13:02:21Z</time>
      </trkpt>
      <trkpt lat="46.75397" lon="4.72794">
        <ele>165</ele>
        <time>2017-02-19T13:02:22Z</time>
      </trkpt>
      <trkpt lat="46.75399" lon="4.728">
        <ele>163</ele>
        <time>2017-02-19T13:02:23Z</time>
      </trkpt>
      <trkpt lat="46.75401" lon="4.72812">
        <ele>160</ele>
        <time>2017-02-19T13:02:25Z</time>
      </trkpt>
      <trkpt lat="46.75406" lon="4.72823">
        <ele>157</ele>
        <time>2017-02-19T13:02:27Z</time>
      </trkpt>
      <trkpt lat="46.75415" lon="4.72844">
        <ele>155</ele>
        <time>2017-02-19T13:02:29Z</time>
      </trkpt>
      <trkpt lat="46.75419" lon="4.72854">
        <ele>153</ele>
        <time>2017-02-19T13:02:31Z</time>
      </trkpt>
      <trkpt lat="46.75425" lon="4.72861">
        <ele>151</ele>
        <time>2017-02-19T13:02:33Z</time>
      </trkpt>
      <trkpt lat="46.7543" lon="4.72871">
        <ele>150</ele>
        <time>2017-02-19T13:02:35Z</time>
      </trkpt>
      <trkpt lat="46.75435" lon="4.72877">
        <ele>149</ele>
        <time>2017-02-19T13:02:36Z</time>
      </trkpt>
      <trkpt lat="46.75439" lon="4.72883">
        <ele>149</ele>
        <time>2017-02-19T13:02:37Z</time>
      </trkpt>
      <trkpt lat="46.75444" lon="4.72889">
        <ele>149</ele>
        <time>2017-02-19T13:02:38Z</time>
      </trkpt>
      <trkpt lat="46.75448" lon="4.72893">
        <ele>149</ele>
        <time>2017-02-19T13:02:39Z</time>
      </trkpt>
      <trkpt lat="46.75453" lon="4.72899">
        <ele>150</ele>
        <time>2017-02-19T13:02:40Z</time>
      </trkpt>
      <trkpt lat="46.75457" lon="4.72905">
        <ele>150</ele>
        <time>2017-02-19T13:02:41Z</time>
      </trkpt>
      <trkpt lat="46.7546" lon="4.72911">
        <ele>151</ele>
        <time>2017-02-19T13:02:42Z</time>
      </trkpt>
      <trkpt lat="46.75464" lon="4.72917">
        <ele>151</ele>
        <time>2017-02-19T13:02:43Z</time>
      </trkpt>
      <trkpt lat="46.75468" lon="4.72921">
        <ele>150</ele>
        <time>2017-02-19T13:02:44Z</time>
      </trkpt>
      <trkpt lat="46.75473" lon="4.72925">
        <ele>150</ele>
        <time>2017-02-19T13:02:45Z</time>
      </trkpt>
      <trkpt lat="46.75477" lon="4.72929">
        <ele>149</ele>
        <time>2017-02-19T13:02:46Z</time>
      </trkpt>
      <trkpt lat="46.7548" lon="4.72934">
        <ele>148</ele>
        <time>2017-02-19T13:02:47Z</time>
      </trkpt>
      <trkpt lat="46.75492" lon="4.72943">
        <ele>148</ele>
        <time>2017-02-19T13:02:48Z</time>
      </trkpt>
      <trkpt lat="46.75496" lon="4.72947">
        <ele>148</ele>
        <time>2017-02-19T13:02:49Z</time>
      </trkpt>
      <trkpt lat="46.75501" lon="4.72952">
        <ele>149</ele>
        <time>2017-02-19T13:02:50Z</time>
      </trkpt>
      <trkpt lat="46.75505" lon="4.72958">
        <ele>149</ele>
        <time>2017-02-19T13:02:51Z</time>
      </trkpt>
      <trkpt lat="46.75509" lon="4.72964">
        <ele>150</ele>
        <time>2017-02-19T13:02:52Z</time>
      </trkpt>
      <trkpt lat="46.75513" lon="4.7297">
        <ele>150</ele>
        <time>2017-02-19T13:02:53Z</time>
      </trkpt>
      <trkpt lat="46.75518" lon="4.72976">
        <ele>150</ele>
        <time>2017-02-19T13:02:54Z</time>
      </trkpt>
      <trkpt lat="46.75523" lon="4.72982">
        <ele>151</ele>
        <time>2017-02-19T13:02:55Z</time>
      </trkpt>
      <trkpt lat="46.75528" lon="4.72989">
        <ele>151</ele>
        <time>2017-02-19T13:02:56Z</time>
      </trkpt>
      <trkpt lat="46.75533" lon="4.72994">
        <ele>151</ele>
        <time>2017-02-19T13:02:57Z</time>
      </trkpt>
      <trkpt lat="46.75537" lon="4.73">
        <ele>152</ele>
        <time>2017-02-19T13:02:58Z</time>
      </trkpt>
      <trkpt lat="46.75541" lon="4.73005">
        <ele>153</ele>
        <time>2017-02-19T13:02:59Z</time>
      </trkpt>
      <trkpt lat="46.75546" lon="4.73011">
        <ele>153</ele>
        <time>2017-02-19T13:03:00Z</time>
      </trkpt>
      <trkpt lat="46.75551" lon="4.73017">
        <ele>154</ele>
        <time>2017-02-19T13:03:01Z</time>
      </trkpt>
      <trkpt lat="46.75556" lon="4.73023">
        <ele>155</ele>
        <time>2017-02-19T13:03:02Z</time>
      </trkpt>
      <trkpt lat="46.75561" lon="4.7303">
        <ele>156</ele>
        <time>2017-02-19T13:03:03Z</time>
      </trkpt>
      <trkpt lat="46.75566" lon="4.73036">
        <ele>157</ele>
        <time>2017-02-19T13:03:04Z</time>
      </trkpt>
      <trkpt lat="46.75571" lon="4.73042">
        <ele>158</ele>
        <time>2017-02-19T13:03:05Z</time>
      </trkpt>
      <trkpt lat="46.75576" lon="4.73047">
        <ele>159</ele>
        <time>2017-02-19T13:03:06Z</time>
      </trkpt>
      <trkpt lat="46.75581" lon="4.73053">
        <ele>160</ele>
        <time>2017-02-19T13:03:07Z</time>
      </trkpt>
      <trkpt lat="46.75586" lon="4.73058">
        <ele>161</ele>
        <time>2017-02-19T13:03:08Z</time>
      </trkpt>
      <trkpt lat="46.75591" lon="4.73062">
        <ele>162</ele>
        <time>2017-02-19T13:03:09Z</time>
      </trkpt>
      <trkpt lat="46.75596" lon="4.73066">
        <ele>163</ele>
        <time>2017-02-19T13:03:10Z</time>
      </trkpt>
      <trkpt lat="46.75601" lon="4.7307">
        <ele>164</ele>
        <time>2017-02-19T13:03:11Z</time>
      </trkpt>
      <trkpt lat="46.75606" lon="4.73075">
        <ele>165</ele>
        <time>2017-02-19T13:03:12Z</time>
      </trkpt>
      <trkpt lat="46.75611" lon="4.7308">
        <ele>166</ele>
        <time>2017-02-19T13:03:13Z</time>
      </trkpt>
      <trkpt lat="46.75615" lon="4.73085">
        <ele>166</ele>
        <time>2017-02-19T13:03:14Z</time>
      </trkpt>
      <trkpt lat="46.75621" lon="4.73091">
        <ele>167</ele>
        <time>2017-02-19T13:03:15Z</time>
      </trkpt>
      <trkpt lat="46.75626" lon="4.73095">
        <ele>169</ele>
        <time>2017-02-19T13:03:16Z</time>
      </trkpt>
      <trkpt lat="46.75631" lon="4.731">
        <ele>170</ele>
        <time>2017-02-19T13:03:17Z</time>
      </trkpt>
      <trkpt lat="46.75636" lon="4.73104">
        <ele>171</ele>
        <time>2017-02-19T13:03:18Z</time>
      </trkpt>
      <trkpt lat="46.7564" lon="4.73108">
        <ele>172</ele>
        <time>2017-02-19T13:03:19Z</time>
      </trkpt>
      <trkpt lat="46.75645" lon="4.73112">
        <ele>173</ele>
        <time>2017-02-19T13:03:20Z</time>
      </trkpt>
      <trkpt lat="46.7565" lon="4.73115">
        <ele>173</ele>
        <time>2017-02-19T13:03:21Z</time>
      </trkpt>
      <trkpt lat="46.75657" lon="4.73118">
        <ele>175</ele>
        <time>2017-02-19T13:03:22Z</time>
      </trkpt>
      <trkpt lat="46.75662" lon="4.73122">
        <ele>176</ele>
        <time>2017-02-19T13:03:23Z</time>
      </trkpt>
      <trkpt lat="46.75665" lon="4.73126">
        <ele>177</ele>
        <time>2017-02-19T13:03:24Z</time>
      </trkpt>
      <trkpt lat="46.75669" lon="4.7313">
        <ele>178</ele>
        <time>2017-02-19T13:03:25Z</time>
      </trkpt>
      <trkpt lat="46.75676" lon="4.73138">
        <ele>180</ele>
        <time>2017-02-19T13:03:27Z</time>
      </trkpt>
      <trkpt lat="46.7568" lon="4.73142">
        <ele>180</ele>
        <time>2017-02-19T13:03:28Z</time>
      </trkpt>
      <trkpt lat="46.75684" lon="4.73146">
        <ele>181</ele>
        <time>2017-02-19T13:03:29Z</time>
      </trkpt>
      <trkpt lat="46.75688" lon="4.73151">
        <ele>182</ele>
        <time>2017-02-19T13:03:30Z</time>
      </trkpt>
      <trkpt lat="46.75692" lon="4.73154">
        <ele>182</ele>
        <time>2017-02-19T13:03:31Z</time>
      </trkpt>
      <trkpt lat="46.75697" lon="4.73158">
        <ele>183</ele>
        <time>2017-02-19T13:03:32Z</time>
      </trkpt>
      <trkpt lat="46.75701" lon="4.73162">
        <ele>184</ele>
        <time>2017-02-19T13:03:33Z</time>
      </trkpt>
      <trkpt lat="46.75704" lon="4.73166">
        <ele>184</ele>
        <time>2017-02-19T13:03:34Z</time>
      </trkpt>
      <trkpt lat="46.75708" lon="4.7317">
        <ele>185</ele>
        <time>2017-02-19T13:03:35Z</time>
      </trkpt>
      <trkpt lat="46.75713" lon="4.73175">
        <ele>186</ele>
        <time>2017-02-19T13:03:36Z</time>
      </trkpt>
      <trkpt lat="46.75716" lon="4.73178">
        <ele>187</ele>
        <time>2017-02-19T13:03:37Z</time>
      </trkpt>
      <trkpt lat="46.75721" lon="4.73182">
        <ele>187</ele>
        <time>2017-02-19T13:03:38Z</time>
      </trkpt>
      <trkpt lat="46.75728" lon="4.7319">
        <ele>188</ele>
        <time>2017-02-19T13:03:40Z</time>
      </trkpt>
      <trkpt lat="46.75733" lon="4.73198">
        <ele>189</ele>
        <time>2017-02-19T13:03:42Z</time>
      </trkpt>
      <trkpt lat="46.75736" lon="4.73202">
        <ele>190</ele>
        <time>2017-02-19T13:03:43Z</time>
      </trkpt>
      <trkpt lat="46.75741" lon="4.73207">
        <ele>191</ele>
        <time>2017-02-19T13:03:44Z</time>
      </trkpt>
      <trkpt lat="46.75746" lon="4.73212">
        <ele>192</ele>
        <time>2017-02-19T13:03:45Z</time>
      </trkpt>
      <trkpt lat="46.75752" lon="4.73219">
        <ele>192</ele>
        <time>2017-02-19T13:03:46Z</time>
      </trkpt>
      <trkpt lat="46.75757" lon="4.73224">
        <ele>193</ele>
        <time>2017-02-19T13:03:47Z</time>
      </trkpt>
      <trkpt lat="46.75761" lon="4.73228">
        <ele>194</ele>
        <time>2017-02-19T13:03:48Z</time>
      </trkpt>
      <trkpt lat="46.75766" lon="4.73233">
        <ele>195</ele>
        <time>2017-02-19T13:03:49Z</time>
      </trkpt>
      <trkpt lat="46.7577" lon="4.73238">
        <ele>195</ele>
        <time>2017-02-19T13:03:50Z</time>
      </trkpt>
      <trkpt lat="46.75774" lon="4.73243">
        <ele>196</ele>
        <time>2017-02-19T13:03:51Z</time>
      </trkpt>
      <trkpt lat="46.75778" lon="4.73247">
        <ele>197</ele>
        <time>2017-02-19T13:03:52Z</time>
      </trkpt>
      <trkpt lat="46.75782" lon="4.73252">
        <ele>198</ele>
        <time>2017-02-19T13:03:53Z</time>
      </trkpt>
      <trkpt lat="46.75785" lon="4.73256">
        <ele>198</ele>
        <time>2017-02-19T13:03:54Z</time>
      </trkpt>
      <trkpt lat="46.75789" lon="4.73261">
        <ele>198</ele>
        <time>2017-02-19T13:03:55Z</time>
      </trkpt>
      <trkpt lat="46.75793" lon="4.73265">
        <ele>199</ele>
        <time>2017-02-19T13:03:56Z</time>
      </trkpt>
      <trkpt lat="46.75797" lon="4.73269">
        <ele>199</ele>
        <time>2017-02-19T13:03:57Z</time>
      </trkpt>
      <trkpt lat="46.75801" lon="4.73274">
        <ele>200</ele>
        <time>2017-02-19T13:03:58Z</time>
      </trkpt>
      <trkpt lat="46.75805" lon="4.73279">
        <ele>200</ele>
        <time>2017-02-19T13:03:59Z</time>
      </trkpt>
      <trkpt lat="46.75808" lon="4.73284">
        <ele>201</ele>
        <time>2017-02-19T13:04:00Z</time>
      </trkpt>
      <trkpt lat="46.75812" lon="4.73289">
        <ele>201</ele>
        <time>2017-02-19T13:04:01Z</time>
      </trkpt>
      <trkpt lat="46.75816" lon="4.73294">
        <ele>202</ele>
        <time>2017-02-19T13:04:02Z</time>
      </trkpt>
      <trkpt lat="46.75819" lon="4.73298">
        <ele>202</ele>
        <time>2017-02-19T13:04:03Z</time>
      </trkpt>
      <trkpt lat="46.75823" lon="4.73303">
        <ele>203</ele>
        <time>2017-02-19T13:04:04Z</time>
      </trkpt>
      <trkpt lat="46.75827" lon="4.73308">
        <ele>203</ele>
        <time>2017-02-19T13:04:05Z</time>
      </trkpt>
      <trkpt lat="46.7583" lon="4.73313">
        <ele>204</ele>
        <time>2017-02-19T13:04:06Z</time>
      </trkpt>
      <trkpt lat="46.75834" lon="4.73318">
        <ele>204</ele>
        <time>2017-02-19T13:04:07Z</time>
      </trkpt>
      <trkpt lat="46.75837" lon="4.73323">
        <ele>204</ele>
        <time>2017-02-19T13:04:08Z</time>
      </trkpt>
      <trkpt lat="46.75841" lon="4.73328">
        <ele>205</ele>
        <time>2017-02-19T13:04:09Z</time>
      </trkpt>
      <trkpt lat="46.75845" lon="4.73333">
        <ele>205</ele>
        <time>2017-02-19T13:04:10Z</time>
      </trkpt>
      <trkpt lat="46.75847" lon="4.73339">
        <ele>206</ele>
        <time>2017-02-19T13:04:11Z</time>
      </trkpt>
      <trkpt lat="46.75849" lon="4.73345">
        <ele>206</ele>
        <time>2017-02-19T13:04:12Z</time>
      </trkpt>
      <trkpt lat="46.75851" lon="4.73353">
        <ele>207</ele>
        <time>2017-02-19T13:04:13Z</time>
      </trkpt>
      <trkpt lat="46.75853" lon="4.73359">
        <ele>208</ele>
        <time>2017-02-19T13:04:14Z</time>
      </trkpt>
      <trkpt lat="46.75855" lon="4.73365">
        <ele>208</ele>
        <time>2017-02-19T13:04:15Z</time>
      </trkpt>
      <trkpt lat="46.75857" lon="4.73372">
        <ele>209</ele>
        <time>2017-02-19T13:04:16Z</time>
      </trkpt>
      <trkpt lat="46.75859" lon="4.73379">
        <ele>209</ele>
        <time>2017-02-19T13:04:17Z</time>
      </trkpt>
      <trkpt lat="46.75861" lon="4.73385">
        <ele>210</ele>
        <time>2017-02-19T13:04:18Z</time>
      </trkpt>
      <trkpt lat="46.75864" lon="4.73391">
        <ele>210</ele>
        <time>2017-02-19T13:04:19Z</time>
      </trkpt>
      <trkpt lat="46.75866" lon="4.73398">
        <ele>211</ele>
        <time>2017-02-19T13:04:20Z</time>
      </trkpt>
      <trkpt lat="46.75868" lon="4.73404">
        <ele>211</ele>
        <time>2017-02-19T13:04:21Z</time>
      </trkpt>
      <trkpt lat="46.75869" lon="4.73411">
        <ele>212</ele>
        <time>2017-02-19T13:04:22Z</time>
      </trkpt>
      <trkpt lat="46.75872" lon="4.73417">
        <ele>212</ele>
        <time>2017-02-19T13:04:23Z</time>
      </trkpt>
      <trkpt lat="46.75875" lon="4.73422">
        <ele>213</ele>
        <time>2017-02-19T13:04:24Z</time>
      </trkpt>
      <trkpt lat="46.75878" lon="4.73428">
        <ele>213</ele>
        <time>2017-02-19T13:04:25Z</time>
      </trkpt>
      <trkpt lat="46.75881" lon="4.73432">
        <ele>214</ele>
        <time>2017-02-19T13:04:26Z</time>
      </trkpt>
      <trkpt lat="46.75888" lon="4.73437">
        <ele>214</ele>
        <time>2017-02-19T13:04:28Z</time>
      </trkpt>
      <trkpt lat="46.75895" lon="4.73439">
        <ele>215</ele>
        <time>2017-02-19T13:04:30Z</time>
      </trkpt>
      <trkpt lat="46.75903" lon="4.73441">
        <ele>216</ele>
        <time>2017-02-19T13:04:32Z</time>
      </trkpt>
      <trkpt lat="46.7591" lon="4.73442">
        <ele>217</ele>
        <time>2017-02-19T13:04:34Z</time>
      </trkpt>
      <trkpt lat="46.75915" lon="4.73444">
        <ele>218</ele>
        <time>2017-02-19T13:04:36Z</time>
      </trkpt>
      <trkpt lat="46.7592" lon="4.73447">
        <ele>215</ele>
        <time>2017-02-19T13:04:40Z</time>
      </trkpt>
      <trkpt lat="46.75929" lon="4.73452">
        <ele>211</ele>
        <time>2017-02-19T13:04:42Z</time>
      </trkpt>
      <trkpt lat="46.75935" lon="4.73459">
        <ele>206</ele>
        <time>2017-02-19T13:04:44Z</time>
      </trkpt>
      <trkpt lat="46.75943" lon="4.73467">
        <ele>202</ele>
        <time>2017-02-19T13:04:46Z</time>
      </trkpt>
      <trkpt lat="46.75948" lon="4.73472">
        <ele>197</ele>
        <time>2017-02-19T13:04:47Z</time>
      </trkpt>
      <trkpt lat="46.75954" lon="4.73478">
        <ele>196</ele>
        <time>2017-02-19T13:04:48Z</time>
      </trkpt>
      <trkpt lat="46.75959" lon="4.73483">
        <ele>196</ele>
        <time>2017-02-19T13:04:49Z</time>
      </trkpt>
      <trkpt lat="46.75965" lon="4.73488">
        <ele>197</ele>
        <time>2017-02-19T13:04:50Z</time>
      </trkpt>
      <trkpt lat="46.7597" lon="4.73492">
        <ele>198</ele>
        <time>2017-02-19T13:04:51Z</time>
      </trkpt>
      <trkpt lat="46.75975" lon="4.73497">
        <ele>200</ele>
        <time>2017-02-19T13:04:52Z</time>
      </trkpt>
      <trkpt lat="46.7598" lon="4.73501">
        <ele>201</ele>
        <time>2017-02-19T13:04:53Z</time>
      </trkpt>
      <trkpt lat="46.75984" lon="4.73506">
        <ele>202</ele>
        <time>2017-02-19T13:04:54Z</time>
      </trkpt>
      <trkpt lat="46.7599" lon="4.73514">
        <ele>203</ele>
        <time>2017-02-19T13:04:56Z</time>
      </trkpt>
      <trkpt lat="46.75996" lon="4.73522">
        <ele>204</ele>
        <time>2017-02-19T13:04:58Z</time>
      </trkpt>
      <trkpt lat="46.76001" lon="4.7353">
        <ele>205</ele>
        <time>2017-02-19T13:05:00Z</time>
      </trkpt>
      <trkpt lat="46.76006" lon="4.73537">
        <ele>205</ele>
        <time>2017-02-19T13:05:02Z</time>
      </trkpt>
      <trkpt lat="46.76012" lon="4.73544">
        <ele>206</ele>
        <time>2017-02-19T13:05:04Z</time>
      </trkpt>
      <trkpt lat="46.76019" lon="4.73552">
        <ele>207</ele>
        <time>2017-02-19T13:05:06Z</time>
      </trkpt>
      <trkpt lat="46.76024" lon="4.73556">
        <ele>208</ele>
        <time>2017-02-19T13:05:07Z</time>
      </trkpt>
      <trkpt lat="46.76027" lon="4.7356">
        <ele>208</ele>
        <time>2017-02-19T13:05:08Z</time>
      </trkpt>
      <trkpt lat="46.76031" lon="4.73564">
        <ele>209</ele>
        <time>2017-02-19T13:05:09Z</time>
      </trkpt>
      <trkpt lat="46.76035" lon="4.73568">
        <ele>209</ele>
        <time>2017-02-19T13:05:10Z</time>
      </trkpt>
      <trkpt lat="46.76038" lon="4.73573">
        <ele>209</ele>
        <time>2017-02-19T13:05:11Z</time>
      </trkpt>
      <trkpt lat="46.76045" lon="4.73581">
        <ele>210</ele>
        <time>2017-02-19T13:05:13Z</time>
      </trkpt>
      <trkpt lat="46.76052" lon="4.73589">
        <ele>210</ele>
        <time>2017-02-19T13:05:15Z</time>
      </trkpt>
      <trkpt lat="46.76056" lon="4.73593">
        <ele>210</ele>
        <time>2017-02-19T13:05:16Z</time>
      </trkpt>
      <trkpt lat="46.76059" lon="4.73598">
        <ele>210</ele>
        <time>2017-02-19T13:05:17Z</time>
      </trkpt>
      <trkpt lat="46.76062" lon="4.73602">
        <ele>210</ele>
        <time>2017-02-19T13:05:18Z</time>
      </trkpt>
      <trkpt lat="46.76066" lon="4.73607">
        <ele>210</ele>
        <time>2017-02-19T13:05:19Z</time>
      </trkpt>
      <trkpt lat="46.76073" lon="4.73615">
        <ele>211</ele>
        <time>2017-02-19T13:05:21Z</time>
      </trkpt>
      <trkpt lat="46.76077" lon="4.73619">
        <ele>211</ele>
        <time>2017-02-19T13:05:22Z</time>
      </trkpt>
      <trkpt lat="46.7608" lon="4.73623">
        <ele>211</ele>
        <time>2017-02-19T13:05:23Z</time>
      </trkpt>
      <trkpt lat="46.76084" lon="4.73628">
        <ele>211</ele>
        <time>2017-02-19T13:05:24Z</time>
      </trkpt>
      <trkpt lat="46.76088" lon="4.73632">
        <ele>211</ele>
        <time>2017-02-19T13:05:25Z</time>
      </trkpt>
      <trkpt lat="46.76091" lon="4.73637">
        <ele>211</ele>
        <time>2017-02-19T13:05:26Z</time>
      </trkpt>
      <trkpt lat="46.76095" lon="4.73642">
        <ele>211</ele>
        <time>2017-02-19T13:05:27Z</time>
      </trkpt>
      <trkpt lat="46.76098" lon="4.73647">
        <ele>211</ele>
        <time>2017-02-19T13:05:28Z</time>
      </trkpt>
      <trkpt lat="46.76102" lon="4.73652">
        <ele>211</ele>
        <time>2017-02-19T13:05:29Z</time>
      </trkpt>
      <trkpt lat="46.76106" lon="4.73657">
        <ele>211</ele>
        <time>2017-02-19T13:05:30Z</time>
      </trkpt>
      <trkpt lat="46.7611" lon="4.73662">
        <ele>211</ele>
        <time>2017-02-19T13:05:31Z</time>
      </trkpt>
      <trkpt lat="46.76114" lon="4.73667">
        <ele>211</ele>
        <time>2017-02-19T13:05:32Z</time>
      </trkpt>
      <trkpt lat="46.76117" lon="4.73672">
        <ele>211</ele>
        <time>2017-02-19T13:05:33Z</time>
      </trkpt>
      <trkpt lat="46.7612" lon="4.73677">
        <ele>211</ele>
        <time>2017-02-19T13:05:34Z</time>
      </trkpt>
      <trkpt lat="46.76124" lon="4.73682">
        <ele>212</ele>
        <time>2017-02-19T13:05:35Z</time>
      </trkpt>
      <trkpt lat="46.76127" lon="4.73687">
        <ele>212</ele>
        <time>2017-02-19T13:05:36Z</time>
      </trkpt>
      <trkpt lat="46.7613" lon="4.73692">
        <ele>212</ele>
        <time>2017-02-19T13:05:37Z</time>
      </trkpt>
      <trkpt lat="46.76134" lon="4.73696">
        <ele>212</ele>
        <time>2017-02-19T13:05:38Z</time>
      </trkpt>
      <trkpt lat="46.7614" lon="4.73706">
        <ele>212</ele>
        <time>2017-02-19T13:05:40Z</time>
      </trkpt>
      <trkpt lat="46.76144" lon="4.73711">
        <ele>212</ele>
        <time>2017-02-19T13:05:41Z</time>
      </trkpt>
      <trkpt lat="46.76147" lon="4.73716">
        <ele>212</ele>
        <time>2017-02-19T13:05:42Z</time>
      </trkpt>
      <trkpt lat="46.76154" lon="4.73725">
        <ele>212</ele>
        <time>2017-02-19T13:05:44Z</time>
      </trkpt>
      <trkpt lat="46.76157" lon="4.73731">
        <ele>212</ele>
        <time>2017-02-19T13:05:45Z</time>
      </trkpt>
      <trkpt lat="46.76161" lon="4.73735">
        <ele>212</ele>
        <time>2017-02-19T13:05:46Z</time>
      </trkpt>
      <trkpt lat="46.76165" lon="4.7374">
        <ele>212</ele>
        <time>2017-02-19T13:05:47Z</time>
      </trkpt>
      <trkpt lat="46.76168" lon="4.73745">
        <ele>212</ele>
        <time>2017-02-19T13:05:48Z</time>
      </trkpt>
      <trkpt lat="46.76172" lon="4.7375">
        <ele>212</ele>
        <time>2017-02-19T13:05:49Z</time>
      </trkpt>
      <trkpt lat="46.76176" lon="4.73754">
        <ele>212</ele>
        <time>2017-02-19T13:05:50Z</time>
      </trkpt>
      <trkpt lat="46.76184" lon="4.73761">
        <ele>212</ele>
        <time>2017-02-19T13:05:52Z</time>
      </trkpt>
      <trkpt lat="46.76187" lon="4.73766">
        <ele>212</ele>
        <time>2017-02-19T13:05:53Z</time>
      </trkpt>
      <trkpt lat="46.76191" lon="4.73771">
        <ele>213</ele>
        <time>2017-02-19T13:05:54Z</time>
      </trkpt>
      <trkpt lat="46.76197" lon="4.7378">
        <ele>213</ele>
        <time>2017-02-19T13:05:56Z</time>
      </trkpt>
      <trkpt lat="46.76202" lon="4.73788">
        <ele>214</ele>
        <time>2017-02-19T13:05:58Z</time>
      </trkpt>
      <trkpt lat="46.76207" lon="4.73796">
        <ele>213</ele>
        <time>2017-02-19T13:06:00Z</time>
      </trkpt>
      <trkpt lat="46.76211" lon="4.73803">
        <ele>213</ele>
        <time>2017-02-19T13:06:02Z</time>
      </trkpt>
      <trkpt lat="46.76217" lon="4.73807">
        <ele>212</ele>
        <time>2017-02-19T13:06:04Z</time>
      </trkpt>
      <trkpt lat="46.76221" lon="4.73813">
        <ele>211</ele>
        <time>2017-02-19T13:06:06Z</time>
      </trkpt>
      <trkpt lat="46.76225" lon="4.73818">
        <ele>210</ele>
        <time>2017-02-19T13:06:08Z</time>
      </trkpt>
      <trkpt lat="46.7623" lon="4.73823">
        <ele>209</ele>
        <time>2017-02-19T13:06:10Z</time>
      </trkpt>
      <trkpt lat="46.76234" lon="4.7383">
        <ele>209</ele>
        <time>2017-02-19T13:06:12Z</time>
      </trkpt>
      <trkpt lat="46.76238" lon="4.73835">
        <ele>208</ele>
        <time>2017-02-19T13:06:14Z</time>
      </trkpt>
      <trkpt lat="46.76242" lon="4.73841">
        <ele>208</ele>
        <time>2017-02-19T13:06:16Z</time>
      </trkpt>
      <trkpt lat="46.76246" lon="4.73845">
        <ele>207</ele>
        <time>2017-02-19T13:06:18Z</time>
      </trkpt>
      <trkpt lat="46.76249" lon="4.7385">
        <ele>207</ele>
        <time>2017-02-19T13:06:20Z</time>
      </trkpt>
      <trkpt lat="46.76254" lon="4.73855">
        <ele>207</ele>
        <time>2017-02-19T13:06:22Z</time>
      </trkpt>
      <trkpt lat="46.76259" lon="4.73862">
        <ele>206</ele>
        <time>2017-02-19T13:06:24Z</time>
      </trkpt>
      <trkpt lat="46.76265" lon="4.73866">
        <ele>206</ele>
        <time>2017-02-19T13:06:26Z</time>
      </trkpt>
      <trkpt lat="46.76272" lon="4.73871">
        <ele>205</ele>
        <time>2017-02-19T13:06:28Z</time>
      </trkpt>
      <trkpt lat="46.76279" lon="4.73877">
        <ele>205</ele>
        <time>2017-02-19T13:06:30Z</time>
      </trkpt>
      <trkpt lat="46.76285" lon="4.73883">
        <ele>206</ele>
        <time>2017-02-19T13:06:32Z</time>
      </trkpt>
      <trkpt lat="46.76291" lon="4.73888">
        <ele>206</ele>
        <time>2017-02-19T13:06:34Z</time>
      </trkpt>
      <trkpt lat="46.76297" lon="4.73892">
        <ele>207</ele>
        <time>2017-02-19T13:06:36Z</time>
      </trkpt>
      <trkpt lat="46.76302" lon="4.73897">
        <ele>207</ele>
        <time>2017-02-19T13:06:38Z</time>
      </trkpt>
      <trkpt lat="46.76308" lon="4.73901">
        <ele>208</ele>
        <time>2017-02-19T13:06:40Z</time>
      </trkpt>
      <trkpt lat="46.76313" lon="4.73906">
        <ele>208</ele>
        <time>2017-02-19T13:06:42Z</time>
      </trkpt>
      <trkpt lat="46.76318" lon="4.73908">
        <ele>209</ele>
        <time>2017-02-19T13:06:44Z</time>
      </trkpt>
      <trkpt lat="46.76323" lon="4.73911">
        <ele>210</ele>
        <time>2017-02-19T13:06:46Z</time>
      </trkpt>
      <trkpt lat="46.76328" lon="4.73916">
        <ele>210</ele>
        <time>2017-02-19T13:06:48Z</time>
      </trkpt>
      <trkpt lat="46.76333" lon="4.73922">
        <ele>210</ele>
        <time>2017-02-19T13:06:50Z</time>
      </trkpt>
      <trkpt lat="46.76337" lon="4.73925">
        <ele>210</ele>
        <time>2017-02-19T13:06:52Z</time>
      </trkpt>
      <trkpt lat="46.76342" lon="4.73928">
        <ele>210</ele>
        <time>2017-02-19T13:06:54Z</time>
      </trkpt>
      <trkpt lat="46.76347" lon="4.73932">
        <ele>209</ele>
        <time>2017-02-19T13:06:57Z</time>
      </trkpt>
      <trkpt lat="46.76351" lon="4.73935">
        <ele>208</ele>
        <time>2017-02-19T13:06:59Z</time>
      </trkpt>
      <trkpt lat="46.76357" lon="4.73939">
        <ele>207</ele>
        <time>2017-02-19T13:07:01Z</time>
      </trkpt>
      <trkpt lat="46.76362" lon="4.73943">
        <ele>206</ele>
        <time>2017-02-19T13:07:03Z</time>
      </trkpt>
      <trkpt lat="46.76368" lon="4.73945">
        <ele>205</ele>
        <time>2017-02-19T13:07:05Z</time>
      </trkpt>
      <trkpt lat="46.76374" lon="4.73947">
        <ele>204</ele>
        <time>2017-02-19T13:07:07Z</time>
      </trkpt>
      <trkpt lat="46.7638" lon="4.73951">
        <ele>202</ele>
        <time>2017-02-19T13:07:09Z</time>
      </trkpt>
      <trkpt lat="46.76386" lon="4.73957">
        <ele>200</ele>
        <time>2017-02-19T13:07:11Z</time>
      </trkpt>
      <trkpt lat="46.76391" lon="4.73965">
        <ele>198</ele>
        <time>2017-02-19T13:07:13Z</time>
      </trkpt>
      <trkpt lat="46.76398" lon="4.7397">
        <ele>195</ele>
        <time>2017-02-19T13:07:15Z</time>
      </trkpt>
      <trkpt lat="46.76406" lon="4.73976">
        <ele>193</ele>
        <time>2017-02-19T13:07:17Z</time>
      </trkpt>
      <trkpt lat="46.76415" lon="4.73981">
        <ele>192</ele>
        <time>2017-02-19T13:07:19Z</time>
      </trkpt>
      <trkpt lat="46.76419" lon="4.73984">
        <ele>191</ele>
        <time>2017-02-19T13:07:20Z</time>
      </trkpt>
      <trkpt lat="46.76427" lon="4.7399">
        <ele>191</ele>
        <time>2017-02-19T13:07:22Z</time>
      </trkpt>
      <trkpt lat="46.76431" lon="4.73993">
        <ele>191</ele>
        <time>2017-02-19T13:07:23Z</time>
      </trkpt>
      <trkpt lat="46.76436" lon="4.73996">
        <ele>192</ele>
        <time>2017-02-19T13:07:24Z</time>
      </trkpt>
      <trkpt lat="46.7644" lon="4.74">
        <ele>192</ele>
        <time>2017-02-19T13:07:25Z</time>
      </trkpt>
      <trkpt lat="46.76445" lon="4.74004">
        <ele>193</ele>
        <time>2017-02-19T13:07:26Z</time>
      </trkpt>
      <trkpt lat="46.7645" lon="4.74008">
        <ele>194</ele>
        <time>2017-02-19T13:07:27Z</time>
      </trkpt>
      <trkpt lat="46.76454" lon="4.74011">
        <ele>194</ele>
        <time>2017-02-19T13:07:28Z</time>
      </trkpt>
      <trkpt lat="46.76459" lon="4.74014">
        <ele>195</ele>
        <time>2017-02-19T13:07:29Z</time>
      </trkpt>
      <trkpt lat="46.76464" lon="4.74018">
        <ele>196</ele>
        <time>2017-02-19T13:07:30Z</time>
      </trkpt>
      <trkpt lat="46.76469" lon="4.74021">
        <ele>196</ele>
        <time>2017-02-19T13:07:31Z</time>
      </trkpt>
      <trkpt lat="46.76474" lon="4.74024">
        <ele>196</ele>
        <time>2017-02-19T13:07:32Z</time>
      </trkpt>
      <trkpt lat="46.76479" lon="4.74028">
        <ele>196</ele>
        <time>2017-02-19T13:07:33Z</time>
      </trkpt>
      <trkpt lat="46.76483" lon="4.74031">
        <ele>197</ele>
        <time>2017-02-19T13:07:34Z</time>
      </trkpt>
      <trkpt lat="46.76487" lon="4.74034">
        <ele>196</ele>
        <time>2017-02-19T13:07:35Z</time>
      </trkpt>
      <trkpt lat="46.76492" lon="4.74036">
        <ele>196</ele>
        <time>2017-02-19T13:07:36Z</time>
      </trkpt>
      <trkpt lat="46.76497" lon="4.74039">
        <ele>196</ele>
        <time>2017-02-19T13:07:37Z</time>
      </trkpt>
      <trkpt lat="46.76503" lon="4.74042">
        <ele>196</ele>
        <time>2017-02-19T13:07:38Z</time>
      </trkpt>
      <trkpt lat="46.76509" lon="4.74046">
        <ele>197</ele>
        <time>2017-02-19T13:07:39Z</time>
      </trkpt>
      <trkpt lat="46.76514" lon="4.7405">
        <ele>197</ele>
        <time>2017-02-19T13:07:40Z</time>
      </trkpt>
      <trkpt lat="46.7652" lon="4.74053">
        <ele>197</ele>
        <time>2017-02-19T13:07:41Z</time>
      </trkpt>
      <trkpt lat="46.76526" lon="4.74056">
        <ele>198</ele>
        <time>2017-02-19T13:07:42Z</time>
      </trkpt>
      <trkpt lat="46.76532" lon="4.74059">
        <ele>198</ele>
        <time>2017-02-19T13:07:43Z</time>
      </trkpt>
      <trkpt lat="46.76539" lon="4.74062">
        <ele>199</ele>
        <time>2017-02-19T13:07:44Z</time>
      </trkpt>
      <trkpt lat="46.76544" lon="4.74064">
        <ele>199</ele>
        <time>2017-02-19T13:07:45Z</time>
      </trkpt>
      <trkpt lat="46.76549" lon="4.74066">
        <ele>199</ele>
        <time>2017-02-19T13:07:46Z</time>
      </trkpt>
      <trkpt lat="46.76556" lon="4.74069">
        <ele>200</ele>
        <time>2017-02-19T13:07:48Z</time>
      </trkpt>
      <trkpt lat="46.76561" lon="4.74075">
        <ele>200</ele>
        <time>2017-02-19T13:07:50Z</time>
      </trkpt>
      <trkpt lat="46.76565" lon="4.7408">
        <ele>201</ele>
        <time>2017-02-19T13:07:52Z</time>
      </trkpt>
      <trkpt lat="46.7657" lon="4.74083">
        <ele>202</ele>
        <time>2017-02-19T13:07:55Z</time>
      </trkpt>
      <trkpt lat="46.76575" lon="4.7408">
        <ele>203</ele>
        <time>2017-02-19T13:08:00Z</time>
      </trkpt>
      <trkpt lat="46.7658" lon="4.74083">
        <ele>204</ele>
        <time>2017-02-19T13:08:02Z</time>
      </trkpt>
      <trkpt lat="46.76584" lon="4.74088">
        <ele>204</ele>
        <time>2017-02-19T13:08:04Z</time>
      </trkpt>
      <trkpt lat="46.7659" lon="4.74094">
        <ele>204</ele>
        <time>2017-02-19T13:08:06Z</time>
      </trkpt>
      <trkpt lat="46.76596" lon="4.74099">
        <ele>204</ele>
        <time>2017-02-19T13:08:08Z</time>
      </trkpt>
      <trkpt lat="46.76602" lon="4.74103">
        <ele>204</ele>
        <time>2017-02-19T13:08:10Z</time>
      </trkpt>
      <trkpt lat="46.76608" lon="4.74107">
        <ele>204</ele>
        <time>2017-02-19T13:08:12Z</time>
      </trkpt>
      <trkpt lat="46.76615" lon="4.74111">
        <ele>203</ele>
        <time>2017-02-19T13:08:14Z</time>
      </trkpt>
      <trkpt lat="46.76622" lon="4.74116">
        <ele>203</ele>
        <time>2017-02-19T13:08:16Z</time>
      </trkpt>
      <trkpt lat="46.76629" lon="4.7412">
        <ele>203</ele>
        <time>2017-02-19T13:08:18Z</time>
      </trkpt>
      <trkpt lat="46.76636" lon="4.74126">
        <ele>202</ele>
        <time>2017-02-19T13:08:20Z</time>
      </trkpt>
      <trkpt lat="46.7664" lon="4.74128">
        <ele>201</ele>
        <time>2017-02-19T13:08:21Z</time>
      </trkpt>
      <trkpt lat="46.76645" lon="4.74131">
        <ele>200</ele>
        <time>2017-02-19T13:08:22Z</time>
      </trkpt>
      <trkpt lat="46.7665" lon="4.74133">
        <ele>199</ele>
        <time>2017-02-19T13:08:23Z</time>
      </trkpt>
      <trkpt lat="46.76655" lon="4.74135">
        <ele>199</ele>
        <time>2017-02-19T13:08:24Z</time>
      </trkpt>
      <trkpt lat="46.7666" lon="4.74137">
        <ele>199</ele>
        <time>2017-02-19T13:08:25Z</time>
      </trkpt>
      <trkpt lat="46.76666" lon="4.7414">
        <ele>199</ele>
        <time>2017-02-19T13:08:26Z</time>
      </trkpt>
      <trkpt lat="46.76671" lon="4.74142">
        <ele>199</ele>
        <time>2017-02-19T13:08:27Z</time>
      </trkpt>
      <trkpt lat="46.76677" lon="4.74145">
        <ele>199</ele>
        <time>2017-02-19T13:08:28Z</time>
      </trkpt>
      <trkpt lat="46.76683" lon="4.74148">
        <ele>199</ele>
        <time>2017-02-19T13:08:29Z</time>
      </trkpt>
      <trkpt lat="46.76689" lon="4.74151">
        <ele>199</ele>
        <time>2017-02-19T13:08:30Z</time>
      </trkpt>
      <trkpt lat="46.76695" lon="4.74154">
        <ele>199</ele>
        <time>2017-02-19T13:08:31Z</time>
      </trkpt>
      <trkpt lat="46.767" lon="4.74157">
        <ele>198</ele>
        <time>2017-02-19T13:08:32Z</time>
      </trkpt>
      <trkpt lat="46.76705" lon="4.74161">
        <ele>198</ele>
        <time>2017-02-19T13:08:33Z</time>
      </trkpt>
      <trkpt lat="46.76711" lon="4.74165">
        <ele>198</ele>
        <time>2017-02-19T13:08:34Z</time>
      </trkpt>
      <trkpt lat="46.76716" lon="4.74169">
        <ele>197</ele>
        <time>2017-02-19T13:08:35Z</time>
      </trkpt>
      <trkpt lat="46.76721" lon="4.74173">
        <ele>196</ele>
        <time>2017-02-19T13:08:36Z</time>
      </trkpt>
      <trkpt lat="46.76727" lon="4.74177">
        <ele>196</ele>
        <time>2017-02-19T13:08:37Z</time>
      </trkpt>
      <trkpt lat="46.76733" lon="4.74181">
        <ele>195</ele>
        <time>2017-02-19T13:08:38Z</time>
      </trkpt>
      <trkpt lat="46.76738" lon="4.74184">
        <ele>194</ele>
        <time>2017-02-19T13:08:39Z</time>
      </trkpt>
      <trkpt lat="46.76744" lon="4.74187">
        <ele>194</ele>
        <time>2017-02-19T13:08:40Z</time>
      </trkpt>
      <trkpt lat="46.76749" lon="4.7419">
        <ele>193</ele>
        <time>2017-02-19T13:08:41Z</time>
      </trkpt>
      <trkpt lat="46.76756" lon="4.74193">
        <ele>192</ele>
        <time>2017-02-19T13:08:42Z</time>
      </trkpt>
      <trkpt lat="46.76762" lon="4.74196">
        <ele>192</ele>
        <time>2017-02-19T13:08:43Z</time>
      </trkpt>
      <trkpt lat="46.76768" lon="4.742">
        <ele>191</ele>
        <time>2017-02-19T13:08:44Z</time>
      </trkpt>
      <trkpt lat="46.76774" lon="4.74203">
        <ele>191</ele>
        <time>2017-02-19T13:08:45Z</time>
      </trkpt>
      <trkpt lat="46.7678" lon="4.74207">
        <ele>191</ele>
        <time>2017-02-19T13:08:46Z</time>
      </trkpt>
      <trkpt lat="46.76786" lon="4.74211">
        <ele>190</ele>
        <time>2017-02-19T13:08:47Z</time>
      </trkpt>
      <trkpt lat="46.76791" lon="4.74214">
        <ele>190</ele>
        <time>2017-02-19T13:08:48Z</time>
      </trkpt>
      <trkpt lat="46.76796" lon="4.74218">
        <ele>189</ele>
        <time>2017-02-19T13:08:49Z</time>
      </trkpt>
      <trkpt lat="46.76802" lon="4.74222">
        <ele>188</ele>
        <time>2017-02-19T13:08:50Z</time>
      </trkpt>
      <trkpt lat="46.76808" lon="4.74226">
        <ele>188</ele>
        <time>2017-02-19T13:08:51Z</time>
      </trkpt>
      <trkpt lat="46.76814" lon="4.74229">
        <ele>187</ele>
        <time>2017-02-19T13:08:52Z</time>
      </trkpt>
      <trkpt lat="46.7682" lon="4.74233">
        <ele>187</ele>
        <time>2017-02-19T13:08:53Z</time>
      </trkpt>
      <trkpt lat="46.76827" lon="4.74237">
        <ele>187</ele>
        <time>2017-02-19T13:08:54Z</time>
      </trkpt>
      <trkpt lat="46.76834" lon="4.7424">
        <ele>187</ele>
        <time>2017-02-19T13:08:55Z</time>
      </trkpt>
      <trkpt lat="46.76841" lon="4.74243">
        <ele>186</ele>
        <time>2017-02-19T13:08:56Z</time>
      </trkpt>
      <trkpt lat="46.76848" lon="4.74247">
        <ele>186</ele>
        <time>2017-02-19T13:08:57Z</time>
      </trkpt>
      <trkpt lat="46.76854" lon="4.7425">
        <ele>186</ele>
        <time>2017-02-19T13:08:58Z</time>
      </trkpt>
      <trkpt lat="46.76861" lon="4.74255">
        <ele>186</ele>
        <time>2017-02-19T13:08:59Z</time>
      </trkpt>
      <trkpt lat="46.7687" lon="4.74259">
        <ele>187</ele>
        <time>2017-02-19T13:09:00Z</time>
      </trkpt>
      <trkpt lat="46.76878" lon="4.74264">
        <ele>187</ele>
        <time>2017-02-19T13:09:01Z</time>
      </trkpt>
      <trkpt lat="46.76886" lon="4.74268">
        <ele>188</ele>
        <time>2017-02-19T13:09:02Z</time>
      </trkpt>
      <trkpt lat="46.76895" lon="4.74272">
        <ele>189</ele>
        <time>2017-02-19T13:09:03Z</time>
      </trkpt>
      <trkpt lat="46.76902" lon="4.74275">
        <ele>191</ele>
        <time>2017-02-19T13:09:04Z</time>
      </trkpt>
      <trkpt lat="46.76909" lon="4.74278">
        <ele>192</ele>
        <time>2017-02-19T13:09:05Z</time>
      </trkpt>
      <trkpt lat="46.76915" lon="4.74281">
        <ele>192</ele>
        <time>2017-02-19T13:09:06Z</time>
      </trkpt>
      <trkpt lat="46.76922" lon="4.74284">
        <ele>193</ele>
        <time>2017-02-19T13:09:07Z</time>
      </trkpt>
      <trkpt lat="46.76928" lon="4.74286">
        <ele>194</ele>
        <time>2017-02-19T13:09:08Z</time>
      </trkpt>
      <trkpt lat="46.76934" lon="4.74288">
        <ele>194</ele>
        <time>2017-02-19T13:09:09Z</time>
      </trkpt>
      <trkpt lat="46.7694" lon="4.7429">
        <ele>195</ele>
        <time>2017-02-19T13:09:10Z</time>
      </trkpt>
      <trkpt lat="46.76946" lon="4.74293">
        <ele>196</ele>
        <time>2017-02-19T13:09:11Z</time>
      </trkpt>
      <trkpt lat="46.76952" lon="4.74296">
        <ele>197</ele>
        <time>2017-02-19T13:09:12Z</time>
      </trkpt>
      <trkpt lat="46.76958" lon="4.743">
        <ele>198</ele>
        <time>2017-02-19T13:09:13Z</time>
      </trkpt>
      <trkpt lat="46.76963" lon="4.74303">
        <ele>199</ele>
        <time>2017-02-19T13:09:14Z</time>
      </trkpt>
      <trkpt lat="46.7697" lon="4.74306">
        <ele>199</ele>
        <time>2017-02-19T13:09:15Z</time>
      </trkpt>
      <trkpt lat="46.76975" lon="4.74309">
        <ele>199</ele>
        <time>2017-02-19T13:09:16Z</time>
      </trkpt>
      <trkpt lat="46.76981" lon="4.74313">
        <ele>199</ele>
        <time>2017-02-19T13:09:17Z</time>
      </trkpt>
      <trkpt lat="46.76987" lon="4.74316">
        <ele>199</ele>
        <time>2017-02-19T13:09:18Z</time>
      </trkpt>
      <trkpt lat="46.76993" lon="4.7432">
        <ele>199</ele>
        <time>2017-02-19T13:09:19Z</time>
      </trkpt>
      <trkpt lat="46.77" lon="4.74323">
        <ele>199</ele>
        <time>2017-02-19T13:09:20Z</time>
      </trkpt>
      <trkpt lat="46.77007" lon="4.74326">
        <ele>199</ele>
        <time>2017-02-19T13:09:21Z</time>
      </trkpt>
      <trkpt lat="46.77013" lon="4.74329">
        <ele>199</ele>
        <time>2017-02-19T13:09:22Z</time>
      </trkpt>
      <trkpt lat="46.7702" lon="4.74332">
        <ele>199</ele>
        <time>2017-02-19T13:09:23Z</time>
      </trkpt>
      <trkpt lat="46.77026" lon="4.74336">
        <ele>199</ele>
        <time>2017-02-19T13:09:24Z</time>
      </trkpt>
      <trkpt lat="46.77033" lon="4.74339">
        <ele>199</ele>
        <time>2017-02-19T13:09:25Z</time>
      </trkpt>
      <trkpt lat="46.7704" lon="4.74343">
        <ele>200</ele>
        <time>2017-02-19T13:09:26Z</time>
      </trkpt>
      <trkpt lat="46.77047" lon="4.74346">
        <ele>200</ele>
        <time>2017-02-19T13:09:27Z</time>
      </trkpt>
      <trkpt lat="46.77053" lon="4.74349">
        <ele>200</ele>
        <time>2017-02-19T13:09:28Z</time>
      </trkpt>
      <trkpt lat="46.77059" lon="4.74353">
        <ele>200</ele>
        <time>2017-02-19T13:09:29Z</time>
      </trkpt>
      <trkpt lat="46.77066" lon="4.74357">
        <ele>200</ele>
        <time>2017-02-19T13:09:30Z</time>
      </trkpt>
      <trkpt lat="46.77073" lon="4.7436">
        <ele>200</ele>
        <time>2017-02-19T13:09:31Z</time>
      </trkpt>
      <trkpt lat="46.77079" lon="4.74365">
        <ele>200</ele>
        <time>2017-02-19T13:09:32Z</time>
      </trkpt>
      <trkpt lat="46.77086" lon="4.74368">
        <ele>201</ele>
        <time>2017-02-19T13:09:33Z</time>
      </trkpt>
      <trkpt lat="46.77092" lon="4.74372">
        <ele>201</ele>
        <time>2017-02-19T13:09:34Z</time>
      </trkpt>
      <trkpt lat="46.77099" lon="4.74376">
        <ele>201</ele>
        <time>2017-02-19T13:09:35Z</time>
      </trkpt>
      <trkpt lat="46.77105" lon="4.7438">
        <ele>202</ele>
        <time>2017-02-19T13:09:36Z</time>
      </trkpt>
      <trkpt lat="46.77111" lon="4.74383">
        <ele>202</ele>
        <time>2017-02-19T13:09:37Z</time>
      </trkpt>
      <trkpt lat="46.77117" lon="4.74387">
        <ele>202</ele>
        <time>2017-02-19T13:09:38Z</time>
      </trkpt>
      <trkpt lat="46.77123" lon="4.74391">
        <ele>202</ele>
        <time>2017-02-19T13:09:39Z</time>
      </trkpt>
      <trkpt lat="46.77129" lon="4.74395">
        <ele>202</ele>
        <time>2017-02-19T13:09:40Z</time>
      </trkpt>
      <trkpt lat="46.77136" lon="4.74398">
        <ele>202</ele>
        <time>2017-02-19T13:09:41Z</time>
      </trkpt>
      <trkpt lat="46.77142" lon="4.74401">
        <ele>203</ele>
        <time>2017-02-19T13:09:42Z</time>
      </trkpt>
      <trkpt lat="46.77155" lon="4.74408">
        <ele>203</ele>
        <time>2017-02-19T13:09:44Z</time>
      </trkpt>
      <trkpt lat="46.77161" lon="4.74412">
        <ele>203</ele>
        <time>2017-02-19T13:09:45Z</time>
      </trkpt>
      <trkpt lat="46.77166" lon="4.74416">
        <ele>203</ele>
        <time>2017-02-19T13:09:46Z</time>
      </trkpt>
      <trkpt lat="46.77173" lon="4.74419">
        <ele>203</ele>
        <time>2017-02-19T13:09:47Z</time>
      </trkpt>
      <trkpt lat="46.77179" lon="4.74421">
        <ele>203</ele>
        <time>2017-02-19T13:09:48Z</time>
      </trkpt>
      <trkpt lat="46.77185" lon="4.74424">
        <ele>202</ele>
        <time>2017-02-19T13:09:49Z</time>
      </trkpt>
      <trkpt lat="46.77191" lon="4.74427">
        <ele>202</ele>
        <time>2017-02-19T13:09:50Z</time>
      </trkpt>
      <trkpt lat="46.77198" lon="4.7443">
        <ele>202</ele>
        <time>2017-02-19T13:09:51Z</time>
      </trkpt>
      <trkpt lat="46.77205" lon="4.74434">
        <ele>202</ele>
        <time>2017-02-19T13:09:52Z</time>
      </trkpt>
      <trkpt lat="46.77211" lon="4.74438">
        <ele>202</ele>
        <time>2017-02-19T13:09:53Z</time>
      </trkpt>
      <trkpt lat="46.77218" lon="4.74442">
        <ele>202</ele>
        <time>2017-02-19T13:09:54Z</time>
      </trkpt>
      <trkpt lat="46.77224" lon="4.74446">
        <ele>202</ele>
        <time>2017-02-19T13:09:55Z</time>
      </trkpt>
      <trkpt lat="46.7723" lon="4.74451">
        <ele>202</ele>
        <time>2017-02-19T13:09:56Z</time>
      </trkpt>
      <trkpt lat="46.77236" lon="4.74455">
        <ele>202</ele>
        <time>2017-02-19T13:09:57Z</time>
      </trkpt>
      <trkpt lat="46.77242" lon="4.74459">
        <ele>201</ele>
        <time>2017-02-19T13:09:58Z</time>
      </trkpt>
      <trkpt lat="46.77248" lon="4.74463">
        <ele>201</ele>
        <time>2017-02-19T13:09:59Z</time>
      </trkpt>
      <trkpt lat="46.77255" lon="4.74467">
        <ele>201</ele>
        <time>2017-02-19T13:10:00Z</time>
      </trkpt>
      <trkpt lat="46.77261" lon="4.7447">
        <ele>201</ele>
        <time>2017-02-19T13:10:01Z</time>
      </trkpt>
      <trkpt lat="46.77268" lon="4.74474">
        <ele>201</ele>
        <time>2017-02-19T13:10:02Z</time>
      </trkpt>
      <trkpt lat="46.77274" lon="4.74478">
        <ele>201</ele>
        <time>2017-02-19T13:10:03Z</time>
      </trkpt>
      <trkpt lat="46.77281" lon="4.74481">
        <ele>200</ele>
        <time>2017-02-19T13:10:04Z</time>
      </trkpt>
      <trkpt lat="46.77288" lon="4.74486">
        <ele>200</ele>
        <time>2017-02-19T13:10:05Z</time>
      </trkpt>
      <trkpt lat="46.77295" lon="4.74489">
        <ele>200</ele>
        <time>2017-02-19T13:10:06Z</time>
      </trkpt>
      <trkpt lat="46.77302" lon="4.74493">
        <ele>200</ele>
        <time>2017-02-19T13:10:07Z</time>
      </trkpt>
      <trkpt lat="46.77309" lon="4.74496">
        <ele>200</ele>
        <time>2017-02-19T13:10:08Z</time>
      </trkpt>
      <trkpt lat="46.77316" lon="4.74499">
        <ele>200</ele>
        <time>2017-02-19T13:10:09Z</time>
      </trkpt>
      <trkpt lat="46.77324" lon="4.74502">
        <ele>200</ele>
        <time>2017-02-19T13:10:10Z</time>
      </trkpt>
      <trkpt lat="46.7733" lon="4.74505">
        <ele>200</ele>
        <time>2017-02-19T13:10:11Z</time>
      </trkpt>
      <trkpt lat="46.77337" lon="4.74508">
        <ele>200</ele>
        <time>2017-02-19T13:10:12Z</time>
      </trkpt>
      <trkpt lat="46.77343" lon="4.74512">
        <ele>200</ele>
        <time>2017-02-19T13:10:13Z</time>
      </trkpt>
      <trkpt lat="46.77349" lon="4.74515">
        <ele>200</ele>
        <time>2017-02-19T13:10:14Z</time>
      </trkpt>
      <trkpt lat="46.77355" lon="4.74518">
        <ele>200</ele>
        <time>2017-02-19T13:10:15Z</time>
      </trkpt>
      <trkpt lat="46.77361" lon="4.74521">
        <ele>199</ele>
        <time>2017-02-19T13:10:16Z</time>
      </trkpt>
      <trkpt lat="46.77367" lon="4.74524">
        <ele>199</ele>
        <time>2017-02-19T13:10:17Z</time>
      </trkpt>
      <trkpt lat="46.77373" lon="4.74528">
        <ele>198</ele>
        <time>2017-02-19T13:10:18Z</time>
      </trkpt>
      <trkpt lat="46.77379" lon="4.74531">
        <ele>198</ele>
        <time>2017-02-19T13:10:19Z</time>
      </trkpt>
      <trkpt lat="46.77385" lon="4.74533">
        <ele>198</ele>
        <time>2017-02-19T13:10:20Z</time>
      </trkpt>
      <trkpt lat="46.77391" lon="4.74537">
        <ele>197</ele>
        <time>2017-02-19T13:10:21Z</time>
      </trkpt>
      <trkpt lat="46.77398" lon="4.7454">
        <ele>197</ele>
        <time>2017-02-19T13:10:22Z</time>
      </trkpt>
      <trkpt lat="46.77404" lon="4.74544">
        <ele>197</ele>
        <time>2017-02-19T13:10:23Z</time>
      </trkpt>
      <trkpt lat="46.77409" lon="4.74548">
        <ele>197</ele>
        <time>2017-02-19T13:10:24Z</time>
      </trkpt>
      <trkpt lat="46.77416" lon="4.74552">
        <ele>197</ele>
        <time>2017-02-19T13:10:25Z</time>
      </trkpt>
      <trkpt lat="46.77422" lon="4.74556">
        <ele>197</ele>
        <time>2017-02-19T13:10:26Z</time>
      </trkpt>
      <trkpt lat="46.77428" lon="4.7456">
        <ele>197</ele>
        <time>2017-02-19T13:10:27Z</time>
      </trkpt>
      <trkpt lat="46.77434" lon="4.74564">
        <ele>197</ele>
        <time>2017-02-19T13:10:28Z</time>
      </trkpt>
      <trkpt lat="46.7744" lon="4.74568">
        <ele>197</ele>
        <time>2017-02-19T13:10:29Z</time>
      </trkpt>
      <trkpt lat="46.77446" lon="4.74573">
        <ele>197</ele>
        <time>2017-02-19T13:10:30Z</time>
      </trkpt>
      <trkpt lat="46.77453" lon="4.74577">
        <ele>197</ele>
        <time>2017-02-19T13:10:31Z</time>
      </trkpt>
      <trkpt lat="46.77459" lon="4.74581">
        <ele>197</ele>
        <time>2017-02-19T13:10:32Z</time>
      </trkpt>
      <trkpt lat="46.77466" lon="4.74585">
        <ele>197</ele>
        <time>2017-02-19T13:10:33Z</time>
      </trkpt>
      <trkpt lat="46.77472" lon="4.74589">
        <ele>197</ele>
        <time>2017-02-19T13:10:34Z</time>
      </trkpt>
      <trkpt lat="46.77478" lon="4.74592">
        <ele>198</ele>
        <time>2017-02-19T13:10:35Z</time>
      </trkpt>
      <trkpt lat="46.77485" lon="4.74596">
        <ele>198</ele>
        <time>2017-02-19T13:10:36Z</time>
      </trkpt>
      <trkpt lat="46.77491" lon="4.746">
        <ele>197</ele>
        <time>2017-02-19T13:10:37Z</time>
      </trkpt>
      <trkpt lat="46.77497" lon="4.74604">
        <ele>197</ele>
        <time>2017-02-19T13:10:38Z</time>
      </trkpt>
      <trkpt lat="46.77504" lon="4.74607">
        <ele>196</ele>
        <time>2017-02-19T13:10:39Z</time>
      </trkpt>
      <trkpt lat="46.77511" lon="4.74609">
        <ele>196</ele>
        <time>2017-02-19T13:10:40Z</time>
      </trkpt>
      <trkpt lat="46.77519" lon="4.74612">
        <ele>196</ele>
        <time>2017-02-19T13:10:41Z</time>
      </trkpt>
      <trkpt lat="46.77526" lon="4.74615">
        <ele>195</ele>
        <time>2017-02-19T13:10:42Z</time>
      </trkpt>
      <trkpt lat="46.77533" lon="4.74619">
        <ele>195</ele>
        <time>2017-02-19T13:10:43Z</time>
      </trkpt>
      <trkpt lat="46.7754" lon="4.74622">
        <ele>195</ele>
        <time>2017-02-19T13:10:44Z</time>
      </trkpt>
      <trkpt lat="46.77546" lon="4.74626">
        <ele>195</ele>
        <time>2017-02-19T13:10:45Z</time>
      </trkpt>
      <trkpt lat="46.77552" lon="4.7463">
        <ele>194</ele>
        <time>2017-02-19T13:10:46Z</time>
      </trkpt>
      <trkpt lat="46.77559" lon="4.74634">
        <ele>194</ele>
        <time>2017-02-19T13:10:47Z</time>
      </trkpt>
      <trkpt lat="46.77566" lon="4.74638">
        <ele>194</ele>
        <time>2017-02-19T13:10:48Z</time>
      </trkpt>
      <trkpt lat="46.77573" lon="4.74642">
        <ele>194</ele>
        <time>2017-02-19T13:10:49Z</time>
      </trkpt>
      <trkpt lat="46.7758" lon="4.74646">
        <ele>194</ele>
        <time>2017-02-19T13:10:50Z</time>
      </trkpt>
      <trkpt lat="46.77587" lon="4.7465">
        <ele>194</ele>
        <time>2017-02-19T13:10:51Z</time>
      </trkpt>
      <trkpt lat="46.77595" lon="4.74653">
        <ele>194</ele>
        <time>2017-02-19T13:10:52Z</time>
      </trkpt>
      <trkpt lat="46.77603" lon="4.74657">
        <ele>194</ele>
        <time>2017-02-19T13:10:53Z</time>
      </trkpt>
      <trkpt lat="46.7761" lon="4.74661">
        <ele>195</ele>
        <time>2017-02-19T13:10:54Z</time>
      </trkpt>
      <trkpt lat="46.77616" lon="4.74664">
        <ele>195</ele>
        <time>2017-02-19T13:10:55Z</time>
      </trkpt>
      <trkpt lat="46.77623" lon="4.74669">
        <ele>196</ele>
        <time>2017-02-19T13:10:56Z</time>
      </trkpt>
      <trkpt lat="46.77629" lon="4.74672">
        <ele>196</ele>
        <time>2017-02-19T13:10:57Z</time>
      </trkpt>
      <trkpt lat="46.77636" lon="4.74676">
        <ele>197</ele>
        <time>2017-02-19T13:10:58Z</time>
      </trkpt>
      <trkpt lat="46.77642" lon="4.7468">
        <ele>197</ele>
        <time>2017-02-19T13:10:59Z</time>
      </trkpt>
      <trkpt lat="46.77649" lon="4.74683">
        <ele>197</ele>
        <time>2017-02-19T13:11:00Z</time>
      </trkpt>
      <trkpt lat="46.77657" lon="4.74687">
        <ele>196</ele>
        <time>2017-02-19T13:11:01Z</time>
      </trkpt>
      <trkpt lat="46.77663" lon="4.7469">
        <ele>196</ele>
        <time>2017-02-19T13:11:02Z</time>
      </trkpt>
      <trkpt lat="46.7767" lon="4.74694">
        <ele>196</ele>
        <time>2017-02-19T13:11:03Z</time>
      </trkpt>
      <trkpt lat="46.77677" lon="4.74697">
        <ele>196</ele>
        <time>2017-02-19T13:11:04Z</time>
      </trkpt>
      <trkpt lat="46.77683" lon="4.74701">
        <ele>195</ele>
        <time>2017-02-19T13:11:05Z</time>
      </trkpt>
      <trkpt lat="46.77689" lon="4.74705">
        <ele>195</ele>
        <time>2017-02-19T13:11:06Z</time>
      </trkpt>
      <trkpt lat="46.77695" lon="4.74709">
        <ele>195</ele>
        <time>2017-02-19T13:11:07Z</time>
      </trkpt>
      <trkpt lat="46.77701" lon="4.74714">
        <ele>194</ele>
        <time>2017-02-19T13:11:08Z</time>
      </trkpt>
      <trkpt lat="46.77705" lon="4.74717">
        <ele>194</ele>
        <time>2017-02-19T13:11:09Z</time>
      </trkpt>
      <trkpt lat="46.7771" lon="4.74721">
        <ele>193</ele>
        <time>2017-02-19T13:11:10Z</time>
      </trkpt>
      <trkpt lat="46.77716" lon="4.74724">
        <ele>192</ele>
        <time>2017-02-19T13:11:11Z</time>
      </trkpt>
      <trkpt lat="46.77721" lon="4.74727">
        <ele>191</ele>
        <time>2017-02-19T13:11:12Z</time>
      </trkpt>
      <trkpt lat="46.77728" lon="4.74731">
        <ele>190</ele>
        <time>2017-02-19T13:11:13Z</time>
      </trkpt>
      <trkpt lat="46.77733" lon="4.74734">
        <ele>190</ele>
        <time>2017-02-19T13:11:14Z</time>
      </trkpt>
      <trkpt lat="46.77738" lon="4.74738">
        <ele>190</ele>
        <time>2017-02-19T13:11:15Z</time>
      </trkpt>
      <trkpt lat="46.77742" lon="4.74741">
        <ele>189</ele>
        <time>2017-02-19T13:11:16Z</time>
      </trkpt>
      <trkpt lat="46.77749" lon="4.74745">
        <ele>189</ele>
        <time>2017-02-19T13:11:18Z</time>
      </trkpt>
      <trkpt lat="46.77758" lon="4.7475">
        <ele>190</ele>
        <time>2017-02-19T13:11:20Z</time>
      </trkpt>
      <trkpt lat="46.77764" lon="4.74752">
        <ele>191</ele>
        <time>2017-02-19T13:11:22Z</time>
      </trkpt>
      <trkpt lat="46.77769" lon="4.74753">
        <ele>191</ele>
        <time>2017-02-19T13:11:24Z</time>
      </trkpt>
      <trkpt lat="46.77774" lon="4.74756">
        <ele>193</ele>
        <time>2017-02-19T13:11:26Z</time>
      </trkpt>
      <trkpt lat="46.77781" lon="4.74759">
        <ele>194</ele>
        <time>2017-02-19T13:11:28Z</time>
      </trkpt>
      <trkpt lat="46.77787" lon="4.74763">
        <ele>194</ele>
        <time>2017-02-19T13:11:30Z</time>
      </trkpt>
      <trkpt lat="46.77795" lon="4.74766">
        <ele>194</ele>
        <time>2017-02-19T13:11:32Z</time>
      </trkpt>
      <trkpt lat="46.77803" lon="4.7477">
        <ele>194</ele>
        <time>2017-02-19T13:11:34Z</time>
      </trkpt>
      <trkpt lat="46.77811" lon="4.74774">
        <ele>194</ele>
        <time>2017-02-19T13:11:36Z</time>
      </trkpt>
      <trkpt lat="46.77819" lon="4.74778">
        <ele>195</ele>
        <time>2017-02-19T13:11:38Z</time>
      </trkpt>
      <trkpt lat="46.77827" lon="4.74783">
        <ele>195</ele>
        <time>2017-02-19T13:11:40Z</time>
      </trkpt>
      <trkpt lat="46.77834" lon="4.74789">
        <ele>195</ele>
        <time>2017-02-19T13:11:42Z</time>
      </trkpt>
      <trkpt lat="46.77841" lon="4.74792">
        <ele>194</ele>
        <time>2017-02-19T13:11:44Z</time>
      </trkpt>
      <trkpt lat="46.77849" lon="4.74795">
        <ele>194</ele>
        <time>2017-02-19T13:11:46Z</time>
      </trkpt>
      <trkpt lat="46.77853" lon="4.74798">
        <ele>193</ele>
        <time>2017-02-19T13:11:47Z</time>
      </trkpt>
      <trkpt lat="46.77858" lon="4.74801">
        <ele>192</ele>
        <time>2017-02-19T13:11:48Z</time>
      </trkpt>
      <trkpt lat="46.77862" lon="4.74804">
        <ele>192</ele>
        <time>2017-02-19T13:11:49Z</time>
      </trkpt>
      <trkpt lat="46.77867" lon="4.74807">
        <ele>191</ele>
        <time>2017-02-19T13:11:50Z</time>
      </trkpt>
      <trkpt lat="46.77871" lon="4.74809">
        <ele>191</ele>
        <time>2017-02-19T13:11:51Z</time>
      </trkpt>
      <trkpt lat="46.77876" lon="4.74812">
        <ele>191</ele>
        <time>2017-02-19T13:11:52Z</time>
      </trkpt>
      <trkpt lat="46.7788" lon="4.74815">
        <ele>191</ele>
        <time>2017-02-19T13:11:53Z</time>
      </trkpt>
      <trkpt lat="46.77888" lon="4.74821">
        <ele>191</ele>
        <time>2017-02-19T13:11:55Z</time>
      </trkpt>
      <trkpt lat="46.77892" lon="4.74824">
        <ele>190</ele>
        <time>2017-02-19T13:11:56Z</time>
      </trkpt>
      <trkpt lat="46.77897" lon="4.74827">
        <ele>190</ele>
        <time>2017-02-19T13:11:57Z</time>
      </trkpt>
      <trkpt lat="46.77902" lon="4.74829">
        <ele>190</ele>
        <time>2017-02-19T13:11:58Z</time>
      </trkpt>
      <trkpt lat="46.77906" lon="4.74832">
        <ele>190</ele>
        <time>2017-02-19T13:11:59Z</time>
      </trkpt>
      <trkpt lat="46.77911" lon="4.74835">
        <ele>190</ele>
        <time>2017-02-19T13:12:00Z</time>
      </trkpt>
      <trkpt lat="46.77917" lon="4.74837">
        <ele>190</ele>
        <time>2017-02-19T13:12:01Z</time>
      </trkpt>
      <trkpt lat="46.77922" lon="4.7484">
        <ele>190</ele>
        <time>2017-02-19T13:12:02Z</time>
      </trkpt>
      <trkpt lat="46.77927" lon="4.74843">
        <ele>189</ele>
        <time>2017-02-19T13:12:03Z</time>
      </trkpt>
      <trkpt lat="46.77932" lon="4.74847">
        <ele>188</ele>
        <time>2017-02-19T13:12:04Z</time>
      </trkpt>
      <trkpt lat="46.77937" lon="4.7485">
        <ele>188</ele>
        <time>2017-02-19T13:12:05Z</time>
      </trkpt>
      <trkpt lat="46.77942" lon="4.74853">
        <ele>187</ele>
        <time>2017-02-19T13:12:06Z</time>
      </trkpt>
      <trkpt lat="46.77948" lon="4.74856">
        <ele>186</ele>
        <time>2017-02-19T13:12:07Z</time>
      </trkpt>
      <trkpt lat="46.77952" lon="4.7486">
        <ele>186</ele>
        <time>2017-02-19T13:12:08Z</time>
      </trkpt>
      <trkpt lat="46.77957" lon="4.74864">
        <ele>187</ele>
        <time>2017-02-19T13:12:09Z</time>
      </trkpt>
      <trkpt lat="46.77962" lon="4.74867">
        <ele>187</ele>
        <time>2017-02-19T13:12:10Z</time>
      </trkpt>
      <trkpt lat="46.77966" lon="4.7487">
        <ele>187</ele>
        <time>2017-02-19T13:12:11Z</time>
      </trkpt>
      <trkpt lat="46.7797" lon="4.74872">
        <ele>187</ele>
        <time>2017-02-19T13:12:12Z</time>
      </trkpt>
      <trkpt lat="46.77974" lon="4.74875">
        <ele>187</ele>
        <time>2017-02-19T13:12:13Z</time>
      </trkpt>
      <trkpt lat="46.77979" lon="4.74879">
        <ele>186</ele>
        <time>2017-02-19T13:12:14Z</time>
      </trkpt>
      <trkpt lat="46.77985" lon="4.74882">
        <ele>186</ele>
        <time>2017-02-19T13:12:15Z</time>
      </trkpt>
      <trkpt lat="46.77993" lon="4.74886">
        <ele>185</ele>
        <time>2017-02-19T13:12:16Z</time>
      </trkpt>
      <trkpt lat="46.78" lon="4.7489">
        <ele>185</ele>
        <time>2017-02-19T13:12:17Z</time>
      </trkpt>
      <trkpt lat="46.78007" lon="4.74894">
        <ele>186</ele>
        <time>2017-02-19T13:12:18Z</time>
      </trkpt>
      <trkpt lat="46.78014" lon="4.74897">
        <ele>186</ele>
        <time>2017-02-19T13:12:19Z</time>
      </trkpt>
      <trkpt lat="46.78021" lon="4.74901">
        <ele>187</ele>
        <time>2017-02-19T13:12:20Z</time>
      </trkpt>
      <trkpt lat="46.78027" lon="4.74905">
        <ele>187</ele>
        <time>2017-02-19T13:12:21Z</time>
      </trkpt>
      <trkpt lat="46.78033" lon="4.74908">
        <ele>188</ele>
        <time>2017-02-19T13:12:22Z</time>
      </trkpt>
      <trkpt lat="46.78038" lon="4.74912">
        <ele>188</ele>
        <time>2017-02-19T13:12:23Z</time>
      </trkpt>
      <trkpt lat="46.78043" lon="4.74916">
        <ele>188</ele>
        <time>2017-02-19T13:12:24Z</time>
      </trkpt>
      <trkpt lat="46.78048" lon="4.74918">
        <ele>187</ele>
        <time>2017-02-19T13:12:25Z</time>
      </trkpt>
      <trkpt lat="46.78053" lon="4.74922">
        <ele>187</ele>
        <time>2017-02-19T13:12:26Z</time>
      </trkpt>
      <trkpt lat="46.78058" lon="4.74925">
        <ele>186</ele>
        <time>2017-02-19T13:12:27Z</time>
      </trkpt>
      <trkpt lat="46.78062" lon="4.74928">
        <ele>184</ele>
        <time>2017-02-19T13:12:28Z</time>
      </trkpt>
      <trkpt lat="46.78067" lon="4.7493">
        <ele>183</ele>
        <time>2017-02-19T13:12:29Z</time>
      </trkpt>
      <trkpt lat="46.78072" lon="4.74933">
        <ele>182</ele>
        <time>2017-02-19T13:12:30Z</time>
      </trkpt>
      <trkpt lat="46.78076" lon="4.74935">
        <ele>181</ele>
        <time>2017-02-19T13:12:31Z</time>
      </trkpt>
      <trkpt lat="46.78083" lon="4.7493">
        <ele>181</ele>
        <time>2017-02-19T13:12:33Z</time>
      </trkpt>
      <trkpt lat="46.78089" lon="4.74921">
        <ele>181</ele>
        <time>2017-02-19T13:12:35Z</time>
      </trkpt>
      <trkpt lat="46.78091" lon="4.74915">
        <ele>181</ele>
        <time>2017-02-19T13:12:36Z</time>
      </trkpt>
      <trkpt lat="46.78095" lon="4.7491">
        <ele>182</ele>
        <time>2017-02-19T13:12:37Z</time>
      </trkpt>
      <trkpt lat="46.78099" lon="4.74905">
        <ele>183</ele>
        <time>2017-02-19T13:12:38Z</time>
      </trkpt>
      <trkpt lat="46.78102" lon="4.74899">
        <ele>183</ele>
        <time>2017-02-19T13:12:39Z</time>
      </trkpt>
      <trkpt lat="46.78108" lon="4.74893">
        <ele>184</ele>
        <time>2017-02-19T13:12:41Z</time>
      </trkpt>
      <trkpt lat="46.78114" lon="4.74891">
        <ele>183</ele>
        <time>2017-02-19T13:12:43Z</time>
      </trkpt>
      <trkpt lat="46.78121" lon="4.74896">
        <ele>182</ele>
        <time>2017-02-19T13:12:45Z</time>
      </trkpt>
      <trkpt lat="46.78127" lon="4.74902">
        <ele>181</ele>
        <time>2017-02-19T13:12:47Z</time>
      </trkpt>
      <trkpt lat="46.78132" lon="4.7491">
        <ele>180</ele>
        <time>2017-02-19T13:12:49Z</time>
      </trkpt>
      <trkpt lat="46.78138" lon="4.74919">
        <ele>180</ele>
        <time>2017-02-19T13:12:51Z</time>
      </trkpt>
      <trkpt lat="46.78143" lon="4.74924">
        <ele>179</ele>
        <time>2017-02-19T13:12:52Z</time>
      </trkpt>
      <trkpt lat="46.78147" lon="4.74929">
        <ele>178</ele>
        <time>2017-02-19T13:12:53Z</time>
      </trkpt>
      <trkpt lat="46.78153" lon="4.74935">
        <ele>177</ele>
        <time>2017-02-19T13:12:55Z</time>
      </trkpt>
      <trkpt lat="46.78154" lon="4.74949">
        <ele>174</ele>
        <time>2017-02-19T13:12:59Z</time>
      </trkpt>
      <trkpt lat="46.78158" lon="4.74955">
        <ele>173</ele>
        <time>2017-02-19T13:13:01Z</time>
      </trkpt>
      <trkpt lat="46.78162" lon="4.74963">
        <ele>172</ele>
        <time>2017-02-19T13:13:03Z</time>
      </trkpt>
      <trkpt lat="46.78165" lon="4.74971">
        <ele>172</ele>
        <time>2017-02-19T13:13:04Z</time>
      </trkpt>
      <trkpt lat="46.78167" lon="4.7498">
        <ele>172</ele>
        <time>2017-02-19T13:13:05Z</time>
      </trkpt>
      <trkpt lat="46.78173" lon="4.7499">
        <ele>172</ele>
        <time>2017-02-19T13:13:07Z</time>
      </trkpt>
      <trkpt lat="46.78178" lon="4.74998">
        <ele>171</ele>
        <time>2017-02-19T13:13:09Z</time>
      </trkpt>
      <trkpt lat="46.78185" lon="4.75008">
        <ele>170</ele>
        <time>2017-02-19T13:13:11Z</time>
      </trkpt>
      <trkpt lat="46.78188" lon="4.75013">
        <ele>170</ele>
        <time>2017-02-19T13:13:12Z</time>
      </trkpt>
      <trkpt lat="46.78192" lon="4.75019">
        <ele>169</ele>
        <time>2017-02-19T13:13:13Z</time>
      </trkpt>
      <trkpt lat="46.78195" lon="4.75025">
        <ele>168</ele>
        <time>2017-02-19T13:13:14Z</time>
      </trkpt>
      <trkpt lat="46.78199" lon="4.7503">
        <ele>168</ele>
        <time>2017-02-19T13:13:15Z</time>
      </trkpt>
      <trkpt lat="46.78203" lon="4.75036">
        <ele>167</ele>
        <time>2017-02-19T13:13:16Z</time>
      </trkpt>
      <trkpt lat="46.78207" lon="4.75041">
        <ele>167</ele>
        <time>2017-02-19T13:13:17Z</time>
      </trkpt>
      <trkpt lat="46.7821" lon="4.75047">
        <ele>167</ele>
        <time>2017-02-19T13:13:18Z</time>
      </trkpt>
      <trkpt lat="46.78212" lon="4.75053">
        <ele>167</ele>
        <time>2017-02-19T13:13:19Z</time>
      </trkpt>
      <trkpt lat="46.78215" lon="4.75059">
        <ele>167</ele>
        <time>2017-02-19T13:13:20Z</time>
      </trkpt>
      <trkpt lat="46.78219" lon="4.75069">
        <ele>167</ele>
        <time>2017-02-19T13:13:22Z</time>
      </trkpt>
      <trkpt lat="46.78224" lon="4.7508">
        <ele>167</ele>
        <time>2017-02-19T13:13:24Z</time>
      </trkpt>
      <trkpt lat="46.78227" lon="4.75086">
        <ele>167</ele>
        <time>2017-02-19T13:13:25Z</time>
      </trkpt>
      <trkpt lat="46.78231" lon="4.75091">
        <ele>166</ele>
        <time>2017-02-19T13:13:26Z</time>
      </trkpt>
      <trkpt lat="46.78235" lon="4.75097">
        <ele>166</ele>
        <time>2017-02-19T13:13:27Z</time>
      </trkpt>
      <trkpt lat="46.78238" lon="4.75103">
        <ele>166</ele>
        <time>2017-02-19T13:13:28Z</time>
      </trkpt>
      <trkpt lat="46.78242" lon="4.7511">
        <ele>166</ele>
        <time>2017-02-19T13:13:29Z</time>
      </trkpt>
      <trkpt lat="46.78245" lon="4.75116">
        <ele>166</ele>
        <time>2017-02-19T13:13:30Z</time>
      </trkpt>
      <trkpt lat="46.78248" lon="4.75122">
        <ele>166</ele>
        <time>2017-02-19T13:13:31Z</time>
      </trkpt>
      <trkpt lat="46.78251" lon="4.75129">
        <ele>166</ele>
        <time>2017-02-19T13:13:32Z</time>
      </trkpt>
      <trkpt lat="46.78254" lon="4.75135">
        <ele>167</ele>
        <time>2017-02-19T13:13:33Z</time>
      </trkpt>
      <trkpt lat="46.78257" lon="4.75141">
        <ele>167</ele>
        <time>2017-02-19T13:13:34Z</time>
      </trkpt>
      <trkpt lat="46.7826" lon="4.75147">
        <ele>167</ele>
        <time>2017-02-19T13:13:35Z</time>
      </trkpt>
      <trkpt lat="46.78262" lon="4.75154">
        <ele>167</ele>
        <time>2017-02-19T13:13:36Z</time>
      </trkpt>
      <trkpt lat="46.78265" lon="4.75161">
        <ele>167</ele>
        <time>2017-02-19T13:13:37Z</time>
      </trkpt>
      <trkpt lat="46.78268" lon="4.75169">
        <ele>167</ele>
        <time>2017-02-19T13:13:38Z</time>
      </trkpt>
      <trkpt lat="46.78271" lon="4.75177">
        <ele>167</ele>
        <time>2017-02-19T13:13:39Z</time>
      </trkpt>
      <trkpt lat="46.78273" lon="4.75184">
        <ele>168</ele>
        <time>2017-02-19T13:13:40Z</time>
      </trkpt>
      <trkpt lat="46.78276" lon="4.75191">
        <ele>168</ele>
        <time>2017-02-19T13:13:41Z</time>
      </trkpt>
      <trkpt lat="46.78278" lon="4.75198">
        <ele>167</ele>
        <time>2017-02-19T13:13:42Z</time>
      </trkpt>
      <trkpt lat="46.7828" lon="4.75206">
        <ele>167</ele>
        <time>2017-02-19T13:13:43Z</time>
      </trkpt>
      <trkpt lat="46.78282" lon="4.75214">
        <ele>166</ele>
        <time>2017-02-19T13:13:44Z</time>
      </trkpt>
      <trkpt lat="46.78284" lon="4.75223">
        <ele>165</ele>
        <time>2017-02-19T13:13:45Z</time>
      </trkpt>
      <trkpt lat="46.78286" lon="4.75233">
        <ele>165</ele>
        <time>2017-02-19T13:13:46Z</time>
      </trkpt>
      <trkpt lat="46.78288" lon="4.75243">
        <ele>165</ele>
        <time>2017-02-19T13:13:47Z</time>
      </trkpt>
      <trkpt lat="46.7829" lon="4.75253">
        <ele>166</ele>
        <time>2017-02-19T13:13:48Z</time>
      </trkpt>
      <trkpt lat="46.7829" lon="4.75262">
        <ele>166</ele>
        <time>2017-02-19T13:13:49Z</time>
      </trkpt>
      <trkpt lat="46.78291" lon="4.75271">
        <ele>167</ele>
        <time>2017-02-19T13:13:50Z</time>
      </trkpt>
      <trkpt lat="46.78291" lon="4.7528">
        <ele>167</ele>
        <time>2017-02-19T13:13:51Z</time>
      </trkpt>
      <trkpt lat="46.78291" lon="4.75289">
        <ele>167</ele>
        <time>2017-02-19T13:13:52Z</time>
      </trkpt>
      <trkpt lat="46.78292" lon="4.75299">
        <ele>167</ele>
        <time>2017-02-19T13:13:53Z</time>
      </trkpt>
      <trkpt lat="46.78293" lon="4.75309">
        <ele>167</ele>
        <time>2017-02-19T13:13:54Z</time>
      </trkpt>
      <trkpt lat="46.78293" lon="4.75319">
        <ele>167</ele>
        <time>2017-02-19T13:13:55Z</time>
      </trkpt>
      <trkpt lat="46.78294" lon="4.75328">
        <ele>168</ele>
        <time>2017-02-19T13:13:56Z</time>
      </trkpt>
      <trkpt lat="46.78295" lon="4.75337">
        <ele>169</ele>
        <time>2017-02-19T13:13:57Z</time>
      </trkpt>
      <trkpt lat="46.78297" lon="4.75347">
        <ele>170</ele>
        <time>2017-02-19T13:13:58Z</time>
      </trkpt>
      <trkpt lat="46.78299" lon="4.75356">
        <ele>172</ele>
        <time>2017-02-19T13:13:59Z</time>
      </trkpt>
      <trkpt lat="46.78301" lon="4.75365">
        <ele>173</ele>
        <time>2017-02-19T13:14:00Z</time>
      </trkpt>
      <trkpt lat="46.78302" lon="4.75374">
        <ele>175</ele>
        <time>2017-02-19T13:14:01Z</time>
      </trkpt>
      <trkpt lat="46.78303" lon="4.75382">
        <ele>177</ele>
        <time>2017-02-19T13:14:02Z</time>
      </trkpt>
      <trkpt lat="46.78305" lon="4.75391">
        <ele>178</ele>
        <time>2017-02-19T13:14:03Z</time>
      </trkpt>
      <trkpt lat="46.78306" lon="4.754">
        <ele>179</ele>
        <time>2017-02-19T13:14:04Z</time>
      </trkpt>
      <trkpt lat="46.78307" lon="4.75408">
        <ele>180</ele>
        <time>2017-02-19T13:14:05Z</time>
      </trkpt>
      <trkpt lat="46.78308" lon="4.75417">
        <ele>181</ele>
        <time>2017-02-19T13:14:06Z</time>
      </trkpt>
      <trkpt lat="46.78309" lon="4.75425">
        <ele>182</ele>
        <time>2017-02-19T13:14:07Z</time>
      </trkpt>
      <trkpt lat="46.7831" lon="4.75434">
        <ele>182</ele>
        <time>2017-02-19T13:14:08Z</time>
      </trkpt>
      <trkpt lat="46.78311" lon="4.75442">
        <ele>182</ele>
        <time>2017-02-19T13:14:09Z</time>
      </trkpt>
      <trkpt lat="46.78312" lon="4.75451">
        <ele>183</ele>
        <time>2017-02-19T13:14:10Z</time>
      </trkpt>
      <trkpt lat="46.78313" lon="4.75461">
        <ele>184</ele>
        <time>2017-02-19T13:14:11Z</time>
      </trkpt>
      <trkpt lat="46.78314" lon="4.75471">
        <ele>186</ele>
        <time>2017-02-19T13:14:12Z</time>
      </trkpt>
      <trkpt lat="46.78315" lon="4.7548">
        <ele>187</ele>
        <time>2017-02-19T13:14:13Z</time>
      </trkpt>
      <trkpt lat="46.78316" lon="4.75488">
        <ele>188</ele>
        <time>2017-02-19T13:14:14Z</time>
      </trkpt>
      <trkpt lat="46.78316" lon="4.75496">
        <ele>188</ele>
        <time>2017-02-19T13:14:15Z</time>
      </trkpt>
      <trkpt lat="46.78317" lon="4.75504">
        <ele>188</ele>
        <time>2017-02-19T13:14:16Z</time>
      </trkpt>
      <trkpt lat="46.78317" lon="4.75511">
        <ele>188</ele>
        <time>2017-02-19T13:14:17Z</time>
      </trkpt>
      <trkpt lat="46.78318" lon="4.75519">
        <ele>188</ele>
        <time>2017-02-19T13:14:18Z</time>
      </trkpt>
      <trkpt lat="46.78319" lon="4.75527">
        <ele>188</ele>
        <time>2017-02-19T13:14:19Z</time>
      </trkpt>
      <trkpt lat="46.78319" lon="4.75534">
        <ele>188</ele>
        <time>2017-02-19T13:14:20Z</time>
      </trkpt>
      <trkpt lat="46.7832" lon="4.7554">
        <ele>188</ele>
        <time>2017-02-19T13:14:21Z</time>
      </trkpt>
      <trkpt lat="46.78322" lon="4.75547">
        <ele>189</ele>
        <time>2017-02-19T13:14:22Z</time>
      </trkpt>
      <trkpt lat="46.78323" lon="4.75554">
        <ele>189</ele>
        <time>2017-02-19T13:14:23Z</time>
      </trkpt>
      <trkpt lat="46.78325" lon="4.75561">
        <ele>189</ele>
        <time>2017-02-19T13:14:24Z</time>
      </trkpt>
      <trkpt lat="46.78326" lon="4.75569">
        <ele>190</ele>
        <time>2017-02-19T13:14:25Z</time>
      </trkpt>
      <trkpt lat="46.78326" lon="4.75578">
        <ele>191</ele>
        <time>2017-02-19T13:14:26Z</time>
      </trkpt>
      <trkpt lat="46.78327" lon="4.75585">
        <ele>192</ele>
        <time>2017-02-19T13:14:27Z</time>
      </trkpt>
      <trkpt lat="46.78327" lon="4.75594">
        <ele>192</ele>
        <time>2017-02-19T13:14:28Z</time>
      </trkpt>
      <trkpt lat="46.78327" lon="4.75603">
        <ele>193</ele>
        <time>2017-02-19T13:14:29Z</time>
      </trkpt>
      <trkpt lat="46.78328" lon="4.75611">
        <ele>194</ele>
        <time>2017-02-19T13:14:30Z</time>
      </trkpt>
      <trkpt lat="46.78328" lon="4.75618">
        <ele>195</ele>
        <time>2017-02-19T13:14:31Z</time>
      </trkpt>
      <trkpt lat="46.78328" lon="4.75625">
        <ele>195</ele>
        <time>2017-02-19T13:14:32Z</time>
      </trkpt>
      <trkpt lat="46.78328" lon="4.75632">
        <ele>196</ele>
        <time>2017-02-19T13:14:33Z</time>
      </trkpt>
      <trkpt lat="46.7833" lon="4.75643">
        <ele>196</ele>
        <time>2017-02-19T13:14:35Z</time>
      </trkpt>
      <trkpt lat="46.78337" lon="4.75647">
        <ele>197</ele>
        <time>2017-02-19T13:14:37Z</time>
      </trkpt>
      <trkpt lat="46.78344" lon="4.75641">
        <ele>197</ele>
        <time>2017-02-19T13:14:39Z</time>
      </trkpt>
      <trkpt lat="46.78345" lon="4.75629">
        <ele>198</ele>
        <time>2017-02-19T13:14:41Z</time>
      </trkpt>
      <trkpt lat="46.78346" lon="4.75618">
        <ele>199</ele>
        <time>2017-02-19T13:14:43Z</time>
      </trkpt>
      <trkpt lat="46.78348" lon="4.75607">
        <ele>200</ele>
        <time>2017-02-19T13:14:45Z</time>
      </trkpt>
      <trkpt lat="46.78349" lon="4.75595">
        <ele>201</ele>
        <time>2017-02-19T13:14:47Z</time>
      </trkpt>
      <trkpt lat="46.78351" lon="4.75582">
        <ele>202</ele>
        <time>2017-02-19T13:14:49Z</time>
      </trkpt>
      <trkpt lat="46.78353" lon="4.75571">
        <ele>203</ele>
        <time>2017-02-19T13:14:51Z</time>
      </trkpt>
      <trkpt lat="46.78356" lon="4.7556">
        <ele>204</ele>
        <time>2017-02-19T13:14:53Z</time>
      </trkpt>
      <trkpt lat="46.7836" lon="4.75548">
        <ele>205</ele>
        <time>2017-02-19T13:14:55Z</time>
      </trkpt>
      <trkpt lat="46.78363" lon="4.75537">
        <ele>205</ele>
        <time>2017-02-19T13:14:57Z</time>
      </trkpt>
      <trkpt lat="46.78367" lon="4.75525">
        <ele>205</ele>
        <time>2017-02-19T13:14:59Z</time>
      </trkpt>
      <trkpt lat="46.78371" lon="4.75514">
        <ele>206</ele>
        <time>2017-02-19T13:15:01Z</time>
      </trkpt>
      <trkpt lat="46.78375" lon="4.75503">
        <ele>206</ele>
        <time>2017-02-19T13:15:03Z</time>
      </trkpt>
      <trkpt lat="46.78377" lon="4.75497">
        <ele>206</ele>
        <time>2017-02-19T13:15:04Z</time>
      </trkpt>
      <trkpt lat="46.78381" lon="4.75486">
        <ele>206</ele>
        <time>2017-02-19T13:15:06Z</time>
      </trkpt>
      <trkpt lat="46.78384" lon="4.7548">
        <ele>207</ele>
        <time>2017-02-19T13:15:07Z</time>
      </trkpt>
      <trkpt lat="46.78386" lon="4.75474">
        <ele>207</ele>
        <time>2017-02-19T13:15:08Z</time>
      </trkpt>
      <trkpt lat="46.78391" lon="4.75462">
        <ele>207</ele>
        <time>2017-02-19T13:15:10Z</time>
      </trkpt>
      <trkpt lat="46.78393" lon="4.75455">
        <ele>208</ele>
        <time>2017-02-19T13:15:11Z</time>
      </trkpt>
      <trkpt lat="46.78396" lon="4.75444">
        <ele>208</ele>
        <time>2017-02-19T13:15:13Z</time>
      </trkpt>
      <trkpt lat="46.784" lon="4.75433">
        <ele>208</ele>
        <time>2017-02-19T13:15:15Z</time>
      </trkpt>
      <trkpt lat="46.78402" lon="4.75426">
        <ele>208</ele>
        <time>2017-02-19T13:15:16Z</time>
      </trkpt>
      <trkpt lat="46.78405" lon="4.75415">
        <ele>208</ele>
        <time>2017-02-19T13:15:18Z</time>
      </trkpt>
      <trkpt lat="46.78408" lon="4.75405">
        <ele>208</ele>
        <time>2017-02-19T13:15:20Z</time>
      </trkpt>
      <trkpt lat="46.78412" lon="4.75394">
        <ele>208</ele>
        <time>2017-02-19T13:15:22Z</time>
      </trkpt>
      <trkpt lat="46.78414" lon="4.75388">
        <ele>208</ele>
        <time>2017-02-19T13:15:23Z</time>
      </trkpt>
      <trkpt lat="46.78416" lon="4.75382">
        <ele>209</ele>
        <time>2017-02-19T13:15:24Z</time>
      </trkpt>
      <trkpt lat="46.78419" lon="4.75371">
        <ele>209</ele>
        <time>2017-02-19T13:15:26Z</time>
      </trkpt>
      <trkpt lat="46.78422" lon="4.75362">
        <ele>210</ele>
        <time>2017-02-19T13:15:28Z</time>
      </trkpt>
      <trkpt lat="46.78424" lon="4.75354">
        <ele>210</ele>
        <time>2017-02-19T13:15:30Z</time>
      </trkpt>
      <trkpt lat="46.78427" lon="4.75345">
        <ele>210</ele>
        <time>2017-02-19T13:15:32Z</time>
      </trkpt>
      <trkpt lat="46.78432" lon="4.7534">
        <ele>210</ele>
        <time>2017-02-19T13:15:34Z</time>
      </trkpt>
      <trkpt lat="46.78438" lon="4.75342">
        <ele>211</ele>
        <time>2017-02-19T13:15:36Z</time>
      </trkpt>
      <trkpt lat="46.78444" lon="4.75344">
        <ele>211</ele>
        <time>2017-02-19T13:15:38Z</time>
      </trkpt>
      <trkpt lat="46.78448" lon="4.75348">
        <ele>211</ele>
        <time>2017-02-19T13:15:40Z</time>
      </trkpt>
      <trkpt lat="46.78453" lon="4.75353">
        <ele>211</ele>
        <time>2017-02-19T13:15:42Z</time>
      </trkpt>
      <trkpt lat="46.78458" lon="4.75358">
        <ele>212</ele>
        <time>2017-02-19T13:15:44Z</time>
      </trkpt>
      <trkpt lat="46.78464" lon="4.75362">
        <ele>212</ele>
        <time>2017-02-19T13:15:46Z</time>
      </trkpt>
      <trkpt lat="46.78471" lon="4.75365">
        <ele>212</ele>
        <time>2017-02-19T13:15:48Z</time>
      </trkpt>
      <trkpt lat="46.78478" lon="4.75368">
        <ele>212</ele>
        <time>2017-02-19T13:15:50Z</time>
      </trkpt>
      <trkpt lat="46.78484" lon="4.75371">
        <ele>212</ele>
        <time>2017-02-19T13:15:52Z</time>
      </trkpt>
      <trkpt lat="46.7849" lon="4.75373">
        <ele>212</ele>
        <time>2017-02-19T13:15:54Z</time>
      </trkpt>
      <trkpt lat="46.78497" lon="4.75377">
        <ele>212</ele>
        <time>2017-02-19T13:15:56Z</time>
      </trkpt>
      <trkpt lat="46.78504" lon="4.75381">
        <ele>212</ele>
        <time>2017-02-19T13:15:58Z</time>
      </trkpt>
      <trkpt lat="46.7851" lon="4.75385">
        <ele>212</ele>
        <time>2017-02-19T13:16:00Z</time>
      </trkpt>
      <trkpt lat="46.78515" lon="4.7539">
        <ele>212</ele>
        <time>2017-02-19T13:16:02Z</time>
      </trkpt>
      <trkpt lat="46.78519" lon="4.75395">
        <ele>212</ele>
        <time>2017-02-19T13:16:04Z</time>
      </trkpt>
      <trkpt lat="46.78525" lon="4.75399">
        <ele>212</ele>
        <time>2017-02-19T13:16:06Z</time>
      </trkpt>
      <trkpt lat="46.7853" lon="4.75403">
        <ele>212</ele>
        <time>2017-02-19T13:16:08Z</time>
      </trkpt>
      <trkpt lat="46.78536" lon="4.75407">
        <ele>211</ele>
        <time>2017-02-19T13:16:10Z</time>
      </trkpt>
      <trkpt lat="46.78539" lon="4.754">
        <ele>211</ele>
        <time>2017-02-19T13:16:13Z</time>
      </trkpt>
    </trkseg>
  </trk>
</gpx>